<?xml version="1.0" encoding="UTF-8" standalone="no" ?>
<gpx xmlns="http://www.topografix.com/GPX/1/1" xmlns:xsi="http://www.w3.org/2001/XMLSchema-instance" xsi:schemaLocation="http://www.topografix.com/GPX/1/1 http://www.topografix.com/GPX/1/1/gpx.xsd" version="1.1" creator="VisuGPX - https://www.visugpx.com">
  <metadata>
    <name>Move</name>
  </metadata>
  <trk>
    <name><![CDATA[Move]]></name>
    <trkseg>
      <trkpt lat="43.61131" lon="3.87732">
        <ele>96.099998474121</ele>
        <time>2020-07-07T16:18:30.000Z</time>
      </trkpt>
      <trkpt lat="43.61131" lon="3.87734">
        <ele>99.976596045258</ele>
        <time>2020-07-07T16:18:38.000Z</time>
      </trkpt>
      <trkpt lat="43.61132" lon="3.87735">
        <ele>92.98283376668</ele>
        <time>2020-07-07T16:18:41.000Z</time>
      </trkpt>
      <trkpt lat="43.61133" lon="3.87732">
        <ele>89.548488112154</ele>
        <time>2020-07-07T16:18:43.000Z</time>
      </trkpt>
      <trkpt lat="43.61133" lon="3.87728">
        <ele>86.114142457627</ele>
        <time>2020-07-07T16:18:45.000Z</time>
      </trkpt>
      <trkpt lat="43.61132" lon="3.87724">
        <ele>84.396969630364</ele>
        <time>2020-07-07T16:18:46.000Z</time>
      </trkpt>
      <trkpt lat="43.61131" lon="3.8772">
        <ele>80.962623975838</ele>
        <time>2020-07-07T16:18:48.000Z</time>
      </trkpt>
      <trkpt lat="43.61128" lon="3.87717">
        <ele>77.528278321311</ele>
        <time>2020-07-07T16:18:50.000Z</time>
      </trkpt>
      <trkpt lat="43.61125" lon="3.87715">
        <ele>75.369316363636</ele>
        <time>2020-07-07T16:18:52.000Z</time>
      </trkpt>
      <trkpt lat="43.61122" lon="3.87715">
        <ele>74.801134545455</ele>
        <time>2020-07-07T16:18:53.000Z</time>
      </trkpt>
      <trkpt lat="43.6112" lon="3.87715">
        <ele>74.232952727273</ele>
        <time>2020-07-07T16:18:54.000Z</time>
      </trkpt>
      <trkpt lat="43.61117" lon="3.87715">
        <ele>73.664770909091</ele>
        <time>2020-07-07T16:18:55.000Z</time>
      </trkpt>
      <trkpt lat="43.61116" lon="3.87715">
        <ele>73.096589090909</ele>
        <time>2020-07-07T16:18:56.000Z</time>
      </trkpt>
      <trkpt lat="43.61112" lon="3.87715">
        <ele>71.960225454545</ele>
        <time>2020-07-07T16:18:58.000Z</time>
      </trkpt>
      <trkpt lat="43.61109" lon="3.87714">
        <ele>71.392043636364</ele>
        <time>2020-07-07T16:18:59.000Z</time>
      </trkpt>
      <trkpt lat="43.61106" lon="3.87713">
        <ele>70.823861818182</ele>
        <time>2020-07-07T16:19:00.000Z</time>
      </trkpt>
      <trkpt lat="43.61104" lon="3.87712">
        <ele>70.25568</ele>
        <time>2020-07-07T16:19:01.000Z</time>
      </trkpt>
      <trkpt lat="43.611" lon="3.87712">
        <ele>69.834930492888</ele>
        <time>2020-07-07T16:19:03.000Z</time>
      </trkpt>
      <trkpt lat="43.61097" lon="3.87711">
        <ele>69.728434256551</ele>
        <time>2020-07-07T16:19:04.000Z</time>
      </trkpt>
      <trkpt lat="43.61095" lon="3.8771">
        <ele>69.621938020213</ele>
        <time>2020-07-07T16:19:05.000Z</time>
      </trkpt>
      <trkpt lat="43.61092" lon="3.87708">
        <ele>69.515441783875</ele>
        <time>2020-07-07T16:19:06.000Z</time>
      </trkpt>
      <trkpt lat="43.6109" lon="3.87706">
        <ele>69.408945547537</ele>
        <time>2020-07-07T16:19:07.000Z</time>
      </trkpt>
      <trkpt lat="43.61088" lon="3.87702">
        <ele>69.302449311199</ele>
        <time>2020-07-07T16:19:08.000Z</time>
      </trkpt>
      <trkpt lat="43.61087" lon="3.87698">
        <ele>69.195953074862</ele>
        <time>2020-07-07T16:19:09.000Z</time>
      </trkpt>
      <trkpt lat="43.61086" lon="3.87694">
        <ele>69.089456838524</ele>
        <time>2020-07-07T16:19:10.000Z</time>
      </trkpt>
      <trkpt lat="43.61086" lon="3.87689">
        <ele>68.969082135163</ele>
        <time>2020-07-07T16:19:11.000Z</time>
      </trkpt>
      <trkpt lat="43.61086" lon="3.87685">
        <ele>68.775845479932</ele>
        <time>2020-07-07T16:19:12.000Z</time>
      </trkpt>
      <trkpt lat="43.61086" lon="3.8768">
        <ele>68.582608824701</ele>
        <time>2020-07-07T16:19:13.000Z</time>
      </trkpt>
      <trkpt lat="43.61086" lon="3.87676">
        <ele>68.389372169469</ele>
        <time>2020-07-07T16:19:14.000Z</time>
      </trkpt>
      <trkpt lat="43.61087" lon="3.87672">
        <ele>68.196135514238</ele>
        <time>2020-07-07T16:19:15.000Z</time>
      </trkpt>
      <trkpt lat="43.61088" lon="3.87668">
        <ele>68.002898859007</ele>
        <time>2020-07-07T16:19:16.000Z</time>
      </trkpt>
      <trkpt lat="43.61088" lon="3.87664">
        <ele>67.809662203776</ele>
        <time>2020-07-07T16:19:17.000Z</time>
      </trkpt>
      <trkpt lat="43.61089" lon="3.8766">
        <ele>67.616425548545</ele>
        <time>2020-07-07T16:19:18.000Z</time>
      </trkpt>
      <trkpt lat="43.61089" lon="3.87656">
        <ele>67.423188893314</ele>
        <time>2020-07-07T16:19:19.000Z</time>
      </trkpt>
      <trkpt lat="43.61089" lon="3.87651">
        <ele>67.229952238082</ele>
        <time>2020-07-07T16:19:20.000Z</time>
      </trkpt>
      <trkpt lat="43.61089" lon="3.87646">
        <ele>67.036715582851</ele>
        <time>2020-07-07T16:19:21.000Z</time>
      </trkpt>
      <trkpt lat="43.61088" lon="3.87641">
        <ele>66.916062479938</ele>
        <time>2020-07-07T16:19:22.000Z</time>
      </trkpt>
      <trkpt lat="43.61088" lon="3.87636">
        <ele>66.812435502569</ele>
        <time>2020-07-07T16:19:23.000Z</time>
      </trkpt>
      <trkpt lat="43.61087" lon="3.87631">
        <ele>66.708808525201</ele>
        <time>2020-07-07T16:19:24.000Z</time>
      </trkpt>
      <trkpt lat="43.61086" lon="3.87626">
        <ele>66.605181547832</ele>
        <time>2020-07-07T16:19:25.000Z</time>
      </trkpt>
      <trkpt lat="43.61085" lon="3.8762">
        <ele>66.501554570464</ele>
        <time>2020-07-07T16:19:26.000Z</time>
      </trkpt>
      <trkpt lat="43.61084" lon="3.87614">
        <ele>66.397927593095</ele>
        <time>2020-07-07T16:19:27.000Z</time>
      </trkpt>
      <trkpt lat="43.61084" lon="3.87608">
        <ele>66.294300615727</ele>
        <time>2020-07-07T16:19:28.000Z</time>
      </trkpt>
      <trkpt lat="43.61084" lon="3.87603">
        <ele>66.190673638358</ele>
        <time>2020-07-07T16:19:29.000Z</time>
      </trkpt>
      <trkpt lat="43.61085" lon="3.87597">
        <ele>66.08704666099</ele>
        <time>2020-07-07T16:19:30.000Z</time>
      </trkpt>
      <trkpt lat="43.61085" lon="3.8759">
        <ele>65.984</ele>
        <time>2020-07-07T16:19:31.000Z</time>
      </trkpt>
      <trkpt lat="43.61086" lon="3.87583">
        <ele>65.884</ele>
        <time>2020-07-07T16:19:32.000Z</time>
      </trkpt>
      <trkpt lat="43.61086" lon="3.87576">
        <ele>65.784</ele>
        <time>2020-07-07T16:19:33.000Z</time>
      </trkpt>
      <trkpt lat="43.61086" lon="3.8757">
        <ele>65.684</ele>
        <time>2020-07-07T16:19:34.000Z</time>
      </trkpt>
      <trkpt lat="43.61085" lon="3.87563">
        <ele>65.584</ele>
        <time>2020-07-07T16:19:35.000Z</time>
      </trkpt>
      <trkpt lat="43.61085" lon="3.87556">
        <ele>65.484</ele>
        <time>2020-07-07T16:19:36.000Z</time>
      </trkpt>
      <trkpt lat="43.61085" lon="3.87549">
        <ele>65.384</ele>
        <time>2020-07-07T16:19:37.000Z</time>
      </trkpt>
      <trkpt lat="43.61085" lon="3.87542">
        <ele>65.284</ele>
        <time>2020-07-07T16:19:38.000Z</time>
      </trkpt>
      <trkpt lat="43.61085" lon="3.87534">
        <ele>65.184</ele>
        <time>2020-07-07T16:19:39.000Z</time>
      </trkpt>
      <trkpt lat="43.61086" lon="3.87527">
        <ele>65.084</ele>
        <time>2020-07-07T16:19:40.000Z</time>
      </trkpt>
      <trkpt lat="43.61086" lon="3.8752">
        <ele>65</ele>
        <time>2020-07-07T16:19:41.000Z</time>
      </trkpt>
      <trkpt lat="43.61086" lon="3.87512">
        <ele>65</ele>
        <time>2020-07-07T16:19:42.000Z</time>
      </trkpt>
      <trkpt lat="43.61086" lon="3.87505">
        <ele>65</ele>
        <time>2020-07-07T16:19:43.000Z</time>
      </trkpt>
      <trkpt lat="43.61086" lon="3.87497">
        <ele>65</ele>
        <time>2020-07-07T16:19:44.000Z</time>
      </trkpt>
      <trkpt lat="43.61085" lon="3.8749">
        <ele>65</ele>
        <time>2020-07-07T16:19:45.000Z</time>
      </trkpt>
      <trkpt lat="43.61086" lon="3.87483">
        <ele>65</ele>
        <time>2020-07-07T16:19:46.000Z</time>
      </trkpt>
      <trkpt lat="43.61086" lon="3.87476">
        <ele>65</ele>
        <time>2020-07-07T16:19:47.000Z</time>
      </trkpt>
      <trkpt lat="43.61087" lon="3.87469">
        <ele>65</ele>
        <time>2020-07-07T16:19:48.000Z</time>
      </trkpt>
      <trkpt lat="43.61088" lon="3.87463">
        <ele>65</ele>
        <time>2020-07-07T16:19:49.000Z</time>
      </trkpt>
      <trkpt lat="43.61088" lon="3.87456">
        <ele>65</ele>
        <time>2020-07-07T16:19:50.000Z</time>
      </trkpt>
      <trkpt lat="43.61088" lon="3.87449">
        <ele>64.968</ele>
        <time>2020-07-07T16:19:51.000Z</time>
      </trkpt>
      <trkpt lat="43.61088" lon="3.87442">
        <ele>64.768</ele>
        <time>2020-07-07T16:19:52.000Z</time>
      </trkpt>
      <trkpt lat="43.61089" lon="3.87435">
        <ele>64.568</ele>
        <time>2020-07-07T16:19:53.000Z</time>
      </trkpt>
      <trkpt lat="43.61089" lon="3.87428">
        <ele>64.368</ele>
        <time>2020-07-07T16:19:54.000Z</time>
      </trkpt>
      <trkpt lat="43.6109" lon="3.87421">
        <ele>64.168</ele>
        <time>2020-07-07T16:19:55.000Z</time>
      </trkpt>
      <trkpt lat="43.61089" lon="3.87413">
        <ele>63.968</ele>
        <time>2020-07-07T16:19:56.000Z</time>
      </trkpt>
      <trkpt lat="43.61089" lon="3.87406">
        <ele>63.768</ele>
        <time>2020-07-07T16:19:57.000Z</time>
      </trkpt>
      <trkpt lat="43.61089" lon="3.87399">
        <ele>63.568</ele>
        <time>2020-07-07T16:19:58.000Z</time>
      </trkpt>
      <trkpt lat="43.6109" lon="3.87392">
        <ele>63.368</ele>
        <time>2020-07-07T16:19:59.000Z</time>
      </trkpt>
      <trkpt lat="43.61089" lon="3.87386">
        <ele>63.168</ele>
        <time>2020-07-07T16:20:00.000Z</time>
      </trkpt>
      <trkpt lat="43.61089" lon="3.87379">
        <ele>63</ele>
        <time>2020-07-07T16:20:01.000Z</time>
      </trkpt>
      <trkpt lat="43.61089" lon="3.87373">
        <ele>63</ele>
        <time>2020-07-07T16:20:02.000Z</time>
      </trkpt>
      <trkpt lat="43.61088" lon="3.87367">
        <ele>63</ele>
        <time>2020-07-07T16:20:03.000Z</time>
      </trkpt>
      <trkpt lat="43.61088" lon="3.87361">
        <ele>63</ele>
        <time>2020-07-07T16:20:04.000Z</time>
      </trkpt>
      <trkpt lat="43.6109" lon="3.87355">
        <ele>63</ele>
        <time>2020-07-07T16:20:05.000Z</time>
      </trkpt>
      <trkpt lat="43.6109" lon="3.87349">
        <ele>63</ele>
        <time>2020-07-07T16:20:06.000Z</time>
      </trkpt>
      <trkpt lat="43.61092" lon="3.87342">
        <ele>63</ele>
        <time>2020-07-07T16:20:07.000Z</time>
      </trkpt>
      <trkpt lat="43.61093" lon="3.87336">
        <ele>63</ele>
        <time>2020-07-07T16:20:08.000Z</time>
      </trkpt>
      <trkpt lat="43.61095" lon="3.8733">
        <ele>63</ele>
        <time>2020-07-07T16:20:09.000Z</time>
      </trkpt>
      <trkpt lat="43.61097" lon="3.87323">
        <ele>63</ele>
        <time>2020-07-07T16:20:10.000Z</time>
      </trkpt>
      <trkpt lat="43.61099" lon="3.87316">
        <ele>63.016</ele>
        <time>2020-07-07T16:20:11.000Z</time>
      </trkpt>
      <trkpt lat="43.611" lon="3.8731">
        <ele>63.116</ele>
        <time>2020-07-07T16:20:12.000Z</time>
      </trkpt>
      <trkpt lat="43.61101" lon="3.87304">
        <ele>63.216</ele>
        <time>2020-07-07T16:20:13.000Z</time>
      </trkpt>
      <trkpt lat="43.61102" lon="3.87299">
        <ele>63.316</ele>
        <time>2020-07-07T16:20:14.000Z</time>
      </trkpt>
      <trkpt lat="43.61102" lon="3.87293">
        <ele>63.416</ele>
        <time>2020-07-07T16:20:15.000Z</time>
      </trkpt>
      <trkpt lat="43.61103" lon="3.87287">
        <ele>63.516</ele>
        <time>2020-07-07T16:20:16.000Z</time>
      </trkpt>
      <trkpt lat="43.61104" lon="3.87282">
        <ele>63.616</ele>
        <time>2020-07-07T16:20:17.000Z</time>
      </trkpt>
      <trkpt lat="43.61105" lon="3.87276">
        <ele>63.716</ele>
        <time>2020-07-07T16:20:18.000Z</time>
      </trkpt>
      <trkpt lat="43.61105" lon="3.8727">
        <ele>63.816</ele>
        <time>2020-07-07T16:20:19.000Z</time>
      </trkpt>
      <trkpt lat="43.61107" lon="3.87264">
        <ele>63.916</ele>
        <time>2020-07-07T16:20:20.000Z</time>
      </trkpt>
      <trkpt lat="43.61107" lon="3.87259">
        <ele>63.984</ele>
        <time>2020-07-07T16:20:21.000Z</time>
      </trkpt>
      <trkpt lat="43.61108" lon="3.87253">
        <ele>63.884</ele>
        <time>2020-07-07T16:20:22.000Z</time>
      </trkpt>
      <trkpt lat="43.61108" lon="3.87247">
        <ele>63.784</ele>
        <time>2020-07-07T16:20:23.000Z</time>
      </trkpt>
      <trkpt lat="43.61109" lon="3.87242">
        <ele>63.684</ele>
        <time>2020-07-07T16:20:24.000Z</time>
      </trkpt>
      <trkpt lat="43.61109" lon="3.87236">
        <ele>63.584</ele>
        <time>2020-07-07T16:20:25.000Z</time>
      </trkpt>
      <trkpt lat="43.6111" lon="3.87231">
        <ele>63.484</ele>
        <time>2020-07-07T16:20:26.000Z</time>
      </trkpt>
      <trkpt lat="43.61112" lon="3.87226">
        <ele>63.384</ele>
        <time>2020-07-07T16:20:27.000Z</time>
      </trkpt>
      <trkpt lat="43.61114" lon="3.87221">
        <ele>63.284</ele>
        <time>2020-07-07T16:20:28.000Z</time>
      </trkpt>
      <trkpt lat="43.61117" lon="3.87216">
        <ele>63.184</ele>
        <time>2020-07-07T16:20:29.000Z</time>
      </trkpt>
      <trkpt lat="43.61119" lon="3.87211">
        <ele>63.084</ele>
        <time>2020-07-07T16:20:30.000Z</time>
      </trkpt>
      <trkpt lat="43.61122" lon="3.87207">
        <ele>62.888</ele>
        <time>2020-07-07T16:20:31.000Z</time>
      </trkpt>
      <trkpt lat="43.61125" lon="3.87202">
        <ele>62.188</ele>
        <time>2020-07-07T16:20:32.000Z</time>
      </trkpt>
      <trkpt lat="43.6113" lon="3.872">
        <ele>61.488</ele>
        <time>2020-07-07T16:20:33.000Z</time>
      </trkpt>
      <trkpt lat="43.61136" lon="3.87199">
        <ele>60.788</ele>
        <time>2020-07-07T16:20:34.000Z</time>
      </trkpt>
      <trkpt lat="43.61143" lon="3.87199">
        <ele>60.088</ele>
        <time>2020-07-07T16:20:35.000Z</time>
      </trkpt>
      <trkpt lat="43.6115" lon="3.87201">
        <ele>59.388</ele>
        <time>2020-07-07T16:20:36.000Z</time>
      </trkpt>
      <trkpt lat="43.61157" lon="3.87202">
        <ele>58.688</ele>
        <time>2020-07-07T16:20:37.000Z</time>
      </trkpt>
      <trkpt lat="43.61163" lon="3.87202">
        <ele>57.988</ele>
        <time>2020-07-07T16:20:38.000Z</time>
      </trkpt>
      <trkpt lat="43.6117" lon="3.87202">
        <ele>57.288</ele>
        <time>2020-07-07T16:20:39.000Z</time>
      </trkpt>
      <trkpt lat="43.61176" lon="3.87201">
        <ele>56.588</ele>
        <time>2020-07-07T16:20:40.000Z</time>
      </trkpt>
      <trkpt lat="43.61182" lon="3.872">
        <ele>55.968</ele>
        <time>2020-07-07T16:20:41.000Z</time>
      </trkpt>
      <trkpt lat="43.61186" lon="3.87199">
        <ele>55.768</ele>
        <time>2020-07-07T16:20:42.000Z</time>
      </trkpt>
      <trkpt lat="43.6119" lon="3.87196">
        <ele>55.568</ele>
        <time>2020-07-07T16:20:43.000Z</time>
      </trkpt>
      <trkpt lat="43.61193" lon="3.87191">
        <ele>55.368</ele>
        <time>2020-07-07T16:20:44.000Z</time>
      </trkpt>
      <trkpt lat="43.61196" lon="3.87185">
        <ele>55.168</ele>
        <time>2020-07-07T16:20:45.000Z</time>
      </trkpt>
      <trkpt lat="43.61197" lon="3.87178">
        <ele>54.968</ele>
        <time>2020-07-07T16:20:46.000Z</time>
      </trkpt>
      <trkpt lat="43.61197" lon="3.8717">
        <ele>54.768</ele>
        <time>2020-07-07T16:20:47.000Z</time>
      </trkpt>
      <trkpt lat="43.61198" lon="3.87163">
        <ele>54.568</ele>
        <time>2020-07-07T16:20:48.000Z</time>
      </trkpt>
      <trkpt lat="43.61198" lon="3.87154">
        <ele>54.368</ele>
        <time>2020-07-07T16:20:49.000Z</time>
      </trkpt>
      <trkpt lat="43.61198" lon="3.87146">
        <ele>54.168</ele>
        <time>2020-07-07T16:20:50.000Z</time>
      </trkpt>
      <trkpt lat="43.61198" lon="3.87137">
        <ele>53.984</ele>
        <time>2020-07-07T16:20:51.000Z</time>
      </trkpt>
      <trkpt lat="43.61199" lon="3.87128">
        <ele>53.884</ele>
        <time>2020-07-07T16:20:52.000Z</time>
      </trkpt>
      <trkpt lat="43.61199" lon="3.8712">
        <ele>53.784</ele>
        <time>2020-07-07T16:20:53.000Z</time>
      </trkpt>
      <trkpt lat="43.612" lon="3.87111">
        <ele>53.684</ele>
        <time>2020-07-07T16:20:54.000Z</time>
      </trkpt>
      <trkpt lat="43.61201" lon="3.87102">
        <ele>53.584</ele>
        <time>2020-07-07T16:20:55.000Z</time>
      </trkpt>
      <trkpt lat="43.61201" lon="3.87093">
        <ele>53.484</ele>
        <time>2020-07-07T16:20:56.000Z</time>
      </trkpt>
      <trkpt lat="43.61202" lon="3.87084">
        <ele>53.384</ele>
        <time>2020-07-07T16:20:57.000Z</time>
      </trkpt>
      <trkpt lat="43.61203" lon="3.87075">
        <ele>53.284</ele>
        <time>2020-07-07T16:20:58.000Z</time>
      </trkpt>
      <trkpt lat="43.61204" lon="3.87066">
        <ele>53.184</ele>
        <time>2020-07-07T16:20:59.000Z</time>
      </trkpt>
      <trkpt lat="43.61204" lon="3.87058">
        <ele>53.084</ele>
        <time>2020-07-07T16:21:00.000Z</time>
      </trkpt>
      <trkpt lat="43.61205" lon="3.87048">
        <ele>52.984</ele>
        <time>2020-07-07T16:21:01.000Z</time>
      </trkpt>
      <trkpt lat="43.61205" lon="3.87039">
        <ele>52.884</ele>
        <time>2020-07-07T16:21:02.000Z</time>
      </trkpt>
      <trkpt lat="43.61206" lon="3.8703">
        <ele>52.784</ele>
        <time>2020-07-07T16:21:03.000Z</time>
      </trkpt>
      <trkpt lat="43.61207" lon="3.87021">
        <ele>52.684</ele>
        <time>2020-07-07T16:21:04.000Z</time>
      </trkpt>
      <trkpt lat="43.61208" lon="3.87012">
        <ele>52.584</ele>
        <time>2020-07-07T16:21:05.000Z</time>
      </trkpt>
      <trkpt lat="43.61208" lon="3.87003">
        <ele>52.484</ele>
        <time>2020-07-07T16:21:06.000Z</time>
      </trkpt>
      <trkpt lat="43.61209" lon="3.86994">
        <ele>52.384</ele>
        <time>2020-07-07T16:21:07.000Z</time>
      </trkpt>
      <trkpt lat="43.61209" lon="3.86984">
        <ele>52.284</ele>
        <time>2020-07-07T16:21:08.000Z</time>
      </trkpt>
      <trkpt lat="43.61209" lon="3.86975">
        <ele>52.184</ele>
        <time>2020-07-07T16:21:09.000Z</time>
      </trkpt>
      <trkpt lat="43.6121" lon="3.86966">
        <ele>52.084</ele>
        <time>2020-07-07T16:21:10.000Z</time>
      </trkpt>
      <trkpt lat="43.6121" lon="3.86957">
        <ele>51.968</ele>
        <time>2020-07-07T16:21:11.000Z</time>
      </trkpt>
      <trkpt lat="43.61211" lon="3.86947">
        <ele>51.768</ele>
        <time>2020-07-07T16:21:12.000Z</time>
      </trkpt>
      <trkpt lat="43.61212" lon="3.86938">
        <ele>51.568</ele>
        <time>2020-07-07T16:21:13.000Z</time>
      </trkpt>
      <trkpt lat="43.61212" lon="3.86929">
        <ele>51.368</ele>
        <time>2020-07-07T16:21:14.000Z</time>
      </trkpt>
      <trkpt lat="43.61213" lon="3.8692">
        <ele>51.168</ele>
        <time>2020-07-07T16:21:15.000Z</time>
      </trkpt>
      <trkpt lat="43.61213" lon="3.86911">
        <ele>50.968</ele>
        <time>2020-07-07T16:21:16.000Z</time>
      </trkpt>
      <trkpt lat="43.61214" lon="3.86901">
        <ele>50.768</ele>
        <time>2020-07-07T16:21:17.000Z</time>
      </trkpt>
      <trkpt lat="43.61214" lon="3.86892">
        <ele>50.568</ele>
        <time>2020-07-07T16:21:18.000Z</time>
      </trkpt>
      <trkpt lat="43.61215" lon="3.86884">
        <ele>50.368</ele>
        <time>2020-07-07T16:21:19.000Z</time>
      </trkpt>
      <trkpt lat="43.61216" lon="3.86874">
        <ele>50.168</ele>
        <time>2020-07-07T16:21:20.000Z</time>
      </trkpt>
      <trkpt lat="43.61217" lon="3.86865">
        <ele>50</ele>
        <time>2020-07-07T16:21:21.000Z</time>
      </trkpt>
      <trkpt lat="43.61217" lon="3.86856">
        <ele>50</ele>
        <time>2020-07-07T16:21:22.000Z</time>
      </trkpt>
      <trkpt lat="43.61218" lon="3.86848">
        <ele>50</ele>
        <time>2020-07-07T16:21:23.000Z</time>
      </trkpt>
      <trkpt lat="43.61218" lon="3.86841">
        <ele>50</ele>
        <time>2020-07-07T16:21:24.000Z</time>
      </trkpt>
      <trkpt lat="43.61219" lon="3.86836">
        <ele>50</ele>
        <time>2020-07-07T16:21:25.000Z</time>
      </trkpt>
      <trkpt lat="43.6122" lon="3.86832">
        <ele>50</ele>
        <time>2020-07-07T16:21:26.000Z</time>
      </trkpt>
      <trkpt lat="43.6122" lon="3.86828">
        <ele>50</ele>
        <time>2020-07-07T16:21:28.000Z</time>
      </trkpt>
      <trkpt lat="43.61221" lon="3.86825">
        <ele>50</ele>
        <time>2020-07-07T16:21:30.000Z</time>
      </trkpt>
      <trkpt lat="43.61223" lon="3.86822">
        <ele>49.579766536965</ele>
        <time>2020-07-07T16:21:33.000Z</time>
      </trkpt>
      <trkpt lat="43.61224" lon="3.86819">
        <ele>49.190661478599</ele>
        <time>2020-07-07T16:21:35.000Z</time>
      </trkpt>
      <trkpt lat="43.61224" lon="3.86816">
        <ele>48.996108949416</ele>
        <time>2020-07-07T16:21:36.000Z</time>
      </trkpt>
      <trkpt lat="43.61223" lon="3.86812">
        <ele>48.801556420234</ele>
        <time>2020-07-07T16:21:37.000Z</time>
      </trkpt>
      <trkpt lat="43.61222" lon="3.86808">
        <ele>48.607003891051</ele>
        <time>2020-07-07T16:21:38.000Z</time>
      </trkpt>
      <trkpt lat="43.61219" lon="3.86803">
        <ele>48.412451361868</ele>
        <time>2020-07-07T16:21:39.000Z</time>
      </trkpt>
      <trkpt lat="43.61216" lon="3.86798">
        <ele>48.217898832685</ele>
        <time>2020-07-07T16:21:40.000Z</time>
      </trkpt>
      <trkpt lat="43.61213" lon="3.86793">
        <ele>48.023346303502</ele>
        <time>2020-07-07T16:21:41.000Z</time>
      </trkpt>
      <trkpt lat="43.61209" lon="3.86787">
        <ele>47.637860082304</ele>
        <time>2020-07-07T16:21:42.000Z</time>
      </trkpt>
      <trkpt lat="43.61206" lon="3.86779">
        <ele>47.22633744856</ele>
        <time>2020-07-07T16:21:43.000Z</time>
      </trkpt>
      <trkpt lat="43.61204" lon="3.8677">
        <ele>46.814814814815</ele>
        <time>2020-07-07T16:21:44.000Z</time>
      </trkpt>
      <trkpt lat="43.61203" lon="3.86761">
        <ele>46.40329218107</ele>
        <time>2020-07-07T16:21:45.000Z</time>
      </trkpt>
      <trkpt lat="43.61203" lon="3.86752">
        <ele>45.991769547325</ele>
        <time>2020-07-07T16:21:46.000Z</time>
      </trkpt>
      <trkpt lat="43.61203" lon="3.86743">
        <ele>45.58024691358</ele>
        <time>2020-07-07T16:21:47.000Z</time>
      </trkpt>
      <trkpt lat="43.61204" lon="3.86734">
        <ele>45.168724279835</ele>
        <time>2020-07-07T16:21:48.000Z</time>
      </trkpt>
      <trkpt lat="43.61204" lon="3.86724">
        <ele>44.757201646091</ele>
        <time>2020-07-07T16:21:49.000Z</time>
      </trkpt>
      <trkpt lat="43.61205" lon="3.86714">
        <ele>44.345679012346</ele>
        <time>2020-07-07T16:21:50.000Z</time>
      </trkpt>
      <trkpt lat="43.61205" lon="3.86705">
        <ele>43.984435797665</ele>
        <time>2020-07-07T16:21:51.000Z</time>
      </trkpt>
      <trkpt lat="43.61206" lon="3.86696">
        <ele>43.887159533074</ele>
        <time>2020-07-07T16:21:52.000Z</time>
      </trkpt>
      <trkpt lat="43.61207" lon="3.86689">
        <ele>43.789883268482</ele>
        <time>2020-07-07T16:21:53.000Z</time>
      </trkpt>
      <trkpt lat="43.61207" lon="3.86685">
        <ele>43.692607003891</ele>
        <time>2020-07-07T16:21:54.000Z</time>
      </trkpt>
      <trkpt lat="43.61207" lon="3.86682">
        <ele>43.5953307393</ele>
        <time>2020-07-07T16:21:55.000Z</time>
      </trkpt>
      <trkpt lat="43.61207" lon="3.86679">
        <ele>43.498054474708</ele>
        <time>2020-07-07T16:21:56.000Z</time>
      </trkpt>
      <trkpt lat="43.61208" lon="3.86675">
        <ele>43.400778210117</ele>
        <time>2020-07-07T16:21:57.000Z</time>
      </trkpt>
      <trkpt lat="43.61208" lon="3.8667">
        <ele>43.303501945525</ele>
        <time>2020-07-07T16:21:58.000Z</time>
      </trkpt>
      <trkpt lat="43.61207" lon="3.86666">
        <ele>43.206225680934</ele>
        <time>2020-07-07T16:21:59.000Z</time>
      </trkpt>
      <trkpt lat="43.61206" lon="3.86663">
        <ele>43.108949416342</ele>
        <time>2020-07-07T16:22:00.000Z</time>
      </trkpt>
      <trkpt lat="43.61205" lon="3.8666">
        <ele>43.011673151751</ele>
        <time>2020-07-07T16:22:01.000Z</time>
      </trkpt>
      <trkpt lat="43.61205" lon="3.86657">
        <ele>43</ele>
        <time>2020-07-07T16:22:02.000Z</time>
      </trkpt>
      <trkpt lat="43.61205" lon="3.86654">
        <ele>43</ele>
        <time>2020-07-07T16:22:03.000Z</time>
      </trkpt>
      <trkpt lat="43.61207" lon="3.86651">
        <ele>43</ele>
        <time>2020-07-07T16:22:04.000Z</time>
      </trkpt>
      <trkpt lat="43.61207" lon="3.86648">
        <ele>43</ele>
        <time>2020-07-07T16:22:05.000Z</time>
      </trkpt>
      <trkpt lat="43.61208" lon="3.86645">
        <ele>43</ele>
        <time>2020-07-07T16:22:06.000Z</time>
      </trkpt>
      <trkpt lat="43.61208" lon="3.86641">
        <ele>43</ele>
        <time>2020-07-07T16:22:07.000Z</time>
      </trkpt>
      <trkpt lat="43.61207" lon="3.86636">
        <ele>43</ele>
        <time>2020-07-07T16:22:08.000Z</time>
      </trkpt>
      <trkpt lat="43.61206" lon="3.8663">
        <ele>43</ele>
        <time>2020-07-07T16:22:09.000Z</time>
      </trkpt>
      <trkpt lat="43.61205" lon="3.86624">
        <ele>43</ele>
        <time>2020-07-07T16:22:10.000Z</time>
      </trkpt>
      <trkpt lat="43.61203" lon="3.86618">
        <ele>43</ele>
        <time>2020-07-07T16:22:11.000Z</time>
      </trkpt>
      <trkpt lat="43.61201" lon="3.86613">
        <ele>43.090534979424</ele>
        <time>2020-07-07T16:22:12.000Z</time>
      </trkpt>
      <trkpt lat="43.612" lon="3.86607">
        <ele>43.19341563786</ele>
        <time>2020-07-07T16:22:13.000Z</time>
      </trkpt>
      <trkpt lat="43.61199" lon="3.86601">
        <ele>43.296296296296</ele>
        <time>2020-07-07T16:22:14.000Z</time>
      </trkpt>
      <trkpt lat="43.61198" lon="3.86595">
        <ele>43.399176954733</ele>
        <time>2020-07-07T16:22:15.000Z</time>
      </trkpt>
      <trkpt lat="43.61197" lon="3.86589">
        <ele>43.502057613169</ele>
        <time>2020-07-07T16:22:16.000Z</time>
      </trkpt>
      <trkpt lat="43.61196" lon="3.86583">
        <ele>43.604938271605</ele>
        <time>2020-07-07T16:22:17.000Z</time>
      </trkpt>
      <trkpt lat="43.61194" lon="3.86577">
        <ele>43.707818930041</ele>
        <time>2020-07-07T16:22:18.000Z</time>
      </trkpt>
      <trkpt lat="43.61193" lon="3.86571">
        <ele>43.810699588477</ele>
        <time>2020-07-07T16:22:19.000Z</time>
      </trkpt>
      <trkpt lat="43.61192" lon="3.86566">
        <ele>43.913580246914</ele>
        <time>2020-07-07T16:22:20.000Z</time>
      </trkpt>
      <trkpt lat="43.61191" lon="3.86563">
        <ele>44</ele>
        <time>2020-07-07T16:22:21.000Z</time>
      </trkpt>
      <trkpt lat="43.6119" lon="3.86559">
        <ele>44</ele>
        <time>2020-07-07T16:22:23.000Z</time>
      </trkpt>
      <trkpt lat="43.61189" lon="3.86556">
        <ele>44</ele>
        <time>2020-07-07T16:22:26.000Z</time>
      </trkpt>
      <trkpt lat="43.61187" lon="3.86554">
        <ele>44</ele>
        <time>2020-07-07T16:22:27.000Z</time>
      </trkpt>
      <trkpt lat="43.61186" lon="3.86552">
        <ele>44</ele>
        <time>2020-07-07T16:22:28.000Z</time>
      </trkpt>
      <trkpt lat="43.61184" lon="3.86548">
        <ele>44</ele>
        <time>2020-07-07T16:22:29.000Z</time>
      </trkpt>
      <trkpt lat="43.61183" lon="3.86544">
        <ele>44</ele>
        <time>2020-07-07T16:22:30.000Z</time>
      </trkpt>
      <trkpt lat="43.61183" lon="3.86538">
        <ele>44</ele>
        <time>2020-07-07T16:22:31.000Z</time>
      </trkpt>
      <trkpt lat="43.61183" lon="3.86532">
        <ele>44</ele>
        <time>2020-07-07T16:22:32.000Z</time>
      </trkpt>
      <trkpt lat="43.61184" lon="3.86526">
        <ele>44</ele>
        <time>2020-07-07T16:22:33.000Z</time>
      </trkpt>
      <trkpt lat="43.61185" lon="3.86521">
        <ele>44</ele>
        <time>2020-07-07T16:22:34.000Z</time>
      </trkpt>
      <trkpt lat="43.61185" lon="3.86515">
        <ele>44</ele>
        <time>2020-07-07T16:22:35.000Z</time>
      </trkpt>
      <trkpt lat="43.61186" lon="3.8651">
        <ele>44</ele>
        <time>2020-07-07T16:22:36.000Z</time>
      </trkpt>
      <trkpt lat="43.61187" lon="3.86504">
        <ele>44</ele>
        <time>2020-07-07T16:22:37.000Z</time>
      </trkpt>
      <trkpt lat="43.61187" lon="3.86499">
        <ele>44</ele>
        <time>2020-07-07T16:22:38.000Z</time>
      </trkpt>
      <trkpt lat="43.61187" lon="3.86492">
        <ele>44</ele>
        <time>2020-07-07T16:22:39.000Z</time>
      </trkpt>
      <trkpt lat="43.61187" lon="3.86486">
        <ele>44</ele>
        <time>2020-07-07T16:22:40.000Z</time>
      </trkpt>
      <trkpt lat="43.61188" lon="3.8648">
        <ele>44.016017611684</ele>
        <time>2020-07-07T16:22:41.000Z</time>
      </trkpt>
      <trkpt lat="43.61188" lon="3.86473">
        <ele>44.116127684712</ele>
        <time>2020-07-07T16:22:42.000Z</time>
      </trkpt>
      <trkpt lat="43.61188" lon="3.86467">
        <ele>44.216237757739</ele>
        <time>2020-07-07T16:22:43.000Z</time>
      </trkpt>
      <trkpt lat="43.61188" lon="3.86461">
        <ele>44.316347830767</ele>
        <time>2020-07-07T16:22:44.000Z</time>
      </trkpt>
      <trkpt lat="43.61189" lon="3.86454">
        <ele>44.416457903794</ele>
        <time>2020-07-07T16:22:45.000Z</time>
      </trkpt>
      <trkpt lat="43.61189" lon="3.86447">
        <ele>44.516567976822</ele>
        <time>2020-07-07T16:22:46.000Z</time>
      </trkpt>
      <trkpt lat="43.61189" lon="3.86441">
        <ele>44.616678049849</ele>
        <time>2020-07-07T16:22:47.000Z</time>
      </trkpt>
      <trkpt lat="43.61189" lon="3.86435">
        <ele>44.716788122877</ele>
        <time>2020-07-07T16:22:48.000Z</time>
      </trkpt>
      <trkpt lat="43.61189" lon="3.8643">
        <ele>44.816898195904</ele>
        <time>2020-07-07T16:22:49.000Z</time>
      </trkpt>
      <trkpt lat="43.61189" lon="3.86424">
        <ele>44.917008268932</ele>
        <time>2020-07-07T16:22:50.000Z</time>
      </trkpt>
      <trkpt lat="43.61189" lon="3.86418">
        <ele>45.03392425893</ele>
        <time>2020-07-07T16:22:51.000Z</time>
      </trkpt>
      <trkpt lat="43.6119" lon="3.86411">
        <ele>45.232317306984</ele>
        <time>2020-07-07T16:22:52.000Z</time>
      </trkpt>
      <trkpt lat="43.6119" lon="3.86405">
        <ele>45.430710355038</ele>
        <time>2020-07-07T16:22:53.000Z</time>
      </trkpt>
      <trkpt lat="43.6119" lon="3.86399">
        <ele>45.629103403091</ele>
        <time>2020-07-07T16:22:54.000Z</time>
      </trkpt>
      <trkpt lat="43.61191" lon="3.86392">
        <ele>45.827496451145</ele>
        <time>2020-07-07T16:22:55.000Z</time>
      </trkpt>
      <trkpt lat="43.61191" lon="3.86386">
        <ele>46.025889499199</ele>
        <time>2020-07-07T16:22:56.000Z</time>
      </trkpt>
      <trkpt lat="43.61192" lon="3.86381">
        <ele>46.224282547252</ele>
        <time>2020-07-07T16:22:57.000Z</time>
      </trkpt>
      <trkpt lat="43.61192" lon="3.86375">
        <ele>46.422675595306</ele>
        <time>2020-07-07T16:22:58.000Z</time>
      </trkpt>
      <trkpt lat="43.61192" lon="3.86369">
        <ele>46.62106864336</ele>
        <time>2020-07-07T16:22:59.000Z</time>
      </trkpt>
      <trkpt lat="43.61193" lon="3.86363">
        <ele>46.819461691413</ele>
        <time>2020-07-07T16:23:00.000Z</time>
      </trkpt>
      <trkpt lat="43.61194" lon="3.86357">
        <ele>47.009072258064</ele>
        <time>2020-07-07T16:23:01.000Z</time>
      </trkpt>
      <trkpt lat="43.61195" lon="3.8635">
        <ele>47.109878709677</ele>
        <time>2020-07-07T16:23:02.000Z</time>
      </trkpt>
      <trkpt lat="43.61195" lon="3.86344">
        <ele>47.21068516129</ele>
        <time>2020-07-07T16:23:03.000Z</time>
      </trkpt>
      <trkpt lat="43.61196" lon="3.86338">
        <ele>47.311491612903</ele>
        <time>2020-07-07T16:23:04.000Z</time>
      </trkpt>
      <trkpt lat="43.61196" lon="3.86331">
        <ele>47.412298064516</ele>
        <time>2020-07-07T16:23:05.000Z</time>
      </trkpt>
      <trkpt lat="43.61197" lon="3.86325">
        <ele>47.513104516129</ele>
        <time>2020-07-07T16:23:06.000Z</time>
      </trkpt>
      <trkpt lat="43.61198" lon="3.86318">
        <ele>47.613910967742</ele>
        <time>2020-07-07T16:23:07.000Z</time>
      </trkpt>
      <trkpt lat="43.61198" lon="3.86312">
        <ele>47.714717419355</ele>
        <time>2020-07-07T16:23:08.000Z</time>
      </trkpt>
      <trkpt lat="43.61199" lon="3.86306">
        <ele>47.815523870968</ele>
        <time>2020-07-07T16:23:09.000Z</time>
      </trkpt>
      <trkpt lat="43.61199" lon="3.86299">
        <ele>47.916330322581</ele>
        <time>2020-07-07T16:23:10.000Z</time>
      </trkpt>
      <trkpt lat="43.612" lon="3.86293">
        <ele>48.01699968</ele>
        <time>2020-07-07T16:23:11.000Z</time>
      </trkpt>
      <trkpt lat="43.61201" lon="3.86287">
        <ele>48.11699968</ele>
        <time>2020-07-07T16:23:12.000Z</time>
      </trkpt>
      <trkpt lat="43.61202" lon="3.86281">
        <ele>48.21699968</ele>
        <time>2020-07-07T16:23:13.000Z</time>
      </trkpt>
      <trkpt lat="43.61202" lon="3.86275">
        <ele>48.31699968</ele>
        <time>2020-07-07T16:23:14.000Z</time>
      </trkpt>
      <trkpt lat="43.61202" lon="3.86269">
        <ele>48.41699968</ele>
        <time>2020-07-07T16:23:15.000Z</time>
      </trkpt>
      <trkpt lat="43.61203" lon="3.86263">
        <ele>48.51699968</ele>
        <time>2020-07-07T16:23:16.000Z</time>
      </trkpt>
      <trkpt lat="43.61203" lon="3.86257">
        <ele>48.61699968</ele>
        <time>2020-07-07T16:23:17.000Z</time>
      </trkpt>
      <trkpt lat="43.61203" lon="3.86251">
        <ele>48.71699968</ele>
        <time>2020-07-07T16:23:18.000Z</time>
      </trkpt>
      <trkpt lat="43.61203" lon="3.86245">
        <ele>48.81699968</ele>
        <time>2020-07-07T16:23:19.000Z</time>
      </trkpt>
      <trkpt lat="43.61204" lon="3.86238">
        <ele>48.91699968</ele>
        <time>2020-07-07T16:23:20.000Z</time>
      </trkpt>
      <trkpt lat="43.61205" lon="3.86232">
        <ele>49.016982702732</ele>
        <time>2020-07-07T16:23:21.000Z</time>
      </trkpt>
      <trkpt lat="43.61205" lon="3.86225">
        <ele>49.116882834568</ele>
        <time>2020-07-07T16:23:22.000Z</time>
      </trkpt>
      <trkpt lat="43.61205" lon="3.86219">
        <ele>49.216782966404</ele>
        <time>2020-07-07T16:23:23.000Z</time>
      </trkpt>
      <trkpt lat="43.61206" lon="3.86213">
        <ele>49.31668309824</ele>
        <time>2020-07-07T16:23:24.000Z</time>
      </trkpt>
      <trkpt lat="43.61206" lon="3.86208">
        <ele>49.416583230077</ele>
        <time>2020-07-07T16:23:25.000Z</time>
      </trkpt>
      <trkpt lat="43.61206" lon="3.86202">
        <ele>49.516483361913</ele>
        <time>2020-07-07T16:23:26.000Z</time>
      </trkpt>
      <trkpt lat="43.61206" lon="3.86196">
        <ele>49.616383493749</ele>
        <time>2020-07-07T16:23:27.000Z</time>
      </trkpt>
      <trkpt lat="43.61205" lon="3.86191">
        <ele>49.716283625585</ele>
        <time>2020-07-07T16:23:28.000Z</time>
      </trkpt>
      <trkpt lat="43.61205" lon="3.86185">
        <ele>49.816183757421</ele>
        <time>2020-07-07T16:23:29.000Z</time>
      </trkpt>
      <trkpt lat="43.61205" lon="3.8618">
        <ele>49.916083889258</ele>
        <time>2020-07-07T16:23:30.000Z</time>
      </trkpt>
      <trkpt lat="43.61206" lon="3.86176">
        <ele>50</ele>
        <time>2020-07-07T16:23:31.000Z</time>
      </trkpt>
      <trkpt lat="43.61205" lon="3.86171">
        <ele>50</ele>
        <time>2020-07-07T16:23:32.000Z</time>
      </trkpt>
      <trkpt lat="43.61204" lon="3.86167">
        <ele>50</ele>
        <time>2020-07-07T16:23:33.000Z</time>
      </trkpt>
      <trkpt lat="43.61202" lon="3.86162">
        <ele>50</ele>
        <time>2020-07-07T16:23:34.000Z</time>
      </trkpt>
      <trkpt lat="43.61199" lon="3.86158">
        <ele>50</ele>
        <time>2020-07-07T16:23:35.000Z</time>
      </trkpt>
      <trkpt lat="43.61196" lon="3.86154">
        <ele>50</ele>
        <time>2020-07-07T16:23:36.000Z</time>
      </trkpt>
      <trkpt lat="43.61194" lon="3.8615">
        <ele>50</ele>
        <time>2020-07-07T16:23:37.000Z</time>
      </trkpt>
      <trkpt lat="43.61192" lon="3.86146">
        <ele>50</ele>
        <time>2020-07-07T16:23:38.000Z</time>
      </trkpt>
      <trkpt lat="43.6119" lon="3.86141">
        <ele>50</ele>
        <time>2020-07-07T16:23:39.000Z</time>
      </trkpt>
      <trkpt lat="43.61188" lon="3.86136">
        <ele>50</ele>
        <time>2020-07-07T16:23:40.000Z</time>
      </trkpt>
      <trkpt lat="43.61186" lon="3.86131">
        <ele>50</ele>
        <time>2020-07-07T16:23:41.000Z</time>
      </trkpt>
      <trkpt lat="43.61185" lon="3.86126">
        <ele>50</ele>
        <time>2020-07-07T16:23:42.000Z</time>
      </trkpt>
      <trkpt lat="43.61184" lon="3.86121">
        <ele>50</ele>
        <time>2020-07-07T16:23:43.000Z</time>
      </trkpt>
      <trkpt lat="43.61182" lon="3.86117">
        <ele>50</ele>
        <time>2020-07-07T16:23:44.000Z</time>
      </trkpt>
      <trkpt lat="43.61181" lon="3.86112">
        <ele>50</ele>
        <time>2020-07-07T16:23:45.000Z</time>
      </trkpt>
      <trkpt lat="43.61178" lon="3.86108">
        <ele>50</ele>
        <time>2020-07-07T16:23:46.000Z</time>
      </trkpt>
      <trkpt lat="43.61176" lon="3.86104">
        <ele>50</ele>
        <time>2020-07-07T16:23:47.000Z</time>
      </trkpt>
      <trkpt lat="43.61174" lon="3.86099">
        <ele>50</ele>
        <time>2020-07-07T16:23:48.000Z</time>
      </trkpt>
      <trkpt lat="43.61173" lon="3.86094">
        <ele>50</ele>
        <time>2020-07-07T16:23:49.000Z</time>
      </trkpt>
      <trkpt lat="43.61173" lon="3.86087">
        <ele>50</ele>
        <time>2020-07-07T16:23:50.000Z</time>
      </trkpt>
      <trkpt lat="43.61173" lon="3.8608">
        <ele>50.016982702732</ele>
        <time>2020-07-07T16:23:51.000Z</time>
      </trkpt>
      <trkpt lat="43.61172" lon="3.86074">
        <ele>50.116882834568</ele>
        <time>2020-07-07T16:23:52.000Z</time>
      </trkpt>
      <trkpt lat="43.61171" lon="3.86068">
        <ele>50.216782966404</ele>
        <time>2020-07-07T16:23:53.000Z</time>
      </trkpt>
      <trkpt lat="43.6117" lon="3.86062">
        <ele>50.31668309824</ele>
        <time>2020-07-07T16:23:54.000Z</time>
      </trkpt>
      <trkpt lat="43.6117" lon="3.86057">
        <ele>50.416583230077</ele>
        <time>2020-07-07T16:23:55.000Z</time>
      </trkpt>
      <trkpt lat="43.61169" lon="3.86052">
        <ele>50.516483361913</ele>
        <time>2020-07-07T16:23:56.000Z</time>
      </trkpt>
      <trkpt lat="43.61168" lon="3.86048">
        <ele>50.616383493749</ele>
        <time>2020-07-07T16:23:57.000Z</time>
      </trkpt>
      <trkpt lat="43.61167" lon="3.86043">
        <ele>50.716283625585</ele>
        <time>2020-07-07T16:23:58.000Z</time>
      </trkpt>
      <trkpt lat="43.61167" lon="3.86039">
        <ele>50.816183757421</ele>
        <time>2020-07-07T16:23:59.000Z</time>
      </trkpt>
      <trkpt lat="43.61166" lon="3.86034">
        <ele>50.916083889258</ele>
        <time>2020-07-07T16:24:00.000Z</time>
      </trkpt>
      <trkpt lat="43.61166" lon="3.8603">
        <ele>51.016</ele>
        <time>2020-07-07T16:24:01.000Z</time>
      </trkpt>
      <trkpt lat="43.61165" lon="3.86025">
        <ele>51.116</ele>
        <time>2020-07-07T16:24:02.000Z</time>
      </trkpt>
      <trkpt lat="43.61165" lon="3.86021">
        <ele>51.216</ele>
        <time>2020-07-07T16:24:03.000Z</time>
      </trkpt>
      <trkpt lat="43.61164" lon="3.86017">
        <ele>51.316</ele>
        <time>2020-07-07T16:24:04.000Z</time>
      </trkpt>
      <trkpt lat="43.61163" lon="3.86013">
        <ele>51.416</ele>
        <time>2020-07-07T16:24:05.000Z</time>
      </trkpt>
      <trkpt lat="43.61162" lon="3.86009">
        <ele>51.516</ele>
        <time>2020-07-07T16:24:06.000Z</time>
      </trkpt>
      <trkpt lat="43.61161" lon="3.86005">
        <ele>51.616</ele>
        <time>2020-07-07T16:24:07.000Z</time>
      </trkpt>
      <trkpt lat="43.61161" lon="3.86001">
        <ele>51.716</ele>
        <time>2020-07-07T16:24:08.000Z</time>
      </trkpt>
      <trkpt lat="43.6116" lon="3.85997">
        <ele>51.816</ele>
        <time>2020-07-07T16:24:09.000Z</time>
      </trkpt>
      <trkpt lat="43.61159" lon="3.85992">
        <ele>51.916</ele>
        <time>2020-07-07T16:24:10.000Z</time>
      </trkpt>
      <trkpt lat="43.61159" lon="3.85988">
        <ele>52.016</ele>
        <time>2020-07-07T16:24:11.000Z</time>
      </trkpt>
      <trkpt lat="43.61158" lon="3.85983">
        <ele>52.116</ele>
        <time>2020-07-07T16:24:12.000Z</time>
      </trkpt>
      <trkpt lat="43.61157" lon="3.85979">
        <ele>52.216</ele>
        <time>2020-07-07T16:24:13.000Z</time>
      </trkpt>
      <trkpt lat="43.61157" lon="3.85974">
        <ele>52.316</ele>
        <time>2020-07-07T16:24:14.000Z</time>
      </trkpt>
      <trkpt lat="43.61156" lon="3.8597">
        <ele>52.416</ele>
        <time>2020-07-07T16:24:15.000Z</time>
      </trkpt>
      <trkpt lat="43.61155" lon="3.85966">
        <ele>52.516</ele>
        <time>2020-07-07T16:24:16.000Z</time>
      </trkpt>
      <trkpt lat="43.61155" lon="3.85961">
        <ele>52.616</ele>
        <time>2020-07-07T16:24:17.000Z</time>
      </trkpt>
      <trkpt lat="43.61154" lon="3.85956">
        <ele>52.716</ele>
        <time>2020-07-07T16:24:18.000Z</time>
      </trkpt>
      <trkpt lat="43.61153" lon="3.85952">
        <ele>52.816</ele>
        <time>2020-07-07T16:24:19.000Z</time>
      </trkpt>
      <trkpt lat="43.61152" lon="3.85947">
        <ele>52.916</ele>
        <time>2020-07-07T16:24:20.000Z</time>
      </trkpt>
      <trkpt lat="43.61151" lon="3.85942">
        <ele>53</ele>
        <time>2020-07-07T16:24:21.000Z</time>
      </trkpt>
      <trkpt lat="43.6115" lon="3.85937">
        <ele>53</ele>
        <time>2020-07-07T16:24:22.000Z</time>
      </trkpt>
      <trkpt lat="43.61149" lon="3.85933">
        <ele>53</ele>
        <time>2020-07-07T16:24:23.000Z</time>
      </trkpt>
      <trkpt lat="43.61148" lon="3.85928">
        <ele>53</ele>
        <time>2020-07-07T16:24:24.000Z</time>
      </trkpt>
      <trkpt lat="43.61147" lon="3.85922">
        <ele>53</ele>
        <time>2020-07-07T16:24:25.000Z</time>
      </trkpt>
      <trkpt lat="43.61147" lon="3.85917">
        <ele>53</ele>
        <time>2020-07-07T16:24:26.000Z</time>
      </trkpt>
      <trkpt lat="43.61146" lon="3.85911">
        <ele>53</ele>
        <time>2020-07-07T16:24:27.000Z</time>
      </trkpt>
      <trkpt lat="43.61145" lon="3.85905">
        <ele>53</ele>
        <time>2020-07-07T16:24:28.000Z</time>
      </trkpt>
      <trkpt lat="43.61144" lon="3.859">
        <ele>53</ele>
        <time>2020-07-07T16:24:29.000Z</time>
      </trkpt>
      <trkpt lat="43.61143" lon="3.85895">
        <ele>53</ele>
        <time>2020-07-07T16:24:30.000Z</time>
      </trkpt>
      <trkpt lat="43.61143" lon="3.85889">
        <ele>53.016</ele>
        <time>2020-07-07T16:24:31.000Z</time>
      </trkpt>
      <trkpt lat="43.61141" lon="3.85884">
        <ele>53.116</ele>
        <time>2020-07-07T16:24:32.000Z</time>
      </trkpt>
      <trkpt lat="43.6114" lon="3.85879">
        <ele>53.216</ele>
        <time>2020-07-07T16:24:33.000Z</time>
      </trkpt>
      <trkpt lat="43.61139" lon="3.85874">
        <ele>53.316</ele>
        <time>2020-07-07T16:24:34.000Z</time>
      </trkpt>
      <trkpt lat="43.61138" lon="3.85869">
        <ele>53.416</ele>
        <time>2020-07-07T16:24:35.000Z</time>
      </trkpt>
      <trkpt lat="43.61137" lon="3.85864">
        <ele>53.516</ele>
        <time>2020-07-07T16:24:36.000Z</time>
      </trkpt>
      <trkpt lat="43.61136" lon="3.85859">
        <ele>53.616</ele>
        <time>2020-07-07T16:24:37.000Z</time>
      </trkpt>
      <trkpt lat="43.61135" lon="3.85853">
        <ele>53.716</ele>
        <time>2020-07-07T16:24:38.000Z</time>
      </trkpt>
      <trkpt lat="43.61135" lon="3.85848">
        <ele>53.816</ele>
        <time>2020-07-07T16:24:39.000Z</time>
      </trkpt>
      <trkpt lat="43.61134" lon="3.85844">
        <ele>53.916</ele>
        <time>2020-07-07T16:24:40.000Z</time>
      </trkpt>
      <trkpt lat="43.61134" lon="3.85839">
        <ele>54</ele>
        <time>2020-07-07T16:24:41.000Z</time>
      </trkpt>
      <trkpt lat="43.61133" lon="3.85834">
        <ele>54</ele>
        <time>2020-07-07T16:24:42.000Z</time>
      </trkpt>
      <trkpt lat="43.61132" lon="3.85829">
        <ele>54</ele>
        <time>2020-07-07T16:24:43.000Z</time>
      </trkpt>
      <trkpt lat="43.61131" lon="3.85824">
        <ele>54</ele>
        <time>2020-07-07T16:24:44.000Z</time>
      </trkpt>
      <trkpt lat="43.6113" lon="3.8582">
        <ele>54</ele>
        <time>2020-07-07T16:24:45.000Z</time>
      </trkpt>
      <trkpt lat="43.6113" lon="3.85815">
        <ele>54</ele>
        <time>2020-07-07T16:24:46.000Z</time>
      </trkpt>
      <trkpt lat="43.61129" lon="3.85811">
        <ele>54</ele>
        <time>2020-07-07T16:24:47.000Z</time>
      </trkpt>
      <trkpt lat="43.61129" lon="3.85806">
        <ele>54</ele>
        <time>2020-07-07T16:24:48.000Z</time>
      </trkpt>
      <trkpt lat="43.61128" lon="3.85802">
        <ele>54</ele>
        <time>2020-07-07T16:24:49.000Z</time>
      </trkpt>
      <trkpt lat="43.61128" lon="3.85798">
        <ele>54</ele>
        <time>2020-07-07T16:24:50.000Z</time>
      </trkpt>
      <trkpt lat="43.61128" lon="3.85793">
        <ele>54.031968042188</ele>
        <time>2020-07-07T16:24:51.000Z</time>
      </trkpt>
      <trkpt lat="43.61127" lon="3.85789">
        <ele>54.23176830586</ele>
        <time>2020-07-07T16:24:52.000Z</time>
      </trkpt>
      <trkpt lat="43.61126" lon="3.85785">
        <ele>54.431568569532</ele>
        <time>2020-07-07T16:24:53.000Z</time>
      </trkpt>
      <trkpt lat="43.61126" lon="3.8578">
        <ele>54.631368833205</ele>
        <time>2020-07-07T16:24:54.000Z</time>
      </trkpt>
      <trkpt lat="43.61125" lon="3.85776">
        <ele>54.831169096877</ele>
        <time>2020-07-07T16:24:55.000Z</time>
      </trkpt>
      <trkpt lat="43.61124" lon="3.85772">
        <ele>55.03096936055</ele>
        <time>2020-07-07T16:24:56.000Z</time>
      </trkpt>
      <trkpt lat="43.61123" lon="3.85768">
        <ele>55.230769624222</ele>
        <time>2020-07-07T16:24:57.000Z</time>
      </trkpt>
      <trkpt lat="43.61122" lon="3.85764">
        <ele>55.430569887894</ele>
        <time>2020-07-07T16:24:58.000Z</time>
      </trkpt>
      <trkpt lat="43.61121" lon="3.8576">
        <ele>55.630370151567</ele>
        <time>2020-07-07T16:24:59.000Z</time>
      </trkpt>
      <trkpt lat="43.6112" lon="3.85756">
        <ele>55.830170415239</ele>
        <time>2020-07-07T16:25:00.000Z</time>
      </trkpt>
      <trkpt lat="43.61119" lon="3.85753">
        <ele>56.045045991577</ele>
        <time>2020-07-07T16:25:01.000Z</time>
      </trkpt>
      <trkpt lat="43.61117" lon="3.85749">
        <ele>56.345346195685</ele>
        <time>2020-07-07T16:25:02.000Z</time>
      </trkpt>
      <trkpt lat="43.61116" lon="3.85745">
        <ele>56.645646399793</ele>
        <time>2020-07-07T16:25:03.000Z</time>
      </trkpt>
      <trkpt lat="43.61115" lon="3.85742">
        <ele>56.945946603901</ele>
        <time>2020-07-07T16:25:04.000Z</time>
      </trkpt>
      <trkpt lat="43.61114" lon="3.85739">
        <ele>57.246246808009</ele>
        <time>2020-07-07T16:25:05.000Z</time>
      </trkpt>
      <trkpt lat="43.61113" lon="3.85735">
        <ele>57.546547012117</ele>
        <time>2020-07-07T16:25:06.000Z</time>
      </trkpt>
      <trkpt lat="43.61111" lon="3.85732">
        <ele>57.846847216225</ele>
        <time>2020-07-07T16:25:07.000Z</time>
      </trkpt>
      <trkpt lat="43.6111" lon="3.85729">
        <ele>58.147147420333</ele>
        <time>2020-07-07T16:25:08.000Z</time>
      </trkpt>
      <trkpt lat="43.61108" lon="3.85726">
        <ele>58.447447624441</ele>
        <time>2020-07-07T16:25:09.000Z</time>
      </trkpt>
      <trkpt lat="43.61107" lon="3.85723">
        <ele>58.747747828549</ele>
        <time>2020-07-07T16:25:10.000Z</time>
      </trkpt>
      <trkpt lat="43.61105" lon="3.8572">
        <ele>59.031128404669</ele>
        <time>2020-07-07T16:25:11.000Z</time>
      </trkpt>
      <trkpt lat="43.61103" lon="3.85717">
        <ele>59.225680933852</ele>
        <time>2020-07-07T16:25:12.000Z</time>
      </trkpt>
      <trkpt lat="43.61102" lon="3.85714">
        <ele>59.420233463035</ele>
        <time>2020-07-07T16:25:13.000Z</time>
      </trkpt>
      <trkpt lat="43.611" lon="3.85712">
        <ele>59.614785992218</ele>
        <time>2020-07-07T16:25:14.000Z</time>
      </trkpt>
      <trkpt lat="43.61098" lon="3.85709">
        <ele>59.809338521401</ele>
        <time>2020-07-07T16:25:15.000Z</time>
      </trkpt>
      <trkpt lat="43.61097" lon="3.85706">
        <ele>60.003891050584</ele>
        <time>2020-07-07T16:25:16.000Z</time>
      </trkpt>
      <trkpt lat="43.61095" lon="3.85703">
        <ele>60.198443579766</ele>
        <time>2020-07-07T16:25:17.000Z</time>
      </trkpt>
      <trkpt lat="43.61093" lon="3.857">
        <ele>60.392996108949</ele>
        <time>2020-07-07T16:25:18.000Z</time>
      </trkpt>
      <trkpt lat="43.61092" lon="3.85698">
        <ele>60.587548638132</ele>
        <time>2020-07-07T16:25:19.000Z</time>
      </trkpt>
      <trkpt lat="43.6109" lon="3.85695">
        <ele>60.782101167315</ele>
        <time>2020-07-07T16:25:20.000Z</time>
      </trkpt>
      <trkpt lat="43.61088" lon="3.85693">
        <ele>60.976653696498</ele>
        <time>2020-07-07T16:25:21.000Z</time>
      </trkpt>
      <trkpt lat="43.61087" lon="3.8569">
        <ele>61.181069958848</ele>
        <time>2020-07-07T16:25:22.000Z</time>
      </trkpt>
      <trkpt lat="43.61085" lon="3.85687">
        <ele>61.38683127572</ele>
        <time>2020-07-07T16:25:23.000Z</time>
      </trkpt>
      <trkpt lat="43.61083" lon="3.85685">
        <ele>61.592592592593</ele>
        <time>2020-07-07T16:25:24.000Z</time>
      </trkpt>
      <trkpt lat="43.61081" lon="3.85682">
        <ele>61.798353909465</ele>
        <time>2020-07-07T16:25:25.000Z</time>
      </trkpt>
      <trkpt lat="43.61079" lon="3.85679">
        <ele>62.004115226337</ele>
        <time>2020-07-07T16:25:26.000Z</time>
      </trkpt>
      <trkpt lat="43.61077" lon="3.85677">
        <ele>62.20987654321</ele>
        <time>2020-07-07T16:25:27.000Z</time>
      </trkpt>
      <trkpt lat="43.61075" lon="3.85674">
        <ele>62.415637860082</ele>
        <time>2020-07-07T16:25:28.000Z</time>
      </trkpt>
      <trkpt lat="43.61073" lon="3.85672">
        <ele>62.621399176955</ele>
        <time>2020-07-07T16:25:29.000Z</time>
      </trkpt>
      <trkpt lat="43.61072" lon="3.85669">
        <ele>62.827160493827</ele>
        <time>2020-07-07T16:25:30.000Z</time>
      </trkpt>
      <trkpt lat="43.6107" lon="3.85666">
        <ele>63.016</ele>
        <time>2020-07-07T16:25:31.000Z</time>
      </trkpt>
      <trkpt lat="43.61068" lon="3.85664">
        <ele>63.116</ele>
        <time>2020-07-07T16:25:32.000Z</time>
      </trkpt>
      <trkpt lat="43.61066" lon="3.85661">
        <ele>63.216</ele>
        <time>2020-07-07T16:25:33.000Z</time>
      </trkpt>
      <trkpt lat="43.61064" lon="3.85658">
        <ele>63.316</ele>
        <time>2020-07-07T16:25:34.000Z</time>
      </trkpt>
      <trkpt lat="43.61062" lon="3.85655">
        <ele>63.416</ele>
        <time>2020-07-07T16:25:35.000Z</time>
      </trkpt>
      <trkpt lat="43.61061" lon="3.85653">
        <ele>63.516</ele>
        <time>2020-07-07T16:25:36.000Z</time>
      </trkpt>
      <trkpt lat="43.61059" lon="3.8565">
        <ele>63.616</ele>
        <time>2020-07-07T16:25:37.000Z</time>
      </trkpt>
      <trkpt lat="43.61057" lon="3.85647">
        <ele>63.716</ele>
        <time>2020-07-07T16:25:38.000Z</time>
      </trkpt>
      <trkpt lat="43.61055" lon="3.85644">
        <ele>63.816</ele>
        <time>2020-07-07T16:25:39.000Z</time>
      </trkpt>
      <trkpt lat="43.61053" lon="3.85641">
        <ele>63.916</ele>
        <time>2020-07-07T16:25:40.000Z</time>
      </trkpt>
      <trkpt lat="43.61051" lon="3.85637">
        <ele>64</ele>
        <time>2020-07-07T16:25:41.000Z</time>
      </trkpt>
      <trkpt lat="43.6105" lon="3.85634">
        <ele>64</ele>
        <time>2020-07-07T16:25:42.000Z</time>
      </trkpt>
      <trkpt lat="43.61048" lon="3.85629">
        <ele>64</ele>
        <time>2020-07-07T16:25:43.000Z</time>
      </trkpt>
      <trkpt lat="43.61047" lon="3.85625">
        <ele>64</ele>
        <time>2020-07-07T16:25:44.000Z</time>
      </trkpt>
      <trkpt lat="43.61046" lon="3.85621">
        <ele>64</ele>
        <time>2020-07-07T16:25:45.000Z</time>
      </trkpt>
      <trkpt lat="43.61045" lon="3.85616">
        <ele>64</ele>
        <time>2020-07-07T16:25:46.000Z</time>
      </trkpt>
      <trkpt lat="43.61044" lon="3.85611">
        <ele>64</ele>
        <time>2020-07-07T16:25:47.000Z</time>
      </trkpt>
      <trkpt lat="43.61044" lon="3.85605">
        <ele>64</ele>
        <time>2020-07-07T16:25:48.000Z</time>
      </trkpt>
      <trkpt lat="43.61044" lon="3.856">
        <ele>64</ele>
        <time>2020-07-07T16:25:49.000Z</time>
      </trkpt>
      <trkpt lat="43.61043" lon="3.85596">
        <ele>64</ele>
        <time>2020-07-07T16:25:50.000Z</time>
      </trkpt>
      <trkpt lat="43.61042" lon="3.85591">
        <ele>64</ele>
        <time>2020-07-07T16:25:51.000Z</time>
      </trkpt>
      <trkpt lat="43.61042" lon="3.85586">
        <ele>64</ele>
        <time>2020-07-07T16:25:52.000Z</time>
      </trkpt>
      <trkpt lat="43.61041" lon="3.85581">
        <ele>64</ele>
        <time>2020-07-07T16:25:53.000Z</time>
      </trkpt>
      <trkpt lat="43.61041" lon="3.85576">
        <ele>64</ele>
        <time>2020-07-07T16:25:54.000Z</time>
      </trkpt>
      <trkpt lat="43.61041" lon="3.85571">
        <ele>64</ele>
        <time>2020-07-07T16:25:55.000Z</time>
      </trkpt>
      <trkpt lat="43.61041" lon="3.85566">
        <ele>64</ele>
        <time>2020-07-07T16:25:56.000Z</time>
      </trkpt>
      <trkpt lat="43.61041" lon="3.85561">
        <ele>64</ele>
        <time>2020-07-07T16:25:57.000Z</time>
      </trkpt>
      <trkpt lat="43.61041" lon="3.85555">
        <ele>64</ele>
        <time>2020-07-07T16:25:58.000Z</time>
      </trkpt>
      <trkpt lat="43.6104" lon="3.8555">
        <ele>64</ele>
        <time>2020-07-07T16:25:59.000Z</time>
      </trkpt>
      <trkpt lat="43.6104" lon="3.85545">
        <ele>64</ele>
        <time>2020-07-07T16:26:00.000Z</time>
      </trkpt>
      <trkpt lat="43.6104" lon="3.8554">
        <ele>64.00881457671</ele>
        <time>2020-07-07T16:26:01.000Z</time>
      </trkpt>
      <trkpt lat="43.61039" lon="3.85534">
        <ele>64.106757800355</ele>
        <time>2020-07-07T16:26:02.000Z</time>
      </trkpt>
      <trkpt lat="43.61038" lon="3.85529">
        <ele>64.204701024</ele>
        <time>2020-07-07T16:26:03.000Z</time>
      </trkpt>
      <trkpt lat="43.61038" lon="3.85523">
        <ele>64.302644247646</ele>
        <time>2020-07-07T16:26:04.000Z</time>
      </trkpt>
      <trkpt lat="43.61037" lon="3.85518">
        <ele>64.400587471291</ele>
        <time>2020-07-07T16:26:05.000Z</time>
      </trkpt>
      <trkpt lat="43.61037" lon="3.85513">
        <ele>64.498530694936</ele>
        <time>2020-07-07T16:26:06.000Z</time>
      </trkpt>
      <trkpt lat="43.61036" lon="3.85508">
        <ele>64.596473918581</ele>
        <time>2020-07-07T16:26:07.000Z</time>
      </trkpt>
      <trkpt lat="43.61035" lon="3.85502">
        <ele>64.694417142227</ele>
        <time>2020-07-07T16:26:08.000Z</time>
      </trkpt>
      <trkpt lat="43.61035" lon="3.85497">
        <ele>64.792360365872</ele>
        <time>2020-07-07T16:26:09.000Z</time>
      </trkpt>
      <trkpt lat="43.61034" lon="3.85492">
        <ele>64.890303589517</ele>
        <time>2020-07-07T16:26:10.000Z</time>
      </trkpt>
      <trkpt lat="43.61034" lon="3.85486">
        <ele>64.988246813163</ele>
        <time>2020-07-07T16:26:11.000Z</time>
      </trkpt>
      <trkpt lat="43.61033" lon="3.85481">
        <ele>65.090534979424</ele>
        <time>2020-07-07T16:26:12.000Z</time>
      </trkpt>
      <trkpt lat="43.61033" lon="3.85476">
        <ele>65.19341563786</ele>
        <time>2020-07-07T16:26:13.000Z</time>
      </trkpt>
      <trkpt lat="43.61032" lon="3.8547">
        <ele>65.296296296296</ele>
        <time>2020-07-07T16:26:14.000Z</time>
      </trkpt>
      <trkpt lat="43.61031" lon="3.85465">
        <ele>65.399176954732</ele>
        <time>2020-07-07T16:26:15.000Z</time>
      </trkpt>
      <trkpt lat="43.61031" lon="3.8546">
        <ele>65.502057613169</ele>
        <time>2020-07-07T16:26:16.000Z</time>
      </trkpt>
      <trkpt lat="43.6103" lon="3.85455">
        <ele>65.604938271605</ele>
        <time>2020-07-07T16:26:17.000Z</time>
      </trkpt>
      <trkpt lat="43.61029" lon="3.85452">
        <ele>65.707818930041</ele>
        <time>2020-07-07T16:26:18.000Z</time>
      </trkpt>
      <trkpt lat="43.61028" lon="3.85448">
        <ele>65.913580246914</ele>
        <time>2020-07-07T16:26:20.000Z</time>
      </trkpt>
      <trkpt lat="43.61028" lon="3.85442">
        <ele>66.116</ele>
        <time>2020-07-07T16:26:22.000Z</time>
      </trkpt>
      <trkpt lat="43.61027" lon="3.85439">
        <ele>66.216</ele>
        <time>2020-07-07T16:26:23.000Z</time>
      </trkpt>
      <trkpt lat="43.61026" lon="3.85435">
        <ele>66.316</ele>
        <time>2020-07-07T16:26:24.000Z</time>
      </trkpt>
      <trkpt lat="43.61025" lon="3.85431">
        <ele>66.416</ele>
        <time>2020-07-07T16:26:25.000Z</time>
      </trkpt>
      <trkpt lat="43.61025" lon="3.85427">
        <ele>66.516</ele>
        <time>2020-07-07T16:26:26.000Z</time>
      </trkpt>
      <trkpt lat="43.61024" lon="3.85422">
        <ele>66.616</ele>
        <time>2020-07-07T16:26:27.000Z</time>
      </trkpt>
      <trkpt lat="43.61024" lon="3.85418">
        <ele>66.716</ele>
        <time>2020-07-07T16:26:28.000Z</time>
      </trkpt>
      <trkpt lat="43.61023" lon="3.85413">
        <ele>66.816</ele>
        <time>2020-07-07T16:26:29.000Z</time>
      </trkpt>
      <trkpt lat="43.61023" lon="3.85409">
        <ele>66.916</ele>
        <time>2020-07-07T16:26:30.000Z</time>
      </trkpt>
      <trkpt lat="43.61022" lon="3.85405">
        <ele>67</ele>
        <time>2020-07-07T16:26:31.000Z</time>
      </trkpt>
      <trkpt lat="43.61022" lon="3.854">
        <ele>67</ele>
        <time>2020-07-07T16:26:32.000Z</time>
      </trkpt>
      <trkpt lat="43.61022" lon="3.85394">
        <ele>67</ele>
        <time>2020-07-07T16:26:33.000Z</time>
      </trkpt>
      <trkpt lat="43.61021" lon="3.85389">
        <ele>67</ele>
        <time>2020-07-07T16:26:34.000Z</time>
      </trkpt>
      <trkpt lat="43.61021" lon="3.85384">
        <ele>67</ele>
        <time>2020-07-07T16:26:35.000Z</time>
      </trkpt>
      <trkpt lat="43.61021" lon="3.85379">
        <ele>67</ele>
        <time>2020-07-07T16:26:36.000Z</time>
      </trkpt>
      <trkpt lat="43.61021" lon="3.85374">
        <ele>67</ele>
        <time>2020-07-07T16:26:37.000Z</time>
      </trkpt>
      <trkpt lat="43.6102" lon="3.85369">
        <ele>67</ele>
        <time>2020-07-07T16:26:38.000Z</time>
      </trkpt>
      <trkpt lat="43.6102" lon="3.85364">
        <ele>67</ele>
        <time>2020-07-07T16:26:39.000Z</time>
      </trkpt>
      <trkpt lat="43.6102" lon="3.8536">
        <ele>67</ele>
        <time>2020-07-07T16:26:40.000Z</time>
      </trkpt>
      <trkpt lat="43.6102" lon="3.85355">
        <ele>67.016</ele>
        <time>2020-07-07T16:26:41.000Z</time>
      </trkpt>
      <trkpt lat="43.6102" lon="3.8535">
        <ele>67.116</ele>
        <time>2020-07-07T16:26:42.000Z</time>
      </trkpt>
      <trkpt lat="43.6102" lon="3.85345">
        <ele>67.216</ele>
        <time>2020-07-07T16:26:43.000Z</time>
      </trkpt>
      <trkpt lat="43.6102" lon="3.85341">
        <ele>67.316</ele>
        <time>2020-07-07T16:26:44.000Z</time>
      </trkpt>
      <trkpt lat="43.6102" lon="3.85336">
        <ele>67.416</ele>
        <time>2020-07-07T16:26:45.000Z</time>
      </trkpt>
      <trkpt lat="43.6102" lon="3.85332">
        <ele>67.516</ele>
        <time>2020-07-07T16:26:46.000Z</time>
      </trkpt>
      <trkpt lat="43.6102" lon="3.85328">
        <ele>67.616</ele>
        <time>2020-07-07T16:26:47.000Z</time>
      </trkpt>
      <trkpt lat="43.6102" lon="3.85324">
        <ele>67.716</ele>
        <time>2020-07-07T16:26:48.000Z</time>
      </trkpt>
      <trkpt lat="43.61019" lon="3.85321">
        <ele>67.816</ele>
        <time>2020-07-07T16:26:49.000Z</time>
      </trkpt>
      <trkpt lat="43.61019" lon="3.85318">
        <ele>67.916</ele>
        <time>2020-07-07T16:26:50.000Z</time>
      </trkpt>
      <trkpt lat="43.61017" lon="3.85315">
        <ele>68</ele>
        <time>2020-07-07T16:26:51.000Z</time>
      </trkpt>
      <trkpt lat="43.61016" lon="3.85313">
        <ele>68</ele>
        <time>2020-07-07T16:26:52.000Z</time>
      </trkpt>
      <trkpt lat="43.61014" lon="3.85312">
        <ele>68</ele>
        <time>2020-07-07T16:26:53.000Z</time>
      </trkpt>
      <trkpt lat="43.61011" lon="3.85311">
        <ele>68</ele>
        <time>2020-07-07T16:26:54.000Z</time>
      </trkpt>
      <trkpt lat="43.61008" lon="3.85308">
        <ele>68</ele>
        <time>2020-07-07T16:26:55.000Z</time>
      </trkpt>
      <trkpt lat="43.61007" lon="3.85303">
        <ele>68</ele>
        <time>2020-07-07T16:26:56.000Z</time>
      </trkpt>
      <trkpt lat="43.61008" lon="3.85298">
        <ele>68</ele>
        <time>2020-07-07T16:26:57.000Z</time>
      </trkpt>
      <trkpt lat="43.61008" lon="3.85292">
        <ele>68</ele>
        <time>2020-07-07T16:26:58.000Z</time>
      </trkpt>
      <trkpt lat="43.61008" lon="3.85287">
        <ele>68</ele>
        <time>2020-07-07T16:26:59.000Z</time>
      </trkpt>
      <trkpt lat="43.61009" lon="3.85282">
        <ele>68</ele>
        <time>2020-07-07T16:27:00.000Z</time>
      </trkpt>
      <trkpt lat="43.61009" lon="3.85277">
        <ele>68</ele>
        <time>2020-07-07T16:27:01.000Z</time>
      </trkpt>
      <trkpt lat="43.61009" lon="3.85271">
        <ele>68</ele>
        <time>2020-07-07T16:27:02.000Z</time>
      </trkpt>
      <trkpt lat="43.61009" lon="3.85266">
        <ele>68</ele>
        <time>2020-07-07T16:27:03.000Z</time>
      </trkpt>
      <trkpt lat="43.61009" lon="3.85261">
        <ele>68</ele>
        <time>2020-07-07T16:27:04.000Z</time>
      </trkpt>
      <trkpt lat="43.61009" lon="3.85255">
        <ele>68</ele>
        <time>2020-07-07T16:27:05.000Z</time>
      </trkpt>
      <trkpt lat="43.61009" lon="3.8525">
        <ele>68</ele>
        <time>2020-07-07T16:27:06.000Z</time>
      </trkpt>
      <trkpt lat="43.61009" lon="3.85244">
        <ele>68</ele>
        <time>2020-07-07T16:27:07.000Z</time>
      </trkpt>
      <trkpt lat="43.6101" lon="3.85239">
        <ele>68</ele>
        <time>2020-07-07T16:27:08.000Z</time>
      </trkpt>
      <trkpt lat="43.6101" lon="3.85234">
        <ele>68</ele>
        <time>2020-07-07T16:27:09.000Z</time>
      </trkpt>
      <trkpt lat="43.6101" lon="3.85229">
        <ele>68</ele>
        <time>2020-07-07T16:27:10.000Z</time>
      </trkpt>
      <trkpt lat="43.6101" lon="3.85223">
        <ele>68.016</ele>
        <time>2020-07-07T16:27:11.000Z</time>
      </trkpt>
      <trkpt lat="43.61011" lon="3.85218">
        <ele>68.116</ele>
        <time>2020-07-07T16:27:12.000Z</time>
      </trkpt>
      <trkpt lat="43.61012" lon="3.85212">
        <ele>68.216</ele>
        <time>2020-07-07T16:27:13.000Z</time>
      </trkpt>
      <trkpt lat="43.61013" lon="3.85207">
        <ele>68.316</ele>
        <time>2020-07-07T16:27:14.000Z</time>
      </trkpt>
      <trkpt lat="43.61014" lon="3.85201">
        <ele>68.416</ele>
        <time>2020-07-07T16:27:15.000Z</time>
      </trkpt>
      <trkpt lat="43.61014" lon="3.85196">
        <ele>68.516</ele>
        <time>2020-07-07T16:27:16.000Z</time>
      </trkpt>
      <trkpt lat="43.61015" lon="3.85191">
        <ele>68.616</ele>
        <time>2020-07-07T16:27:17.000Z</time>
      </trkpt>
      <trkpt lat="43.61015" lon="3.85185">
        <ele>68.716</ele>
        <time>2020-07-07T16:27:18.000Z</time>
      </trkpt>
      <trkpt lat="43.61015" lon="3.8518">
        <ele>68.816</ele>
        <time>2020-07-07T16:27:19.000Z</time>
      </trkpt>
      <trkpt lat="43.61016" lon="3.85175">
        <ele>68.916</ele>
        <time>2020-07-07T16:27:20.000Z</time>
      </trkpt>
      <trkpt lat="43.61017" lon="3.85171">
        <ele>69.016</ele>
        <time>2020-07-07T16:27:21.000Z</time>
      </trkpt>
      <trkpt lat="43.61018" lon="3.85166">
        <ele>69.116</ele>
        <time>2020-07-07T16:27:22.000Z</time>
      </trkpt>
      <trkpt lat="43.61019" lon="3.85161">
        <ele>69.216</ele>
        <time>2020-07-07T16:27:23.000Z</time>
      </trkpt>
      <trkpt lat="43.6102" lon="3.85155">
        <ele>69.316</ele>
        <time>2020-07-07T16:27:24.000Z</time>
      </trkpt>
      <trkpt lat="43.61021" lon="3.85149">
        <ele>69.416</ele>
        <time>2020-07-07T16:27:25.000Z</time>
      </trkpt>
      <trkpt lat="43.61021" lon="3.85143">
        <ele>69.516</ele>
        <time>2020-07-07T16:27:26.000Z</time>
      </trkpt>
      <trkpt lat="43.61021" lon="3.85137">
        <ele>69.616</ele>
        <time>2020-07-07T16:27:27.000Z</time>
      </trkpt>
      <trkpt lat="43.61022" lon="3.85131">
        <ele>69.716</ele>
        <time>2020-07-07T16:27:28.000Z</time>
      </trkpt>
      <trkpt lat="43.61022" lon="3.85125">
        <ele>69.816</ele>
        <time>2020-07-07T16:27:29.000Z</time>
      </trkpt>
      <trkpt lat="43.61023" lon="3.8512">
        <ele>69.916</ele>
        <time>2020-07-07T16:27:30.000Z</time>
      </trkpt>
      <trkpt lat="43.61025" lon="3.85114">
        <ele>70</ele>
        <time>2020-07-07T16:27:31.000Z</time>
      </trkpt>
      <trkpt lat="43.61025" lon="3.85108">
        <ele>70</ele>
        <time>2020-07-07T16:27:32.000Z</time>
      </trkpt>
      <trkpt lat="43.61026" lon="3.85103">
        <ele>70</ele>
        <time>2020-07-07T16:27:33.000Z</time>
      </trkpt>
      <trkpt lat="43.61027" lon="3.851">
        <ele>70</ele>
        <time>2020-07-07T16:27:34.000Z</time>
      </trkpt>
      <trkpt lat="43.61026" lon="3.85095">
        <ele>70</ele>
        <time>2020-07-07T16:27:36.000Z</time>
      </trkpt>
      <trkpt lat="43.61026" lon="3.85091">
        <ele>70</ele>
        <time>2020-07-07T16:27:37.000Z</time>
      </trkpt>
      <trkpt lat="43.61028" lon="3.85087">
        <ele>70</ele>
        <time>2020-07-07T16:27:38.000Z</time>
      </trkpt>
      <trkpt lat="43.61029" lon="3.85082">
        <ele>70</ele>
        <time>2020-07-07T16:27:39.000Z</time>
      </trkpt>
      <trkpt lat="43.6103" lon="3.85076">
        <ele>70</ele>
        <time>2020-07-07T16:27:40.000Z</time>
      </trkpt>
      <trkpt lat="43.61031" lon="3.85071">
        <ele>70</ele>
        <time>2020-07-07T16:27:41.000Z</time>
      </trkpt>
      <trkpt lat="43.61032" lon="3.85065">
        <ele>70</ele>
        <time>2020-07-07T16:27:42.000Z</time>
      </trkpt>
      <trkpt lat="43.61033" lon="3.85059">
        <ele>70</ele>
        <time>2020-07-07T16:27:43.000Z</time>
      </trkpt>
      <trkpt lat="43.61033" lon="3.85053">
        <ele>70</ele>
        <time>2020-07-07T16:27:44.000Z</time>
      </trkpt>
      <trkpt lat="43.61034" lon="3.85048">
        <ele>70</ele>
        <time>2020-07-07T16:27:45.000Z</time>
      </trkpt>
      <trkpt lat="43.61035" lon="3.85042">
        <ele>70</ele>
        <time>2020-07-07T16:27:46.000Z</time>
      </trkpt>
      <trkpt lat="43.61036" lon="3.85036">
        <ele>70</ele>
        <time>2020-07-07T16:27:47.000Z</time>
      </trkpt>
      <trkpt lat="43.61036" lon="3.8503">
        <ele>70</ele>
        <time>2020-07-07T16:27:48.000Z</time>
      </trkpt>
      <trkpt lat="43.61037" lon="3.85024">
        <ele>70</ele>
        <time>2020-07-07T16:27:49.000Z</time>
      </trkpt>
      <trkpt lat="43.61037" lon="3.85018">
        <ele>70</ele>
        <time>2020-07-07T16:27:50.000Z</time>
      </trkpt>
      <trkpt lat="43.61038" lon="3.85012">
        <ele>70</ele>
        <time>2020-07-07T16:27:51.000Z</time>
      </trkpt>
      <trkpt lat="43.61038" lon="3.85006">
        <ele>70</ele>
        <time>2020-07-07T16:27:52.000Z</time>
      </trkpt>
      <trkpt lat="43.6104" lon="3.85001">
        <ele>70</ele>
        <time>2020-07-07T16:27:53.000Z</time>
      </trkpt>
      <trkpt lat="43.61041" lon="3.84996">
        <ele>70</ele>
        <time>2020-07-07T16:27:54.000Z</time>
      </trkpt>
      <trkpt lat="43.61043" lon="3.84991">
        <ele>70</ele>
        <time>2020-07-07T16:27:55.000Z</time>
      </trkpt>
      <trkpt lat="43.61044" lon="3.84985">
        <ele>70</ele>
        <time>2020-07-07T16:27:56.000Z</time>
      </trkpt>
      <trkpt lat="43.61044" lon="3.8498">
        <ele>70</ele>
        <time>2020-07-07T16:27:57.000Z</time>
      </trkpt>
      <trkpt lat="43.61044" lon="3.84975">
        <ele>70</ele>
        <time>2020-07-07T16:27:58.000Z</time>
      </trkpt>
      <trkpt lat="43.61041" lon="3.84972">
        <ele>70</ele>
        <time>2020-07-07T16:27:59.000Z</time>
      </trkpt>
      <trkpt lat="43.61038" lon="3.84968">
        <ele>70</ele>
        <time>2020-07-07T16:28:00.000Z</time>
      </trkpt>
      <trkpt lat="43.61034" lon="3.84965">
        <ele>70.016</ele>
        <time>2020-07-07T16:28:01.000Z</time>
      </trkpt>
      <trkpt lat="43.6103" lon="3.84962">
        <ele>70.116</ele>
        <time>2020-07-07T16:28:02.000Z</time>
      </trkpt>
      <trkpt lat="43.61027" lon="3.84959">
        <ele>70.216</ele>
        <time>2020-07-07T16:28:03.000Z</time>
      </trkpt>
      <trkpt lat="43.61023" lon="3.84956">
        <ele>70.316</ele>
        <time>2020-07-07T16:28:04.000Z</time>
      </trkpt>
      <trkpt lat="43.61019" lon="3.84953">
        <ele>70.416</ele>
        <time>2020-07-07T16:28:05.000Z</time>
      </trkpt>
      <trkpt lat="43.61015" lon="3.8495">
        <ele>70.516</ele>
        <time>2020-07-07T16:28:06.000Z</time>
      </trkpt>
      <trkpt lat="43.61011" lon="3.84947">
        <ele>70.616</ele>
        <time>2020-07-07T16:28:07.000Z</time>
      </trkpt>
      <trkpt lat="43.61008" lon="3.84944">
        <ele>70.716</ele>
        <time>2020-07-07T16:28:08.000Z</time>
      </trkpt>
      <trkpt lat="43.61004" lon="3.84942">
        <ele>70.816</ele>
        <time>2020-07-07T16:28:09.000Z</time>
      </trkpt>
      <trkpt lat="43.61" lon="3.84939">
        <ele>70.916</ele>
        <time>2020-07-07T16:28:10.000Z</time>
      </trkpt>
      <trkpt lat="43.60997" lon="3.84936">
        <ele>71</ele>
        <time>2020-07-07T16:28:11.000Z</time>
      </trkpt>
      <trkpt lat="43.60993" lon="3.84933">
        <ele>71</ele>
        <time>2020-07-07T16:28:12.000Z</time>
      </trkpt>
      <trkpt lat="43.60989" lon="3.84931">
        <ele>71</ele>
        <time>2020-07-07T16:28:13.000Z</time>
      </trkpt>
      <trkpt lat="43.60986" lon="3.84928">
        <ele>71</ele>
        <time>2020-07-07T16:28:14.000Z</time>
      </trkpt>
      <trkpt lat="43.60982" lon="3.84925">
        <ele>71</ele>
        <time>2020-07-07T16:28:15.000Z</time>
      </trkpt>
      <trkpt lat="43.60979" lon="3.84922">
        <ele>71</ele>
        <time>2020-07-07T16:28:16.000Z</time>
      </trkpt>
      <trkpt lat="43.60975" lon="3.84919">
        <ele>71</ele>
        <time>2020-07-07T16:28:17.000Z</time>
      </trkpt>
      <trkpt lat="43.60972" lon="3.84916">
        <ele>71</ele>
        <time>2020-07-07T16:28:18.000Z</time>
      </trkpt>
      <trkpt lat="43.60968" lon="3.84913">
        <ele>71</ele>
        <time>2020-07-07T16:28:19.000Z</time>
      </trkpt>
      <trkpt lat="43.60965" lon="3.8491">
        <ele>71</ele>
        <time>2020-07-07T16:28:20.000Z</time>
      </trkpt>
      <trkpt lat="43.60962" lon="3.84906">
        <ele>71.016</ele>
        <time>2020-07-07T16:28:21.000Z</time>
      </trkpt>
      <trkpt lat="43.60959" lon="3.84903">
        <ele>71.116</ele>
        <time>2020-07-07T16:28:22.000Z</time>
      </trkpt>
      <trkpt lat="43.60956" lon="3.84898">
        <ele>71.216</ele>
        <time>2020-07-07T16:28:23.000Z</time>
      </trkpt>
      <trkpt lat="43.60954" lon="3.84894">
        <ele>71.316</ele>
        <time>2020-07-07T16:28:24.000Z</time>
      </trkpt>
      <trkpt lat="43.60952" lon="3.84889">
        <ele>71.416</ele>
        <time>2020-07-07T16:28:25.000Z</time>
      </trkpt>
      <trkpt lat="43.6095" lon="3.84884">
        <ele>71.516</ele>
        <time>2020-07-07T16:28:26.000Z</time>
      </trkpt>
      <trkpt lat="43.60948" lon="3.84879">
        <ele>71.616</ele>
        <time>2020-07-07T16:28:27.000Z</time>
      </trkpt>
      <trkpt lat="43.60946" lon="3.84874">
        <ele>71.716</ele>
        <time>2020-07-07T16:28:28.000Z</time>
      </trkpt>
      <trkpt lat="43.60944" lon="3.8487">
        <ele>71.816</ele>
        <time>2020-07-07T16:28:29.000Z</time>
      </trkpt>
      <trkpt lat="43.60942" lon="3.84866">
        <ele>71.916</ele>
        <time>2020-07-07T16:28:30.000Z</time>
      </trkpt>
      <trkpt lat="43.6094" lon="3.84861">
        <ele>72.016</ele>
        <time>2020-07-07T16:28:31.000Z</time>
      </trkpt>
      <trkpt lat="43.60938" lon="3.84857">
        <ele>72.116</ele>
        <time>2020-07-07T16:28:32.000Z</time>
      </trkpt>
      <trkpt lat="43.60936" lon="3.84852">
        <ele>72.216</ele>
        <time>2020-07-07T16:28:33.000Z</time>
      </trkpt>
      <trkpt lat="43.60933" lon="3.84847">
        <ele>72.316</ele>
        <time>2020-07-07T16:28:34.000Z</time>
      </trkpt>
      <trkpt lat="43.60931" lon="3.84843">
        <ele>72.416</ele>
        <time>2020-07-07T16:28:35.000Z</time>
      </trkpt>
      <trkpt lat="43.60928" lon="3.84838">
        <ele>72.516</ele>
        <time>2020-07-07T16:28:36.000Z</time>
      </trkpt>
      <trkpt lat="43.60926" lon="3.84834">
        <ele>72.616</ele>
        <time>2020-07-07T16:28:37.000Z</time>
      </trkpt>
      <trkpt lat="43.60923" lon="3.84829">
        <ele>72.716</ele>
        <time>2020-07-07T16:28:38.000Z</time>
      </trkpt>
      <trkpt lat="43.60919" lon="3.84825">
        <ele>72.816</ele>
        <time>2020-07-07T16:28:39.000Z</time>
      </trkpt>
      <trkpt lat="43.60916" lon="3.8482">
        <ele>72.916</ele>
        <time>2020-07-07T16:28:40.000Z</time>
      </trkpt>
      <trkpt lat="43.60913" lon="3.84816">
        <ele>72.984450918391</ele>
        <time>2020-07-07T16:28:41.000Z</time>
      </trkpt>
      <trkpt lat="43.6091" lon="3.84811">
        <ele>72.887269158334</ele>
        <time>2020-07-07T16:28:42.000Z</time>
      </trkpt>
      <trkpt lat="43.60907" lon="3.84807">
        <ele>72.790087398278</ele>
        <time>2020-07-07T16:28:43.000Z</time>
      </trkpt>
      <trkpt lat="43.60904" lon="3.84802">
        <ele>72.692905638221</ele>
        <time>2020-07-07T16:28:44.000Z</time>
      </trkpt>
      <trkpt lat="43.609" lon="3.84798">
        <ele>72.595723878165</ele>
        <time>2020-07-07T16:28:45.000Z</time>
      </trkpt>
      <trkpt lat="43.60897" lon="3.84793">
        <ele>72.498542118108</ele>
        <time>2020-07-07T16:28:46.000Z</time>
      </trkpt>
      <trkpt lat="43.60895" lon="3.84788">
        <ele>72.401360358052</ele>
        <time>2020-07-07T16:28:47.000Z</time>
      </trkpt>
      <trkpt lat="43.60894" lon="3.84783">
        <ele>72.304178597995</ele>
        <time>2020-07-07T16:28:48.000Z</time>
      </trkpt>
      <trkpt lat="43.60894" lon="3.84777">
        <ele>72.206996837939</ele>
        <time>2020-07-07T16:28:49.000Z</time>
      </trkpt>
      <trkpt lat="43.60894" lon="3.84772">
        <ele>72.109815077882</ele>
        <time>2020-07-07T16:28:50.000Z</time>
      </trkpt>
      <trkpt lat="43.60894" lon="3.84768">
        <ele>72.012633317826</ele>
        <time>2020-07-07T16:28:51.000Z</time>
      </trkpt>
      <trkpt lat="43.60894" lon="3.84766">
        <ele>72</ele>
        <time>2020-07-07T16:28:52.000Z</time>
      </trkpt>
      <trkpt lat="43.60894" lon="3.84762">
        <ele>72</ele>
        <time>2020-07-07T16:28:54.000Z</time>
      </trkpt>
      <trkpt lat="43.60895" lon="3.84758">
        <ele>72</ele>
        <time>2020-07-07T16:28:56.000Z</time>
      </trkpt>
      <trkpt lat="43.60895" lon="3.84754">
        <ele>72</ele>
        <time>2020-07-07T16:28:58.000Z</time>
      </trkpt>
      <trkpt lat="43.60891" lon="3.84751">
        <ele>72</ele>
        <time>2020-07-07T16:29:00.000Z</time>
      </trkpt>
      <trkpt lat="43.60889" lon="3.84749">
        <ele>72</ele>
        <time>2020-07-07T16:29:01.000Z</time>
      </trkpt>
      <trkpt lat="43.60887" lon="3.84745">
        <ele>72</ele>
        <time>2020-07-07T16:29:02.000Z</time>
      </trkpt>
      <trkpt lat="43.60887" lon="3.84739">
        <ele>72</ele>
        <time>2020-07-07T16:29:03.000Z</time>
      </trkpt>
      <trkpt lat="43.60887" lon="3.84733">
        <ele>72</ele>
        <time>2020-07-07T16:29:04.000Z</time>
      </trkpt>
      <trkpt lat="43.60888" lon="3.84727">
        <ele>72</ele>
        <time>2020-07-07T16:29:05.000Z</time>
      </trkpt>
      <trkpt lat="43.60888" lon="3.8472">
        <ele>72</ele>
        <time>2020-07-07T16:29:06.000Z</time>
      </trkpt>
      <trkpt lat="43.60889" lon="3.84713">
        <ele>72</ele>
        <time>2020-07-07T16:29:07.000Z</time>
      </trkpt>
      <trkpt lat="43.60889" lon="3.84706">
        <ele>72</ele>
        <time>2020-07-07T16:29:08.000Z</time>
      </trkpt>
      <trkpt lat="43.60889" lon="3.84699">
        <ele>72</ele>
        <time>2020-07-07T16:29:09.000Z</time>
      </trkpt>
      <trkpt lat="43.60889" lon="3.84692">
        <ele>72</ele>
        <time>2020-07-07T16:29:10.000Z</time>
      </trkpt>
      <trkpt lat="43.60889" lon="3.84685">
        <ele>71.968</ele>
        <time>2020-07-07T16:29:11.000Z</time>
      </trkpt>
      <trkpt lat="43.60889" lon="3.84678">
        <ele>71.768</ele>
        <time>2020-07-07T16:29:12.000Z</time>
      </trkpt>
      <trkpt lat="43.6089" lon="3.8467">
        <ele>71.568</ele>
        <time>2020-07-07T16:29:13.000Z</time>
      </trkpt>
      <trkpt lat="43.6089" lon="3.84663">
        <ele>71.368</ele>
        <time>2020-07-07T16:29:14.000Z</time>
      </trkpt>
      <trkpt lat="43.6089" lon="3.84655">
        <ele>71.168</ele>
        <time>2020-07-07T16:29:15.000Z</time>
      </trkpt>
      <trkpt lat="43.60891" lon="3.84647">
        <ele>70.968</ele>
        <time>2020-07-07T16:29:16.000Z</time>
      </trkpt>
      <trkpt lat="43.60891" lon="3.84639">
        <ele>70.768</ele>
        <time>2020-07-07T16:29:17.000Z</time>
      </trkpt>
      <trkpt lat="43.60891" lon="3.84631">
        <ele>70.568</ele>
        <time>2020-07-07T16:29:18.000Z</time>
      </trkpt>
      <trkpt lat="43.60892" lon="3.84622">
        <ele>70.368</ele>
        <time>2020-07-07T16:29:19.000Z</time>
      </trkpt>
      <trkpt lat="43.60893" lon="3.84614">
        <ele>70.168</ele>
        <time>2020-07-07T16:29:20.000Z</time>
      </trkpt>
      <trkpt lat="43.60894" lon="3.84605">
        <ele>70</ele>
        <time>2020-07-07T16:29:21.000Z</time>
      </trkpt>
      <trkpt lat="43.60896" lon="3.84597">
        <ele>70</ele>
        <time>2020-07-07T16:29:22.000Z</time>
      </trkpt>
      <trkpt lat="43.60898" lon="3.84588">
        <ele>70</ele>
        <time>2020-07-07T16:29:23.000Z</time>
      </trkpt>
      <trkpt lat="43.60898" lon="3.8458">
        <ele>70</ele>
        <time>2020-07-07T16:29:24.000Z</time>
      </trkpt>
      <trkpt lat="43.60898" lon="3.84571">
        <ele>70</ele>
        <time>2020-07-07T16:29:25.000Z</time>
      </trkpt>
      <trkpt lat="43.60898" lon="3.84563">
        <ele>70</ele>
        <time>2020-07-07T16:29:26.000Z</time>
      </trkpt>
      <trkpt lat="43.60898" lon="3.84554">
        <ele>70</ele>
        <time>2020-07-07T16:29:27.000Z</time>
      </trkpt>
      <trkpt lat="43.60897" lon="3.84545">
        <ele>70</ele>
        <time>2020-07-07T16:29:28.000Z</time>
      </trkpt>
      <trkpt lat="43.60897" lon="3.84536">
        <ele>70</ele>
        <time>2020-07-07T16:29:29.000Z</time>
      </trkpt>
      <trkpt lat="43.60896" lon="3.84527">
        <ele>70</ele>
        <time>2020-07-07T16:29:30.000Z</time>
      </trkpt>
      <trkpt lat="43.60896" lon="3.84518">
        <ele>69.968</ele>
        <time>2020-07-07T16:29:31.000Z</time>
      </trkpt>
      <trkpt lat="43.60895" lon="3.84508">
        <ele>69.768</ele>
        <time>2020-07-07T16:29:32.000Z</time>
      </trkpt>
      <trkpt lat="43.60894" lon="3.84499">
        <ele>69.568</ele>
        <time>2020-07-07T16:29:33.000Z</time>
      </trkpt>
      <trkpt lat="43.60894" lon="3.84489">
        <ele>69.368</ele>
        <time>2020-07-07T16:29:34.000Z</time>
      </trkpt>
      <trkpt lat="43.60893" lon="3.8448">
        <ele>69.168</ele>
        <time>2020-07-07T16:29:35.000Z</time>
      </trkpt>
      <trkpt lat="43.60894" lon="3.8447">
        <ele>68.968</ele>
        <time>2020-07-07T16:29:36.000Z</time>
      </trkpt>
      <trkpt lat="43.60894" lon="3.84461">
        <ele>68.768</ele>
        <time>2020-07-07T16:29:37.000Z</time>
      </trkpt>
      <trkpt lat="43.60895" lon="3.84451">
        <ele>68.568</ele>
        <time>2020-07-07T16:29:38.000Z</time>
      </trkpt>
      <trkpt lat="43.60896" lon="3.84441">
        <ele>68.368</ele>
        <time>2020-07-07T16:29:39.000Z</time>
      </trkpt>
      <trkpt lat="43.60897" lon="3.84431">
        <ele>68.168</ele>
        <time>2020-07-07T16:29:40.000Z</time>
      </trkpt>
      <trkpt lat="43.60898" lon="3.84421">
        <ele>67.968410651423</ele>
        <time>2020-07-07T16:29:41.000Z</time>
      </trkpt>
      <trkpt lat="43.60899" lon="3.84411">
        <ele>67.770977222816</ele>
        <time>2020-07-07T16:29:42.000Z</time>
      </trkpt>
      <trkpt lat="43.60899" lon="3.84401">
        <ele>67.573543794209</ele>
        <time>2020-07-07T16:29:43.000Z</time>
      </trkpt>
      <trkpt lat="43.60898" lon="3.84391">
        <ele>67.376110365602</ele>
        <time>2020-07-07T16:29:44.000Z</time>
      </trkpt>
      <trkpt lat="43.60897" lon="3.84381">
        <ele>67.178676936996</ele>
        <time>2020-07-07T16:29:45.000Z</time>
      </trkpt>
      <trkpt lat="43.60897" lon="3.8437">
        <ele>66.981243508389</ele>
        <time>2020-07-07T16:29:46.000Z</time>
      </trkpt>
      <trkpt lat="43.60896" lon="3.8436">
        <ele>66.783810079782</ele>
        <time>2020-07-07T16:29:47.000Z</time>
      </trkpt>
      <trkpt lat="43.60897" lon="3.84349">
        <ele>66.586376651175</ele>
        <time>2020-07-07T16:29:48.000Z</time>
      </trkpt>
      <trkpt lat="43.60897" lon="3.84339">
        <ele>66.388943222568</ele>
        <time>2020-07-07T16:29:49.000Z</time>
      </trkpt>
      <trkpt lat="43.60898" lon="3.84328">
        <ele>66.191509793962</ele>
        <time>2020-07-07T16:29:50.000Z</time>
      </trkpt>
      <trkpt lat="43.60899" lon="3.84318">
        <ele>66</ele>
        <time>2020-07-07T16:29:51.000Z</time>
      </trkpt>
      <trkpt lat="43.609" lon="3.84308">
        <ele>66</ele>
        <time>2020-07-07T16:29:52.000Z</time>
      </trkpt>
      <trkpt lat="43.60901" lon="3.84298">
        <ele>66</ele>
        <time>2020-07-07T16:29:53.000Z</time>
      </trkpt>
      <trkpt lat="43.60902" lon="3.84289">
        <ele>66</ele>
        <time>2020-07-07T16:29:54.000Z</time>
      </trkpt>
      <trkpt lat="43.60901" lon="3.84279">
        <ele>66</ele>
        <time>2020-07-07T16:29:55.000Z</time>
      </trkpt>
      <trkpt lat="43.60902" lon="3.8427">
        <ele>66</ele>
        <time>2020-07-07T16:29:56.000Z</time>
      </trkpt>
      <trkpt lat="43.60902" lon="3.8426">
        <ele>66</ele>
        <time>2020-07-07T16:29:57.000Z</time>
      </trkpt>
      <trkpt lat="43.60902" lon="3.84251">
        <ele>66</ele>
        <time>2020-07-07T16:29:58.000Z</time>
      </trkpt>
      <trkpt lat="43.60901" lon="3.84242">
        <ele>66</ele>
        <time>2020-07-07T16:29:59.000Z</time>
      </trkpt>
      <trkpt lat="43.609" lon="3.84232">
        <ele>66</ele>
        <time>2020-07-07T16:30:00.000Z</time>
      </trkpt>
      <trkpt lat="43.609" lon="3.84223">
        <ele>66</ele>
        <time>2020-07-07T16:30:01.000Z</time>
      </trkpt>
      <trkpt lat="43.60899" lon="3.84213">
        <ele>66</ele>
        <time>2020-07-07T16:30:02.000Z</time>
      </trkpt>
      <trkpt lat="43.60899" lon="3.84204">
        <ele>66</ele>
        <time>2020-07-07T16:30:03.000Z</time>
      </trkpt>
      <trkpt lat="43.60899" lon="3.84195">
        <ele>66</ele>
        <time>2020-07-07T16:30:04.000Z</time>
      </trkpt>
      <trkpt lat="43.60899" lon="3.84186">
        <ele>66</ele>
        <time>2020-07-07T16:30:05.000Z</time>
      </trkpt>
      <trkpt lat="43.60898" lon="3.84177">
        <ele>66</ele>
        <time>2020-07-07T16:30:06.000Z</time>
      </trkpt>
      <trkpt lat="43.60898" lon="3.84168">
        <ele>66</ele>
        <time>2020-07-07T16:30:07.000Z</time>
      </trkpt>
      <trkpt lat="43.60899" lon="3.84159">
        <ele>66</ele>
        <time>2020-07-07T16:30:08.000Z</time>
      </trkpt>
      <trkpt lat="43.609" lon="3.8415">
        <ele>66</ele>
        <time>2020-07-07T16:30:09.000Z</time>
      </trkpt>
      <trkpt lat="43.60902" lon="3.84142">
        <ele>66</ele>
        <time>2020-07-07T16:30:10.000Z</time>
      </trkpt>
      <trkpt lat="43.60903" lon="3.84133">
        <ele>65.984420647503</ele>
        <time>2020-07-07T16:30:11.000Z</time>
      </trkpt>
      <trkpt lat="43.60905" lon="3.84124">
        <ele>65.887049694395</ele>
        <time>2020-07-07T16:30:12.000Z</time>
      </trkpt>
      <trkpt lat="43.60907" lon="3.84116">
        <ele>65.789678741288</ele>
        <time>2020-07-07T16:30:13.000Z</time>
      </trkpt>
      <trkpt lat="43.60909" lon="3.84107">
        <ele>65.692307788181</ele>
        <time>2020-07-07T16:30:14.000Z</time>
      </trkpt>
      <trkpt lat="43.60912" lon="3.84098">
        <ele>65.594936835073</ele>
        <time>2020-07-07T16:30:15.000Z</time>
      </trkpt>
      <trkpt lat="43.60914" lon="3.84089">
        <ele>65.497565881966</ele>
        <time>2020-07-07T16:30:16.000Z</time>
      </trkpt>
      <trkpt lat="43.60916" lon="3.8408">
        <ele>65.400194928858</ele>
        <time>2020-07-07T16:30:17.000Z</time>
      </trkpt>
      <trkpt lat="43.60919" lon="3.84071">
        <ele>65.302823975751</ele>
        <time>2020-07-07T16:30:18.000Z</time>
      </trkpt>
      <trkpt lat="43.60921" lon="3.84062">
        <ele>65.205453022644</ele>
        <time>2020-07-07T16:30:19.000Z</time>
      </trkpt>
      <trkpt lat="43.60923" lon="3.84053">
        <ele>65.108082069536</ele>
        <time>2020-07-07T16:30:20.000Z</time>
      </trkpt>
      <trkpt lat="43.60925" lon="3.84045">
        <ele>65.010711116429</ele>
        <time>2020-07-07T16:30:21.000Z</time>
      </trkpt>
      <trkpt lat="43.60928" lon="3.84037">
        <ele>65</ele>
        <time>2020-07-07T16:30:22.000Z</time>
      </trkpt>
      <trkpt lat="43.60931" lon="3.8403">
        <ele>65</ele>
        <time>2020-07-07T16:30:23.000Z</time>
      </trkpt>
      <trkpt lat="43.60934" lon="3.84023">
        <ele>65</ele>
        <time>2020-07-07T16:30:24.000Z</time>
      </trkpt>
      <trkpt lat="43.60935" lon="3.84019">
        <ele>65</ele>
        <time>2020-07-07T16:30:25.000Z</time>
      </trkpt>
      <trkpt lat="43.60935" lon="3.84016">
        <ele>65</ele>
        <time>2020-07-07T16:30:26.000Z</time>
      </trkpt>
      <trkpt lat="43.60935" lon="3.84013">
        <ele>65</ele>
        <time>2020-07-07T16:30:27.000Z</time>
      </trkpt>
      <trkpt lat="43.60935" lon="3.8401">
        <ele>65</ele>
        <time>2020-07-07T16:30:28.000Z</time>
      </trkpt>
      <trkpt lat="43.60936" lon="3.84006">
        <ele>65</ele>
        <time>2020-07-07T16:30:29.000Z</time>
      </trkpt>
      <trkpt lat="43.60937" lon="3.84001">
        <ele>65</ele>
        <time>2020-07-07T16:30:30.000Z</time>
      </trkpt>
      <trkpt lat="43.60937" lon="3.83996">
        <ele>65</ele>
        <time>2020-07-07T16:30:31.000Z</time>
      </trkpt>
      <trkpt lat="43.60936" lon="3.83991">
        <ele>65</ele>
        <time>2020-07-07T16:30:32.000Z</time>
      </trkpt>
      <trkpt lat="43.60936" lon="3.83985">
        <ele>65</ele>
        <time>2020-07-07T16:30:33.000Z</time>
      </trkpt>
      <trkpt lat="43.60936" lon="3.83979">
        <ele>65</ele>
        <time>2020-07-07T16:30:34.000Z</time>
      </trkpt>
      <trkpt lat="43.60937" lon="3.83973">
        <ele>65</ele>
        <time>2020-07-07T16:30:35.000Z</time>
      </trkpt>
      <trkpt lat="43.60938" lon="3.83966">
        <ele>65</ele>
        <time>2020-07-07T16:30:36.000Z</time>
      </trkpt>
      <trkpt lat="43.60939" lon="3.8396">
        <ele>65</ele>
        <time>2020-07-07T16:30:37.000Z</time>
      </trkpt>
      <trkpt lat="43.6094" lon="3.83953">
        <ele>65</ele>
        <time>2020-07-07T16:30:38.000Z</time>
      </trkpt>
      <trkpt lat="43.60942" lon="3.83947">
        <ele>65</ele>
        <time>2020-07-07T16:30:39.000Z</time>
      </trkpt>
      <trkpt lat="43.60943" lon="3.8394">
        <ele>65</ele>
        <time>2020-07-07T16:30:40.000Z</time>
      </trkpt>
      <trkpt lat="43.60944" lon="3.83934">
        <ele>65</ele>
        <time>2020-07-07T16:30:41.000Z</time>
      </trkpt>
      <trkpt lat="43.60945" lon="3.83927">
        <ele>65</ele>
        <time>2020-07-07T16:30:42.000Z</time>
      </trkpt>
      <trkpt lat="43.60947" lon="3.83921">
        <ele>65</ele>
        <time>2020-07-07T16:30:43.000Z</time>
      </trkpt>
      <trkpt lat="43.60948" lon="3.83915">
        <ele>65</ele>
        <time>2020-07-07T16:30:44.000Z</time>
      </trkpt>
      <trkpt lat="43.60949" lon="3.83909">
        <ele>65</ele>
        <time>2020-07-07T16:30:45.000Z</time>
      </trkpt>
      <trkpt lat="43.6095" lon="3.83903">
        <ele>65</ele>
        <time>2020-07-07T16:30:46.000Z</time>
      </trkpt>
      <trkpt lat="43.60951" lon="3.83898">
        <ele>65</ele>
        <time>2020-07-07T16:30:47.000Z</time>
      </trkpt>
      <trkpt lat="43.60953" lon="3.83893">
        <ele>65</ele>
        <time>2020-07-07T16:30:48.000Z</time>
      </trkpt>
      <trkpt lat="43.60954" lon="3.83888">
        <ele>65</ele>
        <time>2020-07-07T16:30:49.000Z</time>
      </trkpt>
      <trkpt lat="43.60955" lon="3.83882">
        <ele>65</ele>
        <time>2020-07-07T16:30:50.000Z</time>
      </trkpt>
      <trkpt lat="43.60956" lon="3.83875">
        <ele>65</ele>
        <time>2020-07-07T16:30:51.000Z</time>
      </trkpt>
      <trkpt lat="43.60957" lon="3.83869">
        <ele>65</ele>
        <time>2020-07-07T16:30:52.000Z</time>
      </trkpt>
      <trkpt lat="43.60959" lon="3.83862">
        <ele>65</ele>
        <time>2020-07-07T16:30:53.000Z</time>
      </trkpt>
      <trkpt lat="43.6096" lon="3.83855">
        <ele>65</ele>
        <time>2020-07-07T16:30:54.000Z</time>
      </trkpt>
      <trkpt lat="43.6096" lon="3.83848">
        <ele>65</ele>
        <time>2020-07-07T16:30:55.000Z</time>
      </trkpt>
      <trkpt lat="43.60962" lon="3.8384">
        <ele>65</ele>
        <time>2020-07-07T16:30:56.000Z</time>
      </trkpt>
      <trkpt lat="43.60963" lon="3.83833">
        <ele>65</ele>
        <time>2020-07-07T16:30:57.000Z</time>
      </trkpt>
      <trkpt lat="43.60964" lon="3.83826">
        <ele>65</ele>
        <time>2020-07-07T16:30:58.000Z</time>
      </trkpt>
      <trkpt lat="43.60965" lon="3.83819">
        <ele>65</ele>
        <time>2020-07-07T16:30:59.000Z</time>
      </trkpt>
      <trkpt lat="43.60967" lon="3.83811">
        <ele>65</ele>
        <time>2020-07-07T16:31:00.000Z</time>
      </trkpt>
      <trkpt lat="43.60968" lon="3.83804">
        <ele>65</ele>
        <time>2020-07-07T16:31:01.000Z</time>
      </trkpt>
      <trkpt lat="43.6097" lon="3.83797">
        <ele>65</ele>
        <time>2020-07-07T16:31:02.000Z</time>
      </trkpt>
      <trkpt lat="43.60971" lon="3.8379">
        <ele>65</ele>
        <time>2020-07-07T16:31:03.000Z</time>
      </trkpt>
      <trkpt lat="43.60972" lon="3.83783">
        <ele>65</ele>
        <time>2020-07-07T16:31:04.000Z</time>
      </trkpt>
      <trkpt lat="43.60974" lon="3.83776">
        <ele>65</ele>
        <time>2020-07-07T16:31:05.000Z</time>
      </trkpt>
      <trkpt lat="43.60974" lon="3.8377">
        <ele>65</ele>
        <time>2020-07-07T16:31:06.000Z</time>
      </trkpt>
      <trkpt lat="43.60975" lon="3.83763">
        <ele>65</ele>
        <time>2020-07-07T16:31:07.000Z</time>
      </trkpt>
      <trkpt lat="43.60974" lon="3.83757">
        <ele>65</ele>
        <time>2020-07-07T16:31:08.000Z</time>
      </trkpt>
      <trkpt lat="43.60975" lon="3.83751">
        <ele>65</ele>
        <time>2020-07-07T16:31:09.000Z</time>
      </trkpt>
      <trkpt lat="43.60976" lon="3.83745">
        <ele>65</ele>
        <time>2020-07-07T16:31:10.000Z</time>
      </trkpt>
      <trkpt lat="43.60977" lon="3.83739">
        <ele>65</ele>
        <time>2020-07-07T16:31:11.000Z</time>
      </trkpt>
      <trkpt lat="43.60979" lon="3.83733">
        <ele>65</ele>
        <time>2020-07-07T16:31:12.000Z</time>
      </trkpt>
      <trkpt lat="43.6098" lon="3.83726">
        <ele>65</ele>
        <time>2020-07-07T16:31:13.000Z</time>
      </trkpt>
      <trkpt lat="43.60982" lon="3.8372">
        <ele>65</ele>
        <time>2020-07-07T16:31:14.000Z</time>
      </trkpt>
      <trkpt lat="43.60984" lon="3.83713">
        <ele>65</ele>
        <time>2020-07-07T16:31:15.000Z</time>
      </trkpt>
      <trkpt lat="43.60985" lon="3.83706">
        <ele>65</ele>
        <time>2020-07-07T16:31:16.000Z</time>
      </trkpt>
      <trkpt lat="43.60987" lon="3.83699">
        <ele>65</ele>
        <time>2020-07-07T16:31:17.000Z</time>
      </trkpt>
      <trkpt lat="43.60989" lon="3.83692">
        <ele>65</ele>
        <time>2020-07-07T16:31:18.000Z</time>
      </trkpt>
      <trkpt lat="43.60991" lon="3.83685">
        <ele>65</ele>
        <time>2020-07-07T16:31:19.000Z</time>
      </trkpt>
      <trkpt lat="43.60993" lon="3.83679">
        <ele>65</ele>
        <time>2020-07-07T16:31:20.000Z</time>
      </trkpt>
      <trkpt lat="43.60994" lon="3.83674">
        <ele>65</ele>
        <time>2020-07-07T16:31:21.000Z</time>
      </trkpt>
      <trkpt lat="43.60995" lon="3.83669">
        <ele>65</ele>
        <time>2020-07-07T16:31:22.000Z</time>
      </trkpt>
      <trkpt lat="43.60996" lon="3.83666">
        <ele>65</ele>
        <time>2020-07-07T16:31:23.000Z</time>
      </trkpt>
      <trkpt lat="43.60996" lon="3.83661">
        <ele>65</ele>
        <time>2020-07-07T16:31:24.000Z</time>
      </trkpt>
      <trkpt lat="43.60997" lon="3.83657">
        <ele>65</ele>
        <time>2020-07-07T16:31:25.000Z</time>
      </trkpt>
      <trkpt lat="43.60999" lon="3.83652">
        <ele>65</ele>
        <time>2020-07-07T16:31:26.000Z</time>
      </trkpt>
      <trkpt lat="43.61" lon="3.83646">
        <ele>65</ele>
        <time>2020-07-07T16:31:27.000Z</time>
      </trkpt>
      <trkpt lat="43.61001" lon="3.83641">
        <ele>65</ele>
        <time>2020-07-07T16:31:28.000Z</time>
      </trkpt>
      <trkpt lat="43.61002" lon="3.83635">
        <ele>65</ele>
        <time>2020-07-07T16:31:29.000Z</time>
      </trkpt>
      <trkpt lat="43.61003" lon="3.83629">
        <ele>65</ele>
        <time>2020-07-07T16:31:30.000Z</time>
      </trkpt>
      <trkpt lat="43.61005" lon="3.83623">
        <ele>65</ele>
        <time>2020-07-07T16:31:31.000Z</time>
      </trkpt>
      <trkpt lat="43.61006" lon="3.83617">
        <ele>65</ele>
        <time>2020-07-07T16:31:32.000Z</time>
      </trkpt>
      <trkpt lat="43.61007" lon="3.83611">
        <ele>65</ele>
        <time>2020-07-07T16:31:33.000Z</time>
      </trkpt>
      <trkpt lat="43.61008" lon="3.83605">
        <ele>65</ele>
        <time>2020-07-07T16:31:34.000Z</time>
      </trkpt>
      <trkpt lat="43.61009" lon="3.83599">
        <ele>65</ele>
        <time>2020-07-07T16:31:35.000Z</time>
      </trkpt>
      <trkpt lat="43.61011" lon="3.83593">
        <ele>65</ele>
        <time>2020-07-07T16:31:36.000Z</time>
      </trkpt>
      <trkpt lat="43.61012" lon="3.83587">
        <ele>65</ele>
        <time>2020-07-07T16:31:37.000Z</time>
      </trkpt>
      <trkpt lat="43.61013" lon="3.83581">
        <ele>65</ele>
        <time>2020-07-07T16:31:38.000Z</time>
      </trkpt>
      <trkpt lat="43.61015" lon="3.83574">
        <ele>65</ele>
        <time>2020-07-07T16:31:39.000Z</time>
      </trkpt>
      <trkpt lat="43.61016" lon="3.83568">
        <ele>65</ele>
        <time>2020-07-07T16:31:40.000Z</time>
      </trkpt>
      <trkpt lat="43.61017" lon="3.83562">
        <ele>65</ele>
        <time>2020-07-07T16:31:41.000Z</time>
      </trkpt>
      <trkpt lat="43.61018" lon="3.83555">
        <ele>65</ele>
        <time>2020-07-07T16:31:42.000Z</time>
      </trkpt>
      <trkpt lat="43.6102" lon="3.8355">
        <ele>65</ele>
        <time>2020-07-07T16:31:43.000Z</time>
      </trkpt>
      <trkpt lat="43.61022" lon="3.83544">
        <ele>65</ele>
        <time>2020-07-07T16:31:44.000Z</time>
      </trkpt>
      <trkpt lat="43.61023" lon="3.83537">
        <ele>65</ele>
        <time>2020-07-07T16:31:45.000Z</time>
      </trkpt>
      <trkpt lat="43.61024" lon="3.83531">
        <ele>65</ele>
        <time>2020-07-07T16:31:46.000Z</time>
      </trkpt>
      <trkpt lat="43.61025" lon="3.83524">
        <ele>65</ele>
        <time>2020-07-07T16:31:47.000Z</time>
      </trkpt>
      <trkpt lat="43.61026" lon="3.83517">
        <ele>65</ele>
        <time>2020-07-07T16:31:48.000Z</time>
      </trkpt>
      <trkpt lat="43.61028" lon="3.83511">
        <ele>65</ele>
        <time>2020-07-07T16:31:49.000Z</time>
      </trkpt>
      <trkpt lat="43.61029" lon="3.83505">
        <ele>65</ele>
        <time>2020-07-07T16:31:50.000Z</time>
      </trkpt>
      <trkpt lat="43.6103" lon="3.83498">
        <ele>65</ele>
        <time>2020-07-07T16:31:51.000Z</time>
      </trkpt>
      <trkpt lat="43.61031" lon="3.83492">
        <ele>65</ele>
        <time>2020-07-07T16:31:52.000Z</time>
      </trkpt>
      <trkpt lat="43.61032" lon="3.83485">
        <ele>65</ele>
        <time>2020-07-07T16:31:53.000Z</time>
      </trkpt>
      <trkpt lat="43.61034" lon="3.83479">
        <ele>65</ele>
        <time>2020-07-07T16:31:54.000Z</time>
      </trkpt>
      <trkpt lat="43.61035" lon="3.83472">
        <ele>65</ele>
        <time>2020-07-07T16:31:55.000Z</time>
      </trkpt>
      <trkpt lat="43.61036" lon="3.83466">
        <ele>65</ele>
        <time>2020-07-07T16:31:56.000Z</time>
      </trkpt>
      <trkpt lat="43.61037" lon="3.8346">
        <ele>65</ele>
        <time>2020-07-07T16:31:57.000Z</time>
      </trkpt>
      <trkpt lat="43.61038" lon="3.83454">
        <ele>65</ele>
        <time>2020-07-07T16:31:58.000Z</time>
      </trkpt>
      <trkpt lat="43.61041" lon="3.8345">
        <ele>65</ele>
        <time>2020-07-07T16:31:59.000Z</time>
      </trkpt>
      <trkpt lat="43.61045" lon="3.83448">
        <ele>65</ele>
        <time>2020-07-07T16:32:00.000Z</time>
      </trkpt>
      <trkpt lat="43.61049" lon="3.83447">
        <ele>65.011055594434</ele>
        <time>2020-07-07T16:32:01.000Z</time>
      </trkpt>
      <trkpt lat="43.61053" lon="3.83445">
        <ele>65.111558074675</ele>
        <time>2020-07-07T16:32:02.000Z</time>
      </trkpt>
      <trkpt lat="43.61056" lon="3.83441">
        <ele>65.212060554915</ele>
        <time>2020-07-07T16:32:03.000Z</time>
      </trkpt>
      <trkpt lat="43.61058" lon="3.83436">
        <ele>65.312563035156</ele>
        <time>2020-07-07T16:32:04.000Z</time>
      </trkpt>
      <trkpt lat="43.61059" lon="3.8343">
        <ele>65.413065515396</ele>
        <time>2020-07-07T16:32:05.000Z</time>
      </trkpt>
      <trkpt lat="43.61061" lon="3.83425">
        <ele>65.513567995636</ele>
        <time>2020-07-07T16:32:06.000Z</time>
      </trkpt>
      <trkpt lat="43.61062" lon="3.83419">
        <ele>65.614070475877</ele>
        <time>2020-07-07T16:32:07.000Z</time>
      </trkpt>
      <trkpt lat="43.61064" lon="3.83413">
        <ele>65.714572956117</ele>
        <time>2020-07-07T16:32:08.000Z</time>
      </trkpt>
      <trkpt lat="43.61065" lon="3.83406">
        <ele>65.815075436358</ele>
        <time>2020-07-07T16:32:09.000Z</time>
      </trkpt>
      <trkpt lat="43.61067" lon="3.834">
        <ele>65.915577916598</ele>
        <time>2020-07-07T16:32:10.000Z</time>
      </trkpt>
      <trkpt lat="43.61068" lon="3.83394">
        <ele>66</ele>
        <time>2020-07-07T16:32:11.000Z</time>
      </trkpt>
      <trkpt lat="43.6107" lon="3.83388">
        <ele>66</ele>
        <time>2020-07-07T16:32:12.000Z</time>
      </trkpt>
      <trkpt lat="43.61071" lon="3.83382">
        <ele>66</ele>
        <time>2020-07-07T16:32:13.000Z</time>
      </trkpt>
      <trkpt lat="43.61073" lon="3.83375">
        <ele>66</ele>
        <time>2020-07-07T16:32:14.000Z</time>
      </trkpt>
      <trkpt lat="43.61074" lon="3.8337">
        <ele>66</ele>
        <time>2020-07-07T16:32:15.000Z</time>
      </trkpt>
      <trkpt lat="43.61076" lon="3.83364">
        <ele>66</ele>
        <time>2020-07-07T16:32:16.000Z</time>
      </trkpt>
      <trkpt lat="43.61077" lon="3.83358">
        <ele>66</ele>
        <time>2020-07-07T16:32:17.000Z</time>
      </trkpt>
      <trkpt lat="43.61079" lon="3.83352">
        <ele>66</ele>
        <time>2020-07-07T16:32:18.000Z</time>
      </trkpt>
      <trkpt lat="43.61081" lon="3.83346">
        <ele>66</ele>
        <time>2020-07-07T16:32:19.000Z</time>
      </trkpt>
      <trkpt lat="43.61083" lon="3.83341">
        <ele>66</ele>
        <time>2020-07-07T16:32:20.000Z</time>
      </trkpt>
      <trkpt lat="43.61084" lon="3.83335">
        <ele>66.015015330526</ele>
        <time>2020-07-07T16:32:21.000Z</time>
      </trkpt>
      <trkpt lat="43.61086" lon="3.83329">
        <ele>66.115115398562</ele>
        <time>2020-07-07T16:32:22.000Z</time>
      </trkpt>
      <trkpt lat="43.61088" lon="3.83323">
        <ele>66.215215466598</ele>
        <time>2020-07-07T16:32:23.000Z</time>
      </trkpt>
      <trkpt lat="43.61089" lon="3.83317">
        <ele>66.315315534634</ele>
        <time>2020-07-07T16:32:24.000Z</time>
      </trkpt>
      <trkpt lat="43.61091" lon="3.83311">
        <ele>66.41541560267</ele>
        <time>2020-07-07T16:32:25.000Z</time>
      </trkpt>
      <trkpt lat="43.61093" lon="3.83305">
        <ele>66.515515670706</ele>
        <time>2020-07-07T16:32:26.000Z</time>
      </trkpt>
      <trkpt lat="43.61095" lon="3.833">
        <ele>66.615615738742</ele>
        <time>2020-07-07T16:32:27.000Z</time>
      </trkpt>
      <trkpt lat="43.61097" lon="3.83294">
        <ele>66.715715806778</ele>
        <time>2020-07-07T16:32:28.000Z</time>
      </trkpt>
      <trkpt lat="43.61099" lon="3.83287">
        <ele>66.815815874814</ele>
        <time>2020-07-07T16:32:29.000Z</time>
      </trkpt>
      <trkpt lat="43.61101" lon="3.83281">
        <ele>66.91591594285</ele>
        <time>2020-07-07T16:32:30.000Z</time>
      </trkpt>
      <trkpt lat="43.61103" lon="3.83274">
        <ele>67</ele>
        <time>2020-07-07T16:32:31.000Z</time>
      </trkpt>
      <trkpt lat="43.61106" lon="3.83268">
        <ele>67</ele>
        <time>2020-07-07T16:32:32.000Z</time>
      </trkpt>
      <trkpt lat="43.61109" lon="3.83262">
        <ele>67</ele>
        <time>2020-07-07T16:32:33.000Z</time>
      </trkpt>
      <trkpt lat="43.61111" lon="3.83255">
        <ele>67</ele>
        <time>2020-07-07T16:32:34.000Z</time>
      </trkpt>
      <trkpt lat="43.61113" lon="3.83247">
        <ele>67</ele>
        <time>2020-07-07T16:32:35.000Z</time>
      </trkpt>
      <trkpt lat="43.61115" lon="3.8324">
        <ele>67</ele>
        <time>2020-07-07T16:32:36.000Z</time>
      </trkpt>
      <trkpt lat="43.61116" lon="3.83232">
        <ele>67</ele>
        <time>2020-07-07T16:32:37.000Z</time>
      </trkpt>
      <trkpt lat="43.61119" lon="3.83225">
        <ele>67</ele>
        <time>2020-07-07T16:32:38.000Z</time>
      </trkpt>
      <trkpt lat="43.61121" lon="3.83218">
        <ele>67</ele>
        <time>2020-07-07T16:32:39.000Z</time>
      </trkpt>
      <trkpt lat="43.61123" lon="3.83211">
        <ele>67</ele>
        <time>2020-07-07T16:32:40.000Z</time>
      </trkpt>
      <trkpt lat="43.61125" lon="3.83204">
        <ele>67.031067980469</ele>
        <time>2020-07-07T16:32:41.000Z</time>
      </trkpt>
      <trkpt lat="43.61127" lon="3.83196">
        <ele>67.225242858403</ele>
        <time>2020-07-07T16:32:42.000Z</time>
      </trkpt>
      <trkpt lat="43.6113" lon="3.83188">
        <ele>67.419417736337</ele>
        <time>2020-07-07T16:32:43.000Z</time>
      </trkpt>
      <trkpt lat="43.61132" lon="3.83179">
        <ele>67.613592614271</ele>
        <time>2020-07-07T16:32:44.000Z</time>
      </trkpt>
      <trkpt lat="43.61134" lon="3.8317">
        <ele>67.807767492205</ele>
        <time>2020-07-07T16:32:45.000Z</time>
      </trkpt>
      <trkpt lat="43.61135" lon="3.83162">
        <ele>68.001942370139</ele>
        <time>2020-07-07T16:32:46.000Z</time>
      </trkpt>
      <trkpt lat="43.61137" lon="3.83153">
        <ele>68.196117248073</ele>
        <time>2020-07-07T16:32:47.000Z</time>
      </trkpt>
      <trkpt lat="43.61139" lon="3.83145">
        <ele>68.390292126007</ele>
        <time>2020-07-07T16:32:48.000Z</time>
      </trkpt>
      <trkpt lat="43.6114" lon="3.83137">
        <ele>68.584467003941</ele>
        <time>2020-07-07T16:32:49.000Z</time>
      </trkpt>
      <trkpt lat="43.61142" lon="3.83128">
        <ele>68.778641881875</ele>
        <time>2020-07-07T16:32:50.000Z</time>
      </trkpt>
      <trkpt lat="43.61143" lon="3.8312">
        <ele>68.972816759808</ele>
        <time>2020-07-07T16:32:51.000Z</time>
      </trkpt>
      <trkpt lat="43.61145" lon="3.83111">
        <ele>69</ele>
        <time>2020-07-07T16:32:52.000Z</time>
      </trkpt>
      <trkpt lat="43.61147" lon="3.83103">
        <ele>69</ele>
        <time>2020-07-07T16:32:53.000Z</time>
      </trkpt>
      <trkpt lat="43.61149" lon="3.83095">
        <ele>69</ele>
        <time>2020-07-07T16:32:54.000Z</time>
      </trkpt>
      <trkpt lat="43.6115" lon="3.83087">
        <ele>69</ele>
        <time>2020-07-07T16:32:55.000Z</time>
      </trkpt>
      <trkpt lat="43.61153" lon="3.83078">
        <ele>69</ele>
        <time>2020-07-07T16:32:56.000Z</time>
      </trkpt>
      <trkpt lat="43.61155" lon="3.8307">
        <ele>69</ele>
        <time>2020-07-07T16:32:57.000Z</time>
      </trkpt>
      <trkpt lat="43.61157" lon="3.83062">
        <ele>69</ele>
        <time>2020-07-07T16:32:58.000Z</time>
      </trkpt>
      <trkpt lat="43.61159" lon="3.83053">
        <ele>69</ele>
        <time>2020-07-07T16:32:59.000Z</time>
      </trkpt>
      <trkpt lat="43.61162" lon="3.83045">
        <ele>69</ele>
        <time>2020-07-07T16:33:00.000Z</time>
      </trkpt>
      <trkpt lat="43.61165" lon="3.83036">
        <ele>69</ele>
        <time>2020-07-07T16:33:01.000Z</time>
      </trkpt>
      <trkpt lat="43.61168" lon="3.83027">
        <ele>69</ele>
        <time>2020-07-07T16:33:02.000Z</time>
      </trkpt>
      <trkpt lat="43.61171" lon="3.83018">
        <ele>69</ele>
        <time>2020-07-07T16:33:03.000Z</time>
      </trkpt>
      <trkpt lat="43.61174" lon="3.8301">
        <ele>69</ele>
        <time>2020-07-07T16:33:04.000Z</time>
      </trkpt>
      <trkpt lat="43.61177" lon="3.83001">
        <ele>69</ele>
        <time>2020-07-07T16:33:05.000Z</time>
      </trkpt>
      <trkpt lat="43.61181" lon="3.82993">
        <ele>69</ele>
        <time>2020-07-07T16:33:06.000Z</time>
      </trkpt>
      <trkpt lat="43.61184" lon="3.82985">
        <ele>69</ele>
        <time>2020-07-07T16:33:07.000Z</time>
      </trkpt>
      <trkpt lat="43.61187" lon="3.82977">
        <ele>69</ele>
        <time>2020-07-07T16:33:08.000Z</time>
      </trkpt>
      <trkpt lat="43.61188" lon="3.82968">
        <ele>69</ele>
        <time>2020-07-07T16:33:09.000Z</time>
      </trkpt>
      <trkpt lat="43.61189" lon="3.8296">
        <ele>69</ele>
        <time>2020-07-07T16:33:10.000Z</time>
      </trkpt>
      <trkpt lat="43.61188" lon="3.82951">
        <ele>69</ele>
        <time>2020-07-07T16:33:11.000Z</time>
      </trkpt>
      <trkpt lat="43.61187" lon="3.82942">
        <ele>69</ele>
        <time>2020-07-07T16:33:12.000Z</time>
      </trkpt>
      <trkpt lat="43.61186" lon="3.82934">
        <ele>69</ele>
        <time>2020-07-07T16:33:13.000Z</time>
      </trkpt>
      <trkpt lat="43.61185" lon="3.82926">
        <ele>69</ele>
        <time>2020-07-07T16:33:14.000Z</time>
      </trkpt>
      <trkpt lat="43.61184" lon="3.82917">
        <ele>69</ele>
        <time>2020-07-07T16:33:15.000Z</time>
      </trkpt>
      <trkpt lat="43.61182" lon="3.82908">
        <ele>69</ele>
        <time>2020-07-07T16:33:16.000Z</time>
      </trkpt>
      <trkpt lat="43.6118" lon="3.829">
        <ele>69</ele>
        <time>2020-07-07T16:33:17.000Z</time>
      </trkpt>
      <trkpt lat="43.61178" lon="3.82893">
        <ele>69</ele>
        <time>2020-07-07T16:33:18.000Z</time>
      </trkpt>
      <trkpt lat="43.61176" lon="3.82885">
        <ele>69</ele>
        <time>2020-07-07T16:33:19.000Z</time>
      </trkpt>
      <trkpt lat="43.61174" lon="3.82876">
        <ele>69</ele>
        <time>2020-07-07T16:33:20.000Z</time>
      </trkpt>
      <trkpt lat="43.61172" lon="3.82869">
        <ele>68.952</ele>
        <time>2020-07-07T16:33:21.000Z</time>
      </trkpt>
      <trkpt lat="43.61171" lon="3.82861">
        <ele>68.652</ele>
        <time>2020-07-07T16:33:22.000Z</time>
      </trkpt>
      <trkpt lat="43.61169" lon="3.82853">
        <ele>68.352</ele>
        <time>2020-07-07T16:33:23.000Z</time>
      </trkpt>
      <trkpt lat="43.61167" lon="3.82845">
        <ele>68.052</ele>
        <time>2020-07-07T16:33:24.000Z</time>
      </trkpt>
      <trkpt lat="43.61165" lon="3.82837">
        <ele>67.752</ele>
        <time>2020-07-07T16:33:25.000Z</time>
      </trkpt>
      <trkpt lat="43.61163" lon="3.82829">
        <ele>67.452</ele>
        <time>2020-07-07T16:33:26.000Z</time>
      </trkpt>
      <trkpt lat="43.61161" lon="3.82821">
        <ele>67.152</ele>
        <time>2020-07-07T16:33:27.000Z</time>
      </trkpt>
      <trkpt lat="43.61159" lon="3.82812">
        <ele>66.852</ele>
        <time>2020-07-07T16:33:28.000Z</time>
      </trkpt>
      <trkpt lat="43.61159" lon="3.82803">
        <ele>66.552</ele>
        <time>2020-07-07T16:33:29.000Z</time>
      </trkpt>
      <trkpt lat="43.6116" lon="3.82795">
        <ele>66.252</ele>
        <time>2020-07-07T16:33:30.000Z</time>
      </trkpt>
      <trkpt lat="43.61161" lon="3.82787">
        <ele>65.984031946327</ele>
        <time>2020-07-07T16:33:31.000Z</time>
      </trkpt>
      <trkpt lat="43.61163" lon="3.8278">
        <ele>65.88423161087</ele>
        <time>2020-07-07T16:33:32.000Z</time>
      </trkpt>
      <trkpt lat="43.61164" lon="3.82773">
        <ele>65.784431275413</ele>
        <time>2020-07-07T16:33:33.000Z</time>
      </trkpt>
      <trkpt lat="43.61165" lon="3.82766">
        <ele>65.684630939956</ele>
        <time>2020-07-07T16:33:34.000Z</time>
      </trkpt>
      <trkpt lat="43.61166" lon="3.82759">
        <ele>65.584830604499</ele>
        <time>2020-07-07T16:33:35.000Z</time>
      </trkpt>
      <trkpt lat="43.61167" lon="3.82751">
        <ele>65.485030269042</ele>
        <time>2020-07-07T16:33:36.000Z</time>
      </trkpt>
      <trkpt lat="43.61168" lon="3.82744">
        <ele>65.385229933586</ele>
        <time>2020-07-07T16:33:37.000Z</time>
      </trkpt>
      <trkpt lat="43.61169" lon="3.82736">
        <ele>65.285429598129</ele>
        <time>2020-07-07T16:33:38.000Z</time>
      </trkpt>
      <trkpt lat="43.6117" lon="3.82729">
        <ele>65.185629262672</ele>
        <time>2020-07-07T16:33:39.000Z</time>
      </trkpt>
      <trkpt lat="43.61171" lon="3.82721">
        <ele>65.085828927215</ele>
        <time>2020-07-07T16:33:40.000Z</time>
      </trkpt>
      <trkpt lat="43.61173" lon="3.82714">
        <ele>65</ele>
        <time>2020-07-07T16:33:41.000Z</time>
      </trkpt>
      <trkpt lat="43.61174" lon="3.82706">
        <ele>65</ele>
        <time>2020-07-07T16:33:42.000Z</time>
      </trkpt>
      <trkpt lat="43.61175" lon="3.82699">
        <ele>65</ele>
        <time>2020-07-07T16:33:43.000Z</time>
      </trkpt>
      <trkpt lat="43.61176" lon="3.82691">
        <ele>65</ele>
        <time>2020-07-07T16:33:44.000Z</time>
      </trkpt>
      <trkpt lat="43.61177" lon="3.82683">
        <ele>65</ele>
        <time>2020-07-07T16:33:45.000Z</time>
      </trkpt>
      <trkpt lat="43.61178" lon="3.82676">
        <ele>65</ele>
        <time>2020-07-07T16:33:46.000Z</time>
      </trkpt>
      <trkpt lat="43.6118" lon="3.82668">
        <ele>65</ele>
        <time>2020-07-07T16:33:47.000Z</time>
      </trkpt>
      <trkpt lat="43.61181" lon="3.8266">
        <ele>65</ele>
        <time>2020-07-07T16:33:48.000Z</time>
      </trkpt>
      <trkpt lat="43.61182" lon="3.82653">
        <ele>65</ele>
        <time>2020-07-07T16:33:49.000Z</time>
      </trkpt>
      <trkpt lat="43.61183" lon="3.82645">
        <ele>65</ele>
        <time>2020-07-07T16:33:50.000Z</time>
      </trkpt>
      <trkpt lat="43.61184" lon="3.82637">
        <ele>64.984</ele>
        <time>2020-07-07T16:33:51.000Z</time>
      </trkpt>
      <trkpt lat="43.61186" lon="3.82628">
        <ele>64.884</ele>
        <time>2020-07-07T16:33:52.000Z</time>
      </trkpt>
      <trkpt lat="43.61187" lon="3.8262">
        <ele>64.784</ele>
        <time>2020-07-07T16:33:53.000Z</time>
      </trkpt>
      <trkpt lat="43.61188" lon="3.82612">
        <ele>64.684</ele>
        <time>2020-07-07T16:33:54.000Z</time>
      </trkpt>
      <trkpt lat="43.61189" lon="3.82604">
        <ele>64.584</ele>
        <time>2020-07-07T16:33:55.000Z</time>
      </trkpt>
      <trkpt lat="43.6119" lon="3.82595">
        <ele>64.484</ele>
        <time>2020-07-07T16:33:56.000Z</time>
      </trkpt>
      <trkpt lat="43.61191" lon="3.82587">
        <ele>64.384</ele>
        <time>2020-07-07T16:33:57.000Z</time>
      </trkpt>
      <trkpt lat="43.61192" lon="3.82578">
        <ele>64.284</ele>
        <time>2020-07-07T16:33:58.000Z</time>
      </trkpt>
      <trkpt lat="43.61194" lon="3.8257">
        <ele>64.184</ele>
        <time>2020-07-07T16:33:59.000Z</time>
      </trkpt>
      <trkpt lat="43.61195" lon="3.82562">
        <ele>64.084</ele>
        <time>2020-07-07T16:34:00.000Z</time>
      </trkpt>
      <trkpt lat="43.61196" lon="3.82554">
        <ele>63.984</ele>
        <time>2020-07-07T16:34:01.000Z</time>
      </trkpt>
      <trkpt lat="43.61199" lon="3.82546">
        <ele>63.884</ele>
        <time>2020-07-07T16:34:02.000Z</time>
      </trkpt>
      <trkpt lat="43.61203" lon="3.82541">
        <ele>63.784</ele>
        <time>2020-07-07T16:34:03.000Z</time>
      </trkpt>
      <trkpt lat="43.61207" lon="3.82537">
        <ele>63.684</ele>
        <time>2020-07-07T16:34:04.000Z</time>
      </trkpt>
      <trkpt lat="43.61212" lon="3.82534">
        <ele>63.584</ele>
        <time>2020-07-07T16:34:05.000Z</time>
      </trkpt>
      <trkpt lat="43.61217" lon="3.82531">
        <ele>63.484</ele>
        <time>2020-07-07T16:34:06.000Z</time>
      </trkpt>
      <trkpt lat="43.61222" lon="3.82529">
        <ele>63.384</ele>
        <time>2020-07-07T16:34:07.000Z</time>
      </trkpt>
      <trkpt lat="43.61227" lon="3.82526">
        <ele>63.284</ele>
        <time>2020-07-07T16:34:08.000Z</time>
      </trkpt>
      <trkpt lat="43.61233" lon="3.82523">
        <ele>63.184</ele>
        <time>2020-07-07T16:34:09.000Z</time>
      </trkpt>
      <trkpt lat="43.61239" lon="3.82521">
        <ele>63.084</ele>
        <time>2020-07-07T16:34:10.000Z</time>
      </trkpt>
      <trkpt lat="43.61245" lon="3.82519">
        <ele>62.937743190662</ele>
        <time>2020-07-07T16:34:11.000Z</time>
      </trkpt>
      <trkpt lat="43.61251" lon="3.82515">
        <ele>62.548638132296</ele>
        <time>2020-07-07T16:34:12.000Z</time>
      </trkpt>
      <trkpt lat="43.61257" lon="3.82512">
        <ele>62.15953307393</ele>
        <time>2020-07-07T16:34:13.000Z</time>
      </trkpt>
      <trkpt lat="43.61264" lon="3.82509">
        <ele>61.770428015564</ele>
        <time>2020-07-07T16:34:14.000Z</time>
      </trkpt>
      <trkpt lat="43.6127" lon="3.82506">
        <ele>61.381322957198</ele>
        <time>2020-07-07T16:34:15.000Z</time>
      </trkpt>
      <trkpt lat="43.61275" lon="3.82502">
        <ele>60.992217898833</ele>
        <time>2020-07-07T16:34:16.000Z</time>
      </trkpt>
      <trkpt lat="43.61281" lon="3.82496">
        <ele>60.603112840467</ele>
        <time>2020-07-07T16:34:17.000Z</time>
      </trkpt>
      <trkpt lat="43.61286" lon="3.8249">
        <ele>60.214007782101</ele>
        <time>2020-07-07T16:34:18.000Z</time>
      </trkpt>
      <trkpt lat="43.6129" lon="3.82484">
        <ele>59.824902723735</ele>
        <time>2020-07-07T16:34:19.000Z</time>
      </trkpt>
      <trkpt lat="43.61294" lon="3.82476">
        <ele>59.43579766537</ele>
        <time>2020-07-07T16:34:20.000Z</time>
      </trkpt>
      <trkpt lat="43.61298" lon="3.82469">
        <ele>59.046692607004</ele>
        <time>2020-07-07T16:34:21.000Z</time>
      </trkpt>
      <trkpt lat="43.61302" lon="3.82461">
        <ele>58.821862348178</ele>
        <time>2020-07-07T16:34:22.000Z</time>
      </trkpt>
      <trkpt lat="43.61305" lon="3.82453">
        <ele>58.619433198381</ele>
        <time>2020-07-07T16:34:23.000Z</time>
      </trkpt>
      <trkpt lat="43.61308" lon="3.82445">
        <ele>58.417004048583</ele>
        <time>2020-07-07T16:34:24.000Z</time>
      </trkpt>
      <trkpt lat="43.6131" lon="3.82436">
        <ele>58.214574898785</ele>
        <time>2020-07-07T16:34:25.000Z</time>
      </trkpt>
      <trkpt lat="43.61311" lon="3.82427">
        <ele>58.012145748988</ele>
        <time>2020-07-07T16:34:26.000Z</time>
      </trkpt>
      <trkpt lat="43.61312" lon="3.82419">
        <ele>57.80971659919</ele>
        <time>2020-07-07T16:34:27.000Z</time>
      </trkpt>
      <trkpt lat="43.61312" lon="3.8241">
        <ele>57.607287449393</ele>
        <time>2020-07-07T16:34:28.000Z</time>
      </trkpt>
      <trkpt lat="43.61312" lon="3.82401">
        <ele>57.404858299595</ele>
        <time>2020-07-07T16:34:29.000Z</time>
      </trkpt>
      <trkpt lat="43.61311" lon="3.82391">
        <ele>57.202429149798</ele>
        <time>2020-07-07T16:34:30.000Z</time>
      </trkpt>
      <trkpt lat="43.61309" lon="3.82381">
        <ele>57</ele>
        <time>2020-07-07T16:34:31.000Z</time>
      </trkpt>
      <trkpt lat="43.61308" lon="3.82372">
        <ele>56.89837398374</ele>
        <time>2020-07-07T16:34:32.000Z</time>
      </trkpt>
      <trkpt lat="43.61306" lon="3.82362">
        <ele>56.79674796748</ele>
        <time>2020-07-07T16:34:33.000Z</time>
      </trkpt>
      <trkpt lat="43.61305" lon="3.82353">
        <ele>56.695121951219</ele>
        <time>2020-07-07T16:34:34.000Z</time>
      </trkpt>
      <trkpt lat="43.61304" lon="3.82345">
        <ele>56.593495934959</ele>
        <time>2020-07-07T16:34:35.000Z</time>
      </trkpt>
      <trkpt lat="43.61304" lon="3.82337">
        <ele>56.491869918699</ele>
        <time>2020-07-07T16:34:36.000Z</time>
      </trkpt>
      <trkpt lat="43.61305" lon="3.8233">
        <ele>56.390243902439</ele>
        <time>2020-07-07T16:34:37.000Z</time>
      </trkpt>
      <trkpt lat="43.61307" lon="3.82322">
        <ele>56.288617886179</ele>
        <time>2020-07-07T16:34:38.000Z</time>
      </trkpt>
      <trkpt lat="43.6131" lon="3.82314">
        <ele>56.186991869919</ele>
        <time>2020-07-07T16:34:39.000Z</time>
      </trkpt>
      <trkpt lat="43.61315" lon="3.82308">
        <ele>56.085365853659</ele>
        <time>2020-07-07T16:34:40.000Z</time>
      </trkpt>
      <trkpt lat="43.6132" lon="3.82303">
        <ele>55.969868155099</ele>
        <time>2020-07-07T16:34:41.000Z</time>
      </trkpt>
      <trkpt lat="43.61325" lon="3.82299">
        <ele>55.781544124471</ele>
        <time>2020-07-07T16:34:42.000Z</time>
      </trkpt>
      <trkpt lat="43.6133" lon="3.82296">
        <ele>55.593220093843</ele>
        <time>2020-07-07T16:34:43.000Z</time>
      </trkpt>
      <trkpt lat="43.61334" lon="3.82292">
        <ele>55.404896063214</ele>
        <time>2020-07-07T16:34:44.000Z</time>
      </trkpt>
      <trkpt lat="43.61339" lon="3.82287">
        <ele>55.216572032586</ele>
        <time>2020-07-07T16:34:45.000Z</time>
      </trkpt>
      <trkpt lat="43.61344" lon="3.82282">
        <ele>55.028248001957</ele>
        <time>2020-07-07T16:34:46.000Z</time>
      </trkpt>
      <trkpt lat="43.6135" lon="3.82276">
        <ele>54.839923971329</ele>
        <time>2020-07-07T16:34:47.000Z</time>
      </trkpt>
      <trkpt lat="43.61357" lon="3.82271">
        <ele>54.6515999407</ele>
        <time>2020-07-07T16:34:48.000Z</time>
      </trkpt>
      <trkpt lat="43.61365" lon="3.82266">
        <ele>54.463275910072</ele>
        <time>2020-07-07T16:34:49.000Z</time>
      </trkpt>
      <trkpt lat="43.61373" lon="3.82262">
        <ele>54.274951879444</ele>
        <time>2020-07-07T16:34:50.000Z</time>
      </trkpt>
      <trkpt lat="43.61381" lon="3.82259">
        <ele>54.086627848815</ele>
        <time>2020-07-07T16:34:51.000Z</time>
      </trkpt>
      <trkpt lat="43.61389" lon="3.82256">
        <ele>53.884860121204</ele>
        <time>2020-07-07T16:34:52.000Z</time>
      </trkpt>
      <trkpt lat="43.61395" lon="3.82253">
        <ele>53.67164065048</ele>
        <time>2020-07-07T16:34:53.000Z</time>
      </trkpt>
      <trkpt lat="43.61402" lon="3.82248">
        <ele>53.458421179755</ele>
        <time>2020-07-07T16:34:54.000Z</time>
      </trkpt>
      <trkpt lat="43.61408" lon="3.82243">
        <ele>53.245201709031</ele>
        <time>2020-07-07T16:34:55.000Z</time>
      </trkpt>
      <trkpt lat="43.61415" lon="3.82238">
        <ele>53.031982238306</ele>
        <time>2020-07-07T16:34:56.000Z</time>
      </trkpt>
      <trkpt lat="43.61419" lon="3.82235">
        <ele>52.818762767582</ele>
        <time>2020-07-07T16:34:57.000Z</time>
      </trkpt>
      <trkpt lat="43.61423" lon="3.82232">
        <ele>52.605543296857</ele>
        <time>2020-07-07T16:34:58.000Z</time>
      </trkpt>
      <trkpt lat="43.61426" lon="3.8223">
        <ele>52.392323826133</ele>
        <time>2020-07-07T16:34:59.000Z</time>
      </trkpt>
      <trkpt lat="43.61429" lon="3.82228">
        <ele>52.179104355408</ele>
        <time>2020-07-07T16:35:00.000Z</time>
      </trkpt>
      <trkpt lat="43.61432" lon="3.82226">
        <ele>51.984</ele>
        <time>2020-07-07T16:35:01.000Z</time>
      </trkpt>
      <trkpt lat="43.61435" lon="3.82224">
        <ele>51.884</ele>
        <time>2020-07-07T16:35:02.000Z</time>
      </trkpt>
      <trkpt lat="43.6144" lon="3.82221">
        <ele>51.784</ele>
        <time>2020-07-07T16:35:03.000Z</time>
      </trkpt>
      <trkpt lat="43.61446" lon="3.82217">
        <ele>51.684</ele>
        <time>2020-07-07T16:35:04.000Z</time>
      </trkpt>
      <trkpt lat="43.61453" lon="3.82214">
        <ele>51.584</ele>
        <time>2020-07-07T16:35:05.000Z</time>
      </trkpt>
      <trkpt lat="43.6146" lon="3.82211">
        <ele>51.484</ele>
        <time>2020-07-07T16:35:06.000Z</time>
      </trkpt>
      <trkpt lat="43.61467" lon="3.82209">
        <ele>51.384</ele>
        <time>2020-07-07T16:35:07.000Z</time>
      </trkpt>
      <trkpt lat="43.61473" lon="3.82207">
        <ele>51.284</ele>
        <time>2020-07-07T16:35:08.000Z</time>
      </trkpt>
      <trkpt lat="43.61479" lon="3.82206">
        <ele>51.184</ele>
        <time>2020-07-07T16:35:09.000Z</time>
      </trkpt>
      <trkpt lat="43.61485" lon="3.82205">
        <ele>51.084</ele>
        <time>2020-07-07T16:35:10.000Z</time>
      </trkpt>
      <trkpt lat="43.6149" lon="3.82205">
        <ele>51</ele>
        <time>2020-07-07T16:35:11.000Z</time>
      </trkpt>
      <trkpt lat="43.61496" lon="3.82206">
        <ele>51</ele>
        <time>2020-07-07T16:35:12.000Z</time>
      </trkpt>
      <trkpt lat="43.61501" lon="3.82206">
        <ele>51</ele>
        <time>2020-07-07T16:35:13.000Z</time>
      </trkpt>
      <trkpt lat="43.61505" lon="3.82206">
        <ele>51</ele>
        <time>2020-07-07T16:35:14.000Z</time>
      </trkpt>
      <trkpt lat="43.61508" lon="3.82206">
        <ele>51</ele>
        <time>2020-07-07T16:35:15.000Z</time>
      </trkpt>
      <trkpt lat="43.6151" lon="3.82205">
        <ele>51</ele>
        <time>2020-07-07T16:35:18.000Z</time>
      </trkpt>
      <trkpt lat="43.61512" lon="3.82202">
        <ele>51</ele>
        <time>2020-07-07T16:35:20.000Z</time>
      </trkpt>
      <trkpt lat="43.61514" lon="3.82199">
        <ele>50.984</ele>
        <time>2020-07-07T16:35:21.000Z</time>
      </trkpt>
      <trkpt lat="43.61516" lon="3.82196">
        <ele>50.884</ele>
        <time>2020-07-07T16:35:22.000Z</time>
      </trkpt>
      <trkpt lat="43.61517" lon="3.82193">
        <ele>50.784</ele>
        <time>2020-07-07T16:35:23.000Z</time>
      </trkpt>
      <trkpt lat="43.61519" lon="3.82189">
        <ele>50.684</ele>
        <time>2020-07-07T16:35:24.000Z</time>
      </trkpt>
      <trkpt lat="43.6152" lon="3.82187">
        <ele>50.584</ele>
        <time>2020-07-07T16:35:25.000Z</time>
      </trkpt>
      <trkpt lat="43.61523" lon="3.82186">
        <ele>50.484</ele>
        <time>2020-07-07T16:35:26.000Z</time>
      </trkpt>
      <trkpt lat="43.61526" lon="3.82185">
        <ele>50.384</ele>
        <time>2020-07-07T16:35:27.000Z</time>
      </trkpt>
      <trkpt lat="43.61529" lon="3.82183">
        <ele>50.284</ele>
        <time>2020-07-07T16:35:28.000Z</time>
      </trkpt>
      <trkpt lat="43.61533" lon="3.82179">
        <ele>50.184</ele>
        <time>2020-07-07T16:35:29.000Z</time>
      </trkpt>
      <trkpt lat="43.61537" lon="3.82175">
        <ele>50.084</ele>
        <time>2020-07-07T16:35:30.000Z</time>
      </trkpt>
      <trkpt lat="43.6154" lon="3.8217">
        <ele>50</ele>
        <time>2020-07-07T16:35:31.000Z</time>
      </trkpt>
      <trkpt lat="43.61543" lon="3.82166">
        <ele>50</ele>
        <time>2020-07-07T16:35:32.000Z</time>
      </trkpt>
      <trkpt lat="43.61544" lon="3.82162">
        <ele>50</ele>
        <time>2020-07-07T16:35:33.000Z</time>
      </trkpt>
      <trkpt lat="43.61545" lon="3.8216">
        <ele>50</ele>
        <time>2020-07-07T16:35:34.000Z</time>
      </trkpt>
      <trkpt lat="43.61546" lon="3.82157">
        <ele>50</ele>
        <time>2020-07-07T16:35:36.000Z</time>
      </trkpt>
      <trkpt lat="43.61546" lon="3.82153">
        <ele>50</ele>
        <time>2020-07-07T16:35:38.000Z</time>
      </trkpt>
      <trkpt lat="43.61546" lon="3.82153">
        <ele>50</ele>
        <time>2020-07-07T16:35:43.000Z</time>
      </trkpt>
      <trkpt lat="43.61545" lon="3.82137">
        <ele>49.004392852993</ele>
        <time>2020-07-07T16:35:50.000Z</time>
      </trkpt>
      <trkpt lat="43.61547" lon="3.82131">
        <ele>49</ele>
        <time>2020-07-07T16:35:51.000Z</time>
      </trkpt>
      <trkpt lat="43.61548" lon="3.82125">
        <ele>49</ele>
        <time>2020-07-07T16:35:52.000Z</time>
      </trkpt>
      <trkpt lat="43.61549" lon="3.82119">
        <ele>49</ele>
        <time>2020-07-07T16:35:53.000Z</time>
      </trkpt>
      <trkpt lat="43.6155" lon="3.82113">
        <ele>49</ele>
        <time>2020-07-07T16:35:54.000Z</time>
      </trkpt>
      <trkpt lat="43.61551" lon="3.82108">
        <ele>49</ele>
        <time>2020-07-07T16:35:55.000Z</time>
      </trkpt>
      <trkpt lat="43.61552" lon="3.82106">
        <ele>49.001962548093</ele>
        <time>2020-07-07T16:36:02.000Z</time>
      </trkpt>
      <trkpt lat="43.61544" lon="3.82111">
        <ele>49.999591161981</ele>
        <time>2020-07-07T16:38:04.000Z</time>
      </trkpt>
      <trkpt lat="43.61547" lon="3.82113">
        <ele>49.558296047779</ele>
        <time>2020-07-07T16:38:08.000Z</time>
      </trkpt>
      <trkpt lat="43.61547" lon="3.82115">
        <ele>49</ele>
        <time>2020-07-07T16:38:13.000Z</time>
      </trkpt>
      <trkpt lat="43.61545" lon="3.82119">
        <ele>50.977272492669</ele>
        <time>2020-07-07T16:38:40.000Z</time>
      </trkpt>
      <trkpt lat="43.61545" lon="3.8212">
        <ele>51.702927929134</ele>
        <time>2020-07-07T16:38:42.000Z</time>
      </trkpt>
      <trkpt lat="43.61544" lon="3.8212">
        <ele>52.958156374017</ele>
        <time>2020-07-07T16:38:45.000Z</time>
      </trkpt>
      <trkpt lat="43.61549" lon="3.82117">
        <ele>53.999682807918</ele>
        <time>2020-07-07T16:40:20.000Z</time>
      </trkpt>
      <trkpt lat="43.6155" lon="3.82114">
        <ele>53.4</ele>
        <time>2020-07-07T16:40:22.000Z</time>
      </trkpt>
      <trkpt lat="43.61551" lon="3.82112">
        <ele>53.09387755102</ele>
        <time>2020-07-07T16:40:23.000Z</time>
      </trkpt>
      <trkpt lat="43.61551" lon="3.82108">
        <ele>52.787755102041</ele>
        <time>2020-07-07T16:40:24.000Z</time>
      </trkpt>
      <trkpt lat="43.61551" lon="3.82103">
        <ele>52.481632653061</ele>
        <time>2020-07-07T16:40:25.000Z</time>
      </trkpt>
      <trkpt lat="43.61551" lon="3.82097">
        <ele>52.175510204082</ele>
        <time>2020-07-07T16:40:26.000Z</time>
      </trkpt>
      <trkpt lat="43.6155" lon="3.8209">
        <ele>51.869387755102</ele>
        <time>2020-07-07T16:40:27.000Z</time>
      </trkpt>
      <trkpt lat="43.61549" lon="3.82085">
        <ele>51.563265306122</ele>
        <time>2020-07-07T16:40:28.000Z</time>
      </trkpt>
      <trkpt lat="43.61548" lon="3.82079">
        <ele>51.257142857143</ele>
        <time>2020-07-07T16:40:29.000Z</time>
      </trkpt>
      <trkpt lat="43.61547" lon="3.82074">
        <ele>50.984</ele>
        <time>2020-07-07T16:40:30.000Z</time>
      </trkpt>
      <trkpt lat="43.61548" lon="3.8207">
        <ele>50.884</ele>
        <time>2020-07-07T16:40:31.000Z</time>
      </trkpt>
      <trkpt lat="43.6155" lon="3.82065">
        <ele>50.784</ele>
        <time>2020-07-07T16:40:32.000Z</time>
      </trkpt>
      <trkpt lat="43.61554" lon="3.82058">
        <ele>50.684</ele>
        <time>2020-07-07T16:40:33.000Z</time>
      </trkpt>
      <trkpt lat="43.61556" lon="3.82053">
        <ele>50.584</ele>
        <time>2020-07-07T16:40:34.000Z</time>
      </trkpt>
      <trkpt lat="43.61557" lon="3.82049">
        <ele>50.484</ele>
        <time>2020-07-07T16:40:35.000Z</time>
      </trkpt>
      <trkpt lat="43.61557" lon="3.82045">
        <ele>50.384</ele>
        <time>2020-07-07T16:40:36.000Z</time>
      </trkpt>
      <trkpt lat="43.61558" lon="3.82044">
        <ele>50</ele>
        <time>2020-07-07T16:40:43.000Z</time>
      </trkpt>
      <trkpt lat="43.61555" lon="3.82032">
        <ele>48.00194825974</ele>
        <time>2020-07-07T16:41:14.000Z</time>
      </trkpt>
      <trkpt lat="43.61554" lon="3.82029">
        <ele>47.904761904762</ele>
        <time>2020-07-07T16:41:15.000Z</time>
      </trkpt>
      <trkpt lat="43.61553" lon="3.82026">
        <ele>47.805555555556</ele>
        <time>2020-07-07T16:41:16.000Z</time>
      </trkpt>
      <trkpt lat="43.61551" lon="3.82024">
        <ele>47.706349206349</ele>
        <time>2020-07-07T16:41:17.000Z</time>
      </trkpt>
      <trkpt lat="43.6155" lon="3.8202">
        <ele>47.607142857143</ele>
        <time>2020-07-07T16:41:18.000Z</time>
      </trkpt>
      <trkpt lat="43.61551" lon="3.82016">
        <ele>47.507936507936</ele>
        <time>2020-07-07T16:41:19.000Z</time>
      </trkpt>
      <trkpt lat="43.61552" lon="3.82011">
        <ele>47.40873015873</ele>
        <time>2020-07-07T16:41:20.000Z</time>
      </trkpt>
      <trkpt lat="43.61552" lon="3.82006">
        <ele>47.309523809524</ele>
        <time>2020-07-07T16:41:21.000Z</time>
      </trkpt>
      <trkpt lat="43.61553" lon="3.82001">
        <ele>47.210317460317</ele>
        <time>2020-07-07T16:41:22.000Z</time>
      </trkpt>
      <trkpt lat="43.61554" lon="3.81995">
        <ele>47.111111111111</ele>
        <time>2020-07-07T16:41:23.000Z</time>
      </trkpt>
      <trkpt lat="43.61555" lon="3.8199">
        <ele>47.011904761905</ele>
        <time>2020-07-07T16:41:24.000Z</time>
      </trkpt>
      <trkpt lat="43.61557" lon="3.81986">
        <ele>46.912087883984</ele>
        <time>2020-07-07T16:41:25.000Z</time>
      </trkpt>
      <trkpt lat="43.61561" lon="3.81983">
        <ele>46.812187752148</ele>
        <time>2020-07-07T16:41:26.000Z</time>
      </trkpt>
      <trkpt lat="43.61564" lon="3.81981">
        <ele>46.712287620312</ele>
        <time>2020-07-07T16:41:27.000Z</time>
      </trkpt>
      <trkpt lat="43.61568" lon="3.81979">
        <ele>46.612387488475</ele>
        <time>2020-07-07T16:41:28.000Z</time>
      </trkpt>
      <trkpt lat="43.61571" lon="3.81977">
        <ele>46.512487356639</ele>
        <time>2020-07-07T16:41:29.000Z</time>
      </trkpt>
      <trkpt lat="43.61574" lon="3.81975">
        <ele>46.412587224803</ele>
        <time>2020-07-07T16:41:30.000Z</time>
      </trkpt>
      <trkpt lat="43.61577" lon="3.81974">
        <ele>46.312687092967</ele>
        <time>2020-07-07T16:41:31.000Z</time>
      </trkpt>
      <trkpt lat="43.61581" lon="3.81972">
        <ele>46.212786961131</ele>
        <time>2020-07-07T16:41:32.000Z</time>
      </trkpt>
      <trkpt lat="43.61584" lon="3.81971">
        <ele>46.112886829295</ele>
        <time>2020-07-07T16:41:33.000Z</time>
      </trkpt>
      <trkpt lat="43.61587" lon="3.81969">
        <ele>46.012986697458</ele>
        <time>2020-07-07T16:41:34.000Z</time>
      </trkpt>
      <trkpt lat="43.6159" lon="3.81968">
        <ele>45.910401347756</ele>
        <time>2020-07-07T16:41:35.000Z</time>
      </trkpt>
      <trkpt lat="43.61593" lon="3.81966">
        <ele>45.807414769956</ele>
        <time>2020-07-07T16:41:36.000Z</time>
      </trkpt>
      <trkpt lat="43.61594" lon="3.81963">
        <ele>45.704428192155</ele>
        <time>2020-07-07T16:41:37.000Z</time>
      </trkpt>
      <trkpt lat="43.61594" lon="3.81959">
        <ele>45.601441614355</ele>
        <time>2020-07-07T16:41:38.000Z</time>
      </trkpt>
      <trkpt lat="43.61593" lon="3.81955">
        <ele>45.498455036555</ele>
        <time>2020-07-07T16:41:39.000Z</time>
      </trkpt>
      <trkpt lat="43.61592" lon="3.8195">
        <ele>45.395468458754</ele>
        <time>2020-07-07T16:41:40.000Z</time>
      </trkpt>
      <trkpt lat="43.61591" lon="3.81946">
        <ele>45.292481880953</ele>
        <time>2020-07-07T16:41:41.000Z</time>
      </trkpt>
      <trkpt lat="43.6159" lon="3.81941">
        <ele>45.189495303153</ele>
        <time>2020-07-07T16:41:42.000Z</time>
      </trkpt>
      <trkpt lat="43.61589" lon="3.81937">
        <ele>45.086508725352</ele>
        <time>2020-07-07T16:41:43.000Z</time>
      </trkpt>
      <trkpt lat="43.61587" lon="3.81933">
        <ele>44.984450918391</ele>
        <time>2020-07-07T16:41:44.000Z</time>
      </trkpt>
      <trkpt lat="43.61586" lon="3.81929">
        <ele>44.887269158334</ele>
        <time>2020-07-07T16:41:45.000Z</time>
      </trkpt>
      <trkpt lat="43.61585" lon="3.81924">
        <ele>44.790087398278</ele>
        <time>2020-07-07T16:41:46.000Z</time>
      </trkpt>
      <trkpt lat="43.61584" lon="3.8192">
        <ele>44.692905638221</ele>
        <time>2020-07-07T16:41:47.000Z</time>
      </trkpt>
      <trkpt lat="43.61583" lon="3.81915">
        <ele>44.595723878165</ele>
        <time>2020-07-07T16:41:48.000Z</time>
      </trkpt>
      <trkpt lat="43.61582" lon="3.81911">
        <ele>44.498542118108</ele>
        <time>2020-07-07T16:41:49.000Z</time>
      </trkpt>
      <trkpt lat="43.61581" lon="3.81907">
        <ele>44.401360358052</ele>
        <time>2020-07-07T16:41:50.000Z</time>
      </trkpt>
      <trkpt lat="43.6158" lon="3.81903">
        <ele>44.304178597995</ele>
        <time>2020-07-07T16:41:51.000Z</time>
      </trkpt>
      <trkpt lat="43.61579" lon="3.81899">
        <ele>44.206996837939</ele>
        <time>2020-07-07T16:41:52.000Z</time>
      </trkpt>
      <trkpt lat="43.61578" lon="3.81895">
        <ele>44.109815077882</ele>
        <time>2020-07-07T16:41:53.000Z</time>
      </trkpt>
      <trkpt lat="43.61576" lon="3.81891">
        <ele>44.012633317826</ele>
        <time>2020-07-07T16:41:54.000Z</time>
      </trkpt>
      <trkpt lat="43.61575" lon="3.81886">
        <ele>43.910401347756</ele>
        <time>2020-07-07T16:41:55.000Z</time>
      </trkpt>
      <trkpt lat="43.61574" lon="3.81881">
        <ele>43.807414769956</ele>
        <time>2020-07-07T16:41:56.000Z</time>
      </trkpt>
      <trkpt lat="43.61572" lon="3.81876">
        <ele>43.704428192155</ele>
        <time>2020-07-07T16:41:57.000Z</time>
      </trkpt>
      <trkpt lat="43.61571" lon="3.81871">
        <ele>43.601441614355</ele>
        <time>2020-07-07T16:41:58.000Z</time>
      </trkpt>
      <trkpt lat="43.6157" lon="3.81866">
        <ele>43.498455036555</ele>
        <time>2020-07-07T16:41:59.000Z</time>
      </trkpt>
      <trkpt lat="43.61568" lon="3.81861">
        <ele>43.395468458754</ele>
        <time>2020-07-07T16:42:00.000Z</time>
      </trkpt>
      <trkpt lat="43.61567" lon="3.81855">
        <ele>43.292481880953</ele>
        <time>2020-07-07T16:42:01.000Z</time>
      </trkpt>
      <trkpt lat="43.61566" lon="3.81849">
        <ele>43.189495303153</ele>
        <time>2020-07-07T16:42:02.000Z</time>
      </trkpt>
      <trkpt lat="43.61565" lon="3.81842">
        <ele>43.086508725352</ele>
        <time>2020-07-07T16:42:03.000Z</time>
      </trkpt>
      <trkpt lat="43.61564" lon="3.81837">
        <ele>43</ele>
        <time>2020-07-07T16:42:04.000Z</time>
      </trkpt>
      <trkpt lat="43.61562" lon="3.81831">
        <ele>43</ele>
        <time>2020-07-07T16:42:05.000Z</time>
      </trkpt>
      <trkpt lat="43.61561" lon="3.81826">
        <ele>43</ele>
        <time>2020-07-07T16:42:06.000Z</time>
      </trkpt>
      <trkpt lat="43.61559" lon="3.8182">
        <ele>43</ele>
        <time>2020-07-07T16:42:07.000Z</time>
      </trkpt>
      <trkpt lat="43.61558" lon="3.81815">
        <ele>43</ele>
        <time>2020-07-07T16:42:08.000Z</time>
      </trkpt>
      <trkpt lat="43.61556" lon="3.81809">
        <ele>43</ele>
        <time>2020-07-07T16:42:09.000Z</time>
      </trkpt>
      <trkpt lat="43.61554" lon="3.81804">
        <ele>43</ele>
        <time>2020-07-07T16:42:10.000Z</time>
      </trkpt>
      <trkpt lat="43.61553" lon="3.81799">
        <ele>43</ele>
        <time>2020-07-07T16:42:11.000Z</time>
      </trkpt>
      <trkpt lat="43.61551" lon="3.81793">
        <ele>43</ele>
        <time>2020-07-07T16:42:12.000Z</time>
      </trkpt>
      <trkpt lat="43.6155" lon="3.81788">
        <ele>43</ele>
        <time>2020-07-07T16:42:13.000Z</time>
      </trkpt>
      <trkpt lat="43.61548" lon="3.81783">
        <ele>43</ele>
        <time>2020-07-07T16:42:14.000Z</time>
      </trkpt>
      <trkpt lat="43.61546" lon="3.81778">
        <ele>43</ele>
        <time>2020-07-07T16:42:15.000Z</time>
      </trkpt>
      <trkpt lat="43.61545" lon="3.81773">
        <ele>43</ele>
        <time>2020-07-07T16:42:16.000Z</time>
      </trkpt>
      <trkpt lat="43.61544" lon="3.81768">
        <ele>43</ele>
        <time>2020-07-07T16:42:17.000Z</time>
      </trkpt>
      <trkpt lat="43.61542" lon="3.81763">
        <ele>43</ele>
        <time>2020-07-07T16:42:18.000Z</time>
      </trkpt>
      <trkpt lat="43.61541" lon="3.81758">
        <ele>43</ele>
        <time>2020-07-07T16:42:19.000Z</time>
      </trkpt>
      <trkpt lat="43.61539" lon="3.81753">
        <ele>43</ele>
        <time>2020-07-07T16:42:20.000Z</time>
      </trkpt>
      <trkpt lat="43.61538" lon="3.81748">
        <ele>43</ele>
        <time>2020-07-07T16:42:21.000Z</time>
      </trkpt>
      <trkpt lat="43.61537" lon="3.81744">
        <ele>43</ele>
        <time>2020-07-07T16:42:22.000Z</time>
      </trkpt>
      <trkpt lat="43.61536" lon="3.81739">
        <ele>43</ele>
        <time>2020-07-07T16:42:23.000Z</time>
      </trkpt>
      <trkpt lat="43.61534" lon="3.81735">
        <ele>43</ele>
        <time>2020-07-07T16:42:24.000Z</time>
      </trkpt>
      <trkpt lat="43.61533" lon="3.8173">
        <ele>43</ele>
        <time>2020-07-07T16:42:25.000Z</time>
      </trkpt>
      <trkpt lat="43.61531" lon="3.81726">
        <ele>43</ele>
        <time>2020-07-07T16:42:26.000Z</time>
      </trkpt>
      <trkpt lat="43.6153" lon="3.81721">
        <ele>43</ele>
        <time>2020-07-07T16:42:27.000Z</time>
      </trkpt>
      <trkpt lat="43.61529" lon="3.81716">
        <ele>43</ele>
        <time>2020-07-07T16:42:28.000Z</time>
      </trkpt>
      <trkpt lat="43.61527" lon="3.81711">
        <ele>43</ele>
        <time>2020-07-07T16:42:29.000Z</time>
      </trkpt>
      <trkpt lat="43.61526" lon="3.81706">
        <ele>43</ele>
        <time>2020-07-07T16:42:30.000Z</time>
      </trkpt>
      <trkpt lat="43.61525" lon="3.81701">
        <ele>43</ele>
        <time>2020-07-07T16:42:31.000Z</time>
      </trkpt>
      <trkpt lat="43.61523" lon="3.81696">
        <ele>43</ele>
        <time>2020-07-07T16:42:32.000Z</time>
      </trkpt>
      <trkpt lat="43.61522" lon="3.81691">
        <ele>43</ele>
        <time>2020-07-07T16:42:33.000Z</time>
      </trkpt>
      <trkpt lat="43.61521" lon="3.81686">
        <ele>42.984435797665</ele>
        <time>2020-07-07T16:42:34.000Z</time>
      </trkpt>
      <trkpt lat="43.61519" lon="3.81681">
        <ele>42.887159533074</ele>
        <time>2020-07-07T16:42:35.000Z</time>
      </trkpt>
      <trkpt lat="43.61518" lon="3.81675">
        <ele>42.789883268482</ele>
        <time>2020-07-07T16:42:36.000Z</time>
      </trkpt>
      <trkpt lat="43.61517" lon="3.8167">
        <ele>42.692607003891</ele>
        <time>2020-07-07T16:42:37.000Z</time>
      </trkpt>
      <trkpt lat="43.61516" lon="3.81665">
        <ele>42.5953307393</ele>
        <time>2020-07-07T16:42:38.000Z</time>
      </trkpt>
      <trkpt lat="43.61514" lon="3.81659">
        <ele>42.498054474708</ele>
        <time>2020-07-07T16:42:39.000Z</time>
      </trkpt>
      <trkpt lat="43.61513" lon="3.81654">
        <ele>42.400778210117</ele>
        <time>2020-07-07T16:42:40.000Z</time>
      </trkpt>
      <trkpt lat="43.61512" lon="3.81648">
        <ele>42.303501945525</ele>
        <time>2020-07-07T16:42:41.000Z</time>
      </trkpt>
      <trkpt lat="43.6151" lon="3.81643">
        <ele>42.206225680934</ele>
        <time>2020-07-07T16:42:42.000Z</time>
      </trkpt>
      <trkpt lat="43.61508" lon="3.81637">
        <ele>42.108949416342</ele>
        <time>2020-07-07T16:42:43.000Z</time>
      </trkpt>
      <trkpt lat="43.61507" lon="3.81632">
        <ele>42.011673151751</ele>
        <time>2020-07-07T16:42:44.000Z</time>
      </trkpt>
      <trkpt lat="43.61505" lon="3.81626">
        <ele>42</ele>
        <time>2020-07-07T16:42:45.000Z</time>
      </trkpt>
      <trkpt lat="43.61503" lon="3.81621">
        <ele>42</ele>
        <time>2020-07-07T16:42:46.000Z</time>
      </trkpt>
      <trkpt lat="43.61502" lon="3.81615">
        <ele>42</ele>
        <time>2020-07-07T16:42:47.000Z</time>
      </trkpt>
      <trkpt lat="43.615" lon="3.81609">
        <ele>42</ele>
        <time>2020-07-07T16:42:48.000Z</time>
      </trkpt>
      <trkpt lat="43.61498" lon="3.81603">
        <ele>42</ele>
        <time>2020-07-07T16:42:49.000Z</time>
      </trkpt>
      <trkpt lat="43.61497" lon="3.81597">
        <ele>42</ele>
        <time>2020-07-07T16:42:50.000Z</time>
      </trkpt>
      <trkpt lat="43.61496" lon="3.81591">
        <ele>42</ele>
        <time>2020-07-07T16:42:51.000Z</time>
      </trkpt>
      <trkpt lat="43.61495" lon="3.81585">
        <ele>42</ele>
        <time>2020-07-07T16:42:52.000Z</time>
      </trkpt>
      <trkpt lat="43.61494" lon="3.81579">
        <ele>42</ele>
        <time>2020-07-07T16:42:53.000Z</time>
      </trkpt>
      <trkpt lat="43.61494" lon="3.81573">
        <ele>42.016</ele>
        <time>2020-07-07T16:42:54.000Z</time>
      </trkpt>
      <trkpt lat="43.61493" lon="3.81568">
        <ele>42.116</ele>
        <time>2020-07-07T16:42:55.000Z</time>
      </trkpt>
      <trkpt lat="43.61493" lon="3.81562">
        <ele>42.216</ele>
        <time>2020-07-07T16:42:56.000Z</time>
      </trkpt>
      <trkpt lat="43.61493" lon="3.81558">
        <ele>42.316</ele>
        <time>2020-07-07T16:42:57.000Z</time>
      </trkpt>
      <trkpt lat="43.61493" lon="3.81553">
        <ele>42.416</ele>
        <time>2020-07-07T16:42:58.000Z</time>
      </trkpt>
      <trkpt lat="43.61492" lon="3.81549">
        <ele>42.516</ele>
        <time>2020-07-07T16:42:59.000Z</time>
      </trkpt>
      <trkpt lat="43.61491" lon="3.81545">
        <ele>42.616</ele>
        <time>2020-07-07T16:43:00.000Z</time>
      </trkpt>
      <trkpt lat="43.61491" lon="3.81542">
        <ele>42.716</ele>
        <time>2020-07-07T16:43:01.000Z</time>
      </trkpt>
      <trkpt lat="43.6149" lon="3.81539">
        <ele>42.816</ele>
        <time>2020-07-07T16:43:02.000Z</time>
      </trkpt>
      <trkpt lat="43.61489" lon="3.81535">
        <ele>42.916</ele>
        <time>2020-07-07T16:43:03.000Z</time>
      </trkpt>
      <trkpt lat="43.61488" lon="3.81531">
        <ele>43</ele>
        <time>2020-07-07T16:43:04.000Z</time>
      </trkpt>
      <trkpt lat="43.61488" lon="3.81528">
        <ele>43</ele>
        <time>2020-07-07T16:43:05.000Z</time>
      </trkpt>
      <trkpt lat="43.61488" lon="3.81525">
        <ele>43</ele>
        <time>2020-07-07T16:43:06.000Z</time>
      </trkpt>
      <trkpt lat="43.61488" lon="3.81523">
        <ele>43</ele>
        <time>2020-07-07T16:43:07.000Z</time>
      </trkpt>
      <trkpt lat="43.61488" lon="3.8152">
        <ele>43</ele>
        <time>2020-07-07T16:43:08.000Z</time>
      </trkpt>
      <trkpt lat="43.61487" lon="3.81518">
        <ele>43</ele>
        <time>2020-07-07T16:43:09.000Z</time>
      </trkpt>
      <trkpt lat="43.61486" lon="3.81516">
        <ele>43</ele>
        <time>2020-07-07T16:43:10.000Z</time>
      </trkpt>
      <trkpt lat="43.61484" lon="3.81514">
        <ele>43</ele>
        <time>2020-07-07T16:43:11.000Z</time>
      </trkpt>
      <trkpt lat="43.61482" lon="3.81511">
        <ele>43</ele>
        <time>2020-07-07T16:43:13.000Z</time>
      </trkpt>
      <trkpt lat="43.61478" lon="3.81511">
        <ele>43</ele>
        <time>2020-07-07T16:43:15.000Z</time>
      </trkpt>
      <trkpt lat="43.61477" lon="3.81513">
        <ele>43</ele>
        <time>2020-07-07T16:43:16.000Z</time>
      </trkpt>
      <trkpt lat="43.61475" lon="3.81516">
        <ele>43</ele>
        <time>2020-07-07T16:43:17.000Z</time>
      </trkpt>
      <trkpt lat="43.61474" lon="3.81518">
        <ele>43</ele>
        <time>2020-07-07T16:43:18.000Z</time>
      </trkpt>
      <trkpt lat="43.6147" lon="3.81519">
        <ele>43</ele>
        <time>2020-07-07T16:43:20.000Z</time>
      </trkpt>
      <trkpt lat="43.61469" lon="3.81517">
        <ele>43</ele>
        <time>2020-07-07T16:43:21.000Z</time>
      </trkpt>
      <trkpt lat="43.61468" lon="3.81513">
        <ele>43</ele>
        <time>2020-07-07T16:43:22.000Z</time>
      </trkpt>
      <trkpt lat="43.61467" lon="3.81509">
        <ele>43</ele>
        <time>2020-07-07T16:43:23.000Z</time>
      </trkpt>
      <trkpt lat="43.61465" lon="3.81505">
        <ele>43.01593625498</ele>
        <time>2020-07-07T16:43:24.000Z</time>
      </trkpt>
      <trkpt lat="43.61464" lon="3.81502">
        <ele>43.115537848606</ele>
        <time>2020-07-07T16:43:25.000Z</time>
      </trkpt>
      <trkpt lat="43.61463" lon="3.81498">
        <ele>43.215139442231</ele>
        <time>2020-07-07T16:43:26.000Z</time>
      </trkpt>
      <trkpt lat="43.61462" lon="3.81494">
        <ele>43.314741035857</ele>
        <time>2020-07-07T16:43:27.000Z</time>
      </trkpt>
      <trkpt lat="43.61461" lon="3.8149">
        <ele>43.414342629482</ele>
        <time>2020-07-07T16:43:28.000Z</time>
      </trkpt>
      <trkpt lat="43.6146" lon="3.81486">
        <ele>43.513944223108</ele>
        <time>2020-07-07T16:43:29.000Z</time>
      </trkpt>
      <trkpt lat="43.61459" lon="3.81483">
        <ele>43.613545816733</ele>
        <time>2020-07-07T16:43:30.000Z</time>
      </trkpt>
      <trkpt lat="43.61457" lon="3.81479">
        <ele>43.713147410359</ele>
        <time>2020-07-07T16:43:31.000Z</time>
      </trkpt>
      <trkpt lat="43.61456" lon="3.81475">
        <ele>43.812749003984</ele>
        <time>2020-07-07T16:43:32.000Z</time>
      </trkpt>
      <trkpt lat="43.61454" lon="3.81471">
        <ele>43.91235059761</ele>
        <time>2020-07-07T16:43:33.000Z</time>
      </trkpt>
      <trkpt lat="43.61453" lon="3.81467">
        <ele>44.024096385542</ele>
        <time>2020-07-07T16:43:34.000Z</time>
      </trkpt>
      <trkpt lat="43.61452" lon="3.81463">
        <ele>44.224899598394</ele>
        <time>2020-07-07T16:43:35.000Z</time>
      </trkpt>
      <trkpt lat="43.61451" lon="3.81459">
        <ele>44.425702811245</ele>
        <time>2020-07-07T16:43:36.000Z</time>
      </trkpt>
      <trkpt lat="43.61449" lon="3.81455">
        <ele>44.626506024096</ele>
        <time>2020-07-07T16:43:37.000Z</time>
      </trkpt>
      <trkpt lat="43.61448" lon="3.81451">
        <ele>44.827309236948</ele>
        <time>2020-07-07T16:43:38.000Z</time>
      </trkpt>
      <trkpt lat="43.61447" lon="3.81447">
        <ele>45.028112449799</ele>
        <time>2020-07-07T16:43:39.000Z</time>
      </trkpt>
      <trkpt lat="43.61446" lon="3.81443">
        <ele>45.228915662651</ele>
        <time>2020-07-07T16:43:40.000Z</time>
      </trkpt>
      <trkpt lat="43.61444" lon="3.81439">
        <ele>45.429718875502</ele>
        <time>2020-07-07T16:43:41.000Z</time>
      </trkpt>
      <trkpt lat="43.61443" lon="3.81434">
        <ele>45.630522088353</ele>
        <time>2020-07-07T16:43:42.000Z</time>
      </trkpt>
      <trkpt lat="43.61442" lon="3.8143">
        <ele>45.831325301205</ele>
        <time>2020-07-07T16:43:43.000Z</time>
      </trkpt>
      <trkpt lat="43.61441" lon="3.81426">
        <ele>46.016</ele>
        <time>2020-07-07T16:43:44.000Z</time>
      </trkpt>
      <trkpt lat="43.6144" lon="3.81422">
        <ele>46.116</ele>
        <time>2020-07-07T16:43:45.000Z</time>
      </trkpt>
      <trkpt lat="43.61439" lon="3.81418">
        <ele>46.216</ele>
        <time>2020-07-07T16:43:46.000Z</time>
      </trkpt>
      <trkpt lat="43.61438" lon="3.81414">
        <ele>46.316</ele>
        <time>2020-07-07T16:43:47.000Z</time>
      </trkpt>
      <trkpt lat="43.61437" lon="3.8141">
        <ele>46.416</ele>
        <time>2020-07-07T16:43:48.000Z</time>
      </trkpt>
      <trkpt lat="43.61436" lon="3.81406">
        <ele>46.516</ele>
        <time>2020-07-07T16:43:49.000Z</time>
      </trkpt>
      <trkpt lat="43.61434" lon="3.81402">
        <ele>46.616</ele>
        <time>2020-07-07T16:43:50.000Z</time>
      </trkpt>
      <trkpt lat="43.61433" lon="3.81398">
        <ele>46.716</ele>
        <time>2020-07-07T16:43:51.000Z</time>
      </trkpt>
      <trkpt lat="43.61432" lon="3.81394">
        <ele>46.816</ele>
        <time>2020-07-07T16:43:52.000Z</time>
      </trkpt>
      <trkpt lat="43.61431" lon="3.81391">
        <ele>46.916</ele>
        <time>2020-07-07T16:43:53.000Z</time>
      </trkpt>
      <trkpt lat="43.6143" lon="3.81387">
        <ele>47.016</ele>
        <time>2020-07-07T16:43:54.000Z</time>
      </trkpt>
      <trkpt lat="43.61429" lon="3.81383">
        <ele>47.116</ele>
        <time>2020-07-07T16:43:55.000Z</time>
      </trkpt>
      <trkpt lat="43.61428" lon="3.81379">
        <ele>47.216</ele>
        <time>2020-07-07T16:43:56.000Z</time>
      </trkpt>
      <trkpt lat="43.61427" lon="3.81376">
        <ele>47.316</ele>
        <time>2020-07-07T16:43:57.000Z</time>
      </trkpt>
      <trkpt lat="43.61426" lon="3.81371">
        <ele>47.416</ele>
        <time>2020-07-07T16:43:58.000Z</time>
      </trkpt>
      <trkpt lat="43.61425" lon="3.81367">
        <ele>47.516</ele>
        <time>2020-07-07T16:43:59.000Z</time>
      </trkpt>
      <trkpt lat="43.61424" lon="3.81362">
        <ele>47.616</ele>
        <time>2020-07-07T16:44:00.000Z</time>
      </trkpt>
      <trkpt lat="43.61422" lon="3.81357">
        <ele>47.716</ele>
        <time>2020-07-07T16:44:01.000Z</time>
      </trkpt>
      <trkpt lat="43.61422" lon="3.81352">
        <ele>47.816</ele>
        <time>2020-07-07T16:44:02.000Z</time>
      </trkpt>
      <trkpt lat="43.61421" lon="3.81347">
        <ele>47.916</ele>
        <time>2020-07-07T16:44:03.000Z</time>
      </trkpt>
      <trkpt lat="43.6142" lon="3.81343">
        <ele>48.016</ele>
        <time>2020-07-07T16:44:04.000Z</time>
      </trkpt>
      <trkpt lat="43.61418" lon="3.81339">
        <ele>48.116</ele>
        <time>2020-07-07T16:44:05.000Z</time>
      </trkpt>
      <trkpt lat="43.61417" lon="3.81334">
        <ele>48.216</ele>
        <time>2020-07-07T16:44:06.000Z</time>
      </trkpt>
      <trkpt lat="43.61416" lon="3.81329">
        <ele>48.316</ele>
        <time>2020-07-07T16:44:07.000Z</time>
      </trkpt>
      <trkpt lat="43.61414" lon="3.81324">
        <ele>48.416</ele>
        <time>2020-07-07T16:44:08.000Z</time>
      </trkpt>
      <trkpt lat="43.61413" lon="3.81319">
        <ele>48.516</ele>
        <time>2020-07-07T16:44:09.000Z</time>
      </trkpt>
      <trkpt lat="43.61412" lon="3.81314">
        <ele>48.616</ele>
        <time>2020-07-07T16:44:10.000Z</time>
      </trkpt>
      <trkpt lat="43.61411" lon="3.81309">
        <ele>48.716</ele>
        <time>2020-07-07T16:44:11.000Z</time>
      </trkpt>
      <trkpt lat="43.6141" lon="3.81304">
        <ele>48.816</ele>
        <time>2020-07-07T16:44:12.000Z</time>
      </trkpt>
      <trkpt lat="43.61409" lon="3.81299">
        <ele>48.916</ele>
        <time>2020-07-07T16:44:13.000Z</time>
      </trkpt>
      <trkpt lat="43.61408" lon="3.81294">
        <ele>49</ele>
        <time>2020-07-07T16:44:14.000Z</time>
      </trkpt>
      <trkpt lat="43.61407" lon="3.8129">
        <ele>49</ele>
        <time>2020-07-07T16:44:15.000Z</time>
      </trkpt>
      <trkpt lat="43.61407" lon="3.81285">
        <ele>49</ele>
        <time>2020-07-07T16:44:16.000Z</time>
      </trkpt>
      <trkpt lat="43.61406" lon="3.8128">
        <ele>49</ele>
        <time>2020-07-07T16:44:17.000Z</time>
      </trkpt>
      <trkpt lat="43.61406" lon="3.81275">
        <ele>49</ele>
        <time>2020-07-07T16:44:18.000Z</time>
      </trkpt>
      <trkpt lat="43.61405" lon="3.8127">
        <ele>49</ele>
        <time>2020-07-07T16:44:19.000Z</time>
      </trkpt>
      <trkpt lat="43.61405" lon="3.81265">
        <ele>49</ele>
        <time>2020-07-07T16:44:20.000Z</time>
      </trkpt>
      <trkpt lat="43.61405" lon="3.81261">
        <ele>49</ele>
        <time>2020-07-07T16:44:21.000Z</time>
      </trkpt>
      <trkpt lat="43.61405" lon="3.81256">
        <ele>49</ele>
        <time>2020-07-07T16:44:22.000Z</time>
      </trkpt>
      <trkpt lat="43.61404" lon="3.81251">
        <ele>49</ele>
        <time>2020-07-07T16:44:23.000Z</time>
      </trkpt>
      <trkpt lat="43.61404" lon="3.81246">
        <ele>49.016</ele>
        <time>2020-07-07T16:44:24.000Z</time>
      </trkpt>
      <trkpt lat="43.61404" lon="3.81241">
        <ele>49.116</ele>
        <time>2020-07-07T16:44:25.000Z</time>
      </trkpt>
      <trkpt lat="43.61404" lon="3.81236">
        <ele>49.216</ele>
        <time>2020-07-07T16:44:26.000Z</time>
      </trkpt>
      <trkpt lat="43.61404" lon="3.81232">
        <ele>49.316</ele>
        <time>2020-07-07T16:44:27.000Z</time>
      </trkpt>
      <trkpt lat="43.61404" lon="3.81227">
        <ele>49.416</ele>
        <time>2020-07-07T16:44:28.000Z</time>
      </trkpt>
      <trkpt lat="43.61404" lon="3.81222">
        <ele>49.516</ele>
        <time>2020-07-07T16:44:29.000Z</time>
      </trkpt>
      <trkpt lat="43.61404" lon="3.81217">
        <ele>49.616</ele>
        <time>2020-07-07T16:44:30.000Z</time>
      </trkpt>
      <trkpt lat="43.61403" lon="3.81212">
        <ele>49.716</ele>
        <time>2020-07-07T16:44:31.000Z</time>
      </trkpt>
      <trkpt lat="43.61403" lon="3.81208">
        <ele>49.816</ele>
        <time>2020-07-07T16:44:32.000Z</time>
      </trkpt>
      <trkpt lat="43.61403" lon="3.81203">
        <ele>49.916</ele>
        <time>2020-07-07T16:44:33.000Z</time>
      </trkpt>
      <trkpt lat="43.61403" lon="3.81198">
        <ele>50.015732551656</ele>
        <time>2020-07-07T16:44:34.000Z</time>
      </trkpt>
      <trkpt lat="43.61403" lon="3.81193">
        <ele>50.114060999508</ele>
        <time>2020-07-07T16:44:35.000Z</time>
      </trkpt>
      <trkpt lat="43.61403" lon="3.81188">
        <ele>50.212389447359</ele>
        <time>2020-07-07T16:44:36.000Z</time>
      </trkpt>
      <trkpt lat="43.61403" lon="3.81183">
        <ele>50.310717895211</ele>
        <time>2020-07-07T16:44:37.000Z</time>
      </trkpt>
      <trkpt lat="43.61403" lon="3.81178">
        <ele>50.409046343063</ele>
        <time>2020-07-07T16:44:38.000Z</time>
      </trkpt>
      <trkpt lat="43.61403" lon="3.81173">
        <ele>50.507374790914</ele>
        <time>2020-07-07T16:44:39.000Z</time>
      </trkpt>
      <trkpt lat="43.61403" lon="3.81169">
        <ele>50.605703238766</ele>
        <time>2020-07-07T16:44:40.000Z</time>
      </trkpt>
      <trkpt lat="43.61403" lon="3.81164">
        <ele>50.704031686618</ele>
        <time>2020-07-07T16:44:41.000Z</time>
      </trkpt>
      <trkpt lat="43.61404" lon="3.81159">
        <ele>50.802360134469</ele>
        <time>2020-07-07T16:44:42.000Z</time>
      </trkpt>
      <trkpt lat="43.61404" lon="3.81154">
        <ele>50.900688582321</ele>
        <time>2020-07-07T16:44:43.000Z</time>
      </trkpt>
      <trkpt lat="43.61404" lon="3.8115">
        <ele>50.999017030173</ele>
        <time>2020-07-07T16:44:44.000Z</time>
      </trkpt>
      <trkpt lat="43.61404" lon="3.81145">
        <ele>51.100712398547</ele>
        <time>2020-07-07T16:44:45.000Z</time>
      </trkpt>
      <trkpt lat="43.61404" lon="3.81141">
        <ele>51.202441765227</ele>
        <time>2020-07-07T16:44:46.000Z</time>
      </trkpt>
      <trkpt lat="43.61404" lon="3.81136">
        <ele>51.304171131908</ele>
        <time>2020-07-07T16:44:47.000Z</time>
      </trkpt>
      <trkpt lat="43.61404" lon="3.81132">
        <ele>51.405900498588</ele>
        <time>2020-07-07T16:44:48.000Z</time>
      </trkpt>
      <trkpt lat="43.61404" lon="3.81128">
        <ele>51.507629865268</ele>
        <time>2020-07-07T16:44:49.000Z</time>
      </trkpt>
      <trkpt lat="43.61404" lon="3.81124">
        <ele>51.609359231948</ele>
        <time>2020-07-07T16:44:50.000Z</time>
      </trkpt>
      <trkpt lat="43.61404" lon="3.8112">
        <ele>51.711088598628</ele>
        <time>2020-07-07T16:44:51.000Z</time>
      </trkpt>
      <trkpt lat="43.61404" lon="3.81115">
        <ele>51.812817965308</ele>
        <time>2020-07-07T16:44:52.000Z</time>
      </trkpt>
      <trkpt lat="43.61403" lon="3.81111">
        <ele>51.914547331989</ele>
        <time>2020-07-07T16:44:53.000Z</time>
      </trkpt>
      <trkpt lat="43.61403" lon="3.81107">
        <ele>52.016</ele>
        <time>2020-07-07T16:44:54.000Z</time>
      </trkpt>
      <trkpt lat="43.61403" lon="3.81102">
        <ele>52.116</ele>
        <time>2020-07-07T16:44:55.000Z</time>
      </trkpt>
      <trkpt lat="43.61404" lon="3.81098">
        <ele>52.216</ele>
        <time>2020-07-07T16:44:56.000Z</time>
      </trkpt>
      <trkpt lat="43.61404" lon="3.81094">
        <ele>52.316</ele>
        <time>2020-07-07T16:44:57.000Z</time>
      </trkpt>
      <trkpt lat="43.61405" lon="3.81089">
        <ele>52.416</ele>
        <time>2020-07-07T16:44:58.000Z</time>
      </trkpt>
      <trkpt lat="43.61406" lon="3.81086">
        <ele>52.516</ele>
        <time>2020-07-07T16:44:59.000Z</time>
      </trkpt>
      <trkpt lat="43.61407" lon="3.81082">
        <ele>52.616</ele>
        <time>2020-07-07T16:45:00.000Z</time>
      </trkpt>
      <trkpt lat="43.61408" lon="3.81079">
        <ele>52.716</ele>
        <time>2020-07-07T16:45:01.000Z</time>
      </trkpt>
      <trkpt lat="43.6141" lon="3.81076">
        <ele>52.816</ele>
        <time>2020-07-07T16:45:02.000Z</time>
      </trkpt>
      <trkpt lat="43.61411" lon="3.81073">
        <ele>52.916</ele>
        <time>2020-07-07T16:45:03.000Z</time>
      </trkpt>
      <trkpt lat="43.61413" lon="3.81071">
        <ele>53.016</ele>
        <time>2020-07-07T16:45:04.000Z</time>
      </trkpt>
      <trkpt lat="43.61414" lon="3.81068">
        <ele>53.116</ele>
        <time>2020-07-07T16:45:05.000Z</time>
      </trkpt>
      <trkpt lat="43.61414" lon="3.81064">
        <ele>53.216</ele>
        <time>2020-07-07T16:45:06.000Z</time>
      </trkpt>
      <trkpt lat="43.61413" lon="3.8106">
        <ele>53.316</ele>
        <time>2020-07-07T16:45:07.000Z</time>
      </trkpt>
      <trkpt lat="43.61412" lon="3.81057">
        <ele>53.416</ele>
        <time>2020-07-07T16:45:08.000Z</time>
      </trkpt>
      <trkpt lat="43.61409" lon="3.81053">
        <ele>53.516</ele>
        <time>2020-07-07T16:45:09.000Z</time>
      </trkpt>
      <trkpt lat="43.61406" lon="3.81049">
        <ele>53.616</ele>
        <time>2020-07-07T16:45:10.000Z</time>
      </trkpt>
      <trkpt lat="43.61403" lon="3.81045">
        <ele>53.716</ele>
        <time>2020-07-07T16:45:11.000Z</time>
      </trkpt>
      <trkpt lat="43.614" lon="3.81041">
        <ele>53.816</ele>
        <time>2020-07-07T16:45:12.000Z</time>
      </trkpt>
      <trkpt lat="43.61399" lon="3.81035">
        <ele>53.916</ele>
        <time>2020-07-07T16:45:13.000Z</time>
      </trkpt>
      <trkpt lat="43.61398" lon="3.81029">
        <ele>54</ele>
        <time>2020-07-07T16:45:14.000Z</time>
      </trkpt>
      <trkpt lat="43.61397" lon="3.81023">
        <ele>54</ele>
        <time>2020-07-07T16:45:15.000Z</time>
      </trkpt>
      <trkpt lat="43.61396" lon="3.81018">
        <ele>54</ele>
        <time>2020-07-07T16:45:16.000Z</time>
      </trkpt>
      <trkpt lat="43.61396" lon="3.81012">
        <ele>54</ele>
        <time>2020-07-07T16:45:17.000Z</time>
      </trkpt>
      <trkpt lat="43.61395" lon="3.81006">
        <ele>54</ele>
        <time>2020-07-07T16:45:18.000Z</time>
      </trkpt>
      <trkpt lat="43.61394" lon="3.81001">
        <ele>54</ele>
        <time>2020-07-07T16:45:19.000Z</time>
      </trkpt>
      <trkpt lat="43.61394" lon="3.80996">
        <ele>54</ele>
        <time>2020-07-07T16:45:20.000Z</time>
      </trkpt>
      <trkpt lat="43.61393" lon="3.80991">
        <ele>54</ele>
        <time>2020-07-07T16:45:21.000Z</time>
      </trkpt>
      <trkpt lat="43.61393" lon="3.80987">
        <ele>54</ele>
        <time>2020-07-07T16:45:22.000Z</time>
      </trkpt>
      <trkpt lat="43.61393" lon="3.80982">
        <ele>54</ele>
        <time>2020-07-07T16:45:23.000Z</time>
      </trkpt>
      <trkpt lat="43.61392" lon="3.80977">
        <ele>54.016</ele>
        <time>2020-07-07T16:45:24.000Z</time>
      </trkpt>
      <trkpt lat="43.61391" lon="3.80973">
        <ele>54.116</ele>
        <time>2020-07-07T16:45:25.000Z</time>
      </trkpt>
      <trkpt lat="43.61391" lon="3.80968">
        <ele>54.216</ele>
        <time>2020-07-07T16:45:26.000Z</time>
      </trkpt>
      <trkpt lat="43.6139" lon="3.80963">
        <ele>54.316</ele>
        <time>2020-07-07T16:45:27.000Z</time>
      </trkpt>
      <trkpt lat="43.6139" lon="3.80958">
        <ele>54.416</ele>
        <time>2020-07-07T16:45:28.000Z</time>
      </trkpt>
      <trkpt lat="43.61389" lon="3.80953">
        <ele>54.516</ele>
        <time>2020-07-07T16:45:29.000Z</time>
      </trkpt>
      <trkpt lat="43.61389" lon="3.80949">
        <ele>54.616</ele>
        <time>2020-07-07T16:45:30.000Z</time>
      </trkpt>
      <trkpt lat="43.61388" lon="3.80944">
        <ele>54.716</ele>
        <time>2020-07-07T16:45:31.000Z</time>
      </trkpt>
      <trkpt lat="43.61388" lon="3.8094">
        <ele>54.816</ele>
        <time>2020-07-07T16:45:32.000Z</time>
      </trkpt>
      <trkpt lat="43.61387" lon="3.80936">
        <ele>54.916</ele>
        <time>2020-07-07T16:45:33.000Z</time>
      </trkpt>
      <trkpt lat="43.61387" lon="3.80932">
        <ele>55.016</ele>
        <time>2020-07-07T16:45:34.000Z</time>
      </trkpt>
      <trkpt lat="43.61386" lon="3.80928">
        <ele>55.116</ele>
        <time>2020-07-07T16:45:35.000Z</time>
      </trkpt>
      <trkpt lat="43.61385" lon="3.80923">
        <ele>55.216</ele>
        <time>2020-07-07T16:45:36.000Z</time>
      </trkpt>
      <trkpt lat="43.61385" lon="3.80919">
        <ele>55.316</ele>
        <time>2020-07-07T16:45:37.000Z</time>
      </trkpt>
      <trkpt lat="43.61384" lon="3.80915">
        <ele>55.416</ele>
        <time>2020-07-07T16:45:38.000Z</time>
      </trkpt>
      <trkpt lat="43.61384" lon="3.80911">
        <ele>55.516</ele>
        <time>2020-07-07T16:45:39.000Z</time>
      </trkpt>
      <trkpt lat="43.61383" lon="3.80907">
        <ele>55.616</ele>
        <time>2020-07-07T16:45:40.000Z</time>
      </trkpt>
      <trkpt lat="43.61383" lon="3.80903">
        <ele>55.716</ele>
        <time>2020-07-07T16:45:41.000Z</time>
      </trkpt>
      <trkpt lat="43.61382" lon="3.80898">
        <ele>55.816</ele>
        <time>2020-07-07T16:45:42.000Z</time>
      </trkpt>
      <trkpt lat="43.61382" lon="3.80894">
        <ele>55.916</ele>
        <time>2020-07-07T16:45:43.000Z</time>
      </trkpt>
      <trkpt lat="43.61381" lon="3.80889">
        <ele>56.016</ele>
        <time>2020-07-07T16:45:44.000Z</time>
      </trkpt>
      <trkpt lat="43.61381" lon="3.80885">
        <ele>56.116</ele>
        <time>2020-07-07T16:45:45.000Z</time>
      </trkpt>
      <trkpt lat="43.61381" lon="3.80881">
        <ele>56.216</ele>
        <time>2020-07-07T16:45:46.000Z</time>
      </trkpt>
      <trkpt lat="43.61381" lon="3.80876">
        <ele>56.316</ele>
        <time>2020-07-07T16:45:47.000Z</time>
      </trkpt>
      <trkpt lat="43.6138" lon="3.80872">
        <ele>56.416</ele>
        <time>2020-07-07T16:45:48.000Z</time>
      </trkpt>
      <trkpt lat="43.6138" lon="3.80868">
        <ele>56.516</ele>
        <time>2020-07-07T16:45:49.000Z</time>
      </trkpt>
      <trkpt lat="43.6138" lon="3.80863">
        <ele>56.616</ele>
        <time>2020-07-07T16:45:50.000Z</time>
      </trkpt>
      <trkpt lat="43.6138" lon="3.80858">
        <ele>56.716</ele>
        <time>2020-07-07T16:45:51.000Z</time>
      </trkpt>
      <trkpt lat="43.61379" lon="3.80854">
        <ele>56.816</ele>
        <time>2020-07-07T16:45:52.000Z</time>
      </trkpt>
      <trkpt lat="43.61379" lon="3.80849">
        <ele>56.916</ele>
        <time>2020-07-07T16:45:53.000Z</time>
      </trkpt>
      <trkpt lat="43.61379" lon="3.80844">
        <ele>57.015748031496</ele>
        <time>2020-07-07T16:45:54.000Z</time>
      </trkpt>
      <trkpt lat="43.61379" lon="3.80839">
        <ele>57.114173228347</ele>
        <time>2020-07-07T16:45:55.000Z</time>
      </trkpt>
      <trkpt lat="43.61379" lon="3.80834">
        <ele>57.212598425197</ele>
        <time>2020-07-07T16:45:56.000Z</time>
      </trkpt>
      <trkpt lat="43.6138" lon="3.80829">
        <ele>57.311023622047</ele>
        <time>2020-07-07T16:45:57.000Z</time>
      </trkpt>
      <trkpt lat="43.6138" lon="3.80824">
        <ele>57.409448818898</ele>
        <time>2020-07-07T16:45:58.000Z</time>
      </trkpt>
      <trkpt lat="43.61379" lon="3.80819">
        <ele>57.507874015748</ele>
        <time>2020-07-07T16:45:59.000Z</time>
      </trkpt>
      <trkpt lat="43.61379" lon="3.80813">
        <ele>57.606299212598</ele>
        <time>2020-07-07T16:46:00.000Z</time>
      </trkpt>
      <trkpt lat="43.61379" lon="3.80808">
        <ele>57.704724409449</ele>
        <time>2020-07-07T16:46:01.000Z</time>
      </trkpt>
      <trkpt lat="43.61379" lon="3.80803">
        <ele>57.803149606299</ele>
        <time>2020-07-07T16:46:02.000Z</time>
      </trkpt>
      <trkpt lat="43.61378" lon="3.80798">
        <ele>57.90157480315</ele>
        <time>2020-07-07T16:46:03.000Z</time>
      </trkpt>
      <trkpt lat="43.61378" lon="3.80792">
        <ele>58</ele>
        <time>2020-07-07T16:46:04.000Z</time>
      </trkpt>
      <trkpt lat="43.61378" lon="3.80787">
        <ele>58.10162601626</ele>
        <time>2020-07-07T16:46:05.000Z</time>
      </trkpt>
      <trkpt lat="43.61378" lon="3.80781">
        <ele>58.20325203252</ele>
        <time>2020-07-07T16:46:06.000Z</time>
      </trkpt>
      <trkpt lat="43.61378" lon="3.80776">
        <ele>58.304878048781</ele>
        <time>2020-07-07T16:46:07.000Z</time>
      </trkpt>
      <trkpt lat="43.61379" lon="3.80771">
        <ele>58.406504065041</ele>
        <time>2020-07-07T16:46:08.000Z</time>
      </trkpt>
      <trkpt lat="43.61379" lon="3.80765">
        <ele>58.508130081301</ele>
        <time>2020-07-07T16:46:09.000Z</time>
      </trkpt>
      <trkpt lat="43.61379" lon="3.8076">
        <ele>58.609756097561</ele>
        <time>2020-07-07T16:46:10.000Z</time>
      </trkpt>
      <trkpt lat="43.61379" lon="3.80755">
        <ele>58.711382113821</ele>
        <time>2020-07-07T16:46:11.000Z</time>
      </trkpt>
      <trkpt lat="43.6138" lon="3.8075">
        <ele>58.813008130081</ele>
        <time>2020-07-07T16:46:12.000Z</time>
      </trkpt>
      <trkpt lat="43.6138" lon="3.80745">
        <ele>58.914634146341</ele>
        <time>2020-07-07T16:46:13.000Z</time>
      </trkpt>
      <trkpt lat="43.61381" lon="3.80739">
        <ele>59</ele>
        <time>2020-07-07T16:46:14.000Z</time>
      </trkpt>
      <trkpt lat="43.61381" lon="3.80734">
        <ele>59</ele>
        <time>2020-07-07T16:46:15.000Z</time>
      </trkpt>
      <trkpt lat="43.61382" lon="3.80729">
        <ele>59</ele>
        <time>2020-07-07T16:46:16.000Z</time>
      </trkpt>
      <trkpt lat="43.61382" lon="3.80724">
        <ele>59</ele>
        <time>2020-07-07T16:46:17.000Z</time>
      </trkpt>
      <trkpt lat="43.61383" lon="3.80718">
        <ele>59</ele>
        <time>2020-07-07T16:46:18.000Z</time>
      </trkpt>
      <trkpt lat="43.61383" lon="3.80713">
        <ele>59</ele>
        <time>2020-07-07T16:46:19.000Z</time>
      </trkpt>
      <trkpt lat="43.61384" lon="3.80708">
        <ele>59</ele>
        <time>2020-07-07T16:46:20.000Z</time>
      </trkpt>
      <trkpt lat="43.61385" lon="3.80703">
        <ele>59</ele>
        <time>2020-07-07T16:46:21.000Z</time>
      </trkpt>
      <trkpt lat="43.61386" lon="3.80697">
        <ele>59</ele>
        <time>2020-07-07T16:46:22.000Z</time>
      </trkpt>
      <trkpt lat="43.61386" lon="3.80692">
        <ele>59</ele>
        <time>2020-07-07T16:46:23.000Z</time>
      </trkpt>
      <trkpt lat="43.61387" lon="3.80686">
        <ele>59.016</ele>
        <time>2020-07-07T16:46:24.000Z</time>
      </trkpt>
      <trkpt lat="43.61388" lon="3.80681">
        <ele>59.116</ele>
        <time>2020-07-07T16:46:25.000Z</time>
      </trkpt>
      <trkpt lat="43.61388" lon="3.80675">
        <ele>59.216</ele>
        <time>2020-07-07T16:46:26.000Z</time>
      </trkpt>
      <trkpt lat="43.61388" lon="3.8067">
        <ele>59.316</ele>
        <time>2020-07-07T16:46:27.000Z</time>
      </trkpt>
      <trkpt lat="43.61389" lon="3.80664">
        <ele>59.416</ele>
        <time>2020-07-07T16:46:28.000Z</time>
      </trkpt>
      <trkpt lat="43.61389" lon="3.80658">
        <ele>59.516</ele>
        <time>2020-07-07T16:46:29.000Z</time>
      </trkpt>
      <trkpt lat="43.61389" lon="3.80653">
        <ele>59.616</ele>
        <time>2020-07-07T16:46:30.000Z</time>
      </trkpt>
      <trkpt lat="43.6139" lon="3.80648">
        <ele>59.716</ele>
        <time>2020-07-07T16:46:31.000Z</time>
      </trkpt>
      <trkpt lat="43.6139" lon="3.80642">
        <ele>59.816</ele>
        <time>2020-07-07T16:46:32.000Z</time>
      </trkpt>
      <trkpt lat="43.6139" lon="3.80637">
        <ele>59.916</ele>
        <time>2020-07-07T16:46:33.000Z</time>
      </trkpt>
      <trkpt lat="43.61391" lon="3.80632">
        <ele>60.016</ele>
        <time>2020-07-07T16:46:34.000Z</time>
      </trkpt>
      <trkpt lat="43.61393" lon="3.80628">
        <ele>60.116</ele>
        <time>2020-07-07T16:46:35.000Z</time>
      </trkpt>
      <trkpt lat="43.61394" lon="3.80623">
        <ele>60.216</ele>
        <time>2020-07-07T16:46:36.000Z</time>
      </trkpt>
      <trkpt lat="43.61395" lon="3.80618">
        <ele>60.316</ele>
        <time>2020-07-07T16:46:37.000Z</time>
      </trkpt>
      <trkpt lat="43.61397" lon="3.80613">
        <ele>60.416</ele>
        <time>2020-07-07T16:46:38.000Z</time>
      </trkpt>
      <trkpt lat="43.61397" lon="3.80608">
        <ele>60.516</ele>
        <time>2020-07-07T16:46:39.000Z</time>
      </trkpt>
      <trkpt lat="43.61397" lon="3.80603">
        <ele>60.616</ele>
        <time>2020-07-07T16:46:40.000Z</time>
      </trkpt>
      <trkpt lat="43.61396" lon="3.80597">
        <ele>60.716</ele>
        <time>2020-07-07T16:46:41.000Z</time>
      </trkpt>
      <trkpt lat="43.61395" lon="3.80592">
        <ele>60.816</ele>
        <time>2020-07-07T16:46:42.000Z</time>
      </trkpt>
      <trkpt lat="43.61395" lon="3.80587">
        <ele>60.916</ele>
        <time>2020-07-07T16:46:43.000Z</time>
      </trkpt>
      <trkpt lat="43.61395" lon="3.80581">
        <ele>61.015503875969</ele>
        <time>2020-07-07T16:46:44.000Z</time>
      </trkpt>
      <trkpt lat="43.61395" lon="3.80576">
        <ele>61.112403100775</ele>
        <time>2020-07-07T16:46:45.000Z</time>
      </trkpt>
      <trkpt lat="43.61395" lon="3.80571">
        <ele>61.209302325581</ele>
        <time>2020-07-07T16:46:46.000Z</time>
      </trkpt>
      <trkpt lat="43.61396" lon="3.80566">
        <ele>61.306201550388</ele>
        <time>2020-07-07T16:46:47.000Z</time>
      </trkpt>
      <trkpt lat="43.61398" lon="3.80561">
        <ele>61.403100775194</ele>
        <time>2020-07-07T16:46:48.000Z</time>
      </trkpt>
      <trkpt lat="43.61399" lon="3.80557">
        <ele>61.5</ele>
        <time>2020-07-07T16:46:49.000Z</time>
      </trkpt>
      <trkpt lat="43.61399" lon="3.80552">
        <ele>61.596899224806</ele>
        <time>2020-07-07T16:46:50.000Z</time>
      </trkpt>
      <trkpt lat="43.614" lon="3.80547">
        <ele>61.693798449612</ele>
        <time>2020-07-07T16:46:51.000Z</time>
      </trkpt>
      <trkpt lat="43.614" lon="3.80542">
        <ele>61.790697674419</ele>
        <time>2020-07-07T16:46:52.000Z</time>
      </trkpt>
      <trkpt lat="43.614" lon="3.80538">
        <ele>61.887596899225</ele>
        <time>2020-07-07T16:46:53.000Z</time>
      </trkpt>
      <trkpt lat="43.614" lon="3.80533">
        <ele>61.984496124031</ele>
        <time>2020-07-07T16:46:54.000Z</time>
      </trkpt>
      <trkpt lat="43.61401" lon="3.80529">
        <ele>62.086776859504</ele>
        <time>2020-07-07T16:46:55.000Z</time>
      </trkpt>
      <trkpt lat="43.61402" lon="3.80524">
        <ele>62.190082644628</ele>
        <time>2020-07-07T16:46:56.000Z</time>
      </trkpt>
      <trkpt lat="43.61402" lon="3.8052">
        <ele>62.293388429752</ele>
        <time>2020-07-07T16:46:57.000Z</time>
      </trkpt>
      <trkpt lat="43.61402" lon="3.80515">
        <ele>62.396694214876</ele>
        <time>2020-07-07T16:46:58.000Z</time>
      </trkpt>
      <trkpt lat="43.61403" lon="3.8051">
        <ele>62.5</ele>
        <time>2020-07-07T16:46:59.000Z</time>
      </trkpt>
      <trkpt lat="43.61403" lon="3.80505">
        <ele>62.603305785124</ele>
        <time>2020-07-07T16:47:00.000Z</time>
      </trkpt>
      <trkpt lat="43.61404" lon="3.805">
        <ele>62.706611570248</ele>
        <time>2020-07-07T16:47:01.000Z</time>
      </trkpt>
      <trkpt lat="43.61404" lon="3.80495">
        <ele>62.809917355372</ele>
        <time>2020-07-07T16:47:02.000Z</time>
      </trkpt>
      <trkpt lat="43.61404" lon="3.8049">
        <ele>62.913223140496</ele>
        <time>2020-07-07T16:47:03.000Z</time>
      </trkpt>
      <trkpt lat="43.61405" lon="3.80484">
        <ele>63.016</ele>
        <time>2020-07-07T16:47:04.000Z</time>
      </trkpt>
      <trkpt lat="43.61405" lon="3.80479">
        <ele>63.116</ele>
        <time>2020-07-07T16:47:05.000Z</time>
      </trkpt>
      <trkpt lat="43.61405" lon="3.80474">
        <ele>63.216</ele>
        <time>2020-07-07T16:47:06.000Z</time>
      </trkpt>
      <trkpt lat="43.61405" lon="3.80469">
        <ele>63.316</ele>
        <time>2020-07-07T16:47:07.000Z</time>
      </trkpt>
      <trkpt lat="43.61406" lon="3.80464">
        <ele>63.416</ele>
        <time>2020-07-07T16:47:08.000Z</time>
      </trkpt>
      <trkpt lat="43.61406" lon="3.80459">
        <ele>63.516</ele>
        <time>2020-07-07T16:47:09.000Z</time>
      </trkpt>
      <trkpt lat="43.61406" lon="3.80454">
        <ele>63.616</ele>
        <time>2020-07-07T16:47:10.000Z</time>
      </trkpt>
      <trkpt lat="43.61405" lon="3.80449">
        <ele>63.716</ele>
        <time>2020-07-07T16:47:11.000Z</time>
      </trkpt>
      <trkpt lat="43.61405" lon="3.80445">
        <ele>63.816</ele>
        <time>2020-07-07T16:47:12.000Z</time>
      </trkpt>
      <trkpt lat="43.61405" lon="3.8044">
        <ele>63.916</ele>
        <time>2020-07-07T16:47:13.000Z</time>
      </trkpt>
      <trkpt lat="43.61405" lon="3.80436">
        <ele>64.016</ele>
        <time>2020-07-07T16:47:14.000Z</time>
      </trkpt>
      <trkpt lat="43.61405" lon="3.80431">
        <ele>64.116</ele>
        <time>2020-07-07T16:47:15.000Z</time>
      </trkpt>
      <trkpt lat="43.61406" lon="3.80426">
        <ele>64.216</ele>
        <time>2020-07-07T16:47:16.000Z</time>
      </trkpt>
      <trkpt lat="43.61406" lon="3.80422">
        <ele>64.316</ele>
        <time>2020-07-07T16:47:17.000Z</time>
      </trkpt>
      <trkpt lat="43.61406" lon="3.80417">
        <ele>64.416</ele>
        <time>2020-07-07T16:47:18.000Z</time>
      </trkpt>
      <trkpt lat="43.61407" lon="3.80412">
        <ele>64.516</ele>
        <time>2020-07-07T16:47:19.000Z</time>
      </trkpt>
      <trkpt lat="43.61407" lon="3.80407">
        <ele>64.616</ele>
        <time>2020-07-07T16:47:20.000Z</time>
      </trkpt>
      <trkpt lat="43.61408" lon="3.80402">
        <ele>64.716</ele>
        <time>2020-07-07T16:47:21.000Z</time>
      </trkpt>
      <trkpt lat="43.61408" lon="3.80398">
        <ele>64.816</ele>
        <time>2020-07-07T16:47:22.000Z</time>
      </trkpt>
      <trkpt lat="43.61409" lon="3.80393">
        <ele>64.916</ele>
        <time>2020-07-07T16:47:23.000Z</time>
      </trkpt>
      <trkpt lat="43.61409" lon="3.80388">
        <ele>65.032</ele>
        <time>2020-07-07T16:47:24.000Z</time>
      </trkpt>
      <trkpt lat="43.61409" lon="3.80382">
        <ele>65.232</ele>
        <time>2020-07-07T16:47:25.000Z</time>
      </trkpt>
      <trkpt lat="43.61409" lon="3.80378">
        <ele>65.432</ele>
        <time>2020-07-07T16:47:26.000Z</time>
      </trkpt>
      <trkpt lat="43.61409" lon="3.80372">
        <ele>65.632</ele>
        <time>2020-07-07T16:47:27.000Z</time>
      </trkpt>
      <trkpt lat="43.61409" lon="3.80367">
        <ele>65.832</ele>
        <time>2020-07-07T16:47:28.000Z</time>
      </trkpt>
      <trkpt lat="43.6141" lon="3.80362">
        <ele>66.032</ele>
        <time>2020-07-07T16:47:29.000Z</time>
      </trkpt>
      <trkpt lat="43.61411" lon="3.80357">
        <ele>66.232</ele>
        <time>2020-07-07T16:47:30.000Z</time>
      </trkpt>
      <trkpt lat="43.61411" lon="3.80353">
        <ele>66.432</ele>
        <time>2020-07-07T16:47:31.000Z</time>
      </trkpt>
      <trkpt lat="43.61412" lon="3.80348">
        <ele>66.632</ele>
        <time>2020-07-07T16:47:32.000Z</time>
      </trkpt>
      <trkpt lat="43.61412" lon="3.80343">
        <ele>66.832</ele>
        <time>2020-07-07T16:47:33.000Z</time>
      </trkpt>
      <trkpt lat="43.61412" lon="3.80338">
        <ele>67.016</ele>
        <time>2020-07-07T16:47:34.000Z</time>
      </trkpt>
      <trkpt lat="43.61412" lon="3.80334">
        <ele>67.116</ele>
        <time>2020-07-07T16:47:35.000Z</time>
      </trkpt>
      <trkpt lat="43.61412" lon="3.80329">
        <ele>67.216</ele>
        <time>2020-07-07T16:47:36.000Z</time>
      </trkpt>
      <trkpt lat="43.61412" lon="3.80325">
        <ele>67.316</ele>
        <time>2020-07-07T16:47:37.000Z</time>
      </trkpt>
      <trkpt lat="43.61413" lon="3.8032">
        <ele>67.416</ele>
        <time>2020-07-07T16:47:38.000Z</time>
      </trkpt>
      <trkpt lat="43.61413" lon="3.80315">
        <ele>67.516</ele>
        <time>2020-07-07T16:47:39.000Z</time>
      </trkpt>
      <trkpt lat="43.61413" lon="3.8031">
        <ele>67.616</ele>
        <time>2020-07-07T16:47:40.000Z</time>
      </trkpt>
      <trkpt lat="43.61414" lon="3.80306">
        <ele>67.716</ele>
        <time>2020-07-07T16:47:41.000Z</time>
      </trkpt>
      <trkpt lat="43.61415" lon="3.80301">
        <ele>67.816</ele>
        <time>2020-07-07T16:47:42.000Z</time>
      </trkpt>
      <trkpt lat="43.61416" lon="3.80296">
        <ele>67.916</ele>
        <time>2020-07-07T16:47:43.000Z</time>
      </trkpt>
      <trkpt lat="43.61416" lon="3.80291">
        <ele>68.015564202335</ele>
        <time>2020-07-07T16:47:44.000Z</time>
      </trkpt>
      <trkpt lat="43.61417" lon="3.80286">
        <ele>68.112840466926</ele>
        <time>2020-07-07T16:47:45.000Z</time>
      </trkpt>
      <trkpt lat="43.61417" lon="3.80281">
        <ele>68.210116731518</ele>
        <time>2020-07-07T16:47:46.000Z</time>
      </trkpt>
      <trkpt lat="43.61417" lon="3.80276">
        <ele>68.307392996109</ele>
        <time>2020-07-07T16:47:47.000Z</time>
      </trkpt>
      <trkpt lat="43.61417" lon="3.80271">
        <ele>68.4046692607</ele>
        <time>2020-07-07T16:47:48.000Z</time>
      </trkpt>
      <trkpt lat="43.61417" lon="3.80266">
        <ele>68.501945525292</ele>
        <time>2020-07-07T16:47:49.000Z</time>
      </trkpt>
      <trkpt lat="43.61417" lon="3.80261">
        <ele>68.599221789883</ele>
        <time>2020-07-07T16:47:50.000Z</time>
      </trkpt>
      <trkpt lat="43.61418" lon="3.80257">
        <ele>68.696498054475</ele>
        <time>2020-07-07T16:47:51.000Z</time>
      </trkpt>
      <trkpt lat="43.61419" lon="3.80252">
        <ele>68.793774319066</ele>
        <time>2020-07-07T16:47:52.000Z</time>
      </trkpt>
      <trkpt lat="43.6142" lon="3.80248">
        <ele>68.891050583658</ele>
        <time>2020-07-07T16:47:53.000Z</time>
      </trkpt>
      <trkpt lat="43.61421" lon="3.80244">
        <ele>68.988326848249</ele>
        <time>2020-07-07T16:47:54.000Z</time>
      </trkpt>
      <trkpt lat="43.61422" lon="3.80239">
        <ele>69.090534979424</ele>
        <time>2020-07-07T16:47:55.000Z</time>
      </trkpt>
      <trkpt lat="43.61422" lon="3.80235">
        <ele>69.19341563786</ele>
        <time>2020-07-07T16:47:56.000Z</time>
      </trkpt>
      <trkpt lat="43.61423" lon="3.80231">
        <ele>69.296296296296</ele>
        <time>2020-07-07T16:47:57.000Z</time>
      </trkpt>
      <trkpt lat="43.61424" lon="3.80227">
        <ele>69.399176954732</ele>
        <time>2020-07-07T16:47:58.000Z</time>
      </trkpt>
      <trkpt lat="43.61424" lon="3.80223">
        <ele>69.502057613169</ele>
        <time>2020-07-07T16:47:59.000Z</time>
      </trkpt>
      <trkpt lat="43.61425" lon="3.80219">
        <ele>69.604938271605</ele>
        <time>2020-07-07T16:48:00.000Z</time>
      </trkpt>
      <trkpt lat="43.61426" lon="3.80215">
        <ele>69.707818930041</ele>
        <time>2020-07-07T16:48:01.000Z</time>
      </trkpt>
      <trkpt lat="43.61426" lon="3.80211">
        <ele>69.810699588477</ele>
        <time>2020-07-07T16:48:02.000Z</time>
      </trkpt>
      <trkpt lat="43.61427" lon="3.80207">
        <ele>69.913580246914</ele>
        <time>2020-07-07T16:48:03.000Z</time>
      </trkpt>
      <trkpt lat="43.61428" lon="3.80203">
        <ele>70.015609760971</ele>
        <time>2020-07-07T16:48:04.000Z</time>
      </trkpt>
      <trkpt lat="43.61428" lon="3.80199">
        <ele>70.113170767039</ele>
        <time>2020-07-07T16:48:05.000Z</time>
      </trkpt>
      <trkpt lat="43.61429" lon="3.80194">
        <ele>70.210731773107</ele>
        <time>2020-07-07T16:48:06.000Z</time>
      </trkpt>
      <trkpt lat="43.6143" lon="3.80189">
        <ele>70.308292779174</ele>
        <time>2020-07-07T16:48:07.000Z</time>
      </trkpt>
      <trkpt lat="43.6143" lon="3.80185">
        <ele>70.405853785242</ele>
        <time>2020-07-07T16:48:08.000Z</time>
      </trkpt>
      <trkpt lat="43.61431" lon="3.8018">
        <ele>70.50341479131</ele>
        <time>2020-07-07T16:48:09.000Z</time>
      </trkpt>
      <trkpt lat="43.61432" lon="3.80176">
        <ele>70.600975797378</ele>
        <time>2020-07-07T16:48:10.000Z</time>
      </trkpt>
      <trkpt lat="43.61434" lon="3.80171">
        <ele>70.698536803446</ele>
        <time>2020-07-07T16:48:11.000Z</time>
      </trkpt>
      <trkpt lat="43.61435" lon="3.80167">
        <ele>70.796097809513</ele>
        <time>2020-07-07T16:48:12.000Z</time>
      </trkpt>
      <trkpt lat="43.61436" lon="3.80163">
        <ele>70.893658815581</ele>
        <time>2020-07-07T16:48:13.000Z</time>
      </trkpt>
      <trkpt lat="43.61437" lon="3.80159">
        <ele>70.991219821649</ele>
        <time>2020-07-07T16:48:14.000Z</time>
      </trkpt>
      <trkpt lat="43.61438" lon="3.80155">
        <ele>71</ele>
        <time>2020-07-07T16:48:15.000Z</time>
      </trkpt>
      <trkpt lat="43.61439" lon="3.80151">
        <ele>71</ele>
        <time>2020-07-07T16:48:16.000Z</time>
      </trkpt>
      <trkpt lat="43.61439" lon="3.80147">
        <ele>71</ele>
        <time>2020-07-07T16:48:17.000Z</time>
      </trkpt>
      <trkpt lat="43.6144" lon="3.80142">
        <ele>71</ele>
        <time>2020-07-07T16:48:18.000Z</time>
      </trkpt>
      <trkpt lat="43.61441" lon="3.80138">
        <ele>71</ele>
        <time>2020-07-07T16:48:19.000Z</time>
      </trkpt>
      <trkpt lat="43.61442" lon="3.80133">
        <ele>71</ele>
        <time>2020-07-07T16:48:20.000Z</time>
      </trkpt>
      <trkpt lat="43.61443" lon="3.80129">
        <ele>71</ele>
        <time>2020-07-07T16:48:21.000Z</time>
      </trkpt>
      <trkpt lat="43.61444" lon="3.80125">
        <ele>71</ele>
        <time>2020-07-07T16:48:22.000Z</time>
      </trkpt>
      <trkpt lat="43.61446" lon="3.80121">
        <ele>71</ele>
        <time>2020-07-07T16:48:23.000Z</time>
      </trkpt>
      <trkpt lat="43.61447" lon="3.80117">
        <ele>71.016</ele>
        <time>2020-07-07T16:48:24.000Z</time>
      </trkpt>
      <trkpt lat="43.61448" lon="3.80113">
        <ele>71.116</ele>
        <time>2020-07-07T16:48:25.000Z</time>
      </trkpt>
      <trkpt lat="43.61449" lon="3.80109">
        <ele>71.216</ele>
        <time>2020-07-07T16:48:26.000Z</time>
      </trkpt>
      <trkpt lat="43.61451" lon="3.80106">
        <ele>71.316</ele>
        <time>2020-07-07T16:48:27.000Z</time>
      </trkpt>
      <trkpt lat="43.61451" lon="3.80102">
        <ele>71.416</ele>
        <time>2020-07-07T16:48:28.000Z</time>
      </trkpt>
      <trkpt lat="43.61452" lon="3.80098">
        <ele>71.516</ele>
        <time>2020-07-07T16:48:29.000Z</time>
      </trkpt>
      <trkpt lat="43.61453" lon="3.80094">
        <ele>71.616</ele>
        <time>2020-07-07T16:48:30.000Z</time>
      </trkpt>
      <trkpt lat="43.61453" lon="3.80091">
        <ele>71.716</ele>
        <time>2020-07-07T16:48:31.000Z</time>
      </trkpt>
      <trkpt lat="43.61454" lon="3.80087">
        <ele>71.816</ele>
        <time>2020-07-07T16:48:32.000Z</time>
      </trkpt>
      <trkpt lat="43.61455" lon="3.80083">
        <ele>71.916</ele>
        <time>2020-07-07T16:48:33.000Z</time>
      </trkpt>
      <trkpt lat="43.61457" lon="3.80081">
        <ele>71.984</ele>
        <time>2020-07-07T16:48:34.000Z</time>
      </trkpt>
      <trkpt lat="43.61459" lon="3.80079">
        <ele>71.884</ele>
        <time>2020-07-07T16:48:35.000Z</time>
      </trkpt>
      <trkpt lat="43.61461" lon="3.80077">
        <ele>71.784</ele>
        <time>2020-07-07T16:48:36.000Z</time>
      </trkpt>
      <trkpt lat="43.61464" lon="3.80076">
        <ele>71.684</ele>
        <time>2020-07-07T16:48:37.000Z</time>
      </trkpt>
      <trkpt lat="43.61466" lon="3.80074">
        <ele>71.584</ele>
        <time>2020-07-07T16:48:38.000Z</time>
      </trkpt>
      <trkpt lat="43.61469" lon="3.80073">
        <ele>71.484</ele>
        <time>2020-07-07T16:48:39.000Z</time>
      </trkpt>
      <trkpt lat="43.61471" lon="3.80071">
        <ele>71.384</ele>
        <time>2020-07-07T16:48:40.000Z</time>
      </trkpt>
      <trkpt lat="43.61473" lon="3.80068">
        <ele>71.284</ele>
        <time>2020-07-07T16:48:41.000Z</time>
      </trkpt>
      <trkpt lat="43.61474" lon="3.80063">
        <ele>71.184</ele>
        <time>2020-07-07T16:48:42.000Z</time>
      </trkpt>
      <trkpt lat="43.61473" lon="3.80059">
        <ele>71.084</ele>
        <time>2020-07-07T16:48:43.000Z</time>
      </trkpt>
      <trkpt lat="43.61471" lon="3.80055">
        <ele>70.984</ele>
        <time>2020-07-07T16:48:44.000Z</time>
      </trkpt>
      <trkpt lat="43.61469" lon="3.8005">
        <ele>70.884</ele>
        <time>2020-07-07T16:48:45.000Z</time>
      </trkpt>
      <trkpt lat="43.61468" lon="3.80046">
        <ele>70.784</ele>
        <time>2020-07-07T16:48:46.000Z</time>
      </trkpt>
      <trkpt lat="43.61465" lon="3.80042">
        <ele>70.684</ele>
        <time>2020-07-07T16:48:47.000Z</time>
      </trkpt>
      <trkpt lat="43.61463" lon="3.80038">
        <ele>70.584</ele>
        <time>2020-07-07T16:48:48.000Z</time>
      </trkpt>
      <trkpt lat="43.61461" lon="3.80034">
        <ele>70.484</ele>
        <time>2020-07-07T16:48:49.000Z</time>
      </trkpt>
      <trkpt lat="43.61457" lon="3.80031">
        <ele>70.384</ele>
        <time>2020-07-07T16:48:50.000Z</time>
      </trkpt>
      <trkpt lat="43.61454" lon="3.80029">
        <ele>70.284</ele>
        <time>2020-07-07T16:48:51.000Z</time>
      </trkpt>
      <trkpt lat="43.61451" lon="3.80029">
        <ele>70.184</ele>
        <time>2020-07-07T16:48:52.000Z</time>
      </trkpt>
      <trkpt lat="43.61448" lon="3.80027">
        <ele>70.084</ele>
        <time>2020-07-07T16:48:53.000Z</time>
      </trkpt>
      <trkpt lat="43.61446" lon="3.80025">
        <ele>69.937984496124</ele>
        <time>2020-07-07T16:48:54.000Z</time>
      </trkpt>
      <trkpt lat="43.61443" lon="3.80022">
        <ele>69.550387596899</ele>
        <time>2020-07-07T16:48:55.000Z</time>
      </trkpt>
      <trkpt lat="43.61441" lon="3.80019">
        <ele>69.162790697674</ele>
        <time>2020-07-07T16:48:56.000Z</time>
      </trkpt>
      <trkpt lat="43.61439" lon="3.80013">
        <ele>68.77519379845</ele>
        <time>2020-07-07T16:48:57.000Z</time>
      </trkpt>
      <trkpt lat="43.61437" lon="3.80007">
        <ele>68.387596899225</ele>
        <time>2020-07-07T16:48:58.000Z</time>
      </trkpt>
      <trkpt lat="43.61435" lon="3.8">
        <ele>68</ele>
        <time>2020-07-07T16:48:59.000Z</time>
      </trkpt>
      <trkpt lat="43.61433" lon="3.79992">
        <ele>67.612403100775</ele>
        <time>2020-07-07T16:49:00.000Z</time>
      </trkpt>
      <trkpt lat="43.61431" lon="3.79984">
        <ele>67.22480620155</ele>
        <time>2020-07-07T16:49:01.000Z</time>
      </trkpt>
      <trkpt lat="43.61428" lon="3.79975">
        <ele>66.837209302326</ele>
        <time>2020-07-07T16:49:02.000Z</time>
      </trkpt>
      <trkpt lat="43.61424" lon="3.79967">
        <ele>66.449612403101</ele>
        <time>2020-07-07T16:49:03.000Z</time>
      </trkpt>
      <trkpt lat="43.6142" lon="3.79959">
        <ele>66.062015503876</ele>
        <time>2020-07-07T16:49:04.000Z</time>
      </trkpt>
      <trkpt lat="43.61417" lon="3.79951">
        <ele>66.086776859504</ele>
        <time>2020-07-07T16:49:05.000Z</time>
      </trkpt>
      <trkpt lat="43.61413" lon="3.79943">
        <ele>66.190082644628</ele>
        <time>2020-07-07T16:49:06.000Z</time>
      </trkpt>
      <trkpt lat="43.6141" lon="3.79934">
        <ele>66.293388429752</ele>
        <time>2020-07-07T16:49:07.000Z</time>
      </trkpt>
      <trkpt lat="43.61407" lon="3.79927">
        <ele>66.396694214876</ele>
        <time>2020-07-07T16:49:08.000Z</time>
      </trkpt>
      <trkpt lat="43.61404" lon="3.7992">
        <ele>66.5</ele>
        <time>2020-07-07T16:49:09.000Z</time>
      </trkpt>
      <trkpt lat="43.614" lon="3.79915">
        <ele>66.603305785124</ele>
        <time>2020-07-07T16:49:10.000Z</time>
      </trkpt>
      <trkpt lat="43.61396" lon="3.79909">
        <ele>66.706611570248</ele>
        <time>2020-07-07T16:49:11.000Z</time>
      </trkpt>
      <trkpt lat="43.61393" lon="3.79903">
        <ele>66.809917355372</ele>
        <time>2020-07-07T16:49:12.000Z</time>
      </trkpt>
      <trkpt lat="43.6139" lon="3.79898">
        <ele>66.913223140496</ele>
        <time>2020-07-07T16:49:13.000Z</time>
      </trkpt>
      <trkpt lat="43.61387" lon="3.79894">
        <ele>67</ele>
        <time>2020-07-07T16:49:14.000Z</time>
      </trkpt>
      <trkpt lat="43.61385" lon="3.7989">
        <ele>67</ele>
        <time>2020-07-07T16:49:15.000Z</time>
      </trkpt>
      <trkpt lat="43.61382" lon="3.79886">
        <ele>67</ele>
        <time>2020-07-07T16:49:16.000Z</time>
      </trkpt>
      <trkpt lat="43.6138" lon="3.79881">
        <ele>67</ele>
        <time>2020-07-07T16:49:17.000Z</time>
      </trkpt>
      <trkpt lat="43.6138" lon="3.79876">
        <ele>67</ele>
        <time>2020-07-07T16:49:18.000Z</time>
      </trkpt>
      <trkpt lat="43.6138" lon="3.79871">
        <ele>67</ele>
        <time>2020-07-07T16:49:19.000Z</time>
      </trkpt>
      <trkpt lat="43.61381" lon="3.79865">
        <ele>67</ele>
        <time>2020-07-07T16:49:20.000Z</time>
      </trkpt>
      <trkpt lat="43.61383" lon="3.79859">
        <ele>67</ele>
        <time>2020-07-07T16:49:21.000Z</time>
      </trkpt>
      <trkpt lat="43.61385" lon="3.79854">
        <ele>67</ele>
        <time>2020-07-07T16:49:22.000Z</time>
      </trkpt>
      <trkpt lat="43.61387" lon="3.79848">
        <ele>67</ele>
        <time>2020-07-07T16:49:23.000Z</time>
      </trkpt>
      <trkpt lat="43.61389" lon="3.79842">
        <ele>67</ele>
        <time>2020-07-07T16:49:24.000Z</time>
      </trkpt>
      <trkpt lat="43.6139" lon="3.79836">
        <ele>66.829830524979</ele>
        <time>2020-07-07T16:49:25.000Z</time>
      </trkpt>
      <trkpt lat="43.61391" lon="3.79829">
        <ele>66.629630388907</ele>
        <time>2020-07-07T16:49:26.000Z</time>
      </trkpt>
      <trkpt lat="43.61391" lon="3.79823">
        <ele>66.429430252835</ele>
        <time>2020-07-07T16:49:27.000Z</time>
      </trkpt>
      <trkpt lat="43.61392" lon="3.79816">
        <ele>66.229230116763</ele>
        <time>2020-07-07T16:49:28.000Z</time>
      </trkpt>
      <trkpt lat="43.61393" lon="3.7981">
        <ele>66.029029980691</ele>
        <time>2020-07-07T16:49:29.000Z</time>
      </trkpt>
      <trkpt lat="43.61394" lon="3.79803">
        <ele>65.828829844619</ele>
        <time>2020-07-07T16:49:30.000Z</time>
      </trkpt>
      <trkpt lat="43.61395" lon="3.79797">
        <ele>65.628629708547</ele>
        <time>2020-07-07T16:49:31.000Z</time>
      </trkpt>
      <trkpt lat="43.61397" lon="3.7979">
        <ele>65.428429572475</ele>
        <time>2020-07-07T16:49:32.000Z</time>
      </trkpt>
      <trkpt lat="43.61398" lon="3.79784">
        <ele>65.228229436403</ele>
        <time>2020-07-07T16:49:33.000Z</time>
      </trkpt>
      <trkpt lat="43.614" lon="3.79777">
        <ele>65.028029300331</ele>
        <time>2020-07-07T16:49:34.000Z</time>
      </trkpt>
      <trkpt lat="43.61402" lon="3.79771">
        <ele>64.913481473469</ele>
        <time>2020-07-07T16:49:35.000Z</time>
      </trkpt>
      <trkpt lat="43.61404" lon="3.79765">
        <ele>64.812877786964</ele>
        <time>2020-07-07T16:49:36.000Z</time>
      </trkpt>
      <trkpt lat="43.61406" lon="3.79759">
        <ele>64.712274100458</ele>
        <time>2020-07-07T16:49:37.000Z</time>
      </trkpt>
      <trkpt lat="43.61408" lon="3.79753">
        <ele>64.611670413953</ele>
        <time>2020-07-07T16:49:38.000Z</time>
      </trkpt>
      <trkpt lat="43.61409" lon="3.79748">
        <ele>64.511066727447</ele>
        <time>2020-07-07T16:49:39.000Z</time>
      </trkpt>
      <trkpt lat="43.61411" lon="3.79742">
        <ele>64.410463040942</ele>
        <time>2020-07-07T16:49:40.000Z</time>
      </trkpt>
      <trkpt lat="43.61413" lon="3.79736">
        <ele>64.309859354437</ele>
        <time>2020-07-07T16:49:41.000Z</time>
      </trkpt>
      <trkpt lat="43.61414" lon="3.7973">
        <ele>64.209255667931</ele>
        <time>2020-07-07T16:49:42.000Z</time>
      </trkpt>
      <trkpt lat="43.61416" lon="3.79724">
        <ele>64.108651981426</ele>
        <time>2020-07-07T16:49:43.000Z</time>
      </trkpt>
      <trkpt lat="43.61417" lon="3.79718">
        <ele>64.00804829492</ele>
        <time>2020-07-07T16:49:44.000Z</time>
      </trkpt>
      <trkpt lat="43.61419" lon="3.79712">
        <ele>63.905737704918</ele>
        <time>2020-07-07T16:49:45.000Z</time>
      </trkpt>
      <trkpt lat="43.61421" lon="3.79706">
        <ele>63.803278688525</ele>
        <time>2020-07-07T16:49:46.000Z</time>
      </trkpt>
      <trkpt lat="43.61423" lon="3.797">
        <ele>63.700819672131</ele>
        <time>2020-07-07T16:49:47.000Z</time>
      </trkpt>
      <trkpt lat="43.61425" lon="3.79693">
        <ele>63.598360655738</ele>
        <time>2020-07-07T16:49:48.000Z</time>
      </trkpt>
      <trkpt lat="43.61427" lon="3.79687">
        <ele>63.495901639344</ele>
        <time>2020-07-07T16:49:49.000Z</time>
      </trkpt>
      <trkpt lat="43.61429" lon="3.7968">
        <ele>63.393442622951</ele>
        <time>2020-07-07T16:49:50.000Z</time>
      </trkpt>
      <trkpt lat="43.61431" lon="3.79673">
        <ele>63.290983606557</ele>
        <time>2020-07-07T16:49:51.000Z</time>
      </trkpt>
      <trkpt lat="43.61433" lon="3.79667">
        <ele>63.188524590164</ele>
        <time>2020-07-07T16:49:52.000Z</time>
      </trkpt>
      <trkpt lat="43.61435" lon="3.7966">
        <ele>63.08606557377</ele>
        <time>2020-07-07T16:49:53.000Z</time>
      </trkpt>
      <trkpt lat="43.61437" lon="3.79654">
        <ele>62.953307392996</ele>
        <time>2020-07-07T16:49:54.000Z</time>
      </trkpt>
      <trkpt lat="43.61439" lon="3.79647">
        <ele>62.661478599222</ele>
        <time>2020-07-07T16:49:55.000Z</time>
      </trkpt>
      <trkpt lat="43.61441" lon="3.79641">
        <ele>62.369649805448</ele>
        <time>2020-07-07T16:49:56.000Z</time>
      </trkpt>
      <trkpt lat="43.61443" lon="3.79635">
        <ele>62.077821011673</ele>
        <time>2020-07-07T16:49:57.000Z</time>
      </trkpt>
      <trkpt lat="43.61444" lon="3.79627">
        <ele>61.785992217899</ele>
        <time>2020-07-07T16:49:58.000Z</time>
      </trkpt>
      <trkpt lat="43.61444" lon="3.7962">
        <ele>61.494163424125</ele>
        <time>2020-07-07T16:49:59.000Z</time>
      </trkpt>
      <trkpt lat="43.61446" lon="3.79613">
        <ele>61.20233463035</ele>
        <time>2020-07-07T16:50:00.000Z</time>
      </trkpt>
      <trkpt lat="43.61447" lon="3.79605">
        <ele>60.910505836576</ele>
        <time>2020-07-07T16:50:01.000Z</time>
      </trkpt>
      <trkpt lat="43.61448" lon="3.79598">
        <ele>60.618677042802</ele>
        <time>2020-07-07T16:50:02.000Z</time>
      </trkpt>
      <trkpt lat="43.61449" lon="3.79591">
        <ele>60.326848249027</ele>
        <time>2020-07-07T16:50:03.000Z</time>
      </trkpt>
      <trkpt lat="43.6145" lon="3.79584">
        <ele>60.035019455253</ele>
        <time>2020-07-07T16:50:04.000Z</time>
      </trkpt>
      <trkpt lat="43.6145" lon="3.79577">
        <ele>59.912263238361</ele>
        <time>2020-07-07T16:50:05.000Z</time>
      </trkpt>
      <trkpt lat="43.61451" lon="3.7957">
        <ele>59.812562372861</ele>
        <time>2020-07-07T16:50:06.000Z</time>
      </trkpt>
      <trkpt lat="43.61451" lon="3.79563">
        <ele>59.712861507362</ele>
        <time>2020-07-07T16:50:07.000Z</time>
      </trkpt>
      <trkpt lat="43.61452" lon="3.79556">
        <ele>59.613160641863</ele>
        <time>2020-07-07T16:50:08.000Z</time>
      </trkpt>
      <trkpt lat="43.61452" lon="3.79549">
        <ele>59.513459776364</ele>
        <time>2020-07-07T16:50:09.000Z</time>
      </trkpt>
      <trkpt lat="43.61451" lon="3.79542">
        <ele>59.413758910865</ele>
        <time>2020-07-07T16:50:10.000Z</time>
      </trkpt>
      <trkpt lat="43.61452" lon="3.79535">
        <ele>59.314058045365</ele>
        <time>2020-07-07T16:50:11.000Z</time>
      </trkpt>
      <trkpt lat="43.61452" lon="3.79528">
        <ele>59.214357179866</ele>
        <time>2020-07-07T16:50:12.000Z</time>
      </trkpt>
      <trkpt lat="43.61452" lon="3.79521">
        <ele>59.114656314367</ele>
        <time>2020-07-07T16:50:13.000Z</time>
      </trkpt>
      <trkpt lat="43.61453" lon="3.79515">
        <ele>59.014955448868</ele>
        <time>2020-07-07T16:50:14.000Z</time>
      </trkpt>
      <trkpt lat="43.61454" lon="3.79508">
        <ele>58.912281003024</ele>
        <time>2020-07-07T16:50:15.000Z</time>
      </trkpt>
      <trkpt lat="43.61454" lon="3.79502">
        <ele>58.809081794537</ele>
        <time>2020-07-07T16:50:16.000Z</time>
      </trkpt>
      <trkpt lat="43.61455" lon="3.79496">
        <ele>58.70588258605</ele>
        <time>2020-07-07T16:50:17.000Z</time>
      </trkpt>
      <trkpt lat="43.61455" lon="3.7949">
        <ele>58.602683377563</ele>
        <time>2020-07-07T16:50:18.000Z</time>
      </trkpt>
      <trkpt lat="43.61456" lon="3.79484">
        <ele>58.499484169076</ele>
        <time>2020-07-07T16:50:19.000Z</time>
      </trkpt>
      <trkpt lat="43.61456" lon="3.79478">
        <ele>58.396284960589</ele>
        <time>2020-07-07T16:50:20.000Z</time>
      </trkpt>
      <trkpt lat="43.61456" lon="3.79472">
        <ele>58.293085752103</ele>
        <time>2020-07-07T16:50:21.000Z</time>
      </trkpt>
      <trkpt lat="43.61457" lon="3.79466">
        <ele>58.189886543616</ele>
        <time>2020-07-07T16:50:22.000Z</time>
      </trkpt>
      <trkpt lat="43.61458" lon="3.7946">
        <ele>58.086687335129</ele>
        <time>2020-07-07T16:50:23.000Z</time>
      </trkpt>
      <trkpt lat="43.61458" lon="3.79454">
        <ele>58</ele>
        <time>2020-07-07T16:50:24.000Z</time>
      </trkpt>
      <trkpt lat="43.61459" lon="3.79449">
        <ele>58</ele>
        <time>2020-07-07T16:50:25.000Z</time>
      </trkpt>
      <trkpt lat="43.61459" lon="3.79443">
        <ele>58</ele>
        <time>2020-07-07T16:50:26.000Z</time>
      </trkpt>
      <trkpt lat="43.6146" lon="3.79437">
        <ele>58</ele>
        <time>2020-07-07T16:50:27.000Z</time>
      </trkpt>
      <trkpt lat="43.61461" lon="3.79431">
        <ele>58</ele>
        <time>2020-07-07T16:50:28.000Z</time>
      </trkpt>
      <trkpt lat="43.61462" lon="3.79426">
        <ele>58</ele>
        <time>2020-07-07T16:50:29.000Z</time>
      </trkpt>
      <trkpt lat="43.61462" lon="3.7942">
        <ele>58</ele>
        <time>2020-07-07T16:50:30.000Z</time>
      </trkpt>
      <trkpt lat="43.61463" lon="3.79414">
        <ele>58</ele>
        <time>2020-07-07T16:50:31.000Z</time>
      </trkpt>
      <trkpt lat="43.61464" lon="3.79408">
        <ele>58</ele>
        <time>2020-07-07T16:50:32.000Z</time>
      </trkpt>
      <trkpt lat="43.61465" lon="3.79403">
        <ele>58</ele>
        <time>2020-07-07T16:50:33.000Z</time>
      </trkpt>
      <trkpt lat="43.61467" lon="3.79397">
        <ele>58</ele>
        <time>2020-07-07T16:50:34.000Z</time>
      </trkpt>
      <trkpt lat="43.61468" lon="3.79391">
        <ele>58</ele>
        <time>2020-07-07T16:50:35.000Z</time>
      </trkpt>
      <trkpt lat="43.6147" lon="3.79385">
        <ele>58</ele>
        <time>2020-07-07T16:50:36.000Z</time>
      </trkpt>
      <trkpt lat="43.61472" lon="3.79379">
        <ele>58</ele>
        <time>2020-07-07T16:50:37.000Z</time>
      </trkpt>
      <trkpt lat="43.61473" lon="3.79374">
        <ele>58</ele>
        <time>2020-07-07T16:50:38.000Z</time>
      </trkpt>
      <trkpt lat="43.61475" lon="3.79368">
        <ele>58</ele>
        <time>2020-07-07T16:50:39.000Z</time>
      </trkpt>
      <trkpt lat="43.61477" lon="3.79363">
        <ele>58</ele>
        <time>2020-07-07T16:50:40.000Z</time>
      </trkpt>
      <trkpt lat="43.61478" lon="3.79357">
        <ele>58</ele>
        <time>2020-07-07T16:50:41.000Z</time>
      </trkpt>
      <trkpt lat="43.6148" lon="3.79352">
        <ele>58</ele>
        <time>2020-07-07T16:50:42.000Z</time>
      </trkpt>
      <trkpt lat="43.61482" lon="3.79347">
        <ele>58</ele>
        <time>2020-07-07T16:50:43.000Z</time>
      </trkpt>
      <trkpt lat="43.61484" lon="3.79341">
        <ele>58</ele>
        <time>2020-07-07T16:50:44.000Z</time>
      </trkpt>
      <trkpt lat="43.61486" lon="3.79336">
        <ele>58</ele>
        <time>2020-07-07T16:50:45.000Z</time>
      </trkpt>
      <trkpt lat="43.61488" lon="3.79331">
        <ele>58</ele>
        <time>2020-07-07T16:50:46.000Z</time>
      </trkpt>
      <trkpt lat="43.61489" lon="3.79325">
        <ele>58</ele>
        <time>2020-07-07T16:50:47.000Z</time>
      </trkpt>
      <trkpt lat="43.61491" lon="3.7932">
        <ele>58</ele>
        <time>2020-07-07T16:50:48.000Z</time>
      </trkpt>
      <trkpt lat="43.61492" lon="3.79314">
        <ele>58</ele>
        <time>2020-07-07T16:50:49.000Z</time>
      </trkpt>
      <trkpt lat="43.61494" lon="3.79309">
        <ele>58</ele>
        <time>2020-07-07T16:50:50.000Z</time>
      </trkpt>
      <trkpt lat="43.61496" lon="3.79303">
        <ele>58</ele>
        <time>2020-07-07T16:50:51.000Z</time>
      </trkpt>
      <trkpt lat="43.61497" lon="3.79298">
        <ele>58</ele>
        <time>2020-07-07T16:50:52.000Z</time>
      </trkpt>
      <trkpt lat="43.61499" lon="3.79292">
        <ele>58</ele>
        <time>2020-07-07T16:50:53.000Z</time>
      </trkpt>
      <trkpt lat="43.61501" lon="3.79287">
        <ele>58</ele>
        <time>2020-07-07T16:50:54.000Z</time>
      </trkpt>
      <trkpt lat="43.61502" lon="3.79281">
        <ele>58</ele>
        <time>2020-07-07T16:50:55.000Z</time>
      </trkpt>
      <trkpt lat="43.61504" lon="3.79276">
        <ele>58</ele>
        <time>2020-07-07T16:50:56.000Z</time>
      </trkpt>
      <trkpt lat="43.61506" lon="3.7927">
        <ele>58</ele>
        <time>2020-07-07T16:50:57.000Z</time>
      </trkpt>
      <trkpt lat="43.61508" lon="3.79263">
        <ele>58</ele>
        <time>2020-07-07T16:50:58.000Z</time>
      </trkpt>
      <trkpt lat="43.61511" lon="3.79256">
        <ele>58</ele>
        <time>2020-07-07T16:50:59.000Z</time>
      </trkpt>
      <trkpt lat="43.61513" lon="3.79249">
        <ele>58</ele>
        <time>2020-07-07T16:51:00.000Z</time>
      </trkpt>
      <trkpt lat="43.61515" lon="3.79242">
        <ele>58</ele>
        <time>2020-07-07T16:51:01.000Z</time>
      </trkpt>
      <trkpt lat="43.61517" lon="3.79236">
        <ele>58</ele>
        <time>2020-07-07T16:51:02.000Z</time>
      </trkpt>
      <trkpt lat="43.61519" lon="3.79229">
        <ele>58</ele>
        <time>2020-07-07T16:51:03.000Z</time>
      </trkpt>
      <trkpt lat="43.6152" lon="3.79223">
        <ele>58.003039836907</ele>
        <time>2020-07-07T16:51:04.000Z</time>
      </trkpt>
      <trkpt lat="43.61522" lon="3.79217">
        <ele>58.104356926652</ele>
        <time>2020-07-07T16:51:05.000Z</time>
      </trkpt>
      <trkpt lat="43.61523" lon="3.79211">
        <ele>58.205674016398</ele>
        <time>2020-07-07T16:51:06.000Z</time>
      </trkpt>
      <trkpt lat="43.61524" lon="3.79206">
        <ele>58.306991106143</ele>
        <time>2020-07-07T16:51:07.000Z</time>
      </trkpt>
      <trkpt lat="43.61525" lon="3.79201">
        <ele>58.408308195888</ele>
        <time>2020-07-07T16:51:08.000Z</time>
      </trkpt>
      <trkpt lat="43.61525" lon="3.79196">
        <ele>58.509625285633</ele>
        <time>2020-07-07T16:51:09.000Z</time>
      </trkpt>
      <trkpt lat="43.61526" lon="3.79192">
        <ele>58.610942375378</ele>
        <time>2020-07-07T16:51:10.000Z</time>
      </trkpt>
      <trkpt lat="43.61527" lon="3.79189">
        <ele>58.712259465124</ele>
        <time>2020-07-07T16:51:11.000Z</time>
      </trkpt>
      <trkpt lat="43.61528" lon="3.79185">
        <ele>58.813576554869</ele>
        <time>2020-07-07T16:51:12.000Z</time>
      </trkpt>
      <trkpt lat="43.61529" lon="3.79181">
        <ele>58.914893644614</ele>
        <time>2020-07-07T16:51:13.000Z</time>
      </trkpt>
      <trkpt lat="43.61531" lon="3.79177">
        <ele>59</ele>
        <time>2020-07-07T16:51:14.000Z</time>
      </trkpt>
      <trkpt lat="43.61532" lon="3.79173">
        <ele>59</ele>
        <time>2020-07-07T16:51:15.000Z</time>
      </trkpt>
      <trkpt lat="43.61533" lon="3.79169">
        <ele>59</ele>
        <time>2020-07-07T16:51:16.000Z</time>
      </trkpt>
      <trkpt lat="43.61534" lon="3.79164">
        <ele>59</ele>
        <time>2020-07-07T16:51:17.000Z</time>
      </trkpt>
      <trkpt lat="43.61536" lon="3.7916">
        <ele>59</ele>
        <time>2020-07-07T16:51:18.000Z</time>
      </trkpt>
      <trkpt lat="43.61537" lon="3.79156">
        <ele>59</ele>
        <time>2020-07-07T16:51:19.000Z</time>
      </trkpt>
      <trkpt lat="43.61539" lon="3.79153">
        <ele>59</ele>
        <time>2020-07-07T16:51:20.000Z</time>
      </trkpt>
      <trkpt lat="43.61541" lon="3.7915">
        <ele>59</ele>
        <time>2020-07-07T16:51:21.000Z</time>
      </trkpt>
      <trkpt lat="43.61542" lon="3.79147">
        <ele>59</ele>
        <time>2020-07-07T16:51:22.000Z</time>
      </trkpt>
      <trkpt lat="43.61542" lon="3.79143">
        <ele>59</ele>
        <time>2020-07-07T16:51:23.000Z</time>
      </trkpt>
      <trkpt lat="43.61542" lon="3.79139">
        <ele>59.016</ele>
        <time>2020-07-07T16:51:24.000Z</time>
      </trkpt>
      <trkpt lat="43.61543" lon="3.79135">
        <ele>59.116</ele>
        <time>2020-07-07T16:51:25.000Z</time>
      </trkpt>
      <trkpt lat="43.61543" lon="3.79131">
        <ele>59.216</ele>
        <time>2020-07-07T16:51:26.000Z</time>
      </trkpt>
      <trkpt lat="43.61544" lon="3.79127">
        <ele>59.316</ele>
        <time>2020-07-07T16:51:27.000Z</time>
      </trkpt>
      <trkpt lat="43.61545" lon="3.79124">
        <ele>59.416</ele>
        <time>2020-07-07T16:51:28.000Z</time>
      </trkpt>
      <trkpt lat="43.61546" lon="3.79121">
        <ele>59.516</ele>
        <time>2020-07-07T16:51:29.000Z</time>
      </trkpt>
      <trkpt lat="43.61547" lon="3.79118">
        <ele>59.616</ele>
        <time>2020-07-07T16:51:30.000Z</time>
      </trkpt>
      <trkpt lat="43.61548" lon="3.79114">
        <ele>59.716</ele>
        <time>2020-07-07T16:51:31.000Z</time>
      </trkpt>
      <trkpt lat="43.61549" lon="3.7911">
        <ele>59.816</ele>
        <time>2020-07-07T16:51:32.000Z</time>
      </trkpt>
      <trkpt lat="43.6155" lon="3.79106">
        <ele>59.916</ele>
        <time>2020-07-07T16:51:33.000Z</time>
      </trkpt>
      <trkpt lat="43.6155" lon="3.79103">
        <ele>60</ele>
        <time>2020-07-07T16:51:34.000Z</time>
      </trkpt>
      <trkpt lat="43.61551" lon="3.79099">
        <ele>60</ele>
        <time>2020-07-07T16:51:35.000Z</time>
      </trkpt>
      <trkpt lat="43.61552" lon="3.79095">
        <ele>60</ele>
        <time>2020-07-07T16:51:36.000Z</time>
      </trkpt>
      <trkpt lat="43.61552" lon="3.79091">
        <ele>60</ele>
        <time>2020-07-07T16:51:37.000Z</time>
      </trkpt>
      <trkpt lat="43.61553" lon="3.79088">
        <ele>60</ele>
        <time>2020-07-07T16:51:38.000Z</time>
      </trkpt>
      <trkpt lat="43.61554" lon="3.79084">
        <ele>60</ele>
        <time>2020-07-07T16:51:39.000Z</time>
      </trkpt>
      <trkpt lat="43.61554" lon="3.7908">
        <ele>60</ele>
        <time>2020-07-07T16:51:40.000Z</time>
      </trkpt>
      <trkpt lat="43.61555" lon="3.79077">
        <ele>60</ele>
        <time>2020-07-07T16:51:41.000Z</time>
      </trkpt>
      <trkpt lat="43.61556" lon="3.79073">
        <ele>60</ele>
        <time>2020-07-07T16:51:42.000Z</time>
      </trkpt>
      <trkpt lat="43.61556" lon="3.79069">
        <ele>60</ele>
        <time>2020-07-07T16:51:43.000Z</time>
      </trkpt>
      <trkpt lat="43.61557" lon="3.79066">
        <ele>60.015748031496</ele>
        <time>2020-07-07T16:51:44.000Z</time>
      </trkpt>
      <trkpt lat="43.61558" lon="3.79062">
        <ele>60.114173228347</ele>
        <time>2020-07-07T16:51:45.000Z</time>
      </trkpt>
      <trkpt lat="43.61558" lon="3.79059">
        <ele>60.212598425197</ele>
        <time>2020-07-07T16:51:46.000Z</time>
      </trkpt>
      <trkpt lat="43.61559" lon="3.79056">
        <ele>60.311023622047</ele>
        <time>2020-07-07T16:51:47.000Z</time>
      </trkpt>
      <trkpt lat="43.6156" lon="3.79052">
        <ele>60.409448818898</ele>
        <time>2020-07-07T16:51:48.000Z</time>
      </trkpt>
      <trkpt lat="43.6156" lon="3.79049">
        <ele>60.507874015748</ele>
        <time>2020-07-07T16:51:49.000Z</time>
      </trkpt>
      <trkpt lat="43.61561" lon="3.79045">
        <ele>60.606299212598</ele>
        <time>2020-07-07T16:51:50.000Z</time>
      </trkpt>
      <trkpt lat="43.61562" lon="3.79042">
        <ele>60.704724409449</ele>
        <time>2020-07-07T16:51:51.000Z</time>
      </trkpt>
      <trkpt lat="43.61562" lon="3.79039">
        <ele>60.803149606299</ele>
        <time>2020-07-07T16:51:52.000Z</time>
      </trkpt>
      <trkpt lat="43.61563" lon="3.79035">
        <ele>60.90157480315</ele>
        <time>2020-07-07T16:51:53.000Z</time>
      </trkpt>
      <trkpt lat="43.61564" lon="3.79032">
        <ele>61</ele>
        <time>2020-07-07T16:51:54.000Z</time>
      </trkpt>
      <trkpt lat="43.61564" lon="3.79028">
        <ele>61.101522875622</ele>
        <time>2020-07-07T16:51:55.000Z</time>
      </trkpt>
      <trkpt lat="43.61565" lon="3.79025">
        <ele>61.203045751243</ele>
        <time>2020-07-07T16:51:56.000Z</time>
      </trkpt>
      <trkpt lat="43.61565" lon="3.79021">
        <ele>61.304568626865</ele>
        <time>2020-07-07T16:51:57.000Z</time>
      </trkpt>
      <trkpt lat="43.61565" lon="3.79018">
        <ele>61.406091502487</ele>
        <time>2020-07-07T16:51:58.000Z</time>
      </trkpt>
      <trkpt lat="43.61565" lon="3.79015">
        <ele>61.507614378108</ele>
        <time>2020-07-07T16:51:59.000Z</time>
      </trkpt>
      <trkpt lat="43.61565" lon="3.79011">
        <ele>61.60913725373</ele>
        <time>2020-07-07T16:52:00.000Z</time>
      </trkpt>
      <trkpt lat="43.61565" lon="3.79008">
        <ele>61.710660129352</ele>
        <time>2020-07-07T16:52:01.000Z</time>
      </trkpt>
      <trkpt lat="43.61565" lon="3.79004">
        <ele>61.812183004973</ele>
        <time>2020-07-07T16:52:02.000Z</time>
      </trkpt>
      <trkpt lat="43.61565" lon="3.79">
        <ele>61.913705880595</ele>
        <time>2020-07-07T16:52:03.000Z</time>
      </trkpt>
      <trkpt lat="43.61565" lon="3.78997">
        <ele>62</ele>
        <time>2020-07-07T16:52:04.000Z</time>
      </trkpt>
      <trkpt lat="43.61565" lon="3.78993">
        <ele>62</ele>
        <time>2020-07-07T16:52:05.000Z</time>
      </trkpt>
      <trkpt lat="43.61565" lon="3.78988">
        <ele>62</ele>
        <time>2020-07-07T16:52:06.000Z</time>
      </trkpt>
      <trkpt lat="43.61565" lon="3.78984">
        <ele>62</ele>
        <time>2020-07-07T16:52:07.000Z</time>
      </trkpt>
      <trkpt lat="43.61564" lon="3.7898">
        <ele>62</ele>
        <time>2020-07-07T16:52:08.000Z</time>
      </trkpt>
      <trkpt lat="43.61564" lon="3.78976">
        <ele>62</ele>
        <time>2020-07-07T16:52:09.000Z</time>
      </trkpt>
      <trkpt lat="43.61564" lon="3.78972">
        <ele>62</ele>
        <time>2020-07-07T16:52:10.000Z</time>
      </trkpt>
      <trkpt lat="43.61564" lon="3.78968">
        <ele>62</ele>
        <time>2020-07-07T16:52:11.000Z</time>
      </trkpt>
      <trkpt lat="43.61563" lon="3.78964">
        <ele>62</ele>
        <time>2020-07-07T16:52:12.000Z</time>
      </trkpt>
      <trkpt lat="43.61563" lon="3.78959">
        <ele>62</ele>
        <time>2020-07-07T16:52:13.000Z</time>
      </trkpt>
      <trkpt lat="43.61563" lon="3.78955">
        <ele>62</ele>
        <time>2020-07-07T16:52:14.000Z</time>
      </trkpt>
      <trkpt lat="43.61563" lon="3.7895">
        <ele>62</ele>
        <time>2020-07-07T16:52:15.000Z</time>
      </trkpt>
      <trkpt lat="43.61563" lon="3.78946">
        <ele>62</ele>
        <time>2020-07-07T16:52:16.000Z</time>
      </trkpt>
      <trkpt lat="43.61562" lon="3.78942">
        <ele>62</ele>
        <time>2020-07-07T16:52:17.000Z</time>
      </trkpt>
      <trkpt lat="43.61561" lon="3.78939">
        <ele>62</ele>
        <time>2020-07-07T16:52:18.000Z</time>
      </trkpt>
      <trkpt lat="43.61559" lon="3.78936">
        <ele>62</ele>
        <time>2020-07-07T16:52:19.000Z</time>
      </trkpt>
      <trkpt lat="43.61558" lon="3.78934">
        <ele>62</ele>
        <time>2020-07-07T16:52:20.000Z</time>
      </trkpt>
      <trkpt lat="43.61557" lon="3.7893">
        <ele>62</ele>
        <time>2020-07-07T16:52:21.000Z</time>
      </trkpt>
      <trkpt lat="43.61556" lon="3.78927">
        <ele>62</ele>
        <time>2020-07-07T16:52:22.000Z</time>
      </trkpt>
      <trkpt lat="43.61556" lon="3.78924">
        <ele>62</ele>
        <time>2020-07-07T16:52:23.000Z</time>
      </trkpt>
      <trkpt lat="43.61556" lon="3.78921">
        <ele>62</ele>
        <time>2020-07-07T16:52:24.000Z</time>
      </trkpt>
      <trkpt lat="43.61557" lon="3.78918">
        <ele>62</ele>
        <time>2020-07-07T16:52:25.000Z</time>
      </trkpt>
      <trkpt lat="43.61558" lon="3.78915">
        <ele>62</ele>
        <time>2020-07-07T16:52:26.000Z</time>
      </trkpt>
      <trkpt lat="43.61558" lon="3.78912">
        <ele>62</ele>
        <time>2020-07-07T16:52:27.000Z</time>
      </trkpt>
      <trkpt lat="43.61557" lon="3.78909">
        <ele>62</ele>
        <time>2020-07-07T16:52:28.000Z</time>
      </trkpt>
      <trkpt lat="43.61557" lon="3.78906">
        <ele>62</ele>
        <time>2020-07-07T16:52:29.000Z</time>
      </trkpt>
      <trkpt lat="43.61555" lon="3.78903">
        <ele>62</ele>
        <time>2020-07-07T16:52:30.000Z</time>
      </trkpt>
      <trkpt lat="43.61554" lon="3.789">
        <ele>62</ele>
        <time>2020-07-07T16:52:31.000Z</time>
      </trkpt>
      <trkpt lat="43.61552" lon="3.78897">
        <ele>62</ele>
        <time>2020-07-07T16:52:32.000Z</time>
      </trkpt>
      <trkpt lat="43.61551" lon="3.78893">
        <ele>62</ele>
        <time>2020-07-07T16:52:33.000Z</time>
      </trkpt>
      <trkpt lat="43.6155" lon="3.7889">
        <ele>62</ele>
        <time>2020-07-07T16:52:34.000Z</time>
      </trkpt>
      <trkpt lat="43.61549" lon="3.78886">
        <ele>62</ele>
        <time>2020-07-07T16:52:35.000Z</time>
      </trkpt>
      <trkpt lat="43.61548" lon="3.78883">
        <ele>62</ele>
        <time>2020-07-07T16:52:36.000Z</time>
      </trkpt>
      <trkpt lat="43.61548" lon="3.78879">
        <ele>62</ele>
        <time>2020-07-07T16:52:37.000Z</time>
      </trkpt>
      <trkpt lat="43.61547" lon="3.78875">
        <ele>62</ele>
        <time>2020-07-07T16:52:38.000Z</time>
      </trkpt>
      <trkpt lat="43.61547" lon="3.78871">
        <ele>62</ele>
        <time>2020-07-07T16:52:39.000Z</time>
      </trkpt>
      <trkpt lat="43.61547" lon="3.78867">
        <ele>62</ele>
        <time>2020-07-07T16:52:40.000Z</time>
      </trkpt>
      <trkpt lat="43.61546" lon="3.78864">
        <ele>62</ele>
        <time>2020-07-07T16:52:41.000Z</time>
      </trkpt>
      <trkpt lat="43.61546" lon="3.7886">
        <ele>62</ele>
        <time>2020-07-07T16:52:42.000Z</time>
      </trkpt>
      <trkpt lat="43.61546" lon="3.78856">
        <ele>62</ele>
        <time>2020-07-07T16:52:43.000Z</time>
      </trkpt>
      <trkpt lat="43.61546" lon="3.78852">
        <ele>62.016</ele>
        <time>2020-07-07T16:52:44.000Z</time>
      </trkpt>
      <trkpt lat="43.61546" lon="3.78849">
        <ele>62.116</ele>
        <time>2020-07-07T16:52:45.000Z</time>
      </trkpt>
      <trkpt lat="43.61545" lon="3.78845">
        <ele>62.216</ele>
        <time>2020-07-07T16:52:46.000Z</time>
      </trkpt>
      <trkpt lat="43.61545" lon="3.78841">
        <ele>62.316</ele>
        <time>2020-07-07T16:52:47.000Z</time>
      </trkpt>
      <trkpt lat="43.61545" lon="3.78837">
        <ele>62.416</ele>
        <time>2020-07-07T16:52:48.000Z</time>
      </trkpt>
      <trkpt lat="43.61545" lon="3.78833">
        <ele>62.516</ele>
        <time>2020-07-07T16:52:49.000Z</time>
      </trkpt>
      <trkpt lat="43.61545" lon="3.78829">
        <ele>62.616</ele>
        <time>2020-07-07T16:52:50.000Z</time>
      </trkpt>
      <trkpt lat="43.61545" lon="3.78824">
        <ele>62.716</ele>
        <time>2020-07-07T16:52:51.000Z</time>
      </trkpt>
      <trkpt lat="43.61545" lon="3.7882">
        <ele>62.816</ele>
        <time>2020-07-07T16:52:52.000Z</time>
      </trkpt>
      <trkpt lat="43.61545" lon="3.78816">
        <ele>62.916</ele>
        <time>2020-07-07T16:52:53.000Z</time>
      </trkpt>
      <trkpt lat="43.61545" lon="3.78812">
        <ele>63</ele>
        <time>2020-07-07T16:52:54.000Z</time>
      </trkpt>
      <trkpt lat="43.61546" lon="3.78808">
        <ele>63</ele>
        <time>2020-07-07T16:52:55.000Z</time>
      </trkpt>
      <trkpt lat="43.61547" lon="3.78805">
        <ele>63</ele>
        <time>2020-07-07T16:52:56.000Z</time>
      </trkpt>
      <trkpt lat="43.61548" lon="3.78802">
        <ele>63</ele>
        <time>2020-07-07T16:52:57.000Z</time>
      </trkpt>
      <trkpt lat="43.6155" lon="3.78799">
        <ele>63</ele>
        <time>2020-07-07T16:52:58.000Z</time>
      </trkpt>
      <trkpt lat="43.61551" lon="3.78797">
        <ele>63</ele>
        <time>2020-07-07T16:52:59.000Z</time>
      </trkpt>
      <trkpt lat="43.61553" lon="3.78794">
        <ele>63</ele>
        <time>2020-07-07T16:53:00.000Z</time>
      </trkpt>
      <trkpt lat="43.61554" lon="3.78792">
        <ele>63</ele>
        <time>2020-07-07T16:53:01.000Z</time>
      </trkpt>
      <trkpt lat="43.61556" lon="3.7879">
        <ele>63</ele>
        <time>2020-07-07T16:53:02.000Z</time>
      </trkpt>
      <trkpt lat="43.61557" lon="3.78787">
        <ele>63</ele>
        <time>2020-07-07T16:53:03.000Z</time>
      </trkpt>
      <trkpt lat="43.61558" lon="3.78785">
        <ele>63.016</ele>
        <time>2020-07-07T16:53:04.000Z</time>
      </trkpt>
      <trkpt lat="43.6156" lon="3.78782">
        <ele>63.116</ele>
        <time>2020-07-07T16:53:05.000Z</time>
      </trkpt>
      <trkpt lat="43.61561" lon="3.7878">
        <ele>63.216</ele>
        <time>2020-07-07T16:53:06.000Z</time>
      </trkpt>
      <trkpt lat="43.61562" lon="3.78777">
        <ele>63.316</ele>
        <time>2020-07-07T16:53:07.000Z</time>
      </trkpt>
      <trkpt lat="43.61564" lon="3.78774">
        <ele>63.416</ele>
        <time>2020-07-07T16:53:08.000Z</time>
      </trkpt>
      <trkpt lat="43.61566" lon="3.78771">
        <ele>63.516</ele>
        <time>2020-07-07T16:53:09.000Z</time>
      </trkpt>
      <trkpt lat="43.61567" lon="3.78768">
        <ele>63.616</ele>
        <time>2020-07-07T16:53:10.000Z</time>
      </trkpt>
      <trkpt lat="43.61569" lon="3.78764">
        <ele>63.716</ele>
        <time>2020-07-07T16:53:11.000Z</time>
      </trkpt>
      <trkpt lat="43.6157" lon="3.78761">
        <ele>63.816</ele>
        <time>2020-07-07T16:53:12.000Z</time>
      </trkpt>
      <trkpt lat="43.61571" lon="3.78758">
        <ele>63.916</ele>
        <time>2020-07-07T16:53:13.000Z</time>
      </trkpt>
      <trkpt lat="43.61573" lon="3.78756">
        <ele>64</ele>
        <time>2020-07-07T16:53:14.000Z</time>
      </trkpt>
      <trkpt lat="43.61575" lon="3.78753">
        <ele>64</ele>
        <time>2020-07-07T16:53:15.000Z</time>
      </trkpt>
      <trkpt lat="43.61577" lon="3.78751">
        <ele>64</ele>
        <time>2020-07-07T16:53:16.000Z</time>
      </trkpt>
      <trkpt lat="43.61578" lon="3.78749">
        <ele>64</ele>
        <time>2020-07-07T16:53:17.000Z</time>
      </trkpt>
      <trkpt lat="43.61579" lon="3.78747">
        <ele>64</ele>
        <time>2020-07-07T16:53:18.000Z</time>
      </trkpt>
      <trkpt lat="43.6158" lon="3.78745">
        <ele>64</ele>
        <time>2020-07-07T16:53:19.000Z</time>
      </trkpt>
      <trkpt lat="43.61582" lon="3.78743">
        <ele>64</ele>
        <time>2020-07-07T16:53:20.000Z</time>
      </trkpt>
      <trkpt lat="43.61584" lon="3.78742">
        <ele>64</ele>
        <time>2020-07-07T16:53:21.000Z</time>
      </trkpt>
      <trkpt lat="43.61586" lon="3.78741">
        <ele>64</ele>
        <time>2020-07-07T16:53:22.000Z</time>
      </trkpt>
      <trkpt lat="43.61588" lon="3.78737">
        <ele>64.016</ele>
        <time>2020-07-07T16:53:24.000Z</time>
      </trkpt>
      <trkpt lat="43.6159" lon="3.78735">
        <ele>64.116</ele>
        <time>2020-07-07T16:53:25.000Z</time>
      </trkpt>
      <trkpt lat="43.61591" lon="3.78733">
        <ele>64.216</ele>
        <time>2020-07-07T16:53:26.000Z</time>
      </trkpt>
      <trkpt lat="43.61593" lon="3.7873">
        <ele>64.316</ele>
        <time>2020-07-07T16:53:27.000Z</time>
      </trkpt>
      <trkpt lat="43.61594" lon="3.78728">
        <ele>64.416</ele>
        <time>2020-07-07T16:53:28.000Z</time>
      </trkpt>
      <trkpt lat="43.61595" lon="3.78726">
        <ele>64.516</ele>
        <time>2020-07-07T16:53:29.000Z</time>
      </trkpt>
      <trkpt lat="43.61596" lon="3.78724">
        <ele>64.616</ele>
        <time>2020-07-07T16:53:30.000Z</time>
      </trkpt>
      <trkpt lat="43.61598" lon="3.78721">
        <ele>64.716</ele>
        <time>2020-07-07T16:53:31.000Z</time>
      </trkpt>
      <trkpt lat="43.61599" lon="3.78719">
        <ele>64.816</ele>
        <time>2020-07-07T16:53:32.000Z</time>
      </trkpt>
      <trkpt lat="43.61601" lon="3.78717">
        <ele>64.916</ele>
        <time>2020-07-07T16:53:33.000Z</time>
      </trkpt>
      <trkpt lat="43.61602" lon="3.78715">
        <ele>65.016</ele>
        <time>2020-07-07T16:53:34.000Z</time>
      </trkpt>
      <trkpt lat="43.61604" lon="3.78713">
        <ele>65.116</ele>
        <time>2020-07-07T16:53:35.000Z</time>
      </trkpt>
      <trkpt lat="43.61605" lon="3.78711">
        <ele>65.216</ele>
        <time>2020-07-07T16:53:36.000Z</time>
      </trkpt>
      <trkpt lat="43.61606" lon="3.78709">
        <ele>65.316</ele>
        <time>2020-07-07T16:53:37.000Z</time>
      </trkpt>
      <trkpt lat="43.61607" lon="3.78707">
        <ele>65.416</ele>
        <time>2020-07-07T16:53:38.000Z</time>
      </trkpt>
      <trkpt lat="43.61609" lon="3.78705">
        <ele>65.516</ele>
        <time>2020-07-07T16:53:39.000Z</time>
      </trkpt>
      <trkpt lat="43.6161" lon="3.78702">
        <ele>65.616</ele>
        <time>2020-07-07T16:53:40.000Z</time>
      </trkpt>
      <trkpt lat="43.61611" lon="3.787">
        <ele>65.716</ele>
        <time>2020-07-07T16:53:41.000Z</time>
      </trkpt>
      <trkpt lat="43.61613" lon="3.78698">
        <ele>65.816</ele>
        <time>2020-07-07T16:53:42.000Z</time>
      </trkpt>
      <trkpt lat="43.61614" lon="3.78696">
        <ele>65.916</ele>
        <time>2020-07-07T16:53:43.000Z</time>
      </trkpt>
      <trkpt lat="43.61616" lon="3.78694">
        <ele>66.032</ele>
        <time>2020-07-07T16:53:44.000Z</time>
      </trkpt>
      <trkpt lat="43.61617" lon="3.78692">
        <ele>66.232</ele>
        <time>2020-07-07T16:53:45.000Z</time>
      </trkpt>
      <trkpt lat="43.61618" lon="3.78691">
        <ele>66.432</ele>
        <time>2020-07-07T16:53:46.000Z</time>
      </trkpt>
      <trkpt lat="43.6162" lon="3.78689">
        <ele>66.632</ele>
        <time>2020-07-07T16:53:47.000Z</time>
      </trkpt>
      <trkpt lat="43.61622" lon="3.78687">
        <ele>66.832</ele>
        <time>2020-07-07T16:53:48.000Z</time>
      </trkpt>
      <trkpt lat="43.61623" lon="3.78685">
        <ele>67.032</ele>
        <time>2020-07-07T16:53:49.000Z</time>
      </trkpt>
      <trkpt lat="43.61624" lon="3.78683">
        <ele>67.232</ele>
        <time>2020-07-07T16:53:50.000Z</time>
      </trkpt>
      <trkpt lat="43.61625" lon="3.78681">
        <ele>67.432</ele>
        <time>2020-07-07T16:53:51.000Z</time>
      </trkpt>
      <trkpt lat="43.61627" lon="3.78679">
        <ele>67.632</ele>
        <time>2020-07-07T16:53:52.000Z</time>
      </trkpt>
      <trkpt lat="43.61628" lon="3.78677">
        <ele>67.832</ele>
        <time>2020-07-07T16:53:53.000Z</time>
      </trkpt>
      <trkpt lat="43.61629" lon="3.78675">
        <ele>68.016</ele>
        <time>2020-07-07T16:53:54.000Z</time>
      </trkpt>
      <trkpt lat="43.61631" lon="3.78673">
        <ele>68.116</ele>
        <time>2020-07-07T16:53:55.000Z</time>
      </trkpt>
      <trkpt lat="43.61632" lon="3.78671">
        <ele>68.216</ele>
        <time>2020-07-07T16:53:56.000Z</time>
      </trkpt>
      <trkpt lat="43.61634" lon="3.78669">
        <ele>68.316</ele>
        <time>2020-07-07T16:53:57.000Z</time>
      </trkpt>
      <trkpt lat="43.61635" lon="3.78667">
        <ele>68.416</ele>
        <time>2020-07-07T16:53:58.000Z</time>
      </trkpt>
      <trkpt lat="43.61637" lon="3.78665">
        <ele>68.516</ele>
        <time>2020-07-07T16:53:59.000Z</time>
      </trkpt>
      <trkpt lat="43.61639" lon="3.78664">
        <ele>68.616</ele>
        <time>2020-07-07T16:54:00.000Z</time>
      </trkpt>
      <trkpt lat="43.6164" lon="3.78662">
        <ele>68.716</ele>
        <time>2020-07-07T16:54:01.000Z</time>
      </trkpt>
      <trkpt lat="43.61642" lon="3.78661">
        <ele>68.816</ele>
        <time>2020-07-07T16:54:02.000Z</time>
      </trkpt>
      <trkpt lat="43.61643" lon="3.78658">
        <ele>69.031128404669</ele>
        <time>2020-07-07T16:54:04.000Z</time>
      </trkpt>
      <trkpt lat="43.61643" lon="3.78654">
        <ele>69.420233463035</ele>
        <time>2020-07-07T16:54:06.000Z</time>
      </trkpt>
      <trkpt lat="43.61643" lon="3.78651">
        <ele>69.614785992218</ele>
        <time>2020-07-07T16:54:07.000Z</time>
      </trkpt>
      <trkpt lat="43.61644" lon="3.78649">
        <ele>69.809338521401</ele>
        <time>2020-07-07T16:54:08.000Z</time>
      </trkpt>
      <trkpt lat="43.61646" lon="3.78646">
        <ele>70.198443579767</ele>
        <time>2020-07-07T16:54:10.000Z</time>
      </trkpt>
      <trkpt lat="43.61647" lon="3.78644">
        <ele>70.392996108949</ele>
        <time>2020-07-07T16:54:11.000Z</time>
      </trkpt>
      <trkpt lat="43.61649" lon="3.78642">
        <ele>70.587548638132</ele>
        <time>2020-07-07T16:54:12.000Z</time>
      </trkpt>
      <trkpt lat="43.6165" lon="3.78641">
        <ele>70.782101167315</ele>
        <time>2020-07-07T16:54:13.000Z</time>
      </trkpt>
      <trkpt lat="43.61652" lon="3.78639">
        <ele>70.976653696498</ele>
        <time>2020-07-07T16:54:14.000Z</time>
      </trkpt>
      <trkpt lat="43.61653" lon="3.78637">
        <ele>71.090534979424</ele>
        <time>2020-07-07T16:54:15.000Z</time>
      </trkpt>
      <trkpt lat="43.61655" lon="3.78635">
        <ele>71.19341563786</ele>
        <time>2020-07-07T16:54:16.000Z</time>
      </trkpt>
      <trkpt lat="43.61656" lon="3.78633">
        <ele>71.296296296296</ele>
        <time>2020-07-07T16:54:17.000Z</time>
      </trkpt>
      <trkpt lat="43.61657" lon="3.78631">
        <ele>71.399176954732</ele>
        <time>2020-07-07T16:54:18.000Z</time>
      </trkpt>
      <trkpt lat="43.61659" lon="3.78629">
        <ele>71.502057613169</ele>
        <time>2020-07-07T16:54:19.000Z</time>
      </trkpt>
      <trkpt lat="43.6166" lon="3.78627">
        <ele>71.604938271605</ele>
        <time>2020-07-07T16:54:20.000Z</time>
      </trkpt>
      <trkpt lat="43.61661" lon="3.78626">
        <ele>71.707818930041</ele>
        <time>2020-07-07T16:54:21.000Z</time>
      </trkpt>
      <trkpt lat="43.61663" lon="3.78624">
        <ele>71.810699588477</ele>
        <time>2020-07-07T16:54:22.000Z</time>
      </trkpt>
      <trkpt lat="43.61664" lon="3.78622">
        <ele>71.913580246914</ele>
        <time>2020-07-07T16:54:23.000Z</time>
      </trkpt>
      <trkpt lat="43.61666" lon="3.7862">
        <ele>72.032</ele>
        <time>2020-07-07T16:54:24.000Z</time>
      </trkpt>
      <trkpt lat="43.61667" lon="3.78618">
        <ele>72.232</ele>
        <time>2020-07-07T16:54:25.000Z</time>
      </trkpt>
      <trkpt lat="43.61668" lon="3.78616">
        <ele>72.432</ele>
        <time>2020-07-07T16:54:26.000Z</time>
      </trkpt>
      <trkpt lat="43.61669" lon="3.78614">
        <ele>72.632</ele>
        <time>2020-07-07T16:54:27.000Z</time>
      </trkpt>
      <trkpt lat="43.6167" lon="3.78612">
        <ele>72.832</ele>
        <time>2020-07-07T16:54:28.000Z</time>
      </trkpt>
      <trkpt lat="43.61673" lon="3.78609">
        <ele>73.232</ele>
        <time>2020-07-07T16:54:30.000Z</time>
      </trkpt>
      <trkpt lat="43.61674" lon="3.78605">
        <ele>73.632</ele>
        <time>2020-07-07T16:54:32.000Z</time>
      </trkpt>
      <trkpt lat="43.61676" lon="3.78602">
        <ele>74.032</ele>
        <time>2020-07-07T16:54:34.000Z</time>
      </trkpt>
      <trkpt lat="43.61678" lon="3.78598">
        <ele>74.432</ele>
        <time>2020-07-07T16:54:36.000Z</time>
      </trkpt>
      <trkpt lat="43.61679" lon="3.78594">
        <ele>74.832</ele>
        <time>2020-07-07T16:54:38.000Z</time>
      </trkpt>
      <trkpt lat="43.61681" lon="3.7859">
        <ele>75.232</ele>
        <time>2020-07-07T16:54:40.000Z</time>
      </trkpt>
      <trkpt lat="43.61682" lon="3.78587">
        <ele>75.432</ele>
        <time>2020-07-07T16:54:41.000Z</time>
      </trkpt>
      <trkpt lat="43.61683" lon="3.78585">
        <ele>75.632</ele>
        <time>2020-07-07T16:54:42.000Z</time>
      </trkpt>
      <trkpt lat="43.61684" lon="3.78583">
        <ele>75.832</ele>
        <time>2020-07-07T16:54:43.000Z</time>
      </trkpt>
      <trkpt lat="43.61685" lon="3.78581">
        <ele>76.016</ele>
        <time>2020-07-07T16:54:44.000Z</time>
      </trkpt>
      <trkpt lat="43.61687" lon="3.78579">
        <ele>76.116</ele>
        <time>2020-07-07T16:54:45.000Z</time>
      </trkpt>
      <trkpt lat="43.61688" lon="3.78577">
        <ele>76.216</ele>
        <time>2020-07-07T16:54:46.000Z</time>
      </trkpt>
      <trkpt lat="43.61689" lon="3.78575">
        <ele>76.316</ele>
        <time>2020-07-07T16:54:47.000Z</time>
      </trkpt>
      <trkpt lat="43.6169" lon="3.78573">
        <ele>76.416</ele>
        <time>2020-07-07T16:54:48.000Z</time>
      </trkpt>
      <trkpt lat="43.61691" lon="3.78571">
        <ele>76.516</ele>
        <time>2020-07-07T16:54:49.000Z</time>
      </trkpt>
      <trkpt lat="43.61692" lon="3.78569">
        <ele>76.616</ele>
        <time>2020-07-07T16:54:50.000Z</time>
      </trkpt>
      <trkpt lat="43.61693" lon="3.78566">
        <ele>76.716</ele>
        <time>2020-07-07T16:54:51.000Z</time>
      </trkpt>
      <trkpt lat="43.61694" lon="3.78564">
        <ele>76.816</ele>
        <time>2020-07-07T16:54:52.000Z</time>
      </trkpt>
      <trkpt lat="43.61695" lon="3.78562">
        <ele>76.916</ele>
        <time>2020-07-07T16:54:53.000Z</time>
      </trkpt>
      <trkpt lat="43.61696" lon="3.7856">
        <ele>77.032</ele>
        <time>2020-07-07T16:54:54.000Z</time>
      </trkpt>
      <trkpt lat="43.61697" lon="3.78558">
        <ele>77.232</ele>
        <time>2020-07-07T16:54:55.000Z</time>
      </trkpt>
      <trkpt lat="43.61699" lon="3.78554">
        <ele>77.632</ele>
        <time>2020-07-07T16:54:57.000Z</time>
      </trkpt>
      <trkpt lat="43.61701" lon="3.7855">
        <ele>78.032</ele>
        <time>2020-07-07T16:54:59.000Z</time>
      </trkpt>
      <trkpt lat="43.61703" lon="3.78546">
        <ele>78.432</ele>
        <time>2020-07-07T16:55:01.000Z</time>
      </trkpt>
      <trkpt lat="43.61705" lon="3.78542">
        <ele>78.832</ele>
        <time>2020-07-07T16:55:03.000Z</time>
      </trkpt>
      <trkpt lat="43.61707" lon="3.78538">
        <ele>79.232</ele>
        <time>2020-07-07T16:55:05.000Z</time>
      </trkpt>
      <trkpt lat="43.61709" lon="3.78535">
        <ele>79.632</ele>
        <time>2020-07-07T16:55:07.000Z</time>
      </trkpt>
      <trkpt lat="43.61711" lon="3.78531">
        <ele>80.032</ele>
        <time>2020-07-07T16:55:09.000Z</time>
      </trkpt>
      <trkpt lat="43.61713" lon="3.78527">
        <ele>80.432</ele>
        <time>2020-07-07T16:55:11.000Z</time>
      </trkpt>
      <trkpt lat="43.61714" lon="3.78522">
        <ele>80.832</ele>
        <time>2020-07-07T16:55:13.000Z</time>
      </trkpt>
      <trkpt lat="43.61715" lon="3.78518">
        <ele>81.11588415293</ele>
        <time>2020-07-07T16:55:15.000Z</time>
      </trkpt>
      <trkpt lat="43.61716" lon="3.78514">
        <ele>81.315684416602</ele>
        <time>2020-07-07T16:55:17.000Z</time>
      </trkpt>
      <trkpt lat="43.61717" lon="3.78509">
        <ele>81.515484680275</ele>
        <time>2020-07-07T16:55:19.000Z</time>
      </trkpt>
      <trkpt lat="43.61719" lon="3.78505">
        <ele>81.715284943947</ele>
        <time>2020-07-07T16:55:21.000Z</time>
      </trkpt>
      <trkpt lat="43.61719" lon="3.78502">
        <ele>81.815185075783</ele>
        <time>2020-07-07T16:55:22.000Z</time>
      </trkpt>
      <trkpt lat="43.6172" lon="3.785">
        <ele>81.91508520762</ele>
        <time>2020-07-07T16:55:23.000Z</time>
      </trkpt>
      <trkpt lat="43.61721" lon="3.78497">
        <ele>82.015015330526</ele>
        <time>2020-07-07T16:55:24.000Z</time>
      </trkpt>
      <trkpt lat="43.61722" lon="3.78494">
        <ele>82.115115398562</ele>
        <time>2020-07-07T16:55:25.000Z</time>
      </trkpt>
      <trkpt lat="43.61722" lon="3.78492">
        <ele>82.215215466598</ele>
        <time>2020-07-07T16:55:26.000Z</time>
      </trkpt>
      <trkpt lat="43.61723" lon="3.7849">
        <ele>82.315315534634</ele>
        <time>2020-07-07T16:55:27.000Z</time>
      </trkpt>
      <trkpt lat="43.61724" lon="3.78487">
        <ele>82.41541560267</ele>
        <time>2020-07-07T16:55:28.000Z</time>
      </trkpt>
      <trkpt lat="43.61725" lon="3.78485">
        <ele>82.515515670706</ele>
        <time>2020-07-07T16:55:29.000Z</time>
      </trkpt>
      <trkpt lat="43.61725" lon="3.78483">
        <ele>82.615615738742</ele>
        <time>2020-07-07T16:55:30.000Z</time>
      </trkpt>
      <trkpt lat="43.61726" lon="3.7848">
        <ele>82.715715806778</ele>
        <time>2020-07-07T16:55:31.000Z</time>
      </trkpt>
      <trkpt lat="43.61726" lon="3.78479">
        <ele>83</ele>
        <time>2020-07-07T16:55:36.000Z</time>
      </trkpt>
      <trkpt lat="43.61728" lon="3.78468">
        <ele>83</ele>
        <time>2020-07-07T16:55:51.000Z</time>
      </trkpt>
      <trkpt lat="43.61728" lon="3.78465">
        <ele>83</ele>
        <time>2020-07-07T16:55:52.000Z</time>
      </trkpt>
      <trkpt lat="43.61728" lon="3.78461">
        <ele>83</ele>
        <time>2020-07-07T16:55:53.000Z</time>
      </trkpt>
      <trkpt lat="43.61728" lon="3.78458">
        <ele>83</ele>
        <time>2020-07-07T16:55:54.000Z</time>
      </trkpt>
      <trkpt lat="43.61728" lon="3.78454">
        <ele>83</ele>
        <time>2020-07-07T16:55:55.000Z</time>
      </trkpt>
      <trkpt lat="43.61728" lon="3.7845">
        <ele>83</ele>
        <time>2020-07-07T16:55:56.000Z</time>
      </trkpt>
      <trkpt lat="43.61728" lon="3.78446">
        <ele>83</ele>
        <time>2020-07-07T16:55:57.000Z</time>
      </trkpt>
      <trkpt lat="43.61728" lon="3.78442">
        <ele>83</ele>
        <time>2020-07-07T16:55:58.000Z</time>
      </trkpt>
      <trkpt lat="43.61728" lon="3.78438">
        <ele>83</ele>
        <time>2020-07-07T16:55:59.000Z</time>
      </trkpt>
      <trkpt lat="43.61728" lon="3.78433">
        <ele>83</ele>
        <time>2020-07-07T16:56:00.000Z</time>
      </trkpt>
      <trkpt lat="43.61728" lon="3.78429">
        <ele>83</ele>
        <time>2020-07-07T16:56:01.000Z</time>
      </trkpt>
      <trkpt lat="43.61728" lon="3.78424">
        <ele>83</ele>
        <time>2020-07-07T16:56:02.000Z</time>
      </trkpt>
      <trkpt lat="43.61727" lon="3.7842">
        <ele>83</ele>
        <time>2020-07-07T16:56:03.000Z</time>
      </trkpt>
      <trkpt lat="43.61727" lon="3.78415">
        <ele>83</ele>
        <time>2020-07-07T16:56:04.000Z</time>
      </trkpt>
      <trkpt lat="43.61726" lon="3.78411">
        <ele>83</ele>
        <time>2020-07-07T16:56:05.000Z</time>
      </trkpt>
      <trkpt lat="43.61726" lon="3.78408">
        <ele>83</ele>
        <time>2020-07-07T16:56:06.000Z</time>
      </trkpt>
      <trkpt lat="43.61726" lon="3.78408">
        <ele>83.001055083837</ele>
        <time>2020-07-07T16:56:13.000Z</time>
      </trkpt>
      <trkpt lat="43.61727" lon="3.78403">
        <ele>83.999115994069</ele>
        <time>2020-07-07T17:02:03.000Z</time>
      </trkpt>
      <trkpt lat="43.61727" lon="3.78402">
        <ele>83.997659113532</ele>
        <time>2020-07-07T17:02:07.000Z</time>
      </trkpt>
      <trkpt lat="43.61723" lon="3.78399">
        <ele>83.001543994372</ele>
        <time>2020-07-07T17:05:27.000Z</time>
      </trkpt>
      <trkpt lat="43.61723" lon="3.78396">
        <ele>82.928571428571</ele>
        <time>2020-07-07T17:05:28.000Z</time>
      </trkpt>
      <trkpt lat="43.61722" lon="3.78392">
        <ele>82.823529411765</ele>
        <time>2020-07-07T17:05:29.000Z</time>
      </trkpt>
      <trkpt lat="43.61721" lon="3.78388">
        <ele>82.718487394958</ele>
        <time>2020-07-07T17:05:30.000Z</time>
      </trkpt>
      <trkpt lat="43.61719" lon="3.78384">
        <ele>82.613445378151</ele>
        <time>2020-07-07T17:05:31.000Z</time>
      </trkpt>
      <trkpt lat="43.61718" lon="3.78379">
        <ele>82.508403361345</ele>
        <time>2020-07-07T17:05:32.000Z</time>
      </trkpt>
      <trkpt lat="43.61717" lon="3.78374">
        <ele>82.403361344538</ele>
        <time>2020-07-07T17:05:33.000Z</time>
      </trkpt>
      <trkpt lat="43.61716" lon="3.78368">
        <ele>82.298319327731</ele>
        <time>2020-07-07T17:05:34.000Z</time>
      </trkpt>
      <trkpt lat="43.61715" lon="3.78363">
        <ele>82.193277310924</ele>
        <time>2020-07-07T17:05:35.000Z</time>
      </trkpt>
      <trkpt lat="43.61715" lon="3.78357">
        <ele>82.088235294118</ele>
        <time>2020-07-07T17:05:36.000Z</time>
      </trkpt>
      <trkpt lat="43.61714" lon="3.78351">
        <ele>82.015503875969</ele>
        <time>2020-07-07T17:05:37.000Z</time>
      </trkpt>
      <trkpt lat="43.61714" lon="3.78345">
        <ele>82.112403100775</ele>
        <time>2020-07-07T17:05:38.000Z</time>
      </trkpt>
      <trkpt lat="43.61715" lon="3.78339">
        <ele>82.209302325581</ele>
        <time>2020-07-07T17:05:39.000Z</time>
      </trkpt>
      <trkpt lat="43.61715" lon="3.78335">
        <ele>82.306201550388</ele>
        <time>2020-07-07T17:05:40.000Z</time>
      </trkpt>
      <trkpt lat="43.61715" lon="3.78331">
        <ele>82.403100775194</ele>
        <time>2020-07-07T17:05:41.000Z</time>
      </trkpt>
      <trkpt lat="43.61715" lon="3.78328">
        <ele>82.5</ele>
        <time>2020-07-07T17:05:42.000Z</time>
      </trkpt>
      <trkpt lat="43.61715" lon="3.78325">
        <ele>82.596899224806</ele>
        <time>2020-07-07T17:05:43.000Z</time>
      </trkpt>
      <trkpt lat="43.61715" lon="3.7832">
        <ele>82.790697674419</ele>
        <time>2020-07-07T17:05:45.000Z</time>
      </trkpt>
      <trkpt lat="43.61716" lon="3.78318">
        <ele>82.887596899225</ele>
        <time>2020-07-07T17:05:46.000Z</time>
      </trkpt>
      <trkpt lat="43.61717" lon="3.78314">
        <ele>83.086776859504</ele>
        <time>2020-07-07T17:05:48.000Z</time>
      </trkpt>
      <trkpt lat="43.61718" lon="3.78309">
        <ele>83.293388429752</ele>
        <time>2020-07-07T17:05:50.000Z</time>
      </trkpt>
      <trkpt lat="43.61718" lon="3.78305">
        <ele>83.5</ele>
        <time>2020-07-07T17:05:52.000Z</time>
      </trkpt>
      <trkpt lat="43.61718" lon="3.78301">
        <ele>83.706611570248</ele>
        <time>2020-07-07T17:05:54.000Z</time>
      </trkpt>
      <trkpt lat="43.61719" lon="3.78297">
        <ele>83.913223140496</ele>
        <time>2020-07-07T17:05:56.000Z</time>
      </trkpt>
      <trkpt lat="43.61719" lon="3.78293">
        <ele>84.116</ele>
        <time>2020-07-07T17:05:58.000Z</time>
      </trkpt>
      <trkpt lat="43.6172" lon="3.7829">
        <ele>84.216</ele>
        <time>2020-07-07T17:05:59.000Z</time>
      </trkpt>
      <trkpt lat="43.6172" lon="3.78287">
        <ele>84.316</ele>
        <time>2020-07-07T17:06:00.000Z</time>
      </trkpt>
      <trkpt lat="43.6172" lon="3.78285">
        <ele>84.416</ele>
        <time>2020-07-07T17:06:01.000Z</time>
      </trkpt>
      <trkpt lat="43.6172" lon="3.78282">
        <ele>84.516</ele>
        <time>2020-07-07T17:06:02.000Z</time>
      </trkpt>
      <trkpt lat="43.61721" lon="3.7828">
        <ele>84.616</ele>
        <time>2020-07-07T17:06:03.000Z</time>
      </trkpt>
      <trkpt lat="43.61722" lon="3.78277">
        <ele>84.716</ele>
        <time>2020-07-07T17:06:04.000Z</time>
      </trkpt>
      <trkpt lat="43.61723" lon="3.78274">
        <ele>84.816</ele>
        <time>2020-07-07T17:06:05.000Z</time>
      </trkpt>
      <trkpt lat="43.61724" lon="3.78272">
        <ele>84.916</ele>
        <time>2020-07-07T17:06:06.000Z</time>
      </trkpt>
      <trkpt lat="43.61724" lon="3.78269">
        <ele>85.015549081609</ele>
        <time>2020-07-07T17:06:07.000Z</time>
      </trkpt>
      <trkpt lat="43.61726" lon="3.78266">
        <ele>85.112730841666</ele>
        <time>2020-07-07T17:06:08.000Z</time>
      </trkpt>
      <trkpt lat="43.61726" lon="3.78262">
        <ele>85.209912601722</ele>
        <time>2020-07-07T17:06:09.000Z</time>
      </trkpt>
      <trkpt lat="43.61727" lon="3.78259">
        <ele>85.307094361779</ele>
        <time>2020-07-07T17:06:10.000Z</time>
      </trkpt>
      <trkpt lat="43.61728" lon="3.78256">
        <ele>85.404276121835</ele>
        <time>2020-07-07T17:06:11.000Z</time>
      </trkpt>
      <trkpt lat="43.61728" lon="3.78253">
        <ele>85.501457881892</ele>
        <time>2020-07-07T17:06:12.000Z</time>
      </trkpt>
      <trkpt lat="43.61728" lon="3.7825">
        <ele>85.598639641948</ele>
        <time>2020-07-07T17:06:13.000Z</time>
      </trkpt>
      <trkpt lat="43.61728" lon="3.78247">
        <ele>85.695821402005</ele>
        <time>2020-07-07T17:06:14.000Z</time>
      </trkpt>
      <trkpt lat="43.61729" lon="3.78244">
        <ele>85.793003162061</ele>
        <time>2020-07-07T17:06:15.000Z</time>
      </trkpt>
      <trkpt lat="43.61729" lon="3.78241">
        <ele>85.890184922118</ele>
        <time>2020-07-07T17:06:16.000Z</time>
      </trkpt>
      <trkpt lat="43.6173" lon="3.78238">
        <ele>85.987366682174</ele>
        <time>2020-07-07T17:06:17.000Z</time>
      </trkpt>
      <trkpt lat="43.61731" lon="3.78235">
        <ele>86.089598652243</ele>
        <time>2020-07-07T17:06:18.000Z</time>
      </trkpt>
      <trkpt lat="43.61732" lon="3.78232">
        <ele>86.192585230044</ele>
        <time>2020-07-07T17:06:19.000Z</time>
      </trkpt>
      <trkpt lat="43.61732" lon="3.78229">
        <ele>86.295571807844</ele>
        <time>2020-07-07T17:06:20.000Z</time>
      </trkpt>
      <trkpt lat="43.61733" lon="3.78226">
        <ele>86.398558385645</ele>
        <time>2020-07-07T17:06:21.000Z</time>
      </trkpt>
      <trkpt lat="43.61734" lon="3.78222">
        <ele>86.501544963445</ele>
        <time>2020-07-07T17:06:22.000Z</time>
      </trkpt>
      <trkpt lat="43.61734" lon="3.78218">
        <ele>86.604531541246</ele>
        <time>2020-07-07T17:06:23.000Z</time>
      </trkpt>
      <trkpt lat="43.61735" lon="3.78215">
        <ele>86.707518119047</ele>
        <time>2020-07-07T17:06:24.000Z</time>
      </trkpt>
      <trkpt lat="43.61736" lon="3.78211">
        <ele>86.810504696847</ele>
        <time>2020-07-07T17:06:25.000Z</time>
      </trkpt>
      <trkpt lat="43.61737" lon="3.78208">
        <ele>86.913491274648</ele>
        <time>2020-07-07T17:06:26.000Z</time>
      </trkpt>
      <trkpt lat="43.61737" lon="3.78204">
        <ele>87</ele>
        <time>2020-07-07T17:06:27.000Z</time>
      </trkpt>
      <trkpt lat="43.61738" lon="3.782">
        <ele>87</ele>
        <time>2020-07-07T17:06:28.000Z</time>
      </trkpt>
      <trkpt lat="43.61739" lon="3.78196">
        <ele>87</ele>
        <time>2020-07-07T17:06:29.000Z</time>
      </trkpt>
      <trkpt lat="43.6174" lon="3.78192">
        <ele>87</ele>
        <time>2020-07-07T17:06:30.000Z</time>
      </trkpt>
      <trkpt lat="43.61741" lon="3.78189">
        <ele>87</ele>
        <time>2020-07-07T17:06:31.000Z</time>
      </trkpt>
      <trkpt lat="43.61741" lon="3.78185">
        <ele>87</ele>
        <time>2020-07-07T17:06:32.000Z</time>
      </trkpt>
      <trkpt lat="43.61742" lon="3.78181">
        <ele>87</ele>
        <time>2020-07-07T17:06:33.000Z</time>
      </trkpt>
      <trkpt lat="43.61743" lon="3.78178">
        <ele>87</ele>
        <time>2020-07-07T17:06:34.000Z</time>
      </trkpt>
      <trkpt lat="43.61744" lon="3.78174">
        <ele>87</ele>
        <time>2020-07-07T17:06:35.000Z</time>
      </trkpt>
      <trkpt lat="43.61745" lon="3.78171">
        <ele>87</ele>
        <time>2020-07-07T17:06:36.000Z</time>
      </trkpt>
      <trkpt lat="43.61746" lon="3.78167">
        <ele>87.016</ele>
        <time>2020-07-07T17:06:37.000Z</time>
      </trkpt>
      <trkpt lat="43.61747" lon="3.78164">
        <ele>87.116</ele>
        <time>2020-07-07T17:06:38.000Z</time>
      </trkpt>
      <trkpt lat="43.61748" lon="3.7816">
        <ele>87.216</ele>
        <time>2020-07-07T17:06:39.000Z</time>
      </trkpt>
      <trkpt lat="43.61749" lon="3.78157">
        <ele>87.316</ele>
        <time>2020-07-07T17:06:40.000Z</time>
      </trkpt>
      <trkpt lat="43.6175" lon="3.78153">
        <ele>87.416</ele>
        <time>2020-07-07T17:06:41.000Z</time>
      </trkpt>
      <trkpt lat="43.6175" lon="3.78149">
        <ele>87.516</ele>
        <time>2020-07-07T17:06:42.000Z</time>
      </trkpt>
      <trkpt lat="43.61751" lon="3.78146">
        <ele>87.616</ele>
        <time>2020-07-07T17:06:43.000Z</time>
      </trkpt>
      <trkpt lat="43.61752" lon="3.78142">
        <ele>87.716</ele>
        <time>2020-07-07T17:06:44.000Z</time>
      </trkpt>
      <trkpt lat="43.61753" lon="3.78138">
        <ele>87.816</ele>
        <time>2020-07-07T17:06:45.000Z</time>
      </trkpt>
      <trkpt lat="43.61754" lon="3.78134">
        <ele>87.916</ele>
        <time>2020-07-07T17:06:46.000Z</time>
      </trkpt>
      <trkpt lat="43.61755" lon="3.78131">
        <ele>88.016</ele>
        <time>2020-07-07T17:06:47.000Z</time>
      </trkpt>
      <trkpt lat="43.61756" lon="3.78127">
        <ele>88.116</ele>
        <time>2020-07-07T17:06:48.000Z</time>
      </trkpt>
      <trkpt lat="43.61757" lon="3.78124">
        <ele>88.216</ele>
        <time>2020-07-07T17:06:49.000Z</time>
      </trkpt>
      <trkpt lat="43.61758" lon="3.7812">
        <ele>88.316</ele>
        <time>2020-07-07T17:06:50.000Z</time>
      </trkpt>
      <trkpt lat="43.61759" lon="3.78117">
        <ele>88.416</ele>
        <time>2020-07-07T17:06:51.000Z</time>
      </trkpt>
      <trkpt lat="43.61761" lon="3.78113">
        <ele>88.516</ele>
        <time>2020-07-07T17:06:52.000Z</time>
      </trkpt>
      <trkpt lat="43.61762" lon="3.7811">
        <ele>88.616</ele>
        <time>2020-07-07T17:06:53.000Z</time>
      </trkpt>
      <trkpt lat="43.61764" lon="3.78106">
        <ele>88.716</ele>
        <time>2020-07-07T17:06:54.000Z</time>
      </trkpt>
      <trkpt lat="43.61765" lon="3.78103">
        <ele>88.816</ele>
        <time>2020-07-07T17:06:55.000Z</time>
      </trkpt>
      <trkpt lat="43.61767" lon="3.781">
        <ele>88.916</ele>
        <time>2020-07-07T17:06:56.000Z</time>
      </trkpt>
      <trkpt lat="43.61769" lon="3.78096">
        <ele>89</ele>
        <time>2020-07-07T17:06:57.000Z</time>
      </trkpt>
      <trkpt lat="43.61771" lon="3.78093">
        <ele>89</ele>
        <time>2020-07-07T17:06:58.000Z</time>
      </trkpt>
      <trkpt lat="43.61773" lon="3.7809">
        <ele>89</ele>
        <time>2020-07-07T17:06:59.000Z</time>
      </trkpt>
      <trkpt lat="43.61775" lon="3.78086">
        <ele>89</ele>
        <time>2020-07-07T17:07:00.000Z</time>
      </trkpt>
      <trkpt lat="43.61777" lon="3.78083">
        <ele>89</ele>
        <time>2020-07-07T17:07:01.000Z</time>
      </trkpt>
      <trkpt lat="43.6178" lon="3.7808">
        <ele>89</ele>
        <time>2020-07-07T17:07:02.000Z</time>
      </trkpt>
      <trkpt lat="43.61782" lon="3.78077">
        <ele>89</ele>
        <time>2020-07-07T17:07:03.000Z</time>
      </trkpt>
      <trkpt lat="43.61784" lon="3.78074">
        <ele>89</ele>
        <time>2020-07-07T17:07:04.000Z</time>
      </trkpt>
      <trkpt lat="43.61787" lon="3.78072">
        <ele>89</ele>
        <time>2020-07-07T17:07:05.000Z</time>
      </trkpt>
      <trkpt lat="43.61789" lon="3.7807">
        <ele>89</ele>
        <time>2020-07-07T17:07:06.000Z</time>
      </trkpt>
      <trkpt lat="43.61792" lon="3.78068">
        <ele>89</ele>
        <time>2020-07-07T17:07:07.000Z</time>
      </trkpt>
      <trkpt lat="43.61795" lon="3.78065">
        <ele>89</ele>
        <time>2020-07-07T17:07:08.000Z</time>
      </trkpt>
      <trkpt lat="43.61797" lon="3.78063">
        <ele>89</ele>
        <time>2020-07-07T17:07:09.000Z</time>
      </trkpt>
      <trkpt lat="43.618" lon="3.7806">
        <ele>89</ele>
        <time>2020-07-07T17:07:10.000Z</time>
      </trkpt>
      <trkpt lat="43.61803" lon="3.78056">
        <ele>89</ele>
        <time>2020-07-07T17:07:11.000Z</time>
      </trkpt>
      <trkpt lat="43.61806" lon="3.78053">
        <ele>89</ele>
        <time>2020-07-07T17:07:12.000Z</time>
      </trkpt>
      <trkpt lat="43.61809" lon="3.78049">
        <ele>89</ele>
        <time>2020-07-07T17:07:13.000Z</time>
      </trkpt>
      <trkpt lat="43.61811" lon="3.78045">
        <ele>89</ele>
        <time>2020-07-07T17:07:14.000Z</time>
      </trkpt>
      <trkpt lat="43.61814" lon="3.78041">
        <ele>89</ele>
        <time>2020-07-07T17:07:15.000Z</time>
      </trkpt>
      <trkpt lat="43.61817" lon="3.78037">
        <ele>89</ele>
        <time>2020-07-07T17:07:16.000Z</time>
      </trkpt>
      <trkpt lat="43.6182" lon="3.78032">
        <ele>89.016</ele>
        <time>2020-07-07T17:07:17.000Z</time>
      </trkpt>
      <trkpt lat="43.61822" lon="3.78028">
        <ele>89.116</ele>
        <time>2020-07-07T17:07:18.000Z</time>
      </trkpt>
      <trkpt lat="43.61824" lon="3.78023">
        <ele>89.216</ele>
        <time>2020-07-07T17:07:19.000Z</time>
      </trkpt>
      <trkpt lat="43.61825" lon="3.78018">
        <ele>89.316</ele>
        <time>2020-07-07T17:07:20.000Z</time>
      </trkpt>
      <trkpt lat="43.61826" lon="3.78013">
        <ele>89.416</ele>
        <time>2020-07-07T17:07:21.000Z</time>
      </trkpt>
      <trkpt lat="43.61827" lon="3.78009">
        <ele>89.516</ele>
        <time>2020-07-07T17:07:22.000Z</time>
      </trkpt>
      <trkpt lat="43.61828" lon="3.78004">
        <ele>89.616</ele>
        <time>2020-07-07T17:07:23.000Z</time>
      </trkpt>
      <trkpt lat="43.61829" lon="3.77999">
        <ele>89.716</ele>
        <time>2020-07-07T17:07:24.000Z</time>
      </trkpt>
      <trkpt lat="43.6183" lon="3.77995">
        <ele>89.816</ele>
        <time>2020-07-07T17:07:25.000Z</time>
      </trkpt>
      <trkpt lat="43.61832" lon="3.7799">
        <ele>89.916</ele>
        <time>2020-07-07T17:07:26.000Z</time>
      </trkpt>
      <trkpt lat="43.61833" lon="3.77986">
        <ele>90.016</ele>
        <time>2020-07-07T17:07:27.000Z</time>
      </trkpt>
      <trkpt lat="43.61834" lon="3.77981">
        <ele>90.116</ele>
        <time>2020-07-07T17:07:28.000Z</time>
      </trkpt>
      <trkpt lat="43.61835" lon="3.77977">
        <ele>90.216</ele>
        <time>2020-07-07T17:07:29.000Z</time>
      </trkpt>
      <trkpt lat="43.61835" lon="3.77972">
        <ele>90.316</ele>
        <time>2020-07-07T17:07:30.000Z</time>
      </trkpt>
      <trkpt lat="43.61836" lon="3.77968">
        <ele>90.416</ele>
        <time>2020-07-07T17:07:31.000Z</time>
      </trkpt>
      <trkpt lat="43.61836" lon="3.77964">
        <ele>90.516</ele>
        <time>2020-07-07T17:07:32.000Z</time>
      </trkpt>
      <trkpt lat="43.61837" lon="3.7796">
        <ele>90.616</ele>
        <time>2020-07-07T17:07:33.000Z</time>
      </trkpt>
      <trkpt lat="43.61837" lon="3.77955">
        <ele>90.716</ele>
        <time>2020-07-07T17:07:34.000Z</time>
      </trkpt>
      <trkpt lat="43.61837" lon="3.77951">
        <ele>90.816</ele>
        <time>2020-07-07T17:07:35.000Z</time>
      </trkpt>
      <trkpt lat="43.61837" lon="3.77947">
        <ele>90.916</ele>
        <time>2020-07-07T17:07:36.000Z</time>
      </trkpt>
      <trkpt lat="43.61837" lon="3.77943">
        <ele>91.016</ele>
        <time>2020-07-07T17:07:37.000Z</time>
      </trkpt>
      <trkpt lat="43.61837" lon="3.77939">
        <ele>91.116</ele>
        <time>2020-07-07T17:07:38.000Z</time>
      </trkpt>
      <trkpt lat="43.61837" lon="3.77934">
        <ele>91.216</ele>
        <time>2020-07-07T17:07:39.000Z</time>
      </trkpt>
      <trkpt lat="43.61837" lon="3.7793">
        <ele>91.316</ele>
        <time>2020-07-07T17:07:40.000Z</time>
      </trkpt>
      <trkpt lat="43.61837" lon="3.77926">
        <ele>91.416</ele>
        <time>2020-07-07T17:07:41.000Z</time>
      </trkpt>
      <trkpt lat="43.61837" lon="3.77922">
        <ele>91.516</ele>
        <time>2020-07-07T17:07:42.000Z</time>
      </trkpt>
      <trkpt lat="43.61837" lon="3.77918">
        <ele>91.616</ele>
        <time>2020-07-07T17:07:43.000Z</time>
      </trkpt>
      <trkpt lat="43.61837" lon="3.77914">
        <ele>91.716</ele>
        <time>2020-07-07T17:07:44.000Z</time>
      </trkpt>
      <trkpt lat="43.61837" lon="3.7791">
        <ele>91.816</ele>
        <time>2020-07-07T17:07:45.000Z</time>
      </trkpt>
      <trkpt lat="43.61837" lon="3.77906">
        <ele>91.916</ele>
        <time>2020-07-07T17:07:46.000Z</time>
      </trkpt>
      <trkpt lat="43.61836" lon="3.77902">
        <ele>92.016</ele>
        <time>2020-07-07T17:07:47.000Z</time>
      </trkpt>
      <trkpt lat="43.61836" lon="3.77898">
        <ele>92.116</ele>
        <time>2020-07-07T17:07:48.000Z</time>
      </trkpt>
      <trkpt lat="43.61836" lon="3.77894">
        <ele>92.216</ele>
        <time>2020-07-07T17:07:49.000Z</time>
      </trkpt>
      <trkpt lat="43.61836" lon="3.7789">
        <ele>92.316</ele>
        <time>2020-07-07T17:07:50.000Z</time>
      </trkpt>
      <trkpt lat="43.61836" lon="3.77886">
        <ele>92.416</ele>
        <time>2020-07-07T17:07:51.000Z</time>
      </trkpt>
      <trkpt lat="43.61836" lon="3.77882">
        <ele>92.516</ele>
        <time>2020-07-07T17:07:52.000Z</time>
      </trkpt>
      <trkpt lat="43.61836" lon="3.77878">
        <ele>92.616</ele>
        <time>2020-07-07T17:07:53.000Z</time>
      </trkpt>
      <trkpt lat="43.61836" lon="3.77874">
        <ele>92.716</ele>
        <time>2020-07-07T17:07:54.000Z</time>
      </trkpt>
      <trkpt lat="43.61836" lon="3.77871">
        <ele>92.816</ele>
        <time>2020-07-07T17:07:55.000Z</time>
      </trkpt>
      <trkpt lat="43.61835" lon="3.77868">
        <ele>92.916</ele>
        <time>2020-07-07T17:07:56.000Z</time>
      </trkpt>
      <trkpt lat="43.61835" lon="3.77866">
        <ele>93.016</ele>
        <time>2020-07-07T17:07:57.000Z</time>
      </trkpt>
      <trkpt lat="43.61833" lon="3.77865">
        <ele>93.116</ele>
        <time>2020-07-07T17:07:58.000Z</time>
      </trkpt>
      <trkpt lat="43.61831" lon="3.77864">
        <ele>93.216</ele>
        <time>2020-07-07T17:07:59.000Z</time>
      </trkpt>
      <trkpt lat="43.61829" lon="3.77864">
        <ele>93.316</ele>
        <time>2020-07-07T17:08:00.000Z</time>
      </trkpt>
      <trkpt lat="43.61827" lon="3.77864">
        <ele>93.416</ele>
        <time>2020-07-07T17:08:01.000Z</time>
      </trkpt>
      <trkpt lat="43.61824" lon="3.77865">
        <ele>93.516</ele>
        <time>2020-07-07T17:08:02.000Z</time>
      </trkpt>
      <trkpt lat="43.61822" lon="3.77864">
        <ele>93.616</ele>
        <time>2020-07-07T17:08:03.000Z</time>
      </trkpt>
      <trkpt lat="43.6182" lon="3.77864">
        <ele>93.716</ele>
        <time>2020-07-07T17:08:04.000Z</time>
      </trkpt>
      <trkpt lat="43.61818" lon="3.77865">
        <ele>93.916</ele>
        <time>2020-07-07T17:08:06.000Z</time>
      </trkpt>
      <trkpt lat="43.61815" lon="3.77866">
        <ele>94.232</ele>
        <time>2020-07-07T17:08:08.000Z</time>
      </trkpt>
      <trkpt lat="43.61812" lon="3.77865">
        <ele>94.632</ele>
        <time>2020-07-07T17:08:10.000Z</time>
      </trkpt>
      <trkpt lat="43.61809" lon="3.77863">
        <ele>95.032</ele>
        <time>2020-07-07T17:08:12.000Z</time>
      </trkpt>
      <trkpt lat="43.61807" lon="3.77863">
        <ele>95.232</ele>
        <time>2020-07-07T17:08:13.000Z</time>
      </trkpt>
      <trkpt lat="43.61805" lon="3.77863">
        <ele>95.432</ele>
        <time>2020-07-07T17:08:14.000Z</time>
      </trkpt>
      <trkpt lat="43.61803" lon="3.77863">
        <ele>95.632</ele>
        <time>2020-07-07T17:08:15.000Z</time>
      </trkpt>
      <trkpt lat="43.61801" lon="3.77863">
        <ele>95.832</ele>
        <time>2020-07-07T17:08:16.000Z</time>
      </trkpt>
      <trkpt lat="43.61799" lon="3.77861">
        <ele>96.016</ele>
        <time>2020-07-07T17:08:17.000Z</time>
      </trkpt>
      <trkpt lat="43.61798" lon="3.77858">
        <ele>96.116</ele>
        <time>2020-07-07T17:08:18.000Z</time>
      </trkpt>
      <trkpt lat="43.61797" lon="3.77855">
        <ele>96.216</ele>
        <time>2020-07-07T17:08:19.000Z</time>
      </trkpt>
      <trkpt lat="43.61795" lon="3.77852">
        <ele>96.316</ele>
        <time>2020-07-07T17:08:20.000Z</time>
      </trkpt>
      <trkpt lat="43.61794" lon="3.77849">
        <ele>96.416</ele>
        <time>2020-07-07T17:08:21.000Z</time>
      </trkpt>
      <trkpt lat="43.61793" lon="3.77846">
        <ele>96.516</ele>
        <time>2020-07-07T17:08:22.000Z</time>
      </trkpt>
      <trkpt lat="43.61792" lon="3.77842">
        <ele>96.616</ele>
        <time>2020-07-07T17:08:23.000Z</time>
      </trkpt>
      <trkpt lat="43.61791" lon="3.77839">
        <ele>96.716</ele>
        <time>2020-07-07T17:08:24.000Z</time>
      </trkpt>
      <trkpt lat="43.61791" lon="3.77835">
        <ele>96.816</ele>
        <time>2020-07-07T17:08:25.000Z</time>
      </trkpt>
      <trkpt lat="43.61792" lon="3.77832">
        <ele>96.916</ele>
        <time>2020-07-07T17:08:26.000Z</time>
      </trkpt>
      <trkpt lat="43.61792" lon="3.77828">
        <ele>97.016</ele>
        <time>2020-07-07T17:08:27.000Z</time>
      </trkpt>
      <trkpt lat="43.61793" lon="3.77824">
        <ele>97.116</ele>
        <time>2020-07-07T17:08:28.000Z</time>
      </trkpt>
      <trkpt lat="43.61794" lon="3.77821">
        <ele>97.216</ele>
        <time>2020-07-07T17:08:29.000Z</time>
      </trkpt>
      <trkpt lat="43.61795" lon="3.77818">
        <ele>97.316</ele>
        <time>2020-07-07T17:08:30.000Z</time>
      </trkpt>
      <trkpt lat="43.61796" lon="3.77814">
        <ele>97.416</ele>
        <time>2020-07-07T17:08:31.000Z</time>
      </trkpt>
      <trkpt lat="43.61797" lon="3.77811">
        <ele>97.516</ele>
        <time>2020-07-07T17:08:32.000Z</time>
      </trkpt>
      <trkpt lat="43.61798" lon="3.77808">
        <ele>97.616</ele>
        <time>2020-07-07T17:08:33.000Z</time>
      </trkpt>
      <trkpt lat="43.61799" lon="3.77804">
        <ele>97.716</ele>
        <time>2020-07-07T17:08:34.000Z</time>
      </trkpt>
      <trkpt lat="43.618" lon="3.778">
        <ele>97.816</ele>
        <time>2020-07-07T17:08:35.000Z</time>
      </trkpt>
      <trkpt lat="43.618" lon="3.77797">
        <ele>97.916</ele>
        <time>2020-07-07T17:08:36.000Z</time>
      </trkpt>
      <trkpt lat="43.61801" lon="3.77793">
        <ele>98.016</ele>
        <time>2020-07-07T17:08:37.000Z</time>
      </trkpt>
      <trkpt lat="43.61802" lon="3.77789">
        <ele>98.116</ele>
        <time>2020-07-07T17:08:38.000Z</time>
      </trkpt>
      <trkpt lat="43.61803" lon="3.77785">
        <ele>98.216</ele>
        <time>2020-07-07T17:08:39.000Z</time>
      </trkpt>
      <trkpt lat="43.61803" lon="3.77781">
        <ele>98.316</ele>
        <time>2020-07-07T17:08:40.000Z</time>
      </trkpt>
      <trkpt lat="43.61804" lon="3.77777">
        <ele>98.416</ele>
        <time>2020-07-07T17:08:41.000Z</time>
      </trkpt>
      <trkpt lat="43.61805" lon="3.77773">
        <ele>98.516</ele>
        <time>2020-07-07T17:08:42.000Z</time>
      </trkpt>
      <trkpt lat="43.61806" lon="3.77769">
        <ele>98.616</ele>
        <time>2020-07-07T17:08:43.000Z</time>
      </trkpt>
      <trkpt lat="43.61807" lon="3.77765">
        <ele>98.716</ele>
        <time>2020-07-07T17:08:44.000Z</time>
      </trkpt>
      <trkpt lat="43.61808" lon="3.77761">
        <ele>98.816</ele>
        <time>2020-07-07T17:08:45.000Z</time>
      </trkpt>
      <trkpt lat="43.61809" lon="3.77758">
        <ele>98.916</ele>
        <time>2020-07-07T17:08:46.000Z</time>
      </trkpt>
      <trkpt lat="43.6181" lon="3.77754">
        <ele>99.015564202335</ele>
        <time>2020-07-07T17:08:47.000Z</time>
      </trkpt>
      <trkpt lat="43.61811" lon="3.77749">
        <ele>99.112840466926</ele>
        <time>2020-07-07T17:08:48.000Z</time>
      </trkpt>
      <trkpt lat="43.61812" lon="3.77745">
        <ele>99.210116731518</ele>
        <time>2020-07-07T17:08:49.000Z</time>
      </trkpt>
      <trkpt lat="43.61813" lon="3.77741">
        <ele>99.307392996109</ele>
        <time>2020-07-07T17:08:50.000Z</time>
      </trkpt>
      <trkpt lat="43.61814" lon="3.77737">
        <ele>99.4046692607</ele>
        <time>2020-07-07T17:08:51.000Z</time>
      </trkpt>
      <trkpt lat="43.61815" lon="3.77733">
        <ele>99.501945525292</ele>
        <time>2020-07-07T17:08:52.000Z</time>
      </trkpt>
      <trkpt lat="43.61816" lon="3.77728">
        <ele>99.599221789883</ele>
        <time>2020-07-07T17:08:53.000Z</time>
      </trkpt>
      <trkpt lat="43.61817" lon="3.77725">
        <ele>99.696498054475</ele>
        <time>2020-07-07T17:08:54.000Z</time>
      </trkpt>
      <trkpt lat="43.6182" lon="3.77721">
        <ele>99.793774319066</ele>
        <time>2020-07-07T17:08:55.000Z</time>
      </trkpt>
      <trkpt lat="43.61821" lon="3.77718">
        <ele>99.891050583658</ele>
        <time>2020-07-07T17:08:56.000Z</time>
      </trkpt>
      <trkpt lat="43.61823" lon="3.77713">
        <ele>99.988326848249</ele>
        <time>2020-07-07T17:08:57.000Z</time>
      </trkpt>
      <trkpt lat="43.61824" lon="3.77709">
        <ele>100.09053497942</ele>
        <time>2020-07-07T17:08:58.000Z</time>
      </trkpt>
      <trkpt lat="43.61825" lon="3.77705">
        <ele>100.19341563786</ele>
        <time>2020-07-07T17:08:59.000Z</time>
      </trkpt>
      <trkpt lat="43.61826" lon="3.777">
        <ele>100.2962962963</ele>
        <time>2020-07-07T17:09:00.000Z</time>
      </trkpt>
      <trkpt lat="43.61827" lon="3.77696">
        <ele>100.39917695473</ele>
        <time>2020-07-07T17:09:01.000Z</time>
      </trkpt>
      <trkpt lat="43.61828" lon="3.77692">
        <ele>100.50205761317</ele>
        <time>2020-07-07T17:09:02.000Z</time>
      </trkpt>
      <trkpt lat="43.61829" lon="3.77688">
        <ele>100.6049382716</ele>
        <time>2020-07-07T17:09:03.000Z</time>
      </trkpt>
      <trkpt lat="43.61829" lon="3.77683">
        <ele>100.70781893004</ele>
        <time>2020-07-07T17:09:04.000Z</time>
      </trkpt>
      <trkpt lat="43.6183" lon="3.77679">
        <ele>100.81069958848</ele>
        <time>2020-07-07T17:09:05.000Z</time>
      </trkpt>
      <trkpt lat="43.6183" lon="3.77675">
        <ele>100.91358024691</ele>
        <time>2020-07-07T17:09:06.000Z</time>
      </trkpt>
      <trkpt lat="43.61831" lon="3.7767">
        <ele>101</ele>
        <time>2020-07-07T17:09:07.000Z</time>
      </trkpt>
      <trkpt lat="43.61832" lon="3.77666">
        <ele>101</ele>
        <time>2020-07-07T17:09:08.000Z</time>
      </trkpt>
      <trkpt lat="43.61833" lon="3.77662">
        <ele>101</ele>
        <time>2020-07-07T17:09:09.000Z</time>
      </trkpt>
      <trkpt lat="43.61835" lon="3.77658">
        <ele>101</ele>
        <time>2020-07-07T17:09:10.000Z</time>
      </trkpt>
      <trkpt lat="43.61836" lon="3.77653">
        <ele>101</ele>
        <time>2020-07-07T17:09:11.000Z</time>
      </trkpt>
      <trkpt lat="43.61838" lon="3.77649">
        <ele>101</ele>
        <time>2020-07-07T17:09:12.000Z</time>
      </trkpt>
      <trkpt lat="43.61839" lon="3.77645">
        <ele>101</ele>
        <time>2020-07-07T17:09:13.000Z</time>
      </trkpt>
      <trkpt lat="43.61841" lon="3.77641">
        <ele>101</ele>
        <time>2020-07-07T17:09:14.000Z</time>
      </trkpt>
      <trkpt lat="43.61843" lon="3.77637">
        <ele>101</ele>
        <time>2020-07-07T17:09:15.000Z</time>
      </trkpt>
      <trkpt lat="43.61844" lon="3.77633">
        <ele>101</ele>
        <time>2020-07-07T17:09:16.000Z</time>
      </trkpt>
      <trkpt lat="43.61846" lon="3.77629">
        <ele>101.016</ele>
        <time>2020-07-07T17:09:17.000Z</time>
      </trkpt>
      <trkpt lat="43.61847" lon="3.77624">
        <ele>101.116</ele>
        <time>2020-07-07T17:09:18.000Z</time>
      </trkpt>
      <trkpt lat="43.61849" lon="3.7762">
        <ele>101.216</ele>
        <time>2020-07-07T17:09:19.000Z</time>
      </trkpt>
      <trkpt lat="43.6185" lon="3.77616">
        <ele>101.316</ele>
        <time>2020-07-07T17:09:20.000Z</time>
      </trkpt>
      <trkpt lat="43.61851" lon="3.77611">
        <ele>101.416</ele>
        <time>2020-07-07T17:09:21.000Z</time>
      </trkpt>
      <trkpt lat="43.61852" lon="3.77607">
        <ele>101.516</ele>
        <time>2020-07-07T17:09:22.000Z</time>
      </trkpt>
      <trkpt lat="43.61854" lon="3.77603">
        <ele>101.616</ele>
        <time>2020-07-07T17:09:23.000Z</time>
      </trkpt>
      <trkpt lat="43.61855" lon="3.77599">
        <ele>101.716</ele>
        <time>2020-07-07T17:09:24.000Z</time>
      </trkpt>
      <trkpt lat="43.61856" lon="3.77594">
        <ele>101.816</ele>
        <time>2020-07-07T17:09:25.000Z</time>
      </trkpt>
      <trkpt lat="43.61857" lon="3.7759">
        <ele>101.916</ele>
        <time>2020-07-07T17:09:26.000Z</time>
      </trkpt>
      <trkpt lat="43.61858" lon="3.77586">
        <ele>102.032</ele>
        <time>2020-07-07T17:09:27.000Z</time>
      </trkpt>
      <trkpt lat="43.61859" lon="3.77582">
        <ele>102.232</ele>
        <time>2020-07-07T17:09:28.000Z</time>
      </trkpt>
      <trkpt lat="43.6186" lon="3.77578">
        <ele>102.432</ele>
        <time>2020-07-07T17:09:29.000Z</time>
      </trkpt>
      <trkpt lat="43.61861" lon="3.77574">
        <ele>102.632</ele>
        <time>2020-07-07T17:09:30.000Z</time>
      </trkpt>
      <trkpt lat="43.61862" lon="3.7757">
        <ele>102.832</ele>
        <time>2020-07-07T17:09:31.000Z</time>
      </trkpt>
      <trkpt lat="43.61863" lon="3.77567">
        <ele>103.032</ele>
        <time>2020-07-07T17:09:32.000Z</time>
      </trkpt>
      <trkpt lat="43.61864" lon="3.77563">
        <ele>103.232</ele>
        <time>2020-07-07T17:09:33.000Z</time>
      </trkpt>
      <trkpt lat="43.61865" lon="3.77558">
        <ele>103.432</ele>
        <time>2020-07-07T17:09:34.000Z</time>
      </trkpt>
      <trkpt lat="43.61866" lon="3.77554">
        <ele>103.632</ele>
        <time>2020-07-07T17:09:35.000Z</time>
      </trkpt>
      <trkpt lat="43.61867" lon="3.7755">
        <ele>103.832</ele>
        <time>2020-07-07T17:09:36.000Z</time>
      </trkpt>
      <trkpt lat="43.61868" lon="3.77545">
        <ele>104</ele>
        <time>2020-07-07T17:09:37.000Z</time>
      </trkpt>
      <trkpt lat="43.61869" lon="3.77541">
        <ele>104</ele>
        <time>2020-07-07T17:09:38.000Z</time>
      </trkpt>
      <trkpt lat="43.6187" lon="3.77537">
        <ele>104</ele>
        <time>2020-07-07T17:09:39.000Z</time>
      </trkpt>
      <trkpt lat="43.61872" lon="3.77533">
        <ele>104</ele>
        <time>2020-07-07T17:09:40.000Z</time>
      </trkpt>
      <trkpt lat="43.61873" lon="3.77529">
        <ele>104</ele>
        <time>2020-07-07T17:09:41.000Z</time>
      </trkpt>
      <trkpt lat="43.61874" lon="3.77526">
        <ele>104</ele>
        <time>2020-07-07T17:09:42.000Z</time>
      </trkpt>
      <trkpt lat="43.61876" lon="3.77522">
        <ele>104</ele>
        <time>2020-07-07T17:09:43.000Z</time>
      </trkpt>
      <trkpt lat="43.61877" lon="3.77518">
        <ele>104</ele>
        <time>2020-07-07T17:09:44.000Z</time>
      </trkpt>
      <trkpt lat="43.61878" lon="3.77515">
        <ele>104</ele>
        <time>2020-07-07T17:09:45.000Z</time>
      </trkpt>
      <trkpt lat="43.61879" lon="3.77511">
        <ele>104</ele>
        <time>2020-07-07T17:09:46.000Z</time>
      </trkpt>
      <trkpt lat="43.6188" lon="3.77507">
        <ele>104.016</ele>
        <time>2020-07-07T17:09:47.000Z</time>
      </trkpt>
      <trkpt lat="43.61881" lon="3.77503">
        <ele>104.116</ele>
        <time>2020-07-07T17:09:48.000Z</time>
      </trkpt>
      <trkpt lat="43.61882" lon="3.77499">
        <ele>104.216</ele>
        <time>2020-07-07T17:09:49.000Z</time>
      </trkpt>
      <trkpt lat="43.61883" lon="3.77495">
        <ele>104.316</ele>
        <time>2020-07-07T17:09:50.000Z</time>
      </trkpt>
      <trkpt lat="43.61884" lon="3.77491">
        <ele>104.416</ele>
        <time>2020-07-07T17:09:51.000Z</time>
      </trkpt>
      <trkpt lat="43.61885" lon="3.77488">
        <ele>104.516</ele>
        <time>2020-07-07T17:09:52.000Z</time>
      </trkpt>
      <trkpt lat="43.61887" lon="3.77484">
        <ele>104.616</ele>
        <time>2020-07-07T17:09:53.000Z</time>
      </trkpt>
      <trkpt lat="43.61888" lon="3.7748">
        <ele>104.716</ele>
        <time>2020-07-07T17:09:54.000Z</time>
      </trkpt>
      <trkpt lat="43.61889" lon="3.77476">
        <ele>104.816</ele>
        <time>2020-07-07T17:09:55.000Z</time>
      </trkpt>
      <trkpt lat="43.6189" lon="3.77472">
        <ele>104.916</ele>
        <time>2020-07-07T17:09:56.000Z</time>
      </trkpt>
      <trkpt lat="43.61891" lon="3.77468">
        <ele>105</ele>
        <time>2020-07-07T17:09:57.000Z</time>
      </trkpt>
      <trkpt lat="43.61893" lon="3.77464">
        <ele>105</ele>
        <time>2020-07-07T17:09:58.000Z</time>
      </trkpt>
      <trkpt lat="43.61894" lon="3.7746">
        <ele>105</ele>
        <time>2020-07-07T17:09:59.000Z</time>
      </trkpt>
      <trkpt lat="43.61895" lon="3.77456">
        <ele>105</ele>
        <time>2020-07-07T17:10:00.000Z</time>
      </trkpt>
      <trkpt lat="43.61897" lon="3.77453">
        <ele>105</ele>
        <time>2020-07-07T17:10:01.000Z</time>
      </trkpt>
      <trkpt lat="43.61899" lon="3.77449">
        <ele>105</ele>
        <time>2020-07-07T17:10:02.000Z</time>
      </trkpt>
      <trkpt lat="43.619" lon="3.77445">
        <ele>105</ele>
        <time>2020-07-07T17:10:03.000Z</time>
      </trkpt>
      <trkpt lat="43.61902" lon="3.77442">
        <ele>105</ele>
        <time>2020-07-07T17:10:04.000Z</time>
      </trkpt>
      <trkpt lat="43.61902" lon="3.77438">
        <ele>105</ele>
        <time>2020-07-07T17:10:05.000Z</time>
      </trkpt>
      <trkpt lat="43.61903" lon="3.77434">
        <ele>105</ele>
        <time>2020-07-07T17:10:06.000Z</time>
      </trkpt>
      <trkpt lat="43.61904" lon="3.77429">
        <ele>105</ele>
        <time>2020-07-07T17:10:07.000Z</time>
      </trkpt>
      <trkpt lat="43.61906" lon="3.77424">
        <ele>105.0914693826</ele>
        <time>2020-07-07T17:10:08.000Z</time>
      </trkpt>
      <trkpt lat="43.61907" lon="3.7742">
        <ele>105.19424433932</ele>
        <time>2020-07-07T17:10:09.000Z</time>
      </trkpt>
      <trkpt lat="43.61909" lon="3.77415">
        <ele>105.29701929604</ele>
        <time>2020-07-07T17:10:10.000Z</time>
      </trkpt>
      <trkpt lat="43.6191" lon="3.77411">
        <ele>105.39979425276</ele>
        <time>2020-07-07T17:10:11.000Z</time>
      </trkpt>
      <trkpt lat="43.61912" lon="3.77407">
        <ele>105.50256920948</ele>
        <time>2020-07-07T17:10:12.000Z</time>
      </trkpt>
      <trkpt lat="43.61914" lon="3.77403">
        <ele>105.6053441662</ele>
        <time>2020-07-07T17:10:13.000Z</time>
      </trkpt>
      <trkpt lat="43.61915" lon="3.77399">
        <ele>105.70811912292</ele>
        <time>2020-07-07T17:10:14.000Z</time>
      </trkpt>
      <trkpt lat="43.61917" lon="3.77395">
        <ele>105.81089407964</ele>
        <time>2020-07-07T17:10:15.000Z</time>
      </trkpt>
      <trkpt lat="43.61918" lon="3.77391">
        <ele>105.91366903636</ele>
        <time>2020-07-07T17:10:16.000Z</time>
      </trkpt>
      <trkpt lat="43.6192" lon="3.77387">
        <ele>106.016</ele>
        <time>2020-07-07T17:10:17.000Z</time>
      </trkpt>
      <trkpt lat="43.61921" lon="3.77383">
        <ele>106.116</ele>
        <time>2020-07-07T17:10:18.000Z</time>
      </trkpt>
      <trkpt lat="43.61923" lon="3.77379">
        <ele>106.216</ele>
        <time>2020-07-07T17:10:19.000Z</time>
      </trkpt>
      <trkpt lat="43.61925" lon="3.77376">
        <ele>106.316</ele>
        <time>2020-07-07T17:10:20.000Z</time>
      </trkpt>
      <trkpt lat="43.61926" lon="3.77372">
        <ele>106.416</ele>
        <time>2020-07-07T17:10:21.000Z</time>
      </trkpt>
      <trkpt lat="43.61928" lon="3.77368">
        <ele>106.516</ele>
        <time>2020-07-07T17:10:22.000Z</time>
      </trkpt>
      <trkpt lat="43.61929" lon="3.77364">
        <ele>106.616</ele>
        <time>2020-07-07T17:10:23.000Z</time>
      </trkpt>
      <trkpt lat="43.61931" lon="3.7736">
        <ele>106.716</ele>
        <time>2020-07-07T17:10:24.000Z</time>
      </trkpt>
      <trkpt lat="43.61932" lon="3.77356">
        <ele>106.816</ele>
        <time>2020-07-07T17:10:25.000Z</time>
      </trkpt>
      <trkpt lat="43.61934" lon="3.77352">
        <ele>106.916</ele>
        <time>2020-07-07T17:10:26.000Z</time>
      </trkpt>
      <trkpt lat="43.61936" lon="3.77348">
        <ele>107.016</ele>
        <time>2020-07-07T17:10:27.000Z</time>
      </trkpt>
      <trkpt lat="43.61937" lon="3.77344">
        <ele>107.116</ele>
        <time>2020-07-07T17:10:28.000Z</time>
      </trkpt>
      <trkpt lat="43.61939" lon="3.7734">
        <ele>107.216</ele>
        <time>2020-07-07T17:10:29.000Z</time>
      </trkpt>
      <trkpt lat="43.6194" lon="3.77336">
        <ele>107.316</ele>
        <time>2020-07-07T17:10:30.000Z</time>
      </trkpt>
      <trkpt lat="43.61942" lon="3.77332">
        <ele>107.416</ele>
        <time>2020-07-07T17:10:31.000Z</time>
      </trkpt>
      <trkpt lat="43.61944" lon="3.77328">
        <ele>107.516</ele>
        <time>2020-07-07T17:10:32.000Z</time>
      </trkpt>
      <trkpt lat="43.61945" lon="3.77324">
        <ele>107.616</ele>
        <time>2020-07-07T17:10:33.000Z</time>
      </trkpt>
      <trkpt lat="43.61947" lon="3.7732">
        <ele>107.716</ele>
        <time>2020-07-07T17:10:34.000Z</time>
      </trkpt>
      <trkpt lat="43.61949" lon="3.77316">
        <ele>107.816</ele>
        <time>2020-07-07T17:10:35.000Z</time>
      </trkpt>
      <trkpt lat="43.6195" lon="3.77312">
        <ele>107.916</ele>
        <time>2020-07-07T17:10:36.000Z</time>
      </trkpt>
      <trkpt lat="43.61952" lon="3.77308">
        <ele>108.016</ele>
        <time>2020-07-07T17:10:37.000Z</time>
      </trkpt>
      <trkpt lat="43.61953" lon="3.77304">
        <ele>108.116</ele>
        <time>2020-07-07T17:10:38.000Z</time>
      </trkpt>
      <trkpt lat="43.61955" lon="3.773">
        <ele>108.216</ele>
        <time>2020-07-07T17:10:39.000Z</time>
      </trkpt>
      <trkpt lat="43.61957" lon="3.77296">
        <ele>108.316</ele>
        <time>2020-07-07T17:10:40.000Z</time>
      </trkpt>
      <trkpt lat="43.61958" lon="3.77292">
        <ele>108.416</ele>
        <time>2020-07-07T17:10:41.000Z</time>
      </trkpt>
      <trkpt lat="43.6196" lon="3.77288">
        <ele>108.516</ele>
        <time>2020-07-07T17:10:42.000Z</time>
      </trkpt>
      <trkpt lat="43.61962" lon="3.77284">
        <ele>108.616</ele>
        <time>2020-07-07T17:10:43.000Z</time>
      </trkpt>
      <trkpt lat="43.61963" lon="3.77279">
        <ele>108.716</ele>
        <time>2020-07-07T17:10:44.000Z</time>
      </trkpt>
      <trkpt lat="43.61965" lon="3.77275">
        <ele>108.816</ele>
        <time>2020-07-07T17:10:45.000Z</time>
      </trkpt>
      <trkpt lat="43.61967" lon="3.77271">
        <ele>108.916</ele>
        <time>2020-07-07T17:10:46.000Z</time>
      </trkpt>
      <trkpt lat="43.61968" lon="3.77267">
        <ele>109</ele>
        <time>2020-07-07T17:10:47.000Z</time>
      </trkpt>
      <trkpt lat="43.6197" lon="3.77263">
        <ele>109</ele>
        <time>2020-07-07T17:10:48.000Z</time>
      </trkpt>
      <trkpt lat="43.61972" lon="3.77258">
        <ele>109</ele>
        <time>2020-07-07T17:10:49.000Z</time>
      </trkpt>
      <trkpt lat="43.61974" lon="3.77254">
        <ele>109</ele>
        <time>2020-07-07T17:10:50.000Z</time>
      </trkpt>
      <trkpt lat="43.61975" lon="3.7725">
        <ele>109</ele>
        <time>2020-07-07T17:10:51.000Z</time>
      </trkpt>
      <trkpt lat="43.61977" lon="3.77246">
        <ele>109</ele>
        <time>2020-07-07T17:10:52.000Z</time>
      </trkpt>
      <trkpt lat="43.61978" lon="3.77242">
        <ele>109</ele>
        <time>2020-07-07T17:10:53.000Z</time>
      </trkpt>
      <trkpt lat="43.6198" lon="3.77238">
        <ele>109</ele>
        <time>2020-07-07T17:10:54.000Z</time>
      </trkpt>
      <trkpt lat="43.61982" lon="3.77234">
        <ele>109</ele>
        <time>2020-07-07T17:10:55.000Z</time>
      </trkpt>
      <trkpt lat="43.61984" lon="3.7723">
        <ele>109</ele>
        <time>2020-07-07T17:10:56.000Z</time>
      </trkpt>
      <trkpt lat="43.61986" lon="3.77226">
        <ele>109.01491084539</ele>
        <time>2020-07-07T17:10:57.000Z</time>
      </trkpt>
      <trkpt lat="43.61987" lon="3.77222">
        <ele>109.11431436067</ele>
        <time>2020-07-07T17:10:58.000Z</time>
      </trkpt>
      <trkpt lat="43.61989" lon="3.77218">
        <ele>109.21371787597</ele>
        <time>2020-07-07T17:10:59.000Z</time>
      </trkpt>
      <trkpt lat="43.6199" lon="3.77214">
        <ele>109.31312139125</ele>
        <time>2020-07-07T17:11:00.000Z</time>
      </trkpt>
      <trkpt lat="43.61992" lon="3.7721">
        <ele>109.41252490655</ele>
        <time>2020-07-07T17:11:01.000Z</time>
      </trkpt>
      <trkpt lat="43.61993" lon="3.77206">
        <ele>109.51192842183</ele>
        <time>2020-07-07T17:11:02.000Z</time>
      </trkpt>
      <trkpt lat="43.61995" lon="3.77202">
        <ele>109.61133193713</ele>
        <time>2020-07-07T17:11:03.000Z</time>
      </trkpt>
      <trkpt lat="43.61997" lon="3.77198">
        <ele>109.71073545241</ele>
        <time>2020-07-07T17:11:04.000Z</time>
      </trkpt>
      <trkpt lat="43.61999" lon="3.77195">
        <ele>109.81013896771</ele>
        <time>2020-07-07T17:11:05.000Z</time>
      </trkpt>
      <trkpt lat="43.62" lon="3.77191">
        <ele>109.90954248299</ele>
        <time>2020-07-07T17:11:06.000Z</time>
      </trkpt>
      <trkpt lat="43.62002" lon="3.77188">
        <ele>110.00906312477</ele>
        <time>2020-07-07T17:11:07.000Z</time>
      </trkpt>
      <trkpt lat="43.62004" lon="3.77184">
        <ele>110.10976809177</ele>
        <time>2020-07-07T17:11:08.000Z</time>
      </trkpt>
      <trkpt lat="43.62005" lon="3.7718">
        <ele>110.21047305876</ele>
        <time>2020-07-07T17:11:09.000Z</time>
      </trkpt>
      <trkpt lat="43.62007" lon="3.77176">
        <ele>110.31117802576</ele>
        <time>2020-07-07T17:11:10.000Z</time>
      </trkpt>
      <trkpt lat="43.62009" lon="3.77172">
        <ele>110.41188299275</ele>
        <time>2020-07-07T17:11:11.000Z</time>
      </trkpt>
      <trkpt lat="43.6201" lon="3.77169">
        <ele>110.51258795975</ele>
        <time>2020-07-07T17:11:12.000Z</time>
      </trkpt>
      <trkpt lat="43.62012" lon="3.77165">
        <ele>110.61329292674</ele>
        <time>2020-07-07T17:11:13.000Z</time>
      </trkpt>
      <trkpt lat="43.62014" lon="3.77161">
        <ele>110.71399789373</ele>
        <time>2020-07-07T17:11:14.000Z</time>
      </trkpt>
      <trkpt lat="43.62016" lon="3.77157">
        <ele>110.81470286073</ele>
        <time>2020-07-07T17:11:15.000Z</time>
      </trkpt>
      <trkpt lat="43.62017" lon="3.77153">
        <ele>110.91540782773</ele>
        <time>2020-07-07T17:11:16.000Z</time>
      </trkpt>
      <trkpt lat="43.62019" lon="3.77149">
        <ele>111.016</ele>
        <time>2020-07-07T17:11:17.000Z</time>
      </trkpt>
      <trkpt lat="43.62021" lon="3.77145">
        <ele>111.116</ele>
        <time>2020-07-07T17:11:18.000Z</time>
      </trkpt>
      <trkpt lat="43.62022" lon="3.7714">
        <ele>111.216</ele>
        <time>2020-07-07T17:11:19.000Z</time>
      </trkpt>
      <trkpt lat="43.62024" lon="3.77136">
        <ele>111.316</ele>
        <time>2020-07-07T17:11:20.000Z</time>
      </trkpt>
      <trkpt lat="43.62026" lon="3.77132">
        <ele>111.416</ele>
        <time>2020-07-07T17:11:21.000Z</time>
      </trkpt>
      <trkpt lat="43.62028" lon="3.77128">
        <ele>111.516</ele>
        <time>2020-07-07T17:11:22.000Z</time>
      </trkpt>
      <trkpt lat="43.62029" lon="3.77124">
        <ele>111.616</ele>
        <time>2020-07-07T17:11:23.000Z</time>
      </trkpt>
      <trkpt lat="43.62031" lon="3.7712">
        <ele>111.716</ele>
        <time>2020-07-07T17:11:24.000Z</time>
      </trkpt>
      <trkpt lat="43.62033" lon="3.77116">
        <ele>111.816</ele>
        <time>2020-07-07T17:11:25.000Z</time>
      </trkpt>
      <trkpt lat="43.62035" lon="3.77112">
        <ele>111.916</ele>
        <time>2020-07-07T17:11:26.000Z</time>
      </trkpt>
      <trkpt lat="43.62036" lon="3.77108">
        <ele>112.016</ele>
        <time>2020-07-07T17:11:27.000Z</time>
      </trkpt>
      <trkpt lat="43.62038" lon="3.77104">
        <ele>112.116</ele>
        <time>2020-07-07T17:11:28.000Z</time>
      </trkpt>
      <trkpt lat="43.62039" lon="3.771">
        <ele>112.216</ele>
        <time>2020-07-07T17:11:29.000Z</time>
      </trkpt>
      <trkpt lat="43.62041" lon="3.77096">
        <ele>112.316</ele>
        <time>2020-07-07T17:11:30.000Z</time>
      </trkpt>
      <trkpt lat="43.62043" lon="3.77092">
        <ele>112.416</ele>
        <time>2020-07-07T17:11:31.000Z</time>
      </trkpt>
      <trkpt lat="43.62044" lon="3.77088">
        <ele>112.516</ele>
        <time>2020-07-07T17:11:32.000Z</time>
      </trkpt>
      <trkpt lat="43.62046" lon="3.77084">
        <ele>112.616</ele>
        <time>2020-07-07T17:11:33.000Z</time>
      </trkpt>
      <trkpt lat="43.62047" lon="3.7708">
        <ele>112.716</ele>
        <time>2020-07-07T17:11:34.000Z</time>
      </trkpt>
      <trkpt lat="43.62049" lon="3.77076">
        <ele>112.816</ele>
        <time>2020-07-07T17:11:35.000Z</time>
      </trkpt>
      <trkpt lat="43.62051" lon="3.77072">
        <ele>112.916</ele>
        <time>2020-07-07T17:11:36.000Z</time>
      </trkpt>
      <trkpt lat="43.62052" lon="3.77068">
        <ele>113.016</ele>
        <time>2020-07-07T17:11:37.000Z</time>
      </trkpt>
      <trkpt lat="43.62054" lon="3.77064">
        <ele>113.116</ele>
        <time>2020-07-07T17:11:38.000Z</time>
      </trkpt>
      <trkpt lat="43.62056" lon="3.7706">
        <ele>113.216</ele>
        <time>2020-07-07T17:11:39.000Z</time>
      </trkpt>
      <trkpt lat="43.62057" lon="3.77056">
        <ele>113.316</ele>
        <time>2020-07-07T17:11:40.000Z</time>
      </trkpt>
      <trkpt lat="43.62059" lon="3.77052">
        <ele>113.416</ele>
        <time>2020-07-07T17:11:41.000Z</time>
      </trkpt>
      <trkpt lat="43.62061" lon="3.77048">
        <ele>113.516</ele>
        <time>2020-07-07T17:11:42.000Z</time>
      </trkpt>
      <trkpt lat="43.62062" lon="3.77044">
        <ele>113.616</ele>
        <time>2020-07-07T17:11:43.000Z</time>
      </trkpt>
      <trkpt lat="43.62064" lon="3.7704">
        <ele>113.716</ele>
        <time>2020-07-07T17:11:44.000Z</time>
      </trkpt>
      <trkpt lat="43.62066" lon="3.77036">
        <ele>113.816</ele>
        <time>2020-07-07T17:11:45.000Z</time>
      </trkpt>
      <trkpt lat="43.62067" lon="3.77032">
        <ele>113.916</ele>
        <time>2020-07-07T17:11:46.000Z</time>
      </trkpt>
      <trkpt lat="43.62069" lon="3.77028">
        <ele>114.016</ele>
        <time>2020-07-07T17:11:47.000Z</time>
      </trkpt>
      <trkpt lat="43.62071" lon="3.77024">
        <ele>114.116</ele>
        <time>2020-07-07T17:11:48.000Z</time>
      </trkpt>
      <trkpt lat="43.62072" lon="3.7702">
        <ele>114.216</ele>
        <time>2020-07-07T17:11:49.000Z</time>
      </trkpt>
      <trkpt lat="43.62074" lon="3.77017">
        <ele>114.316</ele>
        <time>2020-07-07T17:11:50.000Z</time>
      </trkpt>
      <trkpt lat="43.62076" lon="3.77013">
        <ele>114.416</ele>
        <time>2020-07-07T17:11:51.000Z</time>
      </trkpt>
      <trkpt lat="43.62077" lon="3.77009">
        <ele>114.516</ele>
        <time>2020-07-07T17:11:52.000Z</time>
      </trkpt>
      <trkpt lat="43.62079" lon="3.77005">
        <ele>114.616</ele>
        <time>2020-07-07T17:11:53.000Z</time>
      </trkpt>
      <trkpt lat="43.6208" lon="3.77001">
        <ele>114.716</ele>
        <time>2020-07-07T17:11:54.000Z</time>
      </trkpt>
      <trkpt lat="43.62082" lon="3.76997">
        <ele>114.816</ele>
        <time>2020-07-07T17:11:55.000Z</time>
      </trkpt>
      <trkpt lat="43.62083" lon="3.76993">
        <ele>114.916</ele>
        <time>2020-07-07T17:11:56.000Z</time>
      </trkpt>
      <trkpt lat="43.62085" lon="3.76989">
        <ele>115.01553399023</ele>
        <time>2020-07-07T17:11:57.000Z</time>
      </trkpt>
      <trkpt lat="43.62087" lon="3.76985">
        <ele>115.1126214292</ele>
        <time>2020-07-07T17:11:58.000Z</time>
      </trkpt>
      <trkpt lat="43.62088" lon="3.76981">
        <ele>115.20970886817</ele>
        <time>2020-07-07T17:11:59.000Z</time>
      </trkpt>
      <trkpt lat="43.6209" lon="3.76977">
        <ele>115.30679630714</ele>
        <time>2020-07-07T17:12:00.000Z</time>
      </trkpt>
      <trkpt lat="43.62091" lon="3.76973">
        <ele>115.4038837461</ele>
        <time>2020-07-07T17:12:01.000Z</time>
      </trkpt>
      <trkpt lat="43.62093" lon="3.7697">
        <ele>115.50097118507</ele>
        <time>2020-07-07T17:12:02.000Z</time>
      </trkpt>
      <trkpt lat="43.62095" lon="3.76966">
        <ele>115.59805862404</ele>
        <time>2020-07-07T17:12:03.000Z</time>
      </trkpt>
      <trkpt lat="43.62096" lon="3.76962">
        <ele>115.695146063</ele>
        <time>2020-07-07T17:12:04.000Z</time>
      </trkpt>
      <trkpt lat="43.62098" lon="3.76958">
        <ele>115.79223350197</ele>
        <time>2020-07-07T17:12:05.000Z</time>
      </trkpt>
      <trkpt lat="43.62099" lon="3.76954">
        <ele>115.88932094094</ele>
        <time>2020-07-07T17:12:06.000Z</time>
      </trkpt>
      <trkpt lat="43.62101" lon="3.7695">
        <ele>115.9864083799</ele>
        <time>2020-07-07T17:12:07.000Z</time>
      </trkpt>
      <trkpt lat="43.62102" lon="3.76946">
        <ele>116.08866039511</ele>
        <time>2020-07-07T17:12:08.000Z</time>
      </trkpt>
      <trkpt lat="43.62104" lon="3.76942">
        <ele>116.1917531106</ele>
        <time>2020-07-07T17:12:09.000Z</time>
      </trkpt>
      <trkpt lat="43.62105" lon="3.76938">
        <ele>116.29484582608</ele>
        <time>2020-07-07T17:12:10.000Z</time>
      </trkpt>
      <trkpt lat="43.62107" lon="3.76934">
        <ele>116.39793854157</ele>
        <time>2020-07-07T17:12:11.000Z</time>
      </trkpt>
      <trkpt lat="43.62108" lon="3.7693">
        <ele>116.50103125705</ele>
        <time>2020-07-07T17:12:12.000Z</time>
      </trkpt>
      <trkpt lat="43.6211" lon="3.76926">
        <ele>116.60412397254</ele>
        <time>2020-07-07T17:12:13.000Z</time>
      </trkpt>
      <trkpt lat="43.62111" lon="3.76922">
        <ele>116.70721668802</ele>
        <time>2020-07-07T17:12:14.000Z</time>
      </trkpt>
      <trkpt lat="43.62112" lon="3.76918">
        <ele>116.81030940351</ele>
        <time>2020-07-07T17:12:15.000Z</time>
      </trkpt>
      <trkpt lat="43.62114" lon="3.76914">
        <ele>116.91340211899</ele>
        <time>2020-07-07T17:12:16.000Z</time>
      </trkpt>
      <trkpt lat="43.62115" lon="3.7691">
        <ele>117.032</ele>
        <time>2020-07-07T17:12:17.000Z</time>
      </trkpt>
      <trkpt lat="43.62117" lon="3.76906">
        <ele>117.232</ele>
        <time>2020-07-07T17:12:18.000Z</time>
      </trkpt>
      <trkpt lat="43.62118" lon="3.76902">
        <ele>117.432</ele>
        <time>2020-07-07T17:12:19.000Z</time>
      </trkpt>
      <trkpt lat="43.6212" lon="3.76898">
        <ele>117.632</ele>
        <time>2020-07-07T17:12:20.000Z</time>
      </trkpt>
      <trkpt lat="43.62121" lon="3.76894">
        <ele>117.832</ele>
        <time>2020-07-07T17:12:21.000Z</time>
      </trkpt>
      <trkpt lat="43.62122" lon="3.7689">
        <ele>118.032</ele>
        <time>2020-07-07T17:12:22.000Z</time>
      </trkpt>
      <trkpt lat="43.62124" lon="3.76887">
        <ele>118.232</ele>
        <time>2020-07-07T17:12:23.000Z</time>
      </trkpt>
      <trkpt lat="43.62125" lon="3.76883">
        <ele>118.432</ele>
        <time>2020-07-07T17:12:24.000Z</time>
      </trkpt>
      <trkpt lat="43.62126" lon="3.76879">
        <ele>118.632</ele>
        <time>2020-07-07T17:12:25.000Z</time>
      </trkpt>
      <trkpt lat="43.62127" lon="3.76875">
        <ele>118.832</ele>
        <time>2020-07-07T17:12:26.000Z</time>
      </trkpt>
      <trkpt lat="43.62129" lon="3.76871">
        <ele>119.016</ele>
        <time>2020-07-07T17:12:27.000Z</time>
      </trkpt>
      <trkpt lat="43.6213" lon="3.76867">
        <ele>119.116</ele>
        <time>2020-07-07T17:12:28.000Z</time>
      </trkpt>
      <trkpt lat="43.62131" lon="3.76862">
        <ele>119.216</ele>
        <time>2020-07-07T17:12:29.000Z</time>
      </trkpt>
      <trkpt lat="43.62133" lon="3.76858">
        <ele>119.316</ele>
        <time>2020-07-07T17:12:30.000Z</time>
      </trkpt>
      <trkpt lat="43.62134" lon="3.76854">
        <ele>119.416</ele>
        <time>2020-07-07T17:12:31.000Z</time>
      </trkpt>
      <trkpt lat="43.62135" lon="3.7685">
        <ele>119.516</ele>
        <time>2020-07-07T17:12:32.000Z</time>
      </trkpt>
      <trkpt lat="43.62137" lon="3.76846">
        <ele>119.616</ele>
        <time>2020-07-07T17:12:33.000Z</time>
      </trkpt>
      <trkpt lat="43.62138" lon="3.76842">
        <ele>119.716</ele>
        <time>2020-07-07T17:12:34.000Z</time>
      </trkpt>
      <trkpt lat="43.62139" lon="3.76837">
        <ele>119.816</ele>
        <time>2020-07-07T17:12:35.000Z</time>
      </trkpt>
      <trkpt lat="43.62141" lon="3.76833">
        <ele>119.916</ele>
        <time>2020-07-07T17:12:36.000Z</time>
      </trkpt>
      <trkpt lat="43.62143" lon="3.7683">
        <ele>120.032</ele>
        <time>2020-07-07T17:12:37.000Z</time>
      </trkpt>
      <trkpt lat="43.62144" lon="3.76825">
        <ele>120.232</ele>
        <time>2020-07-07T17:12:38.000Z</time>
      </trkpt>
      <trkpt lat="43.62145" lon="3.76821">
        <ele>120.432</ele>
        <time>2020-07-07T17:12:39.000Z</time>
      </trkpt>
      <trkpt lat="43.62146" lon="3.76817">
        <ele>120.632</ele>
        <time>2020-07-07T17:12:40.000Z</time>
      </trkpt>
      <trkpt lat="43.62148" lon="3.76814">
        <ele>120.832</ele>
        <time>2020-07-07T17:12:41.000Z</time>
      </trkpt>
      <trkpt lat="43.6215" lon="3.7681">
        <ele>121.032</ele>
        <time>2020-07-07T17:12:42.000Z</time>
      </trkpt>
      <trkpt lat="43.62151" lon="3.76806">
        <ele>121.232</ele>
        <time>2020-07-07T17:12:43.000Z</time>
      </trkpt>
      <trkpt lat="43.62153" lon="3.76802">
        <ele>121.432</ele>
        <time>2020-07-07T17:12:44.000Z</time>
      </trkpt>
      <trkpt lat="43.62153" lon="3.76797">
        <ele>121.632</ele>
        <time>2020-07-07T17:12:45.000Z</time>
      </trkpt>
      <trkpt lat="43.62154" lon="3.76793">
        <ele>121.832</ele>
        <time>2020-07-07T17:12:46.000Z</time>
      </trkpt>
      <trkpt lat="43.62155" lon="3.76789">
        <ele>122</ele>
        <time>2020-07-07T17:12:47.000Z</time>
      </trkpt>
      <trkpt lat="43.62156" lon="3.76784">
        <ele>122</ele>
        <time>2020-07-07T17:12:48.000Z</time>
      </trkpt>
      <trkpt lat="43.62157" lon="3.7678">
        <ele>122</ele>
        <time>2020-07-07T17:12:49.000Z</time>
      </trkpt>
      <trkpt lat="43.62158" lon="3.76776">
        <ele>122</ele>
        <time>2020-07-07T17:12:50.000Z</time>
      </trkpt>
      <trkpt lat="43.62159" lon="3.76772">
        <ele>122</ele>
        <time>2020-07-07T17:12:51.000Z</time>
      </trkpt>
      <trkpt lat="43.6216" lon="3.76767">
        <ele>122</ele>
        <time>2020-07-07T17:12:52.000Z</time>
      </trkpt>
      <trkpt lat="43.62161" lon="3.76763">
        <ele>122</ele>
        <time>2020-07-07T17:12:53.000Z</time>
      </trkpt>
      <trkpt lat="43.62162" lon="3.76759">
        <ele>122</ele>
        <time>2020-07-07T17:12:54.000Z</time>
      </trkpt>
      <trkpt lat="43.62164" lon="3.76755">
        <ele>122</ele>
        <time>2020-07-07T17:12:55.000Z</time>
      </trkpt>
      <trkpt lat="43.62165" lon="3.76751">
        <ele>122</ele>
        <time>2020-07-07T17:12:56.000Z</time>
      </trkpt>
      <trkpt lat="43.62166" lon="3.76746">
        <ele>122</ele>
        <time>2020-07-07T17:12:57.000Z</time>
      </trkpt>
      <trkpt lat="43.62167" lon="3.76742">
        <ele>122</ele>
        <time>2020-07-07T17:12:58.000Z</time>
      </trkpt>
      <trkpt lat="43.62168" lon="3.76738">
        <ele>122</ele>
        <time>2020-07-07T17:12:59.000Z</time>
      </trkpt>
      <trkpt lat="43.62169" lon="3.76734">
        <ele>122</ele>
        <time>2020-07-07T17:13:00.000Z</time>
      </trkpt>
      <trkpt lat="43.6217" lon="3.76729">
        <ele>122</ele>
        <time>2020-07-07T17:13:01.000Z</time>
      </trkpt>
      <trkpt lat="43.62171" lon="3.76725">
        <ele>122</ele>
        <time>2020-07-07T17:13:02.000Z</time>
      </trkpt>
      <trkpt lat="43.62172" lon="3.76721">
        <ele>122</ele>
        <time>2020-07-07T17:13:03.000Z</time>
      </trkpt>
      <trkpt lat="43.62173" lon="3.76717">
        <ele>122</ele>
        <time>2020-07-07T17:13:04.000Z</time>
      </trkpt>
      <trkpt lat="43.62174" lon="3.76713">
        <ele>122</ele>
        <time>2020-07-07T17:13:05.000Z</time>
      </trkpt>
      <trkpt lat="43.62175" lon="3.76708">
        <ele>122</ele>
        <time>2020-07-07T17:13:06.000Z</time>
      </trkpt>
      <trkpt lat="43.62176" lon="3.76704">
        <ele>122</ele>
        <time>2020-07-07T17:13:07.000Z</time>
      </trkpt>
      <trkpt lat="43.62178" lon="3.767">
        <ele>122</ele>
        <time>2020-07-07T17:13:08.000Z</time>
      </trkpt>
      <trkpt lat="43.62179" lon="3.76696">
        <ele>122</ele>
        <time>2020-07-07T17:13:09.000Z</time>
      </trkpt>
      <trkpt lat="43.6218" lon="3.76692">
        <ele>122</ele>
        <time>2020-07-07T17:13:10.000Z</time>
      </trkpt>
      <trkpt lat="43.62181" lon="3.76688">
        <ele>122</ele>
        <time>2020-07-07T17:13:11.000Z</time>
      </trkpt>
      <trkpt lat="43.62183" lon="3.76684">
        <ele>122</ele>
        <time>2020-07-07T17:13:12.000Z</time>
      </trkpt>
      <trkpt lat="43.62185" lon="3.76679">
        <ele>122</ele>
        <time>2020-07-07T17:13:13.000Z</time>
      </trkpt>
      <trkpt lat="43.62186" lon="3.76675">
        <ele>122</ele>
        <time>2020-07-07T17:13:14.000Z</time>
      </trkpt>
      <trkpt lat="43.62188" lon="3.76671">
        <ele>122</ele>
        <time>2020-07-07T17:13:15.000Z</time>
      </trkpt>
      <trkpt lat="43.62189" lon="3.76666">
        <ele>122</ele>
        <time>2020-07-07T17:13:16.000Z</time>
      </trkpt>
      <trkpt lat="43.6219" lon="3.76661">
        <ele>122.016</ele>
        <time>2020-07-07T17:13:17.000Z</time>
      </trkpt>
      <trkpt lat="43.62192" lon="3.76657">
        <ele>122.116</ele>
        <time>2020-07-07T17:13:18.000Z</time>
      </trkpt>
      <trkpt lat="43.62193" lon="3.76652">
        <ele>122.216</ele>
        <time>2020-07-07T17:13:19.000Z</time>
      </trkpt>
      <trkpt lat="43.62195" lon="3.76648">
        <ele>122.316</ele>
        <time>2020-07-07T17:13:20.000Z</time>
      </trkpt>
      <trkpt lat="43.62196" lon="3.76643">
        <ele>122.416</ele>
        <time>2020-07-07T17:13:21.000Z</time>
      </trkpt>
      <trkpt lat="43.62197" lon="3.76639">
        <ele>122.516</ele>
        <time>2020-07-07T17:13:22.000Z</time>
      </trkpt>
      <trkpt lat="43.62199" lon="3.76634">
        <ele>122.616</ele>
        <time>2020-07-07T17:13:23.000Z</time>
      </trkpt>
      <trkpt lat="43.622" lon="3.76629">
        <ele>122.716</ele>
        <time>2020-07-07T17:13:24.000Z</time>
      </trkpt>
      <trkpt lat="43.62201" lon="3.76625">
        <ele>122.816</ele>
        <time>2020-07-07T17:13:25.000Z</time>
      </trkpt>
      <trkpt lat="43.62203" lon="3.7662">
        <ele>122.916</ele>
        <time>2020-07-07T17:13:26.000Z</time>
      </trkpt>
      <trkpt lat="43.62204" lon="3.76616">
        <ele>123.04761904762</ele>
        <time>2020-07-07T17:13:27.000Z</time>
      </trkpt>
      <trkpt lat="43.62205" lon="3.76611">
        <ele>123.34523809524</ele>
        <time>2020-07-07T17:13:28.000Z</time>
      </trkpt>
      <trkpt lat="43.62207" lon="3.76607">
        <ele>123.64285714286</ele>
        <time>2020-07-07T17:13:29.000Z</time>
      </trkpt>
      <trkpt lat="43.62208" lon="3.76602">
        <ele>123.94047619048</ele>
        <time>2020-07-07T17:13:30.000Z</time>
      </trkpt>
      <trkpt lat="43.62209" lon="3.76597">
        <ele>124.12048192771</ele>
        <time>2020-07-07T17:13:31.000Z</time>
      </trkpt>
      <trkpt lat="43.6221" lon="3.76593">
        <ele>124.27108433735</ele>
        <time>2020-07-07T17:13:32.000Z</time>
      </trkpt>
      <trkpt lat="43.62212" lon="3.76588">
        <ele>124.42168674699</ele>
        <time>2020-07-07T17:13:33.000Z</time>
      </trkpt>
      <trkpt lat="43.62213" lon="3.76583">
        <ele>124.57228915663</ele>
        <time>2020-07-07T17:13:34.000Z</time>
      </trkpt>
      <trkpt lat="43.62214" lon="3.76578">
        <ele>124.72289156627</ele>
        <time>2020-07-07T17:13:35.000Z</time>
      </trkpt>
      <trkpt lat="43.62216" lon="3.76573">
        <ele>124.8734939759</ele>
        <time>2020-07-07T17:13:36.000Z</time>
      </trkpt>
      <trkpt lat="43.62217" lon="3.76568">
        <ele>125.016</ele>
        <time>2020-07-07T17:13:37.000Z</time>
      </trkpt>
      <trkpt lat="43.62218" lon="3.76564">
        <ele>125.116</ele>
        <time>2020-07-07T17:13:38.000Z</time>
      </trkpt>
      <trkpt lat="43.62219" lon="3.76559">
        <ele>125.216</ele>
        <time>2020-07-07T17:13:39.000Z</time>
      </trkpt>
      <trkpt lat="43.6222" lon="3.76555">
        <ele>125.316</ele>
        <time>2020-07-07T17:13:40.000Z</time>
      </trkpt>
      <trkpt lat="43.62221" lon="3.7655">
        <ele>125.416</ele>
        <time>2020-07-07T17:13:41.000Z</time>
      </trkpt>
      <trkpt lat="43.62222" lon="3.76545">
        <ele>125.516</ele>
        <time>2020-07-07T17:13:42.000Z</time>
      </trkpt>
      <trkpt lat="43.62223" lon="3.76541">
        <ele>125.616</ele>
        <time>2020-07-07T17:13:43.000Z</time>
      </trkpt>
      <trkpt lat="43.62224" lon="3.76536">
        <ele>125.716</ele>
        <time>2020-07-07T17:13:44.000Z</time>
      </trkpt>
      <trkpt lat="43.62226" lon="3.76531">
        <ele>125.816</ele>
        <time>2020-07-07T17:13:45.000Z</time>
      </trkpt>
      <trkpt lat="43.62227" lon="3.76527">
        <ele>125.916</ele>
        <time>2020-07-07T17:13:46.000Z</time>
      </trkpt>
      <trkpt lat="43.62228" lon="3.76522">
        <ele>126.01573255166</ele>
        <time>2020-07-07T17:13:47.000Z</time>
      </trkpt>
      <trkpt lat="43.62229" lon="3.76518">
        <ele>126.11406099951</ele>
        <time>2020-07-07T17:13:48.000Z</time>
      </trkpt>
      <trkpt lat="43.6223" lon="3.76513">
        <ele>126.21238944736</ele>
        <time>2020-07-07T17:13:49.000Z</time>
      </trkpt>
      <trkpt lat="43.62231" lon="3.76508">
        <ele>126.31071789521</ele>
        <time>2020-07-07T17:13:50.000Z</time>
      </trkpt>
      <trkpt lat="43.62232" lon="3.76504">
        <ele>126.40904634306</ele>
        <time>2020-07-07T17:13:51.000Z</time>
      </trkpt>
      <trkpt lat="43.62233" lon="3.76499">
        <ele>126.50737479091</ele>
        <time>2020-07-07T17:13:52.000Z</time>
      </trkpt>
      <trkpt lat="43.62234" lon="3.76495">
        <ele>126.60570323877</ele>
        <time>2020-07-07T17:13:53.000Z</time>
      </trkpt>
      <trkpt lat="43.62236" lon="3.7649">
        <ele>126.70403168662</ele>
        <time>2020-07-07T17:13:54.000Z</time>
      </trkpt>
      <trkpt lat="43.62237" lon="3.76485">
        <ele>126.80236013447</ele>
        <time>2020-07-07T17:13:55.000Z</time>
      </trkpt>
      <trkpt lat="43.62238" lon="3.7648">
        <ele>126.90068858232</ele>
        <time>2020-07-07T17:13:56.000Z</time>
      </trkpt>
      <trkpt lat="43.62239" lon="3.76475">
        <ele>126.99901703017</ele>
        <time>2020-07-07T17:13:57.000Z</time>
      </trkpt>
      <trkpt lat="43.6224" lon="3.7647">
        <ele>127</ele>
        <time>2020-07-07T17:13:58.000Z</time>
      </trkpt>
      <trkpt lat="43.62241" lon="3.76466">
        <ele>127</ele>
        <time>2020-07-07T17:13:59.000Z</time>
      </trkpt>
      <trkpt lat="43.62242" lon="3.76461">
        <ele>127</ele>
        <time>2020-07-07T17:14:00.000Z</time>
      </trkpt>
      <trkpt lat="43.62243" lon="3.76456">
        <ele>127</ele>
        <time>2020-07-07T17:14:01.000Z</time>
      </trkpt>
      <trkpt lat="43.62244" lon="3.76452">
        <ele>127</ele>
        <time>2020-07-07T17:14:02.000Z</time>
      </trkpt>
      <trkpt lat="43.62245" lon="3.76447">
        <ele>127</ele>
        <time>2020-07-07T17:14:03.000Z</time>
      </trkpt>
      <trkpt lat="43.62246" lon="3.76442">
        <ele>127</ele>
        <time>2020-07-07T17:14:04.000Z</time>
      </trkpt>
      <trkpt lat="43.62247" lon="3.76438">
        <ele>127</ele>
        <time>2020-07-07T17:14:05.000Z</time>
      </trkpt>
      <trkpt lat="43.62248" lon="3.76433">
        <ele>127</ele>
        <time>2020-07-07T17:14:06.000Z</time>
      </trkpt>
      <trkpt lat="43.62249" lon="3.76428">
        <ele>127.016</ele>
        <time>2020-07-07T17:14:07.000Z</time>
      </trkpt>
      <trkpt lat="43.6225" lon="3.76423">
        <ele>127.116</ele>
        <time>2020-07-07T17:14:08.000Z</time>
      </trkpt>
      <trkpt lat="43.62251" lon="3.76418">
        <ele>127.216</ele>
        <time>2020-07-07T17:14:09.000Z</time>
      </trkpt>
      <trkpt lat="43.62252" lon="3.76413">
        <ele>127.316</ele>
        <time>2020-07-07T17:14:10.000Z</time>
      </trkpt>
      <trkpt lat="43.62253" lon="3.76408">
        <ele>127.416</ele>
        <time>2020-07-07T17:14:11.000Z</time>
      </trkpt>
      <trkpt lat="43.62254" lon="3.76403">
        <ele>127.516</ele>
        <time>2020-07-07T17:14:12.000Z</time>
      </trkpt>
      <trkpt lat="43.62254" lon="3.76398">
        <ele>127.616</ele>
        <time>2020-07-07T17:14:13.000Z</time>
      </trkpt>
      <trkpt lat="43.62255" lon="3.76394">
        <ele>127.716</ele>
        <time>2020-07-07T17:14:14.000Z</time>
      </trkpt>
      <trkpt lat="43.62256" lon="3.76389">
        <ele>127.816</ele>
        <time>2020-07-07T17:14:15.000Z</time>
      </trkpt>
      <trkpt lat="43.62256" lon="3.76384">
        <ele>127.916</ele>
        <time>2020-07-07T17:14:16.000Z</time>
      </trkpt>
      <trkpt lat="43.62257" lon="3.76379">
        <ele>128.016</ele>
        <time>2020-07-07T17:14:17.000Z</time>
      </trkpt>
      <trkpt lat="43.62258" lon="3.76374">
        <ele>128.116</ele>
        <time>2020-07-07T17:14:18.000Z</time>
      </trkpt>
      <trkpt lat="43.62258" lon="3.76369">
        <ele>128.216</ele>
        <time>2020-07-07T17:14:19.000Z</time>
      </trkpt>
      <trkpt lat="43.62259" lon="3.76365">
        <ele>128.316</ele>
        <time>2020-07-07T17:14:20.000Z</time>
      </trkpt>
      <trkpt lat="43.6226" lon="3.7636">
        <ele>128.416</ele>
        <time>2020-07-07T17:14:21.000Z</time>
      </trkpt>
      <trkpt lat="43.6226" lon="3.76355">
        <ele>128.516</ele>
        <time>2020-07-07T17:14:22.000Z</time>
      </trkpt>
      <trkpt lat="43.62261" lon="3.7635">
        <ele>128.616</ele>
        <time>2020-07-07T17:14:23.000Z</time>
      </trkpt>
      <trkpt lat="43.62262" lon="3.76345">
        <ele>128.716</ele>
        <time>2020-07-07T17:14:24.000Z</time>
      </trkpt>
      <trkpt lat="43.62262" lon="3.76341">
        <ele>128.816</ele>
        <time>2020-07-07T17:14:25.000Z</time>
      </trkpt>
      <trkpt lat="43.62263" lon="3.76336">
        <ele>128.916</ele>
        <time>2020-07-07T17:14:26.000Z</time>
      </trkpt>
      <trkpt lat="43.62263" lon="3.76332">
        <ele>129.016</ele>
        <time>2020-07-07T17:14:27.000Z</time>
      </trkpt>
      <trkpt lat="43.62263" lon="3.76327">
        <ele>129.116</ele>
        <time>2020-07-07T17:14:28.000Z</time>
      </trkpt>
      <trkpt lat="43.62264" lon="3.76322">
        <ele>129.216</ele>
        <time>2020-07-07T17:14:29.000Z</time>
      </trkpt>
      <trkpt lat="43.62264" lon="3.76317">
        <ele>129.316</ele>
        <time>2020-07-07T17:14:30.000Z</time>
      </trkpt>
      <trkpt lat="43.62265" lon="3.76311">
        <ele>129.416</ele>
        <time>2020-07-07T17:14:31.000Z</time>
      </trkpt>
      <trkpt lat="43.62266" lon="3.76306">
        <ele>129.516</ele>
        <time>2020-07-07T17:14:32.000Z</time>
      </trkpt>
      <trkpt lat="43.62267" lon="3.76301">
        <ele>129.616</ele>
        <time>2020-07-07T17:14:33.000Z</time>
      </trkpt>
      <trkpt lat="43.62267" lon="3.76296">
        <ele>129.716</ele>
        <time>2020-07-07T17:14:34.000Z</time>
      </trkpt>
      <trkpt lat="43.62268" lon="3.76292">
        <ele>129.816</ele>
        <time>2020-07-07T17:14:35.000Z</time>
      </trkpt>
      <trkpt lat="43.62269" lon="3.76287">
        <ele>129.916</ele>
        <time>2020-07-07T17:14:36.000Z</time>
      </trkpt>
      <trkpt lat="43.6227" lon="3.76282">
        <ele>130</ele>
        <time>2020-07-07T17:14:37.000Z</time>
      </trkpt>
      <trkpt lat="43.6227" lon="3.76278">
        <ele>130</ele>
        <time>2020-07-07T17:14:38.000Z</time>
      </trkpt>
      <trkpt lat="43.62271" lon="3.76273">
        <ele>130</ele>
        <time>2020-07-07T17:14:39.000Z</time>
      </trkpt>
      <trkpt lat="43.62272" lon="3.76269">
        <ele>130</ele>
        <time>2020-07-07T17:14:40.000Z</time>
      </trkpt>
      <trkpt lat="43.62272" lon="3.76264">
        <ele>130</ele>
        <time>2020-07-07T17:14:41.000Z</time>
      </trkpt>
      <trkpt lat="43.62273" lon="3.7626">
        <ele>130</ele>
        <time>2020-07-07T17:14:42.000Z</time>
      </trkpt>
      <trkpt lat="43.62273" lon="3.76255">
        <ele>130</ele>
        <time>2020-07-07T17:14:43.000Z</time>
      </trkpt>
      <trkpt lat="43.62274" lon="3.7625">
        <ele>130</ele>
        <time>2020-07-07T17:14:44.000Z</time>
      </trkpt>
      <trkpt lat="43.62274" lon="3.76246">
        <ele>130</ele>
        <time>2020-07-07T17:14:45.000Z</time>
      </trkpt>
      <trkpt lat="43.62275" lon="3.76241">
        <ele>130</ele>
        <time>2020-07-07T17:14:46.000Z</time>
      </trkpt>
      <trkpt lat="43.62275" lon="3.76237">
        <ele>130</ele>
        <time>2020-07-07T17:14:47.000Z</time>
      </trkpt>
      <trkpt lat="43.62274" lon="3.76233">
        <ele>130</ele>
        <time>2020-07-07T17:14:48.000Z</time>
      </trkpt>
      <trkpt lat="43.62274" lon="3.76228">
        <ele>130</ele>
        <time>2020-07-07T17:14:49.000Z</time>
      </trkpt>
      <trkpt lat="43.62274" lon="3.76223">
        <ele>130</ele>
        <time>2020-07-07T17:14:50.000Z</time>
      </trkpt>
      <trkpt lat="43.62275" lon="3.76219">
        <ele>130</ele>
        <time>2020-07-07T17:14:51.000Z</time>
      </trkpt>
      <trkpt lat="43.62275" lon="3.76214">
        <ele>130</ele>
        <time>2020-07-07T17:14:52.000Z</time>
      </trkpt>
      <trkpt lat="43.62275" lon="3.76209">
        <ele>130</ele>
        <time>2020-07-07T17:14:53.000Z</time>
      </trkpt>
      <trkpt lat="43.62276" lon="3.76204">
        <ele>130</ele>
        <time>2020-07-07T17:14:54.000Z</time>
      </trkpt>
      <trkpt lat="43.62276" lon="3.762">
        <ele>130</ele>
        <time>2020-07-07T17:14:55.000Z</time>
      </trkpt>
      <trkpt lat="43.62276" lon="3.76195">
        <ele>130</ele>
        <time>2020-07-07T17:14:56.000Z</time>
      </trkpt>
      <trkpt lat="43.62276" lon="3.7619">
        <ele>130</ele>
        <time>2020-07-07T17:14:57.000Z</time>
      </trkpt>
      <trkpt lat="43.62276" lon="3.76186">
        <ele>130</ele>
        <time>2020-07-07T17:14:58.000Z</time>
      </trkpt>
      <trkpt lat="43.62277" lon="3.76181">
        <ele>130</ele>
        <time>2020-07-07T17:14:59.000Z</time>
      </trkpt>
      <trkpt lat="43.62276" lon="3.76176">
        <ele>130</ele>
        <time>2020-07-07T17:15:00.000Z</time>
      </trkpt>
      <trkpt lat="43.62276" lon="3.76172">
        <ele>130</ele>
        <time>2020-07-07T17:15:01.000Z</time>
      </trkpt>
      <trkpt lat="43.62276" lon="3.76167">
        <ele>130</ele>
        <time>2020-07-07T17:15:02.000Z</time>
      </trkpt>
      <trkpt lat="43.62276" lon="3.76162">
        <ele>130</ele>
        <time>2020-07-07T17:15:03.000Z</time>
      </trkpt>
      <trkpt lat="43.62275" lon="3.76157">
        <ele>130</ele>
        <time>2020-07-07T17:15:04.000Z</time>
      </trkpt>
      <trkpt lat="43.62275" lon="3.76153">
        <ele>130</ele>
        <time>2020-07-07T17:15:05.000Z</time>
      </trkpt>
      <trkpt lat="43.62276" lon="3.76149">
        <ele>130</ele>
        <time>2020-07-07T17:15:06.000Z</time>
      </trkpt>
      <trkpt lat="43.62276" lon="3.76145">
        <ele>130</ele>
        <time>2020-07-07T17:15:07.000Z</time>
      </trkpt>
      <trkpt lat="43.62276" lon="3.7614">
        <ele>130</ele>
        <time>2020-07-07T17:15:08.000Z</time>
      </trkpt>
      <trkpt lat="43.62276" lon="3.76136">
        <ele>130</ele>
        <time>2020-07-07T17:15:09.000Z</time>
      </trkpt>
      <trkpt lat="43.62276" lon="3.76132">
        <ele>130</ele>
        <time>2020-07-07T17:15:10.000Z</time>
      </trkpt>
      <trkpt lat="43.62276" lon="3.76127">
        <ele>130</ele>
        <time>2020-07-07T17:15:11.000Z</time>
      </trkpt>
      <trkpt lat="43.62275" lon="3.76122">
        <ele>130</ele>
        <time>2020-07-07T17:15:12.000Z</time>
      </trkpt>
      <trkpt lat="43.62275" lon="3.76118">
        <ele>130</ele>
        <time>2020-07-07T17:15:13.000Z</time>
      </trkpt>
      <trkpt lat="43.62275" lon="3.76113">
        <ele>130</ele>
        <time>2020-07-07T17:15:14.000Z</time>
      </trkpt>
      <trkpt lat="43.62275" lon="3.76108">
        <ele>130</ele>
        <time>2020-07-07T17:15:15.000Z</time>
      </trkpt>
      <trkpt lat="43.62276" lon="3.76103">
        <ele>130</ele>
        <time>2020-07-07T17:15:16.000Z</time>
      </trkpt>
      <trkpt lat="43.62276" lon="3.76099">
        <ele>130</ele>
        <time>2020-07-07T17:15:17.000Z</time>
      </trkpt>
      <trkpt lat="43.62276" lon="3.76094">
        <ele>130</ele>
        <time>2020-07-07T17:15:18.000Z</time>
      </trkpt>
      <trkpt lat="43.62276" lon="3.76089">
        <ele>130</ele>
        <time>2020-07-07T17:15:19.000Z</time>
      </trkpt>
      <trkpt lat="43.62276" lon="3.76084">
        <ele>130</ele>
        <time>2020-07-07T17:15:20.000Z</time>
      </trkpt>
      <trkpt lat="43.62276" lon="3.7608">
        <ele>130</ele>
        <time>2020-07-07T17:15:21.000Z</time>
      </trkpt>
      <trkpt lat="43.62277" lon="3.76076">
        <ele>130</ele>
        <time>2020-07-07T17:15:22.000Z</time>
      </trkpt>
      <trkpt lat="43.62277" lon="3.76071">
        <ele>130</ele>
        <time>2020-07-07T17:15:23.000Z</time>
      </trkpt>
      <trkpt lat="43.62277" lon="3.76067">
        <ele>130</ele>
        <time>2020-07-07T17:15:24.000Z</time>
      </trkpt>
      <trkpt lat="43.62277" lon="3.76062">
        <ele>130</ele>
        <time>2020-07-07T17:15:25.000Z</time>
      </trkpt>
      <trkpt lat="43.62277" lon="3.76057">
        <ele>130</ele>
        <time>2020-07-07T17:15:26.000Z</time>
      </trkpt>
      <trkpt lat="43.62277" lon="3.76053">
        <ele>130</ele>
        <time>2020-07-07T17:15:27.000Z</time>
      </trkpt>
      <trkpt lat="43.62277" lon="3.76048">
        <ele>130</ele>
        <time>2020-07-07T17:15:28.000Z</time>
      </trkpt>
      <trkpt lat="43.62277" lon="3.76043">
        <ele>130</ele>
        <time>2020-07-07T17:15:29.000Z</time>
      </trkpt>
      <trkpt lat="43.62277" lon="3.76038">
        <ele>130</ele>
        <time>2020-07-07T17:15:30.000Z</time>
      </trkpt>
      <trkpt lat="43.62277" lon="3.76034">
        <ele>130</ele>
        <time>2020-07-07T17:15:31.000Z</time>
      </trkpt>
      <trkpt lat="43.62277" lon="3.76029">
        <ele>130</ele>
        <time>2020-07-07T17:15:32.000Z</time>
      </trkpt>
      <trkpt lat="43.62277" lon="3.76024">
        <ele>130</ele>
        <time>2020-07-07T17:15:33.000Z</time>
      </trkpt>
      <trkpt lat="43.62277" lon="3.76019">
        <ele>130</ele>
        <time>2020-07-07T17:15:34.000Z</time>
      </trkpt>
      <trkpt lat="43.62277" lon="3.76014">
        <ele>130</ele>
        <time>2020-07-07T17:15:35.000Z</time>
      </trkpt>
      <trkpt lat="43.62277" lon="3.76009">
        <ele>130</ele>
        <time>2020-07-07T17:15:36.000Z</time>
      </trkpt>
      <trkpt lat="43.62277" lon="3.76005">
        <ele>130</ele>
        <time>2020-07-07T17:15:37.000Z</time>
      </trkpt>
      <trkpt lat="43.62278" lon="3.76">
        <ele>130</ele>
        <time>2020-07-07T17:15:38.000Z</time>
      </trkpt>
      <trkpt lat="43.62278" lon="3.75995">
        <ele>130</ele>
        <time>2020-07-07T17:15:39.000Z</time>
      </trkpt>
      <trkpt lat="43.62278" lon="3.7599">
        <ele>130</ele>
        <time>2020-07-07T17:15:40.000Z</time>
      </trkpt>
      <trkpt lat="43.62277" lon="3.75986">
        <ele>130</ele>
        <time>2020-07-07T17:15:41.000Z</time>
      </trkpt>
      <trkpt lat="43.62277" lon="3.75981">
        <ele>130</ele>
        <time>2020-07-07T17:15:42.000Z</time>
      </trkpt>
      <trkpt lat="43.62277" lon="3.75976">
        <ele>130</ele>
        <time>2020-07-07T17:15:43.000Z</time>
      </trkpt>
      <trkpt lat="43.62278" lon="3.75971">
        <ele>130</ele>
        <time>2020-07-07T17:15:44.000Z</time>
      </trkpt>
      <trkpt lat="43.62278" lon="3.75966">
        <ele>130</ele>
        <time>2020-07-07T17:15:45.000Z</time>
      </trkpt>
      <trkpt lat="43.62278" lon="3.75961">
        <ele>130</ele>
        <time>2020-07-07T17:15:46.000Z</time>
      </trkpt>
      <trkpt lat="43.62278" lon="3.75956">
        <ele>130</ele>
        <time>2020-07-07T17:15:47.000Z</time>
      </trkpt>
      <trkpt lat="43.62278" lon="3.75951">
        <ele>130</ele>
        <time>2020-07-07T17:15:48.000Z</time>
      </trkpt>
      <trkpt lat="43.62278" lon="3.75946">
        <ele>130</ele>
        <time>2020-07-07T17:15:49.000Z</time>
      </trkpt>
      <trkpt lat="43.62278" lon="3.75941">
        <ele>130</ele>
        <time>2020-07-07T17:15:50.000Z</time>
      </trkpt>
      <trkpt lat="43.62278" lon="3.75936">
        <ele>130</ele>
        <time>2020-07-07T17:15:51.000Z</time>
      </trkpt>
      <trkpt lat="43.62277" lon="3.75931">
        <ele>130</ele>
        <time>2020-07-07T17:15:52.000Z</time>
      </trkpt>
      <trkpt lat="43.62277" lon="3.75926">
        <ele>130</ele>
        <time>2020-07-07T17:15:53.000Z</time>
      </trkpt>
      <trkpt lat="43.62276" lon="3.75921">
        <ele>130</ele>
        <time>2020-07-07T17:15:54.000Z</time>
      </trkpt>
      <trkpt lat="43.62276" lon="3.75916">
        <ele>130</ele>
        <time>2020-07-07T17:15:55.000Z</time>
      </trkpt>
      <trkpt lat="43.62275" lon="3.75911">
        <ele>130</ele>
        <time>2020-07-07T17:15:56.000Z</time>
      </trkpt>
      <trkpt lat="43.62275" lon="3.75906">
        <ele>130</ele>
        <time>2020-07-07T17:15:57.000Z</time>
      </trkpt>
      <trkpt lat="43.62275" lon="3.759">
        <ele>130</ele>
        <time>2020-07-07T17:15:58.000Z</time>
      </trkpt>
      <trkpt lat="43.62274" lon="3.75895">
        <ele>130</ele>
        <time>2020-07-07T17:15:59.000Z</time>
      </trkpt>
      <trkpt lat="43.62274" lon="3.7589">
        <ele>130</ele>
        <time>2020-07-07T17:16:00.000Z</time>
      </trkpt>
      <trkpt lat="43.62274" lon="3.75885">
        <ele>130</ele>
        <time>2020-07-07T17:16:01.000Z</time>
      </trkpt>
      <trkpt lat="43.62274" lon="3.7588">
        <ele>130</ele>
        <time>2020-07-07T17:16:02.000Z</time>
      </trkpt>
      <trkpt lat="43.62274" lon="3.75875">
        <ele>130</ele>
        <time>2020-07-07T17:16:03.000Z</time>
      </trkpt>
      <trkpt lat="43.62274" lon="3.7587">
        <ele>130</ele>
        <time>2020-07-07T17:16:04.000Z</time>
      </trkpt>
      <trkpt lat="43.62274" lon="3.75865">
        <ele>130</ele>
        <time>2020-07-07T17:16:05.000Z</time>
      </trkpt>
      <trkpt lat="43.62275" lon="3.7586">
        <ele>130</ele>
        <time>2020-07-07T17:16:06.000Z</time>
      </trkpt>
      <trkpt lat="43.62275" lon="3.75855">
        <ele>130</ele>
        <time>2020-07-07T17:16:07.000Z</time>
      </trkpt>
      <trkpt lat="43.62275" lon="3.7585">
        <ele>130</ele>
        <time>2020-07-07T17:16:08.000Z</time>
      </trkpt>
      <trkpt lat="43.62276" lon="3.75845">
        <ele>130</ele>
        <time>2020-07-07T17:16:09.000Z</time>
      </trkpt>
      <trkpt lat="43.62277" lon="3.7584">
        <ele>130</ele>
        <time>2020-07-07T17:16:10.000Z</time>
      </trkpt>
      <trkpt lat="43.62278" lon="3.75835">
        <ele>130</ele>
        <time>2020-07-07T17:16:11.000Z</time>
      </trkpt>
      <trkpt lat="43.62279" lon="3.7583">
        <ele>130</ele>
        <time>2020-07-07T17:16:12.000Z</time>
      </trkpt>
      <trkpt lat="43.62279" lon="3.75825">
        <ele>130</ele>
        <time>2020-07-07T17:16:13.000Z</time>
      </trkpt>
      <trkpt lat="43.6228" lon="3.7582">
        <ele>130</ele>
        <time>2020-07-07T17:16:14.000Z</time>
      </trkpt>
      <trkpt lat="43.6228" lon="3.75815">
        <ele>130</ele>
        <time>2020-07-07T17:16:15.000Z</time>
      </trkpt>
      <trkpt lat="43.62281" lon="3.7581">
        <ele>130</ele>
        <time>2020-07-07T17:16:16.000Z</time>
      </trkpt>
      <trkpt lat="43.62281" lon="3.75805">
        <ele>130</ele>
        <time>2020-07-07T17:16:17.000Z</time>
      </trkpt>
      <trkpt lat="43.62281" lon="3.758">
        <ele>130</ele>
        <time>2020-07-07T17:16:18.000Z</time>
      </trkpt>
      <trkpt lat="43.62281" lon="3.75795">
        <ele>130</ele>
        <time>2020-07-07T17:16:19.000Z</time>
      </trkpt>
      <trkpt lat="43.62281" lon="3.7579">
        <ele>130</ele>
        <time>2020-07-07T17:16:20.000Z</time>
      </trkpt>
      <trkpt lat="43.62281" lon="3.75786">
        <ele>130</ele>
        <time>2020-07-07T17:16:21.000Z</time>
      </trkpt>
      <trkpt lat="43.62281" lon="3.75781">
        <ele>130</ele>
        <time>2020-07-07T17:16:22.000Z</time>
      </trkpt>
      <trkpt lat="43.62281" lon="3.75777">
        <ele>130</ele>
        <time>2020-07-07T17:16:23.000Z</time>
      </trkpt>
      <trkpt lat="43.62281" lon="3.75773">
        <ele>130</ele>
        <time>2020-07-07T17:16:24.000Z</time>
      </trkpt>
      <trkpt lat="43.62281" lon="3.75768">
        <ele>130</ele>
        <time>2020-07-07T17:16:25.000Z</time>
      </trkpt>
      <trkpt lat="43.62281" lon="3.75764">
        <ele>130</ele>
        <time>2020-07-07T17:16:26.000Z</time>
      </trkpt>
      <trkpt lat="43.62281" lon="3.75759">
        <ele>130</ele>
        <time>2020-07-07T17:16:27.000Z</time>
      </trkpt>
      <trkpt lat="43.62281" lon="3.75754">
        <ele>130</ele>
        <time>2020-07-07T17:16:28.000Z</time>
      </trkpt>
      <trkpt lat="43.6228" lon="3.75749">
        <ele>130</ele>
        <time>2020-07-07T17:16:29.000Z</time>
      </trkpt>
      <trkpt lat="43.6228" lon="3.75744">
        <ele>130</ele>
        <time>2020-07-07T17:16:30.000Z</time>
      </trkpt>
      <trkpt lat="43.6228" lon="3.75739">
        <ele>130</ele>
        <time>2020-07-07T17:16:31.000Z</time>
      </trkpt>
      <trkpt lat="43.62279" lon="3.75734">
        <ele>130</ele>
        <time>2020-07-07T17:16:32.000Z</time>
      </trkpt>
      <trkpt lat="43.62279" lon="3.75729">
        <ele>130</ele>
        <time>2020-07-07T17:16:33.000Z</time>
      </trkpt>
      <trkpt lat="43.62279" lon="3.75724">
        <ele>130</ele>
        <time>2020-07-07T17:16:34.000Z</time>
      </trkpt>
      <trkpt lat="43.62279" lon="3.7572">
        <ele>130</ele>
        <time>2020-07-07T17:16:35.000Z</time>
      </trkpt>
      <trkpt lat="43.62278" lon="3.75715">
        <ele>130</ele>
        <time>2020-07-07T17:16:36.000Z</time>
      </trkpt>
      <trkpt lat="43.62278" lon="3.7571">
        <ele>129.98426744834</ele>
        <time>2020-07-07T17:16:37.000Z</time>
      </trkpt>
      <trkpt lat="43.62278" lon="3.75705">
        <ele>129.88593900049</ele>
        <time>2020-07-07T17:16:38.000Z</time>
      </trkpt>
      <trkpt lat="43.62278" lon="3.757">
        <ele>129.78761055264</ele>
        <time>2020-07-07T17:16:39.000Z</time>
      </trkpt>
      <trkpt lat="43.62277" lon="3.75696">
        <ele>129.68928210479</ele>
        <time>2020-07-07T17:16:40.000Z</time>
      </trkpt>
      <trkpt lat="43.62275" lon="3.75691">
        <ele>129.59095365694</ele>
        <time>2020-07-07T17:16:41.000Z</time>
      </trkpt>
      <trkpt lat="43.62274" lon="3.75686">
        <ele>129.49262520909</ele>
        <time>2020-07-07T17:16:42.000Z</time>
      </trkpt>
      <trkpt lat="43.62274" lon="3.75681">
        <ele>129.39429676123</ele>
        <time>2020-07-07T17:16:43.000Z</time>
      </trkpt>
      <trkpt lat="43.62273" lon="3.75676">
        <ele>129.29596831338</ele>
        <time>2020-07-07T17:16:44.000Z</time>
      </trkpt>
      <trkpt lat="43.62272" lon="3.75672">
        <ele>129.19763986553</ele>
        <time>2020-07-07T17:16:45.000Z</time>
      </trkpt>
      <trkpt lat="43.62271" lon="3.75667">
        <ele>129.09931141768</ele>
        <time>2020-07-07T17:16:46.000Z</time>
      </trkpt>
      <trkpt lat="43.6227" lon="3.75663">
        <ele>129.00098296983</ele>
        <time>2020-07-07T17:16:47.000Z</time>
      </trkpt>
      <trkpt lat="43.62269" lon="3.75659">
        <ele>129.1006100813</ele>
        <time>2020-07-07T17:16:48.000Z</time>
      </trkpt>
      <trkpt lat="43.62268" lon="3.75654">
        <ele>129.20223609756</ele>
        <time>2020-07-07T17:16:49.000Z</time>
      </trkpt>
      <trkpt lat="43.62267" lon="3.7565">
        <ele>129.30386211382</ele>
        <time>2020-07-07T17:16:50.000Z</time>
      </trkpt>
      <trkpt lat="43.62266" lon="3.75645">
        <ele>129.40548813008</ele>
        <time>2020-07-07T17:16:51.000Z</time>
      </trkpt>
      <trkpt lat="43.62265" lon="3.75641">
        <ele>129.50711414634</ele>
        <time>2020-07-07T17:16:52.000Z</time>
      </trkpt>
      <trkpt lat="43.62263" lon="3.75637">
        <ele>129.6087401626</ele>
        <time>2020-07-07T17:16:53.000Z</time>
      </trkpt>
      <trkpt lat="43.62262" lon="3.75633">
        <ele>129.71036617886</ele>
        <time>2020-07-07T17:16:54.000Z</time>
      </trkpt>
      <trkpt lat="43.6226" lon="3.75628">
        <ele>129.81199219512</ele>
        <time>2020-07-07T17:16:55.000Z</time>
      </trkpt>
      <trkpt lat="43.62259" lon="3.75624">
        <ele>129.91361821138</ele>
        <time>2020-07-07T17:16:56.000Z</time>
      </trkpt>
      <trkpt lat="43.62258" lon="3.7562">
        <ele>129.98498466947</ele>
        <time>2020-07-07T17:16:57.000Z</time>
      </trkpt>
      <trkpt lat="43.62257" lon="3.75616">
        <ele>129.88488460144</ele>
        <time>2020-07-07T17:16:58.000Z</time>
      </trkpt>
      <trkpt lat="43.62256" lon="3.75612">
        <ele>129.7847845334</ele>
        <time>2020-07-07T17:16:59.000Z</time>
      </trkpt>
      <trkpt lat="43.62254" lon="3.75608">
        <ele>129.68468446537</ele>
        <time>2020-07-07T17:17:00.000Z</time>
      </trkpt>
      <trkpt lat="43.62252" lon="3.75604">
        <ele>129.58458439733</ele>
        <time>2020-07-07T17:17:01.000Z</time>
      </trkpt>
      <trkpt lat="43.62251" lon="3.756">
        <ele>129.48448432929</ele>
        <time>2020-07-07T17:17:02.000Z</time>
      </trkpt>
      <trkpt lat="43.62249" lon="3.75596">
        <ele>129.38438426126</ele>
        <time>2020-07-07T17:17:03.000Z</time>
      </trkpt>
      <trkpt lat="43.62247" lon="3.75593">
        <ele>129.28428419322</ele>
        <time>2020-07-07T17:17:04.000Z</time>
      </trkpt>
      <trkpt lat="43.62245" lon="3.75589">
        <ele>129.18418412519</ele>
        <time>2020-07-07T17:17:05.000Z</time>
      </trkpt>
      <trkpt lat="43.62244" lon="3.75585">
        <ele>129.08408405715</ele>
        <time>2020-07-07T17:17:06.000Z</time>
      </trkpt>
      <trkpt lat="43.62242" lon="3.75581">
        <ele>128.984</ele>
        <time>2020-07-07T17:17:07.000Z</time>
      </trkpt>
      <trkpt lat="43.6224" lon="3.75577">
        <ele>128.884</ele>
        <time>2020-07-07T17:17:08.000Z</time>
      </trkpt>
      <trkpt lat="43.62238" lon="3.75572">
        <ele>128.784</ele>
        <time>2020-07-07T17:17:09.000Z</time>
      </trkpt>
      <trkpt lat="43.62236" lon="3.75568">
        <ele>128.684</ele>
        <time>2020-07-07T17:17:10.000Z</time>
      </trkpt>
      <trkpt lat="43.62235" lon="3.75564">
        <ele>128.584</ele>
        <time>2020-07-07T17:17:11.000Z</time>
      </trkpt>
      <trkpt lat="43.62233" lon="3.75559">
        <ele>128.484</ele>
        <time>2020-07-07T17:17:12.000Z</time>
      </trkpt>
      <trkpt lat="43.62231" lon="3.75554">
        <ele>128.384</ele>
        <time>2020-07-07T17:17:13.000Z</time>
      </trkpt>
      <trkpt lat="43.62228" lon="3.7555">
        <ele>128.284</ele>
        <time>2020-07-07T17:17:14.000Z</time>
      </trkpt>
      <trkpt lat="43.62226" lon="3.75546">
        <ele>128.184</ele>
        <time>2020-07-07T17:17:15.000Z</time>
      </trkpt>
      <trkpt lat="43.62223" lon="3.75542">
        <ele>128.084</ele>
        <time>2020-07-07T17:17:16.000Z</time>
      </trkpt>
      <trkpt lat="43.62221" lon="3.75538">
        <ele>127.968</ele>
        <time>2020-07-07T17:17:17.000Z</time>
      </trkpt>
      <trkpt lat="43.62219" lon="3.75534">
        <ele>127.768</ele>
        <time>2020-07-07T17:17:18.000Z</time>
      </trkpt>
      <trkpt lat="43.62217" lon="3.75531">
        <ele>127.568</ele>
        <time>2020-07-07T17:17:19.000Z</time>
      </trkpt>
      <trkpt lat="43.62214" lon="3.75527">
        <ele>127.368</ele>
        <time>2020-07-07T17:17:20.000Z</time>
      </trkpt>
      <trkpt lat="43.62212" lon="3.75523">
        <ele>127.168</ele>
        <time>2020-07-07T17:17:21.000Z</time>
      </trkpt>
      <trkpt lat="43.6221" lon="3.75519">
        <ele>126.968</ele>
        <time>2020-07-07T17:17:22.000Z</time>
      </trkpt>
      <trkpt lat="43.62208" lon="3.75515">
        <ele>126.768</ele>
        <time>2020-07-07T17:17:23.000Z</time>
      </trkpt>
      <trkpt lat="43.62206" lon="3.75512">
        <ele>126.568</ele>
        <time>2020-07-07T17:17:24.000Z</time>
      </trkpt>
      <trkpt lat="43.62204" lon="3.75509">
        <ele>126.368</ele>
        <time>2020-07-07T17:17:25.000Z</time>
      </trkpt>
      <trkpt lat="43.62201" lon="3.75506">
        <ele>126.168</ele>
        <time>2020-07-07T17:17:26.000Z</time>
      </trkpt>
      <trkpt lat="43.62199" lon="3.75502">
        <ele>126</ele>
        <time>2020-07-07T17:17:27.000Z</time>
      </trkpt>
      <trkpt lat="43.62196" lon="3.75498">
        <ele>126</ele>
        <time>2020-07-07T17:17:28.000Z</time>
      </trkpt>
      <trkpt lat="43.62194" lon="3.75494">
        <ele>126</ele>
        <time>2020-07-07T17:17:29.000Z</time>
      </trkpt>
      <trkpt lat="43.62191" lon="3.7549">
        <ele>126</ele>
        <time>2020-07-07T17:17:30.000Z</time>
      </trkpt>
      <trkpt lat="43.62189" lon="3.75486">
        <ele>126</ele>
        <time>2020-07-07T17:17:31.000Z</time>
      </trkpt>
      <trkpt lat="43.62186" lon="3.75482">
        <ele>126</ele>
        <time>2020-07-07T17:17:32.000Z</time>
      </trkpt>
      <trkpt lat="43.62184" lon="3.75478">
        <ele>126</ele>
        <time>2020-07-07T17:17:33.000Z</time>
      </trkpt>
      <trkpt lat="43.62181" lon="3.75474">
        <ele>126</ele>
        <time>2020-07-07T17:17:34.000Z</time>
      </trkpt>
      <trkpt lat="43.62179" lon="3.7547">
        <ele>126</ele>
        <time>2020-07-07T17:17:35.000Z</time>
      </trkpt>
      <trkpt lat="43.62176" lon="3.75465">
        <ele>126</ele>
        <time>2020-07-07T17:17:36.000Z</time>
      </trkpt>
      <trkpt lat="43.62174" lon="3.75461">
        <ele>125.968</ele>
        <time>2020-07-07T17:17:37.000Z</time>
      </trkpt>
      <trkpt lat="43.62171" lon="3.75456">
        <ele>125.768</ele>
        <time>2020-07-07T17:17:38.000Z</time>
      </trkpt>
      <trkpt lat="43.62169" lon="3.75452">
        <ele>125.568</ele>
        <time>2020-07-07T17:17:39.000Z</time>
      </trkpt>
      <trkpt lat="43.62167" lon="3.75448">
        <ele>125.368</ele>
        <time>2020-07-07T17:17:40.000Z</time>
      </trkpt>
      <trkpt lat="43.62164" lon="3.75444">
        <ele>125.168</ele>
        <time>2020-07-07T17:17:41.000Z</time>
      </trkpt>
      <trkpt lat="43.62162" lon="3.7544">
        <ele>124.968</ele>
        <time>2020-07-07T17:17:42.000Z</time>
      </trkpt>
      <trkpt lat="43.6216" lon="3.75436">
        <ele>124.768</ele>
        <time>2020-07-07T17:17:43.000Z</time>
      </trkpt>
      <trkpt lat="43.62158" lon="3.75432">
        <ele>124.568</ele>
        <time>2020-07-07T17:17:44.000Z</time>
      </trkpt>
      <trkpt lat="43.62156" lon="3.75428">
        <ele>124.368</ele>
        <time>2020-07-07T17:17:45.000Z</time>
      </trkpt>
      <trkpt lat="43.62154" lon="3.75424">
        <ele>124.168</ele>
        <time>2020-07-07T17:17:46.000Z</time>
      </trkpt>
      <trkpt lat="43.62152" lon="3.7542">
        <ele>123.984</ele>
        <time>2020-07-07T17:17:47.000Z</time>
      </trkpt>
      <trkpt lat="43.6215" lon="3.75416">
        <ele>123.884</ele>
        <time>2020-07-07T17:17:48.000Z</time>
      </trkpt>
      <trkpt lat="43.62148" lon="3.75412">
        <ele>123.784</ele>
        <time>2020-07-07T17:17:49.000Z</time>
      </trkpt>
      <trkpt lat="43.62147" lon="3.75408">
        <ele>123.684</ele>
        <time>2020-07-07T17:17:50.000Z</time>
      </trkpt>
      <trkpt lat="43.62145" lon="3.75404">
        <ele>123.584</ele>
        <time>2020-07-07T17:17:51.000Z</time>
      </trkpt>
      <trkpt lat="43.62143" lon="3.754">
        <ele>123.484</ele>
        <time>2020-07-07T17:17:52.000Z</time>
      </trkpt>
      <trkpt lat="43.62141" lon="3.75395">
        <ele>123.384</ele>
        <time>2020-07-07T17:17:53.000Z</time>
      </trkpt>
      <trkpt lat="43.62139" lon="3.75391">
        <ele>123.284</ele>
        <time>2020-07-07T17:17:54.000Z</time>
      </trkpt>
      <trkpt lat="43.62137" lon="3.75386">
        <ele>123.184</ele>
        <time>2020-07-07T17:17:55.000Z</time>
      </trkpt>
      <trkpt lat="43.62136" lon="3.75382">
        <ele>123.084</ele>
        <time>2020-07-07T17:17:56.000Z</time>
      </trkpt>
      <trkpt lat="43.62134" lon="3.75377">
        <ele>122.968</ele>
        <time>2020-07-07T17:17:57.000Z</time>
      </trkpt>
      <trkpt lat="43.62132" lon="3.75372">
        <ele>122.768</ele>
        <time>2020-07-07T17:17:58.000Z</time>
      </trkpt>
      <trkpt lat="43.6213" lon="3.75368">
        <ele>122.568</ele>
        <time>2020-07-07T17:17:59.000Z</time>
      </trkpt>
      <trkpt lat="43.62128" lon="3.75363">
        <ele>122.368</ele>
        <time>2020-07-07T17:18:00.000Z</time>
      </trkpt>
      <trkpt lat="43.62126" lon="3.75358">
        <ele>122.168</ele>
        <time>2020-07-07T17:18:01.000Z</time>
      </trkpt>
      <trkpt lat="43.62123" lon="3.75353">
        <ele>121.968</ele>
        <time>2020-07-07T17:18:02.000Z</time>
      </trkpt>
      <trkpt lat="43.62121" lon="3.75348">
        <ele>121.768</ele>
        <time>2020-07-07T17:18:03.000Z</time>
      </trkpt>
      <trkpt lat="43.62119" lon="3.75343">
        <ele>121.568</ele>
        <time>2020-07-07T17:18:04.000Z</time>
      </trkpt>
      <trkpt lat="43.62117" lon="3.75339">
        <ele>121.368</ele>
        <time>2020-07-07T17:18:05.000Z</time>
      </trkpt>
      <trkpt lat="43.62114" lon="3.75335">
        <ele>121.168</ele>
        <time>2020-07-07T17:18:06.000Z</time>
      </trkpt>
      <trkpt lat="43.62113" lon="3.7533">
        <ele>121</ele>
        <time>2020-07-07T17:18:07.000Z</time>
      </trkpt>
      <trkpt lat="43.62111" lon="3.75325">
        <ele>121</ele>
        <time>2020-07-07T17:18:08.000Z</time>
      </trkpt>
      <trkpt lat="43.62109" lon="3.7532">
        <ele>121</ele>
        <time>2020-07-07T17:18:09.000Z</time>
      </trkpt>
      <trkpt lat="43.62107" lon="3.75314">
        <ele>121</ele>
        <time>2020-07-07T17:18:10.000Z</time>
      </trkpt>
      <trkpt lat="43.62105" lon="3.75309">
        <ele>121</ele>
        <time>2020-07-07T17:18:11.000Z</time>
      </trkpt>
      <trkpt lat="43.62104" lon="3.75303">
        <ele>121</ele>
        <time>2020-07-07T17:18:12.000Z</time>
      </trkpt>
      <trkpt lat="43.62102" lon="3.75298">
        <ele>121</ele>
        <time>2020-07-07T17:18:13.000Z</time>
      </trkpt>
      <trkpt lat="43.621" lon="3.75293">
        <ele>121</ele>
        <time>2020-07-07T17:18:14.000Z</time>
      </trkpt>
      <trkpt lat="43.62098" lon="3.75287">
        <ele>121</ele>
        <time>2020-07-07T17:18:15.000Z</time>
      </trkpt>
      <trkpt lat="43.62096" lon="3.75282">
        <ele>121</ele>
        <time>2020-07-07T17:18:16.000Z</time>
      </trkpt>
      <trkpt lat="43.62094" lon="3.75277">
        <ele>120.98443579767</ele>
        <time>2020-07-07T17:18:17.000Z</time>
      </trkpt>
      <trkpt lat="43.62092" lon="3.75273">
        <ele>120.88715953307</ele>
        <time>2020-07-07T17:18:18.000Z</time>
      </trkpt>
      <trkpt lat="43.6209" lon="3.75268">
        <ele>120.78988326848</ele>
        <time>2020-07-07T17:18:19.000Z</time>
      </trkpt>
      <trkpt lat="43.62089" lon="3.75263">
        <ele>120.69260700389</ele>
        <time>2020-07-07T17:18:20.000Z</time>
      </trkpt>
      <trkpt lat="43.62087" lon="3.75259">
        <ele>120.5953307393</ele>
        <time>2020-07-07T17:18:21.000Z</time>
      </trkpt>
      <trkpt lat="43.62085" lon="3.75254">
        <ele>120.49805447471</ele>
        <time>2020-07-07T17:18:22.000Z</time>
      </trkpt>
      <trkpt lat="43.62084" lon="3.75249">
        <ele>120.40077821012</ele>
        <time>2020-07-07T17:18:23.000Z</time>
      </trkpt>
      <trkpt lat="43.62082" lon="3.75244">
        <ele>120.30350194552</ele>
        <time>2020-07-07T17:18:24.000Z</time>
      </trkpt>
      <trkpt lat="43.6208" lon="3.75239">
        <ele>120.20622568093</ele>
        <time>2020-07-07T17:18:25.000Z</time>
      </trkpt>
      <trkpt lat="43.62079" lon="3.75234">
        <ele>120.10894941634</ele>
        <time>2020-07-07T17:18:26.000Z</time>
      </trkpt>
      <trkpt lat="43.62077" lon="3.75229">
        <ele>120.01167315175</ele>
        <time>2020-07-07T17:18:27.000Z</time>
      </trkpt>
      <trkpt lat="43.62076" lon="3.75223">
        <ele>120</ele>
        <time>2020-07-07T17:18:28.000Z</time>
      </trkpt>
      <trkpt lat="43.62074" lon="3.75218">
        <ele>120</ele>
        <time>2020-07-07T17:18:29.000Z</time>
      </trkpt>
      <trkpt lat="43.62073" lon="3.75213">
        <ele>120</ele>
        <time>2020-07-07T17:18:30.000Z</time>
      </trkpt>
      <trkpt lat="43.62072" lon="3.75207">
        <ele>120</ele>
        <time>2020-07-07T17:18:31.000Z</time>
      </trkpt>
      <trkpt lat="43.6207" lon="3.75201">
        <ele>120</ele>
        <time>2020-07-07T17:18:32.000Z</time>
      </trkpt>
      <trkpt lat="43.62069" lon="3.75195">
        <ele>120</ele>
        <time>2020-07-07T17:18:33.000Z</time>
      </trkpt>
      <trkpt lat="43.62068" lon="3.75189">
        <ele>120</ele>
        <time>2020-07-07T17:18:34.000Z</time>
      </trkpt>
      <trkpt lat="43.62067" lon="3.75183">
        <ele>120</ele>
        <time>2020-07-07T17:18:35.000Z</time>
      </trkpt>
      <trkpt lat="43.62066" lon="3.75177">
        <ele>120</ele>
        <time>2020-07-07T17:18:36.000Z</time>
      </trkpt>
      <trkpt lat="43.62065" lon="3.75171">
        <ele>119.98443579767</ele>
        <time>2020-07-07T17:18:37.000Z</time>
      </trkpt>
      <trkpt lat="43.62064" lon="3.75166">
        <ele>119.88715953307</ele>
        <time>2020-07-07T17:18:38.000Z</time>
      </trkpt>
      <trkpt lat="43.62063" lon="3.75161">
        <ele>119.78988326848</ele>
        <time>2020-07-07T17:18:39.000Z</time>
      </trkpt>
      <trkpt lat="43.62062" lon="3.75155">
        <ele>119.69260700389</ele>
        <time>2020-07-07T17:18:40.000Z</time>
      </trkpt>
      <trkpt lat="43.62061" lon="3.75149">
        <ele>119.5953307393</ele>
        <time>2020-07-07T17:18:41.000Z</time>
      </trkpt>
      <trkpt lat="43.62061" lon="3.75143">
        <ele>119.49805447471</ele>
        <time>2020-07-07T17:18:42.000Z</time>
      </trkpt>
      <trkpt lat="43.6206" lon="3.75137">
        <ele>119.40077821012</ele>
        <time>2020-07-07T17:18:43.000Z</time>
      </trkpt>
      <trkpt lat="43.62059" lon="3.75131">
        <ele>119.30350194552</ele>
        <time>2020-07-07T17:18:44.000Z</time>
      </trkpt>
      <trkpt lat="43.62059" lon="3.75126">
        <ele>119.20622568093</ele>
        <time>2020-07-07T17:18:45.000Z</time>
      </trkpt>
      <trkpt lat="43.62058" lon="3.7512">
        <ele>119.10894941634</ele>
        <time>2020-07-07T17:18:46.000Z</time>
      </trkpt>
      <trkpt lat="43.62058" lon="3.75114">
        <ele>119.01167315175</ele>
        <time>2020-07-07T17:18:47.000Z</time>
      </trkpt>
      <trkpt lat="43.62058" lon="3.75109">
        <ele>119</ele>
        <time>2020-07-07T17:18:48.000Z</time>
      </trkpt>
      <trkpt lat="43.62058" lon="3.75103">
        <ele>119</ele>
        <time>2020-07-07T17:18:49.000Z</time>
      </trkpt>
      <trkpt lat="43.62058" lon="3.75097">
        <ele>119</ele>
        <time>2020-07-07T17:18:50.000Z</time>
      </trkpt>
      <trkpt lat="43.62058" lon="3.7509">
        <ele>119</ele>
        <time>2020-07-07T17:18:51.000Z</time>
      </trkpt>
      <trkpt lat="43.62058" lon="3.75084">
        <ele>119</ele>
        <time>2020-07-07T17:18:52.000Z</time>
      </trkpt>
      <trkpt lat="43.62058" lon="3.75078">
        <ele>119</ele>
        <time>2020-07-07T17:18:53.000Z</time>
      </trkpt>
      <trkpt lat="43.62058" lon="3.75073">
        <ele>119</ele>
        <time>2020-07-07T17:18:54.000Z</time>
      </trkpt>
      <trkpt lat="43.62059" lon="3.75067">
        <ele>119</ele>
        <time>2020-07-07T17:18:55.000Z</time>
      </trkpt>
      <trkpt lat="43.62059" lon="3.75062">
        <ele>119</ele>
        <time>2020-07-07T17:18:56.000Z</time>
      </trkpt>
      <trkpt lat="43.6206" lon="3.75058">
        <ele>118.968</ele>
        <time>2020-07-07T17:18:57.000Z</time>
      </trkpt>
      <trkpt lat="43.6206" lon="3.75054">
        <ele>118.768</ele>
        <time>2020-07-07T17:18:58.000Z</time>
      </trkpt>
      <trkpt lat="43.62061" lon="3.75051">
        <ele>118.568</ele>
        <time>2020-07-07T17:18:59.000Z</time>
      </trkpt>
      <trkpt lat="43.62062" lon="3.75048">
        <ele>118.368</ele>
        <time>2020-07-07T17:19:00.000Z</time>
      </trkpt>
      <trkpt lat="43.62063" lon="3.75045">
        <ele>118.168</ele>
        <time>2020-07-07T17:19:01.000Z</time>
      </trkpt>
      <trkpt lat="43.62064" lon="3.75043">
        <ele>117.968</ele>
        <time>2020-07-07T17:19:02.000Z</time>
      </trkpt>
      <trkpt lat="43.62065" lon="3.7504">
        <ele>117.768</ele>
        <time>2020-07-07T17:19:03.000Z</time>
      </trkpt>
      <trkpt lat="43.62066" lon="3.75038">
        <ele>117.568</ele>
        <time>2020-07-07T17:19:04.000Z</time>
      </trkpt>
      <trkpt lat="43.62067" lon="3.75035">
        <ele>117.368</ele>
        <time>2020-07-07T17:19:05.000Z</time>
      </trkpt>
      <trkpt lat="43.62067" lon="3.75032">
        <ele>117.168</ele>
        <time>2020-07-07T17:19:06.000Z</time>
      </trkpt>
      <trkpt lat="43.62068" lon="3.75029">
        <ele>117</ele>
        <time>2020-07-07T17:19:07.000Z</time>
      </trkpt>
      <trkpt lat="43.62069" lon="3.75025">
        <ele>117</ele>
        <time>2020-07-07T17:19:08.000Z</time>
      </trkpt>
      <trkpt lat="43.6207" lon="3.75023">
        <ele>117</ele>
        <time>2020-07-07T17:19:09.000Z</time>
      </trkpt>
      <trkpt lat="43.62071" lon="3.7502">
        <ele>117</ele>
        <time>2020-07-07T17:19:10.000Z</time>
      </trkpt>
      <trkpt lat="43.62071" lon="3.75018">
        <ele>117</ele>
        <time>2020-07-07T17:19:11.000Z</time>
      </trkpt>
      <trkpt lat="43.62073" lon="3.75014">
        <ele>117</ele>
        <time>2020-07-07T17:19:13.000Z</time>
      </trkpt>
      <trkpt lat="43.62073" lon="3.75015">
        <ele>116.94978669268</ele>
        <time>2020-07-07T17:19:19.000Z</time>
      </trkpt>
      <trkpt lat="43.62075" lon="3.75004">
        <ele>114.02830217343</ele>
        <time>2020-07-07T17:19:51.000Z</time>
      </trkpt>
      <trkpt lat="43.62075" lon="3.75001">
        <ele>113.85714285714</ele>
        <time>2020-07-07T17:19:52.000Z</time>
      </trkpt>
      <trkpt lat="43.62076" lon="3.74997">
        <ele>113.64705882353</ele>
        <time>2020-07-07T17:19:53.000Z</time>
      </trkpt>
      <trkpt lat="43.62077" lon="3.74992">
        <ele>113.43697478992</ele>
        <time>2020-07-07T17:19:54.000Z</time>
      </trkpt>
      <trkpt lat="43.62078" lon="3.74987">
        <ele>113.2268907563</ele>
        <time>2020-07-07T17:19:55.000Z</time>
      </trkpt>
      <trkpt lat="43.62079" lon="3.74981">
        <ele>113.01680672269</ele>
        <time>2020-07-07T17:19:56.000Z</time>
      </trkpt>
      <trkpt lat="43.62081" lon="3.74975">
        <ele>112.80672268908</ele>
        <time>2020-07-07T17:19:57.000Z</time>
      </trkpt>
      <trkpt lat="43.62082" lon="3.74969">
        <ele>112.59663865546</ele>
        <time>2020-07-07T17:19:58.000Z</time>
      </trkpt>
      <trkpt lat="43.62083" lon="3.74962">
        <ele>112.38655462185</ele>
        <time>2020-07-07T17:19:59.000Z</time>
      </trkpt>
      <trkpt lat="43.62084" lon="3.74956">
        <ele>112.17647058824</ele>
        <time>2020-07-07T17:20:00.000Z</time>
      </trkpt>
      <trkpt lat="43.62085" lon="3.74948">
        <ele>111.98443579767</ele>
        <time>2020-07-07T17:20:01.000Z</time>
      </trkpt>
      <trkpt lat="43.62086" lon="3.7494">
        <ele>111.88715953307</ele>
        <time>2020-07-07T17:20:02.000Z</time>
      </trkpt>
      <trkpt lat="43.62088" lon="3.74933">
        <ele>111.78988326848</ele>
        <time>2020-07-07T17:20:03.000Z</time>
      </trkpt>
      <trkpt lat="43.6209" lon="3.74925">
        <ele>111.69260700389</ele>
        <time>2020-07-07T17:20:04.000Z</time>
      </trkpt>
      <trkpt lat="43.62092" lon="3.74917">
        <ele>111.5953307393</ele>
        <time>2020-07-07T17:20:05.000Z</time>
      </trkpt>
      <trkpt lat="43.62094" lon="3.7491">
        <ele>111.49805447471</ele>
        <time>2020-07-07T17:20:06.000Z</time>
      </trkpt>
      <trkpt lat="43.62096" lon="3.74902">
        <ele>111.40077821012</ele>
        <time>2020-07-07T17:20:07.000Z</time>
      </trkpt>
      <trkpt lat="43.62097" lon="3.74895">
        <ele>111.30350194552</ele>
        <time>2020-07-07T17:20:08.000Z</time>
      </trkpt>
      <trkpt lat="43.62099" lon="3.74888">
        <ele>111.20622568093</ele>
        <time>2020-07-07T17:20:09.000Z</time>
      </trkpt>
      <trkpt lat="43.621" lon="3.74882">
        <ele>111.10894941634</ele>
        <time>2020-07-07T17:20:10.000Z</time>
      </trkpt>
      <trkpt lat="43.62102" lon="3.74875">
        <ele>111.01167315175</ele>
        <time>2020-07-07T17:20:11.000Z</time>
      </trkpt>
      <trkpt lat="43.62103" lon="3.7487">
        <ele>110.81893004115</ele>
        <time>2020-07-07T17:20:12.000Z</time>
      </trkpt>
      <trkpt lat="43.62104" lon="3.74864">
        <ele>110.61316872428</ele>
        <time>2020-07-07T17:20:13.000Z</time>
      </trkpt>
      <trkpt lat="43.62105" lon="3.7486">
        <ele>110.40740740741</ele>
        <time>2020-07-07T17:20:14.000Z</time>
      </trkpt>
      <trkpt lat="43.62106" lon="3.74854">
        <ele>110.20164609053</ele>
        <time>2020-07-07T17:20:15.000Z</time>
      </trkpt>
      <trkpt lat="43.62107" lon="3.74849">
        <ele>109.99588477366</ele>
        <time>2020-07-07T17:20:16.000Z</time>
      </trkpt>
      <trkpt lat="43.62108" lon="3.74843">
        <ele>109.79012345679</ele>
        <time>2020-07-07T17:20:17.000Z</time>
      </trkpt>
      <trkpt lat="43.62109" lon="3.74838">
        <ele>109.58436213992</ele>
        <time>2020-07-07T17:20:18.000Z</time>
      </trkpt>
      <trkpt lat="43.62109" lon="3.74834">
        <ele>109.37860082305</ele>
        <time>2020-07-07T17:20:19.000Z</time>
      </trkpt>
      <trkpt lat="43.62109" lon="3.74831">
        <ele>109.17283950617</ele>
        <time>2020-07-07T17:20:20.000Z</time>
      </trkpt>
      <trkpt lat="43.62109" lon="3.74828">
        <ele>108.984</ele>
        <time>2020-07-07T17:20:21.000Z</time>
      </trkpt>
      <trkpt lat="43.62105" lon="3.74825">
        <ele>108.784</ele>
        <time>2020-07-07T17:20:23.000Z</time>
      </trkpt>
      <trkpt lat="43.62103" lon="3.74824">
        <ele>108.684</ele>
        <time>2020-07-07T17:20:24.000Z</time>
      </trkpt>
      <trkpt lat="43.621" lon="3.74822">
        <ele>108.584</ele>
        <time>2020-07-07T17:20:25.000Z</time>
      </trkpt>
      <trkpt lat="43.62096" lon="3.74821">
        <ele>108.484</ele>
        <time>2020-07-07T17:20:26.000Z</time>
      </trkpt>
      <trkpt lat="43.62093" lon="3.74821">
        <ele>108.384</ele>
        <time>2020-07-07T17:20:27.000Z</time>
      </trkpt>
      <trkpt lat="43.62091" lon="3.74823">
        <ele>108.284</ele>
        <time>2020-07-07T17:20:28.000Z</time>
      </trkpt>
      <trkpt lat="43.62088" lon="3.74826">
        <ele>108.184</ele>
        <time>2020-07-07T17:20:29.000Z</time>
      </trkpt>
      <trkpt lat="43.62085" lon="3.7483">
        <ele>108.084</ele>
        <time>2020-07-07T17:20:30.000Z</time>
      </trkpt>
      <trkpt lat="43.62082" lon="3.74833">
        <ele>107.98418972332</ele>
        <time>2020-07-07T17:20:31.000Z</time>
      </trkpt>
      <trkpt lat="43.62079" lon="3.74836">
        <ele>107.88537549407</ele>
        <time>2020-07-07T17:20:32.000Z</time>
      </trkpt>
      <trkpt lat="43.62075" lon="3.74839">
        <ele>107.78656126482</ele>
        <time>2020-07-07T17:20:33.000Z</time>
      </trkpt>
      <trkpt lat="43.62072" lon="3.74843">
        <ele>107.68774703557</ele>
        <time>2020-07-07T17:20:34.000Z</time>
      </trkpt>
      <trkpt lat="43.62069" lon="3.74847">
        <ele>107.58893280632</ele>
        <time>2020-07-07T17:20:35.000Z</time>
      </trkpt>
      <trkpt lat="43.62067" lon="3.74851">
        <ele>107.49011857707</ele>
        <time>2020-07-07T17:20:36.000Z</time>
      </trkpt>
      <trkpt lat="43.62066" lon="3.74856">
        <ele>107.39130434783</ele>
        <time>2020-07-07T17:20:37.000Z</time>
      </trkpt>
      <trkpt lat="43.62064" lon="3.74859">
        <ele>107.29249011858</ele>
        <time>2020-07-07T17:20:38.000Z</time>
      </trkpt>
      <trkpt lat="43.62062" lon="3.74863">
        <ele>107.19367588933</ele>
        <time>2020-07-07T17:20:39.000Z</time>
      </trkpt>
      <trkpt lat="43.62059" lon="3.74865">
        <ele>107.09486166008</ele>
        <time>2020-07-07T17:20:40.000Z</time>
      </trkpt>
      <trkpt lat="43.62057" lon="3.74866">
        <ele>106.99190283401</ele>
        <time>2020-07-07T17:20:41.000Z</time>
      </trkpt>
      <trkpt lat="43.62056" lon="3.74869">
        <ele>106.78947368421</ele>
        <time>2020-07-07T17:20:42.000Z</time>
      </trkpt>
      <trkpt lat="43.62056" lon="3.74872">
        <ele>106.58704453441</ele>
        <time>2020-07-07T17:20:43.000Z</time>
      </trkpt>
      <trkpt lat="43.62056" lon="3.74877">
        <ele>106.38461538462</ele>
        <time>2020-07-07T17:20:44.000Z</time>
      </trkpt>
      <trkpt lat="43.62057" lon="3.74882">
        <ele>106.18218623482</ele>
        <time>2020-07-07T17:20:45.000Z</time>
      </trkpt>
      <trkpt lat="43.62057" lon="3.74887">
        <ele>105.97975708502</ele>
        <time>2020-07-07T17:20:46.000Z</time>
      </trkpt>
      <trkpt lat="43.62057" lon="3.74893">
        <ele>105.77732793522</ele>
        <time>2020-07-07T17:20:47.000Z</time>
      </trkpt>
      <trkpt lat="43.62057" lon="3.74899">
        <ele>105.57489878543</ele>
        <time>2020-07-07T17:20:48.000Z</time>
      </trkpt>
      <trkpt lat="43.62057" lon="3.74905">
        <ele>105.37246963563</ele>
        <time>2020-07-07T17:20:49.000Z</time>
      </trkpt>
      <trkpt lat="43.62057" lon="3.7491">
        <ele>105.17004048583</ele>
        <time>2020-07-07T17:20:50.000Z</time>
      </trkpt>
      <trkpt lat="43.62056" lon="3.74916">
        <ele>104.984</ele>
        <time>2020-07-07T17:20:51.000Z</time>
      </trkpt>
      <trkpt lat="43.62055" lon="3.74922">
        <ele>104.884</ele>
        <time>2020-07-07T17:20:52.000Z</time>
      </trkpt>
      <trkpt lat="43.62054" lon="3.74926">
        <ele>104.784</ele>
        <time>2020-07-07T17:20:53.000Z</time>
      </trkpt>
      <trkpt lat="43.62051" lon="3.74929">
        <ele>104.684</ele>
        <time>2020-07-07T17:20:54.000Z</time>
      </trkpt>
      <trkpt lat="43.62049" lon="3.74929">
        <ele>104.584</ele>
        <time>2020-07-07T17:20:55.000Z</time>
      </trkpt>
      <trkpt lat="43.62046" lon="3.7493">
        <ele>104.484</ele>
        <time>2020-07-07T17:20:56.000Z</time>
      </trkpt>
      <trkpt lat="43.62043" lon="3.74932">
        <ele>104.384</ele>
        <time>2020-07-07T17:20:57.000Z</time>
      </trkpt>
      <trkpt lat="43.62041" lon="3.74935">
        <ele>104.284</ele>
        <time>2020-07-07T17:20:58.000Z</time>
      </trkpt>
      <trkpt lat="43.6204" lon="3.74938">
        <ele>104.184</ele>
        <time>2020-07-07T17:20:59.000Z</time>
      </trkpt>
      <trkpt lat="43.62039" lon="3.74941">
        <ele>104.084</ele>
        <time>2020-07-07T17:21:00.000Z</time>
      </trkpt>
      <trkpt lat="43.62038" lon="3.74945">
        <ele>104</ele>
        <time>2020-07-07T17:21:01.000Z</time>
      </trkpt>
      <trkpt lat="43.62036" lon="3.74949">
        <ele>104</ele>
        <time>2020-07-07T17:21:02.000Z</time>
      </trkpt>
      <trkpt lat="43.62035" lon="3.74954">
        <ele>104</ele>
        <time>2020-07-07T17:21:03.000Z</time>
      </trkpt>
      <trkpt lat="43.62033" lon="3.7496">
        <ele>104</ele>
        <time>2020-07-07T17:21:04.000Z</time>
      </trkpt>
      <trkpt lat="43.62032" lon="3.74966">
        <ele>104</ele>
        <time>2020-07-07T17:21:05.000Z</time>
      </trkpt>
      <trkpt lat="43.6203" lon="3.74971">
        <ele>104</ele>
        <time>2020-07-07T17:21:06.000Z</time>
      </trkpt>
      <trkpt lat="43.62028" lon="3.74977">
        <ele>104</ele>
        <time>2020-07-07T17:21:07.000Z</time>
      </trkpt>
      <trkpt lat="43.62026" lon="3.74981">
        <ele>104</ele>
        <time>2020-07-07T17:21:08.000Z</time>
      </trkpt>
      <trkpt lat="43.62022" lon="3.74984">
        <ele>104</ele>
        <time>2020-07-07T17:21:09.000Z</time>
      </trkpt>
      <trkpt lat="43.6202" lon="3.74987">
        <ele>104</ele>
        <time>2020-07-07T17:21:10.000Z</time>
      </trkpt>
      <trkpt lat="43.62018" lon="3.74991">
        <ele>103.9824945418</ele>
        <time>2020-07-07T17:21:11.000Z</time>
      </trkpt>
      <trkpt lat="43.62017" lon="3.74996">
        <ele>103.87308542804</ele>
        <time>2020-07-07T17:21:12.000Z</time>
      </trkpt>
      <trkpt lat="43.62016" lon="3.75001">
        <ele>103.76367631428</ele>
        <time>2020-07-07T17:21:13.000Z</time>
      </trkpt>
      <trkpt lat="43.62015" lon="3.75005">
        <ele>103.65426720051</ele>
        <time>2020-07-07T17:21:14.000Z</time>
      </trkpt>
      <trkpt lat="43.62013" lon="3.75007">
        <ele>103.54485808675</ele>
        <time>2020-07-07T17:21:15.000Z</time>
      </trkpt>
      <trkpt lat="43.62013" lon="3.75007">
        <ele>103</ele>
        <time>2020-07-07T17:21:20.000Z</time>
      </trkpt>
      <trkpt lat="43.62011" lon="3.75012">
        <ele>103</ele>
        <time>2020-07-07T17:21:41.000Z</time>
      </trkpt>
      <trkpt lat="43.6201" lon="3.75013">
        <ele>103</ele>
        <time>2020-07-07T17:21:42.000Z</time>
      </trkpt>
      <trkpt lat="43.62008" lon="3.75016">
        <ele>103</ele>
        <time>2020-07-07T17:21:43.000Z</time>
      </trkpt>
      <trkpt lat="43.62006" lon="3.75018">
        <ele>103</ele>
        <time>2020-07-07T17:21:44.000Z</time>
      </trkpt>
      <trkpt lat="43.62004" lon="3.75019">
        <ele>103</ele>
        <time>2020-07-07T17:21:45.000Z</time>
      </trkpt>
      <trkpt lat="43.62001" lon="3.75021">
        <ele>103</ele>
        <time>2020-07-07T17:21:46.000Z</time>
      </trkpt>
      <trkpt lat="43.61999" lon="3.75023">
        <ele>103</ele>
        <time>2020-07-07T17:21:47.000Z</time>
      </trkpt>
      <trkpt lat="43.61996" lon="3.75025">
        <ele>103</ele>
        <time>2020-07-07T17:21:48.000Z</time>
      </trkpt>
      <trkpt lat="43.61994" lon="3.75027">
        <ele>103</ele>
        <time>2020-07-07T17:21:49.000Z</time>
      </trkpt>
      <trkpt lat="43.61991" lon="3.7503">
        <ele>103</ele>
        <time>2020-07-07T17:21:50.000Z</time>
      </trkpt>
      <trkpt lat="43.61988" lon="3.75032">
        <ele>102.98440546782</ele>
        <time>2020-07-07T17:21:51.000Z</time>
      </trkpt>
      <trkpt lat="43.61985" lon="3.75033">
        <ele>102.88693964167</ele>
        <time>2020-07-07T17:21:52.000Z</time>
      </trkpt>
      <trkpt lat="43.61982" lon="3.75033">
        <ele>102.78947381553</ele>
        <time>2020-07-07T17:21:53.000Z</time>
      </trkpt>
      <trkpt lat="43.61979" lon="3.75035">
        <ele>102.69200798939</ele>
        <time>2020-07-07T17:21:54.000Z</time>
      </trkpt>
      <trkpt lat="43.61976" lon="3.75038">
        <ele>102.59454216325</ele>
        <time>2020-07-07T17:21:55.000Z</time>
      </trkpt>
      <trkpt lat="43.61972" lon="3.75039">
        <ele>102.49707633711</ele>
        <time>2020-07-07T17:21:56.000Z</time>
      </trkpt>
      <trkpt lat="43.61968" lon="3.7504">
        <ele>102.39961051096</ele>
        <time>2020-07-07T17:21:57.000Z</time>
      </trkpt>
      <trkpt lat="43.61964" lon="3.75042">
        <ele>102.30214468482</ele>
        <time>2020-07-07T17:21:58.000Z</time>
      </trkpt>
      <trkpt lat="43.6196" lon="3.75044">
        <ele>102.20467885868</ele>
        <time>2020-07-07T17:21:59.000Z</time>
      </trkpt>
      <trkpt lat="43.61955" lon="3.75047">
        <ele>102.10721303254</ele>
        <time>2020-07-07T17:22:00.000Z</time>
      </trkpt>
      <trkpt lat="43.61951" lon="3.75051">
        <ele>102.0097472064</ele>
        <time>2020-07-07T17:22:01.000Z</time>
      </trkpt>
      <trkpt lat="43.61947" lon="3.75054">
        <ele>102</ele>
        <time>2020-07-07T17:22:02.000Z</time>
      </trkpt>
      <trkpt lat="43.61943" lon="3.75057">
        <ele>102</ele>
        <time>2020-07-07T17:22:03.000Z</time>
      </trkpt>
      <trkpt lat="43.61939" lon="3.75059">
        <ele>102</ele>
        <time>2020-07-07T17:22:04.000Z</time>
      </trkpt>
      <trkpt lat="43.61935" lon="3.75061">
        <ele>102</ele>
        <time>2020-07-07T17:22:05.000Z</time>
      </trkpt>
      <trkpt lat="43.61932" lon="3.75063">
        <ele>102</ele>
        <time>2020-07-07T17:22:06.000Z</time>
      </trkpt>
      <trkpt lat="43.61929" lon="3.75066">
        <ele>102</ele>
        <time>2020-07-07T17:22:07.000Z</time>
      </trkpt>
      <trkpt lat="43.61926" lon="3.75068">
        <ele>102</ele>
        <time>2020-07-07T17:22:08.000Z</time>
      </trkpt>
      <trkpt lat="43.61922" lon="3.7507">
        <ele>102</ele>
        <time>2020-07-07T17:22:09.000Z</time>
      </trkpt>
      <trkpt lat="43.61917" lon="3.75072">
        <ele>102</ele>
        <time>2020-07-07T17:22:10.000Z</time>
      </trkpt>
      <trkpt lat="43.61913" lon="3.75074">
        <ele>102</ele>
        <time>2020-07-07T17:22:11.000Z</time>
      </trkpt>
      <trkpt lat="43.61908" lon="3.75076">
        <ele>102</ele>
        <time>2020-07-07T17:22:12.000Z</time>
      </trkpt>
      <trkpt lat="43.61903" lon="3.75078">
        <ele>102</ele>
        <time>2020-07-07T17:22:13.000Z</time>
      </trkpt>
      <trkpt lat="43.61898" lon="3.7508">
        <ele>102</ele>
        <time>2020-07-07T17:22:14.000Z</time>
      </trkpt>
      <trkpt lat="43.61893" lon="3.75081">
        <ele>102</ele>
        <time>2020-07-07T17:22:15.000Z</time>
      </trkpt>
      <trkpt lat="43.61888" lon="3.75082">
        <ele>102</ele>
        <time>2020-07-07T17:22:16.000Z</time>
      </trkpt>
      <trkpt lat="43.61883" lon="3.75083">
        <ele>102</ele>
        <time>2020-07-07T17:22:17.000Z</time>
      </trkpt>
      <trkpt lat="43.61878" lon="3.75084">
        <ele>102</ele>
        <time>2020-07-07T17:22:18.000Z</time>
      </trkpt>
      <trkpt lat="43.61873" lon="3.75085">
        <ele>102</ele>
        <time>2020-07-07T17:22:19.000Z</time>
      </trkpt>
      <trkpt lat="43.61868" lon="3.75086">
        <ele>102</ele>
        <time>2020-07-07T17:22:20.000Z</time>
      </trkpt>
      <trkpt lat="43.61863" lon="3.75087">
        <ele>102</ele>
        <time>2020-07-07T17:22:21.000Z</time>
      </trkpt>
      <trkpt lat="43.61858" lon="3.75088">
        <ele>102</ele>
        <time>2020-07-07T17:22:22.000Z</time>
      </trkpt>
      <trkpt lat="43.61853" lon="3.7509">
        <ele>102</ele>
        <time>2020-07-07T17:22:23.000Z</time>
      </trkpt>
      <trkpt lat="43.61848" lon="3.75091">
        <ele>102</ele>
        <time>2020-07-07T17:22:24.000Z</time>
      </trkpt>
      <trkpt lat="43.61843" lon="3.75094">
        <ele>102</ele>
        <time>2020-07-07T17:22:25.000Z</time>
      </trkpt>
      <trkpt lat="43.61838" lon="3.75096">
        <ele>102</ele>
        <time>2020-07-07T17:22:26.000Z</time>
      </trkpt>
      <trkpt lat="43.61833" lon="3.75099">
        <ele>102</ele>
        <time>2020-07-07T17:22:27.000Z</time>
      </trkpt>
      <trkpt lat="43.61829" lon="3.75102">
        <ele>102</ele>
        <time>2020-07-07T17:22:28.000Z</time>
      </trkpt>
      <trkpt lat="43.61824" lon="3.75105">
        <ele>102</ele>
        <time>2020-07-07T17:22:29.000Z</time>
      </trkpt>
      <trkpt lat="43.6182" lon="3.75108">
        <ele>102</ele>
        <time>2020-07-07T17:22:30.000Z</time>
      </trkpt>
      <trkpt lat="43.61816" lon="3.75111">
        <ele>102</ele>
        <time>2020-07-07T17:22:31.000Z</time>
      </trkpt>
      <trkpt lat="43.61812" lon="3.75115">
        <ele>102</ele>
        <time>2020-07-07T17:22:32.000Z</time>
      </trkpt>
      <trkpt lat="43.61808" lon="3.75118">
        <ele>102</ele>
        <time>2020-07-07T17:22:33.000Z</time>
      </trkpt>
      <trkpt lat="43.61805" lon="3.75121">
        <ele>102</ele>
        <time>2020-07-07T17:22:34.000Z</time>
      </trkpt>
      <trkpt lat="43.61801" lon="3.75123">
        <ele>102</ele>
        <time>2020-07-07T17:22:35.000Z</time>
      </trkpt>
      <trkpt lat="43.61798" lon="3.75123">
        <ele>102</ele>
        <time>2020-07-07T17:22:36.000Z</time>
      </trkpt>
      <trkpt lat="43.61796" lon="3.75121">
        <ele>102</ele>
        <time>2020-07-07T17:22:37.000Z</time>
      </trkpt>
      <trkpt lat="43.61795" lon="3.75117">
        <ele>102</ele>
        <time>2020-07-07T17:22:38.000Z</time>
      </trkpt>
      <trkpt lat="43.61795" lon="3.75114">
        <ele>102</ele>
        <time>2020-07-07T17:22:39.000Z</time>
      </trkpt>
      <trkpt lat="43.61795" lon="3.75109">
        <ele>102</ele>
        <time>2020-07-07T17:22:40.000Z</time>
      </trkpt>
      <trkpt lat="43.61795" lon="3.75105">
        <ele>102.016</ele>
        <time>2020-07-07T17:22:41.000Z</time>
      </trkpt>
      <trkpt lat="43.61796" lon="3.75101">
        <ele>102.116</ele>
        <time>2020-07-07T17:22:42.000Z</time>
      </trkpt>
      <trkpt lat="43.61795" lon="3.75096">
        <ele>102.216</ele>
        <time>2020-07-07T17:22:43.000Z</time>
      </trkpt>
      <trkpt lat="43.61795" lon="3.75091">
        <ele>102.316</ele>
        <time>2020-07-07T17:22:44.000Z</time>
      </trkpt>
      <trkpt lat="43.61795" lon="3.75085">
        <ele>102.416</ele>
        <time>2020-07-07T17:22:45.000Z</time>
      </trkpt>
      <trkpt lat="43.61795" lon="3.75079">
        <ele>102.516</ele>
        <time>2020-07-07T17:22:46.000Z</time>
      </trkpt>
      <trkpt lat="43.61796" lon="3.75073">
        <ele>102.616</ele>
        <time>2020-07-07T17:22:47.000Z</time>
      </trkpt>
      <trkpt lat="43.61798" lon="3.75068">
        <ele>102.716</ele>
        <time>2020-07-07T17:22:48.000Z</time>
      </trkpt>
      <trkpt lat="43.61799" lon="3.75062">
        <ele>102.816</ele>
        <time>2020-07-07T17:22:49.000Z</time>
      </trkpt>
      <trkpt lat="43.61802" lon="3.75058">
        <ele>102.916</ele>
        <time>2020-07-07T17:22:50.000Z</time>
      </trkpt>
      <trkpt lat="43.61803" lon="3.75053">
        <ele>103.032</ele>
        <time>2020-07-07T17:22:51.000Z</time>
      </trkpt>
      <trkpt lat="43.61804" lon="3.75048">
        <ele>103.232</ele>
        <time>2020-07-07T17:22:52.000Z</time>
      </trkpt>
      <trkpt lat="43.61804" lon="3.75044">
        <ele>103.432</ele>
        <time>2020-07-07T17:22:53.000Z</time>
      </trkpt>
      <trkpt lat="43.61804" lon="3.7504">
        <ele>103.632</ele>
        <time>2020-07-07T17:22:54.000Z</time>
      </trkpt>
      <trkpt lat="43.61805" lon="3.75036">
        <ele>103.832</ele>
        <time>2020-07-07T17:22:55.000Z</time>
      </trkpt>
      <trkpt lat="43.61804" lon="3.75031">
        <ele>104.032</ele>
        <time>2020-07-07T17:22:56.000Z</time>
      </trkpt>
      <trkpt lat="43.61805" lon="3.75026">
        <ele>104.232</ele>
        <time>2020-07-07T17:22:57.000Z</time>
      </trkpt>
      <trkpt lat="43.61805" lon="3.75022">
        <ele>104.432</ele>
        <time>2020-07-07T17:22:58.000Z</time>
      </trkpt>
      <trkpt lat="43.61806" lon="3.75017">
        <ele>104.632</ele>
        <time>2020-07-07T17:22:59.000Z</time>
      </trkpt>
      <trkpt lat="43.61807" lon="3.75011">
        <ele>104.832</ele>
        <time>2020-07-07T17:23:00.000Z</time>
      </trkpt>
      <trkpt lat="43.61807" lon="3.75005">
        <ele>105.016</ele>
        <time>2020-07-07T17:23:01.000Z</time>
      </trkpt>
      <trkpt lat="43.61806" lon="3.74999">
        <ele>105.116</ele>
        <time>2020-07-07T17:23:02.000Z</time>
      </trkpt>
      <trkpt lat="43.61806" lon="3.74993">
        <ele>105.216</ele>
        <time>2020-07-07T17:23:03.000Z</time>
      </trkpt>
      <trkpt lat="43.61805" lon="3.74988">
        <ele>105.316</ele>
        <time>2020-07-07T17:23:04.000Z</time>
      </trkpt>
      <trkpt lat="43.61803" lon="3.74981">
        <ele>105.416</ele>
        <time>2020-07-07T17:23:05.000Z</time>
      </trkpt>
      <trkpt lat="43.61801" lon="3.74974">
        <ele>105.516</ele>
        <time>2020-07-07T17:23:06.000Z</time>
      </trkpt>
      <trkpt lat="43.61799" lon="3.74968">
        <ele>105.616</ele>
        <time>2020-07-07T17:23:07.000Z</time>
      </trkpt>
      <trkpt lat="43.61796" lon="3.74963">
        <ele>105.716</ele>
        <time>2020-07-07T17:23:08.000Z</time>
      </trkpt>
      <trkpt lat="43.61794" lon="3.74958">
        <ele>105.816</ele>
        <time>2020-07-07T17:23:09.000Z</time>
      </trkpt>
      <trkpt lat="43.61792" lon="3.74953">
        <ele>105.916</ele>
        <time>2020-07-07T17:23:10.000Z</time>
      </trkpt>
      <trkpt lat="43.61789" lon="3.74949">
        <ele>106</ele>
        <time>2020-07-07T17:23:11.000Z</time>
      </trkpt>
      <trkpt lat="43.61787" lon="3.74945">
        <ele>106</ele>
        <time>2020-07-07T17:23:12.000Z</time>
      </trkpt>
      <trkpt lat="43.61785" lon="3.74941">
        <ele>106</ele>
        <time>2020-07-07T17:23:13.000Z</time>
      </trkpt>
      <trkpt lat="43.61782" lon="3.74937">
        <ele>106</ele>
        <time>2020-07-07T17:23:14.000Z</time>
      </trkpt>
      <trkpt lat="43.61779" lon="3.74933">
        <ele>106</ele>
        <time>2020-07-07T17:23:15.000Z</time>
      </trkpt>
      <trkpt lat="43.61776" lon="3.7493">
        <ele>106</ele>
        <time>2020-07-07T17:23:16.000Z</time>
      </trkpt>
      <trkpt lat="43.61773" lon="3.74927">
        <ele>106</ele>
        <time>2020-07-07T17:23:17.000Z</time>
      </trkpt>
      <trkpt lat="43.6177" lon="3.74923">
        <ele>106</ele>
        <time>2020-07-07T17:23:18.000Z</time>
      </trkpt>
      <trkpt lat="43.61767" lon="3.7492">
        <ele>106</ele>
        <time>2020-07-07T17:23:19.000Z</time>
      </trkpt>
      <trkpt lat="43.61764" lon="3.74917">
        <ele>106</ele>
        <time>2020-07-07T17:23:20.000Z</time>
      </trkpt>
      <trkpt lat="43.6176" lon="3.74914">
        <ele>106.01812624955</ele>
        <time>2020-07-07T17:23:21.000Z</time>
      </trkpt>
      <trkpt lat="43.61756" lon="3.74911">
        <ele>106.21953618354</ele>
        <time>2020-07-07T17:23:22.000Z</time>
      </trkpt>
      <trkpt lat="43.61753" lon="3.74908">
        <ele>106.42094611753</ele>
        <time>2020-07-07T17:23:23.000Z</time>
      </trkpt>
      <trkpt lat="43.61749" lon="3.74905">
        <ele>106.62235605151</ele>
        <time>2020-07-07T17:23:24.000Z</time>
      </trkpt>
      <trkpt lat="43.61746" lon="3.74903">
        <ele>106.8237659855</ele>
        <time>2020-07-07T17:23:25.000Z</time>
      </trkpt>
      <trkpt lat="43.61742" lon="3.74901">
        <ele>107.02517591949</ele>
        <time>2020-07-07T17:23:26.000Z</time>
      </trkpt>
      <trkpt lat="43.61738" lon="3.749">
        <ele>107.22658585348</ele>
        <time>2020-07-07T17:23:27.000Z</time>
      </trkpt>
      <trkpt lat="43.61735" lon="3.74898">
        <ele>107.42799578747</ele>
        <time>2020-07-07T17:23:28.000Z</time>
      </trkpt>
      <trkpt lat="43.61731" lon="3.74897">
        <ele>107.62940572146</ele>
        <time>2020-07-07T17:23:29.000Z</time>
      </trkpt>
      <trkpt lat="43.61727" lon="3.74896">
        <ele>107.83081565545</ele>
        <time>2020-07-07T17:23:30.000Z</time>
      </trkpt>
      <trkpt lat="43.61723" lon="3.74895">
        <ele>108.032</ele>
        <time>2020-07-07T17:23:31.000Z</time>
      </trkpt>
      <trkpt lat="43.61719" lon="3.74894">
        <ele>108.232</ele>
        <time>2020-07-07T17:23:32.000Z</time>
      </trkpt>
      <trkpt lat="43.61716" lon="3.74891">
        <ele>108.432</ele>
        <time>2020-07-07T17:23:33.000Z</time>
      </trkpt>
      <trkpt lat="43.61713" lon="3.74888">
        <ele>108.632</ele>
        <time>2020-07-07T17:23:34.000Z</time>
      </trkpt>
      <trkpt lat="43.6171" lon="3.74885">
        <ele>108.832</ele>
        <time>2020-07-07T17:23:35.000Z</time>
      </trkpt>
      <trkpt lat="43.61708" lon="3.74881">
        <ele>109.032</ele>
        <time>2020-07-07T17:23:36.000Z</time>
      </trkpt>
      <trkpt lat="43.61705" lon="3.74876">
        <ele>109.232</ele>
        <time>2020-07-07T17:23:37.000Z</time>
      </trkpt>
      <trkpt lat="43.61702" lon="3.74871">
        <ele>109.432</ele>
        <time>2020-07-07T17:23:38.000Z</time>
      </trkpt>
      <trkpt lat="43.617" lon="3.74865">
        <ele>109.632</ele>
        <time>2020-07-07T17:23:39.000Z</time>
      </trkpt>
      <trkpt lat="43.61697" lon="3.74859">
        <ele>109.832</ele>
        <time>2020-07-07T17:23:40.000Z</time>
      </trkpt>
      <trkpt lat="43.61696" lon="3.74854">
        <ele>110.048</ele>
        <time>2020-07-07T17:23:41.000Z</time>
      </trkpt>
      <trkpt lat="43.61695" lon="3.74848">
        <ele>110.348</ele>
        <time>2020-07-07T17:23:42.000Z</time>
      </trkpt>
      <trkpt lat="43.61694" lon="3.74842">
        <ele>110.648</ele>
        <time>2020-07-07T17:23:43.000Z</time>
      </trkpt>
      <trkpt lat="43.61694" lon="3.74835">
        <ele>110.948</ele>
        <time>2020-07-07T17:23:44.000Z</time>
      </trkpt>
      <trkpt lat="43.61694" lon="3.74829">
        <ele>111.248</ele>
        <time>2020-07-07T17:23:45.000Z</time>
      </trkpt>
      <trkpt lat="43.61694" lon="3.74822">
        <ele>111.548</ele>
        <time>2020-07-07T17:23:46.000Z</time>
      </trkpt>
      <trkpt lat="43.61694" lon="3.74816">
        <ele>111.848</ele>
        <time>2020-07-07T17:23:47.000Z</time>
      </trkpt>
      <trkpt lat="43.61693" lon="3.7481">
        <ele>112.148</ele>
        <time>2020-07-07T17:23:48.000Z</time>
      </trkpt>
      <trkpt lat="43.61693" lon="3.74805">
        <ele>112.448</ele>
        <time>2020-07-07T17:23:49.000Z</time>
      </trkpt>
      <trkpt lat="43.61692" lon="3.748">
        <ele>112.748</ele>
        <time>2020-07-07T17:23:50.000Z</time>
      </trkpt>
      <trkpt lat="43.6169" lon="3.74795">
        <ele>113.032</ele>
        <time>2020-07-07T17:23:51.000Z</time>
      </trkpt>
      <trkpt lat="43.61688" lon="3.74791">
        <ele>113.232</ele>
        <time>2020-07-07T17:23:52.000Z</time>
      </trkpt>
      <trkpt lat="43.61686" lon="3.74786">
        <ele>113.432</ele>
        <time>2020-07-07T17:23:53.000Z</time>
      </trkpt>
      <trkpt lat="43.61685" lon="3.7478">
        <ele>113.632</ele>
        <time>2020-07-07T17:23:54.000Z</time>
      </trkpt>
      <trkpt lat="43.61683" lon="3.74775">
        <ele>113.832</ele>
        <time>2020-07-07T17:23:55.000Z</time>
      </trkpt>
      <trkpt lat="43.61681" lon="3.7477">
        <ele>114.032</ele>
        <time>2020-07-07T17:23:56.000Z</time>
      </trkpt>
      <trkpt lat="43.61679" lon="3.74766">
        <ele>114.232</ele>
        <time>2020-07-07T17:23:57.000Z</time>
      </trkpt>
      <trkpt lat="43.61677" lon="3.74761">
        <ele>114.432</ele>
        <time>2020-07-07T17:23:58.000Z</time>
      </trkpt>
      <trkpt lat="43.61676" lon="3.74756">
        <ele>114.632</ele>
        <time>2020-07-07T17:23:59.000Z</time>
      </trkpt>
      <trkpt lat="43.61674" lon="3.74752">
        <ele>114.832</ele>
        <time>2020-07-07T17:24:00.000Z</time>
      </trkpt>
      <trkpt lat="43.61672" lon="3.74748">
        <ele>115</ele>
        <time>2020-07-07T17:24:01.000Z</time>
      </trkpt>
      <trkpt lat="43.6167" lon="3.74743">
        <ele>115</ele>
        <time>2020-07-07T17:24:02.000Z</time>
      </trkpt>
      <trkpt lat="43.61668" lon="3.74739">
        <ele>115</ele>
        <time>2020-07-07T17:24:03.000Z</time>
      </trkpt>
      <trkpt lat="43.61666" lon="3.74734">
        <ele>115</ele>
        <time>2020-07-07T17:24:04.000Z</time>
      </trkpt>
      <trkpt lat="43.61664" lon="3.7473">
        <ele>115</ele>
        <time>2020-07-07T17:24:05.000Z</time>
      </trkpt>
      <trkpt lat="43.61663" lon="3.74725">
        <ele>115</ele>
        <time>2020-07-07T17:24:06.000Z</time>
      </trkpt>
      <trkpt lat="43.61662" lon="3.74721">
        <ele>115</ele>
        <time>2020-07-07T17:24:07.000Z</time>
      </trkpt>
      <trkpt lat="43.61661" lon="3.74716">
        <ele>115</ele>
        <time>2020-07-07T17:24:08.000Z</time>
      </trkpt>
      <trkpt lat="43.6166" lon="3.74712">
        <ele>115</ele>
        <time>2020-07-07T17:24:09.000Z</time>
      </trkpt>
      <trkpt lat="43.61659" lon="3.74707">
        <ele>115</ele>
        <time>2020-07-07T17:24:10.000Z</time>
      </trkpt>
      <trkpt lat="43.61657" lon="3.74703">
        <ele>115</ele>
        <time>2020-07-07T17:24:11.000Z</time>
      </trkpt>
      <trkpt lat="43.61655" lon="3.74699">
        <ele>115</ele>
        <time>2020-07-07T17:24:12.000Z</time>
      </trkpt>
      <trkpt lat="43.61653" lon="3.74695">
        <ele>115</ele>
        <time>2020-07-07T17:24:13.000Z</time>
      </trkpt>
      <trkpt lat="43.61651" lon="3.74691">
        <ele>115</ele>
        <time>2020-07-07T17:24:14.000Z</time>
      </trkpt>
      <trkpt lat="43.61649" lon="3.74687">
        <ele>115</ele>
        <time>2020-07-07T17:24:15.000Z</time>
      </trkpt>
      <trkpt lat="43.61648" lon="3.74683">
        <ele>115</ele>
        <time>2020-07-07T17:24:16.000Z</time>
      </trkpt>
      <trkpt lat="43.61646" lon="3.74679">
        <ele>115</ele>
        <time>2020-07-07T17:24:17.000Z</time>
      </trkpt>
      <trkpt lat="43.61644" lon="3.74676">
        <ele>115</ele>
        <time>2020-07-07T17:24:18.000Z</time>
      </trkpt>
      <trkpt lat="43.61643" lon="3.74673">
        <ele>115</ele>
        <time>2020-07-07T17:24:19.000Z</time>
      </trkpt>
      <trkpt lat="43.61641" lon="3.74671">
        <ele>115</ele>
        <time>2020-07-07T17:24:20.000Z</time>
      </trkpt>
      <trkpt lat="43.61639" lon="3.74668">
        <ele>115</ele>
        <time>2020-07-07T17:24:21.000Z</time>
      </trkpt>
      <trkpt lat="43.61636" lon="3.74665">
        <ele>115</ele>
        <time>2020-07-07T17:24:22.000Z</time>
      </trkpt>
      <trkpt lat="43.61634" lon="3.74661">
        <ele>115</ele>
        <time>2020-07-07T17:24:23.000Z</time>
      </trkpt>
      <trkpt lat="43.61632" lon="3.74657">
        <ele>115</ele>
        <time>2020-07-07T17:24:24.000Z</time>
      </trkpt>
      <trkpt lat="43.6163" lon="3.74652">
        <ele>115</ele>
        <time>2020-07-07T17:24:25.000Z</time>
      </trkpt>
      <trkpt lat="43.61628" lon="3.74648">
        <ele>115</ele>
        <time>2020-07-07T17:24:26.000Z</time>
      </trkpt>
      <trkpt lat="43.61626" lon="3.74643">
        <ele>115</ele>
        <time>2020-07-07T17:24:27.000Z</time>
      </trkpt>
      <trkpt lat="43.61624" lon="3.74639">
        <ele>115</ele>
        <time>2020-07-07T17:24:28.000Z</time>
      </trkpt>
      <trkpt lat="43.61622" lon="3.74635">
        <ele>115</ele>
        <time>2020-07-07T17:24:29.000Z</time>
      </trkpt>
      <trkpt lat="43.6162" lon="3.74631">
        <ele>115</ele>
        <time>2020-07-07T17:24:30.000Z</time>
      </trkpt>
      <trkpt lat="43.61618" lon="3.74627">
        <ele>115</ele>
        <time>2020-07-07T17:24:31.000Z</time>
      </trkpt>
      <trkpt lat="43.61617" lon="3.74623">
        <ele>115</ele>
        <time>2020-07-07T17:24:32.000Z</time>
      </trkpt>
      <trkpt lat="43.61615" lon="3.7462">
        <ele>115</ele>
        <time>2020-07-07T17:24:33.000Z</time>
      </trkpt>
      <trkpt lat="43.61613" lon="3.74616">
        <ele>115</ele>
        <time>2020-07-07T17:24:34.000Z</time>
      </trkpt>
      <trkpt lat="43.61611" lon="3.74612">
        <ele>115</ele>
        <time>2020-07-07T17:24:35.000Z</time>
      </trkpt>
      <trkpt lat="43.6161" lon="3.74609">
        <ele>115</ele>
        <time>2020-07-07T17:24:36.000Z</time>
      </trkpt>
      <trkpt lat="43.61608" lon="3.74605">
        <ele>115</ele>
        <time>2020-07-07T17:24:37.000Z</time>
      </trkpt>
      <trkpt lat="43.61607" lon="3.74602">
        <ele>115</ele>
        <time>2020-07-07T17:24:38.000Z</time>
      </trkpt>
      <trkpt lat="43.61605" lon="3.74598">
        <ele>115</ele>
        <time>2020-07-07T17:24:39.000Z</time>
      </trkpt>
      <trkpt lat="43.61604" lon="3.74595">
        <ele>115</ele>
        <time>2020-07-07T17:24:40.000Z</time>
      </trkpt>
      <trkpt lat="43.61602" lon="3.74591">
        <ele>115.016</ele>
        <time>2020-07-07T17:24:41.000Z</time>
      </trkpt>
      <trkpt lat="43.61601" lon="3.74587">
        <ele>115.116</ele>
        <time>2020-07-07T17:24:42.000Z</time>
      </trkpt>
      <trkpt lat="43.61599" lon="3.74584">
        <ele>115.216</ele>
        <time>2020-07-07T17:24:43.000Z</time>
      </trkpt>
      <trkpt lat="43.61597" lon="3.7458">
        <ele>115.316</ele>
        <time>2020-07-07T17:24:44.000Z</time>
      </trkpt>
      <trkpt lat="43.61596" lon="3.74577">
        <ele>115.416</ele>
        <time>2020-07-07T17:24:45.000Z</time>
      </trkpt>
      <trkpt lat="43.61594" lon="3.74573">
        <ele>115.516</ele>
        <time>2020-07-07T17:24:46.000Z</time>
      </trkpt>
      <trkpt lat="43.61592" lon="3.7457">
        <ele>115.616</ele>
        <time>2020-07-07T17:24:47.000Z</time>
      </trkpt>
      <trkpt lat="43.61591" lon="3.74567">
        <ele>115.716</ele>
        <time>2020-07-07T17:24:48.000Z</time>
      </trkpt>
      <trkpt lat="43.61589" lon="3.74565">
        <ele>115.816</ele>
        <time>2020-07-07T17:24:49.000Z</time>
      </trkpt>
      <trkpt lat="43.61588" lon="3.74563">
        <ele>115.916</ele>
        <time>2020-07-07T17:24:50.000Z</time>
      </trkpt>
      <trkpt lat="43.61586" lon="3.74559">
        <ele>116</ele>
        <time>2020-07-07T17:24:52.000Z</time>
      </trkpt>
      <trkpt lat="43.61585" lon="3.74557">
        <ele>116</ele>
        <time>2020-07-07T17:24:53.000Z</time>
      </trkpt>
      <trkpt lat="43.61586" lon="3.74552">
        <ele>116</ele>
        <time>2020-07-07T17:24:55.000Z</time>
      </trkpt>
      <trkpt lat="43.61588" lon="3.7455">
        <ele>116</ele>
        <time>2020-07-07T17:24:56.000Z</time>
      </trkpt>
      <trkpt lat="43.61591" lon="3.7455">
        <ele>116</ele>
        <time>2020-07-07T17:24:57.000Z</time>
      </trkpt>
      <trkpt lat="43.61594" lon="3.7455">
        <ele>116</ele>
        <time>2020-07-07T17:24:58.000Z</time>
      </trkpt>
      <trkpt lat="43.61597" lon="3.74549">
        <ele>116</ele>
        <time>2020-07-07T17:24:59.000Z</time>
      </trkpt>
      <trkpt lat="43.616" lon="3.74547">
        <ele>116</ele>
        <time>2020-07-07T17:25:00.000Z</time>
      </trkpt>
      <trkpt lat="43.61603" lon="3.74545">
        <ele>115.98443579767</ele>
        <time>2020-07-07T17:25:01.000Z</time>
      </trkpt>
      <trkpt lat="43.61606" lon="3.74543">
        <ele>115.88715953307</ele>
        <time>2020-07-07T17:25:02.000Z</time>
      </trkpt>
      <trkpt lat="43.61609" lon="3.74541">
        <ele>115.78988326848</ele>
        <time>2020-07-07T17:25:03.000Z</time>
      </trkpt>
      <trkpt lat="43.61612" lon="3.74538">
        <ele>115.69260700389</ele>
        <time>2020-07-07T17:25:04.000Z</time>
      </trkpt>
      <trkpt lat="43.61617" lon="3.74537">
        <ele>115.5953307393</ele>
        <time>2020-07-07T17:25:05.000Z</time>
      </trkpt>
      <trkpt lat="43.61623" lon="3.74537">
        <ele>115.49805447471</ele>
        <time>2020-07-07T17:25:06.000Z</time>
      </trkpt>
      <trkpt lat="43.61628" lon="3.74538">
        <ele>115.40077821012</ele>
        <time>2020-07-07T17:25:07.000Z</time>
      </trkpt>
      <trkpt lat="43.61633" lon="3.7454">
        <ele>115.30350194552</ele>
        <time>2020-07-07T17:25:08.000Z</time>
      </trkpt>
      <trkpt lat="43.61637" lon="3.74542">
        <ele>115.20622568093</ele>
        <time>2020-07-07T17:25:09.000Z</time>
      </trkpt>
      <trkpt lat="43.61641" lon="3.74544">
        <ele>115.10894941634</ele>
        <time>2020-07-07T17:25:10.000Z</time>
      </trkpt>
      <trkpt lat="43.61644" lon="3.74545">
        <ele>115.01167315175</ele>
        <time>2020-07-07T17:25:11.000Z</time>
      </trkpt>
      <trkpt lat="43.61647" lon="3.74546">
        <ele>115.09053497942</ele>
        <time>2020-07-07T17:25:12.000Z</time>
      </trkpt>
      <trkpt lat="43.61649" lon="3.74547">
        <ele>115.19341563786</ele>
        <time>2020-07-07T17:25:13.000Z</time>
      </trkpt>
      <trkpt lat="43.61651" lon="3.74548">
        <ele>115.2962962963</ele>
        <time>2020-07-07T17:25:14.000Z</time>
      </trkpt>
      <trkpt lat="43.61653" lon="3.74548">
        <ele>115.39917695473</ele>
        <time>2020-07-07T17:25:15.000Z</time>
      </trkpt>
      <trkpt lat="43.61655" lon="3.74549">
        <ele>115.50205761317</ele>
        <time>2020-07-07T17:25:16.000Z</time>
      </trkpt>
      <trkpt lat="43.61658" lon="3.74551">
        <ele>115.70781893004</ele>
        <time>2020-07-07T17:25:18.000Z</time>
      </trkpt>
      <trkpt lat="43.61661" lon="3.74553">
        <ele>115.91358024691</ele>
        <time>2020-07-07T17:25:20.000Z</time>
      </trkpt>
      <trkpt lat="43.61663" lon="3.74557">
        <ele>116</ele>
        <time>2020-07-07T17:25:22.000Z</time>
      </trkpt>
      <trkpt lat="43.61664" lon="3.74559">
        <ele>116</ele>
        <time>2020-07-07T17:25:23.000Z</time>
      </trkpt>
      <trkpt lat="43.61665" lon="3.74561">
        <ele>116</ele>
        <time>2020-07-07T17:25:24.000Z</time>
      </trkpt>
      <trkpt lat="43.61667" lon="3.74563">
        <ele>116</ele>
        <time>2020-07-07T17:25:25.000Z</time>
      </trkpt>
      <trkpt lat="43.61668" lon="3.74564">
        <ele>116</ele>
        <time>2020-07-07T17:25:26.000Z</time>
      </trkpt>
      <trkpt lat="43.6167" lon="3.74566">
        <ele>116</ele>
        <time>2020-07-07T17:25:27.000Z</time>
      </trkpt>
      <trkpt lat="43.61671" lon="3.74568">
        <ele>116</ele>
        <time>2020-07-07T17:25:28.000Z</time>
      </trkpt>
      <trkpt lat="43.61672" lon="3.7457">
        <ele>116</ele>
        <time>2020-07-07T17:25:29.000Z</time>
      </trkpt>
      <trkpt lat="43.61674" lon="3.74572">
        <ele>116</ele>
        <time>2020-07-07T17:25:30.000Z</time>
      </trkpt>
      <trkpt lat="43.61677" lon="3.74575">
        <ele>116.116</ele>
        <time>2020-07-07T17:25:32.000Z</time>
      </trkpt>
      <trkpt lat="43.61679" lon="3.74577">
        <ele>116.216</ele>
        <time>2020-07-07T17:25:33.000Z</time>
      </trkpt>
      <trkpt lat="43.6168" lon="3.74579">
        <ele>116.316</ele>
        <time>2020-07-07T17:25:34.000Z</time>
      </trkpt>
      <trkpt lat="43.61682" lon="3.74581">
        <ele>116.416</ele>
        <time>2020-07-07T17:25:35.000Z</time>
      </trkpt>
      <trkpt lat="43.61684" lon="3.74582">
        <ele>116.516</ele>
        <time>2020-07-07T17:25:36.000Z</time>
      </trkpt>
      <trkpt lat="43.61686" lon="3.74584">
        <ele>116.616</ele>
        <time>2020-07-07T17:25:37.000Z</time>
      </trkpt>
      <trkpt lat="43.61688" lon="3.74586">
        <ele>116.716</ele>
        <time>2020-07-07T17:25:38.000Z</time>
      </trkpt>
      <trkpt lat="43.6169" lon="3.74587">
        <ele>116.816</ele>
        <time>2020-07-07T17:25:39.000Z</time>
      </trkpt>
      <trkpt lat="43.61692" lon="3.74588">
        <ele>116.916</ele>
        <time>2020-07-07T17:25:40.000Z</time>
      </trkpt>
      <trkpt lat="43.61694" lon="3.7459">
        <ele>117.016</ele>
        <time>2020-07-07T17:25:41.000Z</time>
      </trkpt>
      <trkpt lat="43.61695" lon="3.74592">
        <ele>117.116</ele>
        <time>2020-07-07T17:25:42.000Z</time>
      </trkpt>
      <trkpt lat="43.61697" lon="3.74594">
        <ele>117.216</ele>
        <time>2020-07-07T17:25:43.000Z</time>
      </trkpt>
      <trkpt lat="43.61698" lon="3.74596">
        <ele>117.316</ele>
        <time>2020-07-07T17:25:44.000Z</time>
      </trkpt>
      <trkpt lat="43.617" lon="3.74598">
        <ele>117.416</ele>
        <time>2020-07-07T17:25:45.000Z</time>
      </trkpt>
      <trkpt lat="43.61702" lon="3.74599">
        <ele>117.516</ele>
        <time>2020-07-07T17:25:46.000Z</time>
      </trkpt>
      <trkpt lat="43.61704" lon="3.74601">
        <ele>117.616</ele>
        <time>2020-07-07T17:25:47.000Z</time>
      </trkpt>
      <trkpt lat="43.61706" lon="3.74602">
        <ele>117.716</ele>
        <time>2020-07-07T17:25:48.000Z</time>
      </trkpt>
      <trkpt lat="43.61708" lon="3.74604">
        <ele>117.816</ele>
        <time>2020-07-07T17:25:49.000Z</time>
      </trkpt>
      <trkpt lat="43.61711" lon="3.74605">
        <ele>117.916</ele>
        <time>2020-07-07T17:25:50.000Z</time>
      </trkpt>
      <trkpt lat="43.61713" lon="3.74606">
        <ele>118.016</ele>
        <time>2020-07-07T17:25:51.000Z</time>
      </trkpt>
      <trkpt lat="43.61715" lon="3.74608">
        <ele>118.116</ele>
        <time>2020-07-07T17:25:52.000Z</time>
      </trkpt>
      <trkpt lat="43.61717" lon="3.7461">
        <ele>118.216</ele>
        <time>2020-07-07T17:25:53.000Z</time>
      </trkpt>
      <trkpt lat="43.61718" lon="3.74612">
        <ele>118.316</ele>
        <time>2020-07-07T17:25:54.000Z</time>
      </trkpt>
      <trkpt lat="43.6172" lon="3.74615">
        <ele>118.416</ele>
        <time>2020-07-07T17:25:55.000Z</time>
      </trkpt>
      <trkpt lat="43.61722" lon="3.74618">
        <ele>118.516</ele>
        <time>2020-07-07T17:25:56.000Z</time>
      </trkpt>
      <trkpt lat="43.61724" lon="3.74621">
        <ele>118.616</ele>
        <time>2020-07-07T17:25:57.000Z</time>
      </trkpt>
      <trkpt lat="43.61726" lon="3.74624">
        <ele>118.716</ele>
        <time>2020-07-07T17:25:58.000Z</time>
      </trkpt>
      <trkpt lat="43.61729" lon="3.74627">
        <ele>118.816</ele>
        <time>2020-07-07T17:25:59.000Z</time>
      </trkpt>
      <trkpt lat="43.61731" lon="3.7463">
        <ele>118.916</ele>
        <time>2020-07-07T17:26:00.000Z</time>
      </trkpt>
      <trkpt lat="43.61733" lon="3.74632">
        <ele>119</ele>
        <time>2020-07-07T17:26:01.000Z</time>
      </trkpt>
      <trkpt lat="43.61736" lon="3.74634">
        <ele>119</ele>
        <time>2020-07-07T17:26:02.000Z</time>
      </trkpt>
      <trkpt lat="43.61738" lon="3.74636">
        <ele>119</ele>
        <time>2020-07-07T17:26:03.000Z</time>
      </trkpt>
      <trkpt lat="43.61741" lon="3.74637">
        <ele>119</ele>
        <time>2020-07-07T17:26:04.000Z</time>
      </trkpt>
      <trkpt lat="43.61743" lon="3.74639">
        <ele>119</ele>
        <time>2020-07-07T17:26:05.000Z</time>
      </trkpt>
      <trkpt lat="43.61746" lon="3.7464">
        <ele>119</ele>
        <time>2020-07-07T17:26:07.000Z</time>
      </trkpt>
      <trkpt lat="43.61748" lon="3.74642">
        <ele>119</ele>
        <time>2020-07-07T17:26:08.000Z</time>
      </trkpt>
      <trkpt lat="43.6175" lon="3.74643">
        <ele>119</ele>
        <time>2020-07-07T17:26:09.000Z</time>
      </trkpt>
      <trkpt lat="43.61755" lon="3.74643">
        <ele>119.016</ele>
        <time>2020-07-07T17:26:11.000Z</time>
      </trkpt>
      <trkpt lat="43.61759" lon="3.74642">
        <ele>119.116</ele>
        <time>2020-07-07T17:26:12.000Z</time>
      </trkpt>
      <trkpt lat="43.61762" lon="3.74641">
        <ele>119.216</ele>
        <time>2020-07-07T17:26:13.000Z</time>
      </trkpt>
      <trkpt lat="43.61766" lon="3.7464">
        <ele>119.316</ele>
        <time>2020-07-07T17:26:14.000Z</time>
      </trkpt>
      <trkpt lat="43.61769" lon="3.74639">
        <ele>119.416</ele>
        <time>2020-07-07T17:26:15.000Z</time>
      </trkpt>
      <trkpt lat="43.61771" lon="3.74639">
        <ele>119.516</ele>
        <time>2020-07-07T17:26:16.000Z</time>
      </trkpt>
      <trkpt lat="43.61774" lon="3.74638">
        <ele>119.616</ele>
        <time>2020-07-07T17:26:17.000Z</time>
      </trkpt>
      <trkpt lat="43.61776" lon="3.74637">
        <ele>119.716</ele>
        <time>2020-07-07T17:26:18.000Z</time>
      </trkpt>
      <trkpt lat="43.61778" lon="3.74636">
        <ele>119.816</ele>
        <time>2020-07-07T17:26:19.000Z</time>
      </trkpt>
      <trkpt lat="43.6178" lon="3.74634">
        <ele>119.916</ele>
        <time>2020-07-07T17:26:20.000Z</time>
      </trkpt>
      <trkpt lat="43.61782" lon="3.74633">
        <ele>120.016</ele>
        <time>2020-07-07T17:26:21.000Z</time>
      </trkpt>
      <trkpt lat="43.61785" lon="3.74633">
        <ele>120.116</ele>
        <time>2020-07-07T17:26:22.000Z</time>
      </trkpt>
      <trkpt lat="43.61787" lon="3.74632">
        <ele>120.216</ele>
        <time>2020-07-07T17:26:23.000Z</time>
      </trkpt>
      <trkpt lat="43.6179" lon="3.74631">
        <ele>120.316</ele>
        <time>2020-07-07T17:26:24.000Z</time>
      </trkpt>
      <trkpt lat="43.61792" lon="3.7463">
        <ele>120.416</ele>
        <time>2020-07-07T17:26:25.000Z</time>
      </trkpt>
      <trkpt lat="43.61795" lon="3.74628">
        <ele>120.616</ele>
        <time>2020-07-07T17:26:27.000Z</time>
      </trkpt>
      <trkpt lat="43.61798" lon="3.74627">
        <ele>120.816</ele>
        <time>2020-07-07T17:26:29.000Z</time>
      </trkpt>
      <trkpt lat="43.61801" lon="3.74627">
        <ele>121.032</ele>
        <time>2020-07-07T17:26:31.000Z</time>
      </trkpt>
      <trkpt lat="43.61803" lon="3.74627">
        <ele>121.232</ele>
        <time>2020-07-07T17:26:32.000Z</time>
      </trkpt>
      <trkpt lat="43.61805" lon="3.74627">
        <ele>121.432</ele>
        <time>2020-07-07T17:26:33.000Z</time>
      </trkpt>
      <trkpt lat="43.61809" lon="3.74627">
        <ele>121.632</ele>
        <time>2020-07-07T17:26:34.000Z</time>
      </trkpt>
      <trkpt lat="43.61812" lon="3.74626">
        <ele>121.832</ele>
        <time>2020-07-07T17:26:35.000Z</time>
      </trkpt>
      <trkpt lat="43.61814" lon="3.74625">
        <ele>122.032</ele>
        <time>2020-07-07T17:26:36.000Z</time>
      </trkpt>
      <trkpt lat="43.61817" lon="3.74623">
        <ele>122.232</ele>
        <time>2020-07-07T17:26:37.000Z</time>
      </trkpt>
      <trkpt lat="43.61818" lon="3.74621">
        <ele>122.432</ele>
        <time>2020-07-07T17:26:38.000Z</time>
      </trkpt>
      <trkpt lat="43.6182" lon="3.74618">
        <ele>122.832</ele>
        <time>2020-07-07T17:26:40.000Z</time>
      </trkpt>
      <trkpt lat="43.61822" lon="3.74617">
        <ele>123</ele>
        <time>2020-07-07T17:26:42.000Z</time>
      </trkpt>
      <trkpt lat="43.61822" lon="3.74617">
        <ele>123</ele>
        <time>2020-07-07T17:26:46.000Z</time>
      </trkpt>
      <trkpt lat="43.61825" lon="3.7461">
        <ele>123</ele>
        <time>2020-07-07T17:27:13.000Z</time>
      </trkpt>
      <trkpt lat="43.61827" lon="3.74608">
        <ele>123.19610214404</ele>
        <time>2020-07-07T17:27:14.000Z</time>
      </trkpt>
      <trkpt lat="43.61829" lon="3.74604">
        <ele>123.60422383091</ele>
        <time>2020-07-07T17:27:16.000Z</time>
      </trkpt>
      <trkpt lat="43.61831" lon="3.74601">
        <ele>124.01234551778</ele>
        <time>2020-07-07T17:27:18.000Z</time>
      </trkpt>
      <trkpt lat="43.61833" lon="3.74598">
        <ele>124.42046720465</ele>
        <time>2020-07-07T17:27:20.000Z</time>
      </trkpt>
      <trkpt lat="43.61834" lon="3.74596">
        <ele>125.00097045041</ele>
        <time>2020-07-07T17:27:26.000Z</time>
      </trkpt>
      <trkpt lat="43.61837" lon="3.74593">
        <ele>125.97184451102</ele>
        <time>2020-07-07T17:27:37.000Z</time>
      </trkpt>
      <trkpt lat="43.61838" lon="3.74595">
        <ele>125.82430855652</ele>
        <time>2020-07-07T17:27:39.000Z</time>
      </trkpt>
      <trkpt lat="43.61839" lon="3.74598">
        <ele>125.61402576149</ele>
        <time>2020-07-07T17:27:41.000Z</time>
      </trkpt>
      <trkpt lat="43.61839" lon="3.746">
        <ele>125.40374296646</ele>
        <time>2020-07-07T17:27:43.000Z</time>
      </trkpt>
      <trkpt lat="43.61837" lon="3.74604">
        <ele>125.19346017143</ele>
        <time>2020-07-07T17:27:45.000Z</time>
      </trkpt>
      <trkpt lat="43.61835" lon="3.74607">
        <ele>125</ele>
        <time>2020-07-07T17:27:47.000Z</time>
      </trkpt>
      <trkpt lat="43.61834" lon="3.74609">
        <ele>125</ele>
        <time>2020-07-07T17:27:48.000Z</time>
      </trkpt>
      <trkpt lat="43.61832" lon="3.74611">
        <ele>125</ele>
        <time>2020-07-07T17:27:49.000Z</time>
      </trkpt>
      <trkpt lat="43.61829" lon="3.74613">
        <ele>125</ele>
        <time>2020-07-07T17:27:50.000Z</time>
      </trkpt>
      <trkpt lat="43.61827" lon="3.74613">
        <ele>125</ele>
        <time>2020-07-07T17:27:51.000Z</time>
      </trkpt>
      <trkpt lat="43.61824" lon="3.74613">
        <ele>125</ele>
        <time>2020-07-07T17:27:52.000Z</time>
      </trkpt>
      <trkpt lat="43.61821" lon="3.74612">
        <ele>125</ele>
        <time>2020-07-07T17:27:53.000Z</time>
      </trkpt>
      <trkpt lat="43.61819" lon="3.74611">
        <ele>125</ele>
        <time>2020-07-07T17:27:54.000Z</time>
      </trkpt>
      <trkpt lat="43.61817" lon="3.74609">
        <ele>125</ele>
        <time>2020-07-07T17:27:55.000Z</time>
      </trkpt>
      <trkpt lat="43.61816" lon="3.74607">
        <ele>125</ele>
        <time>2020-07-07T17:27:56.000Z</time>
      </trkpt>
      <trkpt lat="43.61814" lon="3.74606">
        <ele>125.032</ele>
        <time>2020-07-07T17:27:57.000Z</time>
      </trkpt>
      <trkpt lat="43.61812" lon="3.74604">
        <ele>125.232</ele>
        <time>2020-07-07T17:27:58.000Z</time>
      </trkpt>
      <trkpt lat="43.6181" lon="3.74603">
        <ele>125.432</ele>
        <time>2020-07-07T17:27:59.000Z</time>
      </trkpt>
      <trkpt lat="43.61807" lon="3.74601">
        <ele>125.632</ele>
        <time>2020-07-07T17:28:00.000Z</time>
      </trkpt>
      <trkpt lat="43.61805" lon="3.74599">
        <ele>125.832</ele>
        <time>2020-07-07T17:28:01.000Z</time>
      </trkpt>
      <trkpt lat="43.61802" lon="3.74598">
        <ele>126.032</ele>
        <time>2020-07-07T17:28:02.000Z</time>
      </trkpt>
      <trkpt lat="43.61801" lon="3.74596">
        <ele>126.232</ele>
        <time>2020-07-07T17:28:03.000Z</time>
      </trkpt>
      <trkpt lat="43.61799" lon="3.74595">
        <ele>126.432</ele>
        <time>2020-07-07T17:28:04.000Z</time>
      </trkpt>
      <trkpt lat="43.61797" lon="3.74591">
        <ele>126.832</ele>
        <time>2020-07-07T17:28:06.000Z</time>
      </trkpt>
      <trkpt lat="43.61796" lon="3.74588">
        <ele>127.016</ele>
        <time>2020-07-07T17:28:07.000Z</time>
      </trkpt>
      <trkpt lat="43.61796" lon="3.74586">
        <ele>127.116</ele>
        <time>2020-07-07T17:28:08.000Z</time>
      </trkpt>
      <trkpt lat="43.61795" lon="3.74582">
        <ele>127.316</ele>
        <time>2020-07-07T17:28:10.000Z</time>
      </trkpt>
      <trkpt lat="43.61793" lon="3.7458">
        <ele>127.516</ele>
        <time>2020-07-07T17:28:12.000Z</time>
      </trkpt>
      <trkpt lat="43.61791" lon="3.74577">
        <ele>127.716</ele>
        <time>2020-07-07T17:28:14.000Z</time>
      </trkpt>
      <trkpt lat="43.61791" lon="3.74573">
        <ele>127.916</ele>
        <time>2020-07-07T17:28:16.000Z</time>
      </trkpt>
      <trkpt lat="43.6179" lon="3.74568">
        <ele>128.232</ele>
        <time>2020-07-07T17:28:18.000Z</time>
      </trkpt>
      <trkpt lat="43.61791" lon="3.74564">
        <ele>128.632</ele>
        <time>2020-07-07T17:28:20.000Z</time>
      </trkpt>
      <trkpt lat="43.61791" lon="3.7456">
        <ele>129.032</ele>
        <time>2020-07-07T17:28:22.000Z</time>
      </trkpt>
      <trkpt lat="43.61789" lon="3.74557">
        <ele>129.432</ele>
        <time>2020-07-07T17:28:24.000Z</time>
      </trkpt>
      <trkpt lat="43.61787" lon="3.74554">
        <ele>129.832</ele>
        <time>2020-07-07T17:28:26.000Z</time>
      </trkpt>
      <trkpt lat="43.61784" lon="3.74554">
        <ele>130.348</ele>
        <time>2020-07-07T17:28:28.000Z</time>
      </trkpt>
      <trkpt lat="43.61783" lon="3.74551">
        <ele>130.948</ele>
        <time>2020-07-07T17:28:30.000Z</time>
      </trkpt>
      <trkpt lat="43.61782" lon="3.74547">
        <ele>131.548</ele>
        <time>2020-07-07T17:28:32.000Z</time>
      </trkpt>
      <trkpt lat="43.6178" lon="3.74543">
        <ele>132.148</ele>
        <time>2020-07-07T17:28:34.000Z</time>
      </trkpt>
      <trkpt lat="43.61778" lon="3.7454">
        <ele>132.748</ele>
        <time>2020-07-07T17:28:36.000Z</time>
      </trkpt>
      <trkpt lat="43.61776" lon="3.74537">
        <ele>133.232</ele>
        <time>2020-07-07T17:28:38.000Z</time>
      </trkpt>
      <trkpt lat="43.61774" lon="3.74536">
        <ele>133.632</ele>
        <time>2020-07-07T17:28:40.000Z</time>
      </trkpt>
      <trkpt lat="43.61771" lon="3.74535">
        <ele>134.032</ele>
        <time>2020-07-07T17:28:42.000Z</time>
      </trkpt>
      <trkpt lat="43.61769" lon="3.74533">
        <ele>134.432</ele>
        <time>2020-07-07T17:28:44.000Z</time>
      </trkpt>
      <trkpt lat="43.61766" lon="3.74533">
        <ele>134.832</ele>
        <time>2020-07-07T17:28:46.000Z</time>
      </trkpt>
      <trkpt lat="43.61764" lon="3.74532">
        <ele>135.23176830586</ele>
        <time>2020-07-07T17:28:48.000Z</time>
      </trkpt>
      <trkpt lat="43.61761" lon="3.74532">
        <ele>135.6313688332</ele>
        <time>2020-07-07T17:28:50.000Z</time>
      </trkpt>
      <trkpt lat="43.61758" lon="3.74532">
        <ele>136.03096936055</ele>
        <time>2020-07-07T17:28:52.000Z</time>
      </trkpt>
      <trkpt lat="43.61755" lon="3.74532">
        <ele>136.43056988789</ele>
        <time>2020-07-07T17:28:54.000Z</time>
      </trkpt>
      <trkpt lat="43.61753" lon="3.74532">
        <ele>136.83017041524</ele>
        <time>2020-07-07T17:28:56.000Z</time>
      </trkpt>
      <trkpt lat="43.6175" lon="3.74533">
        <ele>137.11511539856</ele>
        <time>2020-07-07T17:28:58.000Z</time>
      </trkpt>
      <trkpt lat="43.61747" lon="3.74533">
        <ele>137.31531553463</ele>
        <time>2020-07-07T17:29:00.000Z</time>
      </trkpt>
      <trkpt lat="43.61744" lon="3.74533">
        <ele>137.51551567071</ele>
        <time>2020-07-07T17:29:02.000Z</time>
      </trkpt>
      <trkpt lat="43.6174" lon="3.74533">
        <ele>137.71571580678</ele>
        <time>2020-07-07T17:29:04.000Z</time>
      </trkpt>
      <trkpt lat="43.61738" lon="3.74531">
        <ele>137.91591594285</ele>
        <time>2020-07-07T17:29:06.000Z</time>
      </trkpt>
      <trkpt lat="43.61736" lon="3.74528">
        <ele>138.116</ele>
        <time>2020-07-07T17:29:08.000Z</time>
      </trkpt>
      <trkpt lat="43.61734" lon="3.74524">
        <ele>138.316</ele>
        <time>2020-07-07T17:29:10.000Z</time>
      </trkpt>
      <trkpt lat="43.61734" lon="3.74521">
        <ele>138.416</ele>
        <time>2020-07-07T17:29:11.000Z</time>
      </trkpt>
      <trkpt lat="43.61735" lon="3.74519">
        <ele>138.516</ele>
        <time>2020-07-07T17:29:12.000Z</time>
      </trkpt>
      <trkpt lat="43.61736" lon="3.74514">
        <ele>138.716</ele>
        <time>2020-07-07T17:29:14.000Z</time>
      </trkpt>
      <trkpt lat="43.61736" lon="3.74512">
        <ele>139.94047619048</ele>
        <time>2020-07-07T17:29:20.000Z</time>
      </trkpt>
      <trkpt lat="43.61736" lon="3.74494">
        <ele>141.97056000895</ele>
        <time>2020-07-07T17:29:41.000Z</time>
      </trkpt>
      <trkpt lat="43.61737" lon="3.74491">
        <ele>142.7731092437</ele>
        <time>2020-07-07T17:29:45.000Z</time>
      </trkpt>
      <trkpt lat="43.61737" lon="3.74488">
        <ele>143.40336134454</ele>
        <time>2020-07-07T17:29:48.000Z</time>
      </trkpt>
      <trkpt lat="43.61736" lon="3.74485">
        <ele>143.82352941177</ele>
        <time>2020-07-07T17:29:50.000Z</time>
      </trkpt>
      <trkpt lat="43.61736" lon="3.74483">
        <ele>144.1126214292</ele>
        <time>2020-07-07T17:29:52.000Z</time>
      </trkpt>
      <trkpt lat="43.61737" lon="3.7448">
        <ele>144.30679630714</ele>
        <time>2020-07-07T17:29:54.000Z</time>
      </trkpt>
      <trkpt lat="43.61737" lon="3.74478">
        <ele>144.50097118507</ele>
        <time>2020-07-07T17:29:56.000Z</time>
      </trkpt>
      <trkpt lat="43.61736" lon="3.74477">
        <ele>145</ele>
        <time>2020-07-07T17:30:03.000Z</time>
      </trkpt>
      <trkpt lat="43.61736" lon="3.74468">
        <ele>145.96966702487</ele>
        <time>2020-07-07T17:30:13.000Z</time>
      </trkpt>
      <trkpt lat="43.61736" lon="3.74465">
        <ele>146</ele>
        <time>2020-07-07T17:30:14.000Z</time>
      </trkpt>
      <trkpt lat="43.61736" lon="3.74462">
        <ele>146</ele>
        <time>2020-07-07T17:30:15.000Z</time>
      </trkpt>
      <trkpt lat="43.61736" lon="3.7446">
        <ele>146</ele>
        <time>2020-07-07T17:30:16.000Z</time>
      </trkpt>
      <trkpt lat="43.61736" lon="3.74457">
        <ele>146</ele>
        <time>2020-07-07T17:30:17.000Z</time>
      </trkpt>
      <trkpt lat="43.61736" lon="3.74453">
        <ele>146</ele>
        <time>2020-07-07T17:30:19.000Z</time>
      </trkpt>
      <trkpt lat="43.61737" lon="3.74448">
        <ele>146</ele>
        <time>2020-07-07T17:30:21.000Z</time>
      </trkpt>
      <trkpt lat="43.61738" lon="3.74444">
        <ele>146.01556420234</ele>
        <time>2020-07-07T17:30:23.000Z</time>
      </trkpt>
      <trkpt lat="43.61738" lon="3.74441">
        <ele>146.11284046693</ele>
        <time>2020-07-07T17:30:24.000Z</time>
      </trkpt>
      <trkpt lat="43.61738" lon="3.74439">
        <ele>146.21011673152</ele>
        <time>2020-07-07T17:30:25.000Z</time>
      </trkpt>
      <trkpt lat="43.61738" lon="3.74434">
        <ele>146.4046692607</ele>
        <time>2020-07-07T17:30:27.000Z</time>
      </trkpt>
      <trkpt lat="43.61739" lon="3.74429">
        <ele>146.59922178988</ele>
        <time>2020-07-07T17:30:29.000Z</time>
      </trkpt>
      <trkpt lat="43.61739" lon="3.74427">
        <ele>146.69649805448</ele>
        <time>2020-07-07T17:30:30.000Z</time>
      </trkpt>
      <trkpt lat="43.61739" lon="3.74424">
        <ele>146.79377431907</ele>
        <time>2020-07-07T17:30:31.000Z</time>
      </trkpt>
      <trkpt lat="43.61739" lon="3.74422">
        <ele>146.89105058366</ele>
        <time>2020-07-07T17:30:32.000Z</time>
      </trkpt>
      <trkpt lat="43.61739" lon="3.74419">
        <ele>146.98832684825</ele>
        <time>2020-07-07T17:30:33.000Z</time>
      </trkpt>
      <trkpt lat="43.61739" lon="3.74416">
        <ele>147.18106995885</ele>
        <time>2020-07-07T17:30:34.000Z</time>
      </trkpt>
      <trkpt lat="43.61739" lon="3.74414">
        <ele>147.38683127572</ele>
        <time>2020-07-07T17:30:35.000Z</time>
      </trkpt>
      <trkpt lat="43.61739" lon="3.74411">
        <ele>147.59259259259</ele>
        <time>2020-07-07T17:30:36.000Z</time>
      </trkpt>
      <trkpt lat="43.61739" lon="3.74409">
        <ele>147.79835390946</ele>
        <time>2020-07-07T17:30:37.000Z</time>
      </trkpt>
      <trkpt lat="43.61739" lon="3.74406">
        <ele>148.00411522634</ele>
        <time>2020-07-07T17:30:38.000Z</time>
      </trkpt>
      <trkpt lat="43.61739" lon="3.74404">
        <ele>148.20987654321</ele>
        <time>2020-07-07T17:30:39.000Z</time>
      </trkpt>
      <trkpt lat="43.6174" lon="3.74401">
        <ele>148.41563786008</ele>
        <time>2020-07-07T17:30:40.000Z</time>
      </trkpt>
      <trkpt lat="43.6174" lon="3.74399">
        <ele>148.62139917696</ele>
        <time>2020-07-07T17:30:41.000Z</time>
      </trkpt>
      <trkpt lat="43.6174" lon="3.74396">
        <ele>148.82716049383</ele>
        <time>2020-07-07T17:30:42.000Z</time>
      </trkpt>
      <trkpt lat="43.6174" lon="3.74394">
        <ele>149.016</ele>
        <time>2020-07-07T17:30:43.000Z</time>
      </trkpt>
      <trkpt lat="43.6174" lon="3.74391">
        <ele>149.116</ele>
        <time>2020-07-07T17:30:44.000Z</time>
      </trkpt>
      <trkpt lat="43.61741" lon="3.74388">
        <ele>149.216</ele>
        <time>2020-07-07T17:30:45.000Z</time>
      </trkpt>
      <trkpt lat="43.61741" lon="3.74386">
        <ele>149.316</ele>
        <time>2020-07-07T17:30:46.000Z</time>
      </trkpt>
      <trkpt lat="43.61741" lon="3.74383">
        <ele>149.416</ele>
        <time>2020-07-07T17:30:47.000Z</time>
      </trkpt>
      <trkpt lat="43.61742" lon="3.7438">
        <ele>149.516</ele>
        <time>2020-07-07T17:30:48.000Z</time>
      </trkpt>
      <trkpt lat="43.61742" lon="3.74378">
        <ele>149.616</ele>
        <time>2020-07-07T17:30:49.000Z</time>
      </trkpt>
      <trkpt lat="43.61742" lon="3.74373">
        <ele>149.816</ele>
        <time>2020-07-07T17:30:51.000Z</time>
      </trkpt>
      <trkpt lat="43.61743" lon="3.74368">
        <ele>150.016</ele>
        <time>2020-07-07T17:30:53.000Z</time>
      </trkpt>
      <trkpt lat="43.61743" lon="3.74363">
        <ele>150.216</ele>
        <time>2020-07-07T17:30:55.000Z</time>
      </trkpt>
      <trkpt lat="43.61744" lon="3.74361">
        <ele>150.316</ele>
        <time>2020-07-07T17:30:56.000Z</time>
      </trkpt>
      <trkpt lat="43.61745" lon="3.74356">
        <ele>150.516</ele>
        <time>2020-07-07T17:30:58.000Z</time>
      </trkpt>
      <trkpt lat="43.61746" lon="3.74353">
        <ele>150.616</ele>
        <time>2020-07-07T17:30:59.000Z</time>
      </trkpt>
      <trkpt lat="43.61746" lon="3.74351">
        <ele>150.716</ele>
        <time>2020-07-07T17:31:00.000Z</time>
      </trkpt>
      <trkpt lat="43.61747" lon="3.74348">
        <ele>150.816</ele>
        <time>2020-07-07T17:31:01.000Z</time>
      </trkpt>
      <trkpt lat="43.61748" lon="3.74344">
        <ele>151.032</ele>
        <time>2020-07-07T17:31:03.000Z</time>
      </trkpt>
      <trkpt lat="43.61748" lon="3.74341">
        <ele>151.232</ele>
        <time>2020-07-07T17:31:04.000Z</time>
      </trkpt>
      <trkpt lat="43.61749" lon="3.74336">
        <ele>151.632</ele>
        <time>2020-07-07T17:31:06.000Z</time>
      </trkpt>
      <trkpt lat="43.61749" lon="3.74332">
        <ele>152.032</ele>
        <time>2020-07-07T17:31:08.000Z</time>
      </trkpt>
      <trkpt lat="43.61749" lon="3.74328">
        <ele>152.432</ele>
        <time>2020-07-07T17:31:10.000Z</time>
      </trkpt>
      <trkpt lat="43.61749" lon="3.74323">
        <ele>152.832</ele>
        <time>2020-07-07T17:31:12.000Z</time>
      </trkpt>
      <trkpt lat="43.61751" lon="3.74319">
        <ele>153.12691457196</ele>
        <time>2020-07-07T17:31:14.000Z</time>
      </trkpt>
      <trkpt lat="43.61753" lon="3.74317">
        <ele>153.34573279949</ele>
        <time>2020-07-07T17:31:16.000Z</time>
      </trkpt>
      <trkpt lat="43.61754" lon="3.74316">
        <ele>154</ele>
        <time>2020-07-07T17:31:22.000Z</time>
      </trkpt>
      <trkpt lat="43.61763" lon="3.74313">
        <ele>155.9896018063</ele>
        <time>2020-07-07T17:32:29.000Z</time>
      </trkpt>
      <trkpt lat="43.61765" lon="3.74312">
        <ele>156</ele>
        <time>2020-07-07T17:32:30.000Z</time>
      </trkpt>
      <trkpt lat="43.61767" lon="3.74311">
        <ele>156</ele>
        <time>2020-07-07T17:32:31.000Z</time>
      </trkpt>
      <trkpt lat="43.61768" lon="3.74309">
        <ele>156</ele>
        <time>2020-07-07T17:32:32.000Z</time>
      </trkpt>
      <trkpt lat="43.6177" lon="3.74307">
        <ele>156</ele>
        <time>2020-07-07T17:32:33.000Z</time>
      </trkpt>
      <trkpt lat="43.61771" lon="3.74305">
        <ele>156</ele>
        <time>2020-07-07T17:32:34.000Z</time>
      </trkpt>
      <trkpt lat="43.61773" lon="3.74304">
        <ele>156</ele>
        <time>2020-07-07T17:32:35.000Z</time>
      </trkpt>
      <trkpt lat="43.61775" lon="3.74302">
        <ele>156</ele>
        <time>2020-07-07T17:32:36.000Z</time>
      </trkpt>
      <trkpt lat="43.61776" lon="3.743">
        <ele>156</ele>
        <time>2020-07-07T17:32:37.000Z</time>
      </trkpt>
      <trkpt lat="43.61777" lon="3.74298">
        <ele>156</ele>
        <time>2020-07-07T17:32:38.000Z</time>
      </trkpt>
      <trkpt lat="43.61778" lon="3.74296">
        <ele>156.01554908161</ele>
        <time>2020-07-07T17:32:39.000Z</time>
      </trkpt>
      <trkpt lat="43.61779" lon="3.74294">
        <ele>156.11273084167</ele>
        <time>2020-07-07T17:32:40.000Z</time>
      </trkpt>
      <trkpt lat="43.61781" lon="3.74292">
        <ele>156.20991260172</ele>
        <time>2020-07-07T17:32:41.000Z</time>
      </trkpt>
      <trkpt lat="43.61782" lon="3.7429">
        <ele>156.30709436178</ele>
        <time>2020-07-07T17:32:42.000Z</time>
      </trkpt>
      <trkpt lat="43.61784" lon="3.74288">
        <ele>156.40427612184</ele>
        <time>2020-07-07T17:32:43.000Z</time>
      </trkpt>
      <trkpt lat="43.61785" lon="3.74286">
        <ele>156.50145788189</ele>
        <time>2020-07-07T17:32:44.000Z</time>
      </trkpt>
      <trkpt lat="43.61786" lon="3.74284">
        <ele>156.59863964195</ele>
        <time>2020-07-07T17:32:45.000Z</time>
      </trkpt>
      <trkpt lat="43.61788" lon="3.7428">
        <ele>156.79300316206</ele>
        <time>2020-07-07T17:32:47.000Z</time>
      </trkpt>
      <trkpt lat="43.6179" lon="3.74276">
        <ele>156.98736668217</ele>
        <time>2020-07-07T17:32:49.000Z</time>
      </trkpt>
      <trkpt lat="43.61791" lon="3.74274">
        <ele>157</ele>
        <time>2020-07-07T17:32:50.000Z</time>
      </trkpt>
      <trkpt lat="43.61792" lon="3.74272">
        <ele>157</ele>
        <time>2020-07-07T17:32:51.000Z</time>
      </trkpt>
      <trkpt lat="43.61793" lon="3.74269">
        <ele>157</ele>
        <time>2020-07-07T17:32:52.000Z</time>
      </trkpt>
      <trkpt lat="43.61794" lon="3.74267">
        <ele>157</ele>
        <time>2020-07-07T17:32:53.000Z</time>
      </trkpt>
      <trkpt lat="43.61795" lon="3.74265">
        <ele>157</ele>
        <time>2020-07-07T17:32:54.000Z</time>
      </trkpt>
      <trkpt lat="43.61796" lon="3.74262">
        <ele>157</ele>
        <time>2020-07-07T17:32:55.000Z</time>
      </trkpt>
      <trkpt lat="43.61797" lon="3.7426">
        <ele>157</ele>
        <time>2020-07-07T17:32:56.000Z</time>
      </trkpt>
      <trkpt lat="43.61798" lon="3.74258">
        <ele>157</ele>
        <time>2020-07-07T17:32:57.000Z</time>
      </trkpt>
      <trkpt lat="43.61799" lon="3.74255">
        <ele>157</ele>
        <time>2020-07-07T17:32:58.000Z</time>
      </trkpt>
      <trkpt lat="43.61801" lon="3.74253">
        <ele>157</ele>
        <time>2020-07-07T17:32:59.000Z</time>
      </trkpt>
      <trkpt lat="43.61802" lon="3.74251">
        <ele>157</ele>
        <time>2020-07-07T17:33:00.000Z</time>
      </trkpt>
      <trkpt lat="43.61804" lon="3.74247">
        <ele>157</ele>
        <time>2020-07-07T17:33:02.000Z</time>
      </trkpt>
      <trkpt lat="43.61806" lon="3.74243">
        <ele>157</ele>
        <time>2020-07-07T17:33:04.000Z</time>
      </trkpt>
      <trkpt lat="43.61807" lon="3.7424">
        <ele>157</ele>
        <time>2020-07-07T17:33:06.000Z</time>
      </trkpt>
      <trkpt lat="43.61809" lon="3.74238">
        <ele>157</ele>
        <time>2020-07-07T17:33:07.000Z</time>
      </trkpt>
      <trkpt lat="43.6181" lon="3.74236">
        <ele>157</ele>
        <time>2020-07-07T17:33:08.000Z</time>
      </trkpt>
      <trkpt lat="43.61811" lon="3.74233">
        <ele>156.984</ele>
        <time>2020-07-07T17:33:09.000Z</time>
      </trkpt>
      <trkpt lat="43.61813" lon="3.7423">
        <ele>156.884</ele>
        <time>2020-07-07T17:33:10.000Z</time>
      </trkpt>
      <trkpt lat="43.61814" lon="3.74227">
        <ele>156.784</ele>
        <time>2020-07-07T17:33:11.000Z</time>
      </trkpt>
      <trkpt lat="43.61816" lon="3.74224">
        <ele>156.684</ele>
        <time>2020-07-07T17:33:12.000Z</time>
      </trkpt>
      <trkpt lat="43.61818" lon="3.74222">
        <ele>156.584</ele>
        <time>2020-07-07T17:33:13.000Z</time>
      </trkpt>
      <trkpt lat="43.61819" lon="3.74219">
        <ele>156.484</ele>
        <time>2020-07-07T17:33:14.000Z</time>
      </trkpt>
      <trkpt lat="43.6182" lon="3.74216">
        <ele>156.384</ele>
        <time>2020-07-07T17:33:15.000Z</time>
      </trkpt>
      <trkpt lat="43.61822" lon="3.74213">
        <ele>156.284</ele>
        <time>2020-07-07T17:33:16.000Z</time>
      </trkpt>
      <trkpt lat="43.61823" lon="3.7421">
        <ele>156.184</ele>
        <time>2020-07-07T17:33:17.000Z</time>
      </trkpt>
      <trkpt lat="43.61825" lon="3.74207">
        <ele>156.084</ele>
        <time>2020-07-07T17:33:18.000Z</time>
      </trkpt>
      <trkpt lat="43.61826" lon="3.74204">
        <ele>156</ele>
        <time>2020-07-07T17:33:19.000Z</time>
      </trkpt>
      <trkpt lat="43.61827" lon="3.742">
        <ele>156</ele>
        <time>2020-07-07T17:33:20.000Z</time>
      </trkpt>
      <trkpt lat="43.61829" lon="3.74197">
        <ele>156</ele>
        <time>2020-07-07T17:33:21.000Z</time>
      </trkpt>
      <trkpt lat="43.6183" lon="3.74193">
        <ele>156</ele>
        <time>2020-07-07T17:33:22.000Z</time>
      </trkpt>
      <trkpt lat="43.61832" lon="3.7419">
        <ele>156</ele>
        <time>2020-07-07T17:33:23.000Z</time>
      </trkpt>
      <trkpt lat="43.61833" lon="3.74186">
        <ele>156</ele>
        <time>2020-07-07T17:33:24.000Z</time>
      </trkpt>
      <trkpt lat="43.61834" lon="3.74182">
        <ele>156</ele>
        <time>2020-07-07T17:33:25.000Z</time>
      </trkpt>
      <trkpt lat="43.61836" lon="3.74178">
        <ele>156</ele>
        <time>2020-07-07T17:33:26.000Z</time>
      </trkpt>
      <trkpt lat="43.61837" lon="3.74175">
        <ele>156</ele>
        <time>2020-07-07T17:33:27.000Z</time>
      </trkpt>
      <trkpt lat="43.61839" lon="3.74171">
        <ele>156</ele>
        <time>2020-07-07T17:33:28.000Z</time>
      </trkpt>
      <trkpt lat="43.61841" lon="3.74168">
        <ele>156</ele>
        <time>2020-07-07T17:33:29.000Z</time>
      </trkpt>
      <trkpt lat="43.61843" lon="3.74164">
        <ele>156</ele>
        <time>2020-07-07T17:33:30.000Z</time>
      </trkpt>
      <trkpt lat="43.61846" lon="3.74162">
        <ele>156</ele>
        <time>2020-07-07T17:33:31.000Z</time>
      </trkpt>
      <trkpt lat="43.61848" lon="3.74159">
        <ele>156</ele>
        <time>2020-07-07T17:33:32.000Z</time>
      </trkpt>
      <trkpt lat="43.61851" lon="3.74157">
        <ele>156</ele>
        <time>2020-07-07T17:33:33.000Z</time>
      </trkpt>
      <trkpt lat="43.61854" lon="3.74156">
        <ele>156</ele>
        <time>2020-07-07T17:33:34.000Z</time>
      </trkpt>
      <trkpt lat="43.61857" lon="3.74154">
        <ele>156</ele>
        <time>2020-07-07T17:33:35.000Z</time>
      </trkpt>
      <trkpt lat="43.6186" lon="3.74153">
        <ele>156</ele>
        <time>2020-07-07T17:33:36.000Z</time>
      </trkpt>
      <trkpt lat="43.61862" lon="3.74151">
        <ele>156</ele>
        <time>2020-07-07T17:33:37.000Z</time>
      </trkpt>
      <trkpt lat="43.61865" lon="3.7415">
        <ele>156</ele>
        <time>2020-07-07T17:33:38.000Z</time>
      </trkpt>
      <trkpt lat="43.61867" lon="3.74149">
        <ele>155.968</ele>
        <time>2020-07-07T17:33:39.000Z</time>
      </trkpt>
      <trkpt lat="43.6187" lon="3.74148">
        <ele>155.768</ele>
        <time>2020-07-07T17:33:40.000Z</time>
      </trkpt>
      <trkpt lat="43.61872" lon="3.74146">
        <ele>155.568</ele>
        <time>2020-07-07T17:33:41.000Z</time>
      </trkpt>
      <trkpt lat="43.61874" lon="3.74145">
        <ele>155.368</ele>
        <time>2020-07-07T17:33:42.000Z</time>
      </trkpt>
      <trkpt lat="43.61877" lon="3.74143">
        <ele>155.168</ele>
        <time>2020-07-07T17:33:43.000Z</time>
      </trkpt>
      <trkpt lat="43.61879" lon="3.74141">
        <ele>154.968</ele>
        <time>2020-07-07T17:33:44.000Z</time>
      </trkpt>
      <trkpt lat="43.61881" lon="3.74137">
        <ele>154.768</ele>
        <time>2020-07-07T17:33:45.000Z</time>
      </trkpt>
      <trkpt lat="43.61883" lon="3.74134">
        <ele>154.568</ele>
        <time>2020-07-07T17:33:46.000Z</time>
      </trkpt>
      <trkpt lat="43.61884" lon="3.7413">
        <ele>154.368</ele>
        <time>2020-07-07T17:33:47.000Z</time>
      </trkpt>
      <trkpt lat="43.61885" lon="3.74127">
        <ele>154.168</ele>
        <time>2020-07-07T17:33:48.000Z</time>
      </trkpt>
      <trkpt lat="43.61884" lon="3.74123">
        <ele>154</ele>
        <time>2020-07-07T17:33:49.000Z</time>
      </trkpt>
      <trkpt lat="43.61884" lon="3.7412">
        <ele>154</ele>
        <time>2020-07-07T17:33:50.000Z</time>
      </trkpt>
      <trkpt lat="43.61883" lon="3.74118">
        <ele>154</ele>
        <time>2020-07-07T17:33:51.000Z</time>
      </trkpt>
      <trkpt lat="43.61881" lon="3.74114">
        <ele>154</ele>
        <time>2020-07-07T17:33:53.000Z</time>
      </trkpt>
      <trkpt lat="43.6188" lon="3.74111">
        <ele>154</ele>
        <time>2020-07-07T17:33:54.000Z</time>
      </trkpt>
      <trkpt lat="43.61879" lon="3.74108">
        <ele>154</ele>
        <time>2020-07-07T17:33:55.000Z</time>
      </trkpt>
      <trkpt lat="43.61878" lon="3.74105">
        <ele>154</ele>
        <time>2020-07-07T17:33:56.000Z</time>
      </trkpt>
      <trkpt lat="43.61878" lon="3.74102">
        <ele>154</ele>
        <time>2020-07-07T17:33:57.000Z</time>
      </trkpt>
      <trkpt lat="43.61877" lon="3.74099">
        <ele>154</ele>
        <time>2020-07-07T17:33:58.000Z</time>
      </trkpt>
      <trkpt lat="43.61877" lon="3.74094">
        <ele>154.116</ele>
        <time>2020-07-07T17:34:00.000Z</time>
      </trkpt>
      <trkpt lat="43.61877" lon="3.74092">
        <ele>154.216</ele>
        <time>2020-07-07T17:34:01.000Z</time>
      </trkpt>
      <trkpt lat="43.61878" lon="3.74089">
        <ele>154.316</ele>
        <time>2020-07-07T17:34:02.000Z</time>
      </trkpt>
      <trkpt lat="43.61879" lon="3.74086">
        <ele>154.416</ele>
        <time>2020-07-07T17:34:03.000Z</time>
      </trkpt>
      <trkpt lat="43.6188" lon="3.74083">
        <ele>154.516</ele>
        <time>2020-07-07T17:34:04.000Z</time>
      </trkpt>
      <trkpt lat="43.6188" lon="3.7408">
        <ele>154.616</ele>
        <time>2020-07-07T17:34:05.000Z</time>
      </trkpt>
      <trkpt lat="43.61881" lon="3.74078">
        <ele>154.716</ele>
        <time>2020-07-07T17:34:06.000Z</time>
      </trkpt>
      <trkpt lat="43.61882" lon="3.74075">
        <ele>154.816</ele>
        <time>2020-07-07T17:34:07.000Z</time>
      </trkpt>
      <trkpt lat="43.61883" lon="3.74073">
        <ele>154.916</ele>
        <time>2020-07-07T17:34:08.000Z</time>
      </trkpt>
      <trkpt lat="43.61884" lon="3.74071">
        <ele>155</ele>
        <time>2020-07-07T17:34:09.000Z</time>
      </trkpt>
      <trkpt lat="43.61886" lon="3.74069">
        <ele>155</ele>
        <time>2020-07-07T17:34:10.000Z</time>
      </trkpt>
      <trkpt lat="43.61887" lon="3.74067">
        <ele>155</ele>
        <time>2020-07-07T17:34:11.000Z</time>
      </trkpt>
      <trkpt lat="43.61889" lon="3.74065">
        <ele>155</ele>
        <time>2020-07-07T17:34:12.000Z</time>
      </trkpt>
      <trkpt lat="43.6189" lon="3.74062">
        <ele>155</ele>
        <time>2020-07-07T17:34:13.000Z</time>
      </trkpt>
      <trkpt lat="43.61891" lon="3.74059">
        <ele>155</ele>
        <time>2020-07-07T17:34:14.000Z</time>
      </trkpt>
      <trkpt lat="43.61892" lon="3.74056">
        <ele>155</ele>
        <time>2020-07-07T17:34:15.000Z</time>
      </trkpt>
      <trkpt lat="43.61892" lon="3.74054">
        <ele>155</ele>
        <time>2020-07-07T17:34:16.000Z</time>
      </trkpt>
      <trkpt lat="43.61892" lon="3.7405">
        <ele>155</ele>
        <time>2020-07-07T17:34:17.000Z</time>
      </trkpt>
      <trkpt lat="43.61892" lon="3.74047">
        <ele>155</ele>
        <time>2020-07-07T17:34:18.000Z</time>
      </trkpt>
      <trkpt lat="43.61892" lon="3.74045">
        <ele>155.01556420234</ele>
        <time>2020-07-07T17:34:19.000Z</time>
      </trkpt>
      <trkpt lat="43.61892" lon="3.74042">
        <ele>155.11284046693</ele>
        <time>2020-07-07T17:34:20.000Z</time>
      </trkpt>
      <trkpt lat="43.61891" lon="3.74039">
        <ele>155.21011673152</ele>
        <time>2020-07-07T17:34:21.000Z</time>
      </trkpt>
      <trkpt lat="43.61891" lon="3.74036">
        <ele>155.30739299611</ele>
        <time>2020-07-07T17:34:22.000Z</time>
      </trkpt>
      <trkpt lat="43.61891" lon="3.74034">
        <ele>155.4046692607</ele>
        <time>2020-07-07T17:34:23.000Z</time>
      </trkpt>
      <trkpt lat="43.61891" lon="3.74031">
        <ele>155.50194552529</ele>
        <time>2020-07-07T17:34:24.000Z</time>
      </trkpt>
      <trkpt lat="43.61891" lon="3.74029">
        <ele>155.59922178988</ele>
        <time>2020-07-07T17:34:25.000Z</time>
      </trkpt>
      <trkpt lat="43.61891" lon="3.74026">
        <ele>155.69649805448</ele>
        <time>2020-07-07T17:34:26.000Z</time>
      </trkpt>
      <trkpt lat="43.61891" lon="3.74024">
        <ele>155.79377431907</ele>
        <time>2020-07-07T17:34:27.000Z</time>
      </trkpt>
      <trkpt lat="43.6189" lon="3.74021">
        <ele>155.89105058366</ele>
        <time>2020-07-07T17:34:28.000Z</time>
      </trkpt>
      <trkpt lat="43.6189" lon="3.74018">
        <ele>155.98832684825</ele>
        <time>2020-07-07T17:34:29.000Z</time>
      </trkpt>
      <trkpt lat="43.6189" lon="3.74016">
        <ele>156.18106995885</ele>
        <time>2020-07-07T17:34:30.000Z</time>
      </trkpt>
      <trkpt lat="43.6189" lon="3.74013">
        <ele>156.38683127572</ele>
        <time>2020-07-07T17:34:31.000Z</time>
      </trkpt>
      <trkpt lat="43.61889" lon="3.74011">
        <ele>156.59259259259</ele>
        <time>2020-07-07T17:34:32.000Z</time>
      </trkpt>
      <trkpt lat="43.61889" lon="3.74008">
        <ele>156.79835390946</ele>
        <time>2020-07-07T17:34:33.000Z</time>
      </trkpt>
      <trkpt lat="43.61889" lon="3.74006">
        <ele>157.00411522634</ele>
        <time>2020-07-07T17:34:34.000Z</time>
      </trkpt>
      <trkpt lat="43.61889" lon="3.74001">
        <ele>157.41563786008</ele>
        <time>2020-07-07T17:34:36.000Z</time>
      </trkpt>
      <trkpt lat="43.61889" lon="3.73998">
        <ele>157.62139917696</ele>
        <time>2020-07-07T17:34:37.000Z</time>
      </trkpt>
      <trkpt lat="43.61888" lon="3.73994">
        <ele>158.016</ele>
        <time>2020-07-07T17:34:39.000Z</time>
      </trkpt>
      <trkpt lat="43.61888" lon="3.73989">
        <ele>158.216</ele>
        <time>2020-07-07T17:34:41.000Z</time>
      </trkpt>
      <trkpt lat="43.61887" lon="3.73984">
        <ele>158.416</ele>
        <time>2020-07-07T17:34:43.000Z</time>
      </trkpt>
      <trkpt lat="43.61887" lon="3.7398">
        <ele>158.616</ele>
        <time>2020-07-07T17:34:45.000Z</time>
      </trkpt>
      <trkpt lat="43.61886" lon="3.73976">
        <ele>158.816</ele>
        <time>2020-07-07T17:34:47.000Z</time>
      </trkpt>
      <trkpt lat="43.61885" lon="3.73971">
        <ele>159.032</ele>
        <time>2020-07-07T17:34:49.000Z</time>
      </trkpt>
      <trkpt lat="43.61885" lon="3.73967">
        <ele>159.432</ele>
        <time>2020-07-07T17:34:51.000Z</time>
      </trkpt>
      <trkpt lat="43.61884" lon="3.73962">
        <ele>159.832</ele>
        <time>2020-07-07T17:34:53.000Z</time>
      </trkpt>
      <trkpt lat="43.61883" lon="3.73957">
        <ele>160.232</ele>
        <time>2020-07-07T17:34:55.000Z</time>
      </trkpt>
      <trkpt lat="43.61881" lon="3.73953">
        <ele>160.632</ele>
        <time>2020-07-07T17:34:57.000Z</time>
      </trkpt>
      <trkpt lat="43.6188" lon="3.73948">
        <ele>161.032</ele>
        <time>2020-07-07T17:34:59.000Z</time>
      </trkpt>
      <trkpt lat="43.61879" lon="3.73944">
        <ele>161.432</ele>
        <time>2020-07-07T17:35:01.000Z</time>
      </trkpt>
      <trkpt lat="43.61877" lon="3.73941">
        <ele>161.832</ele>
        <time>2020-07-07T17:35:03.000Z</time>
      </trkpt>
      <trkpt lat="43.61876" lon="3.73937">
        <ele>162.232</ele>
        <time>2020-07-07T17:35:05.000Z</time>
      </trkpt>
      <trkpt lat="43.61875" lon="3.73933">
        <ele>162.632</ele>
        <time>2020-07-07T17:35:07.000Z</time>
      </trkpt>
      <trkpt lat="43.61873" lon="3.73929">
        <ele>163.032</ele>
        <time>2020-07-07T17:35:09.000Z</time>
      </trkpt>
      <trkpt lat="43.61872" lon="3.73926">
        <ele>163.432</ele>
        <time>2020-07-07T17:35:11.000Z</time>
      </trkpt>
      <trkpt lat="43.61871" lon="3.73923">
        <ele>163.832</ele>
        <time>2020-07-07T17:35:13.000Z</time>
      </trkpt>
      <trkpt lat="43.6187" lon="3.73919">
        <ele>164.232</ele>
        <time>2020-07-07T17:35:15.000Z</time>
      </trkpt>
      <trkpt lat="43.61868" lon="3.73915">
        <ele>164.632</ele>
        <time>2020-07-07T17:35:17.000Z</time>
      </trkpt>
      <trkpt lat="43.61866" lon="3.73912">
        <ele>165.032</ele>
        <time>2020-07-07T17:35:19.000Z</time>
      </trkpt>
      <trkpt lat="43.61865" lon="3.73907">
        <ele>165.432</ele>
        <time>2020-07-07T17:35:21.000Z</time>
      </trkpt>
      <trkpt lat="43.61864" lon="3.73903">
        <ele>165.832</ele>
        <time>2020-07-07T17:35:23.000Z</time>
      </trkpt>
      <trkpt lat="43.61863" lon="3.73899">
        <ele>166.232</ele>
        <time>2020-07-07T17:35:25.000Z</time>
      </trkpt>
      <trkpt lat="43.61862" lon="3.73895">
        <ele>166.632</ele>
        <time>2020-07-07T17:35:27.000Z</time>
      </trkpt>
      <trkpt lat="43.6186" lon="3.73891">
        <ele>167</ele>
        <time>2020-07-07T17:35:29.000Z</time>
      </trkpt>
      <trkpt lat="43.6186" lon="3.73887">
        <ele>167</ele>
        <time>2020-07-07T17:35:31.000Z</time>
      </trkpt>
      <trkpt lat="43.61859" lon="3.73883">
        <ele>167</ele>
        <time>2020-07-07T17:35:33.000Z</time>
      </trkpt>
      <trkpt lat="43.61858" lon="3.7388">
        <ele>167</ele>
        <time>2020-07-07T17:35:34.000Z</time>
      </trkpt>
      <trkpt lat="43.61858" lon="3.73878">
        <ele>167</ele>
        <time>2020-07-07T17:35:35.000Z</time>
      </trkpt>
      <trkpt lat="43.61858" lon="3.73875">
        <ele>167</ele>
        <time>2020-07-07T17:35:36.000Z</time>
      </trkpt>
      <trkpt lat="43.61857" lon="3.73872">
        <ele>167</ele>
        <time>2020-07-07T17:35:37.000Z</time>
      </trkpt>
      <trkpt lat="43.61857" lon="3.73869">
        <ele>167</ele>
        <time>2020-07-07T17:35:38.000Z</time>
      </trkpt>
      <trkpt lat="43.61857" lon="3.73866">
        <ele>167.016</ele>
        <time>2020-07-07T17:35:39.000Z</time>
      </trkpt>
      <trkpt lat="43.61857" lon="3.73862">
        <ele>167.116</ele>
        <time>2020-07-07T17:35:40.000Z</time>
      </trkpt>
      <trkpt lat="43.61858" lon="3.73859">
        <ele>167.216</ele>
        <time>2020-07-07T17:35:41.000Z</time>
      </trkpt>
      <trkpt lat="43.61858" lon="3.73855">
        <ele>167.316</ele>
        <time>2020-07-07T17:35:42.000Z</time>
      </trkpt>
      <trkpt lat="43.61858" lon="3.73852">
        <ele>167.416</ele>
        <time>2020-07-07T17:35:43.000Z</time>
      </trkpt>
      <trkpt lat="43.61858" lon="3.73848">
        <ele>167.516</ele>
        <time>2020-07-07T17:35:44.000Z</time>
      </trkpt>
      <trkpt lat="43.61858" lon="3.73844">
        <ele>167.616</ele>
        <time>2020-07-07T17:35:45.000Z</time>
      </trkpt>
      <trkpt lat="43.61858" lon="3.7384">
        <ele>167.716</ele>
        <time>2020-07-07T17:35:46.000Z</time>
      </trkpt>
      <trkpt lat="43.61858" lon="3.73837">
        <ele>167.816</ele>
        <time>2020-07-07T17:35:47.000Z</time>
      </trkpt>
      <trkpt lat="43.61858" lon="3.73833">
        <ele>167.916</ele>
        <time>2020-07-07T17:35:48.000Z</time>
      </trkpt>
      <trkpt lat="43.61858" lon="3.73829">
        <ele>168</ele>
        <time>2020-07-07T17:35:49.000Z</time>
      </trkpt>
      <trkpt lat="43.61857" lon="3.73825">
        <ele>168</ele>
        <time>2020-07-07T17:35:50.000Z</time>
      </trkpt>
      <trkpt lat="43.61857" lon="3.73821">
        <ele>168</ele>
        <time>2020-07-07T17:35:51.000Z</time>
      </trkpt>
      <trkpt lat="43.61857" lon="3.73817">
        <ele>168</ele>
        <time>2020-07-07T17:35:52.000Z</time>
      </trkpt>
      <trkpt lat="43.61857" lon="3.73813">
        <ele>168</ele>
        <time>2020-07-07T17:35:53.000Z</time>
      </trkpt>
      <trkpt lat="43.61857" lon="3.7381">
        <ele>168</ele>
        <time>2020-07-07T17:35:54.000Z</time>
      </trkpt>
      <trkpt lat="43.61856" lon="3.73806">
        <ele>168</ele>
        <time>2020-07-07T17:35:55.000Z</time>
      </trkpt>
      <trkpt lat="43.61856" lon="3.73802">
        <ele>168</ele>
        <time>2020-07-07T17:35:56.000Z</time>
      </trkpt>
      <trkpt lat="43.61855" lon="3.73799">
        <ele>168</ele>
        <time>2020-07-07T17:35:57.000Z</time>
      </trkpt>
      <trkpt lat="43.61855" lon="3.73795">
        <ele>168</ele>
        <time>2020-07-07T17:35:58.000Z</time>
      </trkpt>
      <trkpt lat="43.61854" lon="3.73792">
        <ele>168</ele>
        <time>2020-07-07T17:35:59.000Z</time>
      </trkpt>
      <trkpt lat="43.61854" lon="3.73788">
        <ele>168.07240262662</ele>
        <time>2020-07-07T17:36:00.000Z</time>
      </trkpt>
      <trkpt lat="43.61854" lon="3.73785">
        <ele>168.17733445619</ele>
        <time>2020-07-07T17:36:01.000Z</time>
      </trkpt>
      <trkpt lat="43.61853" lon="3.73781">
        <ele>168.28226628576</ele>
        <time>2020-07-07T17:36:02.000Z</time>
      </trkpt>
      <trkpt lat="43.61853" lon="3.73778">
        <ele>168.38719811532</ele>
        <time>2020-07-07T17:36:03.000Z</time>
      </trkpt>
      <trkpt lat="43.61852" lon="3.73775">
        <ele>168.49212994489</ele>
        <time>2020-07-07T17:36:04.000Z</time>
      </trkpt>
      <trkpt lat="43.61852" lon="3.73771">
        <ele>168.59706177446</ele>
        <time>2020-07-07T17:36:05.000Z</time>
      </trkpt>
      <trkpt lat="43.61852" lon="3.73768">
        <ele>168.70199360403</ele>
        <time>2020-07-07T17:36:06.000Z</time>
      </trkpt>
      <trkpt lat="43.61852" lon="3.73764">
        <ele>168.8069254336</ele>
        <time>2020-07-07T17:36:07.000Z</time>
      </trkpt>
      <trkpt lat="43.61852" lon="3.73761">
        <ele>168.91185726316</ele>
        <time>2020-07-07T17:36:08.000Z</time>
      </trkpt>
      <trkpt lat="43.61852" lon="3.73758">
        <ele>169.016</ele>
        <time>2020-07-07T17:36:09.000Z</time>
      </trkpt>
      <trkpt lat="43.61851" lon="3.73754">
        <ele>169.116</ele>
        <time>2020-07-07T17:36:10.000Z</time>
      </trkpt>
      <trkpt lat="43.61851" lon="3.7375">
        <ele>169.216</ele>
        <time>2020-07-07T17:36:11.000Z</time>
      </trkpt>
      <trkpt lat="43.61851" lon="3.73746">
        <ele>169.316</ele>
        <time>2020-07-07T17:36:12.000Z</time>
      </trkpt>
      <trkpt lat="43.61851" lon="3.73742">
        <ele>169.416</ele>
        <time>2020-07-07T17:36:13.000Z</time>
      </trkpt>
      <trkpt lat="43.61851" lon="3.73738">
        <ele>169.516</ele>
        <time>2020-07-07T17:36:14.000Z</time>
      </trkpt>
      <trkpt lat="43.61851" lon="3.73735">
        <ele>169.616</ele>
        <time>2020-07-07T17:36:15.000Z</time>
      </trkpt>
      <trkpt lat="43.61851" lon="3.73731">
        <ele>169.716</ele>
        <time>2020-07-07T17:36:16.000Z</time>
      </trkpt>
      <trkpt lat="43.61851" lon="3.73727">
        <ele>169.816</ele>
        <time>2020-07-07T17:36:17.000Z</time>
      </trkpt>
      <trkpt lat="43.61851" lon="3.73723">
        <ele>169.916</ele>
        <time>2020-07-07T17:36:18.000Z</time>
      </trkpt>
      <trkpt lat="43.61851" lon="3.7372">
        <ele>170.03112840467</ele>
        <time>2020-07-07T17:36:19.000Z</time>
      </trkpt>
      <trkpt lat="43.61851" lon="3.73716">
        <ele>170.22568093385</ele>
        <time>2020-07-07T17:36:20.000Z</time>
      </trkpt>
      <trkpt lat="43.61851" lon="3.73712">
        <ele>170.42023346304</ele>
        <time>2020-07-07T17:36:21.000Z</time>
      </trkpt>
      <trkpt lat="43.6185" lon="3.73708">
        <ele>170.61478599222</ele>
        <time>2020-07-07T17:36:22.000Z</time>
      </trkpt>
      <trkpt lat="43.6185" lon="3.73705">
        <ele>170.8093385214</ele>
        <time>2020-07-07T17:36:23.000Z</time>
      </trkpt>
      <trkpt lat="43.6185" lon="3.73701">
        <ele>171.00389105058</ele>
        <time>2020-07-07T17:36:24.000Z</time>
      </trkpt>
      <trkpt lat="43.61849" lon="3.73697">
        <ele>171.19844357977</ele>
        <time>2020-07-07T17:36:25.000Z</time>
      </trkpt>
      <trkpt lat="43.61848" lon="3.73694">
        <ele>171.39299610895</ele>
        <time>2020-07-07T17:36:26.000Z</time>
      </trkpt>
      <trkpt lat="43.61848" lon="3.7369">
        <ele>171.58754863813</ele>
        <time>2020-07-07T17:36:27.000Z</time>
      </trkpt>
      <trkpt lat="43.61847" lon="3.73686">
        <ele>171.78210116732</ele>
        <time>2020-07-07T17:36:28.000Z</time>
      </trkpt>
      <trkpt lat="43.61847" lon="3.73682">
        <ele>171.9766536965</ele>
        <time>2020-07-07T17:36:29.000Z</time>
      </trkpt>
      <trkpt lat="43.61846" lon="3.73679">
        <ele>172.09053497942</ele>
        <time>2020-07-07T17:36:30.000Z</time>
      </trkpt>
      <trkpt lat="43.61846" lon="3.73675">
        <ele>172.19341563786</ele>
        <time>2020-07-07T17:36:31.000Z</time>
      </trkpt>
      <trkpt lat="43.61845" lon="3.73671">
        <ele>172.2962962963</ele>
        <time>2020-07-07T17:36:32.000Z</time>
      </trkpt>
      <trkpt lat="43.61845" lon="3.73668">
        <ele>172.39917695473</ele>
        <time>2020-07-07T17:36:33.000Z</time>
      </trkpt>
      <trkpt lat="43.61844" lon="3.73664">
        <ele>172.50205761317</ele>
        <time>2020-07-07T17:36:34.000Z</time>
      </trkpt>
      <trkpt lat="43.61844" lon="3.73661">
        <ele>172.6049382716</ele>
        <time>2020-07-07T17:36:35.000Z</time>
      </trkpt>
      <trkpt lat="43.61843" lon="3.73657">
        <ele>172.70781893004</ele>
        <time>2020-07-07T17:36:36.000Z</time>
      </trkpt>
      <trkpt lat="43.61843" lon="3.73653">
        <ele>172.81069958848</ele>
        <time>2020-07-07T17:36:37.000Z</time>
      </trkpt>
      <trkpt lat="43.61842" lon="3.7365">
        <ele>172.91358024691</ele>
        <time>2020-07-07T17:36:38.000Z</time>
      </trkpt>
      <trkpt lat="43.61841" lon="3.73646">
        <ele>173.032</ele>
        <time>2020-07-07T17:36:39.000Z</time>
      </trkpt>
      <trkpt lat="43.61841" lon="3.73643">
        <ele>173.232</ele>
        <time>2020-07-07T17:36:40.000Z</time>
      </trkpt>
      <trkpt lat="43.6184" lon="3.73639">
        <ele>173.432</ele>
        <time>2020-07-07T17:36:41.000Z</time>
      </trkpt>
      <trkpt lat="43.6184" lon="3.73636">
        <ele>173.632</ele>
        <time>2020-07-07T17:36:42.000Z</time>
      </trkpt>
      <trkpt lat="43.61839" lon="3.73632">
        <ele>173.832</ele>
        <time>2020-07-07T17:36:43.000Z</time>
      </trkpt>
      <trkpt lat="43.61838" lon="3.73629">
        <ele>174.032</ele>
        <time>2020-07-07T17:36:44.000Z</time>
      </trkpt>
      <trkpt lat="43.61838" lon="3.73625">
        <ele>174.232</ele>
        <time>2020-07-07T17:36:45.000Z</time>
      </trkpt>
      <trkpt lat="43.61837" lon="3.73622">
        <ele>174.432</ele>
        <time>2020-07-07T17:36:46.000Z</time>
      </trkpt>
      <trkpt lat="43.61836" lon="3.73619">
        <ele>174.632</ele>
        <time>2020-07-07T17:36:47.000Z</time>
      </trkpt>
      <trkpt lat="43.61836" lon="3.73615">
        <ele>174.832</ele>
        <time>2020-07-07T17:36:48.000Z</time>
      </trkpt>
      <trkpt lat="43.61835" lon="3.73612">
        <ele>175.016</ele>
        <time>2020-07-07T17:36:49.000Z</time>
      </trkpt>
      <trkpt lat="43.61835" lon="3.73609">
        <ele>175.116</ele>
        <time>2020-07-07T17:36:50.000Z</time>
      </trkpt>
      <trkpt lat="43.61834" lon="3.73606">
        <ele>175.216</ele>
        <time>2020-07-07T17:36:51.000Z</time>
      </trkpt>
      <trkpt lat="43.61834" lon="3.73603">
        <ele>175.316</ele>
        <time>2020-07-07T17:36:52.000Z</time>
      </trkpt>
      <trkpt lat="43.61833" lon="3.736">
        <ele>175.416</ele>
        <time>2020-07-07T17:36:53.000Z</time>
      </trkpt>
      <trkpt lat="43.61832" lon="3.73597">
        <ele>175.516</ele>
        <time>2020-07-07T17:36:54.000Z</time>
      </trkpt>
      <trkpt lat="43.61832" lon="3.73594">
        <ele>175.616</ele>
        <time>2020-07-07T17:36:55.000Z</time>
      </trkpt>
      <trkpt lat="43.61831" lon="3.73591">
        <ele>175.716</ele>
        <time>2020-07-07T17:36:56.000Z</time>
      </trkpt>
      <trkpt lat="43.6183" lon="3.73588">
        <ele>175.816</ele>
        <time>2020-07-07T17:36:57.000Z</time>
      </trkpt>
      <trkpt lat="43.6183" lon="3.73584">
        <ele>175.916</ele>
        <time>2020-07-07T17:36:58.000Z</time>
      </trkpt>
      <trkpt lat="43.61829" lon="3.73581">
        <ele>176.032</ele>
        <time>2020-07-07T17:36:59.000Z</time>
      </trkpt>
      <trkpt lat="43.61829" lon="3.73578">
        <ele>176.232</ele>
        <time>2020-07-07T17:37:00.000Z</time>
      </trkpt>
      <trkpt lat="43.61828" lon="3.73575">
        <ele>176.432</ele>
        <time>2020-07-07T17:37:01.000Z</time>
      </trkpt>
      <trkpt lat="43.61828" lon="3.73572">
        <ele>176.632</ele>
        <time>2020-07-07T17:37:02.000Z</time>
      </trkpt>
      <trkpt lat="43.61827" lon="3.73569">
        <ele>176.832</ele>
        <time>2020-07-07T17:37:03.000Z</time>
      </trkpt>
      <trkpt lat="43.61827" lon="3.73566">
        <ele>177.032</ele>
        <time>2020-07-07T17:37:04.000Z</time>
      </trkpt>
      <trkpt lat="43.61827" lon="3.73563">
        <ele>177.232</ele>
        <time>2020-07-07T17:37:05.000Z</time>
      </trkpt>
      <trkpt lat="43.61827" lon="3.7356">
        <ele>177.432</ele>
        <time>2020-07-07T17:37:06.000Z</time>
      </trkpt>
      <trkpt lat="43.61827" lon="3.73557">
        <ele>177.632</ele>
        <time>2020-07-07T17:37:07.000Z</time>
      </trkpt>
      <trkpt lat="43.61827" lon="3.73554">
        <ele>177.832</ele>
        <time>2020-07-07T17:37:08.000Z</time>
      </trkpt>
      <trkpt lat="43.61827" lon="3.73551">
        <ele>178</ele>
        <time>2020-07-07T17:37:09.000Z</time>
      </trkpt>
      <trkpt lat="43.61827" lon="3.73548">
        <ele>178</ele>
        <time>2020-07-07T17:37:10.000Z</time>
      </trkpt>
      <trkpt lat="43.61827" lon="3.73545">
        <ele>178</ele>
        <time>2020-07-07T17:37:11.000Z</time>
      </trkpt>
      <trkpt lat="43.61827" lon="3.73542">
        <ele>178</ele>
        <time>2020-07-07T17:37:12.000Z</time>
      </trkpt>
      <trkpt lat="43.61826" lon="3.73539">
        <ele>178</ele>
        <time>2020-07-07T17:37:13.000Z</time>
      </trkpt>
      <trkpt lat="43.61826" lon="3.73536">
        <ele>178</ele>
        <time>2020-07-07T17:37:14.000Z</time>
      </trkpt>
      <trkpt lat="43.61826" lon="3.73532">
        <ele>178</ele>
        <time>2020-07-07T17:37:15.000Z</time>
      </trkpt>
      <trkpt lat="43.61826" lon="3.73529">
        <ele>178</ele>
        <time>2020-07-07T17:37:16.000Z</time>
      </trkpt>
      <trkpt lat="43.61826" lon="3.73526">
        <ele>178</ele>
        <time>2020-07-07T17:37:17.000Z</time>
      </trkpt>
      <trkpt lat="43.61826" lon="3.73522">
        <ele>178</ele>
        <time>2020-07-07T17:37:18.000Z</time>
      </trkpt>
      <trkpt lat="43.61826" lon="3.73519">
        <ele>178</ele>
        <time>2020-07-07T17:37:19.000Z</time>
      </trkpt>
      <trkpt lat="43.61826" lon="3.73515">
        <ele>178</ele>
        <time>2020-07-07T17:37:20.000Z</time>
      </trkpt>
      <trkpt lat="43.61826" lon="3.73511">
        <ele>178</ele>
        <time>2020-07-07T17:37:21.000Z</time>
      </trkpt>
      <trkpt lat="43.61826" lon="3.73507">
        <ele>178</ele>
        <time>2020-07-07T17:37:22.000Z</time>
      </trkpt>
      <trkpt lat="43.61825" lon="3.73503">
        <ele>178</ele>
        <time>2020-07-07T17:37:23.000Z</time>
      </trkpt>
      <trkpt lat="43.61826" lon="3.73499">
        <ele>178</ele>
        <time>2020-07-07T17:37:24.000Z</time>
      </trkpt>
      <trkpt lat="43.61826" lon="3.73494">
        <ele>178</ele>
        <time>2020-07-07T17:37:25.000Z</time>
      </trkpt>
      <trkpt lat="43.61826" lon="3.7349">
        <ele>178</ele>
        <time>2020-07-07T17:37:26.000Z</time>
      </trkpt>
      <trkpt lat="43.61827" lon="3.73485">
        <ele>178</ele>
        <time>2020-07-07T17:37:27.000Z</time>
      </trkpt>
      <trkpt lat="43.61828" lon="3.7348">
        <ele>178</ele>
        <time>2020-07-07T17:37:28.000Z</time>
      </trkpt>
      <trkpt lat="43.61828" lon="3.73475">
        <ele>177.968</ele>
        <time>2020-07-07T17:37:29.000Z</time>
      </trkpt>
      <trkpt lat="43.61829" lon="3.73469">
        <ele>177.768</ele>
        <time>2020-07-07T17:37:30.000Z</time>
      </trkpt>
      <trkpt lat="43.61831" lon="3.73463">
        <ele>177.568</ele>
        <time>2020-07-07T17:37:31.000Z</time>
      </trkpt>
      <trkpt lat="43.61832" lon="3.73457">
        <ele>177.368</ele>
        <time>2020-07-07T17:37:32.000Z</time>
      </trkpt>
      <trkpt lat="43.61834" lon="3.7345">
        <ele>177.168</ele>
        <time>2020-07-07T17:37:33.000Z</time>
      </trkpt>
      <trkpt lat="43.61835" lon="3.73442">
        <ele>176.968</ele>
        <time>2020-07-07T17:37:34.000Z</time>
      </trkpt>
      <trkpt lat="43.61837" lon="3.73434">
        <ele>176.768</ele>
        <time>2020-07-07T17:37:35.000Z</time>
      </trkpt>
      <trkpt lat="43.61839" lon="3.73426">
        <ele>176.568</ele>
        <time>2020-07-07T17:37:36.000Z</time>
      </trkpt>
      <trkpt lat="43.61841" lon="3.73418">
        <ele>176.368</ele>
        <time>2020-07-07T17:37:37.000Z</time>
      </trkpt>
      <trkpt lat="43.61843" lon="3.73409">
        <ele>176.168</ele>
        <time>2020-07-07T17:37:38.000Z</time>
      </trkpt>
      <trkpt lat="43.61845" lon="3.734">
        <ele>175.984</ele>
        <time>2020-07-07T17:37:39.000Z</time>
      </trkpt>
      <trkpt lat="43.61847" lon="3.7339">
        <ele>175.884</ele>
        <time>2020-07-07T17:37:40.000Z</time>
      </trkpt>
      <trkpt lat="43.61849" lon="3.73381">
        <ele>175.784</ele>
        <time>2020-07-07T17:37:41.000Z</time>
      </trkpt>
      <trkpt lat="43.61851" lon="3.73372">
        <ele>175.684</ele>
        <time>2020-07-07T17:37:42.000Z</time>
      </trkpt>
      <trkpt lat="43.61852" lon="3.73363">
        <ele>175.584</ele>
        <time>2020-07-07T17:37:43.000Z</time>
      </trkpt>
      <trkpt lat="43.61853" lon="3.73354">
        <ele>175.484</ele>
        <time>2020-07-07T17:37:44.000Z</time>
      </trkpt>
      <trkpt lat="43.61854" lon="3.73346">
        <ele>175.384</ele>
        <time>2020-07-07T17:37:45.000Z</time>
      </trkpt>
      <trkpt lat="43.61856" lon="3.73337">
        <ele>175.284</ele>
        <time>2020-07-07T17:37:46.000Z</time>
      </trkpt>
      <trkpt lat="43.61857" lon="3.73329">
        <ele>175.184</ele>
        <time>2020-07-07T17:37:47.000Z</time>
      </trkpt>
      <trkpt lat="43.61858" lon="3.73321">
        <ele>175.084</ele>
        <time>2020-07-07T17:37:48.000Z</time>
      </trkpt>
      <trkpt lat="43.61858" lon="3.73313">
        <ele>175.016</ele>
        <time>2020-07-07T17:37:49.000Z</time>
      </trkpt>
      <trkpt lat="43.61859" lon="3.73306">
        <ele>175.116</ele>
        <time>2020-07-07T17:37:50.000Z</time>
      </trkpt>
      <trkpt lat="43.61859" lon="3.733">
        <ele>175.216</ele>
        <time>2020-07-07T17:37:51.000Z</time>
      </trkpt>
      <trkpt lat="43.61859" lon="3.73294">
        <ele>175.316</ele>
        <time>2020-07-07T17:37:52.000Z</time>
      </trkpt>
      <trkpt lat="43.61859" lon="3.73288">
        <ele>175.416</ele>
        <time>2020-07-07T17:37:53.000Z</time>
      </trkpt>
      <trkpt lat="43.61859" lon="3.73283">
        <ele>175.516</ele>
        <time>2020-07-07T17:37:54.000Z</time>
      </trkpt>
      <trkpt lat="43.61859" lon="3.73277">
        <ele>175.616</ele>
        <time>2020-07-07T17:37:55.000Z</time>
      </trkpt>
      <trkpt lat="43.61859" lon="3.73272">
        <ele>175.716</ele>
        <time>2020-07-07T17:37:56.000Z</time>
      </trkpt>
      <trkpt lat="43.61859" lon="3.73267">
        <ele>175.816</ele>
        <time>2020-07-07T17:37:57.000Z</time>
      </trkpt>
      <trkpt lat="43.61858" lon="3.73262">
        <ele>175.916</ele>
        <time>2020-07-07T17:37:58.000Z</time>
      </trkpt>
      <trkpt lat="43.61858" lon="3.73257">
        <ele>176.016</ele>
        <time>2020-07-07T17:37:59.000Z</time>
      </trkpt>
      <trkpt lat="43.61858" lon="3.73252">
        <ele>176.116</ele>
        <time>2020-07-07T17:38:00.000Z</time>
      </trkpt>
      <trkpt lat="43.61857" lon="3.73247">
        <ele>176.216</ele>
        <time>2020-07-07T17:38:01.000Z</time>
      </trkpt>
      <trkpt lat="43.61857" lon="3.73242">
        <ele>176.316</ele>
        <time>2020-07-07T17:38:02.000Z</time>
      </trkpt>
      <trkpt lat="43.61856" lon="3.73238">
        <ele>176.416</ele>
        <time>2020-07-07T17:38:03.000Z</time>
      </trkpt>
      <trkpt lat="43.61856" lon="3.73234">
        <ele>176.516</ele>
        <time>2020-07-07T17:38:04.000Z</time>
      </trkpt>
      <trkpt lat="43.61855" lon="3.73229">
        <ele>176.616</ele>
        <time>2020-07-07T17:38:05.000Z</time>
      </trkpt>
      <trkpt lat="43.61855" lon="3.73225">
        <ele>176.716</ele>
        <time>2020-07-07T17:38:06.000Z</time>
      </trkpt>
      <trkpt lat="43.61854" lon="3.7322">
        <ele>176.816</ele>
        <time>2020-07-07T17:38:07.000Z</time>
      </trkpt>
      <trkpt lat="43.61853" lon="3.73216">
        <ele>176.916</ele>
        <time>2020-07-07T17:38:08.000Z</time>
      </trkpt>
      <trkpt lat="43.61852" lon="3.73212">
        <ele>177.016</ele>
        <time>2020-07-07T17:38:09.000Z</time>
      </trkpt>
      <trkpt lat="43.61851" lon="3.73208">
        <ele>177.116</ele>
        <time>2020-07-07T17:38:10.000Z</time>
      </trkpt>
      <trkpt lat="43.61851" lon="3.73203">
        <ele>177.216</ele>
        <time>2020-07-07T17:38:11.000Z</time>
      </trkpt>
      <trkpt lat="43.6185" lon="3.73199">
        <ele>177.316</ele>
        <time>2020-07-07T17:38:12.000Z</time>
      </trkpt>
      <trkpt lat="43.61849" lon="3.73194">
        <ele>177.416</ele>
        <time>2020-07-07T17:38:13.000Z</time>
      </trkpt>
      <trkpt lat="43.61848" lon="3.7319">
        <ele>177.516</ele>
        <time>2020-07-07T17:38:14.000Z</time>
      </trkpt>
      <trkpt lat="43.61847" lon="3.73185">
        <ele>177.616</ele>
        <time>2020-07-07T17:38:15.000Z</time>
      </trkpt>
      <trkpt lat="43.61846" lon="3.7318">
        <ele>177.716</ele>
        <time>2020-07-07T17:38:16.000Z</time>
      </trkpt>
      <trkpt lat="43.61846" lon="3.73176">
        <ele>177.816</ele>
        <time>2020-07-07T17:38:17.000Z</time>
      </trkpt>
      <trkpt lat="43.61845" lon="3.73171">
        <ele>177.916</ele>
        <time>2020-07-07T17:38:18.000Z</time>
      </trkpt>
      <trkpt lat="43.61844" lon="3.73166">
        <ele>178</ele>
        <time>2020-07-07T17:38:19.000Z</time>
      </trkpt>
      <trkpt lat="43.61843" lon="3.73161">
        <ele>178</ele>
        <time>2020-07-07T17:38:20.000Z</time>
      </trkpt>
      <trkpt lat="43.61843" lon="3.73156">
        <ele>178</ele>
        <time>2020-07-07T17:38:21.000Z</time>
      </trkpt>
      <trkpt lat="43.61842" lon="3.73151">
        <ele>178</ele>
        <time>2020-07-07T17:38:22.000Z</time>
      </trkpt>
      <trkpt lat="43.61842" lon="3.73146">
        <ele>178</ele>
        <time>2020-07-07T17:38:23.000Z</time>
      </trkpt>
      <trkpt lat="43.61841" lon="3.7314">
        <ele>178</ele>
        <time>2020-07-07T17:38:24.000Z</time>
      </trkpt>
      <trkpt lat="43.6184" lon="3.73134">
        <ele>178</ele>
        <time>2020-07-07T17:38:25.000Z</time>
      </trkpt>
      <trkpt lat="43.6184" lon="3.73129">
        <ele>178</ele>
        <time>2020-07-07T17:38:26.000Z</time>
      </trkpt>
      <trkpt lat="43.61839" lon="3.73123">
        <ele>178</ele>
        <time>2020-07-07T17:38:27.000Z</time>
      </trkpt>
      <trkpt lat="43.61839" lon="3.73117">
        <ele>178</ele>
        <time>2020-07-07T17:38:28.000Z</time>
      </trkpt>
      <trkpt lat="43.61838" lon="3.73111">
        <ele>178</ele>
        <time>2020-07-07T17:38:29.000Z</time>
      </trkpt>
      <trkpt lat="43.61838" lon="3.73105">
        <ele>178</ele>
        <time>2020-07-07T17:38:30.000Z</time>
      </trkpt>
      <trkpt lat="43.61837" lon="3.731">
        <ele>178</ele>
        <time>2020-07-07T17:38:31.000Z</time>
      </trkpt>
      <trkpt lat="43.61836" lon="3.73094">
        <ele>178</ele>
        <time>2020-07-07T17:38:32.000Z</time>
      </trkpt>
      <trkpt lat="43.61836" lon="3.73088">
        <ele>178</ele>
        <time>2020-07-07T17:38:33.000Z</time>
      </trkpt>
      <trkpt lat="43.61835" lon="3.73082">
        <ele>178</ele>
        <time>2020-07-07T17:38:34.000Z</time>
      </trkpt>
      <trkpt lat="43.61835" lon="3.73076">
        <ele>178</ele>
        <time>2020-07-07T17:38:35.000Z</time>
      </trkpt>
      <trkpt lat="43.61834" lon="3.7307">
        <ele>178</ele>
        <time>2020-07-07T17:38:36.000Z</time>
      </trkpt>
      <trkpt lat="43.61834" lon="3.73064">
        <ele>178</ele>
        <time>2020-07-07T17:38:37.000Z</time>
      </trkpt>
      <trkpt lat="43.61833" lon="3.73058">
        <ele>178</ele>
        <time>2020-07-07T17:38:38.000Z</time>
      </trkpt>
      <trkpt lat="43.61832" lon="3.73052">
        <ele>178.016</ele>
        <time>2020-07-07T17:38:39.000Z</time>
      </trkpt>
      <trkpt lat="43.61832" lon="3.73046">
        <ele>178.116</ele>
        <time>2020-07-07T17:38:40.000Z</time>
      </trkpt>
      <trkpt lat="43.61831" lon="3.7304">
        <ele>178.216</ele>
        <time>2020-07-07T17:38:41.000Z</time>
      </trkpt>
      <trkpt lat="43.61831" lon="3.73035">
        <ele>178.316</ele>
        <time>2020-07-07T17:38:42.000Z</time>
      </trkpt>
      <trkpt lat="43.6183" lon="3.73029">
        <ele>178.416</ele>
        <time>2020-07-07T17:38:43.000Z</time>
      </trkpt>
      <trkpt lat="43.61829" lon="3.73024">
        <ele>178.516</ele>
        <time>2020-07-07T17:38:44.000Z</time>
      </trkpt>
      <trkpt lat="43.61829" lon="3.73019">
        <ele>178.616</ele>
        <time>2020-07-07T17:38:45.000Z</time>
      </trkpt>
      <trkpt lat="43.61828" lon="3.73013">
        <ele>178.716</ele>
        <time>2020-07-07T17:38:46.000Z</time>
      </trkpt>
      <trkpt lat="43.61827" lon="3.73008">
        <ele>178.816</ele>
        <time>2020-07-07T17:38:47.000Z</time>
      </trkpt>
      <trkpt lat="43.61827" lon="3.73003">
        <ele>178.916</ele>
        <time>2020-07-07T17:38:48.000Z</time>
      </trkpt>
      <trkpt lat="43.61826" lon="3.72998">
        <ele>179.016</ele>
        <time>2020-07-07T17:38:49.000Z</time>
      </trkpt>
      <trkpt lat="43.61825" lon="3.72993">
        <ele>179.116</ele>
        <time>2020-07-07T17:38:50.000Z</time>
      </trkpt>
      <trkpt lat="43.61824" lon="3.72989">
        <ele>179.216</ele>
        <time>2020-07-07T17:38:51.000Z</time>
      </trkpt>
      <trkpt lat="43.61823" lon="3.72984">
        <ele>179.316</ele>
        <time>2020-07-07T17:38:52.000Z</time>
      </trkpt>
      <trkpt lat="43.61821" lon="3.7298">
        <ele>179.416</ele>
        <time>2020-07-07T17:38:53.000Z</time>
      </trkpt>
      <trkpt lat="43.6182" lon="3.72976">
        <ele>179.516</ele>
        <time>2020-07-07T17:38:54.000Z</time>
      </trkpt>
      <trkpt lat="43.61819" lon="3.72972">
        <ele>179.616</ele>
        <time>2020-07-07T17:38:55.000Z</time>
      </trkpt>
      <trkpt lat="43.61817" lon="3.72968">
        <ele>179.716</ele>
        <time>2020-07-07T17:38:56.000Z</time>
      </trkpt>
      <trkpt lat="43.61816" lon="3.72964">
        <ele>179.816</ele>
        <time>2020-07-07T17:38:57.000Z</time>
      </trkpt>
      <trkpt lat="43.61814" lon="3.72961">
        <ele>179.916</ele>
        <time>2020-07-07T17:38:58.000Z</time>
      </trkpt>
      <trkpt lat="43.61813" lon="3.72957">
        <ele>180.01556420234</ele>
        <time>2020-07-07T17:38:59.000Z</time>
      </trkpt>
      <trkpt lat="43.61811" lon="3.72954">
        <ele>180.11284046693</ele>
        <time>2020-07-07T17:39:00.000Z</time>
      </trkpt>
      <trkpt lat="43.6181" lon="3.72951">
        <ele>180.21011673152</ele>
        <time>2020-07-07T17:39:01.000Z</time>
      </trkpt>
      <trkpt lat="43.61808" lon="3.72948">
        <ele>180.30739299611</ele>
        <time>2020-07-07T17:39:02.000Z</time>
      </trkpt>
      <trkpt lat="43.61807" lon="3.72945">
        <ele>180.4046692607</ele>
        <time>2020-07-07T17:39:03.000Z</time>
      </trkpt>
      <trkpt lat="43.61806" lon="3.72942">
        <ele>180.50194552529</ele>
        <time>2020-07-07T17:39:04.000Z</time>
      </trkpt>
      <trkpt lat="43.61805" lon="3.7294">
        <ele>180.59922178988</ele>
        <time>2020-07-07T17:39:05.000Z</time>
      </trkpt>
      <trkpt lat="43.61804" lon="3.72937">
        <ele>180.69649805448</ele>
        <time>2020-07-07T17:39:06.000Z</time>
      </trkpt>
      <trkpt lat="43.61803" lon="3.72934">
        <ele>180.79377431907</ele>
        <time>2020-07-07T17:39:07.000Z</time>
      </trkpt>
      <trkpt lat="43.61801" lon="3.72931">
        <ele>180.89105058366</ele>
        <time>2020-07-07T17:39:08.000Z</time>
      </trkpt>
      <trkpt lat="43.618" lon="3.72929">
        <ele>180.98832684825</ele>
        <time>2020-07-07T17:39:09.000Z</time>
      </trkpt>
      <trkpt lat="43.61799" lon="3.72926">
        <ele>181.18106995885</ele>
        <time>2020-07-07T17:39:10.000Z</time>
      </trkpt>
      <trkpt lat="43.61798" lon="3.72923">
        <ele>181.38683127572</ele>
        <time>2020-07-07T17:39:11.000Z</time>
      </trkpt>
      <trkpt lat="43.61797" lon="3.7292">
        <ele>181.59259259259</ele>
        <time>2020-07-07T17:39:12.000Z</time>
      </trkpt>
      <trkpt lat="43.61796" lon="3.72917">
        <ele>181.79835390946</ele>
        <time>2020-07-07T17:39:13.000Z</time>
      </trkpt>
      <trkpt lat="43.61795" lon="3.72914">
        <ele>182.00411522634</ele>
        <time>2020-07-07T17:39:14.000Z</time>
      </trkpt>
      <trkpt lat="43.61794" lon="3.72911">
        <ele>182.20987654321</ele>
        <time>2020-07-07T17:39:15.000Z</time>
      </trkpt>
      <trkpt lat="43.61793" lon="3.72908">
        <ele>182.41563786008</ele>
        <time>2020-07-07T17:39:16.000Z</time>
      </trkpt>
      <trkpt lat="43.61792" lon="3.72905">
        <ele>182.62139917696</ele>
        <time>2020-07-07T17:39:17.000Z</time>
      </trkpt>
      <trkpt lat="43.61791" lon="3.72902">
        <ele>182.82716049383</ele>
        <time>2020-07-07T17:39:18.000Z</time>
      </trkpt>
      <trkpt lat="43.6179" lon="3.72899">
        <ele>183.032</ele>
        <time>2020-07-07T17:39:19.000Z</time>
      </trkpt>
      <trkpt lat="43.61789" lon="3.72896">
        <ele>183.232</ele>
        <time>2020-07-07T17:39:20.000Z</time>
      </trkpt>
      <trkpt lat="43.61788" lon="3.72893">
        <ele>183.432</ele>
        <time>2020-07-07T17:39:21.000Z</time>
      </trkpt>
      <trkpt lat="43.61787" lon="3.7289">
        <ele>183.632</ele>
        <time>2020-07-07T17:39:22.000Z</time>
      </trkpt>
      <trkpt lat="43.61786" lon="3.72887">
        <ele>183.832</ele>
        <time>2020-07-07T17:39:23.000Z</time>
      </trkpt>
      <trkpt lat="43.61785" lon="3.72884">
        <ele>184.032</ele>
        <time>2020-07-07T17:39:24.000Z</time>
      </trkpt>
      <trkpt lat="43.61784" lon="3.72881">
        <ele>184.232</ele>
        <time>2020-07-07T17:39:25.000Z</time>
      </trkpt>
      <trkpt lat="43.61784" lon="3.72879">
        <ele>184.432</ele>
        <time>2020-07-07T17:39:26.000Z</time>
      </trkpt>
      <trkpt lat="43.61783" lon="3.72876">
        <ele>184.632</ele>
        <time>2020-07-07T17:39:27.000Z</time>
      </trkpt>
      <trkpt lat="43.61782" lon="3.72874">
        <ele>184.832</ele>
        <time>2020-07-07T17:39:28.000Z</time>
      </trkpt>
      <trkpt lat="43.61781" lon="3.72871">
        <ele>185.016</ele>
        <time>2020-07-07T17:39:29.000Z</time>
      </trkpt>
      <trkpt lat="43.6178" lon="3.72869">
        <ele>185.116</ele>
        <time>2020-07-07T17:39:30.000Z</time>
      </trkpt>
      <trkpt lat="43.61779" lon="3.72866">
        <ele>185.216</ele>
        <time>2020-07-07T17:39:31.000Z</time>
      </trkpt>
      <trkpt lat="43.61778" lon="3.72864">
        <ele>185.316</ele>
        <time>2020-07-07T17:39:32.000Z</time>
      </trkpt>
      <trkpt lat="43.61778" lon="3.72861">
        <ele>185.416</ele>
        <time>2020-07-07T17:39:33.000Z</time>
      </trkpt>
      <trkpt lat="43.61777" lon="3.72859">
        <ele>185.516</ele>
        <time>2020-07-07T17:39:34.000Z</time>
      </trkpt>
      <trkpt lat="43.61776" lon="3.72856">
        <ele>185.616</ele>
        <time>2020-07-07T17:39:35.000Z</time>
      </trkpt>
      <trkpt lat="43.61775" lon="3.72853">
        <ele>185.716</ele>
        <time>2020-07-07T17:39:36.000Z</time>
      </trkpt>
      <trkpt lat="43.61774" lon="3.72851">
        <ele>185.816</ele>
        <time>2020-07-07T17:39:37.000Z</time>
      </trkpt>
      <trkpt lat="43.61773" lon="3.72848">
        <ele>185.916</ele>
        <time>2020-07-07T17:39:38.000Z</time>
      </trkpt>
      <trkpt lat="43.61772" lon="3.72845">
        <ele>186.016</ele>
        <time>2020-07-07T17:39:39.000Z</time>
      </trkpt>
      <trkpt lat="43.61771" lon="3.72843">
        <ele>186.116</ele>
        <time>2020-07-07T17:39:40.000Z</time>
      </trkpt>
      <trkpt lat="43.61771" lon="3.7284">
        <ele>186.216</ele>
        <time>2020-07-07T17:39:41.000Z</time>
      </trkpt>
      <trkpt lat="43.6177" lon="3.72837">
        <ele>186.316</ele>
        <time>2020-07-07T17:39:42.000Z</time>
      </trkpt>
      <trkpt lat="43.61769" lon="3.72834">
        <ele>186.416</ele>
        <time>2020-07-07T17:39:43.000Z</time>
      </trkpt>
      <trkpt lat="43.61768" lon="3.72831">
        <ele>186.516</ele>
        <time>2020-07-07T17:39:44.000Z</time>
      </trkpt>
      <trkpt lat="43.61767" lon="3.72828">
        <ele>186.616</ele>
        <time>2020-07-07T17:39:45.000Z</time>
      </trkpt>
      <trkpt lat="43.61767" lon="3.72825">
        <ele>186.716</ele>
        <time>2020-07-07T17:39:46.000Z</time>
      </trkpt>
      <trkpt lat="43.61766" lon="3.72822">
        <ele>186.816</ele>
        <time>2020-07-07T17:39:47.000Z</time>
      </trkpt>
      <trkpt lat="43.61765" lon="3.72819">
        <ele>186.916</ele>
        <time>2020-07-07T17:39:48.000Z</time>
      </trkpt>
      <trkpt lat="43.61764" lon="3.72816">
        <ele>187.016</ele>
        <time>2020-07-07T17:39:49.000Z</time>
      </trkpt>
      <trkpt lat="43.61764" lon="3.72814">
        <ele>187.116</ele>
        <time>2020-07-07T17:39:50.000Z</time>
      </trkpt>
      <trkpt lat="43.61763" lon="3.72811">
        <ele>187.216</ele>
        <time>2020-07-07T17:39:51.000Z</time>
      </trkpt>
      <trkpt lat="43.61762" lon="3.72808">
        <ele>187.316</ele>
        <time>2020-07-07T17:39:52.000Z</time>
      </trkpt>
      <trkpt lat="43.61761" lon="3.72805">
        <ele>187.416</ele>
        <time>2020-07-07T17:39:53.000Z</time>
      </trkpt>
      <trkpt lat="43.6176" lon="3.72802">
        <ele>187.516</ele>
        <time>2020-07-07T17:39:54.000Z</time>
      </trkpt>
      <trkpt lat="43.61759" lon="3.72799">
        <ele>187.616</ele>
        <time>2020-07-07T17:39:55.000Z</time>
      </trkpt>
      <trkpt lat="43.61758" lon="3.72796">
        <ele>187.716</ele>
        <time>2020-07-07T17:39:56.000Z</time>
      </trkpt>
      <trkpt lat="43.61757" lon="3.72793">
        <ele>187.816</ele>
        <time>2020-07-07T17:39:57.000Z</time>
      </trkpt>
      <trkpt lat="43.61756" lon="3.7279">
        <ele>187.916</ele>
        <time>2020-07-07T17:39:58.000Z</time>
      </trkpt>
      <trkpt lat="43.61755" lon="3.72787">
        <ele>188</ele>
        <time>2020-07-07T17:39:59.000Z</time>
      </trkpt>
      <trkpt lat="43.61754" lon="3.72784">
        <ele>188</ele>
        <time>2020-07-07T17:40:00.000Z</time>
      </trkpt>
      <trkpt lat="43.61753" lon="3.72781">
        <ele>188</ele>
        <time>2020-07-07T17:40:01.000Z</time>
      </trkpt>
      <trkpt lat="43.61751" lon="3.72778">
        <ele>188</ele>
        <time>2020-07-07T17:40:02.000Z</time>
      </trkpt>
      <trkpt lat="43.6175" lon="3.72775">
        <ele>188</ele>
        <time>2020-07-07T17:40:03.000Z</time>
      </trkpt>
      <trkpt lat="43.61749" lon="3.72772">
        <ele>188</ele>
        <time>2020-07-07T17:40:04.000Z</time>
      </trkpt>
      <trkpt lat="43.61747" lon="3.72769">
        <ele>188</ele>
        <time>2020-07-07T17:40:05.000Z</time>
      </trkpt>
      <trkpt lat="43.61746" lon="3.72766">
        <ele>188</ele>
        <time>2020-07-07T17:40:06.000Z</time>
      </trkpt>
      <trkpt lat="43.61744" lon="3.72763">
        <ele>188</ele>
        <time>2020-07-07T17:40:07.000Z</time>
      </trkpt>
      <trkpt lat="43.61743" lon="3.72759">
        <ele>188</ele>
        <time>2020-07-07T17:40:08.000Z</time>
      </trkpt>
      <trkpt lat="43.61741" lon="3.72756">
        <ele>188</ele>
        <time>2020-07-07T17:40:09.000Z</time>
      </trkpt>
      <trkpt lat="43.61739" lon="3.72753">
        <ele>188.08866039511</ele>
        <time>2020-07-07T17:40:10.000Z</time>
      </trkpt>
      <trkpt lat="43.61737" lon="3.72749">
        <ele>188.1917531106</ele>
        <time>2020-07-07T17:40:11.000Z</time>
      </trkpt>
      <trkpt lat="43.61735" lon="3.72745">
        <ele>188.29484582608</ele>
        <time>2020-07-07T17:40:12.000Z</time>
      </trkpt>
      <trkpt lat="43.61733" lon="3.72742">
        <ele>188.39793854157</ele>
        <time>2020-07-07T17:40:13.000Z</time>
      </trkpt>
      <trkpt lat="43.61731" lon="3.72738">
        <ele>188.50103125705</ele>
        <time>2020-07-07T17:40:14.000Z</time>
      </trkpt>
      <trkpt lat="43.61729" lon="3.72734">
        <ele>188.60412397254</ele>
        <time>2020-07-07T17:40:15.000Z</time>
      </trkpt>
      <trkpt lat="43.61727" lon="3.7273">
        <ele>188.70721668802</ele>
        <time>2020-07-07T17:40:16.000Z</time>
      </trkpt>
      <trkpt lat="43.61725" lon="3.72726">
        <ele>188.81030940351</ele>
        <time>2020-07-07T17:40:17.000Z</time>
      </trkpt>
      <trkpt lat="43.61723" lon="3.72722">
        <ele>188.91340211899</ele>
        <time>2020-07-07T17:40:18.000Z</time>
      </trkpt>
      <trkpt lat="43.6172" lon="3.72718">
        <ele>189.016</ele>
        <time>2020-07-07T17:40:19.000Z</time>
      </trkpt>
      <trkpt lat="43.61719" lon="3.72714">
        <ele>189.116</ele>
        <time>2020-07-07T17:40:20.000Z</time>
      </trkpt>
      <trkpt lat="43.61717" lon="3.7271">
        <ele>189.216</ele>
        <time>2020-07-07T17:40:21.000Z</time>
      </trkpt>
      <trkpt lat="43.61715" lon="3.72707">
        <ele>189.316</ele>
        <time>2020-07-07T17:40:22.000Z</time>
      </trkpt>
      <trkpt lat="43.61712" lon="3.72703">
        <ele>189.416</ele>
        <time>2020-07-07T17:40:23.000Z</time>
      </trkpt>
      <trkpt lat="43.61711" lon="3.727">
        <ele>189.516</ele>
        <time>2020-07-07T17:40:24.000Z</time>
      </trkpt>
      <trkpt lat="43.61709" lon="3.72696">
        <ele>189.616</ele>
        <time>2020-07-07T17:40:25.000Z</time>
      </trkpt>
      <trkpt lat="43.61707" lon="3.72692">
        <ele>189.716</ele>
        <time>2020-07-07T17:40:26.000Z</time>
      </trkpt>
      <trkpt lat="43.61705" lon="3.72689">
        <ele>189.816</ele>
        <time>2020-07-07T17:40:27.000Z</time>
      </trkpt>
      <trkpt lat="43.61704" lon="3.72686">
        <ele>189.916</ele>
        <time>2020-07-07T17:40:28.000Z</time>
      </trkpt>
      <trkpt lat="43.61702" lon="3.72682">
        <ele>190.016</ele>
        <time>2020-07-07T17:40:29.000Z</time>
      </trkpt>
      <trkpt lat="43.617" lon="3.72679">
        <ele>190.116</ele>
        <time>2020-07-07T17:40:30.000Z</time>
      </trkpt>
      <trkpt lat="43.61699" lon="3.72676">
        <ele>190.216</ele>
        <time>2020-07-07T17:40:31.000Z</time>
      </trkpt>
      <trkpt lat="43.61697" lon="3.72673">
        <ele>190.316</ele>
        <time>2020-07-07T17:40:32.000Z</time>
      </trkpt>
      <trkpt lat="43.61696" lon="3.72671">
        <ele>190.416</ele>
        <time>2020-07-07T17:40:33.000Z</time>
      </trkpt>
      <trkpt lat="43.61694" lon="3.72668">
        <ele>190.516</ele>
        <time>2020-07-07T17:40:34.000Z</time>
      </trkpt>
      <trkpt lat="43.61693" lon="3.72665">
        <ele>190.616</ele>
        <time>2020-07-07T17:40:35.000Z</time>
      </trkpt>
      <trkpt lat="43.61692" lon="3.72663">
        <ele>190.716</ele>
        <time>2020-07-07T17:40:36.000Z</time>
      </trkpt>
      <trkpt lat="43.6169" lon="3.72661">
        <ele>190.816</ele>
        <time>2020-07-07T17:40:37.000Z</time>
      </trkpt>
      <trkpt lat="43.61689" lon="3.72659">
        <ele>190.916</ele>
        <time>2020-07-07T17:40:38.000Z</time>
      </trkpt>
      <trkpt lat="43.61688" lon="3.72656">
        <ele>191.032</ele>
        <time>2020-07-07T17:40:39.000Z</time>
      </trkpt>
      <trkpt lat="43.61687" lon="3.72654">
        <ele>191.232</ele>
        <time>2020-07-07T17:40:40.000Z</time>
      </trkpt>
      <trkpt lat="43.61685" lon="3.72652">
        <ele>191.432</ele>
        <time>2020-07-07T17:40:41.000Z</time>
      </trkpt>
      <trkpt lat="43.61684" lon="3.7265">
        <ele>191.632</ele>
        <time>2020-07-07T17:40:42.000Z</time>
      </trkpt>
      <trkpt lat="43.61683" lon="3.72648">
        <ele>191.832</ele>
        <time>2020-07-07T17:40:43.000Z</time>
      </trkpt>
      <trkpt lat="43.61682" lon="3.72646">
        <ele>192.032</ele>
        <time>2020-07-07T17:40:44.000Z</time>
      </trkpt>
      <trkpt lat="43.61681" lon="3.72644">
        <ele>192.232</ele>
        <time>2020-07-07T17:40:45.000Z</time>
      </trkpt>
      <trkpt lat="43.61678" lon="3.7264">
        <ele>192.632</ele>
        <time>2020-07-07T17:40:47.000Z</time>
      </trkpt>
      <trkpt lat="43.61676" lon="3.72636">
        <ele>193.032</ele>
        <time>2020-07-07T17:40:49.000Z</time>
      </trkpt>
      <trkpt lat="43.61675" lon="3.72634">
        <ele>193.232</ele>
        <time>2020-07-07T17:40:50.000Z</time>
      </trkpt>
      <trkpt lat="43.61672" lon="3.72631">
        <ele>193.632</ele>
        <time>2020-07-07T17:40:52.000Z</time>
      </trkpt>
      <trkpt lat="43.6167" lon="3.72627">
        <ele>194.032</ele>
        <time>2020-07-07T17:40:54.000Z</time>
      </trkpt>
      <trkpt lat="43.61668" lon="3.72624">
        <ele>194.432</ele>
        <time>2020-07-07T17:40:56.000Z</time>
      </trkpt>
      <trkpt lat="43.61666" lon="3.72622">
        <ele>194.632</ele>
        <time>2020-07-07T17:40:57.000Z</time>
      </trkpt>
      <trkpt lat="43.61665" lon="3.72619">
        <ele>194.832</ele>
        <time>2020-07-07T17:40:58.000Z</time>
      </trkpt>
      <trkpt lat="43.61663" lon="3.72617">
        <ele>195.048</ele>
        <time>2020-07-07T17:40:59.000Z</time>
      </trkpt>
      <trkpt lat="43.61661" lon="3.72614">
        <ele>195.348</ele>
        <time>2020-07-07T17:41:00.000Z</time>
      </trkpt>
      <trkpt lat="43.61658" lon="3.72612">
        <ele>195.648</ele>
        <time>2020-07-07T17:41:01.000Z</time>
      </trkpt>
      <trkpt lat="43.61656" lon="3.72609">
        <ele>195.948</ele>
        <time>2020-07-07T17:41:02.000Z</time>
      </trkpt>
      <trkpt lat="43.61655" lon="3.72607">
        <ele>196.248</ele>
        <time>2020-07-07T17:41:03.000Z</time>
      </trkpt>
      <trkpt lat="43.61653" lon="3.72605">
        <ele>196.548</ele>
        <time>2020-07-07T17:41:04.000Z</time>
      </trkpt>
      <trkpt lat="43.61651" lon="3.72603">
        <ele>196.848</ele>
        <time>2020-07-07T17:41:05.000Z</time>
      </trkpt>
      <trkpt lat="43.61649" lon="3.726">
        <ele>197.148</ele>
        <time>2020-07-07T17:41:06.000Z</time>
      </trkpt>
      <trkpt lat="43.61647" lon="3.72598">
        <ele>197.448</ele>
        <time>2020-07-07T17:41:07.000Z</time>
      </trkpt>
      <trkpt lat="43.61645" lon="3.72596">
        <ele>197.748</ele>
        <time>2020-07-07T17:41:08.000Z</time>
      </trkpt>
      <trkpt lat="43.61644" lon="3.72594">
        <ele>198.016</ele>
        <time>2020-07-07T17:41:09.000Z</time>
      </trkpt>
      <trkpt lat="43.61642" lon="3.72591">
        <ele>198.116</ele>
        <time>2020-07-07T17:41:10.000Z</time>
      </trkpt>
      <trkpt lat="43.61641" lon="3.72589">
        <ele>198.216</ele>
        <time>2020-07-07T17:41:11.000Z</time>
      </trkpt>
      <trkpt lat="43.6164" lon="3.72587">
        <ele>198.316</ele>
        <time>2020-07-07T17:41:12.000Z</time>
      </trkpt>
      <trkpt lat="43.61638" lon="3.72585">
        <ele>198.416</ele>
        <time>2020-07-07T17:41:13.000Z</time>
      </trkpt>
      <trkpt lat="43.61636" lon="3.72581">
        <ele>198.616</ele>
        <time>2020-07-07T17:41:15.000Z</time>
      </trkpt>
      <trkpt lat="43.61635" lon="3.7258">
        <ele>198.716</ele>
        <time>2020-07-07T17:41:16.000Z</time>
      </trkpt>
      <trkpt lat="43.61634" lon="3.72578">
        <ele>198.816</ele>
        <time>2020-07-07T17:41:17.000Z</time>
      </trkpt>
      <trkpt lat="43.61632" lon="3.72576">
        <ele>198.916</ele>
        <time>2020-07-07T17:41:18.000Z</time>
      </trkpt>
      <trkpt lat="43.61631" lon="3.72574">
        <ele>199.032</ele>
        <time>2020-07-07T17:41:19.000Z</time>
      </trkpt>
      <trkpt lat="43.61629" lon="3.72572">
        <ele>199.232</ele>
        <time>2020-07-07T17:41:20.000Z</time>
      </trkpt>
      <trkpt lat="43.61628" lon="3.7257">
        <ele>199.432</ele>
        <time>2020-07-07T17:41:21.000Z</time>
      </trkpt>
      <trkpt lat="43.61627" lon="3.72568">
        <ele>199.632</ele>
        <time>2020-07-07T17:41:22.000Z</time>
      </trkpt>
      <trkpt lat="43.61626" lon="3.72566">
        <ele>199.832</ele>
        <time>2020-07-07T17:41:23.000Z</time>
      </trkpt>
      <trkpt lat="43.61624" lon="3.72564">
        <ele>200.032</ele>
        <time>2020-07-07T17:41:24.000Z</time>
      </trkpt>
      <trkpt lat="43.61623" lon="3.72562">
        <ele>200.232</ele>
        <time>2020-07-07T17:41:25.000Z</time>
      </trkpt>
      <trkpt lat="43.61622" lon="3.72559">
        <ele>200.432</ele>
        <time>2020-07-07T17:41:26.000Z</time>
      </trkpt>
      <trkpt lat="43.61621" lon="3.72557">
        <ele>200.632</ele>
        <time>2020-07-07T17:41:27.000Z</time>
      </trkpt>
      <trkpt lat="43.61619" lon="3.72554">
        <ele>200.832</ele>
        <time>2020-07-07T17:41:28.000Z</time>
      </trkpt>
      <trkpt lat="43.61618" lon="3.72552">
        <ele>201.016</ele>
        <time>2020-07-07T17:41:29.000Z</time>
      </trkpt>
      <trkpt lat="43.61617" lon="3.72549">
        <ele>201.116</ele>
        <time>2020-07-07T17:41:30.000Z</time>
      </trkpt>
      <trkpt lat="43.61615" lon="3.72546">
        <ele>201.216</ele>
        <time>2020-07-07T17:41:31.000Z</time>
      </trkpt>
      <trkpt lat="43.61614" lon="3.72544">
        <ele>201.316</ele>
        <time>2020-07-07T17:41:32.000Z</time>
      </trkpt>
      <trkpt lat="43.61613" lon="3.72541">
        <ele>201.416</ele>
        <time>2020-07-07T17:41:33.000Z</time>
      </trkpt>
      <trkpt lat="43.61613" lon="3.72538">
        <ele>201.516</ele>
        <time>2020-07-07T17:41:34.000Z</time>
      </trkpt>
      <trkpt lat="43.61612" lon="3.72535">
        <ele>201.616</ele>
        <time>2020-07-07T17:41:35.000Z</time>
      </trkpt>
      <trkpt lat="43.61611" lon="3.72532">
        <ele>201.716</ele>
        <time>2020-07-07T17:41:36.000Z</time>
      </trkpt>
      <trkpt lat="43.6161" lon="3.72529">
        <ele>201.816</ele>
        <time>2020-07-07T17:41:37.000Z</time>
      </trkpt>
      <trkpt lat="43.6161" lon="3.72527">
        <ele>201.916</ele>
        <time>2020-07-07T17:41:38.000Z</time>
      </trkpt>
      <trkpt lat="43.61609" lon="3.72524">
        <ele>202.016</ele>
        <time>2020-07-07T17:41:39.000Z</time>
      </trkpt>
      <trkpt lat="43.61608" lon="3.72521">
        <ele>202.116</ele>
        <time>2020-07-07T17:41:40.000Z</time>
      </trkpt>
      <trkpt lat="43.61607" lon="3.72518">
        <ele>202.216</ele>
        <time>2020-07-07T17:41:41.000Z</time>
      </trkpt>
      <trkpt lat="43.61606" lon="3.72516">
        <ele>202.316</ele>
        <time>2020-07-07T17:41:42.000Z</time>
      </trkpt>
      <trkpt lat="43.61606" lon="3.72513">
        <ele>202.416</ele>
        <time>2020-07-07T17:41:43.000Z</time>
      </trkpt>
      <trkpt lat="43.61605" lon="3.7251">
        <ele>202.516</ele>
        <time>2020-07-07T17:41:44.000Z</time>
      </trkpt>
      <trkpt lat="43.61604" lon="3.72507">
        <ele>202.616</ele>
        <time>2020-07-07T17:41:45.000Z</time>
      </trkpt>
      <trkpt lat="43.61604" lon="3.72504">
        <ele>202.716</ele>
        <time>2020-07-07T17:41:46.000Z</time>
      </trkpt>
      <trkpt lat="43.61603" lon="3.72502">
        <ele>202.816</ele>
        <time>2020-07-07T17:41:47.000Z</time>
      </trkpt>
      <trkpt lat="43.61602" lon="3.72499">
        <ele>202.916</ele>
        <time>2020-07-07T17:41:48.000Z</time>
      </trkpt>
      <trkpt lat="43.61601" lon="3.72497">
        <ele>203</ele>
        <time>2020-07-07T17:41:49.000Z</time>
      </trkpt>
      <trkpt lat="43.616" lon="3.72494">
        <ele>203</ele>
        <time>2020-07-07T17:41:50.000Z</time>
      </trkpt>
      <trkpt lat="43.61599" lon="3.72492">
        <ele>203</ele>
        <time>2020-07-07T17:41:51.000Z</time>
      </trkpt>
      <trkpt lat="43.61598" lon="3.72489">
        <ele>203</ele>
        <time>2020-07-07T17:41:52.000Z</time>
      </trkpt>
      <trkpt lat="43.61596" lon="3.72486">
        <ele>203</ele>
        <time>2020-07-07T17:41:53.000Z</time>
      </trkpt>
      <trkpt lat="43.61595" lon="3.72484">
        <ele>203</ele>
        <time>2020-07-07T17:41:54.000Z</time>
      </trkpt>
      <trkpt lat="43.61594" lon="3.72481">
        <ele>203</ele>
        <time>2020-07-07T17:41:55.000Z</time>
      </trkpt>
      <trkpt lat="43.61592" lon="3.72479">
        <ele>203</ele>
        <time>2020-07-07T17:41:56.000Z</time>
      </trkpt>
      <trkpt lat="43.61591" lon="3.72476">
        <ele>203</ele>
        <time>2020-07-07T17:41:57.000Z</time>
      </trkpt>
      <trkpt lat="43.61589" lon="3.72473">
        <ele>203</ele>
        <time>2020-07-07T17:41:58.000Z</time>
      </trkpt>
      <trkpt lat="43.61588" lon="3.72471">
        <ele>203</ele>
        <time>2020-07-07T17:41:59.000Z</time>
      </trkpt>
      <trkpt lat="43.61586" lon="3.72468">
        <ele>203</ele>
        <time>2020-07-07T17:42:00.000Z</time>
      </trkpt>
      <trkpt lat="43.61585" lon="3.72465">
        <ele>203</ele>
        <time>2020-07-07T17:42:01.000Z</time>
      </trkpt>
      <trkpt lat="43.61584" lon="3.72462">
        <ele>203</ele>
        <time>2020-07-07T17:42:02.000Z</time>
      </trkpt>
      <trkpt lat="43.61583" lon="3.72459">
        <ele>203</ele>
        <time>2020-07-07T17:42:03.000Z</time>
      </trkpt>
      <trkpt lat="43.61581" lon="3.72457">
        <ele>203</ele>
        <time>2020-07-07T17:42:04.000Z</time>
      </trkpt>
      <trkpt lat="43.6158" lon="3.72453">
        <ele>203</ele>
        <time>2020-07-07T17:42:06.000Z</time>
      </trkpt>
      <trkpt lat="43.61579" lon="3.72451">
        <ele>203</ele>
        <time>2020-07-07T17:42:08.000Z</time>
      </trkpt>
      <trkpt lat="43.61577" lon="3.72449">
        <ele>203</ele>
        <time>2020-07-07T17:42:09.000Z</time>
      </trkpt>
      <trkpt lat="43.61576" lon="3.72446">
        <ele>203</ele>
        <time>2020-07-07T17:42:10.000Z</time>
      </trkpt>
      <trkpt lat="43.61575" lon="3.72444">
        <ele>203</ele>
        <time>2020-07-07T17:42:11.000Z</time>
      </trkpt>
      <trkpt lat="43.61574" lon="3.72441">
        <ele>203</ele>
        <time>2020-07-07T17:42:13.000Z</time>
      </trkpt>
      <trkpt lat="43.61574" lon="3.72441">
        <ele>203</ele>
        <time>2020-07-07T17:42:17.000Z</time>
      </trkpt>
      <trkpt lat="43.61577" lon="3.72447">
        <ele>203</ele>
        <time>2020-07-07T17:43:06.000Z</time>
      </trkpt>
      <trkpt lat="43.61577" lon="3.72448">
        <ele>203</ele>
        <time>2020-07-07T17:43:09.000Z</time>
      </trkpt>
      <trkpt lat="43.61573" lon="3.72439">
        <ele>203</ele>
        <time>2020-07-07T17:43:14.000Z</time>
      </trkpt>
      <trkpt lat="43.61572" lon="3.72435">
        <ele>203</ele>
        <time>2020-07-07T17:43:16.000Z</time>
      </trkpt>
      <trkpt lat="43.6157" lon="3.72431">
        <ele>203</ele>
        <time>2020-07-07T17:43:18.000Z</time>
      </trkpt>
      <trkpt lat="43.61569" lon="3.72429">
        <ele>203</ele>
        <time>2020-07-07T17:43:19.000Z</time>
      </trkpt>
      <trkpt lat="43.61568" lon="3.72426">
        <ele>203</ele>
        <time>2020-07-07T17:43:20.000Z</time>
      </trkpt>
      <trkpt lat="43.61567" lon="3.72424">
        <ele>203</ele>
        <time>2020-07-07T17:43:21.000Z</time>
      </trkpt>
      <trkpt lat="43.61566" lon="3.72422">
        <ele>203</ele>
        <time>2020-07-07T17:43:22.000Z</time>
      </trkpt>
      <trkpt lat="43.61565" lon="3.72419">
        <ele>203</ele>
        <time>2020-07-07T17:43:23.000Z</time>
      </trkpt>
      <trkpt lat="43.61565" lon="3.72417">
        <ele>203</ele>
        <time>2020-07-07T17:43:24.000Z</time>
      </trkpt>
      <trkpt lat="43.61564" lon="3.72415">
        <ele>203</ele>
        <time>2020-07-07T17:43:25.000Z</time>
      </trkpt>
      <trkpt lat="43.61562" lon="3.72412">
        <ele>203</ele>
        <time>2020-07-07T17:43:26.000Z</time>
      </trkpt>
      <trkpt lat="43.61561" lon="3.7241">
        <ele>203</ele>
        <time>2020-07-07T17:43:27.000Z</time>
      </trkpt>
      <trkpt lat="43.6156" lon="3.72408">
        <ele>203</ele>
        <time>2020-07-07T17:43:28.000Z</time>
      </trkpt>
      <trkpt lat="43.61559" lon="3.72406">
        <ele>203</ele>
        <time>2020-07-07T17:43:29.000Z</time>
      </trkpt>
      <trkpt lat="43.61557" lon="3.72404">
        <ele>203</ele>
        <time>2020-07-07T17:43:30.000Z</time>
      </trkpt>
      <trkpt lat="43.61556" lon="3.72401">
        <ele>203</ele>
        <time>2020-07-07T17:43:31.000Z</time>
      </trkpt>
      <trkpt lat="43.61554" lon="3.72399">
        <ele>203</ele>
        <time>2020-07-07T17:43:32.000Z</time>
      </trkpt>
      <trkpt lat="43.61553" lon="3.72397">
        <ele>203</ele>
        <time>2020-07-07T17:43:33.000Z</time>
      </trkpt>
      <trkpt lat="43.61552" lon="3.72395">
        <ele>203</ele>
        <time>2020-07-07T17:43:34.000Z</time>
      </trkpt>
      <trkpt lat="43.61551" lon="3.72392">
        <ele>203</ele>
        <time>2020-07-07T17:43:35.000Z</time>
      </trkpt>
      <trkpt lat="43.6155" lon="3.7239">
        <ele>203</ele>
        <time>2020-07-07T17:43:36.000Z</time>
      </trkpt>
      <trkpt lat="43.61548" lon="3.72388">
        <ele>203</ele>
        <time>2020-07-07T17:43:37.000Z</time>
      </trkpt>
      <trkpt lat="43.61547" lon="3.72385">
        <ele>203</ele>
        <time>2020-07-07T17:43:38.000Z</time>
      </trkpt>
      <trkpt lat="43.61546" lon="3.72383">
        <ele>203</ele>
        <time>2020-07-07T17:43:39.000Z</time>
      </trkpt>
      <trkpt lat="43.61544" lon="3.72381">
        <ele>203</ele>
        <time>2020-07-07T17:43:40.000Z</time>
      </trkpt>
      <trkpt lat="43.61542" lon="3.72378">
        <ele>203</ele>
        <time>2020-07-07T17:43:41.000Z</time>
      </trkpt>
      <trkpt lat="43.61541" lon="3.72376">
        <ele>203</ele>
        <time>2020-07-07T17:43:42.000Z</time>
      </trkpt>
      <trkpt lat="43.61539" lon="3.72373">
        <ele>203</ele>
        <time>2020-07-07T17:43:43.000Z</time>
      </trkpt>
      <trkpt lat="43.61537" lon="3.72371">
        <ele>202.984</ele>
        <time>2020-07-07T17:43:44.000Z</time>
      </trkpt>
      <trkpt lat="43.61535" lon="3.72368">
        <ele>202.884</ele>
        <time>2020-07-07T17:43:45.000Z</time>
      </trkpt>
      <trkpt lat="43.61533" lon="3.72365">
        <ele>202.784</ele>
        <time>2020-07-07T17:43:46.000Z</time>
      </trkpt>
      <trkpt lat="43.61531" lon="3.72363">
        <ele>202.684</ele>
        <time>2020-07-07T17:43:47.000Z</time>
      </trkpt>
      <trkpt lat="43.61528" lon="3.7236">
        <ele>202.584</ele>
        <time>2020-07-07T17:43:48.000Z</time>
      </trkpt>
      <trkpt lat="43.61526" lon="3.72357">
        <ele>202.484</ele>
        <time>2020-07-07T17:43:49.000Z</time>
      </trkpt>
      <trkpt lat="43.61524" lon="3.72354">
        <ele>202.384</ele>
        <time>2020-07-07T17:43:50.000Z</time>
      </trkpt>
      <trkpt lat="43.61522" lon="3.72351">
        <ele>202.284</ele>
        <time>2020-07-07T17:43:51.000Z</time>
      </trkpt>
      <trkpt lat="43.6152" lon="3.72348">
        <ele>202.184</ele>
        <time>2020-07-07T17:43:52.000Z</time>
      </trkpt>
      <trkpt lat="43.61518" lon="3.72346">
        <ele>202.084</ele>
        <time>2020-07-07T17:43:53.000Z</time>
      </trkpt>
      <trkpt lat="43.61516" lon="3.72344">
        <ele>202</ele>
        <time>2020-07-07T17:43:54.000Z</time>
      </trkpt>
      <trkpt lat="43.61514" lon="3.72341">
        <ele>202</ele>
        <time>2020-07-07T17:43:55.000Z</time>
      </trkpt>
      <trkpt lat="43.61512" lon="3.72339">
        <ele>202</ele>
        <time>2020-07-07T17:43:56.000Z</time>
      </trkpt>
      <trkpt lat="43.61511" lon="3.72336">
        <ele>202</ele>
        <time>2020-07-07T17:43:57.000Z</time>
      </trkpt>
      <trkpt lat="43.61509" lon="3.72335">
        <ele>202</ele>
        <time>2020-07-07T17:43:58.000Z</time>
      </trkpt>
      <trkpt lat="43.61508" lon="3.72333">
        <ele>202</ele>
        <time>2020-07-07T17:43:59.000Z</time>
      </trkpt>
      <trkpt lat="43.61506" lon="3.72331">
        <ele>202</ele>
        <time>2020-07-07T17:44:00.000Z</time>
      </trkpt>
      <trkpt lat="43.61505" lon="3.72329">
        <ele>202</ele>
        <time>2020-07-07T17:44:01.000Z</time>
      </trkpt>
      <trkpt lat="43.61504" lon="3.72327">
        <ele>202</ele>
        <time>2020-07-07T17:44:02.000Z</time>
      </trkpt>
      <trkpt lat="43.61502" lon="3.72325">
        <ele>202</ele>
        <time>2020-07-07T17:44:03.000Z</time>
      </trkpt>
      <trkpt lat="43.615" lon="3.72323">
        <ele>202</ele>
        <time>2020-07-07T17:44:04.000Z</time>
      </trkpt>
      <trkpt lat="43.61499" lon="3.7232">
        <ele>201.91134080748</ele>
        <time>2020-07-07T17:44:05.000Z</time>
      </trkpt>
      <trkpt lat="43.61497" lon="3.72318">
        <ele>201.80824795596</ele>
        <time>2020-07-07T17:44:06.000Z</time>
      </trkpt>
      <trkpt lat="43.61495" lon="3.72315">
        <ele>201.70515510443</ele>
        <time>2020-07-07T17:44:07.000Z</time>
      </trkpt>
      <trkpt lat="43.61493" lon="3.72313">
        <ele>201.60206225291</ele>
        <time>2020-07-07T17:44:08.000Z</time>
      </trkpt>
      <trkpt lat="43.61491" lon="3.7231">
        <ele>201.49896940138</ele>
        <time>2020-07-07T17:44:09.000Z</time>
      </trkpt>
      <trkpt lat="43.61489" lon="3.72308">
        <ele>201.39587654986</ele>
        <time>2020-07-07T17:44:10.000Z</time>
      </trkpt>
      <trkpt lat="43.61487" lon="3.72306">
        <ele>201.29278369833</ele>
        <time>2020-07-07T17:44:11.000Z</time>
      </trkpt>
      <trkpt lat="43.61485" lon="3.72303">
        <ele>201.18969084681</ele>
        <time>2020-07-07T17:44:12.000Z</time>
      </trkpt>
      <trkpt lat="43.61484" lon="3.72301">
        <ele>201.08659799528</ele>
        <time>2020-07-07T17:44:13.000Z</time>
      </trkpt>
      <trkpt lat="43.61482" lon="3.72299">
        <ele>201</ele>
        <time>2020-07-07T17:44:14.000Z</time>
      </trkpt>
      <trkpt lat="43.61481" lon="3.72297">
        <ele>201</ele>
        <time>2020-07-07T17:44:15.000Z</time>
      </trkpt>
      <trkpt lat="43.61479" lon="3.72295">
        <ele>201</ele>
        <time>2020-07-07T17:44:16.000Z</time>
      </trkpt>
      <trkpt lat="43.61477" lon="3.72293">
        <ele>201</ele>
        <time>2020-07-07T17:44:17.000Z</time>
      </trkpt>
      <trkpt lat="43.61476" lon="3.72291">
        <ele>201</ele>
        <time>2020-07-07T17:44:18.000Z</time>
      </trkpt>
      <trkpt lat="43.61475" lon="3.72289">
        <ele>201</ele>
        <time>2020-07-07T17:44:19.000Z</time>
      </trkpt>
      <trkpt lat="43.61473" lon="3.72287">
        <ele>201</ele>
        <time>2020-07-07T17:44:20.000Z</time>
      </trkpt>
      <trkpt lat="43.61472" lon="3.72286">
        <ele>201</ele>
        <time>2020-07-07T17:44:21.000Z</time>
      </trkpt>
      <trkpt lat="43.6147" lon="3.72283">
        <ele>201</ele>
        <time>2020-07-07T17:44:23.000Z</time>
      </trkpt>
      <trkpt lat="43.61467" lon="3.7228">
        <ele>200.88411584707</ele>
        <time>2020-07-07T17:44:25.000Z</time>
      </trkpt>
      <trkpt lat="43.61466" lon="3.72278">
        <ele>200.78421571523</ele>
        <time>2020-07-07T17:44:26.000Z</time>
      </trkpt>
      <trkpt lat="43.61464" lon="3.72276">
        <ele>200.6843155834</ele>
        <time>2020-07-07T17:44:27.000Z</time>
      </trkpt>
      <trkpt lat="43.61463" lon="3.72274">
        <ele>200.58441545156</ele>
        <time>2020-07-07T17:44:28.000Z</time>
      </trkpt>
      <trkpt lat="43.61461" lon="3.72273">
        <ele>200.48451531973</ele>
        <time>2020-07-07T17:44:29.000Z</time>
      </trkpt>
      <trkpt lat="43.6146" lon="3.72271">
        <ele>200.38461518789</ele>
        <time>2020-07-07T17:44:30.000Z</time>
      </trkpt>
      <trkpt lat="43.61458" lon="3.72269">
        <ele>200.28471505605</ele>
        <time>2020-07-07T17:44:31.000Z</time>
      </trkpt>
      <trkpt lat="43.61457" lon="3.72268">
        <ele>200.18481492422</ele>
        <time>2020-07-07T17:44:32.000Z</time>
      </trkpt>
      <trkpt lat="43.61455" lon="3.72266">
        <ele>200.08491479238</ele>
        <time>2020-07-07T17:44:33.000Z</time>
      </trkpt>
      <trkpt lat="43.61453" lon="3.72264">
        <ele>199.98498466947</ele>
        <time>2020-07-07T17:44:34.000Z</time>
      </trkpt>
      <trkpt lat="43.61451" lon="3.72263">
        <ele>199.88488460144</ele>
        <time>2020-07-07T17:44:35.000Z</time>
      </trkpt>
      <trkpt lat="43.61449" lon="3.72261">
        <ele>199.7847845334</ele>
        <time>2020-07-07T17:44:36.000Z</time>
      </trkpt>
      <trkpt lat="43.61447" lon="3.72259">
        <ele>199.68468446537</ele>
        <time>2020-07-07T17:44:37.000Z</time>
      </trkpt>
      <trkpt lat="43.61445" lon="3.72258">
        <ele>199.58458439733</ele>
        <time>2020-07-07T17:44:38.000Z</time>
      </trkpt>
      <trkpt lat="43.61444" lon="3.72256">
        <ele>199.48448432929</ele>
        <time>2020-07-07T17:44:39.000Z</time>
      </trkpt>
      <trkpt lat="43.61442" lon="3.72255">
        <ele>199.38438426126</ele>
        <time>2020-07-07T17:44:40.000Z</time>
      </trkpt>
      <trkpt lat="43.6144" lon="3.72253">
        <ele>199.28428419322</ele>
        <time>2020-07-07T17:44:41.000Z</time>
      </trkpt>
      <trkpt lat="43.61439" lon="3.72251">
        <ele>199.18418412519</ele>
        <time>2020-07-07T17:44:42.000Z</time>
      </trkpt>
      <trkpt lat="43.61437" lon="3.7225">
        <ele>199.08408405715</ele>
        <time>2020-07-07T17:44:43.000Z</time>
      </trkpt>
      <trkpt lat="43.61436" lon="3.72248">
        <ele>198.984</ele>
        <time>2020-07-07T17:44:44.000Z</time>
      </trkpt>
      <trkpt lat="43.61433" lon="3.72245">
        <ele>198.784</ele>
        <time>2020-07-07T17:44:46.000Z</time>
      </trkpt>
      <trkpt lat="43.61431" lon="3.72244">
        <ele>198.684</ele>
        <time>2020-07-07T17:44:47.000Z</time>
      </trkpt>
      <trkpt lat="43.61429" lon="3.72243">
        <ele>198.584</ele>
        <time>2020-07-07T17:44:48.000Z</time>
      </trkpt>
      <trkpt lat="43.61428" lon="3.72241">
        <ele>198.484</ele>
        <time>2020-07-07T17:44:49.000Z</time>
      </trkpt>
      <trkpt lat="43.61426" lon="3.7224">
        <ele>198.384</ele>
        <time>2020-07-07T17:44:50.000Z</time>
      </trkpt>
      <trkpt lat="43.61424" lon="3.72238">
        <ele>198.284</ele>
        <time>2020-07-07T17:44:51.000Z</time>
      </trkpt>
      <trkpt lat="43.61422" lon="3.72236">
        <ele>198.184</ele>
        <time>2020-07-07T17:44:52.000Z</time>
      </trkpt>
      <trkpt lat="43.61421" lon="3.72234">
        <ele>198.084</ele>
        <time>2020-07-07T17:44:53.000Z</time>
      </trkpt>
      <trkpt lat="43.61419" lon="3.72232">
        <ele>198</ele>
        <time>2020-07-07T17:44:54.000Z</time>
      </trkpt>
      <trkpt lat="43.61418" lon="3.72231">
        <ele>198</ele>
        <time>2020-07-07T17:44:55.000Z</time>
      </trkpt>
      <trkpt lat="43.61416" lon="3.72229">
        <ele>198</ele>
        <time>2020-07-07T17:44:56.000Z</time>
      </trkpt>
      <trkpt lat="43.61414" lon="3.72226">
        <ele>198</ele>
        <time>2020-07-07T17:44:58.000Z</time>
      </trkpt>
      <trkpt lat="43.61412" lon="3.72222">
        <ele>198</ele>
        <time>2020-07-07T17:45:00.000Z</time>
      </trkpt>
      <trkpt lat="43.61412" lon="3.72221">
        <ele>197.9953381951</ele>
        <time>2020-07-07T17:45:06.000Z</time>
      </trkpt>
      <trkpt lat="43.61407" lon="3.72217">
        <ele>197.00347156494</ele>
        <time>2020-07-07T17:46:46.000Z</time>
      </trkpt>
      <trkpt lat="43.61404" lon="3.72214">
        <ele>196.65400843882</ele>
        <time>2020-07-07T17:46:48.000Z</time>
      </trkpt>
      <trkpt lat="43.61403" lon="3.72213">
        <ele>196.44303797468</ele>
        <time>2020-07-07T17:46:49.000Z</time>
      </trkpt>
      <trkpt lat="43.61401" lon="3.72211">
        <ele>196.23206751055</ele>
        <time>2020-07-07T17:46:50.000Z</time>
      </trkpt>
      <trkpt lat="43.61398" lon="3.72208">
        <ele>196.02109704641</ele>
        <time>2020-07-07T17:46:51.000Z</time>
      </trkpt>
      <trkpt lat="43.61395" lon="3.72206">
        <ele>195.81012658228</ele>
        <time>2020-07-07T17:46:52.000Z</time>
      </trkpt>
      <trkpt lat="43.61392" lon="3.72202">
        <ele>195.59915611814</ele>
        <time>2020-07-07T17:46:53.000Z</time>
      </trkpt>
      <trkpt lat="43.61388" lon="3.72199">
        <ele>195.38818565401</ele>
        <time>2020-07-07T17:46:54.000Z</time>
      </trkpt>
      <trkpt lat="43.61384" lon="3.72196">
        <ele>195.17721518987</ele>
        <time>2020-07-07T17:46:55.000Z</time>
      </trkpt>
      <trkpt lat="43.61379" lon="3.72193">
        <ele>194.92217898833</ele>
        <time>2020-07-07T17:46:56.000Z</time>
      </trkpt>
      <trkpt lat="43.61374" lon="3.7219">
        <ele>194.43579766537</ele>
        <time>2020-07-07T17:46:57.000Z</time>
      </trkpt>
      <trkpt lat="43.61368" lon="3.72187">
        <ele>193.94941634241</ele>
        <time>2020-07-07T17:46:58.000Z</time>
      </trkpt>
      <trkpt lat="43.61362" lon="3.72185">
        <ele>193.46303501945</ele>
        <time>2020-07-07T17:46:59.000Z</time>
      </trkpt>
      <trkpt lat="43.61355" lon="3.72183">
        <ele>192.9766536965</ele>
        <time>2020-07-07T17:47:00.000Z</time>
      </trkpt>
      <trkpt lat="43.61348" lon="3.72181">
        <ele>192.49027237354</ele>
        <time>2020-07-07T17:47:01.000Z</time>
      </trkpt>
      <trkpt lat="43.61341" lon="3.72178">
        <ele>192.00389105058</ele>
        <time>2020-07-07T17:47:02.000Z</time>
      </trkpt>
      <trkpt lat="43.61334" lon="3.72174">
        <ele>191.51750972763</ele>
        <time>2020-07-07T17:47:03.000Z</time>
      </trkpt>
      <trkpt lat="43.61328" lon="3.7217">
        <ele>191.03112840467</ele>
        <time>2020-07-07T17:47:04.000Z</time>
      </trkpt>
      <trkpt lat="43.61321" lon="3.72165">
        <ele>190.54474708171</ele>
        <time>2020-07-07T17:47:05.000Z</time>
      </trkpt>
      <trkpt lat="43.61314" lon="3.7216">
        <ele>190.05836575876</ele>
        <time>2020-07-07T17:47:06.000Z</time>
      </trkpt>
      <trkpt lat="43.61308" lon="3.72155">
        <ele>189.72839506173</ele>
        <time>2020-07-07T17:47:07.000Z</time>
      </trkpt>
      <trkpt lat="43.61302" lon="3.7215">
        <ele>189.41975308642</ele>
        <time>2020-07-07T17:47:08.000Z</time>
      </trkpt>
      <trkpt lat="43.61296" lon="3.72145">
        <ele>189.11111111111</ele>
        <time>2020-07-07T17:47:09.000Z</time>
      </trkpt>
      <trkpt lat="43.6129" lon="3.7214">
        <ele>188.8024691358</ele>
        <time>2020-07-07T17:47:10.000Z</time>
      </trkpt>
      <trkpt lat="43.61285" lon="3.72136">
        <ele>188.49382716049</ele>
        <time>2020-07-07T17:47:11.000Z</time>
      </trkpt>
      <trkpt lat="43.61279" lon="3.72131">
        <ele>188.18518518518</ele>
        <time>2020-07-07T17:47:12.000Z</time>
      </trkpt>
      <trkpt lat="43.61274" lon="3.72126">
        <ele>187.87654320988</ele>
        <time>2020-07-07T17:47:13.000Z</time>
      </trkpt>
      <trkpt lat="43.61268" lon="3.72121">
        <ele>187.56790123457</ele>
        <time>2020-07-07T17:47:14.000Z</time>
      </trkpt>
      <trkpt lat="43.61264" lon="3.72117">
        <ele>187.25925925926</ele>
        <time>2020-07-07T17:47:15.000Z</time>
      </trkpt>
      <trkpt lat="43.61261" lon="3.72112">
        <ele>186.90541874903</ele>
        <time>2020-07-07T17:47:16.000Z</time>
      </trkpt>
      <trkpt lat="43.61258" lon="3.72106">
        <ele>186.31428593047</ele>
        <time>2020-07-07T17:47:17.000Z</time>
      </trkpt>
      <trkpt lat="43.61257" lon="3.721">
        <ele>185.72315311191</ele>
        <time>2020-07-07T17:47:18.000Z</time>
      </trkpt>
      <trkpt lat="43.61257" lon="3.72094">
        <ele>185.13202029335</ele>
        <time>2020-07-07T17:47:19.000Z</time>
      </trkpt>
      <trkpt lat="43.61258" lon="3.72086">
        <ele>184.54088747479</ele>
        <time>2020-07-07T17:47:20.000Z</time>
      </trkpt>
      <trkpt lat="43.61261" lon="3.72079">
        <ele>183.94975465624</ele>
        <time>2020-07-07T17:47:21.000Z</time>
      </trkpt>
      <trkpt lat="43.61265" lon="3.72072">
        <ele>183.35862183768</ele>
        <time>2020-07-07T17:47:22.000Z</time>
      </trkpt>
      <trkpt lat="43.6127" lon="3.72065">
        <ele>182.76748901912</ele>
        <time>2020-07-07T17:47:23.000Z</time>
      </trkpt>
      <trkpt lat="43.61275" lon="3.72057">
        <ele>182.17635620056</ele>
        <time>2020-07-07T17:47:24.000Z</time>
      </trkpt>
      <trkpt lat="43.61279" lon="3.72048">
        <ele>181.585223382</ele>
        <time>2020-07-07T17:47:25.000Z</time>
      </trkpt>
      <trkpt lat="43.61284" lon="3.72039">
        <ele>180.98883605729</ele>
        <time>2020-07-07T17:47:26.000Z</time>
      </trkpt>
      <trkpt lat="43.61289" lon="3.72031">
        <ele>179.87208442545</ele>
        <time>2020-07-07T17:47:27.000Z</time>
      </trkpt>
      <trkpt lat="43.61294" lon="3.72022">
        <ele>178.75533279361</ele>
        <time>2020-07-07T17:47:28.000Z</time>
      </trkpt>
      <trkpt lat="43.61299" lon="3.72014">
        <ele>177.63858116177</ele>
        <time>2020-07-07T17:47:29.000Z</time>
      </trkpt>
      <trkpt lat="43.61303" lon="3.72005">
        <ele>176.52182952993</ele>
        <time>2020-07-07T17:47:30.000Z</time>
      </trkpt>
      <trkpt lat="43.61308" lon="3.71996">
        <ele>175.4050778981</ele>
        <time>2020-07-07T17:47:31.000Z</time>
      </trkpt>
      <trkpt lat="43.61312" lon="3.71987">
        <ele>174.28832626626</ele>
        <time>2020-07-07T17:47:32.000Z</time>
      </trkpt>
      <trkpt lat="43.61317" lon="3.71978">
        <ele>173.17157463442</ele>
        <time>2020-07-07T17:47:33.000Z</time>
      </trkpt>
      <trkpt lat="43.61321" lon="3.71969">
        <ele>172.05482300258</ele>
        <time>2020-07-07T17:47:34.000Z</time>
      </trkpt>
      <trkpt lat="43.61325" lon="3.7196">
        <ele>170.93807137074</ele>
        <time>2020-07-07T17:47:35.000Z</time>
      </trkpt>
      <trkpt lat="43.61328" lon="3.7195">
        <ele>170</ele>
        <time>2020-07-07T17:47:36.000Z</time>
      </trkpt>
      <trkpt lat="43.6133" lon="3.71939">
        <ele>170</ele>
        <time>2020-07-07T17:47:37.000Z</time>
      </trkpt>
      <trkpt lat="43.6133" lon="3.71929">
        <ele>170</ele>
        <time>2020-07-07T17:47:38.000Z</time>
      </trkpt>
      <trkpt lat="43.6133" lon="3.71921">
        <ele>170</ele>
        <time>2020-07-07T17:47:39.000Z</time>
      </trkpt>
      <trkpt lat="43.61328" lon="3.71913">
        <ele>170</ele>
        <time>2020-07-07T17:47:40.000Z</time>
      </trkpt>
      <trkpt lat="43.61327" lon="3.71907">
        <ele>170</ele>
        <time>2020-07-07T17:47:41.000Z</time>
      </trkpt>
      <trkpt lat="43.61324" lon="3.71901">
        <ele>170</ele>
        <time>2020-07-07T17:47:42.000Z</time>
      </trkpt>
      <trkpt lat="43.61322" lon="3.71895">
        <ele>170</ele>
        <time>2020-07-07T17:47:43.000Z</time>
      </trkpt>
      <trkpt lat="43.61319" lon="3.7189">
        <ele>170</ele>
        <time>2020-07-07T17:47:44.000Z</time>
      </trkpt>
      <trkpt lat="43.61317" lon="3.71884">
        <ele>170</ele>
        <time>2020-07-07T17:47:45.000Z</time>
      </trkpt>
      <trkpt lat="43.61315" lon="3.71879">
        <ele>170.016</ele>
        <time>2020-07-07T17:47:46.000Z</time>
      </trkpt>
      <trkpt lat="43.61312" lon="3.71874">
        <ele>170.116</ele>
        <time>2020-07-07T17:47:47.000Z</time>
      </trkpt>
      <trkpt lat="43.6131" lon="3.71869">
        <ele>170.216</ele>
        <time>2020-07-07T17:47:48.000Z</time>
      </trkpt>
      <trkpt lat="43.61309" lon="3.71864">
        <ele>170.316</ele>
        <time>2020-07-07T17:47:49.000Z</time>
      </trkpt>
      <trkpt lat="43.61307" lon="3.71859">
        <ele>170.416</ele>
        <time>2020-07-07T17:47:50.000Z</time>
      </trkpt>
      <trkpt lat="43.61305" lon="3.71855">
        <ele>170.516</ele>
        <time>2020-07-07T17:47:51.000Z</time>
      </trkpt>
      <trkpt lat="43.61304" lon="3.7185">
        <ele>170.616</ele>
        <time>2020-07-07T17:47:52.000Z</time>
      </trkpt>
      <trkpt lat="43.61302" lon="3.71846">
        <ele>170.716</ele>
        <time>2020-07-07T17:47:53.000Z</time>
      </trkpt>
      <trkpt lat="43.61301" lon="3.71841">
        <ele>170.816</ele>
        <time>2020-07-07T17:47:54.000Z</time>
      </trkpt>
      <trkpt lat="43.613" lon="3.71837">
        <ele>170.916</ele>
        <time>2020-07-07T17:47:55.000Z</time>
      </trkpt>
      <trkpt lat="43.61299" lon="3.71833">
        <ele>171.032</ele>
        <time>2020-07-07T17:47:56.000Z</time>
      </trkpt>
      <trkpt lat="43.61298" lon="3.71828">
        <ele>171.232</ele>
        <time>2020-07-07T17:47:57.000Z</time>
      </trkpt>
      <trkpt lat="43.61297" lon="3.71824">
        <ele>171.432</ele>
        <time>2020-07-07T17:47:58.000Z</time>
      </trkpt>
      <trkpt lat="43.61296" lon="3.71819">
        <ele>171.632</ele>
        <time>2020-07-07T17:47:59.000Z</time>
      </trkpt>
      <trkpt lat="43.61296" lon="3.71815">
        <ele>171.832</ele>
        <time>2020-07-07T17:48:00.000Z</time>
      </trkpt>
      <trkpt lat="43.61295" lon="3.71811">
        <ele>172.032</ele>
        <time>2020-07-07T17:48:01.000Z</time>
      </trkpt>
      <trkpt lat="43.61294" lon="3.71806">
        <ele>172.232</ele>
        <time>2020-07-07T17:48:02.000Z</time>
      </trkpt>
      <trkpt lat="43.61293" lon="3.71802">
        <ele>172.432</ele>
        <time>2020-07-07T17:48:03.000Z</time>
      </trkpt>
      <trkpt lat="43.61292" lon="3.71798">
        <ele>172.632</ele>
        <time>2020-07-07T17:48:04.000Z</time>
      </trkpt>
      <trkpt lat="43.61291" lon="3.71794">
        <ele>172.832</ele>
        <time>2020-07-07T17:48:05.000Z</time>
      </trkpt>
      <trkpt lat="43.6129" lon="3.7179">
        <ele>173.016</ele>
        <time>2020-07-07T17:48:06.000Z</time>
      </trkpt>
      <trkpt lat="43.61289" lon="3.71786">
        <ele>173.116</ele>
        <time>2020-07-07T17:48:07.000Z</time>
      </trkpt>
      <trkpt lat="43.61288" lon="3.71783">
        <ele>173.216</ele>
        <time>2020-07-07T17:48:08.000Z</time>
      </trkpt>
      <trkpt lat="43.61287" lon="3.71779">
        <ele>173.316</ele>
        <time>2020-07-07T17:48:09.000Z</time>
      </trkpt>
      <trkpt lat="43.61286" lon="3.71776">
        <ele>173.416</ele>
        <time>2020-07-07T17:48:10.000Z</time>
      </trkpt>
      <trkpt lat="43.61284" lon="3.71772">
        <ele>173.516</ele>
        <time>2020-07-07T17:48:11.000Z</time>
      </trkpt>
      <trkpt lat="43.61283" lon="3.71769">
        <ele>173.616</ele>
        <time>2020-07-07T17:48:12.000Z</time>
      </trkpt>
      <trkpt lat="43.61282" lon="3.71765">
        <ele>173.716</ele>
        <time>2020-07-07T17:48:13.000Z</time>
      </trkpt>
      <trkpt lat="43.61281" lon="3.71762">
        <ele>173.816</ele>
        <time>2020-07-07T17:48:14.000Z</time>
      </trkpt>
      <trkpt lat="43.6128" lon="3.71757">
        <ele>173.916</ele>
        <time>2020-07-07T17:48:15.000Z</time>
      </trkpt>
      <trkpt lat="43.61279" lon="3.71754">
        <ele>174</ele>
        <time>2020-07-07T17:48:16.000Z</time>
      </trkpt>
      <trkpt lat="43.61278" lon="3.71751">
        <ele>174</ele>
        <time>2020-07-07T17:48:17.000Z</time>
      </trkpt>
      <trkpt lat="43.61277" lon="3.71748">
        <ele>174</ele>
        <time>2020-07-07T17:48:18.000Z</time>
      </trkpt>
      <trkpt lat="43.61276" lon="3.71745">
        <ele>174</ele>
        <time>2020-07-07T17:48:19.000Z</time>
      </trkpt>
      <trkpt lat="43.61275" lon="3.71742">
        <ele>174</ele>
        <time>2020-07-07T17:48:20.000Z</time>
      </trkpt>
      <trkpt lat="43.61275" lon="3.71739">
        <ele>174</ele>
        <time>2020-07-07T17:48:21.000Z</time>
      </trkpt>
      <trkpt lat="43.61274" lon="3.71736">
        <ele>174</ele>
        <time>2020-07-07T17:48:23.000Z</time>
      </trkpt>
      <trkpt lat="43.61273" lon="3.71735">
        <ele>174.00328842105</ele>
        <time>2020-07-07T17:48:28.000Z</time>
      </trkpt>
      <trkpt lat="43.61272" lon="3.71731">
        <ele>174.99013052632</ele>
        <time>2020-07-07T17:48:31.000Z</time>
      </trkpt>
      <trkpt lat="43.61271" lon="3.71728">
        <ele>175</ele>
        <time>2020-07-07T17:48:33.000Z</time>
      </trkpt>
      <trkpt lat="43.6127" lon="3.71725">
        <ele>175</ele>
        <time>2020-07-07T17:48:35.000Z</time>
      </trkpt>
      <trkpt lat="43.61269" lon="3.71723">
        <ele>175</ele>
        <time>2020-07-07T17:48:37.000Z</time>
      </trkpt>
      <trkpt lat="43.61269" lon="3.7172">
        <ele>175</ele>
        <time>2020-07-07T17:48:39.000Z</time>
      </trkpt>
      <trkpt lat="43.61268" lon="3.71719">
        <ele>175</ele>
        <time>2020-07-07T17:48:44.000Z</time>
      </trkpt>
      <trkpt lat="43.61266" lon="3.71712">
        <ele>175</ele>
        <time>2020-07-07T18:02:41.000Z</time>
      </trkpt>
      <trkpt lat="43.61265" lon="3.71709">
        <ele>175</ele>
        <time>2020-07-07T18:02:42.000Z</time>
      </trkpt>
      <trkpt lat="43.61263" lon="3.71705">
        <ele>175</ele>
        <time>2020-07-07T18:02:43.000Z</time>
      </trkpt>
      <trkpt lat="43.61261" lon="3.71701">
        <ele>175</ele>
        <time>2020-07-07T18:02:44.000Z</time>
      </trkpt>
      <trkpt lat="43.61259" lon="3.71697">
        <ele>175</ele>
        <time>2020-07-07T18:02:45.000Z</time>
      </trkpt>
      <trkpt lat="43.61258" lon="3.71693">
        <ele>175</ele>
        <time>2020-07-07T18:02:46.000Z</time>
      </trkpt>
      <trkpt lat="43.61256" lon="3.71689">
        <ele>175</ele>
        <time>2020-07-07T18:02:47.000Z</time>
      </trkpt>
      <trkpt lat="43.61254" lon="3.71685">
        <ele>175</ele>
        <time>2020-07-07T18:02:48.000Z</time>
      </trkpt>
      <trkpt lat="43.61252" lon="3.71681">
        <ele>175</ele>
        <time>2020-07-07T18:02:49.000Z</time>
      </trkpt>
      <trkpt lat="43.61251" lon="3.71677">
        <ele>175</ele>
        <time>2020-07-07T18:02:50.000Z</time>
      </trkpt>
      <trkpt lat="43.61249" lon="3.71674">
        <ele>175</ele>
        <time>2020-07-07T18:02:51.000Z</time>
      </trkpt>
      <trkpt lat="43.61247" lon="3.7167">
        <ele>175</ele>
        <time>2020-07-07T18:02:52.000Z</time>
      </trkpt>
      <trkpt lat="43.61246" lon="3.71666">
        <ele>175</ele>
        <time>2020-07-07T18:02:53.000Z</time>
      </trkpt>
      <trkpt lat="43.61244" lon="3.71662">
        <ele>175</ele>
        <time>2020-07-07T18:02:54.000Z</time>
      </trkpt>
      <trkpt lat="43.61242" lon="3.71658">
        <ele>175</ele>
        <time>2020-07-07T18:02:55.000Z</time>
      </trkpt>
      <trkpt lat="43.61241" lon="3.71653">
        <ele>175</ele>
        <time>2020-07-07T18:02:56.000Z</time>
      </trkpt>
      <trkpt lat="43.61239" lon="3.71649">
        <ele>175</ele>
        <time>2020-07-07T18:02:57.000Z</time>
      </trkpt>
      <trkpt lat="43.61237" lon="3.71644">
        <ele>175</ele>
        <time>2020-07-07T18:02:58.000Z</time>
      </trkpt>
      <trkpt lat="43.61234" lon="3.71639">
        <ele>175</ele>
        <time>2020-07-07T18:02:59.000Z</time>
      </trkpt>
      <trkpt lat="43.61233" lon="3.71633">
        <ele>175</ele>
        <time>2020-07-07T18:03:00.000Z</time>
      </trkpt>
      <trkpt lat="43.6123" lon="3.71629">
        <ele>175</ele>
        <time>2020-07-07T18:03:01.000Z</time>
      </trkpt>
      <trkpt lat="43.61228" lon="3.71624">
        <ele>175.088</ele>
        <time>2020-07-07T18:03:02.000Z</time>
      </trkpt>
      <trkpt lat="43.61226" lon="3.7162">
        <ele>175.188</ele>
        <time>2020-07-07T18:03:03.000Z</time>
      </trkpt>
      <trkpt lat="43.61224" lon="3.71615">
        <ele>175.288</ele>
        <time>2020-07-07T18:03:04.000Z</time>
      </trkpt>
      <trkpt lat="43.61223" lon="3.71611">
        <ele>175.388</ele>
        <time>2020-07-07T18:03:05.000Z</time>
      </trkpt>
      <trkpt lat="43.61221" lon="3.71606">
        <ele>175.488</ele>
        <time>2020-07-07T18:03:06.000Z</time>
      </trkpt>
      <trkpt lat="43.61219" lon="3.71602">
        <ele>175.588</ele>
        <time>2020-07-07T18:03:07.000Z</time>
      </trkpt>
      <trkpt lat="43.61217" lon="3.71597">
        <ele>175.688</ele>
        <time>2020-07-07T18:03:08.000Z</time>
      </trkpt>
      <trkpt lat="43.61215" lon="3.71593">
        <ele>175.788</ele>
        <time>2020-07-07T18:03:09.000Z</time>
      </trkpt>
      <trkpt lat="43.61214" lon="3.71589">
        <ele>175.888</ele>
        <time>2020-07-07T18:03:10.000Z</time>
      </trkpt>
      <trkpt lat="43.61212" lon="3.71586">
        <ele>175.988</ele>
        <time>2020-07-07T18:03:11.000Z</time>
      </trkpt>
      <trkpt lat="43.61211" lon="3.71583">
        <ele>176.18106995885</ele>
        <time>2020-07-07T18:03:12.000Z</time>
      </trkpt>
      <trkpt lat="43.6121" lon="3.7158">
        <ele>176.38683127572</ele>
        <time>2020-07-07T18:03:13.000Z</time>
      </trkpt>
      <trkpt lat="43.61209" lon="3.71578">
        <ele>176.59259259259</ele>
        <time>2020-07-07T18:03:14.000Z</time>
      </trkpt>
      <trkpt lat="43.61207" lon="3.71573">
        <ele>177.00411522634</ele>
        <time>2020-07-07T18:03:16.000Z</time>
      </trkpt>
      <trkpt lat="43.61206" lon="3.71571">
        <ele>177.20987654321</ele>
        <time>2020-07-07T18:03:17.000Z</time>
      </trkpt>
      <trkpt lat="43.61205" lon="3.71568">
        <ele>177.41563786008</ele>
        <time>2020-07-07T18:03:18.000Z</time>
      </trkpt>
      <trkpt lat="43.61205" lon="3.71565">
        <ele>177.62139917696</ele>
        <time>2020-07-07T18:03:19.000Z</time>
      </trkpt>
      <trkpt lat="43.61204" lon="3.71563">
        <ele>177.82716049383</ele>
        <time>2020-07-07T18:03:20.000Z</time>
      </trkpt>
      <trkpt lat="43.61203" lon="3.71558">
        <ele>178.232</ele>
        <time>2020-07-07T18:03:22.000Z</time>
      </trkpt>
      <trkpt lat="43.61203" lon="3.71554">
        <ele>178.632</ele>
        <time>2020-07-07T18:03:24.000Z</time>
      </trkpt>
      <trkpt lat="43.61202" lon="3.71549">
        <ele>179.032</ele>
        <time>2020-07-07T18:03:26.000Z</time>
      </trkpt>
      <trkpt lat="43.61201" lon="3.71545">
        <ele>179.432</ele>
        <time>2020-07-07T18:03:28.000Z</time>
      </trkpt>
      <trkpt lat="43.61201" lon="3.71541">
        <ele>179.832</ele>
        <time>2020-07-07T18:03:30.000Z</time>
      </trkpt>
      <trkpt lat="43.612" lon="3.71537">
        <ele>180.232</ele>
        <time>2020-07-07T18:03:32.000Z</time>
      </trkpt>
      <trkpt lat="43.612" lon="3.71533">
        <ele>180.632</ele>
        <time>2020-07-07T18:03:34.000Z</time>
      </trkpt>
      <trkpt lat="43.612" lon="3.71528">
        <ele>181.032</ele>
        <time>2020-07-07T18:03:36.000Z</time>
      </trkpt>
      <trkpt lat="43.61201" lon="3.71523">
        <ele>181.432</ele>
        <time>2020-07-07T18:03:38.000Z</time>
      </trkpt>
      <trkpt lat="43.61201" lon="3.71518">
        <ele>181.832</ele>
        <time>2020-07-07T18:03:40.000Z</time>
      </trkpt>
      <trkpt lat="43.61201" lon="3.71516">
        <ele>182.032</ele>
        <time>2020-07-07T18:03:41.000Z</time>
      </trkpt>
      <trkpt lat="43.61201" lon="3.71513">
        <ele>182.232</ele>
        <time>2020-07-07T18:03:42.000Z</time>
      </trkpt>
      <trkpt lat="43.61201" lon="3.71511">
        <ele>182.432</ele>
        <time>2020-07-07T18:03:43.000Z</time>
      </trkpt>
      <trkpt lat="43.61202" lon="3.71506">
        <ele>182.832</ele>
        <time>2020-07-07T18:03:45.000Z</time>
      </trkpt>
      <trkpt lat="43.61202" lon="3.71503">
        <ele>183.032</ele>
        <time>2020-07-07T18:03:46.000Z</time>
      </trkpt>
      <trkpt lat="43.61202" lon="3.71501">
        <ele>183.232</ele>
        <time>2020-07-07T18:03:47.000Z</time>
      </trkpt>
      <trkpt lat="43.61202" lon="3.71498">
        <ele>183.432</ele>
        <time>2020-07-07T18:03:48.000Z</time>
      </trkpt>
      <trkpt lat="43.61202" lon="3.71496">
        <ele>183.632</ele>
        <time>2020-07-07T18:03:49.000Z</time>
      </trkpt>
      <trkpt lat="43.61202" lon="3.71493">
        <ele>183.832</ele>
        <time>2020-07-07T18:03:50.000Z</time>
      </trkpt>
      <trkpt lat="43.61202" lon="3.71489">
        <ele>184.11451138859</ele>
        <time>2020-07-07T18:03:52.000Z</time>
      </trkpt>
      <trkpt lat="43.61203" lon="3.71484">
        <ele>184.3119448172</ele>
        <time>2020-07-07T18:03:54.000Z</time>
      </trkpt>
      <trkpt lat="43.61203" lon="3.71479">
        <ele>184.50937824581</ele>
        <time>2020-07-07T18:03:56.000Z</time>
      </trkpt>
      <trkpt lat="43.61203" lon="3.71474">
        <ele>184.70681167441</ele>
        <time>2020-07-07T18:03:58.000Z</time>
      </trkpt>
      <trkpt lat="43.61203" lon="3.71469">
        <ele>184.90424510302</ele>
        <time>2020-07-07T18:04:00.000Z</time>
      </trkpt>
      <trkpt lat="43.61203" lon="3.71465">
        <ele>185.2087138533</ele>
        <time>2020-07-07T18:04:02.000Z</time>
      </trkpt>
      <trkpt lat="43.61204" lon="3.71462">
        <ele>185.41134803279</ele>
        <time>2020-07-07T18:04:03.000Z</time>
      </trkpt>
      <trkpt lat="43.61204" lon="3.7146">
        <ele>185.61398221229</ele>
        <time>2020-07-07T18:04:04.000Z</time>
      </trkpt>
      <trkpt lat="43.61204" lon="3.71457">
        <ele>185.81661639178</ele>
        <time>2020-07-07T18:04:05.000Z</time>
      </trkpt>
      <trkpt lat="43.61205" lon="3.71455">
        <ele>186.01925057127</ele>
        <time>2020-07-07T18:04:06.000Z</time>
      </trkpt>
      <trkpt lat="43.61205" lon="3.71452">
        <ele>186.22188475076</ele>
        <time>2020-07-07T18:04:07.000Z</time>
      </trkpt>
      <trkpt lat="43.61205" lon="3.71449">
        <ele>186.42451893025</ele>
        <time>2020-07-07T18:04:08.000Z</time>
      </trkpt>
      <trkpt lat="43.61206" lon="3.71446">
        <ele>186.62715310974</ele>
        <time>2020-07-07T18:04:09.000Z</time>
      </trkpt>
      <trkpt lat="43.61206" lon="3.71443">
        <ele>186.82978728923</ele>
        <time>2020-07-07T18:04:10.000Z</time>
      </trkpt>
      <trkpt lat="43.61206" lon="3.7144">
        <ele>187.016</ele>
        <time>2020-07-07T18:04:11.000Z</time>
      </trkpt>
      <trkpt lat="43.61206" lon="3.71437">
        <ele>187.116</ele>
        <time>2020-07-07T18:04:12.000Z</time>
      </trkpt>
      <trkpt lat="43.61206" lon="3.71434">
        <ele>187.216</ele>
        <time>2020-07-07T18:04:13.000Z</time>
      </trkpt>
      <trkpt lat="43.61206" lon="3.71432">
        <ele>187.316</ele>
        <time>2020-07-07T18:04:14.000Z</time>
      </trkpt>
      <trkpt lat="43.61206" lon="3.71429">
        <ele>187.416</ele>
        <time>2020-07-07T18:04:15.000Z</time>
      </trkpt>
      <trkpt lat="43.61206" lon="3.71424">
        <ele>187.616</ele>
        <time>2020-07-07T18:04:17.000Z</time>
      </trkpt>
      <trkpt lat="43.61206" lon="3.71421">
        <ele>187.716</ele>
        <time>2020-07-07T18:04:18.000Z</time>
      </trkpt>
      <trkpt lat="43.61205" lon="3.71417">
        <ele>187.916</ele>
        <time>2020-07-07T18:04:20.000Z</time>
      </trkpt>
      <trkpt lat="43.61204" lon="3.71412">
        <ele>188.232</ele>
        <time>2020-07-07T18:04:22.000Z</time>
      </trkpt>
      <trkpt lat="43.61203" lon="3.71408">
        <ele>188.632</ele>
        <time>2020-07-07T18:04:24.000Z</time>
      </trkpt>
      <trkpt lat="43.61202" lon="3.71403">
        <ele>189.032</ele>
        <time>2020-07-07T18:04:26.000Z</time>
      </trkpt>
      <trkpt lat="43.61201" lon="3.71399">
        <ele>189.432</ele>
        <time>2020-07-07T18:04:28.000Z</time>
      </trkpt>
      <trkpt lat="43.612" lon="3.71395">
        <ele>189.832</ele>
        <time>2020-07-07T18:04:30.000Z</time>
      </trkpt>
      <trkpt lat="43.61199" lon="3.7139">
        <ele>190.116</ele>
        <time>2020-07-07T18:04:32.000Z</time>
      </trkpt>
      <trkpt lat="43.61199" lon="3.71386">
        <ele>190.316</ele>
        <time>2020-07-07T18:04:34.000Z</time>
      </trkpt>
      <trkpt lat="43.61198" lon="3.71381">
        <ele>190.516</ele>
        <time>2020-07-07T18:04:36.000Z</time>
      </trkpt>
      <trkpt lat="43.61196" lon="3.71377">
        <ele>190.716</ele>
        <time>2020-07-07T18:04:38.000Z</time>
      </trkpt>
      <trkpt lat="43.61196" lon="3.71372">
        <ele>190.916</ele>
        <time>2020-07-07T18:04:40.000Z</time>
      </trkpt>
      <trkpt lat="43.61195" lon="3.71369">
        <ele>191.016</ele>
        <time>2020-07-07T18:04:41.000Z</time>
      </trkpt>
      <trkpt lat="43.61195" lon="3.71367">
        <ele>191.116</ele>
        <time>2020-07-07T18:04:42.000Z</time>
      </trkpt>
      <trkpt lat="43.61195" lon="3.71364">
        <ele>191.216</ele>
        <time>2020-07-07T18:04:43.000Z</time>
      </trkpt>
      <trkpt lat="43.61196" lon="3.71362">
        <ele>191.316</ele>
        <time>2020-07-07T18:04:44.000Z</time>
      </trkpt>
      <trkpt lat="43.61196" lon="3.71359">
        <ele>191.416</ele>
        <time>2020-07-07T18:04:45.000Z</time>
      </trkpt>
      <trkpt lat="43.61197" lon="3.71357">
        <ele>191.516</ele>
        <time>2020-07-07T18:04:46.000Z</time>
      </trkpt>
      <trkpt lat="43.61198" lon="3.71355">
        <ele>191.616</ele>
        <time>2020-07-07T18:04:47.000Z</time>
      </trkpt>
      <trkpt lat="43.612" lon="3.71353">
        <ele>191.716</ele>
        <time>2020-07-07T18:04:48.000Z</time>
      </trkpt>
      <trkpt lat="43.61201" lon="3.71351">
        <ele>191.816</ele>
        <time>2020-07-07T18:04:49.000Z</time>
      </trkpt>
      <trkpt lat="43.61203" lon="3.71348">
        <ele>191.916</ele>
        <time>2020-07-07T18:04:50.000Z</time>
      </trkpt>
      <trkpt lat="43.61205" lon="3.71346">
        <ele>192.03193610735</ele>
        <time>2020-07-07T18:04:51.000Z</time>
      </trkpt>
      <trkpt lat="43.61207" lon="3.71343">
        <ele>192.23153677826</ele>
        <time>2020-07-07T18:04:52.000Z</time>
      </trkpt>
      <trkpt lat="43.61208" lon="3.7134">
        <ele>192.43113744917</ele>
        <time>2020-07-07T18:04:53.000Z</time>
      </trkpt>
      <trkpt lat="43.61209" lon="3.71337">
        <ele>192.63073812009</ele>
        <time>2020-07-07T18:04:54.000Z</time>
      </trkpt>
      <trkpt lat="43.61209" lon="3.71334">
        <ele>192.830338791</ele>
        <time>2020-07-07T18:04:55.000Z</time>
      </trkpt>
      <trkpt lat="43.61209" lon="3.71331">
        <ele>193.02993946192</ele>
        <time>2020-07-07T18:04:56.000Z</time>
      </trkpt>
      <trkpt lat="43.61209" lon="3.71328">
        <ele>193.22954013283</ele>
        <time>2020-07-07T18:04:57.000Z</time>
      </trkpt>
      <trkpt lat="43.61209" lon="3.71326">
        <ele>193.42914080374</ele>
        <time>2020-07-07T18:04:58.000Z</time>
      </trkpt>
      <trkpt lat="43.61208" lon="3.71323">
        <ele>193.62874147466</ele>
        <time>2020-07-07T18:04:59.000Z</time>
      </trkpt>
      <trkpt lat="43.61208" lon="3.7132">
        <ele>193.82834214557</ele>
        <time>2020-07-07T18:05:00.000Z</time>
      </trkpt>
      <trkpt lat="43.61207" lon="3.71318">
        <ele>194.01402742383</ele>
        <time>2020-07-07T18:05:01.000Z</time>
      </trkpt>
      <trkpt lat="43.61207" lon="3.71315">
        <ele>194.11422788888</ele>
        <time>2020-07-07T18:05:02.000Z</time>
      </trkpt>
      <trkpt lat="43.61206" lon="3.71312">
        <ele>194.21442835394</ele>
        <time>2020-07-07T18:05:03.000Z</time>
      </trkpt>
      <trkpt lat="43.61206" lon="3.71309">
        <ele>194.314628819</ele>
        <time>2020-07-07T18:05:04.000Z</time>
      </trkpt>
      <trkpt lat="43.61205" lon="3.71306">
        <ele>194.41482928406</ele>
        <time>2020-07-07T18:05:05.000Z</time>
      </trkpt>
      <trkpt lat="43.61204" lon="3.71304">
        <ele>194.51502974912</ele>
        <time>2020-07-07T18:05:06.000Z</time>
      </trkpt>
      <trkpt lat="43.61203" lon="3.71301">
        <ele>194.61523021418</ele>
        <time>2020-07-07T18:05:07.000Z</time>
      </trkpt>
      <trkpt lat="43.61202" lon="3.71298">
        <ele>194.71543067923</ele>
        <time>2020-07-07T18:05:08.000Z</time>
      </trkpt>
      <trkpt lat="43.61203" lon="3.71295">
        <ele>194.81563114429</ele>
        <time>2020-07-07T18:05:09.000Z</time>
      </trkpt>
      <trkpt lat="43.61203" lon="3.71291">
        <ele>194.91583160935</ele>
        <time>2020-07-07T18:05:10.000Z</time>
      </trkpt>
      <trkpt lat="43.61204" lon="3.71287">
        <ele>195</ele>
        <time>2020-07-07T18:05:11.000Z</time>
      </trkpt>
      <trkpt lat="43.61206" lon="3.71284">
        <ele>195</ele>
        <time>2020-07-07T18:05:12.000Z</time>
      </trkpt>
      <trkpt lat="43.61207" lon="3.71281">
        <ele>195</ele>
        <time>2020-07-07T18:05:13.000Z</time>
      </trkpt>
      <trkpt lat="43.61209" lon="3.71278">
        <ele>195</ele>
        <time>2020-07-07T18:05:14.000Z</time>
      </trkpt>
      <trkpt lat="43.61211" lon="3.71275">
        <ele>195</ele>
        <time>2020-07-07T18:05:15.000Z</time>
      </trkpt>
      <trkpt lat="43.61213" lon="3.71273">
        <ele>195</ele>
        <time>2020-07-07T18:05:16.000Z</time>
      </trkpt>
      <trkpt lat="43.61215" lon="3.7127">
        <ele>195</ele>
        <time>2020-07-07T18:05:17.000Z</time>
      </trkpt>
      <trkpt lat="43.61217" lon="3.71268">
        <ele>195</ele>
        <time>2020-07-07T18:05:18.000Z</time>
      </trkpt>
      <trkpt lat="43.6122" lon="3.71265">
        <ele>195</ele>
        <time>2020-07-07T18:05:19.000Z</time>
      </trkpt>
      <trkpt lat="43.61222" lon="3.71262">
        <ele>195</ele>
        <time>2020-07-07T18:05:20.000Z</time>
      </trkpt>
      <trkpt lat="43.61224" lon="3.7126">
        <ele>195</ele>
        <time>2020-07-07T18:05:21.000Z</time>
      </trkpt>
      <trkpt lat="43.61227" lon="3.71257">
        <ele>195</ele>
        <time>2020-07-07T18:05:22.000Z</time>
      </trkpt>
      <trkpt lat="43.61229" lon="3.71255">
        <ele>195</ele>
        <time>2020-07-07T18:05:23.000Z</time>
      </trkpt>
      <trkpt lat="43.61231" lon="3.71253">
        <ele>195</ele>
        <time>2020-07-07T18:05:24.000Z</time>
      </trkpt>
      <trkpt lat="43.61234" lon="3.7125">
        <ele>195</ele>
        <time>2020-07-07T18:05:25.000Z</time>
      </trkpt>
      <trkpt lat="43.61236" lon="3.71247">
        <ele>195</ele>
        <time>2020-07-07T18:05:26.000Z</time>
      </trkpt>
      <trkpt lat="43.61238" lon="3.71245">
        <ele>195</ele>
        <time>2020-07-07T18:05:27.000Z</time>
      </trkpt>
      <trkpt lat="43.61241" lon="3.71242">
        <ele>195</ele>
        <time>2020-07-07T18:05:28.000Z</time>
      </trkpt>
      <trkpt lat="43.61243" lon="3.7124">
        <ele>195</ele>
        <time>2020-07-07T18:05:29.000Z</time>
      </trkpt>
      <trkpt lat="43.61246" lon="3.71237">
        <ele>195</ele>
        <time>2020-07-07T18:05:30.000Z</time>
      </trkpt>
      <trkpt lat="43.61249" lon="3.71235">
        <ele>194.984</ele>
        <time>2020-07-07T18:05:31.000Z</time>
      </trkpt>
      <trkpt lat="43.61251" lon="3.71232">
        <ele>194.884</ele>
        <time>2020-07-07T18:05:32.000Z</time>
      </trkpt>
      <trkpt lat="43.61254" lon="3.71229">
        <ele>194.784</ele>
        <time>2020-07-07T18:05:33.000Z</time>
      </trkpt>
      <trkpt lat="43.61256" lon="3.71227">
        <ele>194.684</ele>
        <time>2020-07-07T18:05:34.000Z</time>
      </trkpt>
      <trkpt lat="43.61259" lon="3.71224">
        <ele>194.584</ele>
        <time>2020-07-07T18:05:35.000Z</time>
      </trkpt>
      <trkpt lat="43.61262" lon="3.71221">
        <ele>194.484</ele>
        <time>2020-07-07T18:05:36.000Z</time>
      </trkpt>
      <trkpt lat="43.61265" lon="3.71218">
        <ele>194.384</ele>
        <time>2020-07-07T18:05:37.000Z</time>
      </trkpt>
      <trkpt lat="43.61267" lon="3.71216">
        <ele>194.284</ele>
        <time>2020-07-07T18:05:38.000Z</time>
      </trkpt>
      <trkpt lat="43.6127" lon="3.71213">
        <ele>194.184</ele>
        <time>2020-07-07T18:05:39.000Z</time>
      </trkpt>
      <trkpt lat="43.61273" lon="3.7121">
        <ele>194.084</ele>
        <time>2020-07-07T18:05:40.000Z</time>
      </trkpt>
      <trkpt lat="43.61276" lon="3.71207">
        <ele>194</ele>
        <time>2020-07-07T18:05:41.000Z</time>
      </trkpt>
      <trkpt lat="43.61279" lon="3.71204">
        <ele>194</ele>
        <time>2020-07-07T18:05:42.000Z</time>
      </trkpt>
      <trkpt lat="43.61281" lon="3.71201">
        <ele>194</ele>
        <time>2020-07-07T18:05:43.000Z</time>
      </trkpt>
      <trkpt lat="43.61284" lon="3.71198">
        <ele>194</ele>
        <time>2020-07-07T18:05:44.000Z</time>
      </trkpt>
      <trkpt lat="43.61287" lon="3.71195">
        <ele>194</ele>
        <time>2020-07-07T18:05:45.000Z</time>
      </trkpt>
      <trkpt lat="43.6129" lon="3.71192">
        <ele>194</ele>
        <time>2020-07-07T18:05:46.000Z</time>
      </trkpt>
      <trkpt lat="43.61293" lon="3.71188">
        <ele>194</ele>
        <time>2020-07-07T18:05:47.000Z</time>
      </trkpt>
      <trkpt lat="43.61296" lon="3.71185">
        <ele>194</ele>
        <time>2020-07-07T18:05:48.000Z</time>
      </trkpt>
      <trkpt lat="43.61298" lon="3.71182">
        <ele>194</ele>
        <time>2020-07-07T18:05:49.000Z</time>
      </trkpt>
      <trkpt lat="43.61301" lon="3.71178">
        <ele>194</ele>
        <time>2020-07-07T18:05:50.000Z</time>
      </trkpt>
      <trkpt lat="43.61303" lon="3.71174">
        <ele>193.968</ele>
        <time>2020-07-07T18:05:51.000Z</time>
      </trkpt>
      <trkpt lat="43.61305" lon="3.71169">
        <ele>193.768</ele>
        <time>2020-07-07T18:05:52.000Z</time>
      </trkpt>
      <trkpt lat="43.61306" lon="3.71163">
        <ele>193.568</ele>
        <time>2020-07-07T18:05:53.000Z</time>
      </trkpt>
      <trkpt lat="43.61308" lon="3.71157">
        <ele>193.368</ele>
        <time>2020-07-07T18:05:54.000Z</time>
      </trkpt>
      <trkpt lat="43.61311" lon="3.71151">
        <ele>193.168</ele>
        <time>2020-07-07T18:05:55.000Z</time>
      </trkpt>
      <trkpt lat="43.61314" lon="3.71144">
        <ele>192.968</ele>
        <time>2020-07-07T18:05:56.000Z</time>
      </trkpt>
      <trkpt lat="43.61318" lon="3.71138">
        <ele>192.768</ele>
        <time>2020-07-07T18:05:57.000Z</time>
      </trkpt>
      <trkpt lat="43.61322" lon="3.71133">
        <ele>192.568</ele>
        <time>2020-07-07T18:05:58.000Z</time>
      </trkpt>
      <trkpt lat="43.61327" lon="3.71126">
        <ele>192.368</ele>
        <time>2020-07-07T18:05:59.000Z</time>
      </trkpt>
      <trkpt lat="43.61332" lon="3.7112">
        <ele>192.168</ele>
        <time>2020-07-07T18:06:00.000Z</time>
      </trkpt>
      <trkpt lat="43.61336" lon="3.71113">
        <ele>191.953307393</ele>
        <time>2020-07-07T18:06:01.000Z</time>
      </trkpt>
      <trkpt lat="43.6134" lon="3.71106">
        <ele>191.66147859922</ele>
        <time>2020-07-07T18:06:02.000Z</time>
      </trkpt>
      <trkpt lat="43.61344" lon="3.71097">
        <ele>191.36964980545</ele>
        <time>2020-07-07T18:06:03.000Z</time>
      </trkpt>
      <trkpt lat="43.61346" lon="3.71088">
        <ele>191.07782101167</ele>
        <time>2020-07-07T18:06:04.000Z</time>
      </trkpt>
      <trkpt lat="43.61348" lon="3.71079">
        <ele>190.7859922179</ele>
        <time>2020-07-07T18:06:05.000Z</time>
      </trkpt>
      <trkpt lat="43.61349" lon="3.71069">
        <ele>190.49416342412</ele>
        <time>2020-07-07T18:06:06.000Z</time>
      </trkpt>
      <trkpt lat="43.61349" lon="3.71059">
        <ele>190.20233463035</ele>
        <time>2020-07-07T18:06:07.000Z</time>
      </trkpt>
      <trkpt lat="43.6135" lon="3.71049">
        <ele>189.91050583658</ele>
        <time>2020-07-07T18:06:08.000Z</time>
      </trkpt>
      <trkpt lat="43.61351" lon="3.71039">
        <ele>189.6186770428</ele>
        <time>2020-07-07T18:06:09.000Z</time>
      </trkpt>
      <trkpt lat="43.61352" lon="3.71028">
        <ele>189.32684824903</ele>
        <time>2020-07-07T18:06:10.000Z</time>
      </trkpt>
      <trkpt lat="43.61352" lon="3.71017">
        <ele>189.03501945525</ele>
        <time>2020-07-07T18:06:11.000Z</time>
      </trkpt>
      <trkpt lat="43.61353" lon="3.71007">
        <ele>188.72839506173</ele>
        <time>2020-07-07T18:06:12.000Z</time>
      </trkpt>
      <trkpt lat="43.61353" lon="3.70996">
        <ele>188.41975308642</ele>
        <time>2020-07-07T18:06:13.000Z</time>
      </trkpt>
      <trkpt lat="43.61353" lon="3.70985">
        <ele>188.11111111111</ele>
        <time>2020-07-07T18:06:14.000Z</time>
      </trkpt>
      <trkpt lat="43.61352" lon="3.70974">
        <ele>187.8024691358</ele>
        <time>2020-07-07T18:06:15.000Z</time>
      </trkpt>
      <trkpt lat="43.61352" lon="3.70963">
        <ele>187.49382716049</ele>
        <time>2020-07-07T18:06:16.000Z</time>
      </trkpt>
      <trkpt lat="43.61352" lon="3.70952">
        <ele>187.18518518518</ele>
        <time>2020-07-07T18:06:17.000Z</time>
      </trkpt>
      <trkpt lat="43.61352" lon="3.70941">
        <ele>186.87654320988</ele>
        <time>2020-07-07T18:06:18.000Z</time>
      </trkpt>
      <trkpt lat="43.61351" lon="3.7093">
        <ele>186.56790123457</ele>
        <time>2020-07-07T18:06:19.000Z</time>
      </trkpt>
      <trkpt lat="43.61351" lon="3.7092">
        <ele>186.25925925926</ele>
        <time>2020-07-07T18:06:20.000Z</time>
      </trkpt>
      <trkpt lat="43.61351" lon="3.7091">
        <ele>186</ele>
        <time>2020-07-07T18:06:21.000Z</time>
      </trkpt>
      <trkpt lat="43.61351" lon="3.70902">
        <ele>186</ele>
        <time>2020-07-07T18:06:22.000Z</time>
      </trkpt>
      <trkpt lat="43.61351" lon="3.70894">
        <ele>186</ele>
        <time>2020-07-07T18:06:23.000Z</time>
      </trkpt>
      <trkpt lat="43.61353" lon="3.70888">
        <ele>186</ele>
        <time>2020-07-07T18:06:24.000Z</time>
      </trkpt>
      <trkpt lat="43.61356" lon="3.70884">
        <ele>186</ele>
        <time>2020-07-07T18:06:25.000Z</time>
      </trkpt>
      <trkpt lat="43.61359" lon="3.7088">
        <ele>186</ele>
        <time>2020-07-07T18:06:26.000Z</time>
      </trkpt>
      <trkpt lat="43.61362" lon="3.70877">
        <ele>186</ele>
        <time>2020-07-07T18:06:27.000Z</time>
      </trkpt>
      <trkpt lat="43.61364" lon="3.70874">
        <ele>186</ele>
        <time>2020-07-07T18:06:28.000Z</time>
      </trkpt>
      <trkpt lat="43.61366" lon="3.70872">
        <ele>186</ele>
        <time>2020-07-07T18:06:29.000Z</time>
      </trkpt>
      <trkpt lat="43.61368" lon="3.7087">
        <ele>186</ele>
        <time>2020-07-07T18:06:30.000Z</time>
      </trkpt>
      <trkpt lat="43.6137" lon="3.70868">
        <ele>186</ele>
        <time>2020-07-07T18:06:31.000Z</time>
      </trkpt>
      <trkpt lat="43.61372" lon="3.70866">
        <ele>186</ele>
        <time>2020-07-07T18:06:32.000Z</time>
      </trkpt>
      <trkpt lat="43.61374" lon="3.70864">
        <ele>186</ele>
        <time>2020-07-07T18:06:33.000Z</time>
      </trkpt>
      <trkpt lat="43.61376" lon="3.70861">
        <ele>186</ele>
        <time>2020-07-07T18:06:34.000Z</time>
      </trkpt>
      <trkpt lat="43.61377" lon="3.70858">
        <ele>186</ele>
        <time>2020-07-07T18:06:35.000Z</time>
      </trkpt>
      <trkpt lat="43.61379" lon="3.70855">
        <ele>186</ele>
        <time>2020-07-07T18:06:36.000Z</time>
      </trkpt>
      <trkpt lat="43.61381" lon="3.70853">
        <ele>186</ele>
        <time>2020-07-07T18:06:37.000Z</time>
      </trkpt>
      <trkpt lat="43.61383" lon="3.70851">
        <ele>186</ele>
        <time>2020-07-07T18:06:38.000Z</time>
      </trkpt>
      <trkpt lat="43.61384" lon="3.70848">
        <ele>186</ele>
        <time>2020-07-07T18:06:39.000Z</time>
      </trkpt>
      <trkpt lat="43.61386" lon="3.70846">
        <ele>186</ele>
        <time>2020-07-07T18:06:40.000Z</time>
      </trkpt>
      <trkpt lat="43.61387" lon="3.70844">
        <ele>186.032</ele>
        <time>2020-07-07T18:06:41.000Z</time>
      </trkpt>
      <trkpt lat="43.61388" lon="3.70843">
        <ele>186.232</ele>
        <time>2020-07-07T18:06:42.000Z</time>
      </trkpt>
      <trkpt lat="43.61391" lon="3.70839">
        <ele>186.632</ele>
        <time>2020-07-07T18:06:44.000Z</time>
      </trkpt>
      <trkpt lat="43.61392" lon="3.70837">
        <ele>186.832</ele>
        <time>2020-07-07T18:06:45.000Z</time>
      </trkpt>
      <trkpt lat="43.61393" lon="3.70835">
        <ele>187.032</ele>
        <time>2020-07-07T18:06:46.000Z</time>
      </trkpt>
      <trkpt lat="43.61395" lon="3.70833">
        <ele>187.232</ele>
        <time>2020-07-07T18:06:47.000Z</time>
      </trkpt>
      <trkpt lat="43.61396" lon="3.70831">
        <ele>187.432</ele>
        <time>2020-07-07T18:06:48.000Z</time>
      </trkpt>
      <trkpt lat="43.61398" lon="3.70829">
        <ele>187.632</ele>
        <time>2020-07-07T18:06:49.000Z</time>
      </trkpt>
      <trkpt lat="43.61399" lon="3.70827">
        <ele>187.832</ele>
        <time>2020-07-07T18:06:50.000Z</time>
      </trkpt>
      <trkpt lat="43.614" lon="3.70825">
        <ele>188.016</ele>
        <time>2020-07-07T18:06:51.000Z</time>
      </trkpt>
      <trkpt lat="43.61402" lon="3.70822">
        <ele>188.216</ele>
        <time>2020-07-07T18:06:53.000Z</time>
      </trkpt>
      <trkpt lat="43.61404" lon="3.70818">
        <ele>188.416</ele>
        <time>2020-07-07T18:06:55.000Z</time>
      </trkpt>
      <trkpt lat="43.61406" lon="3.70816">
        <ele>188.516</ele>
        <time>2020-07-07T18:06:56.000Z</time>
      </trkpt>
      <trkpt lat="43.61407" lon="3.70814">
        <ele>188.616</ele>
        <time>2020-07-07T18:06:57.000Z</time>
      </trkpt>
      <trkpt lat="43.61409" lon="3.7081">
        <ele>188.816</ele>
        <time>2020-07-07T18:06:59.000Z</time>
      </trkpt>
      <trkpt lat="43.6141" lon="3.70806">
        <ele>189.032</ele>
        <time>2020-07-07T18:07:01.000Z</time>
      </trkpt>
      <trkpt lat="43.61412" lon="3.70803">
        <ele>189.432</ele>
        <time>2020-07-07T18:07:03.000Z</time>
      </trkpt>
      <trkpt lat="43.61415" lon="3.70799">
        <ele>189.832</ele>
        <time>2020-07-07T18:07:05.000Z</time>
      </trkpt>
      <trkpt lat="43.61417" lon="3.70796">
        <ele>190.232</ele>
        <time>2020-07-07T18:07:07.000Z</time>
      </trkpt>
      <trkpt lat="43.61419" lon="3.70793">
        <ele>190.632</ele>
        <time>2020-07-07T18:07:09.000Z</time>
      </trkpt>
      <trkpt lat="43.61421" lon="3.7079">
        <ele>191.032</ele>
        <time>2020-07-07T18:07:11.000Z</time>
      </trkpt>
      <trkpt lat="43.61424" lon="3.70787">
        <ele>191.432</ele>
        <time>2020-07-07T18:07:13.000Z</time>
      </trkpt>
      <trkpt lat="43.61426" lon="3.70784">
        <ele>191.832</ele>
        <time>2020-07-07T18:07:15.000Z</time>
      </trkpt>
      <trkpt lat="43.61428" lon="3.70781">
        <ele>192.232</ele>
        <time>2020-07-07T18:07:17.000Z</time>
      </trkpt>
      <trkpt lat="43.6143" lon="3.70778">
        <ele>192.632</ele>
        <time>2020-07-07T18:07:19.000Z</time>
      </trkpt>
      <trkpt lat="43.61433" lon="3.70775">
        <ele>193.016</ele>
        <time>2020-07-07T18:07:21.000Z</time>
      </trkpt>
      <trkpt lat="43.61435" lon="3.70772">
        <ele>193.216</ele>
        <time>2020-07-07T18:07:23.000Z</time>
      </trkpt>
      <trkpt lat="43.61437" lon="3.70769">
        <ele>193.416</ele>
        <time>2020-07-07T18:07:25.000Z</time>
      </trkpt>
      <trkpt lat="43.6144" lon="3.70765">
        <ele>193.616</ele>
        <time>2020-07-07T18:07:27.000Z</time>
      </trkpt>
      <trkpt lat="43.61441" lon="3.70764">
        <ele>193.716</ele>
        <time>2020-07-07T18:07:28.000Z</time>
      </trkpt>
      <trkpt lat="43.61443" lon="3.70762">
        <ele>193.816</ele>
        <time>2020-07-07T18:07:29.000Z</time>
      </trkpt>
      <trkpt lat="43.61444" lon="3.7076">
        <ele>193.916</ele>
        <time>2020-07-07T18:07:30.000Z</time>
      </trkpt>
      <trkpt lat="43.61445" lon="3.70759">
        <ele>194.016</ele>
        <time>2020-07-07T18:07:31.000Z</time>
      </trkpt>
      <trkpt lat="43.61447" lon="3.70757">
        <ele>194.116</ele>
        <time>2020-07-07T18:07:32.000Z</time>
      </trkpt>
      <trkpt lat="43.61448" lon="3.70755">
        <ele>194.216</ele>
        <time>2020-07-07T18:07:33.000Z</time>
      </trkpt>
      <trkpt lat="43.61449" lon="3.70754">
        <ele>194.316</ele>
        <time>2020-07-07T18:07:34.000Z</time>
      </trkpt>
      <trkpt lat="43.61451" lon="3.70752">
        <ele>194.416</ele>
        <time>2020-07-07T18:07:35.000Z</time>
      </trkpt>
      <trkpt lat="43.61452" lon="3.7075">
        <ele>194.516</ele>
        <time>2020-07-07T18:07:36.000Z</time>
      </trkpt>
      <trkpt lat="43.61454" lon="3.70748">
        <ele>194.616</ele>
        <time>2020-07-07T18:07:37.000Z</time>
      </trkpt>
      <trkpt lat="43.61456" lon="3.70745">
        <ele>194.816</ele>
        <time>2020-07-07T18:07:39.000Z</time>
      </trkpt>
      <trkpt lat="43.61458" lon="3.70744">
        <ele>194.916</ele>
        <time>2020-07-07T18:07:40.000Z</time>
      </trkpt>
      <trkpt lat="43.61459" lon="3.70742">
        <ele>195.01544401544</ele>
        <time>2020-07-07T18:07:41.000Z</time>
      </trkpt>
      <trkpt lat="43.61461" lon="3.7074">
        <ele>195.11196911197</ele>
        <time>2020-07-07T18:07:42.000Z</time>
      </trkpt>
      <trkpt lat="43.61462" lon="3.70738">
        <ele>195.20849420849</ele>
        <time>2020-07-07T18:07:43.000Z</time>
      </trkpt>
      <trkpt lat="43.61463" lon="3.70736">
        <ele>195.30501930502</ele>
        <time>2020-07-07T18:07:44.000Z</time>
      </trkpt>
      <trkpt lat="43.61465" lon="3.70734">
        <ele>195.40154440154</ele>
        <time>2020-07-07T18:07:45.000Z</time>
      </trkpt>
      <trkpt lat="43.61466" lon="3.70733">
        <ele>195.49806949807</ele>
        <time>2020-07-07T18:07:46.000Z</time>
      </trkpt>
      <trkpt lat="43.61468" lon="3.70731">
        <ele>195.5945945946</ele>
        <time>2020-07-07T18:07:47.000Z</time>
      </trkpt>
      <trkpt lat="43.6147" lon="3.70729">
        <ele>195.69111969112</ele>
        <time>2020-07-07T18:07:48.000Z</time>
      </trkpt>
      <trkpt lat="43.61471" lon="3.70727">
        <ele>195.78764478765</ele>
        <time>2020-07-07T18:07:49.000Z</time>
      </trkpt>
      <trkpt lat="43.61473" lon="3.70725">
        <ele>195.88416988417</ele>
        <time>2020-07-07T18:07:50.000Z</time>
      </trkpt>
      <trkpt lat="43.61474" lon="3.70723">
        <ele>195.9806949807</ele>
        <time>2020-07-07T18:07:51.000Z</time>
      </trkpt>
      <trkpt lat="43.61476" lon="3.70721">
        <ele>196.08281568012</ele>
        <time>2020-07-07T18:07:52.000Z</time>
      </trkpt>
      <trkpt lat="43.61478" lon="3.70718">
        <ele>196.18633528027</ele>
        <time>2020-07-07T18:07:53.000Z</time>
      </trkpt>
      <trkpt lat="43.6148" lon="3.70716">
        <ele>196.28985488043</ele>
        <time>2020-07-07T18:07:54.000Z</time>
      </trkpt>
      <trkpt lat="43.61482" lon="3.70714">
        <ele>196.39337448058</ele>
        <time>2020-07-07T18:07:55.000Z</time>
      </trkpt>
      <trkpt lat="43.61483" lon="3.70712">
        <ele>196.49689408073</ele>
        <time>2020-07-07T18:07:56.000Z</time>
      </trkpt>
      <trkpt lat="43.61485" lon="3.70709">
        <ele>196.60041368088</ele>
        <time>2020-07-07T18:07:57.000Z</time>
      </trkpt>
      <trkpt lat="43.61487" lon="3.70707">
        <ele>196.70393328104</ele>
        <time>2020-07-07T18:07:58.000Z</time>
      </trkpt>
      <trkpt lat="43.61489" lon="3.70705">
        <ele>196.80745288119</ele>
        <time>2020-07-07T18:07:59.000Z</time>
      </trkpt>
      <trkpt lat="43.61492" lon="3.70703">
        <ele>196.91097248134</ele>
        <time>2020-07-07T18:08:00.000Z</time>
      </trkpt>
      <trkpt lat="43.61494" lon="3.70701">
        <ele>197</ele>
        <time>2020-07-07T18:08:01.000Z</time>
      </trkpt>
      <trkpt lat="43.61495" lon="3.70698">
        <ele>197</ele>
        <time>2020-07-07T18:08:02.000Z</time>
      </trkpt>
      <trkpt lat="43.61497" lon="3.70696">
        <ele>197</ele>
        <time>2020-07-07T18:08:03.000Z</time>
      </trkpt>
      <trkpt lat="43.61499" lon="3.70694">
        <ele>197</ele>
        <time>2020-07-07T18:08:04.000Z</time>
      </trkpt>
      <trkpt lat="43.61501" lon="3.70691">
        <ele>197</ele>
        <time>2020-07-07T18:08:05.000Z</time>
      </trkpt>
      <trkpt lat="43.61503" lon="3.70689">
        <ele>197</ele>
        <time>2020-07-07T18:08:06.000Z</time>
      </trkpt>
      <trkpt lat="43.61505" lon="3.70687">
        <ele>197</ele>
        <time>2020-07-07T18:08:07.000Z</time>
      </trkpt>
      <trkpt lat="43.61506" lon="3.70685">
        <ele>197</ele>
        <time>2020-07-07T18:08:08.000Z</time>
      </trkpt>
      <trkpt lat="43.61508" lon="3.70682">
        <ele>197</ele>
        <time>2020-07-07T18:08:09.000Z</time>
      </trkpt>
      <trkpt lat="43.6151" lon="3.7068">
        <ele>197</ele>
        <time>2020-07-07T18:08:10.000Z</time>
      </trkpt>
      <trkpt lat="43.61512" lon="3.70677">
        <ele>197</ele>
        <time>2020-07-07T18:08:11.000Z</time>
      </trkpt>
      <trkpt lat="43.61514" lon="3.70675">
        <ele>197</ele>
        <time>2020-07-07T18:08:12.000Z</time>
      </trkpt>
      <trkpt lat="43.61517" lon="3.70672">
        <ele>197</ele>
        <time>2020-07-07T18:08:13.000Z</time>
      </trkpt>
      <trkpt lat="43.61519" lon="3.70669">
        <ele>197</ele>
        <time>2020-07-07T18:08:14.000Z</time>
      </trkpt>
      <trkpt lat="43.61521" lon="3.70667">
        <ele>197</ele>
        <time>2020-07-07T18:08:15.000Z</time>
      </trkpt>
      <trkpt lat="43.61523" lon="3.70664">
        <ele>197</ele>
        <time>2020-07-07T18:08:16.000Z</time>
      </trkpt>
      <trkpt lat="43.61526" lon="3.70661">
        <ele>197</ele>
        <time>2020-07-07T18:08:17.000Z</time>
      </trkpt>
      <trkpt lat="43.61528" lon="3.70658">
        <ele>197</ele>
        <time>2020-07-07T18:08:18.000Z</time>
      </trkpt>
      <trkpt lat="43.6153" lon="3.70655">
        <ele>197</ele>
        <time>2020-07-07T18:08:19.000Z</time>
      </trkpt>
      <trkpt lat="43.61532" lon="3.70652">
        <ele>197</ele>
        <time>2020-07-07T18:08:20.000Z</time>
      </trkpt>
      <trkpt lat="43.61535" lon="3.70648">
        <ele>197</ele>
        <time>2020-07-07T18:08:21.000Z</time>
      </trkpt>
      <trkpt lat="43.61538" lon="3.70645">
        <ele>197</ele>
        <time>2020-07-07T18:08:22.000Z</time>
      </trkpt>
      <trkpt lat="43.6154" lon="3.70641">
        <ele>197</ele>
        <time>2020-07-07T18:08:23.000Z</time>
      </trkpt>
      <trkpt lat="43.61543" lon="3.70638">
        <ele>197</ele>
        <time>2020-07-07T18:08:24.000Z</time>
      </trkpt>
      <trkpt lat="43.61546" lon="3.70634">
        <ele>197</ele>
        <time>2020-07-07T18:08:25.000Z</time>
      </trkpt>
      <trkpt lat="43.61549" lon="3.7063">
        <ele>197</ele>
        <time>2020-07-07T18:08:26.000Z</time>
      </trkpt>
      <trkpt lat="43.61552" lon="3.70626">
        <ele>197</ele>
        <time>2020-07-07T18:08:27.000Z</time>
      </trkpt>
      <trkpt lat="43.61556" lon="3.70622">
        <ele>197</ele>
        <time>2020-07-07T18:08:28.000Z</time>
      </trkpt>
      <trkpt lat="43.61559" lon="3.70618">
        <ele>197</ele>
        <time>2020-07-07T18:08:29.000Z</time>
      </trkpt>
      <trkpt lat="43.61562" lon="3.70614">
        <ele>197</ele>
        <time>2020-07-07T18:08:30.000Z</time>
      </trkpt>
      <trkpt lat="43.61566" lon="3.70609">
        <ele>196.984</ele>
        <time>2020-07-07T18:08:31.000Z</time>
      </trkpt>
      <trkpt lat="43.6157" lon="3.70605">
        <ele>196.884</ele>
        <time>2020-07-07T18:08:32.000Z</time>
      </trkpt>
      <trkpt lat="43.61574" lon="3.706">
        <ele>196.784</ele>
        <time>2020-07-07T18:08:33.000Z</time>
      </trkpt>
      <trkpt lat="43.61577" lon="3.70596">
        <ele>196.684</ele>
        <time>2020-07-07T18:08:34.000Z</time>
      </trkpt>
      <trkpt lat="43.61581" lon="3.70591">
        <ele>196.584</ele>
        <time>2020-07-07T18:08:35.000Z</time>
      </trkpt>
      <trkpt lat="43.61585" lon="3.70586">
        <ele>196.484</ele>
        <time>2020-07-07T18:08:36.000Z</time>
      </trkpt>
      <trkpt lat="43.61588" lon="3.70581">
        <ele>196.384</ele>
        <time>2020-07-07T18:08:37.000Z</time>
      </trkpt>
      <trkpt lat="43.61592" lon="3.70577">
        <ele>196.284</ele>
        <time>2020-07-07T18:08:38.000Z</time>
      </trkpt>
      <trkpt lat="43.61596" lon="3.70573">
        <ele>196.184</ele>
        <time>2020-07-07T18:08:39.000Z</time>
      </trkpt>
      <trkpt lat="43.616" lon="3.70569">
        <ele>196.084</ele>
        <time>2020-07-07T18:08:40.000Z</time>
      </trkpt>
      <trkpt lat="43.61604" lon="3.70566">
        <ele>195.984</ele>
        <time>2020-07-07T18:08:41.000Z</time>
      </trkpt>
      <trkpt lat="43.61607" lon="3.70562">
        <ele>195.884</ele>
        <time>2020-07-07T18:08:42.000Z</time>
      </trkpt>
      <trkpt lat="43.6161" lon="3.70558">
        <ele>195.784</ele>
        <time>2020-07-07T18:08:43.000Z</time>
      </trkpt>
      <trkpt lat="43.61614" lon="3.70555">
        <ele>195.684</ele>
        <time>2020-07-07T18:08:44.000Z</time>
      </trkpt>
      <trkpt lat="43.61617" lon="3.70551">
        <ele>195.584</ele>
        <time>2020-07-07T18:08:45.000Z</time>
      </trkpt>
      <trkpt lat="43.6162" lon="3.70548">
        <ele>195.484</ele>
        <time>2020-07-07T18:08:46.000Z</time>
      </trkpt>
      <trkpt lat="43.61623" lon="3.70545">
        <ele>195.384</ele>
        <time>2020-07-07T18:08:47.000Z</time>
      </trkpt>
      <trkpt lat="43.61626" lon="3.70543">
        <ele>195.284</ele>
        <time>2020-07-07T18:08:48.000Z</time>
      </trkpt>
      <trkpt lat="43.61628" lon="3.70542">
        <ele>195.184</ele>
        <time>2020-07-07T18:08:49.000Z</time>
      </trkpt>
      <trkpt lat="43.61631" lon="3.7054">
        <ele>195.084</ele>
        <time>2020-07-07T18:08:50.000Z</time>
      </trkpt>
      <trkpt lat="43.61634" lon="3.70539">
        <ele>195</ele>
        <time>2020-07-07T18:08:51.000Z</time>
      </trkpt>
      <trkpt lat="43.61637" lon="3.70537">
        <ele>195</ele>
        <time>2020-07-07T18:08:52.000Z</time>
      </trkpt>
      <trkpt lat="43.6164" lon="3.70536">
        <ele>195</ele>
        <time>2020-07-07T18:08:53.000Z</time>
      </trkpt>
      <trkpt lat="43.61643" lon="3.70535">
        <ele>195</ele>
        <time>2020-07-07T18:08:54.000Z</time>
      </trkpt>
      <trkpt lat="43.61647" lon="3.70533">
        <ele>195</ele>
        <time>2020-07-07T18:08:55.000Z</time>
      </trkpt>
      <trkpt lat="43.6165" lon="3.70532">
        <ele>195</ele>
        <time>2020-07-07T18:08:56.000Z</time>
      </trkpt>
      <trkpt lat="43.61653" lon="3.7053">
        <ele>195</ele>
        <time>2020-07-07T18:08:57.000Z</time>
      </trkpt>
      <trkpt lat="43.61656" lon="3.70528">
        <ele>195</ele>
        <time>2020-07-07T18:08:58.000Z</time>
      </trkpt>
      <trkpt lat="43.61659" lon="3.70527">
        <ele>195</ele>
        <time>2020-07-07T18:08:59.000Z</time>
      </trkpt>
      <trkpt lat="43.61662" lon="3.70525">
        <ele>195</ele>
        <time>2020-07-07T18:09:00.000Z</time>
      </trkpt>
      <trkpt lat="43.61665" lon="3.70524">
        <ele>195</ele>
        <time>2020-07-07T18:09:01.000Z</time>
      </trkpt>
      <trkpt lat="43.61668" lon="3.70522">
        <ele>195</ele>
        <time>2020-07-07T18:09:02.000Z</time>
      </trkpt>
      <trkpt lat="43.61671" lon="3.70521">
        <ele>195</ele>
        <time>2020-07-07T18:09:03.000Z</time>
      </trkpt>
      <trkpt lat="43.61674" lon="3.70519">
        <ele>195</ele>
        <time>2020-07-07T18:09:04.000Z</time>
      </trkpt>
      <trkpt lat="43.61677" lon="3.70517">
        <ele>195</ele>
        <time>2020-07-07T18:09:05.000Z</time>
      </trkpt>
      <trkpt lat="43.6168" lon="3.70516">
        <ele>195</ele>
        <time>2020-07-07T18:09:06.000Z</time>
      </trkpt>
      <trkpt lat="43.61683" lon="3.70514">
        <ele>195</ele>
        <time>2020-07-07T18:09:07.000Z</time>
      </trkpt>
      <trkpt lat="43.61685" lon="3.70512">
        <ele>195</ele>
        <time>2020-07-07T18:09:08.000Z</time>
      </trkpt>
      <trkpt lat="43.61688" lon="3.7051">
        <ele>195</ele>
        <time>2020-07-07T18:09:09.000Z</time>
      </trkpt>
      <trkpt lat="43.61691" lon="3.70508">
        <ele>195</ele>
        <time>2020-07-07T18:09:10.000Z</time>
      </trkpt>
      <trkpt lat="43.61695" lon="3.70506">
        <ele>195</ele>
        <time>2020-07-07T18:09:11.000Z</time>
      </trkpt>
      <trkpt lat="43.61698" lon="3.70504">
        <ele>195</ele>
        <time>2020-07-07T18:09:12.000Z</time>
      </trkpt>
      <trkpt lat="43.61701" lon="3.70502">
        <ele>195</ele>
        <time>2020-07-07T18:09:13.000Z</time>
      </trkpt>
      <trkpt lat="43.61704" lon="3.705">
        <ele>195</ele>
        <time>2020-07-07T18:09:14.000Z</time>
      </trkpt>
      <trkpt lat="43.61707" lon="3.70498">
        <ele>195</ele>
        <time>2020-07-07T18:09:15.000Z</time>
      </trkpt>
      <trkpt lat="43.6171" lon="3.70496">
        <ele>195</ele>
        <time>2020-07-07T18:09:16.000Z</time>
      </trkpt>
      <trkpt lat="43.61713" lon="3.70494">
        <ele>195</ele>
        <time>2020-07-07T18:09:17.000Z</time>
      </trkpt>
      <trkpt lat="43.61715" lon="3.70492">
        <ele>195</ele>
        <time>2020-07-07T18:09:18.000Z</time>
      </trkpt>
      <trkpt lat="43.61718" lon="3.7049">
        <ele>195</ele>
        <time>2020-07-07T18:09:19.000Z</time>
      </trkpt>
      <trkpt lat="43.61721" lon="3.70488">
        <ele>195</ele>
        <time>2020-07-07T18:09:20.000Z</time>
      </trkpt>
      <trkpt lat="43.61724" lon="3.70486">
        <ele>195</ele>
        <time>2020-07-07T18:09:21.000Z</time>
      </trkpt>
      <trkpt lat="43.61727" lon="3.70483">
        <ele>194.90946502058</ele>
        <time>2020-07-07T18:09:22.000Z</time>
      </trkpt>
      <trkpt lat="43.6173" lon="3.70481">
        <ele>194.80658436214</ele>
        <time>2020-07-07T18:09:23.000Z</time>
      </trkpt>
      <trkpt lat="43.61734" lon="3.70479">
        <ele>194.7037037037</ele>
        <time>2020-07-07T18:09:24.000Z</time>
      </trkpt>
      <trkpt lat="43.61738" lon="3.70476">
        <ele>194.60082304527</ele>
        <time>2020-07-07T18:09:25.000Z</time>
      </trkpt>
      <trkpt lat="43.61741" lon="3.70474">
        <ele>194.49794238683</ele>
        <time>2020-07-07T18:09:26.000Z</time>
      </trkpt>
      <trkpt lat="43.61745" lon="3.70472">
        <ele>194.3950617284</ele>
        <time>2020-07-07T18:09:27.000Z</time>
      </trkpt>
      <trkpt lat="43.61748" lon="3.7047">
        <ele>194.29218106996</ele>
        <time>2020-07-07T18:09:28.000Z</time>
      </trkpt>
      <trkpt lat="43.61751" lon="3.70468">
        <ele>194.18930041152</ele>
        <time>2020-07-07T18:09:29.000Z</time>
      </trkpt>
      <trkpt lat="43.61755" lon="3.70466">
        <ele>194.08641975309</ele>
        <time>2020-07-07T18:09:30.000Z</time>
      </trkpt>
      <trkpt lat="43.61758" lon="3.70464">
        <ele>194</ele>
        <time>2020-07-07T18:09:31.000Z</time>
      </trkpt>
      <trkpt lat="43.61761" lon="3.70461">
        <ele>194</ele>
        <time>2020-07-07T18:09:32.000Z</time>
      </trkpt>
      <trkpt lat="43.61765" lon="3.70459">
        <ele>194</ele>
        <time>2020-07-07T18:09:33.000Z</time>
      </trkpt>
      <trkpt lat="43.61768" lon="3.70457">
        <ele>194</ele>
        <time>2020-07-07T18:09:34.000Z</time>
      </trkpt>
      <trkpt lat="43.61771" lon="3.70455">
        <ele>194</ele>
        <time>2020-07-07T18:09:35.000Z</time>
      </trkpt>
      <trkpt lat="43.61775" lon="3.70453">
        <ele>194</ele>
        <time>2020-07-07T18:09:36.000Z</time>
      </trkpt>
      <trkpt lat="43.61778" lon="3.70451">
        <ele>194</ele>
        <time>2020-07-07T18:09:37.000Z</time>
      </trkpt>
      <trkpt lat="43.61782" lon="3.70449">
        <ele>194</ele>
        <time>2020-07-07T18:09:38.000Z</time>
      </trkpt>
      <trkpt lat="43.61785" lon="3.70446">
        <ele>194</ele>
        <time>2020-07-07T18:09:39.000Z</time>
      </trkpt>
      <trkpt lat="43.61789" lon="3.70444">
        <ele>194</ele>
        <time>2020-07-07T18:09:40.000Z</time>
      </trkpt>
      <trkpt lat="43.61792" lon="3.70442">
        <ele>193.984</ele>
        <time>2020-07-07T18:09:41.000Z</time>
      </trkpt>
      <trkpt lat="43.61796" lon="3.70439">
        <ele>193.884</ele>
        <time>2020-07-07T18:09:42.000Z</time>
      </trkpt>
      <trkpt lat="43.61799" lon="3.70436">
        <ele>193.784</ele>
        <time>2020-07-07T18:09:43.000Z</time>
      </trkpt>
      <trkpt lat="43.61803" lon="3.70433">
        <ele>193.684</ele>
        <time>2020-07-07T18:09:44.000Z</time>
      </trkpt>
      <trkpt lat="43.61806" lon="3.7043">
        <ele>193.584</ele>
        <time>2020-07-07T18:09:45.000Z</time>
      </trkpt>
      <trkpt lat="43.6181" lon="3.70426">
        <ele>193.484</ele>
        <time>2020-07-07T18:09:46.000Z</time>
      </trkpt>
      <trkpt lat="43.61813" lon="3.70423">
        <ele>193.384</ele>
        <time>2020-07-07T18:09:47.000Z</time>
      </trkpt>
      <trkpt lat="43.61816" lon="3.70419">
        <ele>193.284</ele>
        <time>2020-07-07T18:09:48.000Z</time>
      </trkpt>
      <trkpt lat="43.61819" lon="3.70416">
        <ele>193.184</ele>
        <time>2020-07-07T18:09:49.000Z</time>
      </trkpt>
      <trkpt lat="43.61822" lon="3.70412">
        <ele>193.084</ele>
        <time>2020-07-07T18:09:50.000Z</time>
      </trkpt>
      <trkpt lat="43.61825" lon="3.70408">
        <ele>192.984</ele>
        <time>2020-07-07T18:09:51.000Z</time>
      </trkpt>
      <trkpt lat="43.61827" lon="3.70404">
        <ele>192.884</ele>
        <time>2020-07-07T18:09:52.000Z</time>
      </trkpt>
      <trkpt lat="43.6183" lon="3.704">
        <ele>192.784</ele>
        <time>2020-07-07T18:09:53.000Z</time>
      </trkpt>
      <trkpt lat="43.61833" lon="3.70396">
        <ele>192.684</ele>
        <time>2020-07-07T18:09:54.000Z</time>
      </trkpt>
      <trkpt lat="43.61835" lon="3.70392">
        <ele>192.584</ele>
        <time>2020-07-07T18:09:55.000Z</time>
      </trkpt>
      <trkpt lat="43.61838" lon="3.70388">
        <ele>192.484</ele>
        <time>2020-07-07T18:09:56.000Z</time>
      </trkpt>
      <trkpt lat="43.61841" lon="3.70384">
        <ele>192.384</ele>
        <time>2020-07-07T18:09:57.000Z</time>
      </trkpt>
      <trkpt lat="43.61844" lon="3.70379">
        <ele>192.284</ele>
        <time>2020-07-07T18:09:58.000Z</time>
      </trkpt>
      <trkpt lat="43.61847" lon="3.70375">
        <ele>192.184</ele>
        <time>2020-07-07T18:09:59.000Z</time>
      </trkpt>
      <trkpt lat="43.6185" lon="3.70371">
        <ele>192.084</ele>
        <time>2020-07-07T18:10:00.000Z</time>
      </trkpt>
      <trkpt lat="43.61853" lon="3.70367">
        <ele>191.98423645817</ele>
        <time>2020-07-07T18:10:01.000Z</time>
      </trkpt>
      <trkpt lat="43.61855" lon="3.70362">
        <ele>191.88571432175</ele>
        <time>2020-07-07T18:10:02.000Z</time>
      </trkpt>
      <trkpt lat="43.61858" lon="3.70358">
        <ele>191.78719218532</ele>
        <time>2020-07-07T18:10:03.000Z</time>
      </trkpt>
      <trkpt lat="43.61861" lon="3.70354">
        <ele>191.68867004889</ele>
        <time>2020-07-07T18:10:04.000Z</time>
      </trkpt>
      <trkpt lat="43.61863" lon="3.70349">
        <ele>191.59014791247</ele>
        <time>2020-07-07T18:10:05.000Z</time>
      </trkpt>
      <trkpt lat="43.61866" lon="3.70345">
        <ele>191.49162577604</ele>
        <time>2020-07-07T18:10:06.000Z</time>
      </trkpt>
      <trkpt lat="43.61868" lon="3.7034">
        <ele>191.39310363961</ele>
        <time>2020-07-07T18:10:07.000Z</time>
      </trkpt>
      <trkpt lat="43.61871" lon="3.70334">
        <ele>191.29458150319</ele>
        <time>2020-07-07T18:10:08.000Z</time>
      </trkpt>
      <trkpt lat="43.61873" lon="3.70329">
        <ele>191.19605936676</ele>
        <time>2020-07-07T18:10:09.000Z</time>
      </trkpt>
      <trkpt lat="43.61876" lon="3.70323">
        <ele>191.09753723033</ele>
        <time>2020-07-07T18:10:10.000Z</time>
      </trkpt>
      <trkpt lat="43.61878" lon="3.70317">
        <ele>190.99797019223</ele>
        <time>2020-07-07T18:10:11.000Z</time>
      </trkpt>
      <trkpt lat="43.61881" lon="3.70312">
        <ele>190.79492444099</ele>
        <time>2020-07-07T18:10:12.000Z</time>
      </trkpt>
      <trkpt lat="43.61883" lon="3.70306">
        <ele>190.59187868975</ele>
        <time>2020-07-07T18:10:13.000Z</time>
      </trkpt>
      <trkpt lat="43.61886" lon="3.70301">
        <ele>190.3888329385</ele>
        <time>2020-07-07T18:10:14.000Z</time>
      </trkpt>
      <trkpt lat="43.61888" lon="3.70295">
        <ele>190.18578718726</ele>
        <time>2020-07-07T18:10:15.000Z</time>
      </trkpt>
      <trkpt lat="43.6189" lon="3.70289">
        <ele>189.98274143602</ele>
        <time>2020-07-07T18:10:16.000Z</time>
      </trkpt>
      <trkpt lat="43.61893" lon="3.70283">
        <ele>189.77969568477</ele>
        <time>2020-07-07T18:10:17.000Z</time>
      </trkpt>
      <trkpt lat="43.61896" lon="3.70276">
        <ele>189.57664993353</ele>
        <time>2020-07-07T18:10:18.000Z</time>
      </trkpt>
      <trkpt lat="43.61899" lon="3.70269">
        <ele>189.37360418229</ele>
        <time>2020-07-07T18:10:19.000Z</time>
      </trkpt>
      <trkpt lat="43.61902" lon="3.70262">
        <ele>189.17055843104</ele>
        <time>2020-07-07T18:10:20.000Z</time>
      </trkpt>
      <trkpt lat="43.61905" lon="3.70254">
        <ele>188.952</ele>
        <time>2020-07-07T18:10:21.000Z</time>
      </trkpt>
      <trkpt lat="43.61909" lon="3.70246">
        <ele>188.652</ele>
        <time>2020-07-07T18:10:22.000Z</time>
      </trkpt>
      <trkpt lat="43.61912" lon="3.70239">
        <ele>188.352</ele>
        <time>2020-07-07T18:10:23.000Z</time>
      </trkpt>
      <trkpt lat="43.61915" lon="3.70231">
        <ele>188.052</ele>
        <time>2020-07-07T18:10:24.000Z</time>
      </trkpt>
      <trkpt lat="43.61918" lon="3.70224">
        <ele>187.752</ele>
        <time>2020-07-07T18:10:25.000Z</time>
      </trkpt>
      <trkpt lat="43.61922" lon="3.70217">
        <ele>187.452</ele>
        <time>2020-07-07T18:10:26.000Z</time>
      </trkpt>
      <trkpt lat="43.61925" lon="3.7021">
        <ele>187.152</ele>
        <time>2020-07-07T18:10:27.000Z</time>
      </trkpt>
      <trkpt lat="43.61929" lon="3.70203">
        <ele>186.852</ele>
        <time>2020-07-07T18:10:28.000Z</time>
      </trkpt>
      <trkpt lat="43.61932" lon="3.70195">
        <ele>186.552</ele>
        <time>2020-07-07T18:10:29.000Z</time>
      </trkpt>
      <trkpt lat="43.61935" lon="3.70187">
        <ele>186.252</ele>
        <time>2020-07-07T18:10:30.000Z</time>
      </trkpt>
      <trkpt lat="43.61938" lon="3.70179">
        <ele>185.96881093563</ele>
        <time>2020-07-07T18:10:31.000Z</time>
      </trkpt>
      <trkpt lat="43.61941" lon="3.70171">
        <ele>185.77387928335</ele>
        <time>2020-07-07T18:10:32.000Z</time>
      </trkpt>
      <trkpt lat="43.61944" lon="3.70163">
        <ele>185.57894763107</ele>
        <time>2020-07-07T18:10:33.000Z</time>
      </trkpt>
      <trkpt lat="43.61948" lon="3.70156">
        <ele>185.38401597878</ele>
        <time>2020-07-07T18:10:34.000Z</time>
      </trkpt>
      <trkpt lat="43.61951" lon="3.70149">
        <ele>185.1890843265</ele>
        <time>2020-07-07T18:10:35.000Z</time>
      </trkpt>
      <trkpt lat="43.61954" lon="3.70142">
        <ele>184.99415267421</ele>
        <time>2020-07-07T18:10:36.000Z</time>
      </trkpt>
      <trkpt lat="43.61957" lon="3.70135">
        <ele>184.79922102193</ele>
        <time>2020-07-07T18:10:37.000Z</time>
      </trkpt>
      <trkpt lat="43.61959" lon="3.70128">
        <ele>184.60428936964</ele>
        <time>2020-07-07T18:10:38.000Z</time>
      </trkpt>
      <trkpt lat="43.61962" lon="3.70121">
        <ele>184.40935771736</ele>
        <time>2020-07-07T18:10:39.000Z</time>
      </trkpt>
      <trkpt lat="43.61965" lon="3.70114">
        <ele>184.21442606508</ele>
        <time>2020-07-07T18:10:40.000Z</time>
      </trkpt>
      <trkpt lat="43.61968" lon="3.70108">
        <ele>184.01949441279</ele>
        <time>2020-07-07T18:10:41.000Z</time>
      </trkpt>
      <trkpt lat="43.61971" lon="3.70101">
        <ele>183.8151962646</ele>
        <time>2020-07-07T18:10:42.000Z</time>
      </trkpt>
      <trkpt lat="43.61974" lon="3.70095">
        <ele>183.60985732065</ele>
        <time>2020-07-07T18:10:43.000Z</time>
      </trkpt>
      <trkpt lat="43.61977" lon="3.7009">
        <ele>183.40451837669</ele>
        <time>2020-07-07T18:10:44.000Z</time>
      </trkpt>
      <trkpt lat="43.61981" lon="3.70085">
        <ele>183.19917943273</ele>
        <time>2020-07-07T18:10:45.000Z</time>
      </trkpt>
      <trkpt lat="43.61984" lon="3.70081">
        <ele>182.99384048877</ele>
        <time>2020-07-07T18:10:46.000Z</time>
      </trkpt>
      <trkpt lat="43.61986" lon="3.70076">
        <ele>182.78850154481</ele>
        <time>2020-07-07T18:10:47.000Z</time>
      </trkpt>
      <trkpt lat="43.61988" lon="3.70071">
        <ele>182.58316260085</ele>
        <time>2020-07-07T18:10:48.000Z</time>
      </trkpt>
      <trkpt lat="43.61989" lon="3.70065">
        <ele>182.37782365689</ele>
        <time>2020-07-07T18:10:49.000Z</time>
      </trkpt>
      <trkpt lat="43.61991" lon="3.7006">
        <ele>182.17248471293</ele>
        <time>2020-07-07T18:10:50.000Z</time>
      </trkpt>
      <trkpt lat="43.61992" lon="3.70055">
        <ele>181.952</ele>
        <time>2020-07-07T18:10:51.000Z</time>
      </trkpt>
      <trkpt lat="43.61994" lon="3.70049">
        <ele>181.652</ele>
        <time>2020-07-07T18:10:52.000Z</time>
      </trkpt>
      <trkpt lat="43.61996" lon="3.70044">
        <ele>181.352</ele>
        <time>2020-07-07T18:10:53.000Z</time>
      </trkpt>
      <trkpt lat="43.61998" lon="3.70039">
        <ele>181.052</ele>
        <time>2020-07-07T18:10:54.000Z</time>
      </trkpt>
      <trkpt lat="43.61999" lon="3.70035">
        <ele>180.752</ele>
        <time>2020-07-07T18:10:55.000Z</time>
      </trkpt>
      <trkpt lat="43.62" lon="3.70031">
        <ele>180.452</ele>
        <time>2020-07-07T18:10:56.000Z</time>
      </trkpt>
      <trkpt lat="43.62001" lon="3.70029">
        <ele>180.152</ele>
        <time>2020-07-07T18:10:57.000Z</time>
      </trkpt>
      <trkpt lat="43.62003" lon="3.70027">
        <ele>179.852</ele>
        <time>2020-07-07T18:10:58.000Z</time>
      </trkpt>
      <trkpt lat="43.62005" lon="3.70027">
        <ele>179.552</ele>
        <time>2020-07-07T18:10:59.000Z</time>
      </trkpt>
      <trkpt lat="43.62007" lon="3.70027">
        <ele>179.252</ele>
        <time>2020-07-07T18:11:00.000Z</time>
      </trkpt>
      <trkpt lat="43.62009" lon="3.70028">
        <ele>178.968</ele>
        <time>2020-07-07T18:11:01.000Z</time>
      </trkpt>
      <trkpt lat="43.62012" lon="3.7003">
        <ele>178.768</ele>
        <time>2020-07-07T18:11:02.000Z</time>
      </trkpt>
      <trkpt lat="43.62016" lon="3.70032">
        <ele>178.568</ele>
        <time>2020-07-07T18:11:03.000Z</time>
      </trkpt>
      <trkpt lat="43.6202" lon="3.70033">
        <ele>178.368</ele>
        <time>2020-07-07T18:11:04.000Z</time>
      </trkpt>
      <trkpt lat="43.62025" lon="3.70035">
        <ele>178.168</ele>
        <time>2020-07-07T18:11:05.000Z</time>
      </trkpt>
      <trkpt lat="43.6203" lon="3.70035">
        <ele>177.968</ele>
        <time>2020-07-07T18:11:06.000Z</time>
      </trkpt>
      <trkpt lat="43.62035" lon="3.70034">
        <ele>177.768</ele>
        <time>2020-07-07T18:11:07.000Z</time>
      </trkpt>
      <trkpt lat="43.6204" lon="3.70032">
        <ele>177.568</ele>
        <time>2020-07-07T18:11:08.000Z</time>
      </trkpt>
      <trkpt lat="43.62045" lon="3.7003">
        <ele>177.368</ele>
        <time>2020-07-07T18:11:09.000Z</time>
      </trkpt>
      <trkpt lat="43.6205" lon="3.70027">
        <ele>177.168</ele>
        <time>2020-07-07T18:11:10.000Z</time>
      </trkpt>
      <trkpt lat="43.62056" lon="3.70025">
        <ele>176.952</ele>
        <time>2020-07-07T18:11:11.000Z</time>
      </trkpt>
      <trkpt lat="43.62061" lon="3.70023">
        <ele>176.652</ele>
        <time>2020-07-07T18:11:12.000Z</time>
      </trkpt>
      <trkpt lat="43.62067" lon="3.70021">
        <ele>176.352</ele>
        <time>2020-07-07T18:11:13.000Z</time>
      </trkpt>
      <trkpt lat="43.62072" lon="3.70019">
        <ele>176.052</ele>
        <time>2020-07-07T18:11:14.000Z</time>
      </trkpt>
      <trkpt lat="43.62079" lon="3.70018">
        <ele>175.752</ele>
        <time>2020-07-07T18:11:15.000Z</time>
      </trkpt>
      <trkpt lat="43.62085" lon="3.70016">
        <ele>175.452</ele>
        <time>2020-07-07T18:11:16.000Z</time>
      </trkpt>
      <trkpt lat="43.62092" lon="3.70014">
        <ele>175.152</ele>
        <time>2020-07-07T18:11:17.000Z</time>
      </trkpt>
      <trkpt lat="43.62098" lon="3.70012">
        <ele>174.852</ele>
        <time>2020-07-07T18:11:18.000Z</time>
      </trkpt>
      <trkpt lat="43.62105" lon="3.7001">
        <ele>174.552</ele>
        <time>2020-07-07T18:11:19.000Z</time>
      </trkpt>
      <trkpt lat="43.62111" lon="3.70008">
        <ele>174.252</ele>
        <time>2020-07-07T18:11:20.000Z</time>
      </trkpt>
      <trkpt lat="43.62117" lon="3.70006">
        <ele>173.952</ele>
        <time>2020-07-07T18:11:21.000Z</time>
      </trkpt>
      <trkpt lat="43.62123" lon="3.70002">
        <ele>173.652</ele>
        <time>2020-07-07T18:11:22.000Z</time>
      </trkpt>
      <trkpt lat="43.62129" lon="3.69999">
        <ele>173.352</ele>
        <time>2020-07-07T18:11:23.000Z</time>
      </trkpt>
      <trkpt lat="43.62135" lon="3.69996">
        <ele>173.052</ele>
        <time>2020-07-07T18:11:24.000Z</time>
      </trkpt>
      <trkpt lat="43.62142" lon="3.69993">
        <ele>172.752</ele>
        <time>2020-07-07T18:11:25.000Z</time>
      </trkpt>
      <trkpt lat="43.62148" lon="3.6999">
        <ele>172.452</ele>
        <time>2020-07-07T18:11:26.000Z</time>
      </trkpt>
      <trkpt lat="43.62155" lon="3.69987">
        <ele>172.152</ele>
        <time>2020-07-07T18:11:27.000Z</time>
      </trkpt>
      <trkpt lat="43.62161" lon="3.69985">
        <ele>171.852</ele>
        <time>2020-07-07T18:11:28.000Z</time>
      </trkpt>
      <trkpt lat="43.62168" lon="3.69982">
        <ele>171.552</ele>
        <time>2020-07-07T18:11:29.000Z</time>
      </trkpt>
      <trkpt lat="43.62174" lon="3.6998">
        <ele>171.252</ele>
        <time>2020-07-07T18:11:30.000Z</time>
      </trkpt>
      <trkpt lat="43.62181" lon="3.69977">
        <ele>170.96896218228</ele>
        <time>2020-07-07T18:11:31.000Z</time>
      </trkpt>
      <trkpt lat="43.62187" lon="3.69975">
        <ele>170.77497582154</ele>
        <time>2020-07-07T18:11:32.000Z</time>
      </trkpt>
      <trkpt lat="43.62193" lon="3.69972">
        <ele>170.5809894608</ele>
        <time>2020-07-07T18:11:33.000Z</time>
      </trkpt>
      <trkpt lat="43.62199" lon="3.6997">
        <ele>170.38700310006</ele>
        <time>2020-07-07T18:11:34.000Z</time>
      </trkpt>
      <trkpt lat="43.62205" lon="3.69967">
        <ele>170.19301673932</ele>
        <time>2020-07-07T18:11:35.000Z</time>
      </trkpt>
      <trkpt lat="43.62211" lon="3.69965">
        <ele>169.99903037857</ele>
        <time>2020-07-07T18:11:36.000Z</time>
      </trkpt>
      <trkpt lat="43.62217" lon="3.69962">
        <ele>169.80504401783</ele>
        <time>2020-07-07T18:11:37.000Z</time>
      </trkpt>
      <trkpt lat="43.62223" lon="3.69959">
        <ele>169.61105765709</ele>
        <time>2020-07-07T18:11:38.000Z</time>
      </trkpt>
      <trkpt lat="43.62229" lon="3.69956">
        <ele>169.41707129635</ele>
        <time>2020-07-07T18:11:39.000Z</time>
      </trkpt>
      <trkpt lat="43.62234" lon="3.69954">
        <ele>169.22308493561</ele>
        <time>2020-07-07T18:11:40.000Z</time>
      </trkpt>
      <trkpt lat="43.6224" lon="3.69951">
        <ele>169.02909857487</ele>
        <time>2020-07-07T18:11:41.000Z</time>
      </trkpt>
      <trkpt lat="43.62246" lon="3.69948">
        <ele>168.91228100302</ele>
        <time>2020-07-07T18:11:42.000Z</time>
      </trkpt>
      <trkpt lat="43.62251" lon="3.69946">
        <ele>168.80908179454</ele>
        <time>2020-07-07T18:11:43.000Z</time>
      </trkpt>
      <trkpt lat="43.62256" lon="3.69943">
        <ele>168.70588258605</ele>
        <time>2020-07-07T18:11:44.000Z</time>
      </trkpt>
      <trkpt lat="43.62261" lon="3.6994">
        <ele>168.60268337756</ele>
        <time>2020-07-07T18:11:45.000Z</time>
      </trkpt>
      <trkpt lat="43.62266" lon="3.69938">
        <ele>168.49948416908</ele>
        <time>2020-07-07T18:11:46.000Z</time>
      </trkpt>
      <trkpt lat="43.62271" lon="3.69935">
        <ele>168.39628496059</ele>
        <time>2020-07-07T18:11:47.000Z</time>
      </trkpt>
      <trkpt lat="43.62275" lon="3.69933">
        <ele>168.2930857521</ele>
        <time>2020-07-07T18:11:48.000Z</time>
      </trkpt>
      <trkpt lat="43.6228" lon="3.69931">
        <ele>168.18988654362</ele>
        <time>2020-07-07T18:11:49.000Z</time>
      </trkpt>
      <trkpt lat="43.62284" lon="3.69929">
        <ele>168.08668733513</ele>
        <time>2020-07-07T18:11:50.000Z</time>
      </trkpt>
      <trkpt lat="43.62288" lon="3.69927">
        <ele>167.98448109114</ele>
        <time>2020-07-07T18:11:51.000Z</time>
      </trkpt>
      <trkpt lat="43.62293" lon="3.69925">
        <ele>167.88748791077</ele>
        <time>2020-07-07T18:11:52.000Z</time>
      </trkpt>
      <trkpt lat="43.62297" lon="3.69924">
        <ele>167.7904947304</ele>
        <time>2020-07-07T18:11:53.000Z</time>
      </trkpt>
      <trkpt lat="43.62302" lon="3.69922">
        <ele>167.69350155003</ele>
        <time>2020-07-07T18:11:54.000Z</time>
      </trkpt>
      <trkpt lat="43.62306" lon="3.69921">
        <ele>167.59650836966</ele>
        <time>2020-07-07T18:11:55.000Z</time>
      </trkpt>
      <trkpt lat="43.62311" lon="3.6992">
        <ele>167.49951518929</ele>
        <time>2020-07-07T18:11:56.000Z</time>
      </trkpt>
      <trkpt lat="43.62315" lon="3.69919">
        <ele>167.40252200892</ele>
        <time>2020-07-07T18:11:57.000Z</time>
      </trkpt>
      <trkpt lat="43.6232" lon="3.69919">
        <ele>167.30552882855</ele>
        <time>2020-07-07T18:11:58.000Z</time>
      </trkpt>
      <trkpt lat="43.62325" lon="3.69919">
        <ele>167.20853564818</ele>
        <time>2020-07-07T18:11:59.000Z</time>
      </trkpt>
      <trkpt lat="43.6233" lon="3.69919">
        <ele>167.1115424678</ele>
        <time>2020-07-07T18:12:00.000Z</time>
      </trkpt>
      <trkpt lat="43.62335" lon="3.69919">
        <ele>167.01454928743</ele>
        <time>2020-07-07T18:12:01.000Z</time>
      </trkpt>
      <trkpt lat="43.62341" lon="3.69918">
        <ele>166.64984695371</ele>
        <time>2020-07-07T18:12:02.000Z</time>
      </trkpt>
      <trkpt lat="43.62346" lon="3.69918">
        <ele>166.2379006425</ele>
        <time>2020-07-07T18:12:03.000Z</time>
      </trkpt>
      <trkpt lat="43.62352" lon="3.69916">
        <ele>165.8259543313</ele>
        <time>2020-07-07T18:12:04.000Z</time>
      </trkpt>
      <trkpt lat="43.62358" lon="3.69914">
        <ele>165.4140080201</ele>
        <time>2020-07-07T18:12:05.000Z</time>
      </trkpt>
      <trkpt lat="43.62365" lon="3.69911">
        <ele>165.0020617089</ele>
        <time>2020-07-07T18:12:06.000Z</time>
      </trkpt>
      <trkpt lat="43.62371" lon="3.69907">
        <ele>164.5901153977</ele>
        <time>2020-07-07T18:12:07.000Z</time>
      </trkpt>
      <trkpt lat="43.62378" lon="3.69903">
        <ele>164.17816908649</ele>
        <time>2020-07-07T18:12:08.000Z</time>
      </trkpt>
      <trkpt lat="43.62385" lon="3.69899">
        <ele>163.76622277529</ele>
        <time>2020-07-07T18:12:09.000Z</time>
      </trkpt>
      <trkpt lat="43.62393" lon="3.69896">
        <ele>163.35427646409</ele>
        <time>2020-07-07T18:12:10.000Z</time>
      </trkpt>
      <trkpt lat="43.62401" lon="3.69894">
        <ele>162.9438903047</ele>
        <time>2020-07-07T18:12:11.000Z</time>
      </trkpt>
      <trkpt lat="43.6241" lon="3.69891">
        <ele>162.54308844447</ele>
        <time>2020-07-07T18:12:12.000Z</time>
      </trkpt>
      <trkpt lat="43.62418" lon="3.69888">
        <ele>162.14228658423</ele>
        <time>2020-07-07T18:12:13.000Z</time>
      </trkpt>
      <trkpt lat="43.62426" lon="3.69885">
        <ele>161.741484724</ele>
        <time>2020-07-07T18:12:14.000Z</time>
      </trkpt>
      <trkpt lat="43.62433" lon="3.69881">
        <ele>161.34068286377</ele>
        <time>2020-07-07T18:12:15.000Z</time>
      </trkpt>
      <trkpt lat="43.6244" lon="3.69878">
        <ele>160.93988100353</ele>
        <time>2020-07-07T18:12:16.000Z</time>
      </trkpt>
      <trkpt lat="43.62446" lon="3.69875">
        <ele>160.5390791433</ele>
        <time>2020-07-07T18:12:17.000Z</time>
      </trkpt>
      <trkpt lat="43.62452" lon="3.69874">
        <ele>160.13827728306</ele>
        <time>2020-07-07T18:12:18.000Z</time>
      </trkpt>
      <trkpt lat="43.62457" lon="3.69874">
        <ele>159.73747542283</ele>
        <time>2020-07-07T18:12:19.000Z</time>
      </trkpt>
      <trkpt lat="43.62463" lon="3.69875">
        <ele>159.3366735626</ele>
        <time>2020-07-07T18:12:20.000Z</time>
      </trkpt>
      <trkpt lat="43.62469" lon="3.69879">
        <ele>158.98445091839</ele>
        <time>2020-07-07T18:12:21.000Z</time>
      </trkpt>
      <trkpt lat="43.62474" lon="3.69882">
        <ele>158.88726915833</ele>
        <time>2020-07-07T18:12:22.000Z</time>
      </trkpt>
      <trkpt lat="43.62479" lon="3.69884">
        <ele>158.79008739828</ele>
        <time>2020-07-07T18:12:23.000Z</time>
      </trkpt>
      <trkpt lat="43.62482" lon="3.69885">
        <ele>158.69290563822</ele>
        <time>2020-07-07T18:12:24.000Z</time>
      </trkpt>
      <trkpt lat="43.62484" lon="3.69885">
        <ele>158.59572387816</ele>
        <time>2020-07-07T18:12:25.000Z</time>
      </trkpt>
      <trkpt lat="43.62486" lon="3.69885">
        <ele>158.49854211811</ele>
        <time>2020-07-07T18:12:26.000Z</time>
      </trkpt>
      <trkpt lat="43.62488" lon="3.69887">
        <ele>158.40136035805</ele>
        <time>2020-07-07T18:12:27.000Z</time>
      </trkpt>
      <trkpt lat="43.6249" lon="3.6989">
        <ele>158.30417859799</ele>
        <time>2020-07-07T18:12:28.000Z</time>
      </trkpt>
      <trkpt lat="43.62491" lon="3.69894">
        <ele>158.20699683794</ele>
        <time>2020-07-07T18:12:29.000Z</time>
      </trkpt>
      <trkpt lat="43.62493" lon="3.69899">
        <ele>158.10981507788</ele>
        <time>2020-07-07T18:12:30.000Z</time>
      </trkpt>
      <trkpt lat="43.62495" lon="3.69904">
        <ele>158.01263331783</ele>
        <time>2020-07-07T18:12:31.000Z</time>
      </trkpt>
      <trkpt lat="43.62497" lon="3.69908">
        <ele>158</ele>
        <time>2020-07-07T18:12:32.000Z</time>
      </trkpt>
      <trkpt lat="43.625" lon="3.69911">
        <ele>158</ele>
        <time>2020-07-07T18:12:33.000Z</time>
      </trkpt>
      <trkpt lat="43.62502" lon="3.69913">
        <ele>158</ele>
        <time>2020-07-07T18:12:34.000Z</time>
      </trkpt>
      <trkpt lat="43.62505" lon="3.69916">
        <ele>158</ele>
        <time>2020-07-07T18:12:35.000Z</time>
      </trkpt>
      <trkpt lat="43.62508" lon="3.69918">
        <ele>158</ele>
        <time>2020-07-07T18:12:36.000Z</time>
      </trkpt>
      <trkpt lat="43.6251" lon="3.69922">
        <ele>158</ele>
        <time>2020-07-07T18:12:37.000Z</time>
      </trkpt>
      <trkpt lat="43.62511" lon="3.69926">
        <ele>158</ele>
        <time>2020-07-07T18:12:38.000Z</time>
      </trkpt>
      <trkpt lat="43.62512" lon="3.69929">
        <ele>158</ele>
        <time>2020-07-07T18:12:39.000Z</time>
      </trkpt>
      <trkpt lat="43.62513" lon="3.69933">
        <ele>158</ele>
        <time>2020-07-07T18:12:40.000Z</time>
      </trkpt>
      <trkpt lat="43.62514" lon="3.69937">
        <ele>158</ele>
        <time>2020-07-07T18:12:41.000Z</time>
      </trkpt>
      <trkpt lat="43.62517" lon="3.69941">
        <ele>158</ele>
        <time>2020-07-07T18:12:42.000Z</time>
      </trkpt>
      <trkpt lat="43.62519" lon="3.69944">
        <ele>158</ele>
        <time>2020-07-07T18:12:43.000Z</time>
      </trkpt>
      <trkpt lat="43.62522" lon="3.69948">
        <ele>158</ele>
        <time>2020-07-07T18:12:44.000Z</time>
      </trkpt>
      <trkpt lat="43.62524" lon="3.69951">
        <ele>158</ele>
        <time>2020-07-07T18:12:45.000Z</time>
      </trkpt>
      <trkpt lat="43.62526" lon="3.69955">
        <ele>158</ele>
        <time>2020-07-07T18:12:46.000Z</time>
      </trkpt>
      <trkpt lat="43.62528" lon="3.69959">
        <ele>158</ele>
        <time>2020-07-07T18:12:47.000Z</time>
      </trkpt>
      <trkpt lat="43.6253" lon="3.69963">
        <ele>158</ele>
        <time>2020-07-07T18:12:48.000Z</time>
      </trkpt>
      <trkpt lat="43.62532" lon="3.69967">
        <ele>158</ele>
        <time>2020-07-07T18:12:49.000Z</time>
      </trkpt>
      <trkpt lat="43.62534" lon="3.6997">
        <ele>158</ele>
        <time>2020-07-07T18:12:50.000Z</time>
      </trkpt>
      <trkpt lat="43.62537" lon="3.69973">
        <ele>158</ele>
        <time>2020-07-07T18:12:51.000Z</time>
      </trkpt>
      <trkpt lat="43.62539" lon="3.69975">
        <ele>158</ele>
        <time>2020-07-07T18:12:52.000Z</time>
      </trkpt>
      <trkpt lat="43.62541" lon="3.69978">
        <ele>158</ele>
        <time>2020-07-07T18:12:53.000Z</time>
      </trkpt>
      <trkpt lat="43.62544" lon="3.69981">
        <ele>158</ele>
        <time>2020-07-07T18:12:54.000Z</time>
      </trkpt>
      <trkpt lat="43.62546" lon="3.69985">
        <ele>158</ele>
        <time>2020-07-07T18:12:55.000Z</time>
      </trkpt>
      <trkpt lat="43.62548" lon="3.69988">
        <ele>158</ele>
        <time>2020-07-07T18:12:56.000Z</time>
      </trkpt>
      <trkpt lat="43.62551" lon="3.69992">
        <ele>158</ele>
        <time>2020-07-07T18:12:57.000Z</time>
      </trkpt>
      <trkpt lat="43.62553" lon="3.69997">
        <ele>158</ele>
        <time>2020-07-07T18:12:58.000Z</time>
      </trkpt>
      <trkpt lat="43.62555" lon="3.70001">
        <ele>158</ele>
        <time>2020-07-07T18:12:59.000Z</time>
      </trkpt>
      <trkpt lat="43.62558" lon="3.70006">
        <ele>158</ele>
        <time>2020-07-07T18:13:00.000Z</time>
      </trkpt>
      <trkpt lat="43.6256" lon="3.7001">
        <ele>157.968</ele>
        <time>2020-07-07T18:13:01.000Z</time>
      </trkpt>
      <trkpt lat="43.62563" lon="3.70015">
        <ele>157.768</ele>
        <time>2020-07-07T18:13:02.000Z</time>
      </trkpt>
      <trkpt lat="43.62566" lon="3.70019">
        <ele>157.568</ele>
        <time>2020-07-07T18:13:03.000Z</time>
      </trkpt>
      <trkpt lat="43.62569" lon="3.70024">
        <ele>157.368</ele>
        <time>2020-07-07T18:13:04.000Z</time>
      </trkpt>
      <trkpt lat="43.62572" lon="3.70028">
        <ele>157.168</ele>
        <time>2020-07-07T18:13:05.000Z</time>
      </trkpt>
      <trkpt lat="43.62575" lon="3.70033">
        <ele>156.968</ele>
        <time>2020-07-07T18:13:06.000Z</time>
      </trkpt>
      <trkpt lat="43.62578" lon="3.70037">
        <ele>156.768</ele>
        <time>2020-07-07T18:13:07.000Z</time>
      </trkpt>
      <trkpt lat="43.62582" lon="3.70041">
        <ele>156.568</ele>
        <time>2020-07-07T18:13:08.000Z</time>
      </trkpt>
      <trkpt lat="43.62585" lon="3.70047">
        <ele>156.368</ele>
        <time>2020-07-07T18:13:09.000Z</time>
      </trkpt>
      <trkpt lat="43.62588" lon="3.70053">
        <ele>156.168</ele>
        <time>2020-07-07T18:13:10.000Z</time>
      </trkpt>
      <trkpt lat="43.62591" lon="3.70058">
        <ele>155.984</ele>
        <time>2020-07-07T18:13:11.000Z</time>
      </trkpt>
      <trkpt lat="43.62595" lon="3.70063">
        <ele>155.884</ele>
        <time>2020-07-07T18:13:12.000Z</time>
      </trkpt>
      <trkpt lat="43.62599" lon="3.70067">
        <ele>155.784</ele>
        <time>2020-07-07T18:13:13.000Z</time>
      </trkpt>
      <trkpt lat="43.62603" lon="3.7007">
        <ele>155.684</ele>
        <time>2020-07-07T18:13:14.000Z</time>
      </trkpt>
      <trkpt lat="43.62608" lon="3.70072">
        <ele>155.584</ele>
        <time>2020-07-07T18:13:15.000Z</time>
      </trkpt>
      <trkpt lat="43.62612" lon="3.70072">
        <ele>155.484</ele>
        <time>2020-07-07T18:13:16.000Z</time>
      </trkpt>
      <trkpt lat="43.62614" lon="3.70072">
        <ele>155.384</ele>
        <time>2020-07-07T18:13:17.000Z</time>
      </trkpt>
      <trkpt lat="43.62615" lon="3.70074">
        <ele>154.99702476191</ele>
        <time>2020-07-07T18:13:24.000Z</time>
      </trkpt>
      <trkpt lat="43.62622" lon="3.70082">
        <ele>154.10416761905</ele>
        <time>2020-07-07T18:13:27.000Z</time>
      </trkpt>
      <trkpt lat="43.62625" lon="3.70085">
        <ele>153.93248945148</ele>
        <time>2020-07-07T18:13:28.000Z</time>
      </trkpt>
      <trkpt lat="43.62628" lon="3.70085">
        <ele>153.61603375527</ele>
        <time>2020-07-07T18:13:31.000Z</time>
      </trkpt>
      <trkpt lat="43.6263" lon="3.70085">
        <ele>153.51054852321</ele>
        <time>2020-07-07T18:13:32.000Z</time>
      </trkpt>
      <trkpt lat="43.62632" lon="3.70085">
        <ele>153</ele>
        <time>2020-07-07T18:13:37.000Z</time>
      </trkpt>
      <trkpt lat="43.62633" lon="3.70084">
        <ele>153</ele>
        <time>2020-07-07T18:13:39.000Z</time>
      </trkpt>
      <trkpt lat="43.62635" lon="3.70085">
        <ele>152.99898509612</ele>
        <time>2020-07-07T18:13:41.000Z</time>
      </trkpt>
      <trkpt lat="43.62636" lon="3.70085">
        <ele>152.89746222049</ele>
        <time>2020-07-07T18:13:42.000Z</time>
      </trkpt>
      <trkpt lat="43.62638" lon="3.70085">
        <ele>152.69441646925</ele>
        <time>2020-07-07T18:13:44.000Z</time>
      </trkpt>
      <trkpt lat="43.62641" lon="3.70085">
        <ele>152.38984784239</ele>
        <time>2020-07-07T18:13:47.000Z</time>
      </trkpt>
      <trkpt lat="43.62644" lon="3.70087">
        <ele>152.18680209114</ele>
        <time>2020-07-07T18:13:49.000Z</time>
      </trkpt>
      <trkpt lat="43.62645" lon="3.70088">
        <ele>152.08527921552</ele>
        <time>2020-07-07T18:13:50.000Z</time>
      </trkpt>
      <trkpt lat="43.62647" lon="3.7009">
        <ele>151.98443579766</ele>
        <time>2020-07-07T18:13:51.000Z</time>
      </trkpt>
      <trkpt lat="43.6265" lon="3.70093">
        <ele>151.88715953307</ele>
        <time>2020-07-07T18:13:52.000Z</time>
      </trkpt>
      <trkpt lat="43.62652" lon="3.70096">
        <ele>151.78988326848</ele>
        <time>2020-07-07T18:13:53.000Z</time>
      </trkpt>
      <trkpt lat="43.62654" lon="3.70099">
        <ele>151.69260700389</ele>
        <time>2020-07-07T18:13:54.000Z</time>
      </trkpt>
      <trkpt lat="43.62657" lon="3.70101">
        <ele>151.5953307393</ele>
        <time>2020-07-07T18:13:55.000Z</time>
      </trkpt>
      <trkpt lat="43.62659" lon="3.70104">
        <ele>151.49805447471</ele>
        <time>2020-07-07T18:13:56.000Z</time>
      </trkpt>
      <trkpt lat="43.62662" lon="3.70107">
        <ele>151.40077821012</ele>
        <time>2020-07-07T18:13:57.000Z</time>
      </trkpt>
      <trkpt lat="43.62664" lon="3.7011">
        <ele>151.30350194552</ele>
        <time>2020-07-07T18:13:58.000Z</time>
      </trkpt>
      <trkpt lat="43.62667" lon="3.70113">
        <ele>151.20622568093</ele>
        <time>2020-07-07T18:13:59.000Z</time>
      </trkpt>
      <trkpt lat="43.62669" lon="3.70115">
        <ele>151.10894941634</ele>
        <time>2020-07-07T18:14:00.000Z</time>
      </trkpt>
      <trkpt lat="43.62671" lon="3.70118">
        <ele>151.01167315175</ele>
        <time>2020-07-07T18:14:01.000Z</time>
      </trkpt>
      <trkpt lat="43.62673" lon="3.70121">
        <ele>150.81893004115</ele>
        <time>2020-07-07T18:14:02.000Z</time>
      </trkpt>
      <trkpt lat="43.62674" lon="3.70124">
        <ele>150.61316872428</ele>
        <time>2020-07-07T18:14:03.000Z</time>
      </trkpt>
      <trkpt lat="43.62676" lon="3.70126">
        <ele>150.40740740741</ele>
        <time>2020-07-07T18:14:04.000Z</time>
      </trkpt>
      <trkpt lat="43.62678" lon="3.70129">
        <ele>150.20164609054</ele>
        <time>2020-07-07T18:14:05.000Z</time>
      </trkpt>
      <trkpt lat="43.62681" lon="3.70131">
        <ele>149.99588477366</ele>
        <time>2020-07-07T18:14:06.000Z</time>
      </trkpt>
      <trkpt lat="43.62684" lon="3.70134">
        <ele>149.79012345679</ele>
        <time>2020-07-07T18:14:07.000Z</time>
      </trkpt>
      <trkpt lat="43.62686" lon="3.70137">
        <ele>149.58436213992</ele>
        <time>2020-07-07T18:14:08.000Z</time>
      </trkpt>
      <trkpt lat="43.62687" lon="3.70141">
        <ele>149.37860082304</ele>
        <time>2020-07-07T18:14:09.000Z</time>
      </trkpt>
      <trkpt lat="43.62687" lon="3.70145">
        <ele>149.17283950617</ele>
        <time>2020-07-07T18:14:10.000Z</time>
      </trkpt>
      <trkpt lat="43.62686" lon="3.7015">
        <ele>149</ele>
        <time>2020-07-07T18:14:11.000Z</time>
      </trkpt>
      <trkpt lat="43.62685" lon="3.70155">
        <ele>149</ele>
        <time>2020-07-07T18:14:12.000Z</time>
      </trkpt>
      <trkpt lat="43.62684" lon="3.70161">
        <ele>149</ele>
        <time>2020-07-07T18:14:13.000Z</time>
      </trkpt>
      <trkpt lat="43.62684" lon="3.70167">
        <ele>149</ele>
        <time>2020-07-07T18:14:14.000Z</time>
      </trkpt>
      <trkpt lat="43.62682" lon="3.70173">
        <ele>149</ele>
        <time>2020-07-07T18:14:15.000Z</time>
      </trkpt>
      <trkpt lat="43.62681" lon="3.7018">
        <ele>149</ele>
        <time>2020-07-07T18:14:16.000Z</time>
      </trkpt>
      <trkpt lat="43.6268" lon="3.70187">
        <ele>149</ele>
        <time>2020-07-07T18:14:17.000Z</time>
      </trkpt>
      <trkpt lat="43.62679" lon="3.70193">
        <ele>149</ele>
        <time>2020-07-07T18:14:18.000Z</time>
      </trkpt>
      <trkpt lat="43.62678" lon="3.70199">
        <ele>149</ele>
        <time>2020-07-07T18:14:19.000Z</time>
      </trkpt>
      <trkpt lat="43.62676" lon="3.70205">
        <ele>149</ele>
        <time>2020-07-07T18:14:20.000Z</time>
      </trkpt>
      <trkpt lat="43.62675" lon="3.70212">
        <ele>149</ele>
        <time>2020-07-07T18:14:21.000Z</time>
      </trkpt>
      <trkpt lat="43.62674" lon="3.70218">
        <ele>149</ele>
        <time>2020-07-07T18:14:22.000Z</time>
      </trkpt>
      <trkpt lat="43.62672" lon="3.70224">
        <ele>149</ele>
        <time>2020-07-07T18:14:23.000Z</time>
      </trkpt>
      <trkpt lat="43.62671" lon="3.70229">
        <ele>149</ele>
        <time>2020-07-07T18:14:24.000Z</time>
      </trkpt>
      <trkpt lat="43.6267" lon="3.70235">
        <ele>149</ele>
        <time>2020-07-07T18:14:25.000Z</time>
      </trkpt>
      <trkpt lat="43.62669" lon="3.70241">
        <ele>149</ele>
        <time>2020-07-07T18:14:26.000Z</time>
      </trkpt>
      <trkpt lat="43.62668" lon="3.70246">
        <ele>149</ele>
        <time>2020-07-07T18:14:27.000Z</time>
      </trkpt>
      <trkpt lat="43.62667" lon="3.70252">
        <ele>149</ele>
        <time>2020-07-07T18:14:28.000Z</time>
      </trkpt>
      <trkpt lat="43.62666" lon="3.70257">
        <ele>149</ele>
        <time>2020-07-07T18:14:29.000Z</time>
      </trkpt>
      <trkpt lat="43.62665" lon="3.70263">
        <ele>149</ele>
        <time>2020-07-07T18:14:30.000Z</time>
      </trkpt>
      <trkpt lat="43.62664" lon="3.70268">
        <ele>149</ele>
        <time>2020-07-07T18:14:31.000Z</time>
      </trkpt>
      <trkpt lat="43.62663" lon="3.70273">
        <ele>149</ele>
        <time>2020-07-07T18:14:32.000Z</time>
      </trkpt>
      <trkpt lat="43.62662" lon="3.70279">
        <ele>149</ele>
        <time>2020-07-07T18:14:33.000Z</time>
      </trkpt>
      <trkpt lat="43.6266" lon="3.70284">
        <ele>149</ele>
        <time>2020-07-07T18:14:34.000Z</time>
      </trkpt>
      <trkpt lat="43.62659" lon="3.70289">
        <ele>149</ele>
        <time>2020-07-07T18:14:35.000Z</time>
      </trkpt>
      <trkpt lat="43.62658" lon="3.70295">
        <ele>149</ele>
        <time>2020-07-07T18:14:36.000Z</time>
      </trkpt>
      <trkpt lat="43.62657" lon="3.703">
        <ele>149</ele>
        <time>2020-07-07T18:14:37.000Z</time>
      </trkpt>
      <trkpt lat="43.62656" lon="3.70305">
        <ele>149</ele>
        <time>2020-07-07T18:14:38.000Z</time>
      </trkpt>
      <trkpt lat="43.62656" lon="3.70311">
        <ele>149</ele>
        <time>2020-07-07T18:14:39.000Z</time>
      </trkpt>
      <trkpt lat="43.62655" lon="3.70317">
        <ele>149</ele>
        <time>2020-07-07T18:14:40.000Z</time>
      </trkpt>
      <trkpt lat="43.62654" lon="3.70322">
        <ele>149.01556420234</ele>
        <time>2020-07-07T18:14:41.000Z</time>
      </trkpt>
      <trkpt lat="43.62654" lon="3.70328">
        <ele>149.11284046693</ele>
        <time>2020-07-07T18:14:42.000Z</time>
      </trkpt>
      <trkpt lat="43.62653" lon="3.70333">
        <ele>149.21011673152</ele>
        <time>2020-07-07T18:14:43.000Z</time>
      </trkpt>
      <trkpt lat="43.62652" lon="3.70338">
        <ele>149.30739299611</ele>
        <time>2020-07-07T18:14:44.000Z</time>
      </trkpt>
      <trkpt lat="43.6265" lon="3.70342">
        <ele>149.4046692607</ele>
        <time>2020-07-07T18:14:45.000Z</time>
      </trkpt>
      <trkpt lat="43.62648" lon="3.70347">
        <ele>149.50194552529</ele>
        <time>2020-07-07T18:14:46.000Z</time>
      </trkpt>
      <trkpt lat="43.62647" lon="3.70352">
        <ele>149.59922178988</ele>
        <time>2020-07-07T18:14:47.000Z</time>
      </trkpt>
      <trkpt lat="43.62646" lon="3.70357">
        <ele>149.69649805448</ele>
        <time>2020-07-07T18:14:48.000Z</time>
      </trkpt>
      <trkpt lat="43.62645" lon="3.70362">
        <ele>149.79377431907</ele>
        <time>2020-07-07T18:14:49.000Z</time>
      </trkpt>
      <trkpt lat="43.62644" lon="3.70367">
        <ele>149.89105058366</ele>
        <time>2020-07-07T18:14:50.000Z</time>
      </trkpt>
      <trkpt lat="43.62644" lon="3.70373">
        <ele>149.98832684825</ele>
        <time>2020-07-07T18:14:51.000Z</time>
      </trkpt>
      <trkpt lat="43.62643" lon="3.70377">
        <ele>150</ele>
        <time>2020-07-07T18:14:52.000Z</time>
      </trkpt>
      <trkpt lat="43.62642" lon="3.70382">
        <ele>150</ele>
        <time>2020-07-07T18:14:53.000Z</time>
      </trkpt>
      <trkpt lat="43.62641" lon="3.70386">
        <ele>150</ele>
        <time>2020-07-07T18:14:54.000Z</time>
      </trkpt>
      <trkpt lat="43.62639" lon="3.70391">
        <ele>150</ele>
        <time>2020-07-07T18:14:55.000Z</time>
      </trkpt>
      <trkpt lat="43.62638" lon="3.70396">
        <ele>150</ele>
        <time>2020-07-07T18:14:56.000Z</time>
      </trkpt>
      <trkpt lat="43.62638" lon="3.70401">
        <ele>150</ele>
        <time>2020-07-07T18:14:57.000Z</time>
      </trkpt>
      <trkpt lat="43.62637" lon="3.70405">
        <ele>150</ele>
        <time>2020-07-07T18:14:58.000Z</time>
      </trkpt>
      <trkpt lat="43.62637" lon="3.7041">
        <ele>150</ele>
        <time>2020-07-07T18:14:59.000Z</time>
      </trkpt>
      <trkpt lat="43.62637" lon="3.70415">
        <ele>150</ele>
        <time>2020-07-07T18:15:00.000Z</time>
      </trkpt>
      <trkpt lat="43.62636" lon="3.70419">
        <ele>150.032</ele>
        <time>2020-07-07T18:15:01.000Z</time>
      </trkpt>
      <trkpt lat="43.62635" lon="3.70424">
        <ele>150.232</ele>
        <time>2020-07-07T18:15:02.000Z</time>
      </trkpt>
      <trkpt lat="43.62635" lon="3.70428">
        <ele>150.432</ele>
        <time>2020-07-07T18:15:03.000Z</time>
      </trkpt>
      <trkpt lat="43.62634" lon="3.70433">
        <ele>150.632</ele>
        <time>2020-07-07T18:15:04.000Z</time>
      </trkpt>
      <trkpt lat="43.62633" lon="3.70438">
        <ele>150.832</ele>
        <time>2020-07-07T18:15:05.000Z</time>
      </trkpt>
      <trkpt lat="43.62632" lon="3.70443">
        <ele>151.032</ele>
        <time>2020-07-07T18:15:06.000Z</time>
      </trkpt>
      <trkpt lat="43.62632" lon="3.70447">
        <ele>151.232</ele>
        <time>2020-07-07T18:15:07.000Z</time>
      </trkpt>
      <trkpt lat="43.62631" lon="3.70452">
        <ele>151.432</ele>
        <time>2020-07-07T18:15:08.000Z</time>
      </trkpt>
      <trkpt lat="43.6263" lon="3.70457">
        <ele>151.632</ele>
        <time>2020-07-07T18:15:09.000Z</time>
      </trkpt>
      <trkpt lat="43.62629" lon="3.70461">
        <ele>151.832</ele>
        <time>2020-07-07T18:15:10.000Z</time>
      </trkpt>
      <trkpt lat="43.62628" lon="3.70466">
        <ele>152</ele>
        <time>2020-07-07T18:15:11.000Z</time>
      </trkpt>
      <trkpt lat="43.62627" lon="3.7047">
        <ele>152</ele>
        <time>2020-07-07T18:15:12.000Z</time>
      </trkpt>
      <trkpt lat="43.62626" lon="3.70474">
        <ele>152</ele>
        <time>2020-07-07T18:15:13.000Z</time>
      </trkpt>
      <trkpt lat="43.62625" lon="3.70478">
        <ele>152</ele>
        <time>2020-07-07T18:15:14.000Z</time>
      </trkpt>
      <trkpt lat="43.62623" lon="3.70482">
        <ele>152</ele>
        <time>2020-07-07T18:15:15.000Z</time>
      </trkpt>
      <trkpt lat="43.62622" lon="3.70486">
        <ele>152</ele>
        <time>2020-07-07T18:15:16.000Z</time>
      </trkpt>
      <trkpt lat="43.62622" lon="3.70488">
        <ele>152</ele>
        <time>2020-07-07T18:15:17.000Z</time>
      </trkpt>
      <trkpt lat="43.62621" lon="3.70491">
        <ele>152</ele>
        <time>2020-07-07T18:15:18.000Z</time>
      </trkpt>
      <trkpt lat="43.6262" lon="3.70495">
        <ele>152</ele>
        <time>2020-07-07T18:15:20.000Z</time>
      </trkpt>
      <trkpt lat="43.62619" lon="3.70498">
        <ele>152.116</ele>
        <time>2020-07-07T18:15:22.000Z</time>
      </trkpt>
      <trkpt lat="43.62619" lon="3.70501">
        <ele>152.316</ele>
        <time>2020-07-07T18:15:24.000Z</time>
      </trkpt>
      <trkpt lat="43.62622" lon="3.70501">
        <ele>152.516</ele>
        <time>2020-07-07T18:15:26.000Z</time>
      </trkpt>
      <trkpt lat="43.62624" lon="3.70501">
        <ele>152.616</ele>
        <time>2020-07-07T18:15:27.000Z</time>
      </trkpt>
      <trkpt lat="43.62626" lon="3.70499">
        <ele>152.716</ele>
        <time>2020-07-07T18:15:28.000Z</time>
      </trkpt>
      <trkpt lat="43.62629" lon="3.70498">
        <ele>152.816</ele>
        <time>2020-07-07T18:15:29.000Z</time>
      </trkpt>
      <trkpt lat="43.62632" lon="3.70497">
        <ele>152.916</ele>
        <time>2020-07-07T18:15:30.000Z</time>
      </trkpt>
      <trkpt lat="43.62635" lon="3.70496">
        <ele>153</ele>
        <time>2020-07-07T18:15:31.000Z</time>
      </trkpt>
      <trkpt lat="43.62638" lon="3.70495">
        <ele>153</ele>
        <time>2020-07-07T18:15:32.000Z</time>
      </trkpt>
      <trkpt lat="43.62641" lon="3.70494">
        <ele>153</ele>
        <time>2020-07-07T18:15:33.000Z</time>
      </trkpt>
      <trkpt lat="43.62644" lon="3.70492">
        <ele>153</ele>
        <time>2020-07-07T18:15:34.000Z</time>
      </trkpt>
      <trkpt lat="43.62647" lon="3.70491">
        <ele>153</ele>
        <time>2020-07-07T18:15:35.000Z</time>
      </trkpt>
      <trkpt lat="43.6265" lon="3.70489">
        <ele>153</ele>
        <time>2020-07-07T18:15:36.000Z</time>
      </trkpt>
      <trkpt lat="43.62653" lon="3.70487">
        <ele>153</ele>
        <time>2020-07-07T18:15:37.000Z</time>
      </trkpt>
      <trkpt lat="43.62656" lon="3.70484">
        <ele>153</ele>
        <time>2020-07-07T18:15:38.000Z</time>
      </trkpt>
      <trkpt lat="43.62659" lon="3.70482">
        <ele>153</ele>
        <time>2020-07-07T18:15:39.000Z</time>
      </trkpt>
      <trkpt lat="43.62663" lon="3.70479">
        <ele>153</ele>
        <time>2020-07-07T18:15:40.000Z</time>
      </trkpt>
      <trkpt lat="43.62666" lon="3.70477">
        <ele>153</ele>
        <time>2020-07-07T18:15:41.000Z</time>
      </trkpt>
      <trkpt lat="43.6267" lon="3.70475">
        <ele>153</ele>
        <time>2020-07-07T18:15:42.000Z</time>
      </trkpt>
      <trkpt lat="43.62673" lon="3.70473">
        <ele>153</ele>
        <time>2020-07-07T18:15:43.000Z</time>
      </trkpt>
      <trkpt lat="43.62677" lon="3.70471">
        <ele>153</ele>
        <time>2020-07-07T18:15:44.000Z</time>
      </trkpt>
      <trkpt lat="43.6268" lon="3.70468">
        <ele>153</ele>
        <time>2020-07-07T18:15:45.000Z</time>
      </trkpt>
      <trkpt lat="43.62684" lon="3.70466">
        <ele>153</ele>
        <time>2020-07-07T18:15:46.000Z</time>
      </trkpt>
      <trkpt lat="43.62687" lon="3.70464">
        <ele>153</ele>
        <time>2020-07-07T18:15:47.000Z</time>
      </trkpt>
      <trkpt lat="43.62691" lon="3.70461">
        <ele>153</ele>
        <time>2020-07-07T18:15:48.000Z</time>
      </trkpt>
      <trkpt lat="43.62694" lon="3.70459">
        <ele>153</ele>
        <time>2020-07-07T18:15:49.000Z</time>
      </trkpt>
      <trkpt lat="43.62698" lon="3.70457">
        <ele>153</ele>
        <time>2020-07-07T18:15:50.000Z</time>
      </trkpt>
      <trkpt lat="43.62701" lon="3.70454">
        <ele>153</ele>
        <time>2020-07-07T18:15:51.000Z</time>
      </trkpt>
      <trkpt lat="43.62704" lon="3.70452">
        <ele>153</ele>
        <time>2020-07-07T18:15:52.000Z</time>
      </trkpt>
      <trkpt lat="43.62707" lon="3.7045">
        <ele>153</ele>
        <time>2020-07-07T18:15:53.000Z</time>
      </trkpt>
      <trkpt lat="43.6271" lon="3.70448">
        <ele>153</ele>
        <time>2020-07-07T18:15:54.000Z</time>
      </trkpt>
      <trkpt lat="43.62714" lon="3.70446">
        <ele>153</ele>
        <time>2020-07-07T18:15:55.000Z</time>
      </trkpt>
      <trkpt lat="43.62717" lon="3.70444">
        <ele>153</ele>
        <time>2020-07-07T18:15:56.000Z</time>
      </trkpt>
      <trkpt lat="43.6272" lon="3.70442">
        <ele>153</ele>
        <time>2020-07-07T18:15:57.000Z</time>
      </trkpt>
      <trkpt lat="43.62724" lon="3.7044">
        <ele>153</ele>
        <time>2020-07-07T18:15:58.000Z</time>
      </trkpt>
      <trkpt lat="43.62728" lon="3.70438">
        <ele>153</ele>
        <time>2020-07-07T18:15:59.000Z</time>
      </trkpt>
      <trkpt lat="43.62731" lon="3.70436">
        <ele>153</ele>
        <time>2020-07-07T18:16:00.000Z</time>
      </trkpt>
      <trkpt lat="43.62735" lon="3.70434">
        <ele>152.984</ele>
        <time>2020-07-07T18:16:01.000Z</time>
      </trkpt>
      <trkpt lat="43.62738" lon="3.70432">
        <ele>152.884</ele>
        <time>2020-07-07T18:16:02.000Z</time>
      </trkpt>
      <trkpt lat="43.62742" lon="3.70429">
        <ele>152.784</ele>
        <time>2020-07-07T18:16:03.000Z</time>
      </trkpt>
      <trkpt lat="43.62745" lon="3.70427">
        <ele>152.684</ele>
        <time>2020-07-07T18:16:04.000Z</time>
      </trkpt>
      <trkpt lat="43.62749" lon="3.70424">
        <ele>152.584</ele>
        <time>2020-07-07T18:16:05.000Z</time>
      </trkpt>
      <trkpt lat="43.62752" lon="3.70422">
        <ele>152.484</ele>
        <time>2020-07-07T18:16:06.000Z</time>
      </trkpt>
      <trkpt lat="43.62756" lon="3.7042">
        <ele>152.384</ele>
        <time>2020-07-07T18:16:07.000Z</time>
      </trkpt>
      <trkpt lat="43.62759" lon="3.70417">
        <ele>152.284</ele>
        <time>2020-07-07T18:16:08.000Z</time>
      </trkpt>
      <trkpt lat="43.62763" lon="3.70415">
        <ele>152.184</ele>
        <time>2020-07-07T18:16:09.000Z</time>
      </trkpt>
      <trkpt lat="43.62766" lon="3.70413">
        <ele>152.084</ele>
        <time>2020-07-07T18:16:10.000Z</time>
      </trkpt>
      <trkpt lat="43.6277" lon="3.70411">
        <ele>152</ele>
        <time>2020-07-07T18:16:11.000Z</time>
      </trkpt>
      <trkpt lat="43.62774" lon="3.70409">
        <ele>152</ele>
        <time>2020-07-07T18:16:12.000Z</time>
      </trkpt>
      <trkpt lat="43.62778" lon="3.70406">
        <ele>152</ele>
        <time>2020-07-07T18:16:13.000Z</time>
      </trkpt>
      <trkpt lat="43.62782" lon="3.70404">
        <ele>152</ele>
        <time>2020-07-07T18:16:14.000Z</time>
      </trkpt>
      <trkpt lat="43.62786" lon="3.70401">
        <ele>152</ele>
        <time>2020-07-07T18:16:15.000Z</time>
      </trkpt>
      <trkpt lat="43.6279" lon="3.70399">
        <ele>152</ele>
        <time>2020-07-07T18:16:16.000Z</time>
      </trkpt>
      <trkpt lat="43.62794" lon="3.70396">
        <ele>152</ele>
        <time>2020-07-07T18:16:17.000Z</time>
      </trkpt>
      <trkpt lat="43.62798" lon="3.70394">
        <ele>152</ele>
        <time>2020-07-07T18:16:18.000Z</time>
      </trkpt>
      <trkpt lat="43.62802" lon="3.70391">
        <ele>152</ele>
        <time>2020-07-07T18:16:19.000Z</time>
      </trkpt>
      <trkpt lat="43.62807" lon="3.70388">
        <ele>152</ele>
        <time>2020-07-07T18:16:20.000Z</time>
      </trkpt>
      <trkpt lat="43.62811" lon="3.70386">
        <ele>151.96803195781</ele>
        <time>2020-07-07T18:16:21.000Z</time>
      </trkpt>
      <trkpt lat="43.62815" lon="3.70383">
        <ele>151.76823169414</ele>
        <time>2020-07-07T18:16:22.000Z</time>
      </trkpt>
      <trkpt lat="43.6282" lon="3.7038">
        <ele>151.56843143047</ele>
        <time>2020-07-07T18:16:23.000Z</time>
      </trkpt>
      <trkpt lat="43.62825" lon="3.70377">
        <ele>151.3686311668</ele>
        <time>2020-07-07T18:16:24.000Z</time>
      </trkpt>
      <trkpt lat="43.62829" lon="3.70375">
        <ele>151.16883090312</ele>
        <time>2020-07-07T18:16:25.000Z</time>
      </trkpt>
      <trkpt lat="43.62834" lon="3.70371">
        <ele>150.96903063945</ele>
        <time>2020-07-07T18:16:26.000Z</time>
      </trkpt>
      <trkpt lat="43.62839" lon="3.70368">
        <ele>150.76923037578</ele>
        <time>2020-07-07T18:16:27.000Z</time>
      </trkpt>
      <trkpt lat="43.62844" lon="3.70365">
        <ele>150.56943011211</ele>
        <time>2020-07-07T18:16:28.000Z</time>
      </trkpt>
      <trkpt lat="43.62849" lon="3.70361">
        <ele>150.36962984843</ele>
        <time>2020-07-07T18:16:29.000Z</time>
      </trkpt>
      <trkpt lat="43.62855" lon="3.70357">
        <ele>150.16982958476</ele>
        <time>2020-07-07T18:16:30.000Z</time>
      </trkpt>
      <trkpt lat="43.62861" lon="3.70354">
        <ele>149.95495400842</ele>
        <time>2020-07-07T18:16:31.000Z</time>
      </trkpt>
      <trkpt lat="43.62868" lon="3.7035">
        <ele>149.65465380431</ele>
        <time>2020-07-07T18:16:32.000Z</time>
      </trkpt>
      <trkpt lat="43.62875" lon="3.70346">
        <ele>149.35435360021</ele>
        <time>2020-07-07T18:16:33.000Z</time>
      </trkpt>
      <trkpt lat="43.62882" lon="3.70343">
        <ele>149.0540533961</ele>
        <time>2020-07-07T18:16:34.000Z</time>
      </trkpt>
      <trkpt lat="43.62889" lon="3.70339">
        <ele>148.75375319199</ele>
        <time>2020-07-07T18:16:35.000Z</time>
      </trkpt>
      <trkpt lat="43.62897" lon="3.70335">
        <ele>148.45345298788</ele>
        <time>2020-07-07T18:16:36.000Z</time>
      </trkpt>
      <trkpt lat="43.62905" lon="3.70332">
        <ele>148.15315278377</ele>
        <time>2020-07-07T18:16:37.000Z</time>
      </trkpt>
      <trkpt lat="43.62914" lon="3.70329">
        <ele>147.85285257967</ele>
        <time>2020-07-07T18:16:38.000Z</time>
      </trkpt>
      <trkpt lat="43.62923" lon="3.70326">
        <ele>147.55255237556</ele>
        <time>2020-07-07T18:16:39.000Z</time>
      </trkpt>
      <trkpt lat="43.62932" lon="3.70324">
        <ele>147.25225217145</ele>
        <time>2020-07-07T18:16:40.000Z</time>
      </trkpt>
      <trkpt lat="43.62941" lon="3.70321">
        <ele>146.90688654684</ele>
        <time>2020-07-07T18:16:41.000Z</time>
      </trkpt>
      <trkpt lat="43.6295" lon="3.70318">
        <ele>146.32492746462</ele>
        <time>2020-07-07T18:16:42.000Z</time>
      </trkpt>
      <trkpt lat="43.6296" lon="3.70316">
        <ele>145.7429683824</ele>
        <time>2020-07-07T18:16:43.000Z</time>
      </trkpt>
      <trkpt lat="43.6297" lon="3.70314">
        <ele>145.16100930017</ele>
        <time>2020-07-07T18:16:44.000Z</time>
      </trkpt>
      <trkpt lat="43.6298" lon="3.70312">
        <ele>144.57905021795</ele>
        <time>2020-07-07T18:16:45.000Z</time>
      </trkpt>
      <trkpt lat="43.62991" lon="3.70311">
        <ele>143.99709113572</ele>
        <time>2020-07-07T18:16:46.000Z</time>
      </trkpt>
      <trkpt lat="43.63001" lon="3.7031">
        <ele>143.4151320535</ele>
        <time>2020-07-07T18:16:47.000Z</time>
      </trkpt>
      <trkpt lat="43.63012" lon="3.70309">
        <ele>142.83317297127</ele>
        <time>2020-07-07T18:16:48.000Z</time>
      </trkpt>
      <trkpt lat="43.63022" lon="3.70309">
        <ele>142.25121388905</ele>
        <time>2020-07-07T18:16:49.000Z</time>
      </trkpt>
      <trkpt lat="43.63033" lon="3.70308">
        <ele>141.66925480683</ele>
        <time>2020-07-07T18:16:50.000Z</time>
      </trkpt>
      <trkpt lat="43.63043" lon="3.70309">
        <ele>141.0872957246</ele>
        <time>2020-07-07T18:16:51.000Z</time>
      </trkpt>
      <trkpt lat="43.63053" lon="3.70309">
        <ele>140.73684300907</ele>
        <time>2020-07-07T18:16:52.000Z</time>
      </trkpt>
      <trkpt lat="43.63063" lon="3.7031">
        <ele>140.42724538361</ele>
        <time>2020-07-07T18:16:53.000Z</time>
      </trkpt>
      <trkpt lat="43.63073" lon="3.7031">
        <ele>140.11764775815</ele>
        <time>2020-07-07T18:16:54.000Z</time>
      </trkpt>
      <trkpt lat="43.63083" lon="3.7031">
        <ele>139.80805013269</ele>
        <time>2020-07-07T18:16:55.000Z</time>
      </trkpt>
      <trkpt lat="43.63092" lon="3.70309">
        <ele>139.49845250723</ele>
        <time>2020-07-07T18:16:56.000Z</time>
      </trkpt>
      <trkpt lat="43.63101" lon="3.70309">
        <ele>139.18885488177</ele>
        <time>2020-07-07T18:16:57.000Z</time>
      </trkpt>
      <trkpt lat="43.63108" lon="3.70308">
        <ele>138.87925725631</ele>
        <time>2020-07-07T18:16:58.000Z</time>
      </trkpt>
      <trkpt lat="43.63113" lon="3.70308">
        <ele>138.56965963085</ele>
        <time>2020-07-07T18:16:59.000Z</time>
      </trkpt>
      <trkpt lat="43.63116" lon="3.70308">
        <ele>138.26006200539</ele>
        <time>2020-07-07T18:17:00.000Z</time>
      </trkpt>
      <trkpt lat="43.63119" lon="3.70308">
        <ele>138</ele>
        <time>2020-07-07T18:17:01.000Z</time>
      </trkpt>
      <trkpt lat="43.63121" lon="3.70307">
        <ele>138</ele>
        <time>2020-07-07T18:17:03.000Z</time>
      </trkpt>
      <trkpt lat="43.63123" lon="3.70305">
        <ele>138</ele>
        <time>2020-07-07T18:17:06.000Z</time>
      </trkpt>
      <trkpt lat="43.63123" lon="3.70304">
        <ele>138</ele>
        <time>2020-07-07T18:17:11.000Z</time>
      </trkpt>
      <trkpt lat="43.63126" lon="3.70298">
        <ele>138</ele>
        <time>2020-07-07T18:17:14.000Z</time>
      </trkpt>
      <trkpt lat="43.63126" lon="3.70294">
        <ele>138</ele>
        <time>2020-07-07T18:17:15.000Z</time>
      </trkpt>
      <trkpt lat="43.63125" lon="3.7029">
        <ele>138</ele>
        <time>2020-07-07T18:17:16.000Z</time>
      </trkpt>
      <trkpt lat="43.63124" lon="3.70286">
        <ele>138</ele>
        <time>2020-07-07T18:17:17.000Z</time>
      </trkpt>
      <trkpt lat="43.63123" lon="3.70282">
        <ele>138</ele>
        <time>2020-07-07T18:17:18.000Z</time>
      </trkpt>
      <trkpt lat="43.63122" lon="3.70277">
        <ele>138</ele>
        <time>2020-07-07T18:17:19.000Z</time>
      </trkpt>
      <trkpt lat="43.63121" lon="3.70272">
        <ele>138</ele>
        <time>2020-07-07T18:17:20.000Z</time>
      </trkpt>
      <trkpt lat="43.63119" lon="3.70267">
        <ele>138</ele>
        <time>2020-07-07T18:17:21.000Z</time>
      </trkpt>
      <trkpt lat="43.63118" lon="3.70263">
        <ele>138</ele>
        <time>2020-07-07T18:17:22.000Z</time>
      </trkpt>
      <trkpt lat="43.63117" lon="3.70258">
        <ele>138</ele>
        <time>2020-07-07T18:17:23.000Z</time>
      </trkpt>
      <trkpt lat="43.63116" lon="3.70253">
        <ele>138</ele>
        <time>2020-07-07T18:17:24.000Z</time>
      </trkpt>
      <trkpt lat="43.63114" lon="3.70249">
        <ele>138</ele>
        <time>2020-07-07T18:17:25.000Z</time>
      </trkpt>
      <trkpt lat="43.63113" lon="3.70244">
        <ele>138</ele>
        <time>2020-07-07T18:17:26.000Z</time>
      </trkpt>
      <trkpt lat="43.63111" lon="3.70239">
        <ele>138</ele>
        <time>2020-07-07T18:17:27.000Z</time>
      </trkpt>
      <trkpt lat="43.6311" lon="3.70234">
        <ele>138</ele>
        <time>2020-07-07T18:17:28.000Z</time>
      </trkpt>
      <trkpt lat="43.63109" lon="3.70229">
        <ele>138</ele>
        <time>2020-07-07T18:17:29.000Z</time>
      </trkpt>
      <trkpt lat="43.63107" lon="3.70224">
        <ele>138</ele>
        <time>2020-07-07T18:17:30.000Z</time>
      </trkpt>
      <trkpt lat="43.63106" lon="3.70218">
        <ele>138</ele>
        <time>2020-07-07T18:17:31.000Z</time>
      </trkpt>
      <trkpt lat="43.63105" lon="3.70213">
        <ele>138</ele>
        <time>2020-07-07T18:17:32.000Z</time>
      </trkpt>
      <trkpt lat="43.63104" lon="3.70208">
        <ele>138</ele>
        <time>2020-07-07T18:17:33.000Z</time>
      </trkpt>
      <trkpt lat="43.63103" lon="3.70203">
        <ele>138</ele>
        <time>2020-07-07T18:17:34.000Z</time>
      </trkpt>
      <trkpt lat="43.63101" lon="3.70197">
        <ele>138</ele>
        <time>2020-07-07T18:17:35.000Z</time>
      </trkpt>
      <trkpt lat="43.631" lon="3.70191">
        <ele>138</ele>
        <time>2020-07-07T18:17:36.000Z</time>
      </trkpt>
      <trkpt lat="43.63099" lon="3.70186">
        <ele>138</ele>
        <time>2020-07-07T18:17:37.000Z</time>
      </trkpt>
      <trkpt lat="43.63097" lon="3.7018">
        <ele>138</ele>
        <time>2020-07-07T18:17:38.000Z</time>
      </trkpt>
      <trkpt lat="43.63096" lon="3.70174">
        <ele>138</ele>
        <time>2020-07-07T18:17:39.000Z</time>
      </trkpt>
      <trkpt lat="43.63094" lon="3.70169">
        <ele>138</ele>
        <time>2020-07-07T18:17:40.000Z</time>
      </trkpt>
      <trkpt lat="43.63093" lon="3.70163">
        <ele>138</ele>
        <time>2020-07-07T18:17:41.000Z</time>
      </trkpt>
      <trkpt lat="43.63092" lon="3.70158">
        <ele>138</ele>
        <time>2020-07-07T18:17:42.000Z</time>
      </trkpt>
      <trkpt lat="43.6309" lon="3.70153">
        <ele>138</ele>
        <time>2020-07-07T18:17:43.000Z</time>
      </trkpt>
      <trkpt lat="43.63089" lon="3.70148">
        <ele>137.984</ele>
        <time>2020-07-07T18:17:44.000Z</time>
      </trkpt>
      <trkpt lat="43.63088" lon="3.70144">
        <ele>137.884</ele>
        <time>2020-07-07T18:17:45.000Z</time>
      </trkpt>
      <trkpt lat="43.63087" lon="3.70139">
        <ele>137.784</ele>
        <time>2020-07-07T18:17:46.000Z</time>
      </trkpt>
      <trkpt lat="43.63086" lon="3.70134">
        <ele>137.684</ele>
        <time>2020-07-07T18:17:47.000Z</time>
      </trkpt>
      <trkpt lat="43.63088" lon="3.70129">
        <ele>137.584</ele>
        <time>2020-07-07T18:17:48.000Z</time>
      </trkpt>
      <trkpt lat="43.63091" lon="3.70126">
        <ele>137.484</ele>
        <time>2020-07-07T18:17:49.000Z</time>
      </trkpt>
      <trkpt lat="43.63096" lon="3.70126">
        <ele>137.384</ele>
        <time>2020-07-07T18:17:50.000Z</time>
      </trkpt>
      <trkpt lat="43.63101" lon="3.70127">
        <ele>137.284</ele>
        <time>2020-07-07T18:17:51.000Z</time>
      </trkpt>
      <trkpt lat="43.63105" lon="3.70129">
        <ele>137.184</ele>
        <time>2020-07-07T18:17:52.000Z</time>
      </trkpt>
      <trkpt lat="43.6311" lon="3.7013">
        <ele>137.084</ele>
        <time>2020-07-07T18:17:53.000Z</time>
      </trkpt>
      <trkpt lat="43.63114" lon="3.7013">
        <ele>136.96841065142</ele>
        <time>2020-07-07T18:17:54.000Z</time>
      </trkpt>
      <trkpt lat="43.63119" lon="3.70129">
        <ele>136.77097722282</ele>
        <time>2020-07-07T18:17:55.000Z</time>
      </trkpt>
      <trkpt lat="43.63124" lon="3.70127">
        <ele>136.57354379421</ele>
        <time>2020-07-07T18:17:56.000Z</time>
      </trkpt>
      <trkpt lat="43.63129" lon="3.70124">
        <ele>136.3761103656</ele>
        <time>2020-07-07T18:17:57.000Z</time>
      </trkpt>
      <trkpt lat="43.63133" lon="3.70118">
        <ele>136.178676937</ele>
        <time>2020-07-07T18:17:58.000Z</time>
      </trkpt>
      <trkpt lat="43.63138" lon="3.70112">
        <ele>135.98124350839</ele>
        <time>2020-07-07T18:17:59.000Z</time>
      </trkpt>
      <trkpt lat="43.63142" lon="3.70105">
        <ele>135.78381007978</ele>
        <time>2020-07-07T18:18:00.000Z</time>
      </trkpt>
      <trkpt lat="43.63147" lon="3.70099">
        <ele>135.58637665117</ele>
        <time>2020-07-07T18:18:01.000Z</time>
      </trkpt>
      <trkpt lat="43.63152" lon="3.70093">
        <ele>135.38894322257</ele>
        <time>2020-07-07T18:18:02.000Z</time>
      </trkpt>
      <trkpt lat="43.63156" lon="3.70087">
        <ele>135.19150979396</ele>
        <time>2020-07-07T18:18:03.000Z</time>
      </trkpt>
      <trkpt lat="43.6316" lon="3.70081">
        <ele>135</ele>
        <time>2020-07-07T18:18:04.000Z</time>
      </trkpt>
      <trkpt lat="43.63163" lon="3.70073">
        <ele>135</ele>
        <time>2020-07-07T18:18:05.000Z</time>
      </trkpt>
      <trkpt lat="43.63164" lon="3.70066">
        <ele>135</ele>
        <time>2020-07-07T18:18:06.000Z</time>
      </trkpt>
      <trkpt lat="43.63164" lon="3.70058">
        <ele>135</ele>
        <time>2020-07-07T18:18:07.000Z</time>
      </trkpt>
      <trkpt lat="43.63164" lon="3.70051">
        <ele>135</ele>
        <time>2020-07-07T18:18:08.000Z</time>
      </trkpt>
      <trkpt lat="43.63165" lon="3.70043">
        <ele>135</ele>
        <time>2020-07-07T18:18:09.000Z</time>
      </trkpt>
      <trkpt lat="43.63168" lon="3.70036">
        <ele>135</ele>
        <time>2020-07-07T18:18:10.000Z</time>
      </trkpt>
      <trkpt lat="43.63171" lon="3.70031">
        <ele>135</ele>
        <time>2020-07-07T18:18:11.000Z</time>
      </trkpt>
      <trkpt lat="43.63174" lon="3.70027">
        <ele>135</ele>
        <time>2020-07-07T18:18:12.000Z</time>
      </trkpt>
      <trkpt lat="43.63178" lon="3.70024">
        <ele>135</ele>
        <time>2020-07-07T18:18:13.000Z</time>
      </trkpt>
      <trkpt lat="43.63181" lon="3.70021">
        <ele>135.016</ele>
        <time>2020-07-07T18:18:14.000Z</time>
      </trkpt>
      <trkpt lat="43.63184" lon="3.7002">
        <ele>135.116</ele>
        <time>2020-07-07T18:18:15.000Z</time>
      </trkpt>
      <trkpt lat="43.63187" lon="3.70018">
        <ele>135.216</ele>
        <time>2020-07-07T18:18:16.000Z</time>
      </trkpt>
      <trkpt lat="43.6319" lon="3.70016">
        <ele>135.316</ele>
        <time>2020-07-07T18:18:17.000Z</time>
      </trkpt>
      <trkpt lat="43.63192" lon="3.70014">
        <ele>135.416</ele>
        <time>2020-07-07T18:18:18.000Z</time>
      </trkpt>
      <trkpt lat="43.63195" lon="3.70012">
        <ele>135.516</ele>
        <time>2020-07-07T18:18:19.000Z</time>
      </trkpt>
      <trkpt lat="43.63198" lon="3.70009">
        <ele>135.616</ele>
        <time>2020-07-07T18:18:20.000Z</time>
      </trkpt>
      <trkpt lat="43.63201" lon="3.70007">
        <ele>135.716</ele>
        <time>2020-07-07T18:18:21.000Z</time>
      </trkpt>
      <trkpt lat="43.63203" lon="3.70004">
        <ele>135.816</ele>
        <time>2020-07-07T18:18:22.000Z</time>
      </trkpt>
      <trkpt lat="43.63206" lon="3.70002">
        <ele>135.916</ele>
        <time>2020-07-07T18:18:23.000Z</time>
      </trkpt>
      <trkpt lat="43.63208" lon="3.7">
        <ele>136.03158934858</ele>
        <time>2020-07-07T18:18:24.000Z</time>
      </trkpt>
      <trkpt lat="43.63211" lon="3.69998">
        <ele>136.22902277718</ele>
        <time>2020-07-07T18:18:25.000Z</time>
      </trkpt>
      <trkpt lat="43.63213" lon="3.69997">
        <ele>136.42645620579</ele>
        <time>2020-07-07T18:18:26.000Z</time>
      </trkpt>
      <trkpt lat="43.63216" lon="3.69995">
        <ele>136.6238896344</ele>
        <time>2020-07-07T18:18:27.000Z</time>
      </trkpt>
      <trkpt lat="43.63218" lon="3.69993">
        <ele>136.821323063</ele>
        <time>2020-07-07T18:18:28.000Z</time>
      </trkpt>
      <trkpt lat="43.6322" lon="3.69992">
        <ele>137.01875649161</ele>
        <time>2020-07-07T18:18:29.000Z</time>
      </trkpt>
      <trkpt lat="43.63223" lon="3.6999">
        <ele>137.21618992022</ele>
        <time>2020-07-07T18:18:30.000Z</time>
      </trkpt>
      <trkpt lat="43.63225" lon="3.69988">
        <ele>137.41362334883</ele>
        <time>2020-07-07T18:18:31.000Z</time>
      </trkpt>
      <trkpt lat="43.63227" lon="3.69986">
        <ele>137.61105677743</ele>
        <time>2020-07-07T18:18:32.000Z</time>
      </trkpt>
      <trkpt lat="43.63229" lon="3.69984">
        <ele>137.80849020604</ele>
        <time>2020-07-07T18:18:33.000Z</time>
      </trkpt>
      <trkpt lat="43.63231" lon="3.69982">
        <ele>138</ele>
        <time>2020-07-07T18:18:34.000Z</time>
      </trkpt>
      <trkpt lat="43.63233" lon="3.69979">
        <ele>138</ele>
        <time>2020-07-07T18:18:35.000Z</time>
      </trkpt>
      <trkpt lat="43.63234" lon="3.69977">
        <ele>138</ele>
        <time>2020-07-07T18:18:36.000Z</time>
      </trkpt>
      <trkpt lat="43.63236" lon="3.69974">
        <ele>138</ele>
        <time>2020-07-07T18:18:37.000Z</time>
      </trkpt>
      <trkpt lat="43.63238" lon="3.69971">
        <ele>138</ele>
        <time>2020-07-07T18:18:38.000Z</time>
      </trkpt>
      <trkpt lat="43.6324" lon="3.69968">
        <ele>138</ele>
        <time>2020-07-07T18:18:39.000Z</time>
      </trkpt>
      <trkpt lat="43.63241" lon="3.69965">
        <ele>138</ele>
        <time>2020-07-07T18:18:40.000Z</time>
      </trkpt>
      <trkpt lat="43.63243" lon="3.69962">
        <ele>138</ele>
        <time>2020-07-07T18:18:41.000Z</time>
      </trkpt>
      <trkpt lat="43.63244" lon="3.69959">
        <ele>138</ele>
        <time>2020-07-07T18:18:42.000Z</time>
      </trkpt>
      <trkpt lat="43.63245" lon="3.69956">
        <ele>138</ele>
        <time>2020-07-07T18:18:43.000Z</time>
      </trkpt>
      <trkpt lat="43.63246" lon="3.69952">
        <ele>138.016</ele>
        <time>2020-07-07T18:18:44.000Z</time>
      </trkpt>
      <trkpt lat="43.63248" lon="3.69949">
        <ele>138.116</ele>
        <time>2020-07-07T18:18:45.000Z</time>
      </trkpt>
      <trkpt lat="43.6325" lon="3.69945">
        <ele>138.216</ele>
        <time>2020-07-07T18:18:46.000Z</time>
      </trkpt>
      <trkpt lat="43.63252" lon="3.69942">
        <ele>138.316</ele>
        <time>2020-07-07T18:18:47.000Z</time>
      </trkpt>
      <trkpt lat="43.63255" lon="3.69939">
        <ele>138.416</ele>
        <time>2020-07-07T18:18:48.000Z</time>
      </trkpt>
      <trkpt lat="43.63257" lon="3.69937">
        <ele>138.516</ele>
        <time>2020-07-07T18:18:49.000Z</time>
      </trkpt>
      <trkpt lat="43.63259" lon="3.69935">
        <ele>138.616</ele>
        <time>2020-07-07T18:18:50.000Z</time>
      </trkpt>
      <trkpt lat="43.63262" lon="3.69933">
        <ele>138.716</ele>
        <time>2020-07-07T18:18:51.000Z</time>
      </trkpt>
      <trkpt lat="43.63264" lon="3.69931">
        <ele>138.816</ele>
        <time>2020-07-07T18:18:52.000Z</time>
      </trkpt>
      <trkpt lat="43.63267" lon="3.69929">
        <ele>138.916</ele>
        <time>2020-07-07T18:18:53.000Z</time>
      </trkpt>
      <trkpt lat="43.6327" lon="3.69928">
        <ele>139.01567091578</ele>
        <time>2020-07-07T18:18:54.000Z</time>
      </trkpt>
      <trkpt lat="43.63272" lon="3.69926">
        <ele>139.11361413943</ele>
        <time>2020-07-07T18:18:55.000Z</time>
      </trkpt>
      <trkpt lat="43.63274" lon="3.69924">
        <ele>139.21155736307</ele>
        <time>2020-07-07T18:18:56.000Z</time>
      </trkpt>
      <trkpt lat="43.63277" lon="3.69922">
        <ele>139.30950058672</ele>
        <time>2020-07-07T18:18:57.000Z</time>
      </trkpt>
      <trkpt lat="43.63279" lon="3.69921">
        <ele>139.40744381036</ele>
        <time>2020-07-07T18:18:58.000Z</time>
      </trkpt>
      <trkpt lat="43.63281" lon="3.6992">
        <ele>139.50538703401</ele>
        <time>2020-07-07T18:18:59.000Z</time>
      </trkpt>
      <trkpt lat="43.63284" lon="3.69919">
        <ele>139.60333025765</ele>
        <time>2020-07-07T18:19:00.000Z</time>
      </trkpt>
      <trkpt lat="43.63287" lon="3.69918">
        <ele>139.7012734813</ele>
        <time>2020-07-07T18:19:01.000Z</time>
      </trkpt>
      <trkpt lat="43.63289" lon="3.69918">
        <ele>139.79921670494</ele>
        <time>2020-07-07T18:19:02.000Z</time>
      </trkpt>
      <trkpt lat="43.63292" lon="3.69917">
        <ele>139.89715992859</ele>
        <time>2020-07-07T18:19:03.000Z</time>
      </trkpt>
      <trkpt lat="43.63294" lon="3.69916">
        <ele>139.99510315224</ele>
        <time>2020-07-07T18:19:04.000Z</time>
      </trkpt>
      <trkpt lat="43.63297" lon="3.69914">
        <ele>140.19076369478</ele>
        <time>2020-07-07T18:19:05.000Z</time>
      </trkpt>
      <trkpt lat="43.63299" lon="3.69913">
        <ele>140.39156690763</ele>
        <time>2020-07-07T18:19:06.000Z</time>
      </trkpt>
      <trkpt lat="43.63301" lon="3.69912">
        <ele>140.59237012048</ele>
        <time>2020-07-07T18:19:07.000Z</time>
      </trkpt>
      <trkpt lat="43.63303" lon="3.6991">
        <ele>140.79317333333</ele>
        <time>2020-07-07T18:19:08.000Z</time>
      </trkpt>
      <trkpt lat="43.63305" lon="3.69909">
        <ele>140.99397654618</ele>
        <time>2020-07-07T18:19:09.000Z</time>
      </trkpt>
      <trkpt lat="43.63307" lon="3.69908">
        <ele>141.19477975904</ele>
        <time>2020-07-07T18:19:10.000Z</time>
      </trkpt>
      <trkpt lat="43.63309" lon="3.69906">
        <ele>141.39558297189</ele>
        <time>2020-07-07T18:19:11.000Z</time>
      </trkpt>
      <trkpt lat="43.63311" lon="3.69904">
        <ele>141.59638618474</ele>
        <time>2020-07-07T18:19:12.000Z</time>
      </trkpt>
      <trkpt lat="43.63312" lon="3.69902">
        <ele>141.79718939759</ele>
        <time>2020-07-07T18:19:13.000Z</time>
      </trkpt>
      <trkpt lat="43.63314" lon="3.699">
        <ele>141.99799261044</ele>
        <time>2020-07-07T18:19:14.000Z</time>
      </trkpt>
      <trkpt lat="43.63316" lon="3.69898">
        <ele>142.30213719564</ele>
        <time>2020-07-07T18:19:15.000Z</time>
      </trkpt>
      <trkpt lat="43.63318" lon="3.69896">
        <ele>142.60732529568</ele>
        <time>2020-07-07T18:19:16.000Z</time>
      </trkpt>
      <trkpt lat="43.6332" lon="3.69895">
        <ele>142.91251339572</ele>
        <time>2020-07-07T18:19:17.000Z</time>
      </trkpt>
      <trkpt lat="43.63322" lon="3.69893">
        <ele>143.21770149576</ele>
        <time>2020-07-07T18:19:18.000Z</time>
      </trkpt>
      <trkpt lat="43.63323" lon="3.69891">
        <ele>143.5228895958</ele>
        <time>2020-07-07T18:19:19.000Z</time>
      </trkpt>
      <trkpt lat="43.63325" lon="3.6989">
        <ele>143.82807769584</ele>
        <time>2020-07-07T18:19:20.000Z</time>
      </trkpt>
      <trkpt lat="43.63327" lon="3.69889">
        <ele>144.13326579588</ele>
        <time>2020-07-07T18:19:21.000Z</time>
      </trkpt>
      <trkpt lat="43.63329" lon="3.69888">
        <ele>144.43845389592</ele>
        <time>2020-07-07T18:19:22.000Z</time>
      </trkpt>
      <trkpt lat="43.63331" lon="3.69887">
        <ele>144.74364199597</ele>
        <time>2020-07-07T18:19:23.000Z</time>
      </trkpt>
      <trkpt lat="43.63333" lon="3.69887">
        <ele>145</ele>
        <time>2020-07-07T18:19:24.000Z</time>
      </trkpt>
      <trkpt lat="43.63334" lon="3.69886">
        <ele>145</ele>
        <time>2020-07-07T18:19:25.000Z</time>
      </trkpt>
      <trkpt lat="43.63336" lon="3.69886">
        <ele>145</ele>
        <time>2020-07-07T18:19:26.000Z</time>
      </trkpt>
      <trkpt lat="43.63338" lon="3.69886">
        <ele>145</ele>
        <time>2020-07-07T18:19:27.000Z</time>
      </trkpt>
      <trkpt lat="43.6334" lon="3.69888">
        <ele>145</ele>
        <time>2020-07-07T18:19:28.000Z</time>
      </trkpt>
      <trkpt lat="43.63343" lon="3.6989">
        <ele>145</ele>
        <time>2020-07-07T18:19:30.000Z</time>
      </trkpt>
      <trkpt lat="43.63345" lon="3.69891">
        <ele>145</ele>
        <time>2020-07-07T18:19:31.000Z</time>
      </trkpt>
      <trkpt lat="43.63347" lon="3.69892">
        <ele>145</ele>
        <time>2020-07-07T18:19:32.000Z</time>
      </trkpt>
      <trkpt lat="43.63349" lon="3.69893">
        <ele>145</ele>
        <time>2020-07-07T18:19:33.000Z</time>
      </trkpt>
      <trkpt lat="43.63352" lon="3.69894">
        <ele>145</ele>
        <time>2020-07-07T18:19:34.000Z</time>
      </trkpt>
      <trkpt lat="43.63355" lon="3.69895">
        <ele>145.08959865224</ele>
        <time>2020-07-07T18:19:35.000Z</time>
      </trkpt>
      <trkpt lat="43.63357" lon="3.69897">
        <ele>145.19258523004</ele>
        <time>2020-07-07T18:19:36.000Z</time>
      </trkpt>
      <trkpt lat="43.63359" lon="3.69901">
        <ele>145.29557180784</ele>
        <time>2020-07-07T18:19:37.000Z</time>
      </trkpt>
      <trkpt lat="43.63361" lon="3.69905">
        <ele>145.39855838565</ele>
        <time>2020-07-07T18:19:38.000Z</time>
      </trkpt>
      <trkpt lat="43.63361" lon="3.69909">
        <ele>145.50154496345</ele>
        <time>2020-07-07T18:19:39.000Z</time>
      </trkpt>
      <trkpt lat="43.63361" lon="3.69913">
        <ele>145.60453154125</ele>
        <time>2020-07-07T18:19:40.000Z</time>
      </trkpt>
      <trkpt lat="43.6336" lon="3.69918">
        <ele>145.70751811905</ele>
        <time>2020-07-07T18:19:41.000Z</time>
      </trkpt>
      <trkpt lat="43.6336" lon="3.69921">
        <ele>145.81050469685</ele>
        <time>2020-07-07T18:19:42.000Z</time>
      </trkpt>
      <trkpt lat="43.6336" lon="3.69925">
        <ele>145.91349127465</ele>
        <time>2020-07-07T18:19:43.000Z</time>
      </trkpt>
      <trkpt lat="43.6336" lon="3.69929">
        <ele>146.016</ele>
        <time>2020-07-07T18:19:44.000Z</time>
      </trkpt>
      <trkpt lat="43.63359" lon="3.69932">
        <ele>146.116</ele>
        <time>2020-07-07T18:19:45.000Z</time>
      </trkpt>
      <trkpt lat="43.63358" lon="3.69935">
        <ele>146.216</ele>
        <time>2020-07-07T18:19:46.000Z</time>
      </trkpt>
      <trkpt lat="43.63357" lon="3.69937">
        <ele>146.316</ele>
        <time>2020-07-07T18:19:47.000Z</time>
      </trkpt>
      <trkpt lat="43.63356" lon="3.6994">
        <ele>146.416</ele>
        <time>2020-07-07T18:19:48.000Z</time>
      </trkpt>
      <trkpt lat="43.63355" lon="3.69944">
        <ele>146.516</ele>
        <time>2020-07-07T18:19:49.000Z</time>
      </trkpt>
      <trkpt lat="43.63354" lon="3.69946">
        <ele>146.616</ele>
        <time>2020-07-07T18:19:50.000Z</time>
      </trkpt>
      <trkpt lat="43.63353" lon="3.69949">
        <ele>146.716</ele>
        <time>2020-07-07T18:19:51.000Z</time>
      </trkpt>
      <trkpt lat="43.63354" lon="3.69952">
        <ele>146.816</ele>
        <time>2020-07-07T18:19:52.000Z</time>
      </trkpt>
      <trkpt lat="43.63356" lon="3.69956">
        <ele>146.916</ele>
        <time>2020-07-07T18:19:53.000Z</time>
      </trkpt>
      <trkpt lat="43.63358" lon="3.6996">
        <ele>147.016</ele>
        <time>2020-07-07T18:19:54.000Z</time>
      </trkpt>
      <trkpt lat="43.63359" lon="3.69965">
        <ele>147.116</ele>
        <time>2020-07-07T18:19:55.000Z</time>
      </trkpt>
      <trkpt lat="43.6336" lon="3.6997">
        <ele>147.216</ele>
        <time>2020-07-07T18:19:56.000Z</time>
      </trkpt>
      <trkpt lat="43.63359" lon="3.69975">
        <ele>147.316</ele>
        <time>2020-07-07T18:19:57.000Z</time>
      </trkpt>
      <trkpt lat="43.63359" lon="3.6998">
        <ele>147.416</ele>
        <time>2020-07-07T18:19:58.000Z</time>
      </trkpt>
      <trkpt lat="43.63358" lon="3.69984">
        <ele>147.516</ele>
        <time>2020-07-07T18:19:59.000Z</time>
      </trkpt>
      <trkpt lat="43.63358" lon="3.69989">
        <ele>147.616</ele>
        <time>2020-07-07T18:20:00.000Z</time>
      </trkpt>
      <trkpt lat="43.63358" lon="3.69994">
        <ele>147.716</ele>
        <time>2020-07-07T18:20:01.000Z</time>
      </trkpt>
      <trkpt lat="43.63357" lon="3.69998">
        <ele>147.816</ele>
        <time>2020-07-07T18:20:02.000Z</time>
      </trkpt>
      <trkpt lat="43.63357" lon="3.70003">
        <ele>147.916</ele>
        <time>2020-07-07T18:20:03.000Z</time>
      </trkpt>
      <trkpt lat="43.63356" lon="3.70007">
        <ele>148.01595213848</ele>
        <time>2020-07-07T18:20:04.000Z</time>
      </trkpt>
      <trkpt lat="43.63356" lon="3.70012">
        <ele>148.11565300398</ele>
        <time>2020-07-07T18:20:05.000Z</time>
      </trkpt>
      <trkpt lat="43.63356" lon="3.70016">
        <ele>148.21535386948</ele>
        <time>2020-07-07T18:20:06.000Z</time>
      </trkpt>
      <trkpt lat="43.63356" lon="3.70021">
        <ele>148.31505473498</ele>
        <time>2020-07-07T18:20:07.000Z</time>
      </trkpt>
      <trkpt lat="43.63356" lon="3.70025">
        <ele>148.41475560048</ele>
        <time>2020-07-07T18:20:08.000Z</time>
      </trkpt>
      <trkpt lat="43.63356" lon="3.7003">
        <ele>148.51445646598</ele>
        <time>2020-07-07T18:20:09.000Z</time>
      </trkpt>
      <trkpt lat="43.63356" lon="3.70034">
        <ele>148.61415733148</ele>
        <time>2020-07-07T18:20:10.000Z</time>
      </trkpt>
      <trkpt lat="43.63356" lon="3.70039">
        <ele>148.71385819697</ele>
        <time>2020-07-07T18:20:11.000Z</time>
      </trkpt>
      <trkpt lat="43.63356" lon="3.70044">
        <ele>148.81355906247</ele>
        <time>2020-07-07T18:20:12.000Z</time>
      </trkpt>
      <trkpt lat="43.63357" lon="3.70048">
        <ele>148.91325992797</ele>
        <time>2020-07-07T18:20:13.000Z</time>
      </trkpt>
      <trkpt lat="43.63356" lon="3.70053">
        <ele>149.01303880057</ele>
        <time>2020-07-07T18:20:14.000Z</time>
      </trkpt>
      <trkpt lat="43.63356" lon="3.70057">
        <ele>149.11333973547</ele>
        <time>2020-07-07T18:20:15.000Z</time>
      </trkpt>
      <trkpt lat="43.63356" lon="3.70062">
        <ele>149.21364067038</ele>
        <time>2020-07-07T18:20:16.000Z</time>
      </trkpt>
      <trkpt lat="43.63356" lon="3.70066">
        <ele>149.31394160528</ele>
        <time>2020-07-07T18:20:17.000Z</time>
      </trkpt>
      <trkpt lat="43.63357" lon="3.70071">
        <ele>149.41424254018</ele>
        <time>2020-07-07T18:20:18.000Z</time>
      </trkpt>
      <trkpt lat="43.63357" lon="3.70075">
        <ele>149.51454347508</ele>
        <time>2020-07-07T18:20:19.000Z</time>
      </trkpt>
      <trkpt lat="43.63358" lon="3.70079">
        <ele>149.61484440998</ele>
        <time>2020-07-07T18:20:20.000Z</time>
      </trkpt>
      <trkpt lat="43.63358" lon="3.70083">
        <ele>149.71514534488</ele>
        <time>2020-07-07T18:20:21.000Z</time>
      </trkpt>
      <trkpt lat="43.63359" lon="3.70087">
        <ele>149.81544627978</ele>
        <time>2020-07-07T18:20:22.000Z</time>
      </trkpt>
      <trkpt lat="43.63359" lon="3.70091">
        <ele>149.91574721468</ele>
        <time>2020-07-07T18:20:23.000Z</time>
      </trkpt>
      <trkpt lat="43.6336" lon="3.70095">
        <ele>150.032</ele>
        <time>2020-07-07T18:20:24.000Z</time>
      </trkpt>
      <trkpt lat="43.6336" lon="3.70099">
        <ele>150.232</ele>
        <time>2020-07-07T18:20:25.000Z</time>
      </trkpt>
      <trkpt lat="43.6336" lon="3.70103">
        <ele>150.432</ele>
        <time>2020-07-07T18:20:26.000Z</time>
      </trkpt>
      <trkpt lat="43.63361" lon="3.70107">
        <ele>150.632</ele>
        <time>2020-07-07T18:20:27.000Z</time>
      </trkpt>
      <trkpt lat="43.63361" lon="3.70111">
        <ele>150.832</ele>
        <time>2020-07-07T18:20:28.000Z</time>
      </trkpt>
      <trkpt lat="43.63361" lon="3.70115">
        <ele>151.032</ele>
        <time>2020-07-07T18:20:29.000Z</time>
      </trkpt>
      <trkpt lat="43.63361" lon="3.70119">
        <ele>151.232</ele>
        <time>2020-07-07T18:20:30.000Z</time>
      </trkpt>
      <trkpt lat="43.63361" lon="3.70122">
        <ele>151.432</ele>
        <time>2020-07-07T18:20:31.000Z</time>
      </trkpt>
      <trkpt lat="43.63361" lon="3.70126">
        <ele>151.632</ele>
        <time>2020-07-07T18:20:32.000Z</time>
      </trkpt>
      <trkpt lat="43.63361" lon="3.7013">
        <ele>151.832</ele>
        <time>2020-07-07T18:20:33.000Z</time>
      </trkpt>
      <trkpt lat="43.63361" lon="3.70133">
        <ele>152.01556420234</ele>
        <time>2020-07-07T18:20:34.000Z</time>
      </trkpt>
      <trkpt lat="43.63361" lon="3.70137">
        <ele>152.11284046693</ele>
        <time>2020-07-07T18:20:35.000Z</time>
      </trkpt>
      <trkpt lat="43.63361" lon="3.7014">
        <ele>152.21011673152</ele>
        <time>2020-07-07T18:20:36.000Z</time>
      </trkpt>
      <trkpt lat="43.63362" lon="3.70143">
        <ele>152.30739299611</ele>
        <time>2020-07-07T18:20:37.000Z</time>
      </trkpt>
      <trkpt lat="43.63362" lon="3.70147">
        <ele>152.4046692607</ele>
        <time>2020-07-07T18:20:38.000Z</time>
      </trkpt>
      <trkpt lat="43.63363" lon="3.70151">
        <ele>152.50194552529</ele>
        <time>2020-07-07T18:20:39.000Z</time>
      </trkpt>
      <trkpt lat="43.63363" lon="3.70154">
        <ele>152.59922178988</ele>
        <time>2020-07-07T18:20:40.000Z</time>
      </trkpt>
      <trkpt lat="43.63363" lon="3.70158">
        <ele>152.69649805448</ele>
        <time>2020-07-07T18:20:41.000Z</time>
      </trkpt>
      <trkpt lat="43.63363" lon="3.70162">
        <ele>152.79377431907</ele>
        <time>2020-07-07T18:20:42.000Z</time>
      </trkpt>
      <trkpt lat="43.63363" lon="3.70166">
        <ele>152.89105058366</ele>
        <time>2020-07-07T18:20:43.000Z</time>
      </trkpt>
      <trkpt lat="43.63363" lon="3.7017">
        <ele>152.98832684825</ele>
        <time>2020-07-07T18:20:44.000Z</time>
      </trkpt>
      <trkpt lat="43.63363" lon="3.70174">
        <ele>153.18106995885</ele>
        <time>2020-07-07T18:20:45.000Z</time>
      </trkpt>
      <trkpt lat="43.63363" lon="3.70178">
        <ele>153.38683127572</ele>
        <time>2020-07-07T18:20:46.000Z</time>
      </trkpt>
      <trkpt lat="43.63363" lon="3.70183">
        <ele>153.59259259259</ele>
        <time>2020-07-07T18:20:47.000Z</time>
      </trkpt>
      <trkpt lat="43.63363" lon="3.70186">
        <ele>153.79835390946</ele>
        <time>2020-07-07T18:20:48.000Z</time>
      </trkpt>
      <trkpt lat="43.63363" lon="3.7019">
        <ele>154.00411522634</ele>
        <time>2020-07-07T18:20:49.000Z</time>
      </trkpt>
      <trkpt lat="43.63363" lon="3.70193">
        <ele>154.20987654321</ele>
        <time>2020-07-07T18:20:50.000Z</time>
      </trkpt>
      <trkpt lat="43.63362" lon="3.70196">
        <ele>154.41563786008</ele>
        <time>2020-07-07T18:20:51.000Z</time>
      </trkpt>
      <trkpt lat="43.63361" lon="3.702">
        <ele>154.62139917696</ele>
        <time>2020-07-07T18:20:52.000Z</time>
      </trkpt>
      <trkpt lat="43.63361" lon="3.70204">
        <ele>154.82716049383</ele>
        <time>2020-07-07T18:20:53.000Z</time>
      </trkpt>
      <trkpt lat="43.63361" lon="3.70208">
        <ele>155</ele>
        <time>2020-07-07T18:20:54.000Z</time>
      </trkpt>
      <trkpt lat="43.63361" lon="3.70213">
        <ele>155</ele>
        <time>2020-07-07T18:20:55.000Z</time>
      </trkpt>
      <trkpt lat="43.63362" lon="3.70217">
        <ele>155</ele>
        <time>2020-07-07T18:20:56.000Z</time>
      </trkpt>
      <trkpt lat="43.63363" lon="3.70221">
        <ele>155</ele>
        <time>2020-07-07T18:20:57.000Z</time>
      </trkpt>
      <trkpt lat="43.63362" lon="3.70226">
        <ele>155</ele>
        <time>2020-07-07T18:20:58.000Z</time>
      </trkpt>
      <trkpt lat="43.63361" lon="3.7023">
        <ele>155</ele>
        <time>2020-07-07T18:20:59.000Z</time>
      </trkpt>
      <trkpt lat="43.6336" lon="3.70234">
        <ele>155</ele>
        <time>2020-07-07T18:21:00.000Z</time>
      </trkpt>
      <trkpt lat="43.63357" lon="3.70238">
        <ele>155</ele>
        <time>2020-07-07T18:21:01.000Z</time>
      </trkpt>
      <trkpt lat="43.63355" lon="3.70241">
        <ele>155</ele>
        <time>2020-07-07T18:21:02.000Z</time>
      </trkpt>
      <trkpt lat="43.63353" lon="3.70245">
        <ele>155</ele>
        <time>2020-07-07T18:21:03.000Z</time>
      </trkpt>
      <trkpt lat="43.63352" lon="3.7025">
        <ele>155.01661474007</ele>
        <time>2020-07-07T18:21:04.000Z</time>
      </trkpt>
      <trkpt lat="43.63351" lon="3.70254">
        <ele>155.12045686548</ele>
        <time>2020-07-07T18:21:05.000Z</time>
      </trkpt>
      <trkpt lat="43.63353" lon="3.70259">
        <ele>155.22429899089</ele>
        <time>2020-07-07T18:21:06.000Z</time>
      </trkpt>
      <trkpt lat="43.63354" lon="3.70263">
        <ele>155.3281411163</ele>
        <time>2020-07-07T18:21:07.000Z</time>
      </trkpt>
      <trkpt lat="43.63356" lon="3.70267">
        <ele>155.43198324171</ele>
        <time>2020-07-07T18:21:08.000Z</time>
      </trkpt>
      <trkpt lat="43.63358" lon="3.70272">
        <ele>155.53582536712</ele>
        <time>2020-07-07T18:21:09.000Z</time>
      </trkpt>
      <trkpt lat="43.63359" lon="3.70276">
        <ele>155.63966749253</ele>
        <time>2020-07-07T18:21:10.000Z</time>
      </trkpt>
      <trkpt lat="43.63361" lon="3.7028">
        <ele>155.74350961794</ele>
        <time>2020-07-07T18:21:11.000Z</time>
      </trkpt>
      <trkpt lat="43.63362" lon="3.70284">
        <ele>155.84735174335</ele>
        <time>2020-07-07T18:21:12.000Z</time>
      </trkpt>
      <trkpt lat="43.63363" lon="3.70288">
        <ele>155.95119386876</ele>
        <time>2020-07-07T18:21:13.000Z</time>
      </trkpt>
      <trkpt lat="43.63363" lon="3.70292">
        <ele>156</ele>
        <time>2020-07-07T18:21:14.000Z</time>
      </trkpt>
      <trkpt lat="43.63364" lon="3.70296">
        <ele>156</ele>
        <time>2020-07-07T18:21:15.000Z</time>
      </trkpt>
      <trkpt lat="43.63364" lon="3.703">
        <ele>156</ele>
        <time>2020-07-07T18:21:16.000Z</time>
      </trkpt>
      <trkpt lat="43.63365" lon="3.70304">
        <ele>156</ele>
        <time>2020-07-07T18:21:17.000Z</time>
      </trkpt>
      <trkpt lat="43.63366" lon="3.70307">
        <ele>156</ele>
        <time>2020-07-07T18:21:18.000Z</time>
      </trkpt>
      <trkpt lat="43.63367" lon="3.70311">
        <ele>156</ele>
        <time>2020-07-07T18:21:19.000Z</time>
      </trkpt>
      <trkpt lat="43.63368" lon="3.70314">
        <ele>156</ele>
        <time>2020-07-07T18:21:20.000Z</time>
      </trkpt>
      <trkpt lat="43.63368" lon="3.70319">
        <ele>156</ele>
        <time>2020-07-07T18:21:21.000Z</time>
      </trkpt>
      <trkpt lat="43.63369" lon="3.70323">
        <ele>156</ele>
        <time>2020-07-07T18:21:22.000Z</time>
      </trkpt>
      <trkpt lat="43.63369" lon="3.70328">
        <ele>156</ele>
        <time>2020-07-07T18:21:23.000Z</time>
      </trkpt>
      <trkpt lat="43.63368" lon="3.70333">
        <ele>156.016</ele>
        <time>2020-07-07T18:21:24.000Z</time>
      </trkpt>
      <trkpt lat="43.63368" lon="3.70338">
        <ele>156.116</ele>
        <time>2020-07-07T18:21:25.000Z</time>
      </trkpt>
      <trkpt lat="43.63367" lon="3.70343">
        <ele>156.216</ele>
        <time>2020-07-07T18:21:26.000Z</time>
      </trkpt>
      <trkpt lat="43.63367" lon="3.70348">
        <ele>156.316</ele>
        <time>2020-07-07T18:21:27.000Z</time>
      </trkpt>
      <trkpt lat="43.63366" lon="3.70352">
        <ele>156.416</ele>
        <time>2020-07-07T18:21:28.000Z</time>
      </trkpt>
      <trkpt lat="43.63366" lon="3.70357">
        <ele>156.516</ele>
        <time>2020-07-07T18:21:29.000Z</time>
      </trkpt>
      <trkpt lat="43.63366" lon="3.70362">
        <ele>156.616</ele>
        <time>2020-07-07T18:21:30.000Z</time>
      </trkpt>
      <trkpt lat="43.63366" lon="3.70367">
        <ele>156.716</ele>
        <time>2020-07-07T18:21:31.000Z</time>
      </trkpt>
      <trkpt lat="43.63365" lon="3.70371">
        <ele>156.816</ele>
        <time>2020-07-07T18:21:32.000Z</time>
      </trkpt>
      <trkpt lat="43.63364" lon="3.70376">
        <ele>156.916</ele>
        <time>2020-07-07T18:21:33.000Z</time>
      </trkpt>
      <trkpt lat="43.63363" lon="3.7038">
        <ele>157.016</ele>
        <time>2020-07-07T18:21:34.000Z</time>
      </trkpt>
      <trkpt lat="43.63362" lon="3.70384">
        <ele>157.116</ele>
        <time>2020-07-07T18:21:35.000Z</time>
      </trkpt>
      <trkpt lat="43.6336" lon="3.70388">
        <ele>157.216</ele>
        <time>2020-07-07T18:21:36.000Z</time>
      </trkpt>
      <trkpt lat="43.63359" lon="3.70393">
        <ele>157.316</ele>
        <time>2020-07-07T18:21:37.000Z</time>
      </trkpt>
      <trkpt lat="43.63359" lon="3.70398">
        <ele>157.416</ele>
        <time>2020-07-07T18:21:38.000Z</time>
      </trkpt>
      <trkpt lat="43.63359" lon="3.70403">
        <ele>157.516</ele>
        <time>2020-07-07T18:21:39.000Z</time>
      </trkpt>
      <trkpt lat="43.6336" lon="3.70408">
        <ele>157.616</ele>
        <time>2020-07-07T18:21:40.000Z</time>
      </trkpt>
      <trkpt lat="43.6336" lon="3.70413">
        <ele>157.716</ele>
        <time>2020-07-07T18:21:41.000Z</time>
      </trkpt>
      <trkpt lat="43.63361" lon="3.70418">
        <ele>157.816</ele>
        <time>2020-07-07T18:21:42.000Z</time>
      </trkpt>
      <trkpt lat="43.63361" lon="3.70423">
        <ele>157.916</ele>
        <time>2020-07-07T18:21:43.000Z</time>
      </trkpt>
      <trkpt lat="43.63362" lon="3.70429">
        <ele>158</ele>
        <time>2020-07-07T18:21:44.000Z</time>
      </trkpt>
      <trkpt lat="43.63362" lon="3.70434">
        <ele>158</ele>
        <time>2020-07-07T18:21:45.000Z</time>
      </trkpt>
      <trkpt lat="43.63362" lon="3.7044">
        <ele>158</ele>
        <time>2020-07-07T18:21:46.000Z</time>
      </trkpt>
      <trkpt lat="43.63363" lon="3.70446">
        <ele>158</ele>
        <time>2020-07-07T18:21:47.000Z</time>
      </trkpt>
      <trkpt lat="43.63363" lon="3.70451">
        <ele>158</ele>
        <time>2020-07-07T18:21:48.000Z</time>
      </trkpt>
      <trkpt lat="43.63364" lon="3.70456">
        <ele>158</ele>
        <time>2020-07-07T18:21:49.000Z</time>
      </trkpt>
      <trkpt lat="43.63365" lon="3.70461">
        <ele>158</ele>
        <time>2020-07-07T18:21:50.000Z</time>
      </trkpt>
      <trkpt lat="43.63367" lon="3.70467">
        <ele>158</ele>
        <time>2020-07-07T18:21:51.000Z</time>
      </trkpt>
      <trkpt lat="43.63368" lon="3.70473">
        <ele>158</ele>
        <time>2020-07-07T18:21:52.000Z</time>
      </trkpt>
      <trkpt lat="43.6337" lon="3.70479">
        <ele>158</ele>
        <time>2020-07-07T18:21:53.000Z</time>
      </trkpt>
      <trkpt lat="43.63372" lon="3.70486">
        <ele>157.984</ele>
        <time>2020-07-07T18:21:54.000Z</time>
      </trkpt>
      <trkpt lat="43.63374" lon="3.70492">
        <ele>157.884</ele>
        <time>2020-07-07T18:21:55.000Z</time>
      </trkpt>
      <trkpt lat="43.63376" lon="3.70498">
        <ele>157.784</ele>
        <time>2020-07-07T18:21:56.000Z</time>
      </trkpt>
      <trkpt lat="43.63378" lon="3.70504">
        <ele>157.684</ele>
        <time>2020-07-07T18:21:57.000Z</time>
      </trkpt>
      <trkpt lat="43.6338" lon="3.7051">
        <ele>157.584</ele>
        <time>2020-07-07T18:21:58.000Z</time>
      </trkpt>
      <trkpt lat="43.6338" lon="3.70516">
        <ele>157.484</ele>
        <time>2020-07-07T18:21:59.000Z</time>
      </trkpt>
      <trkpt lat="43.63381" lon="3.70522">
        <ele>157.384</ele>
        <time>2020-07-07T18:22:00.000Z</time>
      </trkpt>
      <trkpt lat="43.63382" lon="3.70528">
        <ele>157.284</ele>
        <time>2020-07-07T18:22:01.000Z</time>
      </trkpt>
      <trkpt lat="43.63382" lon="3.70535">
        <ele>157.184</ele>
        <time>2020-07-07T18:22:02.000Z</time>
      </trkpt>
      <trkpt lat="43.63382" lon="3.70542">
        <ele>157.084</ele>
        <time>2020-07-07T18:22:03.000Z</time>
      </trkpt>
      <trkpt lat="43.63382" lon="3.70548">
        <ele>156.984</ele>
        <time>2020-07-07T18:22:04.000Z</time>
      </trkpt>
      <trkpt lat="43.63383" lon="3.70555">
        <ele>156.884</ele>
        <time>2020-07-07T18:22:05.000Z</time>
      </trkpt>
      <trkpt lat="43.63384" lon="3.70561">
        <ele>156.784</ele>
        <time>2020-07-07T18:22:06.000Z</time>
      </trkpt>
      <trkpt lat="43.63385" lon="3.70568">
        <ele>156.684</ele>
        <time>2020-07-07T18:22:07.000Z</time>
      </trkpt>
      <trkpt lat="43.63385" lon="3.70575">
        <ele>156.584</ele>
        <time>2020-07-07T18:22:08.000Z</time>
      </trkpt>
      <trkpt lat="43.63386" lon="3.70582">
        <ele>156.484</ele>
        <time>2020-07-07T18:22:09.000Z</time>
      </trkpt>
      <trkpt lat="43.63387" lon="3.70589">
        <ele>156.384</ele>
        <time>2020-07-07T18:22:10.000Z</time>
      </trkpt>
      <trkpt lat="43.6339" lon="3.70594">
        <ele>156.284</ele>
        <time>2020-07-07T18:22:11.000Z</time>
      </trkpt>
      <trkpt lat="43.63394" lon="3.70598">
        <ele>156.184</ele>
        <time>2020-07-07T18:22:12.000Z</time>
      </trkpt>
      <trkpt lat="43.63398" lon="3.70601">
        <ele>156.084</ele>
        <time>2020-07-07T18:22:13.000Z</time>
      </trkpt>
      <trkpt lat="43.63402" lon="3.70605">
        <ele>156</ele>
        <time>2020-07-07T18:22:14.000Z</time>
      </trkpt>
      <trkpt lat="43.63406" lon="3.70609">
        <ele>156</ele>
        <time>2020-07-07T18:22:15.000Z</time>
      </trkpt>
      <trkpt lat="43.63409" lon="3.70615">
        <ele>156</ele>
        <time>2020-07-07T18:22:16.000Z</time>
      </trkpt>
      <trkpt lat="43.6341" lon="3.70621">
        <ele>156</ele>
        <time>2020-07-07T18:22:17.000Z</time>
      </trkpt>
      <trkpt lat="43.63411" lon="3.70627">
        <ele>156</ele>
        <time>2020-07-07T18:22:18.000Z</time>
      </trkpt>
      <trkpt lat="43.63412" lon="3.70633">
        <ele>156</ele>
        <time>2020-07-07T18:22:19.000Z</time>
      </trkpt>
      <trkpt lat="43.63413" lon="3.70638">
        <ele>156</ele>
        <time>2020-07-07T18:22:20.000Z</time>
      </trkpt>
      <trkpt lat="43.63414" lon="3.70644">
        <ele>156</ele>
        <time>2020-07-07T18:22:21.000Z</time>
      </trkpt>
      <trkpt lat="43.63414" lon="3.70651">
        <ele>156</ele>
        <time>2020-07-07T18:22:22.000Z</time>
      </trkpt>
      <trkpt lat="43.63415" lon="3.70659">
        <ele>156</ele>
        <time>2020-07-07T18:22:23.000Z</time>
      </trkpt>
      <trkpt lat="43.63415" lon="3.70667">
        <ele>156</ele>
        <time>2020-07-07T18:22:24.000Z</time>
      </trkpt>
      <trkpt lat="43.63415" lon="3.70675">
        <ele>156</ele>
        <time>2020-07-07T18:22:25.000Z</time>
      </trkpt>
      <trkpt lat="43.63417" lon="3.70684">
        <ele>156</ele>
        <time>2020-07-07T18:22:26.000Z</time>
      </trkpt>
      <trkpt lat="43.63418" lon="3.70692">
        <ele>156</ele>
        <time>2020-07-07T18:22:27.000Z</time>
      </trkpt>
      <trkpt lat="43.6342" lon="3.707">
        <ele>156</ele>
        <time>2020-07-07T18:22:28.000Z</time>
      </trkpt>
      <trkpt lat="43.63422" lon="3.70708">
        <ele>156</ele>
        <time>2020-07-07T18:22:29.000Z</time>
      </trkpt>
      <trkpt lat="43.63423" lon="3.70716">
        <ele>156</ele>
        <time>2020-07-07T18:22:30.000Z</time>
      </trkpt>
      <trkpt lat="43.63425" lon="3.70724">
        <ele>156</ele>
        <time>2020-07-07T18:22:31.000Z</time>
      </trkpt>
      <trkpt lat="43.63427" lon="3.70732">
        <ele>156</ele>
        <time>2020-07-07T18:22:32.000Z</time>
      </trkpt>
      <trkpt lat="43.63428" lon="3.7074">
        <ele>156</ele>
        <time>2020-07-07T18:22:33.000Z</time>
      </trkpt>
      <trkpt lat="43.6343" lon="3.70747">
        <ele>156</ele>
        <time>2020-07-07T18:22:34.000Z</time>
      </trkpt>
      <trkpt lat="43.63432" lon="3.70755">
        <ele>156</ele>
        <time>2020-07-07T18:22:35.000Z</time>
      </trkpt>
      <trkpt lat="43.63433" lon="3.70763">
        <ele>156</ele>
        <time>2020-07-07T18:22:36.000Z</time>
      </trkpt>
      <trkpt lat="43.63434" lon="3.70771">
        <ele>156</ele>
        <time>2020-07-07T18:22:37.000Z</time>
      </trkpt>
      <trkpt lat="43.63435" lon="3.7078">
        <ele>156</ele>
        <time>2020-07-07T18:22:38.000Z</time>
      </trkpt>
      <trkpt lat="43.63437" lon="3.70788">
        <ele>156</ele>
        <time>2020-07-07T18:22:39.000Z</time>
      </trkpt>
      <trkpt lat="43.63438" lon="3.70796">
        <ele>156</ele>
        <time>2020-07-07T18:22:40.000Z</time>
      </trkpt>
      <trkpt lat="43.6344" lon="3.70804">
        <ele>156</ele>
        <time>2020-07-07T18:22:41.000Z</time>
      </trkpt>
      <trkpt lat="43.63441" lon="3.70812">
        <ele>156</ele>
        <time>2020-07-07T18:22:42.000Z</time>
      </trkpt>
      <trkpt lat="43.63442" lon="3.70821">
        <ele>156</ele>
        <time>2020-07-07T18:22:43.000Z</time>
      </trkpt>
      <trkpt lat="43.63444" lon="3.70829">
        <ele>155.9859713116</ele>
        <time>2020-07-07T18:22:44.000Z</time>
      </trkpt>
      <trkpt lat="43.63445" lon="3.70837">
        <ele>155.88577097506</ele>
        <time>2020-07-07T18:22:45.000Z</time>
      </trkpt>
      <trkpt lat="43.63446" lon="3.70845">
        <ele>155.78557063851</ele>
        <time>2020-07-07T18:22:46.000Z</time>
      </trkpt>
      <trkpt lat="43.63447" lon="3.70853">
        <ele>155.68537030197</ele>
        <time>2020-07-07T18:22:47.000Z</time>
      </trkpt>
      <trkpt lat="43.63448" lon="3.70861">
        <ele>155.58516996542</ele>
        <time>2020-07-07T18:22:48.000Z</time>
      </trkpt>
      <trkpt lat="43.63448" lon="3.7087">
        <ele>155.48496962888</ele>
        <time>2020-07-07T18:22:49.000Z</time>
      </trkpt>
      <trkpt lat="43.63449" lon="3.70878">
        <ele>155.38476929233</ele>
        <time>2020-07-07T18:22:50.000Z</time>
      </trkpt>
      <trkpt lat="43.63451" lon="3.70885">
        <ele>155.28456895579</ele>
        <time>2020-07-07T18:22:51.000Z</time>
      </trkpt>
      <trkpt lat="43.63455" lon="3.70891">
        <ele>155.18436861924</ele>
        <time>2020-07-07T18:22:52.000Z</time>
      </trkpt>
      <trkpt lat="43.63459" lon="3.70895">
        <ele>155.0841682827</ele>
        <time>2020-07-07T18:22:53.000Z</time>
      </trkpt>
      <trkpt lat="43.63464" lon="3.70897">
        <ele>155</ele>
        <time>2020-07-07T18:22:54.000Z</time>
      </trkpt>
      <trkpt lat="43.63469" lon="3.70897">
        <ele>155</ele>
        <time>2020-07-07T18:22:55.000Z</time>
      </trkpt>
      <trkpt lat="43.63474" lon="3.70896">
        <ele>155</ele>
        <time>2020-07-07T18:22:56.000Z</time>
      </trkpt>
      <trkpt lat="43.63479" lon="3.70896">
        <ele>155</ele>
        <time>2020-07-07T18:22:57.000Z</time>
      </trkpt>
      <trkpt lat="43.63484" lon="3.70897">
        <ele>155</ele>
        <time>2020-07-07T18:22:58.000Z</time>
      </trkpt>
      <trkpt lat="43.63489" lon="3.70899">
        <ele>155</ele>
        <time>2020-07-07T18:22:59.000Z</time>
      </trkpt>
      <trkpt lat="43.63495" lon="3.70902">
        <ele>155</ele>
        <time>2020-07-07T18:23:00.000Z</time>
      </trkpt>
      <trkpt lat="43.63499" lon="3.70907">
        <ele>155</ele>
        <time>2020-07-07T18:23:01.000Z</time>
      </trkpt>
      <trkpt lat="43.63504" lon="3.70911">
        <ele>155</ele>
        <time>2020-07-07T18:23:02.000Z</time>
      </trkpt>
      <trkpt lat="43.63509" lon="3.70915">
        <ele>155</ele>
        <time>2020-07-07T18:23:03.000Z</time>
      </trkpt>
      <trkpt lat="43.63513" lon="3.70916">
        <ele>155.01596807407</ele>
        <time>2020-07-07T18:23:04.000Z</time>
      </trkpt>
      <trkpt lat="43.63517" lon="3.70915">
        <ele>155.11576853702</ele>
        <time>2020-07-07T18:23:05.000Z</time>
      </trkpt>
      <trkpt lat="43.63521" lon="3.70913">
        <ele>155.21556899996</ele>
        <time>2020-07-07T18:23:06.000Z</time>
      </trkpt>
      <trkpt lat="43.63526" lon="3.70912">
        <ele>155.31536946291</ele>
        <time>2020-07-07T18:23:07.000Z</time>
      </trkpt>
      <trkpt lat="43.63529" lon="3.70913">
        <ele>155.41516992586</ele>
        <time>2020-07-07T18:23:08.000Z</time>
      </trkpt>
      <trkpt lat="43.63532" lon="3.70916">
        <ele>155.5149703888</ele>
        <time>2020-07-07T18:23:09.000Z</time>
      </trkpt>
      <trkpt lat="43.63533" lon="3.7092">
        <ele>155.61477085175</ele>
        <time>2020-07-07T18:23:10.000Z</time>
      </trkpt>
      <trkpt lat="43.63533" lon="3.70924">
        <ele>155.7145713147</ele>
        <time>2020-07-07T18:23:11.000Z</time>
      </trkpt>
      <trkpt lat="43.63534" lon="3.70927">
        <ele>155.81437177764</ele>
        <time>2020-07-07T18:23:12.000Z</time>
      </trkpt>
      <trkpt lat="43.63536" lon="3.7093">
        <ele>155.91417224059</ele>
        <time>2020-07-07T18:23:13.000Z</time>
      </trkpt>
      <trkpt lat="43.63537" lon="3.70933">
        <ele>156</ele>
        <time>2020-07-07T18:23:14.000Z</time>
      </trkpt>
      <trkpt lat="43.63538" lon="3.70937">
        <ele>156</ele>
        <time>2020-07-07T18:23:15.000Z</time>
      </trkpt>
      <trkpt lat="43.63539" lon="3.70941">
        <ele>156</ele>
        <time>2020-07-07T18:23:16.000Z</time>
      </trkpt>
      <trkpt lat="43.6354" lon="3.70944">
        <ele>156</ele>
        <time>2020-07-07T18:23:17.000Z</time>
      </trkpt>
      <trkpt lat="43.63543" lon="3.70946">
        <ele>156</ele>
        <time>2020-07-07T18:23:18.000Z</time>
      </trkpt>
      <trkpt lat="43.63545" lon="3.70947">
        <ele>156</ele>
        <time>2020-07-07T18:23:19.000Z</time>
      </trkpt>
      <trkpt lat="43.63548" lon="3.70946">
        <ele>156</ele>
        <time>2020-07-07T18:23:20.000Z</time>
      </trkpt>
      <trkpt lat="43.63551" lon="3.70945">
        <ele>156</ele>
        <time>2020-07-07T18:23:21.000Z</time>
      </trkpt>
      <trkpt lat="43.63554" lon="3.70945">
        <ele>156</ele>
        <time>2020-07-07T18:23:22.000Z</time>
      </trkpt>
      <trkpt lat="43.63556" lon="3.70945">
        <ele>156</ele>
        <time>2020-07-07T18:23:23.000Z</time>
      </trkpt>
      <trkpt lat="43.63559" lon="3.70946">
        <ele>156.01596807407</ele>
        <time>2020-07-07T18:23:24.000Z</time>
      </trkpt>
      <trkpt lat="43.63561" lon="3.70947">
        <ele>156.11576853702</ele>
        <time>2020-07-07T18:23:25.000Z</time>
      </trkpt>
      <trkpt lat="43.63564" lon="3.70947">
        <ele>156.21556899996</ele>
        <time>2020-07-07T18:23:26.000Z</time>
      </trkpt>
      <trkpt lat="43.63567" lon="3.70948">
        <ele>156.31536946291</ele>
        <time>2020-07-07T18:23:27.000Z</time>
      </trkpt>
      <trkpt lat="43.63569" lon="3.70949">
        <ele>156.41516992586</ele>
        <time>2020-07-07T18:23:28.000Z</time>
      </trkpt>
      <trkpt lat="43.6357" lon="3.70951">
        <ele>156.5149703888</ele>
        <time>2020-07-07T18:23:29.000Z</time>
      </trkpt>
      <trkpt lat="43.63571" lon="3.70954">
        <ele>156.61477085175</ele>
        <time>2020-07-07T18:23:30.000Z</time>
      </trkpt>
      <trkpt lat="43.63573" lon="3.70956">
        <ele>156.7145713147</ele>
        <time>2020-07-07T18:23:31.000Z</time>
      </trkpt>
      <trkpt lat="43.63574" lon="3.70956">
        <ele>156.81437177764</ele>
        <time>2020-07-07T18:23:32.000Z</time>
      </trkpt>
      <trkpt lat="43.63577" lon="3.70955">
        <ele>156.91417224059</ele>
        <time>2020-07-07T18:23:33.000Z</time>
      </trkpt>
      <trkpt lat="43.6358" lon="3.70955">
        <ele>157</ele>
        <time>2020-07-07T18:23:34.000Z</time>
      </trkpt>
      <trkpt lat="43.63583" lon="3.70954">
        <ele>157</ele>
        <time>2020-07-07T18:23:35.000Z</time>
      </trkpt>
      <trkpt lat="43.63586" lon="3.70953">
        <ele>157</ele>
        <time>2020-07-07T18:23:36.000Z</time>
      </trkpt>
      <trkpt lat="43.63589" lon="3.70952">
        <ele>157</ele>
        <time>2020-07-07T18:23:37.000Z</time>
      </trkpt>
      <trkpt lat="43.63591" lon="3.70951">
        <ele>157</ele>
        <time>2020-07-07T18:23:38.000Z</time>
      </trkpt>
      <trkpt lat="43.63593" lon="3.7095">
        <ele>157</ele>
        <time>2020-07-07T18:23:39.000Z</time>
      </trkpt>
      <trkpt lat="43.63595" lon="3.70948">
        <ele>157</ele>
        <time>2020-07-07T18:23:40.000Z</time>
      </trkpt>
      <trkpt lat="43.63598" lon="3.70947">
        <ele>157</ele>
        <time>2020-07-07T18:23:41.000Z</time>
      </trkpt>
      <trkpt lat="43.636" lon="3.70945">
        <ele>157</ele>
        <time>2020-07-07T18:23:42.000Z</time>
      </trkpt>
      <trkpt lat="43.63602" lon="3.70942">
        <ele>157</ele>
        <time>2020-07-07T18:23:43.000Z</time>
      </trkpt>
      <trkpt lat="43.63604" lon="3.70939">
        <ele>156.98445091839</ele>
        <time>2020-07-07T18:23:44.000Z</time>
      </trkpt>
      <trkpt lat="43.63605" lon="3.70935">
        <ele>156.88726915833</ele>
        <time>2020-07-07T18:23:45.000Z</time>
      </trkpt>
      <trkpt lat="43.63607" lon="3.70932">
        <ele>156.79008739828</ele>
        <time>2020-07-07T18:23:46.000Z</time>
      </trkpt>
      <trkpt lat="43.63609" lon="3.70928">
        <ele>156.69290563822</ele>
        <time>2020-07-07T18:23:47.000Z</time>
      </trkpt>
      <trkpt lat="43.63611" lon="3.70924">
        <ele>156.59572387816</ele>
        <time>2020-07-07T18:23:48.000Z</time>
      </trkpt>
      <trkpt lat="43.63613" lon="3.70919">
        <ele>156.49854211811</ele>
        <time>2020-07-07T18:23:49.000Z</time>
      </trkpt>
      <trkpt lat="43.63615" lon="3.70914">
        <ele>156.40136035805</ele>
        <time>2020-07-07T18:23:50.000Z</time>
      </trkpt>
      <trkpt lat="43.63616" lon="3.70908">
        <ele>156.30417859799</ele>
        <time>2020-07-07T18:23:51.000Z</time>
      </trkpt>
      <trkpt lat="43.63619" lon="3.70903">
        <ele>156.20699683794</ele>
        <time>2020-07-07T18:23:52.000Z</time>
      </trkpt>
      <trkpt lat="43.63621" lon="3.70897">
        <ele>156.10981507788</ele>
        <time>2020-07-07T18:23:53.000Z</time>
      </trkpt>
      <trkpt lat="43.63623" lon="3.70891">
        <ele>156.01263331783</ele>
        <time>2020-07-07T18:23:54.000Z</time>
      </trkpt>
      <trkpt lat="43.63625" lon="3.70886">
        <ele>155.91040134776</ele>
        <time>2020-07-07T18:23:55.000Z</time>
      </trkpt>
      <trkpt lat="43.63628" lon="3.7088">
        <ele>155.80741476996</ele>
        <time>2020-07-07T18:23:56.000Z</time>
      </trkpt>
      <trkpt lat="43.6363" lon="3.70875">
        <ele>155.70442819216</ele>
        <time>2020-07-07T18:23:57.000Z</time>
      </trkpt>
      <trkpt lat="43.63632" lon="3.70869">
        <ele>155.60144161435</ele>
        <time>2020-07-07T18:23:58.000Z</time>
      </trkpt>
      <trkpt lat="43.63633" lon="3.70863">
        <ele>155.49845503655</ele>
        <time>2020-07-07T18:23:59.000Z</time>
      </trkpt>
      <trkpt lat="43.63635" lon="3.70858">
        <ele>155.39546845875</ele>
        <time>2020-07-07T18:24:00.000Z</time>
      </trkpt>
      <trkpt lat="43.63636" lon="3.70852">
        <ele>155.29248188095</ele>
        <time>2020-07-07T18:24:01.000Z</time>
      </trkpt>
      <trkpt lat="43.63638" lon="3.70846">
        <ele>155.18949530315</ele>
        <time>2020-07-07T18:24:02.000Z</time>
      </trkpt>
      <trkpt lat="43.63641" lon="3.7084">
        <ele>155.08650872535</ele>
        <time>2020-07-07T18:24:03.000Z</time>
      </trkpt>
      <trkpt lat="43.63643" lon="3.70834">
        <ele>154.984</ele>
        <time>2020-07-07T18:24:04.000Z</time>
      </trkpt>
      <trkpt lat="43.63645" lon="3.70828">
        <ele>154.884</ele>
        <time>2020-07-07T18:24:05.000Z</time>
      </trkpt>
      <trkpt lat="43.63647" lon="3.70821">
        <ele>154.784</ele>
        <time>2020-07-07T18:24:06.000Z</time>
      </trkpt>
      <trkpt lat="43.63648" lon="3.70814">
        <ele>154.684</ele>
        <time>2020-07-07T18:24:07.000Z</time>
      </trkpt>
      <trkpt lat="43.6365" lon="3.70806">
        <ele>154.584</ele>
        <time>2020-07-07T18:24:08.000Z</time>
      </trkpt>
      <trkpt lat="43.63652" lon="3.70799">
        <ele>154.484</ele>
        <time>2020-07-07T18:24:09.000Z</time>
      </trkpt>
      <trkpt lat="43.63654" lon="3.70791">
        <ele>154.384</ele>
        <time>2020-07-07T18:24:10.000Z</time>
      </trkpt>
      <trkpt lat="43.63655" lon="3.70783">
        <ele>154.284</ele>
        <time>2020-07-07T18:24:11.000Z</time>
      </trkpt>
      <trkpt lat="43.63655" lon="3.70774">
        <ele>154.184</ele>
        <time>2020-07-07T18:24:12.000Z</time>
      </trkpt>
      <trkpt lat="43.63655" lon="3.70766">
        <ele>154.084</ele>
        <time>2020-07-07T18:24:13.000Z</time>
      </trkpt>
      <trkpt lat="43.63655" lon="3.70759">
        <ele>153.968</ele>
        <time>2020-07-07T18:24:14.000Z</time>
      </trkpt>
      <trkpt lat="43.63657" lon="3.70754">
        <ele>153.768</ele>
        <time>2020-07-07T18:24:15.000Z</time>
      </trkpt>
      <trkpt lat="43.6366" lon="3.70751">
        <ele>153.568</ele>
        <time>2020-07-07T18:24:16.000Z</time>
      </trkpt>
      <trkpt lat="43.63664" lon="3.70748">
        <ele>153.368</ele>
        <time>2020-07-07T18:24:17.000Z</time>
      </trkpt>
      <trkpt lat="43.63668" lon="3.70743">
        <ele>153.168</ele>
        <time>2020-07-07T18:24:18.000Z</time>
      </trkpt>
      <trkpt lat="43.63671" lon="3.70739">
        <ele>152.968</ele>
        <time>2020-07-07T18:24:19.000Z</time>
      </trkpt>
      <trkpt lat="43.63674" lon="3.70737">
        <ele>152.768</ele>
        <time>2020-07-07T18:24:20.000Z</time>
      </trkpt>
      <trkpt lat="43.63678" lon="3.70736">
        <ele>152.568</ele>
        <time>2020-07-07T18:24:21.000Z</time>
      </trkpt>
      <trkpt lat="43.63682" lon="3.70734">
        <ele>152.368</ele>
        <time>2020-07-07T18:24:22.000Z</time>
      </trkpt>
      <trkpt lat="43.63688" lon="3.70732">
        <ele>152.168</ele>
        <time>2020-07-07T18:24:23.000Z</time>
      </trkpt>
      <trkpt lat="43.63694" lon="3.7073">
        <ele>151.952</ele>
        <time>2020-07-07T18:24:24.000Z</time>
      </trkpt>
      <trkpt lat="43.637" lon="3.70729">
        <ele>151.652</ele>
        <time>2020-07-07T18:24:25.000Z</time>
      </trkpt>
      <trkpt lat="43.63706" lon="3.70727">
        <ele>151.352</ele>
        <time>2020-07-07T18:24:26.000Z</time>
      </trkpt>
      <trkpt lat="43.63712" lon="3.70725">
        <ele>151.052</ele>
        <time>2020-07-07T18:24:27.000Z</time>
      </trkpt>
      <trkpt lat="43.63716" lon="3.70724">
        <ele>150.752</ele>
        <time>2020-07-07T18:24:28.000Z</time>
      </trkpt>
      <trkpt lat="43.63721" lon="3.70724">
        <ele>150.452</ele>
        <time>2020-07-07T18:24:29.000Z</time>
      </trkpt>
      <trkpt lat="43.63724" lon="3.70727">
        <ele>150.152</ele>
        <time>2020-07-07T18:24:30.000Z</time>
      </trkpt>
      <trkpt lat="43.63727" lon="3.7073">
        <ele>149.852</ele>
        <time>2020-07-07T18:24:31.000Z</time>
      </trkpt>
      <trkpt lat="43.6373" lon="3.70732">
        <ele>149.552</ele>
        <time>2020-07-07T18:24:32.000Z</time>
      </trkpt>
      <trkpt lat="43.63732" lon="3.70732">
        <ele>149.252</ele>
        <time>2020-07-07T18:24:33.000Z</time>
      </trkpt>
      <trkpt lat="43.63735" lon="3.7073">
        <ele>148.968</ele>
        <time>2020-07-07T18:24:34.000Z</time>
      </trkpt>
      <trkpt lat="43.63738" lon="3.70726">
        <ele>148.768</ele>
        <time>2020-07-07T18:24:35.000Z</time>
      </trkpt>
      <trkpt lat="43.63741" lon="3.70722">
        <ele>148.568</ele>
        <time>2020-07-07T18:24:36.000Z</time>
      </trkpt>
      <trkpt lat="43.63745" lon="3.70719">
        <ele>148.368</ele>
        <time>2020-07-07T18:24:37.000Z</time>
      </trkpt>
      <trkpt lat="43.63748" lon="3.70716">
        <ele>148.168</ele>
        <time>2020-07-07T18:24:38.000Z</time>
      </trkpt>
      <trkpt lat="43.63752" lon="3.70712">
        <ele>147.968</ele>
        <time>2020-07-07T18:24:39.000Z</time>
      </trkpt>
      <trkpt lat="43.63756" lon="3.70709">
        <ele>147.768</ele>
        <time>2020-07-07T18:24:40.000Z</time>
      </trkpt>
      <trkpt lat="43.63759" lon="3.70705">
        <ele>147.568</ele>
        <time>2020-07-07T18:24:41.000Z</time>
      </trkpt>
      <trkpt lat="43.63762" lon="3.70701">
        <ele>147.368</ele>
        <time>2020-07-07T18:24:42.000Z</time>
      </trkpt>
      <trkpt lat="43.63766" lon="3.70696">
        <ele>147.168</ele>
        <time>2020-07-07T18:24:43.000Z</time>
      </trkpt>
      <trkpt lat="43.63768" lon="3.70691">
        <ele>146.96806385186</ele>
        <time>2020-07-07T18:24:44.000Z</time>
      </trkpt>
      <trkpt lat="43.6377" lon="3.70685">
        <ele>146.76846292596</ele>
        <time>2020-07-07T18:24:45.000Z</time>
      </trkpt>
      <trkpt lat="43.6377" lon="3.70678">
        <ele>146.56886200007</ele>
        <time>2020-07-07T18:24:46.000Z</time>
      </trkpt>
      <trkpt lat="43.63771" lon="3.70671">
        <ele>146.36926107418</ele>
        <time>2020-07-07T18:24:47.000Z</time>
      </trkpt>
      <trkpt lat="43.63771" lon="3.70663">
        <ele>146.16966014829</ele>
        <time>2020-07-07T18:24:48.000Z</time>
      </trkpt>
      <trkpt lat="43.63771" lon="3.70655">
        <ele>145.97005922239</ele>
        <time>2020-07-07T18:24:49.000Z</time>
      </trkpt>
      <trkpt lat="43.63771" lon="3.70648">
        <ele>145.7704582965</ele>
        <time>2020-07-07T18:24:50.000Z</time>
      </trkpt>
      <trkpt lat="43.63771" lon="3.7064">
        <ele>145.57085737061</ele>
        <time>2020-07-07T18:24:51.000Z</time>
      </trkpt>
      <trkpt lat="43.63771" lon="3.70632">
        <ele>145.37125644471</ele>
        <time>2020-07-07T18:24:52.000Z</time>
      </trkpt>
      <trkpt lat="43.63772" lon="3.70624">
        <ele>145.17165551882</ele>
        <time>2020-07-07T18:24:53.000Z</time>
      </trkpt>
      <trkpt lat="43.63773" lon="3.70616">
        <ele>144.9579139348</ele>
        <time>2020-07-07T18:24:54.000Z</time>
      </trkpt>
      <trkpt lat="43.63774" lon="3.70608">
        <ele>144.65731292517</ele>
        <time>2020-07-07T18:24:55.000Z</time>
      </trkpt>
      <trkpt lat="43.63776" lon="3.706">
        <ele>144.35671191553</ele>
        <time>2020-07-07T18:24:56.000Z</time>
      </trkpt>
      <trkpt lat="43.63777" lon="3.70592">
        <ele>144.0561109059</ele>
        <time>2020-07-07T18:24:57.000Z</time>
      </trkpt>
      <trkpt lat="43.63779" lon="3.70583">
        <ele>143.75550989627</ele>
        <time>2020-07-07T18:24:58.000Z</time>
      </trkpt>
      <trkpt lat="43.6378" lon="3.70575">
        <ele>143.45490888663</ele>
        <time>2020-07-07T18:24:59.000Z</time>
      </trkpt>
      <trkpt lat="43.6378" lon="3.70567">
        <ele>143.154307877</ele>
        <time>2020-07-07T18:25:00.000Z</time>
      </trkpt>
      <trkpt lat="43.63781" lon="3.70559">
        <ele>142.85370686736</ele>
        <time>2020-07-07T18:25:01.000Z</time>
      </trkpt>
      <trkpt lat="43.63783" lon="3.70551">
        <ele>142.55310585773</ele>
        <time>2020-07-07T18:25:02.000Z</time>
      </trkpt>
      <trkpt lat="43.63785" lon="3.70543">
        <ele>142.25250484809</ele>
        <time>2020-07-07T18:25:03.000Z</time>
      </trkpt>
      <trkpt lat="43.63789" lon="3.70536">
        <ele>141.936444906</ele>
        <time>2020-07-07T18:25:04.000Z</time>
      </trkpt>
      <trkpt lat="43.63793" lon="3.70528">
        <ele>141.53922556847</ele>
        <time>2020-07-07T18:25:05.000Z</time>
      </trkpt>
      <trkpt lat="43.63797" lon="3.7052">
        <ele>141.14200623094</ele>
        <time>2020-07-07T18:25:06.000Z</time>
      </trkpt>
      <trkpt lat="43.638" lon="3.70512">
        <ele>140.74478689341</ele>
        <time>2020-07-07T18:25:07.000Z</time>
      </trkpt>
      <trkpt lat="43.63804" lon="3.70504">
        <ele>140.34756755589</ele>
        <time>2020-07-07T18:25:08.000Z</time>
      </trkpt>
      <trkpt lat="43.63807" lon="3.70496">
        <ele>139.95034821836</ele>
        <time>2020-07-07T18:25:09.000Z</time>
      </trkpt>
      <trkpt lat="43.6381" lon="3.70489">
        <ele>139.55312888083</ele>
        <time>2020-07-07T18:25:10.000Z</time>
      </trkpt>
      <trkpt lat="43.63814" lon="3.70484">
        <ele>139.15590954331</ele>
        <time>2020-07-07T18:25:11.000Z</time>
      </trkpt>
      <trkpt lat="43.63819" lon="3.70482">
        <ele>138.75869020578</ele>
        <time>2020-07-07T18:25:12.000Z</time>
      </trkpt>
      <trkpt lat="43.63823" lon="3.70484">
        <ele>138.36147086825</ele>
        <time>2020-07-07T18:25:13.000Z</time>
      </trkpt>
      <trkpt lat="43.63828" lon="3.70487">
        <ele>137.99121125</ele>
        <time>2020-07-07T18:25:14.000Z</time>
      </trkpt>
      <trkpt lat="43.63833" lon="3.70492">
        <ele>137.893555</ele>
        <time>2020-07-07T18:25:15.000Z</time>
      </trkpt>
      <trkpt lat="43.63838" lon="3.70496">
        <ele>137.79589875</ele>
        <time>2020-07-07T18:25:16.000Z</time>
      </trkpt>
      <trkpt lat="43.63843" lon="3.705">
        <ele>137.6982425</ele>
        <time>2020-07-07T18:25:17.000Z</time>
      </trkpt>
      <trkpt lat="43.63849" lon="3.70504">
        <ele>137.60058625</ele>
        <time>2020-07-07T18:25:18.000Z</time>
      </trkpt>
      <trkpt lat="43.63854" lon="3.70508">
        <ele>137.50293</ele>
        <time>2020-07-07T18:25:19.000Z</time>
      </trkpt>
      <trkpt lat="43.6386" lon="3.70512">
        <ele>137.40527375</ele>
        <time>2020-07-07T18:25:20.000Z</time>
      </trkpt>
      <trkpt lat="43.63866" lon="3.70515">
        <ele>137.3076175</ele>
        <time>2020-07-07T18:25:21.000Z</time>
      </trkpt>
      <trkpt lat="43.63872" lon="3.70517">
        <ele>137.20996125</ele>
        <time>2020-07-07T18:25:22.000Z</time>
      </trkpt>
      <trkpt lat="43.63878" lon="3.70518">
        <ele>137.112305</ele>
        <time>2020-07-07T18:25:23.000Z</time>
      </trkpt>
      <trkpt lat="43.63885" lon="3.7052">
        <ele>137.01464875</ele>
        <time>2020-07-07T18:25:24.000Z</time>
      </trkpt>
      <trkpt lat="43.6389" lon="3.70523">
        <ele>136.91228100302</ele>
        <time>2020-07-07T18:25:25.000Z</time>
      </trkpt>
      <trkpt lat="43.63896" lon="3.70525">
        <ele>136.80908179454</ele>
        <time>2020-07-07T18:25:26.000Z</time>
      </trkpt>
      <trkpt lat="43.63901" lon="3.70528">
        <ele>136.70588258605</ele>
        <time>2020-07-07T18:25:27.000Z</time>
      </trkpt>
      <trkpt lat="43.63905" lon="3.70529">
        <ele>136.60268337756</ele>
        <time>2020-07-07T18:25:28.000Z</time>
      </trkpt>
      <trkpt lat="43.63909" lon="3.70527">
        <ele>136.49948416908</ele>
        <time>2020-07-07T18:25:29.000Z</time>
      </trkpt>
      <trkpt lat="43.63911" lon="3.70522">
        <ele>136.39628496059</ele>
        <time>2020-07-07T18:25:30.000Z</time>
      </trkpt>
      <trkpt lat="43.63912" lon="3.70517">
        <ele>136.2930857521</ele>
        <time>2020-07-07T18:25:31.000Z</time>
      </trkpt>
      <trkpt lat="43.63913" lon="3.7051">
        <ele>136.18988654362</ele>
        <time>2020-07-07T18:25:32.000Z</time>
      </trkpt>
      <trkpt lat="43.63914" lon="3.70504">
        <ele>136.08668733513</ele>
        <time>2020-07-07T18:25:33.000Z</time>
      </trkpt>
      <trkpt lat="43.63914" lon="3.70498">
        <ele>135.984</ele>
        <time>2020-07-07T18:25:34.000Z</time>
      </trkpt>
      <trkpt lat="43.63915" lon="3.70492">
        <ele>135.884</ele>
        <time>2020-07-07T18:25:35.000Z</time>
      </trkpt>
      <trkpt lat="43.63916" lon="3.70486">
        <ele>135.784</ele>
        <time>2020-07-07T18:25:36.000Z</time>
      </trkpt>
      <trkpt lat="43.63917" lon="3.70481">
        <ele>135.684</ele>
        <time>2020-07-07T18:25:37.000Z</time>
      </trkpt>
      <trkpt lat="43.63919" lon="3.70475">
        <ele>135.584</ele>
        <time>2020-07-07T18:25:38.000Z</time>
      </trkpt>
      <trkpt lat="43.6392" lon="3.70469">
        <ele>135.484</ele>
        <time>2020-07-07T18:25:39.000Z</time>
      </trkpt>
      <trkpt lat="43.63922" lon="3.70464">
        <ele>135.384</ele>
        <time>2020-07-07T18:25:40.000Z</time>
      </trkpt>
      <trkpt lat="43.63923" lon="3.70458">
        <ele>135.284</ele>
        <time>2020-07-07T18:25:41.000Z</time>
      </trkpt>
      <trkpt lat="43.63925" lon="3.70452">
        <ele>135.184</ele>
        <time>2020-07-07T18:25:42.000Z</time>
      </trkpt>
      <trkpt lat="43.63926" lon="3.70446">
        <ele>135.084</ele>
        <time>2020-07-07T18:25:43.000Z</time>
      </trkpt>
      <trkpt lat="43.63928" lon="3.70441">
        <ele>134.984</ele>
        <time>2020-07-07T18:25:44.000Z</time>
      </trkpt>
      <trkpt lat="43.63929" lon="3.70436">
        <ele>134.884</ele>
        <time>2020-07-07T18:25:45.000Z</time>
      </trkpt>
      <trkpt lat="43.6393" lon="3.70432">
        <ele>134.784</ele>
        <time>2020-07-07T18:25:46.000Z</time>
      </trkpt>
      <trkpt lat="43.63931" lon="3.7043">
        <ele>134.684</ele>
        <time>2020-07-07T18:25:47.000Z</time>
      </trkpt>
      <trkpt lat="43.63933" lon="3.70429">
        <ele>134.584</ele>
        <time>2020-07-07T18:25:48.000Z</time>
      </trkpt>
      <trkpt lat="43.63935" lon="3.70429">
        <ele>134.484</ele>
        <time>2020-07-07T18:25:49.000Z</time>
      </trkpt>
      <trkpt lat="43.63938" lon="3.70432">
        <ele>134.284</ele>
        <time>2020-07-07T18:25:51.000Z</time>
      </trkpt>
      <trkpt lat="43.63939" lon="3.70434">
        <ele>134.184</ele>
        <time>2020-07-07T18:25:52.000Z</time>
      </trkpt>
      <trkpt lat="43.63939" lon="3.70437">
        <ele>134.084</ele>
        <time>2020-07-07T18:25:53.000Z</time>
      </trkpt>
      <trkpt lat="43.6394" lon="3.7044">
        <ele>134.016</ele>
        <time>2020-07-07T18:25:54.000Z</time>
      </trkpt>
      <trkpt lat="43.63941" lon="3.70443">
        <ele>134.116</ele>
        <time>2020-07-07T18:25:55.000Z</time>
      </trkpt>
      <trkpt lat="43.63942" lon="3.70445">
        <ele>134.216</ele>
        <time>2020-07-07T18:25:56.000Z</time>
      </trkpt>
      <trkpt lat="43.63943" lon="3.70447">
        <ele>134.316</ele>
        <time>2020-07-07T18:25:57.000Z</time>
      </trkpt>
      <trkpt lat="43.63944" lon="3.7045">
        <ele>134.416</ele>
        <time>2020-07-07T18:25:58.000Z</time>
      </trkpt>
      <trkpt lat="43.63945" lon="3.70452">
        <ele>134.516</ele>
        <time>2020-07-07T18:25:59.000Z</time>
      </trkpt>
      <trkpt lat="43.63946" lon="3.70456">
        <ele>134.716</ele>
        <time>2020-07-07T18:26:01.000Z</time>
      </trkpt>
      <trkpt lat="43.63947" lon="3.70459">
        <ele>134.816</ele>
        <time>2020-07-07T18:26:02.000Z</time>
      </trkpt>
      <trkpt lat="43.63947" lon="3.70462">
        <ele>134.916</ele>
        <time>2020-07-07T18:26:03.000Z</time>
      </trkpt>
      <trkpt lat="43.63946" lon="3.70464">
        <ele>135</ele>
        <time>2020-07-07T18:26:04.000Z</time>
      </trkpt>
      <trkpt lat="43.63946" lon="3.70467">
        <ele>135</ele>
        <time>2020-07-07T18:26:05.000Z</time>
      </trkpt>
      <trkpt lat="43.63946" lon="3.7047">
        <ele>135</ele>
        <time>2020-07-07T18:26:06.000Z</time>
      </trkpt>
      <trkpt lat="43.63946" lon="3.70473">
        <ele>135</ele>
        <time>2020-07-07T18:26:07.000Z</time>
      </trkpt>
      <trkpt lat="43.63946" lon="3.70476">
        <ele>135</ele>
        <time>2020-07-07T18:26:08.000Z</time>
      </trkpt>
      <trkpt lat="43.63945" lon="3.7048">
        <ele>135</ele>
        <time>2020-07-07T18:26:09.000Z</time>
      </trkpt>
      <trkpt lat="43.63946" lon="3.70483">
        <ele>135</ele>
        <time>2020-07-07T18:26:10.000Z</time>
      </trkpt>
      <trkpt lat="43.63946" lon="3.70486">
        <ele>135</ele>
        <time>2020-07-07T18:26:11.000Z</time>
      </trkpt>
      <trkpt lat="43.63946" lon="3.70489">
        <ele>135</ele>
        <time>2020-07-07T18:26:12.000Z</time>
      </trkpt>
      <trkpt lat="43.63947" lon="3.70492">
        <ele>135</ele>
        <time>2020-07-07T18:26:13.000Z</time>
      </trkpt>
      <trkpt lat="43.63947" lon="3.70495">
        <ele>135.032</ele>
        <time>2020-07-07T18:26:14.000Z</time>
      </trkpt>
      <trkpt lat="43.63948" lon="3.70497">
        <ele>135.232</ele>
        <time>2020-07-07T18:26:15.000Z</time>
      </trkpt>
      <trkpt lat="43.63948" lon="3.705">
        <ele>135.432</ele>
        <time>2020-07-07T18:26:16.000Z</time>
      </trkpt>
      <trkpt lat="43.63948" lon="3.70503">
        <ele>135.632</ele>
        <time>2020-07-07T18:26:17.000Z</time>
      </trkpt>
      <trkpt lat="43.63949" lon="3.70506">
        <ele>135.832</ele>
        <time>2020-07-07T18:26:18.000Z</time>
      </trkpt>
      <trkpt lat="43.63949" lon="3.70509">
        <ele>136.032</ele>
        <time>2020-07-07T18:26:19.000Z</time>
      </trkpt>
      <trkpt lat="43.6395" lon="3.70512">
        <ele>136.232</ele>
        <time>2020-07-07T18:26:20.000Z</time>
      </trkpt>
      <trkpt lat="43.6395" lon="3.70515">
        <ele>136.432</ele>
        <time>2020-07-07T18:26:21.000Z</time>
      </trkpt>
      <trkpt lat="43.63951" lon="3.70517">
        <ele>136.632</ele>
        <time>2020-07-07T18:26:22.000Z</time>
      </trkpt>
      <trkpt lat="43.63951" lon="3.7052">
        <ele>136.832</ele>
        <time>2020-07-07T18:26:23.000Z</time>
      </trkpt>
      <trkpt lat="43.63952" lon="3.70522">
        <ele>137.016</ele>
        <time>2020-07-07T18:26:24.000Z</time>
      </trkpt>
      <trkpt lat="43.63953" lon="3.70525">
        <ele>137.116</ele>
        <time>2020-07-07T18:26:25.000Z</time>
      </trkpt>
      <trkpt lat="43.63954" lon="3.70529">
        <ele>137.316</ele>
        <time>2020-07-07T18:26:27.000Z</time>
      </trkpt>
      <trkpt lat="43.63955" lon="3.70534">
        <ele>137.516</ele>
        <time>2020-07-07T18:26:29.000Z</time>
      </trkpt>
      <trkpt lat="43.63956" lon="3.70536">
        <ele>137.616</ele>
        <time>2020-07-07T18:26:30.000Z</time>
      </trkpt>
      <trkpt lat="43.63957" lon="3.70538">
        <ele>137.716</ele>
        <time>2020-07-07T18:26:31.000Z</time>
      </trkpt>
      <trkpt lat="43.63958" lon="3.70542">
        <ele>137.916</ele>
        <time>2020-07-07T18:26:33.000Z</time>
      </trkpt>
      <trkpt lat="43.63961" lon="3.70545">
        <ele>138.22502417846</ele>
        <time>2020-07-07T18:26:35.000Z</time>
      </trkpt>
      <trkpt lat="43.63962" lon="3.70546">
        <ele>138.4190105392</ele>
        <time>2020-07-07T18:26:36.000Z</time>
      </trkpt>
      <trkpt lat="43.63966" lon="3.70548">
        <ele>138.80698326068</ele>
        <time>2020-07-07T18:26:38.000Z</time>
      </trkpt>
      <trkpt lat="43.63968" lon="3.70551">
        <ele>139.19495598217</ele>
        <time>2020-07-07T18:26:40.000Z</time>
      </trkpt>
      <trkpt lat="43.63969" lon="3.70554">
        <ele>139.38894234291</ele>
        <time>2020-07-07T18:26:41.000Z</time>
      </trkpt>
      <trkpt lat="43.6397" lon="3.70556">
        <ele>139.58292870365</ele>
        <time>2020-07-07T18:26:42.000Z</time>
      </trkpt>
      <trkpt lat="43.63971" lon="3.70559">
        <ele>139.77691506439</ele>
        <time>2020-07-07T18:26:43.000Z</time>
      </trkpt>
      <trkpt lat="43.63972" lon="3.70562">
        <ele>139.97090142513</ele>
        <time>2020-07-07T18:26:44.000Z</time>
      </trkpt>
      <trkpt lat="43.63973" lon="3.70564">
        <ele>140.08771899698</ele>
        <time>2020-07-07T18:26:45.000Z</time>
      </trkpt>
      <trkpt lat="43.63974" lon="3.70567">
        <ele>140.19091820546</ele>
        <time>2020-07-07T18:26:46.000Z</time>
      </trkpt>
      <trkpt lat="43.63975" lon="3.70569">
        <ele>140.29411741395</ele>
        <time>2020-07-07T18:26:47.000Z</time>
      </trkpt>
      <trkpt lat="43.63976" lon="3.70572">
        <ele>140.39731662244</ele>
        <time>2020-07-07T18:26:48.000Z</time>
      </trkpt>
      <trkpt lat="43.63977" lon="3.70574">
        <ele>140.50051583092</ele>
        <time>2020-07-07T18:26:49.000Z</time>
      </trkpt>
      <trkpt lat="43.63978" lon="3.70577">
        <ele>140.60371503941</ele>
        <time>2020-07-07T18:26:50.000Z</time>
      </trkpt>
      <trkpt lat="43.6398" lon="3.7058">
        <ele>140.7069142479</ele>
        <time>2020-07-07T18:26:51.000Z</time>
      </trkpt>
      <trkpt lat="43.63981" lon="3.70582">
        <ele>140.81011345638</ele>
        <time>2020-07-07T18:26:52.000Z</time>
      </trkpt>
      <trkpt lat="43.63981" lon="3.70585">
        <ele>140.91331266487</ele>
        <time>2020-07-07T18:26:53.000Z</time>
      </trkpt>
      <trkpt lat="43.63982" lon="3.70587">
        <ele>141.01547389739</ele>
        <time>2020-07-07T18:26:54.000Z</time>
      </trkpt>
      <trkpt lat="43.63983" lon="3.7059">
        <ele>141.11218575609</ele>
        <time>2020-07-07T18:26:55.000Z</time>
      </trkpt>
      <trkpt lat="43.63984" lon="3.70592">
        <ele>141.20889761479</ele>
        <time>2020-07-07T18:26:56.000Z</time>
      </trkpt>
      <trkpt lat="43.63984" lon="3.70595">
        <ele>141.30560947349</ele>
        <time>2020-07-07T18:26:57.000Z</time>
      </trkpt>
      <trkpt lat="43.63985" lon="3.70597">
        <ele>141.40232133219</ele>
        <time>2020-07-07T18:26:58.000Z</time>
      </trkpt>
      <trkpt lat="43.63986" lon="3.706">
        <ele>141.49903319089</ele>
        <time>2020-07-07T18:26:59.000Z</time>
      </trkpt>
      <trkpt lat="43.63987" lon="3.70602">
        <ele>141.59574504959</ele>
        <time>2020-07-07T18:27:00.000Z</time>
      </trkpt>
      <trkpt lat="43.63987" lon="3.70605">
        <ele>141.69245690829</ele>
        <time>2020-07-07T18:27:01.000Z</time>
      </trkpt>
      <trkpt lat="43.63989" lon="3.70607">
        <ele>141.78916876699</ele>
        <time>2020-07-07T18:27:02.000Z</time>
      </trkpt>
      <trkpt lat="43.6399" lon="3.70609">
        <ele>141.88588062569</ele>
        <time>2020-07-07T18:27:03.000Z</time>
      </trkpt>
      <trkpt lat="43.63991" lon="3.70611">
        <ele>141.98259248439</ele>
        <time>2020-07-07T18:27:04.000Z</time>
      </trkpt>
      <trkpt lat="43.63994" lon="3.70613">
        <ele>142</ele>
        <time>2020-07-07T18:27:06.000Z</time>
      </trkpt>
      <trkpt lat="43.63997" lon="3.70613">
        <ele>142</ele>
        <time>2020-07-07T18:27:08.000Z</time>
      </trkpt>
      <trkpt lat="43.64" lon="3.70609">
        <ele>142</ele>
        <time>2020-07-07T18:27:10.000Z</time>
      </trkpt>
      <trkpt lat="43.64002" lon="3.70606">
        <ele>142</ele>
        <time>2020-07-07T18:27:11.000Z</time>
      </trkpt>
      <trkpt lat="43.64004" lon="3.70603">
        <ele>142</ele>
        <time>2020-07-07T18:27:12.000Z</time>
      </trkpt>
      <trkpt lat="43.64006" lon="3.70599">
        <ele>142</ele>
        <time>2020-07-07T18:27:13.000Z</time>
      </trkpt>
      <trkpt lat="43.64009" lon="3.70595">
        <ele>142</ele>
        <time>2020-07-07T18:27:14.000Z</time>
      </trkpt>
      <trkpt lat="43.6401" lon="3.70592">
        <ele>141.90573770492</ele>
        <time>2020-07-07T18:27:15.000Z</time>
      </trkpt>
      <trkpt lat="43.64012" lon="3.70588">
        <ele>141.70081967213</ele>
        <time>2020-07-07T18:27:17.000Z</time>
      </trkpt>
      <trkpt lat="43.64014" lon="3.70585">
        <ele>141.49590163934</ele>
        <time>2020-07-07T18:27:19.000Z</time>
      </trkpt>
      <trkpt lat="43.64016" lon="3.70581">
        <ele>141.29098360656</ele>
        <time>2020-07-07T18:27:21.000Z</time>
      </trkpt>
      <trkpt lat="43.64017" lon="3.70577">
        <ele>141.08606557377</ele>
        <time>2020-07-07T18:27:23.000Z</time>
      </trkpt>
      <trkpt lat="43.64017" lon="3.70574">
        <ele>141.016</ele>
        <time>2020-07-07T18:27:24.000Z</time>
      </trkpt>
      <trkpt lat="43.64018" lon="3.70572">
        <ele>141.116</ele>
        <time>2020-07-07T18:27:25.000Z</time>
      </trkpt>
      <trkpt lat="43.64018" lon="3.70569">
        <ele>141.216</ele>
        <time>2020-07-07T18:27:26.000Z</time>
      </trkpt>
      <trkpt lat="43.64021" lon="3.70568">
        <ele>141.416</ele>
        <time>2020-07-07T18:27:28.000Z</time>
      </trkpt>
      <trkpt lat="43.64022" lon="3.70572">
        <ele>141.616</ele>
        <time>2020-07-07T18:27:30.000Z</time>
      </trkpt>
      <trkpt lat="43.64021" lon="3.70575">
        <ele>141.716</ele>
        <time>2020-07-07T18:27:31.000Z</time>
      </trkpt>
      <trkpt lat="43.64019" lon="3.70577">
        <ele>141.816</ele>
        <time>2020-07-07T18:27:32.000Z</time>
      </trkpt>
      <trkpt lat="43.64017" lon="3.70579">
        <ele>141.916</ele>
        <time>2020-07-07T18:27:33.000Z</time>
      </trkpt>
      <trkpt lat="43.64015" lon="3.70582">
        <ele>142.016</ele>
        <time>2020-07-07T18:27:34.000Z</time>
      </trkpt>
      <trkpt lat="43.64014" lon="3.70586">
        <ele>142.116</ele>
        <time>2020-07-07T18:27:35.000Z</time>
      </trkpt>
      <trkpt lat="43.64012" lon="3.70589">
        <ele>142.216</ele>
        <time>2020-07-07T18:27:36.000Z</time>
      </trkpt>
      <trkpt lat="43.6401" lon="3.70592">
        <ele>142.316</ele>
        <time>2020-07-07T18:27:37.000Z</time>
      </trkpt>
      <trkpt lat="43.64009" lon="3.70595">
        <ele>142.416</ele>
        <time>2020-07-07T18:27:38.000Z</time>
      </trkpt>
      <trkpt lat="43.64007" lon="3.70598">
        <ele>142.516</ele>
        <time>2020-07-07T18:27:39.000Z</time>
      </trkpt>
      <trkpt lat="43.64004" lon="3.70601">
        <ele>142.616</ele>
        <time>2020-07-07T18:27:40.000Z</time>
      </trkpt>
      <trkpt lat="43.64003" lon="3.70603">
        <ele>142.716</ele>
        <time>2020-07-07T18:27:41.000Z</time>
      </trkpt>
      <trkpt lat="43.64001" lon="3.70606">
        <ele>142.816</ele>
        <time>2020-07-07T18:27:42.000Z</time>
      </trkpt>
      <trkpt lat="43.63999" lon="3.70609">
        <ele>142.916</ele>
        <time>2020-07-07T18:27:43.000Z</time>
      </trkpt>
      <trkpt lat="43.63998" lon="3.70612">
        <ele>143.016</ele>
        <time>2020-07-07T18:27:44.000Z</time>
      </trkpt>
      <trkpt lat="43.63997" lon="3.70615">
        <ele>143.116</ele>
        <time>2020-07-07T18:27:45.000Z</time>
      </trkpt>
      <trkpt lat="43.63996" lon="3.70619">
        <ele>143.216</ele>
        <time>2020-07-07T18:27:46.000Z</time>
      </trkpt>
      <trkpt lat="43.63996" lon="3.70623">
        <ele>143.316</ele>
        <time>2020-07-07T18:27:47.000Z</time>
      </trkpt>
      <trkpt lat="43.63997" lon="3.70627">
        <ele>143.416</ele>
        <time>2020-07-07T18:27:48.000Z</time>
      </trkpt>
      <trkpt lat="43.63997" lon="3.70631">
        <ele>143.516</ele>
        <time>2020-07-07T18:27:49.000Z</time>
      </trkpt>
      <trkpt lat="43.63998" lon="3.70634">
        <ele>143.616</ele>
        <time>2020-07-07T18:27:50.000Z</time>
      </trkpt>
      <trkpt lat="43.63998" lon="3.70638">
        <ele>143.716</ele>
        <time>2020-07-07T18:27:51.000Z</time>
      </trkpt>
      <trkpt lat="43.63998" lon="3.70642">
        <ele>143.816</ele>
        <time>2020-07-07T18:27:52.000Z</time>
      </trkpt>
      <trkpt lat="43.63998" lon="3.70646">
        <ele>143.916</ele>
        <time>2020-07-07T18:27:53.000Z</time>
      </trkpt>
      <trkpt lat="43.63998" lon="3.7065">
        <ele>144</ele>
        <time>2020-07-07T18:27:54.000Z</time>
      </trkpt>
      <trkpt lat="43.63998" lon="3.70655">
        <ele>144</ele>
        <time>2020-07-07T18:27:55.000Z</time>
      </trkpt>
      <trkpt lat="43.63998" lon="3.70659">
        <ele>144</ele>
        <time>2020-07-07T18:27:56.000Z</time>
      </trkpt>
      <trkpt lat="43.63999" lon="3.70663">
        <ele>144</ele>
        <time>2020-07-07T18:27:57.000Z</time>
      </trkpt>
      <trkpt lat="43.63999" lon="3.70665">
        <ele>144</ele>
        <time>2020-07-07T18:27:58.000Z</time>
      </trkpt>
      <trkpt lat="43.63999" lon="3.70665">
        <ele>144</ele>
        <time>2020-07-07T18:28:03.000Z</time>
      </trkpt>
      <trkpt lat="43.63999" lon="3.70675">
        <ele>144.99666260408</ele>
        <time>2020-07-07T18:28:12.000Z</time>
      </trkpt>
      <trkpt lat="43.63999" lon="3.70678">
        <ele>145.09756097561</ele>
        <time>2020-07-07T18:28:13.000Z</time>
      </trkpt>
      <trkpt lat="43.63999" lon="3.70682">
        <ele>145.19918699187</ele>
        <time>2020-07-07T18:28:14.000Z</time>
      </trkpt>
      <trkpt lat="43.63999" lon="3.70685">
        <ele>145.30081300813</ele>
        <time>2020-07-07T18:28:15.000Z</time>
      </trkpt>
      <trkpt lat="43.63999" lon="3.70689">
        <ele>145.40243902439</ele>
        <time>2020-07-07T18:28:16.000Z</time>
      </trkpt>
      <trkpt lat="43.63999" lon="3.70693">
        <ele>145.50406504065</ele>
        <time>2020-07-07T18:28:17.000Z</time>
      </trkpt>
      <trkpt lat="43.63999" lon="3.70697">
        <ele>145.60569105691</ele>
        <time>2020-07-07T18:28:18.000Z</time>
      </trkpt>
      <trkpt lat="43.63999" lon="3.70701">
        <ele>145.70731707317</ele>
        <time>2020-07-07T18:28:19.000Z</time>
      </trkpt>
      <trkpt lat="43.63999" lon="3.70706">
        <ele>145.80894308943</ele>
        <time>2020-07-07T18:28:20.000Z</time>
      </trkpt>
      <trkpt lat="43.63999" lon="3.70711">
        <ele>145.91056910569</ele>
        <time>2020-07-07T18:28:21.000Z</time>
      </trkpt>
      <trkpt lat="43.63999" lon="3.70716">
        <ele>146</ele>
        <time>2020-07-07T18:28:22.000Z</time>
      </trkpt>
      <trkpt lat="43.63999" lon="3.70721">
        <ele>146</ele>
        <time>2020-07-07T18:28:23.000Z</time>
      </trkpt>
      <trkpt lat="43.63999" lon="3.70726">
        <ele>146</ele>
        <time>2020-07-07T18:28:24.000Z</time>
      </trkpt>
      <trkpt lat="43.63999" lon="3.70731">
        <ele>146</ele>
        <time>2020-07-07T18:28:25.000Z</time>
      </trkpt>
      <trkpt lat="43.63998" lon="3.70736">
        <ele>146</ele>
        <time>2020-07-07T18:28:26.000Z</time>
      </trkpt>
      <trkpt lat="43.63998" lon="3.70741">
        <ele>146</ele>
        <time>2020-07-07T18:28:27.000Z</time>
      </trkpt>
      <trkpt lat="43.63997" lon="3.70745">
        <ele>146</ele>
        <time>2020-07-07T18:28:28.000Z</time>
      </trkpt>
      <trkpt lat="43.63996" lon="3.7075">
        <ele>146</ele>
        <time>2020-07-07T18:28:29.000Z</time>
      </trkpt>
      <trkpt lat="43.63995" lon="3.70754">
        <ele>146</ele>
        <time>2020-07-07T18:28:30.000Z</time>
      </trkpt>
      <trkpt lat="43.63994" lon="3.70758">
        <ele>146</ele>
        <time>2020-07-07T18:28:31.000Z</time>
      </trkpt>
      <trkpt lat="43.63994" lon="3.70761">
        <ele>146</ele>
        <time>2020-07-07T18:28:32.000Z</time>
      </trkpt>
      <trkpt lat="43.63993" lon="3.70765">
        <ele>146.17919730449</ele>
        <time>2020-07-07T18:28:33.000Z</time>
      </trkpt>
      <trkpt lat="43.63992" lon="3.70769">
        <ele>146.38517046009</ele>
        <time>2020-07-07T18:28:34.000Z</time>
      </trkpt>
      <trkpt lat="43.63992" lon="3.70773">
        <ele>146.59114361569</ele>
        <time>2020-07-07T18:28:35.000Z</time>
      </trkpt>
      <trkpt lat="43.63991" lon="3.70776">
        <ele>146.79711677129</ele>
        <time>2020-07-07T18:28:36.000Z</time>
      </trkpt>
      <trkpt lat="43.6399" lon="3.7078">
        <ele>147.00308992689</ele>
        <time>2020-07-07T18:28:37.000Z</time>
      </trkpt>
      <trkpt lat="43.6399" lon="3.70783">
        <ele>147.20906308249</ele>
        <time>2020-07-07T18:28:38.000Z</time>
      </trkpt>
      <trkpt lat="43.6399" lon="3.70787">
        <ele>147.41503623809</ele>
        <time>2020-07-07T18:28:39.000Z</time>
      </trkpt>
      <trkpt lat="43.6399" lon="3.7079">
        <ele>147.62100939369</ele>
        <time>2020-07-07T18:28:40.000Z</time>
      </trkpt>
      <trkpt lat="43.6399" lon="3.70794">
        <ele>147.82698254929</ele>
        <time>2020-07-07T18:28:41.000Z</time>
      </trkpt>
      <trkpt lat="43.6399" lon="3.70798">
        <ele>148</ele>
        <time>2020-07-07T18:28:42.000Z</time>
      </trkpt>
      <trkpt lat="43.6399" lon="3.70802">
        <ele>148</ele>
        <time>2020-07-07T18:28:43.000Z</time>
      </trkpt>
      <trkpt lat="43.63989" lon="3.70806">
        <ele>148</ele>
        <time>2020-07-07T18:28:44.000Z</time>
      </trkpt>
      <trkpt lat="43.63989" lon="3.7081">
        <ele>148</ele>
        <time>2020-07-07T18:28:45.000Z</time>
      </trkpt>
      <trkpt lat="43.6399" lon="3.70814">
        <ele>148</ele>
        <time>2020-07-07T18:28:46.000Z</time>
      </trkpt>
      <trkpt lat="43.6399" lon="3.70818">
        <ele>148</ele>
        <time>2020-07-07T18:28:47.000Z</time>
      </trkpt>
      <trkpt lat="43.63989" lon="3.70822">
        <ele>148</ele>
        <time>2020-07-07T18:28:48.000Z</time>
      </trkpt>
      <trkpt lat="43.63989" lon="3.70826">
        <ele>148</ele>
        <time>2020-07-07T18:28:49.000Z</time>
      </trkpt>
      <trkpt lat="43.63989" lon="3.70831">
        <ele>148</ele>
        <time>2020-07-07T18:28:50.000Z</time>
      </trkpt>
      <trkpt lat="43.63989" lon="3.70836">
        <ele>148</ele>
        <time>2020-07-07T18:28:51.000Z</time>
      </trkpt>
      <trkpt lat="43.63988" lon="3.70841">
        <ele>148</ele>
        <time>2020-07-07T18:28:52.000Z</time>
      </trkpt>
      <trkpt lat="43.63988" lon="3.70846">
        <ele>148</ele>
        <time>2020-07-07T18:28:53.000Z</time>
      </trkpt>
      <trkpt lat="43.63987" lon="3.70852">
        <ele>148</ele>
        <time>2020-07-07T18:28:54.000Z</time>
      </trkpt>
      <trkpt lat="43.63986" lon="3.70858">
        <ele>148</ele>
        <time>2020-07-07T18:28:55.000Z</time>
      </trkpt>
      <trkpt lat="43.63985" lon="3.70863">
        <ele>148</ele>
        <time>2020-07-07T18:28:56.000Z</time>
      </trkpt>
      <trkpt lat="43.63983" lon="3.70869">
        <ele>148</ele>
        <time>2020-07-07T18:28:57.000Z</time>
      </trkpt>
      <trkpt lat="43.63981" lon="3.70874">
        <ele>148</ele>
        <time>2020-07-07T18:28:58.000Z</time>
      </trkpt>
      <trkpt lat="43.63979" lon="3.70879">
        <ele>148</ele>
        <time>2020-07-07T18:28:59.000Z</time>
      </trkpt>
      <trkpt lat="43.63977" lon="3.70884">
        <ele>148</ele>
        <time>2020-07-07T18:29:00.000Z</time>
      </trkpt>
      <trkpt lat="43.63975" lon="3.70888">
        <ele>148</ele>
        <time>2020-07-07T18:29:01.000Z</time>
      </trkpt>
      <trkpt lat="43.63973" lon="3.70893">
        <ele>148</ele>
        <time>2020-07-07T18:29:02.000Z</time>
      </trkpt>
      <trkpt lat="43.63972" lon="3.70899">
        <ele>148</ele>
        <time>2020-07-07T18:29:03.000Z</time>
      </trkpt>
      <trkpt lat="43.6397" lon="3.70904">
        <ele>148</ele>
        <time>2020-07-07T18:29:04.000Z</time>
      </trkpt>
      <trkpt lat="43.63969" lon="3.7091">
        <ele>148</ele>
        <time>2020-07-07T18:29:05.000Z</time>
      </trkpt>
      <trkpt lat="43.63969" lon="3.70915">
        <ele>148</ele>
        <time>2020-07-07T18:29:06.000Z</time>
      </trkpt>
      <trkpt lat="43.63967" lon="3.7092">
        <ele>148</ele>
        <time>2020-07-07T18:29:07.000Z</time>
      </trkpt>
      <trkpt lat="43.63966" lon="3.70924">
        <ele>148</ele>
        <time>2020-07-07T18:29:08.000Z</time>
      </trkpt>
      <trkpt lat="43.63967" lon="3.70926">
        <ele>148</ele>
        <time>2020-07-07T18:29:09.000Z</time>
      </trkpt>
      <trkpt lat="43.63968" lon="3.70929">
        <ele>148</ele>
        <time>2020-07-07T18:29:10.000Z</time>
      </trkpt>
      <trkpt lat="43.63968" lon="3.70933">
        <ele>148</ele>
        <time>2020-07-07T18:29:11.000Z</time>
      </trkpt>
      <trkpt lat="43.63967" lon="3.70937">
        <ele>148</ele>
        <time>2020-07-07T18:29:12.000Z</time>
      </trkpt>
      <trkpt lat="43.63967" lon="3.70942">
        <ele>148</ele>
        <time>2020-07-07T18:29:13.000Z</time>
      </trkpt>
      <trkpt lat="43.63966" lon="3.70947">
        <ele>148</ele>
        <time>2020-07-07T18:29:14.000Z</time>
      </trkpt>
      <trkpt lat="43.63964" lon="3.70952">
        <ele>148</ele>
        <time>2020-07-07T18:29:15.000Z</time>
      </trkpt>
      <trkpt lat="43.63962" lon="3.70957">
        <ele>148</ele>
        <time>2020-07-07T18:29:16.000Z</time>
      </trkpt>
      <trkpt lat="43.63959" lon="3.70964">
        <ele>148</ele>
        <time>2020-07-07T18:29:17.000Z</time>
      </trkpt>
      <trkpt lat="43.63957" lon="3.70972">
        <ele>148</ele>
        <time>2020-07-07T18:29:18.000Z</time>
      </trkpt>
      <trkpt lat="43.63954" lon="3.70979">
        <ele>148</ele>
        <time>2020-07-07T18:29:19.000Z</time>
      </trkpt>
      <trkpt lat="43.63952" lon="3.70986">
        <ele>148</ele>
        <time>2020-07-07T18:29:20.000Z</time>
      </trkpt>
      <trkpt lat="43.6395" lon="3.70993">
        <ele>148</ele>
        <time>2020-07-07T18:29:21.000Z</time>
      </trkpt>
      <trkpt lat="43.63948" lon="3.71">
        <ele>148</ele>
        <time>2020-07-07T18:29:22.000Z</time>
      </trkpt>
      <trkpt lat="43.63946" lon="3.71007">
        <ele>148</ele>
        <time>2020-07-07T18:29:23.000Z</time>
      </trkpt>
      <trkpt lat="43.63943" lon="3.71013">
        <ele>148</ele>
        <time>2020-07-07T18:29:24.000Z</time>
      </trkpt>
      <trkpt lat="43.6394" lon="3.71017">
        <ele>148</ele>
        <time>2020-07-07T18:29:25.000Z</time>
      </trkpt>
      <trkpt lat="43.63937" lon="3.71022">
        <ele>148</ele>
        <time>2020-07-07T18:29:26.000Z</time>
      </trkpt>
      <trkpt lat="43.63934" lon="3.71026">
        <ele>148</ele>
        <time>2020-07-07T18:29:27.000Z</time>
      </trkpt>
      <trkpt lat="43.63932" lon="3.7103">
        <ele>148</ele>
        <time>2020-07-07T18:29:28.000Z</time>
      </trkpt>
      <trkpt lat="43.63929" lon="3.71035">
        <ele>148</ele>
        <time>2020-07-07T18:29:29.000Z</time>
      </trkpt>
      <trkpt lat="43.63927" lon="3.7104">
        <ele>148</ele>
        <time>2020-07-07T18:29:30.000Z</time>
      </trkpt>
      <trkpt lat="43.63925" lon="3.71045">
        <ele>148</ele>
        <time>2020-07-07T18:29:31.000Z</time>
      </trkpt>
      <trkpt lat="43.63924" lon="3.71051">
        <ele>147.968</ele>
        <time>2020-07-07T18:29:32.000Z</time>
      </trkpt>
      <trkpt lat="43.63922" lon="3.71056">
        <ele>147.768</ele>
        <time>2020-07-07T18:29:33.000Z</time>
      </trkpt>
      <trkpt lat="43.63921" lon="3.71062">
        <ele>147.568</ele>
        <time>2020-07-07T18:29:34.000Z</time>
      </trkpt>
      <trkpt lat="43.6392" lon="3.71067">
        <ele>147.368</ele>
        <time>2020-07-07T18:29:35.000Z</time>
      </trkpt>
      <trkpt lat="43.63918" lon="3.71072">
        <ele>147.168</ele>
        <time>2020-07-07T18:29:36.000Z</time>
      </trkpt>
      <trkpt lat="43.63916" lon="3.71076">
        <ele>146.968</ele>
        <time>2020-07-07T18:29:37.000Z</time>
      </trkpt>
      <trkpt lat="43.63915" lon="3.71081">
        <ele>146.768</ele>
        <time>2020-07-07T18:29:38.000Z</time>
      </trkpt>
      <trkpt lat="43.63913" lon="3.71087">
        <ele>146.568</ele>
        <time>2020-07-07T18:29:39.000Z</time>
      </trkpt>
      <trkpt lat="43.63913" lon="3.71093">
        <ele>146.368</ele>
        <time>2020-07-07T18:29:40.000Z</time>
      </trkpt>
      <trkpt lat="43.63914" lon="3.71099">
        <ele>146.168</ele>
        <time>2020-07-07T18:29:41.000Z</time>
      </trkpt>
      <trkpt lat="43.63916" lon="3.71105">
        <ele>145.968</ele>
        <time>2020-07-07T18:29:42.000Z</time>
      </trkpt>
      <trkpt lat="43.6392" lon="3.71109">
        <ele>145.768</ele>
        <time>2020-07-07T18:29:43.000Z</time>
      </trkpt>
      <trkpt lat="43.63924" lon="3.71114">
        <ele>145.568</ele>
        <time>2020-07-07T18:29:44.000Z</time>
      </trkpt>
      <trkpt lat="43.63926" lon="3.71119">
        <ele>145.368</ele>
        <time>2020-07-07T18:29:45.000Z</time>
      </trkpt>
      <trkpt lat="43.63928" lon="3.71126">
        <ele>145.168</ele>
        <time>2020-07-07T18:29:46.000Z</time>
      </trkpt>
      <trkpt lat="43.63929" lon="3.71135">
        <ele>144.968</ele>
        <time>2020-07-07T18:29:47.000Z</time>
      </trkpt>
      <trkpt lat="43.6393" lon="3.71142">
        <ele>144.768</ele>
        <time>2020-07-07T18:29:48.000Z</time>
      </trkpt>
      <trkpt lat="43.63934" lon="3.71148">
        <ele>144.568</ele>
        <time>2020-07-07T18:29:49.000Z</time>
      </trkpt>
      <trkpt lat="43.63938" lon="3.71153">
        <ele>144.368</ele>
        <time>2020-07-07T18:29:50.000Z</time>
      </trkpt>
      <trkpt lat="43.63943" lon="3.71156">
        <ele>144.168</ele>
        <time>2020-07-07T18:29:51.000Z</time>
      </trkpt>
      <trkpt lat="43.63947" lon="3.71157">
        <ele>143.984</ele>
        <time>2020-07-07T18:29:52.000Z</time>
      </trkpt>
      <trkpt lat="43.63953" lon="3.71157">
        <ele>143.884</ele>
        <time>2020-07-07T18:29:53.000Z</time>
      </trkpt>
      <trkpt lat="43.63959" lon="3.71158">
        <ele>143.784</ele>
        <time>2020-07-07T18:29:54.000Z</time>
      </trkpt>
      <trkpt lat="43.63964" lon="3.71161">
        <ele>143.684</ele>
        <time>2020-07-07T18:29:55.000Z</time>
      </trkpt>
      <trkpt lat="43.6397" lon="3.71161">
        <ele>143.584</ele>
        <time>2020-07-07T18:29:56.000Z</time>
      </trkpt>
      <trkpt lat="43.63976" lon="3.7116">
        <ele>143.484</ele>
        <time>2020-07-07T18:29:57.000Z</time>
      </trkpt>
      <trkpt lat="43.63981" lon="3.71159">
        <ele>143.384</ele>
        <time>2020-07-07T18:29:58.000Z</time>
      </trkpt>
      <trkpt lat="43.63985" lon="3.71156">
        <ele>143.284</ele>
        <time>2020-07-07T18:29:59.000Z</time>
      </trkpt>
      <trkpt lat="43.63989" lon="3.71154">
        <ele>143.184</ele>
        <time>2020-07-07T18:30:00.000Z</time>
      </trkpt>
      <trkpt lat="43.63993" lon="3.71154">
        <ele>143.084</ele>
        <time>2020-07-07T18:30:01.000Z</time>
      </trkpt>
      <trkpt lat="43.63998" lon="3.71156">
        <ele>142.968</ele>
        <time>2020-07-07T18:30:02.000Z</time>
      </trkpt>
      <trkpt lat="43.64003" lon="3.71157">
        <ele>142.768</ele>
        <time>2020-07-07T18:30:03.000Z</time>
      </trkpt>
      <trkpt lat="43.64009" lon="3.71159">
        <ele>142.568</ele>
        <time>2020-07-07T18:30:04.000Z</time>
      </trkpt>
      <trkpt lat="43.64013" lon="3.71163">
        <ele>142.368</ele>
        <time>2020-07-07T18:30:05.000Z</time>
      </trkpt>
      <trkpt lat="43.64017" lon="3.71168">
        <ele>142.168</ele>
        <time>2020-07-07T18:30:06.000Z</time>
      </trkpt>
      <trkpt lat="43.6402" lon="3.71172">
        <ele>141.968</ele>
        <time>2020-07-07T18:30:07.000Z</time>
      </trkpt>
      <trkpt lat="43.64023" lon="3.71176">
        <ele>141.768</ele>
        <time>2020-07-07T18:30:08.000Z</time>
      </trkpt>
      <trkpt lat="43.64027" lon="3.71179">
        <ele>141.568</ele>
        <time>2020-07-07T18:30:09.000Z</time>
      </trkpt>
      <trkpt lat="43.6403" lon="3.7118">
        <ele>141.368</ele>
        <time>2020-07-07T18:30:10.000Z</time>
      </trkpt>
      <trkpt lat="43.64033" lon="3.71179">
        <ele>141.168</ele>
        <time>2020-07-07T18:30:11.000Z</time>
      </trkpt>
      <trkpt lat="43.64035" lon="3.71178">
        <ele>140.968</ele>
        <time>2020-07-07T18:30:12.000Z</time>
      </trkpt>
      <trkpt lat="43.64038" lon="3.71176">
        <ele>140.768</ele>
        <time>2020-07-07T18:30:13.000Z</time>
      </trkpt>
      <trkpt lat="43.64041" lon="3.71174">
        <ele>140.568</ele>
        <time>2020-07-07T18:30:14.000Z</time>
      </trkpt>
      <trkpt lat="43.64044" lon="3.71173">
        <ele>140.368</ele>
        <time>2020-07-07T18:30:15.000Z</time>
      </trkpt>
      <trkpt lat="43.64048" lon="3.71171">
        <ele>140.168</ele>
        <time>2020-07-07T18:30:16.000Z</time>
      </trkpt>
      <trkpt lat="43.64052" lon="3.7117">
        <ele>139.968</ele>
        <time>2020-07-07T18:30:17.000Z</time>
      </trkpt>
      <trkpt lat="43.64055" lon="3.71172">
        <ele>139.768</ele>
        <time>2020-07-07T18:30:18.000Z</time>
      </trkpt>
      <trkpt lat="43.64057" lon="3.71175">
        <ele>139.568</ele>
        <time>2020-07-07T18:30:19.000Z</time>
      </trkpt>
      <trkpt lat="43.64059" lon="3.71178">
        <ele>139.368</ele>
        <time>2020-07-07T18:30:20.000Z</time>
      </trkpt>
      <trkpt lat="43.64061" lon="3.71182">
        <ele>139.168</ele>
        <time>2020-07-07T18:30:21.000Z</time>
      </trkpt>
      <trkpt lat="43.64062" lon="3.71186">
        <ele>139</ele>
        <time>2020-07-07T18:30:22.000Z</time>
      </trkpt>
      <trkpt lat="43.64063" lon="3.7119">
        <ele>139</ele>
        <time>2020-07-07T18:30:23.000Z</time>
      </trkpt>
      <trkpt lat="43.64061" lon="3.71195">
        <ele>139</ele>
        <time>2020-07-07T18:30:24.000Z</time>
      </trkpt>
      <trkpt lat="43.64059" lon="3.71199">
        <ele>139</ele>
        <time>2020-07-07T18:30:25.000Z</time>
      </trkpt>
      <trkpt lat="43.64057" lon="3.71201">
        <ele>139</ele>
        <time>2020-07-07T18:30:26.000Z</time>
      </trkpt>
      <trkpt lat="43.64055" lon="3.71204">
        <ele>139</ele>
        <time>2020-07-07T18:30:27.000Z</time>
      </trkpt>
      <trkpt lat="43.64052" lon="3.71207">
        <ele>139</ele>
        <time>2020-07-07T18:30:28.000Z</time>
      </trkpt>
      <trkpt lat="43.64049" lon="3.7121">
        <ele>139</ele>
        <time>2020-07-07T18:30:29.000Z</time>
      </trkpt>
      <trkpt lat="43.64048" lon="3.71214">
        <ele>139</ele>
        <time>2020-07-07T18:30:30.000Z</time>
      </trkpt>
      <trkpt lat="43.64047" lon="3.71219">
        <ele>139</ele>
        <time>2020-07-07T18:30:31.000Z</time>
      </trkpt>
      <trkpt lat="43.64048" lon="3.71224">
        <ele>139.016</ele>
        <time>2020-07-07T18:30:32.000Z</time>
      </trkpt>
      <trkpt lat="43.64049" lon="3.71229">
        <ele>139.116</ele>
        <time>2020-07-07T18:30:33.000Z</time>
      </trkpt>
      <trkpt lat="43.64049" lon="3.71234">
        <ele>139.216</ele>
        <time>2020-07-07T18:30:34.000Z</time>
      </trkpt>
      <trkpt lat="43.6405" lon="3.71238">
        <ele>139.316</ele>
        <time>2020-07-07T18:30:35.000Z</time>
      </trkpt>
      <trkpt lat="43.6405" lon="3.71242">
        <ele>139.416</ele>
        <time>2020-07-07T18:30:36.000Z</time>
      </trkpt>
      <trkpt lat="43.6405" lon="3.71245">
        <ele>139.516</ele>
        <time>2020-07-07T18:30:37.000Z</time>
      </trkpt>
      <trkpt lat="43.6405" lon="3.7125">
        <ele>139.616</ele>
        <time>2020-07-07T18:30:38.000Z</time>
      </trkpt>
      <trkpt lat="43.64049" lon="3.71254">
        <ele>139.716</ele>
        <time>2020-07-07T18:30:39.000Z</time>
      </trkpt>
      <trkpt lat="43.64048" lon="3.71258">
        <ele>139.816</ele>
        <time>2020-07-07T18:30:40.000Z</time>
      </trkpt>
      <trkpt lat="43.64047" lon="3.71261">
        <ele>139.916</ele>
        <time>2020-07-07T18:30:41.000Z</time>
      </trkpt>
      <trkpt lat="43.64045" lon="3.71264">
        <ele>140</ele>
        <time>2020-07-07T18:30:42.000Z</time>
      </trkpt>
      <trkpt lat="43.64044" lon="3.71266">
        <ele>140</ele>
        <time>2020-07-07T18:30:43.000Z</time>
      </trkpt>
      <trkpt lat="43.64043" lon="3.71269">
        <ele>140</ele>
        <time>2020-07-07T18:30:44.000Z</time>
      </trkpt>
      <trkpt lat="43.64042" lon="3.71272">
        <ele>140</ele>
        <time>2020-07-07T18:30:45.000Z</time>
      </trkpt>
      <trkpt lat="43.64041" lon="3.71275">
        <ele>140</ele>
        <time>2020-07-07T18:30:46.000Z</time>
      </trkpt>
      <trkpt lat="43.6404" lon="3.71278">
        <ele>140</ele>
        <time>2020-07-07T18:30:47.000Z</time>
      </trkpt>
      <trkpt lat="43.64038" lon="3.7128">
        <ele>140</ele>
        <time>2020-07-07T18:30:48.000Z</time>
      </trkpt>
      <trkpt lat="43.64037" lon="3.71282">
        <ele>140</ele>
        <time>2020-07-07T18:30:49.000Z</time>
      </trkpt>
      <trkpt lat="43.64035" lon="3.71284">
        <ele>140</ele>
        <time>2020-07-07T18:30:50.000Z</time>
      </trkpt>
      <trkpt lat="43.64033" lon="3.71285">
        <ele>140</ele>
        <time>2020-07-07T18:30:51.000Z</time>
      </trkpt>
      <trkpt lat="43.64031" lon="3.71286">
        <ele>140</ele>
        <time>2020-07-07T18:30:52.000Z</time>
      </trkpt>
      <trkpt lat="43.64029" lon="3.71288">
        <ele>140</ele>
        <time>2020-07-07T18:30:53.000Z</time>
      </trkpt>
      <trkpt lat="43.64027" lon="3.71289">
        <ele>140</ele>
        <time>2020-07-07T18:30:54.000Z</time>
      </trkpt>
      <trkpt lat="43.64024" lon="3.7129">
        <ele>140</ele>
        <time>2020-07-07T18:30:55.000Z</time>
      </trkpt>
      <trkpt lat="43.64021" lon="3.71292">
        <ele>140</ele>
        <time>2020-07-07T18:30:56.000Z</time>
      </trkpt>
      <trkpt lat="43.64019" lon="3.71294">
        <ele>140</ele>
        <time>2020-07-07T18:30:57.000Z</time>
      </trkpt>
      <trkpt lat="43.64016" lon="3.71296">
        <ele>140</ele>
        <time>2020-07-07T18:30:58.000Z</time>
      </trkpt>
      <trkpt lat="43.64013" lon="3.71298">
        <ele>140</ele>
        <time>2020-07-07T18:30:59.000Z</time>
      </trkpt>
      <trkpt lat="43.64011" lon="3.713">
        <ele>140</ele>
        <time>2020-07-07T18:31:00.000Z</time>
      </trkpt>
      <trkpt lat="43.64008" lon="3.71303">
        <ele>140</ele>
        <time>2020-07-07T18:31:01.000Z</time>
      </trkpt>
      <trkpt lat="43.64005" lon="3.71305">
        <ele>140.01595213848</ele>
        <time>2020-07-07T18:31:02.000Z</time>
      </trkpt>
      <trkpt lat="43.64002" lon="3.71308">
        <ele>140.11565300398</ele>
        <time>2020-07-07T18:31:03.000Z</time>
      </trkpt>
      <trkpt lat="43.63999" lon="3.71311">
        <ele>140.21535386948</ele>
        <time>2020-07-07T18:31:04.000Z</time>
      </trkpt>
      <trkpt lat="43.63996" lon="3.71314">
        <ele>140.31505473498</ele>
        <time>2020-07-07T18:31:05.000Z</time>
      </trkpt>
      <trkpt lat="43.63994" lon="3.71316">
        <ele>140.41475560048</ele>
        <time>2020-07-07T18:31:06.000Z</time>
      </trkpt>
      <trkpt lat="43.63991" lon="3.71319">
        <ele>140.51445646598</ele>
        <time>2020-07-07T18:31:07.000Z</time>
      </trkpt>
      <trkpt lat="43.63989" lon="3.71321">
        <ele>140.61415733148</ele>
        <time>2020-07-07T18:31:08.000Z</time>
      </trkpt>
      <trkpt lat="43.63987" lon="3.71324">
        <ele>140.71385819697</ele>
        <time>2020-07-07T18:31:09.000Z</time>
      </trkpt>
      <trkpt lat="43.63986" lon="3.71328">
        <ele>140.81355906247</ele>
        <time>2020-07-07T18:31:10.000Z</time>
      </trkpt>
      <trkpt lat="43.63984" lon="3.71332">
        <ele>140.91325992797</ele>
        <time>2020-07-07T18:31:11.000Z</time>
      </trkpt>
      <trkpt lat="43.63982" lon="3.71335">
        <ele>141</ele>
        <time>2020-07-07T18:31:12.000Z</time>
      </trkpt>
      <trkpt lat="43.63981" lon="3.71339">
        <ele>141</ele>
        <time>2020-07-07T18:31:13.000Z</time>
      </trkpt>
      <trkpt lat="43.63979" lon="3.71343">
        <ele>141</ele>
        <time>2020-07-07T18:31:14.000Z</time>
      </trkpt>
      <trkpt lat="43.63976" lon="3.71345">
        <ele>141</ele>
        <time>2020-07-07T18:31:15.000Z</time>
      </trkpt>
      <trkpt lat="43.63974" lon="3.71347">
        <ele>141</ele>
        <time>2020-07-07T18:31:16.000Z</time>
      </trkpt>
      <trkpt lat="43.63971" lon="3.7135">
        <ele>141</ele>
        <time>2020-07-07T18:31:17.000Z</time>
      </trkpt>
      <trkpt lat="43.63968" lon="3.71352">
        <ele>141</ele>
        <time>2020-07-07T18:31:18.000Z</time>
      </trkpt>
      <trkpt lat="43.63966" lon="3.71354">
        <ele>141</ele>
        <time>2020-07-07T18:31:19.000Z</time>
      </trkpt>
      <trkpt lat="43.63963" lon="3.71355">
        <ele>141</ele>
        <time>2020-07-07T18:31:20.000Z</time>
      </trkpt>
      <trkpt lat="43.6396" lon="3.71356">
        <ele>141</ele>
        <time>2020-07-07T18:31:21.000Z</time>
      </trkpt>
      <trkpt lat="43.63958" lon="3.71358">
        <ele>141.016</ele>
        <time>2020-07-07T18:31:22.000Z</time>
      </trkpt>
      <trkpt lat="43.63956" lon="3.71359">
        <ele>141.116</ele>
        <time>2020-07-07T18:31:23.000Z</time>
      </trkpt>
      <trkpt lat="43.63954" lon="3.71362">
        <ele>141.216</ele>
        <time>2020-07-07T18:31:24.000Z</time>
      </trkpt>
      <trkpt lat="43.63952" lon="3.71364">
        <ele>141.316</ele>
        <time>2020-07-07T18:31:25.000Z</time>
      </trkpt>
      <trkpt lat="43.6395" lon="3.71366">
        <ele>141.416</ele>
        <time>2020-07-07T18:31:26.000Z</time>
      </trkpt>
      <trkpt lat="43.63948" lon="3.71368">
        <ele>141.516</ele>
        <time>2020-07-07T18:31:27.000Z</time>
      </trkpt>
      <trkpt lat="43.63947" lon="3.7137">
        <ele>141.616</ele>
        <time>2020-07-07T18:31:28.000Z</time>
      </trkpt>
      <trkpt lat="43.63946" lon="3.71372">
        <ele>141.716</ele>
        <time>2020-07-07T18:31:29.000Z</time>
      </trkpt>
      <trkpt lat="43.63945" lon="3.71375">
        <ele>141.816</ele>
        <time>2020-07-07T18:31:30.000Z</time>
      </trkpt>
      <trkpt lat="43.63945" lon="3.71378">
        <ele>141.916</ele>
        <time>2020-07-07T18:31:31.000Z</time>
      </trkpt>
      <trkpt lat="43.63944" lon="3.71382">
        <ele>142.01556420234</ele>
        <time>2020-07-07T18:31:32.000Z</time>
      </trkpt>
      <trkpt lat="43.63944" lon="3.71385">
        <ele>142.11284046693</ele>
        <time>2020-07-07T18:31:33.000Z</time>
      </trkpt>
      <trkpt lat="43.63944" lon="3.71389">
        <ele>142.21011673152</ele>
        <time>2020-07-07T18:31:34.000Z</time>
      </trkpt>
      <trkpt lat="43.63944" lon="3.71393">
        <ele>142.30739299611</ele>
        <time>2020-07-07T18:31:35.000Z</time>
      </trkpt>
      <trkpt lat="43.63944" lon="3.71397">
        <ele>142.4046692607</ele>
        <time>2020-07-07T18:31:36.000Z</time>
      </trkpt>
      <trkpt lat="43.63944" lon="3.714">
        <ele>142.50194552529</ele>
        <time>2020-07-07T18:31:37.000Z</time>
      </trkpt>
      <trkpt lat="43.63944" lon="3.71404">
        <ele>142.59922178988</ele>
        <time>2020-07-07T18:31:38.000Z</time>
      </trkpt>
      <trkpt lat="43.63945" lon="3.71408">
        <ele>142.69649805448</ele>
        <time>2020-07-07T18:31:39.000Z</time>
      </trkpt>
      <trkpt lat="43.63944" lon="3.71412">
        <ele>142.79377431907</ele>
        <time>2020-07-07T18:31:40.000Z</time>
      </trkpt>
      <trkpt lat="43.63943" lon="3.71416">
        <ele>142.89105058366</ele>
        <time>2020-07-07T18:31:41.000Z</time>
      </trkpt>
      <trkpt lat="43.63943" lon="3.7142">
        <ele>142.98832684825</ele>
        <time>2020-07-07T18:31:42.000Z</time>
      </trkpt>
      <trkpt lat="43.63943" lon="3.71424">
        <ele>143</ele>
        <time>2020-07-07T18:31:43.000Z</time>
      </trkpt>
      <trkpt lat="43.63943" lon="3.71429">
        <ele>143</ele>
        <time>2020-07-07T18:31:44.000Z</time>
      </trkpt>
      <trkpt lat="43.63944" lon="3.71433">
        <ele>143</ele>
        <time>2020-07-07T18:31:45.000Z</time>
      </trkpt>
      <trkpt lat="43.63944" lon="3.71437">
        <ele>143</ele>
        <time>2020-07-07T18:31:46.000Z</time>
      </trkpt>
      <trkpt lat="43.63944" lon="3.71441">
        <ele>143</ele>
        <time>2020-07-07T18:31:47.000Z</time>
      </trkpt>
      <trkpt lat="43.63944" lon="3.71445">
        <ele>143</ele>
        <time>2020-07-07T18:31:48.000Z</time>
      </trkpt>
      <trkpt lat="43.63944" lon="3.71449">
        <ele>143</ele>
        <time>2020-07-07T18:31:49.000Z</time>
      </trkpt>
      <trkpt lat="43.63944" lon="3.71453">
        <ele>143</ele>
        <time>2020-07-07T18:31:50.000Z</time>
      </trkpt>
      <trkpt lat="43.63944" lon="3.71457">
        <ele>143</ele>
        <time>2020-07-07T18:31:51.000Z</time>
      </trkpt>
      <trkpt lat="43.63943" lon="3.71461">
        <ele>143.016</ele>
        <time>2020-07-07T18:31:52.000Z</time>
      </trkpt>
      <trkpt lat="43.63943" lon="3.71464">
        <ele>143.116</ele>
        <time>2020-07-07T18:31:53.000Z</time>
      </trkpt>
      <trkpt lat="43.63942" lon="3.71468">
        <ele>143.216</ele>
        <time>2020-07-07T18:31:54.000Z</time>
      </trkpt>
      <trkpt lat="43.63943" lon="3.71472">
        <ele>143.316</ele>
        <time>2020-07-07T18:31:55.000Z</time>
      </trkpt>
      <trkpt lat="43.63943" lon="3.71475">
        <ele>143.416</ele>
        <time>2020-07-07T18:31:56.000Z</time>
      </trkpt>
      <trkpt lat="43.63945" lon="3.71478">
        <ele>143.516</ele>
        <time>2020-07-07T18:31:57.000Z</time>
      </trkpt>
      <trkpt lat="43.63946" lon="3.7148">
        <ele>143.616</ele>
        <time>2020-07-07T18:31:58.000Z</time>
      </trkpt>
      <trkpt lat="43.63948" lon="3.71482">
        <ele>143.716</ele>
        <time>2020-07-07T18:31:59.000Z</time>
      </trkpt>
      <trkpt lat="43.6395" lon="3.71484">
        <ele>143.816</ele>
        <time>2020-07-07T18:32:00.000Z</time>
      </trkpt>
      <trkpt lat="43.63951" lon="3.71485">
        <ele>143.916</ele>
        <time>2020-07-07T18:32:01.000Z</time>
      </trkpt>
      <trkpt lat="43.63953" lon="3.71487">
        <ele>144.016</ele>
        <time>2020-07-07T18:32:02.000Z</time>
      </trkpt>
      <trkpt lat="43.63955" lon="3.71489">
        <ele>144.116</ele>
        <time>2020-07-07T18:32:03.000Z</time>
      </trkpt>
      <trkpt lat="43.63956" lon="3.71491">
        <ele>144.216</ele>
        <time>2020-07-07T18:32:04.000Z</time>
      </trkpt>
      <trkpt lat="43.63957" lon="3.71493">
        <ele>144.316</ele>
        <time>2020-07-07T18:32:05.000Z</time>
      </trkpt>
      <trkpt lat="43.63957" lon="3.71496">
        <ele>144.416</ele>
        <time>2020-07-07T18:32:06.000Z</time>
      </trkpt>
      <trkpt lat="43.63958" lon="3.71498">
        <ele>144.516</ele>
        <time>2020-07-07T18:32:07.000Z</time>
      </trkpt>
      <trkpt lat="43.63959" lon="3.71503">
        <ele>144.716</ele>
        <time>2020-07-07T18:32:09.000Z</time>
      </trkpt>
      <trkpt lat="43.63959" lon="3.71507">
        <ele>144.916</ele>
        <time>2020-07-07T18:32:11.000Z</time>
      </trkpt>
      <trkpt lat="43.63959" lon="3.7151">
        <ele>145.032</ele>
        <time>2020-07-07T18:32:12.000Z</time>
      </trkpt>
      <trkpt lat="43.6396" lon="3.71512">
        <ele>145.232</ele>
        <time>2020-07-07T18:32:13.000Z</time>
      </trkpt>
      <trkpt lat="43.6396" lon="3.71515">
        <ele>145.432</ele>
        <time>2020-07-07T18:32:14.000Z</time>
      </trkpt>
      <trkpt lat="43.6396" lon="3.71518">
        <ele>145.632</ele>
        <time>2020-07-07T18:32:15.000Z</time>
      </trkpt>
      <trkpt lat="43.6396" lon="3.71522">
        <ele>146.032</ele>
        <time>2020-07-07T18:32:17.000Z</time>
      </trkpt>
      <trkpt lat="43.63961" lon="3.71526">
        <ele>146.432</ele>
        <time>2020-07-07T18:32:19.000Z</time>
      </trkpt>
      <trkpt lat="43.63961" lon="3.71531">
        <ele>146.832</ele>
        <time>2020-07-07T18:32:21.000Z</time>
      </trkpt>
      <trkpt lat="43.63962" lon="3.71535">
        <ele>147.116</ele>
        <time>2020-07-07T18:32:23.000Z</time>
      </trkpt>
      <trkpt lat="43.63962" lon="3.71539">
        <ele>147.316</ele>
        <time>2020-07-07T18:32:25.000Z</time>
      </trkpt>
      <trkpt lat="43.63961" lon="3.71544">
        <ele>147.516</ele>
        <time>2020-07-07T18:32:27.000Z</time>
      </trkpt>
      <trkpt lat="43.63961" lon="3.71546">
        <ele>147.616</ele>
        <time>2020-07-07T18:32:28.000Z</time>
      </trkpt>
      <trkpt lat="43.6396" lon="3.71549">
        <ele>147.716</ele>
        <time>2020-07-07T18:32:29.000Z</time>
      </trkpt>
      <trkpt lat="43.63959" lon="3.71551">
        <ele>147.816</ele>
        <time>2020-07-07T18:32:30.000Z</time>
      </trkpt>
      <trkpt lat="43.63959" lon="3.71554">
        <ele>147.916</ele>
        <time>2020-07-07T18:32:31.000Z</time>
      </trkpt>
      <trkpt lat="43.63958" lon="3.71556">
        <ele>147.984</ele>
        <time>2020-07-07T18:32:32.000Z</time>
      </trkpt>
      <trkpt lat="43.63956" lon="3.71558">
        <ele>147.884</ele>
        <time>2020-07-07T18:32:33.000Z</time>
      </trkpt>
      <trkpt lat="43.63955" lon="3.7156">
        <ele>147.784</ele>
        <time>2020-07-07T18:32:34.000Z</time>
      </trkpt>
      <trkpt lat="43.63953" lon="3.71562">
        <ele>147.684</ele>
        <time>2020-07-07T18:32:35.000Z</time>
      </trkpt>
      <trkpt lat="43.63951" lon="3.71563">
        <ele>147.584</ele>
        <time>2020-07-07T18:32:36.000Z</time>
      </trkpt>
      <trkpt lat="43.63949" lon="3.71564">
        <ele>147.484</ele>
        <time>2020-07-07T18:32:37.000Z</time>
      </trkpt>
      <trkpt lat="43.63946" lon="3.71567">
        <ele>147.384</ele>
        <time>2020-07-07T18:32:38.000Z</time>
      </trkpt>
      <trkpt lat="43.63945" lon="3.7157">
        <ele>147.284</ele>
        <time>2020-07-07T18:32:39.000Z</time>
      </trkpt>
      <trkpt lat="43.63945" lon="3.71573">
        <ele>147.184</ele>
        <time>2020-07-07T18:32:40.000Z</time>
      </trkpt>
      <trkpt lat="43.63945" lon="3.71577">
        <ele>146.984</ele>
        <time>2020-07-07T18:32:42.000Z</time>
      </trkpt>
      <trkpt lat="43.63945" lon="3.71581">
        <ele>146.784</ele>
        <time>2020-07-07T18:32:44.000Z</time>
      </trkpt>
      <trkpt lat="43.63944" lon="3.71586">
        <ele>146.584</ele>
        <time>2020-07-07T18:32:46.000Z</time>
      </trkpt>
      <trkpt lat="43.63944" lon="3.7159">
        <ele>146.484</ele>
        <time>2020-07-07T18:32:47.000Z</time>
      </trkpt>
      <trkpt lat="43.63944" lon="3.71594">
        <ele>146.384</ele>
        <time>2020-07-07T18:32:48.000Z</time>
      </trkpt>
      <trkpt lat="43.63942" lon="3.71598">
        <ele>146.284</ele>
        <time>2020-07-07T18:32:49.000Z</time>
      </trkpt>
      <trkpt lat="43.63941" lon="3.71601">
        <ele>146.184</ele>
        <time>2020-07-07T18:32:50.000Z</time>
      </trkpt>
      <trkpt lat="43.63939" lon="3.71602">
        <ele>146.084</ele>
        <time>2020-07-07T18:32:51.000Z</time>
      </trkpt>
      <trkpt lat="43.63936" lon="3.71601">
        <ele>145.884</ele>
        <time>2020-07-07T18:32:53.000Z</time>
      </trkpt>
      <trkpt lat="43.63935" lon="3.71599">
        <ele>145.784</ele>
        <time>2020-07-07T18:32:54.000Z</time>
      </trkpt>
      <trkpt lat="43.63933" lon="3.71597">
        <ele>145.684</ele>
        <time>2020-07-07T18:32:55.000Z</time>
      </trkpt>
      <trkpt lat="43.63932" lon="3.71595">
        <ele>145.584</ele>
        <time>2020-07-07T18:32:56.000Z</time>
      </trkpt>
      <trkpt lat="43.6393" lon="3.71592">
        <ele>145.484</ele>
        <time>2020-07-07T18:32:57.000Z</time>
      </trkpt>
      <trkpt lat="43.63928" lon="3.7159">
        <ele>145.384</ele>
        <time>2020-07-07T18:32:58.000Z</time>
      </trkpt>
      <trkpt lat="43.63927" lon="3.71588">
        <ele>145.284</ele>
        <time>2020-07-07T18:32:59.000Z</time>
      </trkpt>
      <trkpt lat="43.63925" lon="3.71586">
        <ele>145.184</ele>
        <time>2020-07-07T18:33:00.000Z</time>
      </trkpt>
      <trkpt lat="43.63924" lon="3.71584">
        <ele>145.084</ele>
        <time>2020-07-07T18:33:01.000Z</time>
      </trkpt>
      <trkpt lat="43.63922" lon="3.71582">
        <ele>145.0158887735</ele>
        <time>2020-07-07T18:33:02.000Z</time>
      </trkpt>
      <trkpt lat="43.63921" lon="3.71581">
        <ele>145.11519360788</ele>
        <time>2020-07-07T18:33:03.000Z</time>
      </trkpt>
      <trkpt lat="43.6392" lon="3.71579">
        <ele>145.21449844227</ele>
        <time>2020-07-07T18:33:04.000Z</time>
      </trkpt>
      <trkpt lat="43.63918" lon="3.71577">
        <ele>145.31380327665</ele>
        <time>2020-07-07T18:33:05.000Z</time>
      </trkpt>
      <trkpt lat="43.63917" lon="3.71575">
        <ele>145.41310811103</ele>
        <time>2020-07-07T18:33:06.000Z</time>
      </trkpt>
      <trkpt lat="43.63916" lon="3.71573">
        <ele>145.51241294541</ele>
        <time>2020-07-07T18:33:07.000Z</time>
      </trkpt>
      <trkpt lat="43.63915" lon="3.71572">
        <ele>145.61171777979</ele>
        <time>2020-07-07T18:33:08.000Z</time>
      </trkpt>
      <trkpt lat="43.63913" lon="3.7157">
        <ele>145.71102261417</ele>
        <time>2020-07-07T18:33:09.000Z</time>
      </trkpt>
      <trkpt lat="43.63912" lon="3.71568">
        <ele>145.81032744856</ele>
        <time>2020-07-07T18:33:10.000Z</time>
      </trkpt>
      <trkpt lat="43.6391" lon="3.71566">
        <ele>145.90963228294</ele>
        <time>2020-07-07T18:33:11.000Z</time>
      </trkpt>
      <trkpt lat="43.63909" lon="3.71565">
        <ele>146</ele>
        <time>2020-07-07T18:33:12.000Z</time>
      </trkpt>
      <trkpt lat="43.63907" lon="3.71563">
        <ele>146</ele>
        <time>2020-07-07T18:33:13.000Z</time>
      </trkpt>
      <trkpt lat="43.63905" lon="3.71561">
        <ele>146</ele>
        <time>2020-07-07T18:33:14.000Z</time>
      </trkpt>
      <trkpt lat="43.63904" lon="3.7156">
        <ele>146</ele>
        <time>2020-07-07T18:33:15.000Z</time>
      </trkpt>
      <trkpt lat="43.63902" lon="3.71558">
        <ele>146</ele>
        <time>2020-07-07T18:33:16.000Z</time>
      </trkpt>
      <trkpt lat="43.63901" lon="3.71556">
        <ele>146</ele>
        <time>2020-07-07T18:33:17.000Z</time>
      </trkpt>
      <trkpt lat="43.63899" lon="3.71554">
        <ele>146</ele>
        <time>2020-07-07T18:33:18.000Z</time>
      </trkpt>
      <trkpt lat="43.63898" lon="3.71552">
        <ele>146</ele>
        <time>2020-07-07T18:33:19.000Z</time>
      </trkpt>
      <trkpt lat="43.63896" lon="3.7155">
        <ele>146</ele>
        <time>2020-07-07T18:33:20.000Z</time>
      </trkpt>
      <trkpt lat="43.63895" lon="3.71548">
        <ele>146</ele>
        <time>2020-07-07T18:33:21.000Z</time>
      </trkpt>
      <trkpt lat="43.63893" lon="3.71547">
        <ele>146.01553397093</ele>
        <time>2020-07-07T18:33:22.000Z</time>
      </trkpt>
      <trkpt lat="43.63891" lon="3.71545">
        <ele>146.11262128924</ele>
        <time>2020-07-07T18:33:23.000Z</time>
      </trkpt>
      <trkpt lat="43.6389" lon="3.71543">
        <ele>146.20970860756</ele>
        <time>2020-07-07T18:33:24.000Z</time>
      </trkpt>
      <trkpt lat="43.63888" lon="3.71542">
        <ele>146.30679592587</ele>
        <time>2020-07-07T18:33:25.000Z</time>
      </trkpt>
      <trkpt lat="43.63886" lon="3.7154">
        <ele>146.40388324419</ele>
        <time>2020-07-07T18:33:26.000Z</time>
      </trkpt>
      <trkpt lat="43.63885" lon="3.71538">
        <ele>146.5009705625</ele>
        <time>2020-07-07T18:33:27.000Z</time>
      </trkpt>
      <trkpt lat="43.63883" lon="3.71537">
        <ele>146.59805788082</ele>
        <time>2020-07-07T18:33:28.000Z</time>
      </trkpt>
      <trkpt lat="43.63881" lon="3.71535">
        <ele>146.69514519913</ele>
        <time>2020-07-07T18:33:29.000Z</time>
      </trkpt>
      <trkpt lat="43.63879" lon="3.71533">
        <ele>146.79223251745</ele>
        <time>2020-07-07T18:33:30.000Z</time>
      </trkpt>
      <trkpt lat="43.63877" lon="3.71532">
        <ele>146.88931983576</ele>
        <time>2020-07-07T18:33:31.000Z</time>
      </trkpt>
      <trkpt lat="43.63875" lon="3.71529">
        <ele>146.98640715408</ele>
        <time>2020-07-07T18:33:32.000Z</time>
      </trkpt>
      <trkpt lat="43.63873" lon="3.71527">
        <ele>147</ele>
        <time>2020-07-07T18:33:33.000Z</time>
      </trkpt>
      <trkpt lat="43.63871" lon="3.71525">
        <ele>147</ele>
        <time>2020-07-07T18:33:34.000Z</time>
      </trkpt>
      <trkpt lat="43.63868" lon="3.71523">
        <ele>147</ele>
        <time>2020-07-07T18:33:35.000Z</time>
      </trkpt>
      <trkpt lat="43.63866" lon="3.7152">
        <ele>147</ele>
        <time>2020-07-07T18:33:36.000Z</time>
      </trkpt>
      <trkpt lat="43.63864" lon="3.71518">
        <ele>147</ele>
        <time>2020-07-07T18:33:37.000Z</time>
      </trkpt>
      <trkpt lat="43.63861" lon="3.71515">
        <ele>147</ele>
        <time>2020-07-07T18:33:38.000Z</time>
      </trkpt>
      <trkpt lat="43.63859" lon="3.71513">
        <ele>147</ele>
        <time>2020-07-07T18:33:39.000Z</time>
      </trkpt>
      <trkpt lat="43.63857" lon="3.7151">
        <ele>147</ele>
        <time>2020-07-07T18:33:40.000Z</time>
      </trkpt>
      <trkpt lat="43.63855" lon="3.71508">
        <ele>147</ele>
        <time>2020-07-07T18:33:41.000Z</time>
      </trkpt>
      <trkpt lat="43.63853" lon="3.71505">
        <ele>147</ele>
        <time>2020-07-07T18:33:42.000Z</time>
      </trkpt>
      <trkpt lat="43.6385" lon="3.71503">
        <ele>147</ele>
        <time>2020-07-07T18:33:43.000Z</time>
      </trkpt>
      <trkpt lat="43.63848" lon="3.715">
        <ele>147</ele>
        <time>2020-07-07T18:33:44.000Z</time>
      </trkpt>
      <trkpt lat="43.63845" lon="3.71498">
        <ele>147</ele>
        <time>2020-07-07T18:33:45.000Z</time>
      </trkpt>
      <trkpt lat="43.63843" lon="3.71495">
        <ele>147</ele>
        <time>2020-07-07T18:33:46.000Z</time>
      </trkpt>
      <trkpt lat="43.63841" lon="3.71492">
        <ele>147</ele>
        <time>2020-07-07T18:33:47.000Z</time>
      </trkpt>
      <trkpt lat="43.63838" lon="3.71489">
        <ele>147</ele>
        <time>2020-07-07T18:33:48.000Z</time>
      </trkpt>
      <trkpt lat="43.63836" lon="3.71486">
        <ele>147</ele>
        <time>2020-07-07T18:33:49.000Z</time>
      </trkpt>
      <trkpt lat="43.63833" lon="3.71484">
        <ele>147</ele>
        <time>2020-07-07T18:33:50.000Z</time>
      </trkpt>
      <trkpt lat="43.6383" lon="3.71482">
        <ele>147</ele>
        <time>2020-07-07T18:33:51.000Z</time>
      </trkpt>
      <trkpt lat="43.63828" lon="3.71479">
        <ele>147</ele>
        <time>2020-07-07T18:33:52.000Z</time>
      </trkpt>
      <trkpt lat="43.63825" lon="3.71478">
        <ele>147</ele>
        <time>2020-07-07T18:33:53.000Z</time>
      </trkpt>
      <trkpt lat="43.63822" lon="3.71476">
        <ele>147</ele>
        <time>2020-07-07T18:33:54.000Z</time>
      </trkpt>
      <trkpt lat="43.63819" lon="3.71475">
        <ele>147</ele>
        <time>2020-07-07T18:33:55.000Z</time>
      </trkpt>
      <trkpt lat="43.63816" lon="3.71473">
        <ele>147</ele>
        <time>2020-07-07T18:33:56.000Z</time>
      </trkpt>
      <trkpt lat="43.63813" lon="3.71471">
        <ele>147</ele>
        <time>2020-07-07T18:33:57.000Z</time>
      </trkpt>
      <trkpt lat="43.6381" lon="3.71469">
        <ele>147</ele>
        <time>2020-07-07T18:33:58.000Z</time>
      </trkpt>
      <trkpt lat="43.63807" lon="3.71468">
        <ele>147</ele>
        <time>2020-07-07T18:33:59.000Z</time>
      </trkpt>
      <trkpt lat="43.63805" lon="3.71466">
        <ele>147</ele>
        <time>2020-07-07T18:34:00.000Z</time>
      </trkpt>
      <trkpt lat="43.63802" lon="3.71465">
        <ele>147</ele>
        <time>2020-07-07T18:34:01.000Z</time>
      </trkpt>
      <trkpt lat="43.63799" lon="3.71463">
        <ele>146.984</ele>
        <time>2020-07-07T18:34:02.000Z</time>
      </trkpt>
      <trkpt lat="43.63796" lon="3.71461">
        <ele>146.884</ele>
        <time>2020-07-07T18:34:03.000Z</time>
      </trkpt>
      <trkpt lat="43.63793" lon="3.7146">
        <ele>146.784</ele>
        <time>2020-07-07T18:34:04.000Z</time>
      </trkpt>
      <trkpt lat="43.6379" lon="3.71458">
        <ele>146.684</ele>
        <time>2020-07-07T18:34:05.000Z</time>
      </trkpt>
      <trkpt lat="43.63787" lon="3.71456">
        <ele>146.584</ele>
        <time>2020-07-07T18:34:06.000Z</time>
      </trkpt>
      <trkpt lat="43.63784" lon="3.71455">
        <ele>146.484</ele>
        <time>2020-07-07T18:34:07.000Z</time>
      </trkpt>
      <trkpt lat="43.63781" lon="3.71453">
        <ele>146.384</ele>
        <time>2020-07-07T18:34:08.000Z</time>
      </trkpt>
      <trkpt lat="43.63778" lon="3.71452">
        <ele>146.284</ele>
        <time>2020-07-07T18:34:09.000Z</time>
      </trkpt>
      <trkpt lat="43.63774" lon="3.7145">
        <ele>146.184</ele>
        <time>2020-07-07T18:34:10.000Z</time>
      </trkpt>
      <trkpt lat="43.63771" lon="3.71449">
        <ele>146.084</ele>
        <time>2020-07-07T18:34:11.000Z</time>
      </trkpt>
      <trkpt lat="43.63768" lon="3.71448">
        <ele>146</ele>
        <time>2020-07-07T18:34:12.000Z</time>
      </trkpt>
      <trkpt lat="43.63765" lon="3.71447">
        <ele>146</ele>
        <time>2020-07-07T18:34:13.000Z</time>
      </trkpt>
      <trkpt lat="43.63762" lon="3.71446">
        <ele>146</ele>
        <time>2020-07-07T18:34:14.000Z</time>
      </trkpt>
      <trkpt lat="43.63758" lon="3.71447">
        <ele>146</ele>
        <time>2020-07-07T18:34:15.000Z</time>
      </trkpt>
      <trkpt lat="43.63755" lon="3.71447">
        <ele>146</ele>
        <time>2020-07-07T18:34:16.000Z</time>
      </trkpt>
      <trkpt lat="43.63752" lon="3.71448">
        <ele>146</ele>
        <time>2020-07-07T18:34:17.000Z</time>
      </trkpt>
      <trkpt lat="43.63748" lon="3.71448">
        <ele>146</ele>
        <time>2020-07-07T18:34:18.000Z</time>
      </trkpt>
      <trkpt lat="43.63745" lon="3.71448">
        <ele>146</ele>
        <time>2020-07-07T18:34:19.000Z</time>
      </trkpt>
      <trkpt lat="43.63741" lon="3.71448">
        <ele>146</ele>
        <time>2020-07-07T18:34:20.000Z</time>
      </trkpt>
      <trkpt lat="43.63737" lon="3.71449">
        <ele>146</ele>
        <time>2020-07-07T18:34:21.000Z</time>
      </trkpt>
      <trkpt lat="43.63734" lon="3.71449">
        <ele>146.01573255166</ele>
        <time>2020-07-07T18:34:22.000Z</time>
      </trkpt>
      <trkpt lat="43.6373" lon="3.71449">
        <ele>146.11406099951</ele>
        <time>2020-07-07T18:34:23.000Z</time>
      </trkpt>
      <trkpt lat="43.63727" lon="3.7145">
        <ele>146.21238944736</ele>
        <time>2020-07-07T18:34:24.000Z</time>
      </trkpt>
      <trkpt lat="43.63723" lon="3.7145">
        <ele>146.31071789521</ele>
        <time>2020-07-07T18:34:25.000Z</time>
      </trkpt>
      <trkpt lat="43.6372" lon="3.71451">
        <ele>146.40904634306</ele>
        <time>2020-07-07T18:34:26.000Z</time>
      </trkpt>
      <trkpt lat="43.63716" lon="3.71451">
        <ele>146.50737479091</ele>
        <time>2020-07-07T18:34:27.000Z</time>
      </trkpt>
      <trkpt lat="43.63712" lon="3.71452">
        <ele>146.60570323877</ele>
        <time>2020-07-07T18:34:28.000Z</time>
      </trkpt>
      <trkpt lat="43.63709" lon="3.71452">
        <ele>146.70403168662</ele>
        <time>2020-07-07T18:34:29.000Z</time>
      </trkpt>
      <trkpt lat="43.63705" lon="3.71453">
        <ele>146.80236013447</ele>
        <time>2020-07-07T18:34:30.000Z</time>
      </trkpt>
      <trkpt lat="43.63701" lon="3.71453">
        <ele>146.90068858232</ele>
        <time>2020-07-07T18:34:31.000Z</time>
      </trkpt>
      <trkpt lat="43.63698" lon="3.71454">
        <ele>146.99901703017</ele>
        <time>2020-07-07T18:34:32.000Z</time>
      </trkpt>
      <trkpt lat="43.63695" lon="3.71454">
        <ele>147</ele>
        <time>2020-07-07T18:34:33.000Z</time>
      </trkpt>
      <trkpt lat="43.63691" lon="3.71455">
        <ele>147</ele>
        <time>2020-07-07T18:34:34.000Z</time>
      </trkpt>
      <trkpt lat="43.63688" lon="3.71456">
        <ele>147</ele>
        <time>2020-07-07T18:34:35.000Z</time>
      </trkpt>
      <trkpt lat="43.63684" lon="3.71456">
        <ele>147</ele>
        <time>2020-07-07T18:34:36.000Z</time>
      </trkpt>
      <trkpt lat="43.63681" lon="3.71457">
        <ele>147</ele>
        <time>2020-07-07T18:34:37.000Z</time>
      </trkpt>
      <trkpt lat="43.63678" lon="3.71458">
        <ele>147</ele>
        <time>2020-07-07T18:34:38.000Z</time>
      </trkpt>
      <trkpt lat="43.63675" lon="3.7146">
        <ele>147</ele>
        <time>2020-07-07T18:34:39.000Z</time>
      </trkpt>
      <trkpt lat="43.63672" lon="3.71461">
        <ele>147</ele>
        <time>2020-07-07T18:34:40.000Z</time>
      </trkpt>
      <trkpt lat="43.63668" lon="3.71462">
        <ele>147</ele>
        <time>2020-07-07T18:34:41.000Z</time>
      </trkpt>
      <trkpt lat="43.63665" lon="3.71463">
        <ele>147.01556420234</ele>
        <time>2020-07-07T18:34:42.000Z</time>
      </trkpt>
      <trkpt lat="43.63662" lon="3.71465">
        <ele>147.11284046693</ele>
        <time>2020-07-07T18:34:43.000Z</time>
      </trkpt>
      <trkpt lat="43.63659" lon="3.71466">
        <ele>147.21011673152</ele>
        <time>2020-07-07T18:34:44.000Z</time>
      </trkpt>
      <trkpt lat="43.63656" lon="3.71468">
        <ele>147.30739299611</ele>
        <time>2020-07-07T18:34:45.000Z</time>
      </trkpt>
      <trkpt lat="43.63653" lon="3.7147">
        <ele>147.4046692607</ele>
        <time>2020-07-07T18:34:46.000Z</time>
      </trkpt>
      <trkpt lat="43.63651" lon="3.71472">
        <ele>147.50194552529</ele>
        <time>2020-07-07T18:34:47.000Z</time>
      </trkpt>
      <trkpt lat="43.63648" lon="3.71475">
        <ele>147.59922178988</ele>
        <time>2020-07-07T18:34:48.000Z</time>
      </trkpt>
      <trkpt lat="43.63645" lon="3.71477">
        <ele>147.69649805448</ele>
        <time>2020-07-07T18:34:49.000Z</time>
      </trkpt>
      <trkpt lat="43.63643" lon="3.7148">
        <ele>147.79377431907</ele>
        <time>2020-07-07T18:34:50.000Z</time>
      </trkpt>
      <trkpt lat="43.63641" lon="3.71482">
        <ele>147.89105058366</ele>
        <time>2020-07-07T18:34:51.000Z</time>
      </trkpt>
      <trkpt lat="43.63638" lon="3.71485">
        <ele>147.98832684825</ele>
        <time>2020-07-07T18:34:52.000Z</time>
      </trkpt>
      <trkpt lat="43.63637" lon="3.71488">
        <ele>148.09053497942</ele>
        <time>2020-07-07T18:34:53.000Z</time>
      </trkpt>
      <trkpt lat="43.63635" lon="3.71492">
        <ele>148.19341563786</ele>
        <time>2020-07-07T18:34:54.000Z</time>
      </trkpt>
      <trkpt lat="43.63633" lon="3.71495">
        <ele>148.2962962963</ele>
        <time>2020-07-07T18:34:55.000Z</time>
      </trkpt>
      <trkpt lat="43.63631" lon="3.71498">
        <ele>148.39917695473</ele>
        <time>2020-07-07T18:34:56.000Z</time>
      </trkpt>
      <trkpt lat="43.63629" lon="3.71501">
        <ele>148.50205761317</ele>
        <time>2020-07-07T18:34:57.000Z</time>
      </trkpt>
      <trkpt lat="43.63628" lon="3.71504">
        <ele>148.6049382716</ele>
        <time>2020-07-07T18:34:58.000Z</time>
      </trkpt>
      <trkpt lat="43.63626" lon="3.71508">
        <ele>148.70781893004</ele>
        <time>2020-07-07T18:34:59.000Z</time>
      </trkpt>
      <trkpt lat="43.63625" lon="3.71511">
        <ele>148.81069958848</ele>
        <time>2020-07-07T18:35:00.000Z</time>
      </trkpt>
      <trkpt lat="43.63623" lon="3.71514">
        <ele>148.91358024691</ele>
        <time>2020-07-07T18:35:01.000Z</time>
      </trkpt>
      <trkpt lat="43.63621" lon="3.71518">
        <ele>149.01593783987</ele>
        <time>2020-07-07T18:35:02.000Z</time>
      </trkpt>
      <trkpt lat="43.63619" lon="3.71521">
        <ele>149.11554933909</ele>
        <time>2020-07-07T18:35:03.000Z</time>
      </trkpt>
      <trkpt lat="43.63617" lon="3.71525">
        <ele>149.2151608383</ele>
        <time>2020-07-07T18:35:04.000Z</time>
      </trkpt>
      <trkpt lat="43.63615" lon="3.71528">
        <ele>149.31477233752</ele>
        <time>2020-07-07T18:35:05.000Z</time>
      </trkpt>
      <trkpt lat="43.63613" lon="3.71531">
        <ele>149.41438383673</ele>
        <time>2020-07-07T18:35:06.000Z</time>
      </trkpt>
      <trkpt lat="43.63611" lon="3.71534">
        <ele>149.51399533595</ele>
        <time>2020-07-07T18:35:07.000Z</time>
      </trkpt>
      <trkpt lat="43.6361" lon="3.71537">
        <ele>149.61360683517</ele>
        <time>2020-07-07T18:35:08.000Z</time>
      </trkpt>
      <trkpt lat="43.63608" lon="3.7154">
        <ele>149.71321833438</ele>
        <time>2020-07-07T18:35:09.000Z</time>
      </trkpt>
      <trkpt lat="43.63606" lon="3.71543">
        <ele>149.8128298336</ele>
        <time>2020-07-07T18:35:10.000Z</time>
      </trkpt>
      <trkpt lat="43.63604" lon="3.71546">
        <ele>149.91244133281</ele>
        <time>2020-07-07T18:35:11.000Z</time>
      </trkpt>
      <trkpt lat="43.63602" lon="3.71549">
        <ele>150.01214721609</ele>
        <time>2020-07-07T18:35:12.000Z</time>
      </trkpt>
      <trkpt lat="43.63601" lon="3.71552">
        <ele>150.11253875917</ele>
        <time>2020-07-07T18:35:13.000Z</time>
      </trkpt>
      <trkpt lat="43.63599" lon="3.71555">
        <ele>150.21293030225</ele>
        <time>2020-07-07T18:35:14.000Z</time>
      </trkpt>
      <trkpt lat="43.63597" lon="3.71558">
        <ele>150.31332184533</ele>
        <time>2020-07-07T18:35:15.000Z</time>
      </trkpt>
      <trkpt lat="43.63595" lon="3.71561">
        <ele>150.41371338841</ele>
        <time>2020-07-07T18:35:16.000Z</time>
      </trkpt>
      <trkpt lat="43.63593" lon="3.71563">
        <ele>150.51410493149</ele>
        <time>2020-07-07T18:35:17.000Z</time>
      </trkpt>
      <trkpt lat="43.63592" lon="3.71566">
        <ele>150.61449647457</ele>
        <time>2020-07-07T18:35:18.000Z</time>
      </trkpt>
      <trkpt lat="43.6359" lon="3.71569">
        <ele>150.71488801765</ele>
        <time>2020-07-07T18:35:19.000Z</time>
      </trkpt>
      <trkpt lat="43.63588" lon="3.71572">
        <ele>150.81527956073</ele>
        <time>2020-07-07T18:35:20.000Z</time>
      </trkpt>
      <trkpt lat="43.63586" lon="3.71575">
        <ele>150.91567110381</ele>
        <time>2020-07-07T18:35:21.000Z</time>
      </trkpt>
      <trkpt lat="43.63585" lon="3.71579">
        <ele>151.016</ele>
        <time>2020-07-07T18:35:22.000Z</time>
      </trkpt>
      <trkpt lat="43.63583" lon="3.71582">
        <ele>151.116</ele>
        <time>2020-07-07T18:35:23.000Z</time>
      </trkpt>
      <trkpt lat="43.63581" lon="3.71586">
        <ele>151.216</ele>
        <time>2020-07-07T18:35:24.000Z</time>
      </trkpt>
      <trkpt lat="43.6358" lon="3.71589">
        <ele>151.316</ele>
        <time>2020-07-07T18:35:25.000Z</time>
      </trkpt>
      <trkpt lat="43.63578" lon="3.71593">
        <ele>151.416</ele>
        <time>2020-07-07T18:35:26.000Z</time>
      </trkpt>
      <trkpt lat="43.63577" lon="3.71597">
        <ele>151.516</ele>
        <time>2020-07-07T18:35:27.000Z</time>
      </trkpt>
      <trkpt lat="43.63575" lon="3.71601">
        <ele>151.616</ele>
        <time>2020-07-07T18:35:28.000Z</time>
      </trkpt>
      <trkpt lat="43.63574" lon="3.71605">
        <ele>151.716</ele>
        <time>2020-07-07T18:35:29.000Z</time>
      </trkpt>
      <trkpt lat="43.63573" lon="3.71609">
        <ele>151.816</ele>
        <time>2020-07-07T18:35:30.000Z</time>
      </trkpt>
      <trkpt lat="43.63572" lon="3.71613">
        <ele>151.916</ele>
        <time>2020-07-07T18:35:31.000Z</time>
      </trkpt>
      <trkpt lat="43.63571" lon="3.71617">
        <ele>152</ele>
        <time>2020-07-07T18:35:32.000Z</time>
      </trkpt>
      <trkpt lat="43.63569" lon="3.71622">
        <ele>152</ele>
        <time>2020-07-07T18:35:33.000Z</time>
      </trkpt>
      <trkpt lat="43.63568" lon="3.71626">
        <ele>152</ele>
        <time>2020-07-07T18:35:34.000Z</time>
      </trkpt>
      <trkpt lat="43.63567" lon="3.7163">
        <ele>152</ele>
        <time>2020-07-07T18:35:35.000Z</time>
      </trkpt>
      <trkpt lat="43.63566" lon="3.71635">
        <ele>152</ele>
        <time>2020-07-07T18:35:36.000Z</time>
      </trkpt>
      <trkpt lat="43.63564" lon="3.7164">
        <ele>152</ele>
        <time>2020-07-07T18:35:37.000Z</time>
      </trkpt>
      <trkpt lat="43.63563" lon="3.71644">
        <ele>152</ele>
        <time>2020-07-07T18:35:38.000Z</time>
      </trkpt>
      <trkpt lat="43.63561" lon="3.71649">
        <ele>152</ele>
        <time>2020-07-07T18:35:39.000Z</time>
      </trkpt>
      <trkpt lat="43.6356" lon="3.71654">
        <ele>152</ele>
        <time>2020-07-07T18:35:40.000Z</time>
      </trkpt>
      <trkpt lat="43.63559" lon="3.71659">
        <ele>152</ele>
        <time>2020-07-07T18:35:41.000Z</time>
      </trkpt>
      <trkpt lat="43.63557" lon="3.71664">
        <ele>152</ele>
        <time>2020-07-07T18:35:42.000Z</time>
      </trkpt>
      <trkpt lat="43.63556" lon="3.71669">
        <ele>152</ele>
        <time>2020-07-07T18:35:43.000Z</time>
      </trkpt>
      <trkpt lat="43.63554" lon="3.71675">
        <ele>152</ele>
        <time>2020-07-07T18:35:44.000Z</time>
      </trkpt>
      <trkpt lat="43.63553" lon="3.7168">
        <ele>152</ele>
        <time>2020-07-07T18:35:45.000Z</time>
      </trkpt>
      <trkpt lat="43.63551" lon="3.71686">
        <ele>152</ele>
        <time>2020-07-07T18:35:46.000Z</time>
      </trkpt>
      <trkpt lat="43.6355" lon="3.71691">
        <ele>152</ele>
        <time>2020-07-07T18:35:47.000Z</time>
      </trkpt>
      <trkpt lat="43.63548" lon="3.71697">
        <ele>152</ele>
        <time>2020-07-07T18:35:48.000Z</time>
      </trkpt>
      <trkpt lat="43.63547" lon="3.71702">
        <ele>152</ele>
        <time>2020-07-07T18:35:49.000Z</time>
      </trkpt>
      <trkpt lat="43.63546" lon="3.71708">
        <ele>152</ele>
        <time>2020-07-07T18:35:50.000Z</time>
      </trkpt>
      <trkpt lat="43.63545" lon="3.71713">
        <ele>152</ele>
        <time>2020-07-07T18:35:51.000Z</time>
      </trkpt>
      <trkpt lat="43.63544" lon="3.71719">
        <ele>151.984</ele>
        <time>2020-07-07T18:35:52.000Z</time>
      </trkpt>
      <trkpt lat="43.63544" lon="3.71722">
        <ele>151.884</ele>
        <time>2020-07-07T18:35:53.000Z</time>
      </trkpt>
      <trkpt lat="43.63544" lon="3.71725">
        <ele>151.784</ele>
        <time>2020-07-07T18:35:54.000Z</time>
      </trkpt>
      <trkpt lat="43.63546" lon="3.71727">
        <ele>151.684</ele>
        <time>2020-07-07T18:35:55.000Z</time>
      </trkpt>
      <trkpt lat="43.63549" lon="3.71728">
        <ele>151.584</ele>
        <time>2020-07-07T18:35:56.000Z</time>
      </trkpt>
      <trkpt lat="43.63553" lon="3.71729">
        <ele>151.484</ele>
        <time>2020-07-07T18:35:57.000Z</time>
      </trkpt>
      <trkpt lat="43.63557" lon="3.71731">
        <ele>151.384</ele>
        <time>2020-07-07T18:35:58.000Z</time>
      </trkpt>
      <trkpt lat="43.63562" lon="3.71734">
        <ele>151.284</ele>
        <time>2020-07-07T18:35:59.000Z</time>
      </trkpt>
      <trkpt lat="43.63567" lon="3.71737">
        <ele>151.184</ele>
        <time>2020-07-07T18:36:00.000Z</time>
      </trkpt>
      <trkpt lat="43.63572" lon="3.7174">
        <ele>151.084</ele>
        <time>2020-07-07T18:36:01.000Z</time>
      </trkpt>
      <trkpt lat="43.63576" lon="3.71744">
        <ele>150.968</ele>
        <time>2020-07-07T18:36:02.000Z</time>
      </trkpt>
      <trkpt lat="43.63581" lon="3.71748">
        <ele>150.768</ele>
        <time>2020-07-07T18:36:03.000Z</time>
      </trkpt>
      <trkpt lat="43.63587" lon="3.71751">
        <ele>150.568</ele>
        <time>2020-07-07T18:36:04.000Z</time>
      </trkpt>
      <trkpt lat="43.63592" lon="3.71753">
        <ele>150.368</ele>
        <time>2020-07-07T18:36:05.000Z</time>
      </trkpt>
      <trkpt lat="43.63599" lon="3.71756">
        <ele>150.168</ele>
        <time>2020-07-07T18:36:06.000Z</time>
      </trkpt>
      <trkpt lat="43.63605" lon="3.71759">
        <ele>149.968</ele>
        <time>2020-07-07T18:36:07.000Z</time>
      </trkpt>
      <trkpt lat="43.63611" lon="3.71762">
        <ele>149.768</ele>
        <time>2020-07-07T18:36:08.000Z</time>
      </trkpt>
      <trkpt lat="43.63616" lon="3.71765">
        <ele>149.568</ele>
        <time>2020-07-07T18:36:09.000Z</time>
      </trkpt>
      <trkpt lat="43.63622" lon="3.71769">
        <ele>149.368</ele>
        <time>2020-07-07T18:36:10.000Z</time>
      </trkpt>
      <trkpt lat="43.63628" lon="3.71773">
        <ele>149.168</ele>
        <time>2020-07-07T18:36:11.000Z</time>
      </trkpt>
      <trkpt lat="43.63634" lon="3.71776">
        <ele>148.984</ele>
        <time>2020-07-07T18:36:12.000Z</time>
      </trkpt>
      <trkpt lat="43.63639" lon="3.71779">
        <ele>148.884</ele>
        <time>2020-07-07T18:36:13.000Z</time>
      </trkpt>
      <trkpt lat="43.63645" lon="3.71782">
        <ele>148.784</ele>
        <time>2020-07-07T18:36:14.000Z</time>
      </trkpt>
      <trkpt lat="43.6365" lon="3.71786">
        <ele>148.684</ele>
        <time>2020-07-07T18:36:15.000Z</time>
      </trkpt>
      <trkpt lat="43.63654" lon="3.71791">
        <ele>148.584</ele>
        <time>2020-07-07T18:36:16.000Z</time>
      </trkpt>
      <trkpt lat="43.63656" lon="3.71795">
        <ele>148.484</ele>
        <time>2020-07-07T18:36:17.000Z</time>
      </trkpt>
      <trkpt lat="43.63656" lon="3.718">
        <ele>148.384</ele>
        <time>2020-07-07T18:36:18.000Z</time>
      </trkpt>
      <trkpt lat="43.63654" lon="3.71804">
        <ele>148.284</ele>
        <time>2020-07-07T18:36:19.000Z</time>
      </trkpt>
      <trkpt lat="43.63651" lon="3.71807">
        <ele>148.184</ele>
        <time>2020-07-07T18:36:20.000Z</time>
      </trkpt>
      <trkpt lat="43.63647" lon="3.71809">
        <ele>148.084</ele>
        <time>2020-07-07T18:36:21.000Z</time>
      </trkpt>
      <trkpt lat="43.63645" lon="3.71812">
        <ele>148.032</ele>
        <time>2020-07-07T18:36:22.000Z</time>
      </trkpt>
      <trkpt lat="43.63645" lon="3.71815">
        <ele>148.232</ele>
        <time>2020-07-07T18:36:23.000Z</time>
      </trkpt>
      <trkpt lat="43.63646" lon="3.7182">
        <ele>148.432</ele>
        <time>2020-07-07T18:36:24.000Z</time>
      </trkpt>
      <trkpt lat="43.63646" lon="3.71825">
        <ele>148.632</ele>
        <time>2020-07-07T18:36:25.000Z</time>
      </trkpt>
      <trkpt lat="43.63646" lon="3.71829">
        <ele>148.832</ele>
        <time>2020-07-07T18:36:26.000Z</time>
      </trkpt>
      <trkpt lat="43.63644" lon="3.71834">
        <ele>149.032</ele>
        <time>2020-07-07T18:36:27.000Z</time>
      </trkpt>
      <trkpt lat="43.63643" lon="3.71839">
        <ele>149.232</ele>
        <time>2020-07-07T18:36:28.000Z</time>
      </trkpt>
      <trkpt lat="43.63642" lon="3.71844">
        <ele>149.432</ele>
        <time>2020-07-07T18:36:29.000Z</time>
      </trkpt>
      <trkpt lat="43.63642" lon="3.71849">
        <ele>149.632</ele>
        <time>2020-07-07T18:36:30.000Z</time>
      </trkpt>
      <trkpt lat="43.63642" lon="3.71853">
        <ele>149.832</ele>
        <time>2020-07-07T18:36:31.000Z</time>
      </trkpt>
      <trkpt lat="43.63642" lon="3.71858">
        <ele>150.016</ele>
        <time>2020-07-07T18:36:32.000Z</time>
      </trkpt>
      <trkpt lat="43.63643" lon="3.71861">
        <ele>150.116</ele>
        <time>2020-07-07T18:36:33.000Z</time>
      </trkpt>
      <trkpt lat="43.63644" lon="3.71865">
        <ele>150.216</ele>
        <time>2020-07-07T18:36:34.000Z</time>
      </trkpt>
      <trkpt lat="43.63646" lon="3.71868">
        <ele>150.316</ele>
        <time>2020-07-07T18:36:35.000Z</time>
      </trkpt>
      <trkpt lat="43.63648" lon="3.7187">
        <ele>150.416</ele>
        <time>2020-07-07T18:36:36.000Z</time>
      </trkpt>
      <trkpt lat="43.6365" lon="3.71873">
        <ele>150.516</ele>
        <time>2020-07-07T18:36:37.000Z</time>
      </trkpt>
      <trkpt lat="43.63652" lon="3.71876">
        <ele>150.616</ele>
        <time>2020-07-07T18:36:38.000Z</time>
      </trkpt>
      <trkpt lat="43.63654" lon="3.71879">
        <ele>150.716</ele>
        <time>2020-07-07T18:36:39.000Z</time>
      </trkpt>
      <trkpt lat="43.63655" lon="3.71882">
        <ele>150.816</ele>
        <time>2020-07-07T18:36:40.000Z</time>
      </trkpt>
      <trkpt lat="43.63655" lon="3.71885">
        <ele>150.916</ele>
        <time>2020-07-07T18:36:41.000Z</time>
      </trkpt>
      <trkpt lat="43.63655" lon="3.71889">
        <ele>151.016</ele>
        <time>2020-07-07T18:36:42.000Z</time>
      </trkpt>
      <trkpt lat="43.63655" lon="3.71892">
        <ele>151.116</ele>
        <time>2020-07-07T18:36:43.000Z</time>
      </trkpt>
      <trkpt lat="43.63655" lon="3.71895">
        <ele>151.216</ele>
        <time>2020-07-07T18:36:44.000Z</time>
      </trkpt>
      <trkpt lat="43.63655" lon="3.71898">
        <ele>151.316</ele>
        <time>2020-07-07T18:36:45.000Z</time>
      </trkpt>
      <trkpt lat="43.63655" lon="3.71901">
        <ele>151.416</ele>
        <time>2020-07-07T18:36:46.000Z</time>
      </trkpt>
      <trkpt lat="43.63655" lon="3.71905">
        <ele>151.516</ele>
        <time>2020-07-07T18:36:47.000Z</time>
      </trkpt>
      <trkpt lat="43.63656" lon="3.71908">
        <ele>151.616</ele>
        <time>2020-07-07T18:36:48.000Z</time>
      </trkpt>
      <trkpt lat="43.63656" lon="3.71912">
        <ele>151.716</ele>
        <time>2020-07-07T18:36:49.000Z</time>
      </trkpt>
      <trkpt lat="43.63656" lon="3.71915">
        <ele>151.816</ele>
        <time>2020-07-07T18:36:50.000Z</time>
      </trkpt>
      <trkpt lat="43.63655" lon="3.71918">
        <ele>151.916</ele>
        <time>2020-07-07T18:36:51.000Z</time>
      </trkpt>
      <trkpt lat="43.63655" lon="3.71922">
        <ele>152.032</ele>
        <time>2020-07-07T18:36:52.000Z</time>
      </trkpt>
      <trkpt lat="43.63653" lon="3.71925">
        <ele>152.232</ele>
        <time>2020-07-07T18:36:53.000Z</time>
      </trkpt>
      <trkpt lat="43.63652" lon="3.71927">
        <ele>152.432</ele>
        <time>2020-07-07T18:36:54.000Z</time>
      </trkpt>
      <trkpt lat="43.6365" lon="3.7193">
        <ele>152.632</ele>
        <time>2020-07-07T18:36:55.000Z</time>
      </trkpt>
      <trkpt lat="43.63649" lon="3.71933">
        <ele>152.832</ele>
        <time>2020-07-07T18:36:56.000Z</time>
      </trkpt>
      <trkpt lat="43.63647" lon="3.71935">
        <ele>153.032</ele>
        <time>2020-07-07T18:36:57.000Z</time>
      </trkpt>
      <trkpt lat="43.63646" lon="3.71937">
        <ele>153.232</ele>
        <time>2020-07-07T18:36:58.000Z</time>
      </trkpt>
      <trkpt lat="43.63645" lon="3.7194">
        <ele>153.432</ele>
        <time>2020-07-07T18:36:59.000Z</time>
      </trkpt>
      <trkpt lat="43.63644" lon="3.71942">
        <ele>153.632</ele>
        <time>2020-07-07T18:37:00.000Z</time>
      </trkpt>
      <trkpt lat="43.63644" lon="3.71945">
        <ele>153.832</ele>
        <time>2020-07-07T18:37:01.000Z</time>
      </trkpt>
      <trkpt lat="43.63644" lon="3.71948">
        <ele>154.016</ele>
        <time>2020-07-07T18:37:02.000Z</time>
      </trkpt>
      <trkpt lat="43.63646" lon="3.71951">
        <ele>154.116</ele>
        <time>2020-07-07T18:37:03.000Z</time>
      </trkpt>
      <trkpt lat="43.63647" lon="3.71954">
        <ele>154.216</ele>
        <time>2020-07-07T18:37:04.000Z</time>
      </trkpt>
      <trkpt lat="43.63648" lon="3.71958">
        <ele>154.316</ele>
        <time>2020-07-07T18:37:05.000Z</time>
      </trkpt>
      <trkpt lat="43.63648" lon="3.71962">
        <ele>154.416</ele>
        <time>2020-07-07T18:37:06.000Z</time>
      </trkpt>
      <trkpt lat="43.63648" lon="3.71966">
        <ele>154.516</ele>
        <time>2020-07-07T18:37:07.000Z</time>
      </trkpt>
      <trkpt lat="43.63647" lon="3.71969">
        <ele>154.616</ele>
        <time>2020-07-07T18:37:08.000Z</time>
      </trkpt>
      <trkpt lat="43.63645" lon="3.71972">
        <ele>154.716</ele>
        <time>2020-07-07T18:37:09.000Z</time>
      </trkpt>
      <trkpt lat="43.63644" lon="3.71975">
        <ele>154.816</ele>
        <time>2020-07-07T18:37:10.000Z</time>
      </trkpt>
      <trkpt lat="43.63643" lon="3.71979">
        <ele>154.916</ele>
        <time>2020-07-07T18:37:11.000Z</time>
      </trkpt>
      <trkpt lat="43.63642" lon="3.71983">
        <ele>155.0157480315</ele>
        <time>2020-07-07T18:37:12.000Z</time>
      </trkpt>
      <trkpt lat="43.63641" lon="3.71986">
        <ele>155.11417322835</ele>
        <time>2020-07-07T18:37:13.000Z</time>
      </trkpt>
      <trkpt lat="43.6364" lon="3.71989">
        <ele>155.2125984252</ele>
        <time>2020-07-07T18:37:14.000Z</time>
      </trkpt>
      <trkpt lat="43.6364" lon="3.71993">
        <ele>155.31102362205</ele>
        <time>2020-07-07T18:37:15.000Z</time>
      </trkpt>
      <trkpt lat="43.6364" lon="3.71996">
        <ele>155.4094488189</ele>
        <time>2020-07-07T18:37:16.000Z</time>
      </trkpt>
      <trkpt lat="43.6364" lon="3.71999">
        <ele>155.50787401575</ele>
        <time>2020-07-07T18:37:17.000Z</time>
      </trkpt>
      <trkpt lat="43.6364" lon="3.72003">
        <ele>155.6062992126</ele>
        <time>2020-07-07T18:37:18.000Z</time>
      </trkpt>
      <trkpt lat="43.6364" lon="3.72006">
        <ele>155.70472440945</ele>
        <time>2020-07-07T18:37:19.000Z</time>
      </trkpt>
      <trkpt lat="43.63639" lon="3.7201">
        <ele>155.8031496063</ele>
        <time>2020-07-07T18:37:20.000Z</time>
      </trkpt>
      <trkpt lat="43.63639" lon="3.72013">
        <ele>155.90157480315</ele>
        <time>2020-07-07T18:37:21.000Z</time>
      </trkpt>
      <trkpt lat="43.63638" lon="3.72016">
        <ele>156</ele>
        <time>2020-07-07T18:37:22.000Z</time>
      </trkpt>
      <trkpt lat="43.63637" lon="3.72019">
        <ele>156.20304575124</ele>
        <time>2020-07-07T18:37:23.000Z</time>
      </trkpt>
      <trkpt lat="43.63637" lon="3.72022">
        <ele>156.40609150249</ele>
        <time>2020-07-07T18:37:24.000Z</time>
      </trkpt>
      <trkpt lat="43.63637" lon="3.72025">
        <ele>156.60913725373</ele>
        <time>2020-07-07T18:37:25.000Z</time>
      </trkpt>
      <trkpt lat="43.63637" lon="3.72029">
        <ele>156.81218300497</ele>
        <time>2020-07-07T18:37:26.000Z</time>
      </trkpt>
      <trkpt lat="43.63636" lon="3.72032">
        <ele>157.01522875622</ele>
        <time>2020-07-07T18:37:27.000Z</time>
      </trkpt>
      <trkpt lat="43.63634" lon="3.72034">
        <ele>157.21827450746</ele>
        <time>2020-07-07T18:37:28.000Z</time>
      </trkpt>
      <trkpt lat="43.63633" lon="3.72036">
        <ele>157.4213202587</ele>
        <time>2020-07-07T18:37:29.000Z</time>
      </trkpt>
      <trkpt lat="43.63631" lon="3.72038">
        <ele>157.62436600995</ele>
        <time>2020-07-07T18:37:30.000Z</time>
      </trkpt>
      <trkpt lat="43.6363" lon="3.72041">
        <ele>157.82741176119</ele>
        <time>2020-07-07T18:37:31.000Z</time>
      </trkpt>
      <trkpt lat="43.63629" lon="3.72043">
        <ele>158.01501533053</ele>
        <time>2020-07-07T18:37:32.000Z</time>
      </trkpt>
      <trkpt lat="43.63629" lon="3.72046">
        <ele>158.11511539856</ele>
        <time>2020-07-07T18:37:33.000Z</time>
      </trkpt>
      <trkpt lat="43.6363" lon="3.72049">
        <ele>158.2152154666</ele>
        <time>2020-07-07T18:37:34.000Z</time>
      </trkpt>
      <trkpt lat="43.6363" lon="3.72052">
        <ele>158.31531553463</ele>
        <time>2020-07-07T18:37:35.000Z</time>
      </trkpt>
      <trkpt lat="43.6363" lon="3.72055">
        <ele>158.41541560267</ele>
        <time>2020-07-07T18:37:36.000Z</time>
      </trkpt>
      <trkpt lat="43.63629" lon="3.72058">
        <ele>158.51551567071</ele>
        <time>2020-07-07T18:37:37.000Z</time>
      </trkpt>
      <trkpt lat="43.63627" lon="3.7206">
        <ele>158.61561573874</ele>
        <time>2020-07-07T18:37:38.000Z</time>
      </trkpt>
      <trkpt lat="43.63626" lon="3.72063">
        <ele>158.71571580678</ele>
        <time>2020-07-07T18:37:39.000Z</time>
      </trkpt>
      <trkpt lat="43.63624" lon="3.72065">
        <ele>158.81581587481</ele>
        <time>2020-07-07T18:37:40.000Z</time>
      </trkpt>
      <trkpt lat="43.63622" lon="3.72066">
        <ele>158.91591594285</ele>
        <time>2020-07-07T18:37:41.000Z</time>
      </trkpt>
      <trkpt lat="43.6362" lon="3.72067">
        <ele>159.016</ele>
        <time>2020-07-07T18:37:42.000Z</time>
      </trkpt>
      <trkpt lat="43.63617" lon="3.7207">
        <ele>159.216</ele>
        <time>2020-07-07T18:37:44.000Z</time>
      </trkpt>
      <trkpt lat="43.63615" lon="3.72072">
        <ele>159.316</ele>
        <time>2020-07-07T18:37:45.000Z</time>
      </trkpt>
      <trkpt lat="43.63613" lon="3.72073">
        <ele>159.416</ele>
        <time>2020-07-07T18:37:46.000Z</time>
      </trkpt>
      <trkpt lat="43.63611" lon="3.72073">
        <ele>159.516</ele>
        <time>2020-07-07T18:37:47.000Z</time>
      </trkpt>
      <trkpt lat="43.63608" lon="3.72072">
        <ele>159.716</ele>
        <time>2020-07-07T18:37:49.000Z</time>
      </trkpt>
      <trkpt lat="43.63604" lon="3.72073">
        <ele>159.916</ele>
        <time>2020-07-07T18:37:51.000Z</time>
      </trkpt>
      <trkpt lat="43.63602" lon="3.72074">
        <ele>160.03112840467</ele>
        <time>2020-07-07T18:37:52.000Z</time>
      </trkpt>
      <trkpt lat="43.636" lon="3.72075">
        <ele>160.22568093385</ele>
        <time>2020-07-07T18:37:53.000Z</time>
      </trkpt>
      <trkpt lat="43.63599" lon="3.72077">
        <ele>160.42023346304</ele>
        <time>2020-07-07T18:37:54.000Z</time>
      </trkpt>
      <trkpt lat="43.63597" lon="3.72081">
        <ele>160.8093385214</ele>
        <time>2020-07-07T18:37:56.000Z</time>
      </trkpt>
      <trkpt lat="43.63596" lon="3.72083">
        <ele>161.00389105058</ele>
        <time>2020-07-07T18:37:57.000Z</time>
      </trkpt>
      <trkpt lat="43.63597" lon="3.72086">
        <ele>161.19844357977</ele>
        <time>2020-07-07T18:37:58.000Z</time>
      </trkpt>
      <trkpt lat="43.63597" lon="3.72089">
        <ele>161.39299610895</ele>
        <time>2020-07-07T18:37:59.000Z</time>
      </trkpt>
      <trkpt lat="43.63598" lon="3.72092">
        <ele>161.58754863813</ele>
        <time>2020-07-07T18:38:00.000Z</time>
      </trkpt>
      <trkpt lat="43.63598" lon="3.72095">
        <ele>161.78210116732</ele>
        <time>2020-07-07T18:38:01.000Z</time>
      </trkpt>
      <trkpt lat="43.63598" lon="3.72098">
        <ele>161.9766536965</ele>
        <time>2020-07-07T18:38:02.000Z</time>
      </trkpt>
      <trkpt lat="43.63597" lon="3.72102">
        <ele>162.09044196191</ele>
        <time>2020-07-07T18:38:03.000Z</time>
      </trkpt>
      <trkpt lat="43.63596" lon="3.72104">
        <ele>162.19321691863</ele>
        <time>2020-07-07T18:38:04.000Z</time>
      </trkpt>
      <trkpt lat="43.63595" lon="3.72107">
        <ele>162.29599187535</ele>
        <time>2020-07-07T18:38:05.000Z</time>
      </trkpt>
      <trkpt lat="43.63593" lon="3.72108">
        <ele>162.39876683207</ele>
        <time>2020-07-07T18:38:06.000Z</time>
      </trkpt>
      <trkpt lat="43.6359" lon="3.72109">
        <ele>162.50154178879</ele>
        <time>2020-07-07T18:38:07.000Z</time>
      </trkpt>
      <trkpt lat="43.63588" lon="3.7211">
        <ele>162.60431674551</ele>
        <time>2020-07-07T18:38:08.000Z</time>
      </trkpt>
      <trkpt lat="43.63587" lon="3.72112">
        <ele>162.70709170223</ele>
        <time>2020-07-07T18:38:09.000Z</time>
      </trkpt>
      <trkpt lat="43.63586" lon="3.72114">
        <ele>162.80986665895</ele>
        <time>2020-07-07T18:38:10.000Z</time>
      </trkpt>
      <trkpt lat="43.63585" lon="3.72116">
        <ele>162.91264161567</ele>
        <time>2020-07-07T18:38:11.000Z</time>
      </trkpt>
      <trkpt lat="43.63584" lon="3.7212">
        <ele>163.03003066105</ele>
        <time>2020-07-07T18:38:12.000Z</time>
      </trkpt>
      <trkpt lat="43.63583" lon="3.72123">
        <ele>163.23023079712</ele>
        <time>2020-07-07T18:38:13.000Z</time>
      </trkpt>
      <trkpt lat="43.63581" lon="3.72126">
        <ele>163.43043093319</ele>
        <time>2020-07-07T18:38:14.000Z</time>
      </trkpt>
      <trkpt lat="43.63579" lon="3.72129">
        <ele>163.63063106927</ele>
        <time>2020-07-07T18:38:15.000Z</time>
      </trkpt>
      <trkpt lat="43.63578" lon="3.72133">
        <ele>163.83083120534</ele>
        <time>2020-07-07T18:38:16.000Z</time>
      </trkpt>
      <trkpt lat="43.63577" lon="3.72136">
        <ele>164.03103134141</ele>
        <time>2020-07-07T18:38:17.000Z</time>
      </trkpt>
      <trkpt lat="43.63576" lon="3.7214">
        <ele>164.23123147748</ele>
        <time>2020-07-07T18:38:18.000Z</time>
      </trkpt>
      <trkpt lat="43.63576" lon="3.72143">
        <ele>164.43143161355</ele>
        <time>2020-07-07T18:38:19.000Z</time>
      </trkpt>
      <trkpt lat="43.63577" lon="3.72146">
        <ele>164.63163174963</ele>
        <time>2020-07-07T18:38:20.000Z</time>
      </trkpt>
      <trkpt lat="43.63577" lon="3.72149">
        <ele>164.8318318857</ele>
        <time>2020-07-07T18:38:21.000Z</time>
      </trkpt>
      <trkpt lat="43.63578" lon="3.72152">
        <ele>165.032</ele>
        <time>2020-07-07T18:38:22.000Z</time>
      </trkpt>
      <trkpt lat="43.63579" lon="3.72155">
        <ele>165.232</ele>
        <time>2020-07-07T18:38:23.000Z</time>
      </trkpt>
      <trkpt lat="43.6358" lon="3.72158">
        <ele>165.432</ele>
        <time>2020-07-07T18:38:24.000Z</time>
      </trkpt>
      <trkpt lat="43.6358" lon="3.72161">
        <ele>165.632</ele>
        <time>2020-07-07T18:38:25.000Z</time>
      </trkpt>
      <trkpt lat="43.63581" lon="3.72164">
        <ele>165.832</ele>
        <time>2020-07-07T18:38:26.000Z</time>
      </trkpt>
      <trkpt lat="43.63582" lon="3.72167">
        <ele>166.032</ele>
        <time>2020-07-07T18:38:27.000Z</time>
      </trkpt>
      <trkpt lat="43.63582" lon="3.7217">
        <ele>166.232</ele>
        <time>2020-07-07T18:38:28.000Z</time>
      </trkpt>
      <trkpt lat="43.63583" lon="3.72173">
        <ele>166.432</ele>
        <time>2020-07-07T18:38:29.000Z</time>
      </trkpt>
      <trkpt lat="43.63584" lon="3.72176">
        <ele>166.632</ele>
        <time>2020-07-07T18:38:30.000Z</time>
      </trkpt>
      <trkpt lat="43.63585" lon="3.72179">
        <ele>166.832</ele>
        <time>2020-07-07T18:38:31.000Z</time>
      </trkpt>
      <trkpt lat="43.63585" lon="3.72182">
        <ele>167</ele>
        <time>2020-07-07T18:38:32.000Z</time>
      </trkpt>
      <trkpt lat="43.63586" lon="3.72185">
        <ele>167</ele>
        <time>2020-07-07T18:38:33.000Z</time>
      </trkpt>
      <trkpt lat="43.63587" lon="3.72188">
        <ele>167</ele>
        <time>2020-07-07T18:38:34.000Z</time>
      </trkpt>
      <trkpt lat="43.63587" lon="3.72191">
        <ele>167</ele>
        <time>2020-07-07T18:38:35.000Z</time>
      </trkpt>
      <trkpt lat="43.63588" lon="3.72193">
        <ele>167</ele>
        <time>2020-07-07T18:38:36.000Z</time>
      </trkpt>
      <trkpt lat="43.63589" lon="3.72196">
        <ele>167</ele>
        <time>2020-07-07T18:38:37.000Z</time>
      </trkpt>
      <trkpt lat="43.6359" lon="3.72199">
        <ele>167</ele>
        <time>2020-07-07T18:38:38.000Z</time>
      </trkpt>
      <trkpt lat="43.6359" lon="3.72202">
        <ele>167</ele>
        <time>2020-07-07T18:38:39.000Z</time>
      </trkpt>
      <trkpt lat="43.63591" lon="3.72205">
        <ele>167</ele>
        <time>2020-07-07T18:38:40.000Z</time>
      </trkpt>
      <trkpt lat="43.63592" lon="3.72208">
        <ele>167</ele>
        <time>2020-07-07T18:38:41.000Z</time>
      </trkpt>
      <trkpt lat="43.63593" lon="3.72211">
        <ele>167.0157480315</ele>
        <time>2020-07-07T18:38:42.000Z</time>
      </trkpt>
      <trkpt lat="43.63593" lon="3.72214">
        <ele>167.11417322835</ele>
        <time>2020-07-07T18:38:43.000Z</time>
      </trkpt>
      <trkpt lat="43.63594" lon="3.72217">
        <ele>167.2125984252</ele>
        <time>2020-07-07T18:38:44.000Z</time>
      </trkpt>
      <trkpt lat="43.63595" lon="3.7222">
        <ele>167.31102362205</ele>
        <time>2020-07-07T18:38:45.000Z</time>
      </trkpt>
      <trkpt lat="43.63595" lon="3.72224">
        <ele>167.4094488189</ele>
        <time>2020-07-07T18:38:46.000Z</time>
      </trkpt>
      <trkpt lat="43.63596" lon="3.72227">
        <ele>167.50787401575</ele>
        <time>2020-07-07T18:38:47.000Z</time>
      </trkpt>
      <trkpt lat="43.63597" lon="3.7223">
        <ele>167.6062992126</ele>
        <time>2020-07-07T18:38:48.000Z</time>
      </trkpt>
      <trkpt lat="43.63597" lon="3.72233">
        <ele>167.70472440945</ele>
        <time>2020-07-07T18:38:49.000Z</time>
      </trkpt>
      <trkpt lat="43.63598" lon="3.72236">
        <ele>167.8031496063</ele>
        <time>2020-07-07T18:38:50.000Z</time>
      </trkpt>
      <trkpt lat="43.63599" lon="3.7224">
        <ele>167.90157480315</ele>
        <time>2020-07-07T18:38:51.000Z</time>
      </trkpt>
      <trkpt lat="43.636" lon="3.72243">
        <ele>168</ele>
        <time>2020-07-07T18:38:52.000Z</time>
      </trkpt>
      <trkpt lat="43.636" lon="3.72246">
        <ele>168.10141994413</ele>
        <time>2020-07-07T18:38:53.000Z</time>
      </trkpt>
      <trkpt lat="43.63601" lon="3.72249">
        <ele>168.20283988825</ele>
        <time>2020-07-07T18:38:54.000Z</time>
      </trkpt>
      <trkpt lat="43.63602" lon="3.72252">
        <ele>168.30425983238</ele>
        <time>2020-07-07T18:38:55.000Z</time>
      </trkpt>
      <trkpt lat="43.63603" lon="3.72255">
        <ele>168.40567977651</ele>
        <time>2020-07-07T18:38:56.000Z</time>
      </trkpt>
      <trkpt lat="43.63604" lon="3.72258">
        <ele>168.50709972063</ele>
        <time>2020-07-07T18:38:57.000Z</time>
      </trkpt>
      <trkpt lat="43.63605" lon="3.72261">
        <ele>168.60851966476</ele>
        <time>2020-07-07T18:38:58.000Z</time>
      </trkpt>
      <trkpt lat="43.63606" lon="3.72264">
        <ele>168.70993960889</ele>
        <time>2020-07-07T18:38:59.000Z</time>
      </trkpt>
      <trkpt lat="43.63607" lon="3.72267">
        <ele>168.81135955301</ele>
        <time>2020-07-07T18:39:00.000Z</time>
      </trkpt>
      <trkpt lat="43.63608" lon="3.72269">
        <ele>168.91277949714</ele>
        <time>2020-07-07T18:39:01.000Z</time>
      </trkpt>
      <trkpt lat="43.63609" lon="3.72272">
        <ele>169.0280573768</ele>
        <time>2020-07-07T18:39:02.000Z</time>
      </trkpt>
      <trkpt lat="43.6361" lon="3.72275">
        <ele>169.22845804989</ele>
        <time>2020-07-07T18:39:03.000Z</time>
      </trkpt>
      <trkpt lat="43.63611" lon="3.72278">
        <ele>169.42885872298</ele>
        <time>2020-07-07T18:39:04.000Z</time>
      </trkpt>
      <trkpt lat="43.63611" lon="3.72281">
        <ele>169.62925939607</ele>
        <time>2020-07-07T18:39:05.000Z</time>
      </trkpt>
      <trkpt lat="43.63612" lon="3.72284">
        <ele>169.82966006916</ele>
        <time>2020-07-07T18:39:06.000Z</time>
      </trkpt>
      <trkpt lat="43.63613" lon="3.72288">
        <ele>170.03006074225</ele>
        <time>2020-07-07T18:39:07.000Z</time>
      </trkpt>
      <trkpt lat="43.63614" lon="3.72292">
        <ele>170.23046141533</ele>
        <time>2020-07-07T18:39:08.000Z</time>
      </trkpt>
      <trkpt lat="43.63615" lon="3.72295">
        <ele>170.43086208842</ele>
        <time>2020-07-07T18:39:09.000Z</time>
      </trkpt>
      <trkpt lat="43.63615" lon="3.72299">
        <ele>170.63126276151</ele>
        <time>2020-07-07T18:39:10.000Z</time>
      </trkpt>
      <trkpt lat="43.63616" lon="3.72302">
        <ele>170.8316634346</ele>
        <time>2020-07-07T18:39:11.000Z</time>
      </trkpt>
      <trkpt lat="43.63617" lon="3.72306">
        <ele>171.032</ele>
        <time>2020-07-07T18:39:12.000Z</time>
      </trkpt>
      <trkpt lat="43.63617" lon="3.7231">
        <ele>171.232</ele>
        <time>2020-07-07T18:39:13.000Z</time>
      </trkpt>
      <trkpt lat="43.63618" lon="3.72313">
        <ele>171.432</ele>
        <time>2020-07-07T18:39:14.000Z</time>
      </trkpt>
      <trkpt lat="43.63618" lon="3.72317">
        <ele>171.632</ele>
        <time>2020-07-07T18:39:15.000Z</time>
      </trkpt>
      <trkpt lat="43.63618" lon="3.7232">
        <ele>171.832</ele>
        <time>2020-07-07T18:39:16.000Z</time>
      </trkpt>
      <trkpt lat="43.63619" lon="3.72324">
        <ele>172.032</ele>
        <time>2020-07-07T18:39:17.000Z</time>
      </trkpt>
      <trkpt lat="43.6362" lon="3.72327">
        <ele>172.232</ele>
        <time>2020-07-07T18:39:18.000Z</time>
      </trkpt>
      <trkpt lat="43.6362" lon="3.7233">
        <ele>172.432</ele>
        <time>2020-07-07T18:39:19.000Z</time>
      </trkpt>
      <trkpt lat="43.6362" lon="3.72334">
        <ele>172.632</ele>
        <time>2020-07-07T18:39:20.000Z</time>
      </trkpt>
      <trkpt lat="43.63621" lon="3.72337">
        <ele>172.832</ele>
        <time>2020-07-07T18:39:21.000Z</time>
      </trkpt>
      <trkpt lat="43.63621" lon="3.7234">
        <ele>173</ele>
        <time>2020-07-07T18:39:22.000Z</time>
      </trkpt>
      <trkpt lat="43.63622" lon="3.72344">
        <ele>173</ele>
        <time>2020-07-07T18:39:23.000Z</time>
      </trkpt>
      <trkpt lat="43.63623" lon="3.72347">
        <ele>173</ele>
        <time>2020-07-07T18:39:24.000Z</time>
      </trkpt>
      <trkpt lat="43.63624" lon="3.7235">
        <ele>173</ele>
        <time>2020-07-07T18:39:25.000Z</time>
      </trkpt>
      <trkpt lat="43.63625" lon="3.72353">
        <ele>173</ele>
        <time>2020-07-07T18:39:26.000Z</time>
      </trkpt>
      <trkpt lat="43.63625" lon="3.72356">
        <ele>173</ele>
        <time>2020-07-07T18:39:27.000Z</time>
      </trkpt>
      <trkpt lat="43.63626" lon="3.72359">
        <ele>173</ele>
        <time>2020-07-07T18:39:28.000Z</time>
      </trkpt>
      <trkpt lat="43.63627" lon="3.72362">
        <ele>173</ele>
        <time>2020-07-07T18:39:29.000Z</time>
      </trkpt>
      <trkpt lat="43.63629" lon="3.72366">
        <ele>173</ele>
        <time>2020-07-07T18:39:30.000Z</time>
      </trkpt>
      <trkpt lat="43.6363" lon="3.7237">
        <ele>173</ele>
        <time>2020-07-07T18:39:31.000Z</time>
      </trkpt>
      <trkpt lat="43.63631" lon="3.72374">
        <ele>173</ele>
        <time>2020-07-07T18:39:32.000Z</time>
      </trkpt>
      <trkpt lat="43.63633" lon="3.72378">
        <ele>173</ele>
        <time>2020-07-07T18:39:33.000Z</time>
      </trkpt>
      <trkpt lat="43.63634" lon="3.72384">
        <ele>173</ele>
        <time>2020-07-07T18:39:34.000Z</time>
      </trkpt>
      <trkpt lat="43.63636" lon="3.72389">
        <ele>173</ele>
        <time>2020-07-07T18:39:35.000Z</time>
      </trkpt>
      <trkpt lat="43.63637" lon="3.72394">
        <ele>173</ele>
        <time>2020-07-07T18:39:36.000Z</time>
      </trkpt>
      <trkpt lat="43.63638" lon="3.72399">
        <ele>173</ele>
        <time>2020-07-07T18:39:37.000Z</time>
      </trkpt>
      <trkpt lat="43.63639" lon="3.72403">
        <ele>173</ele>
        <time>2020-07-07T18:39:38.000Z</time>
      </trkpt>
      <trkpt lat="43.6364" lon="3.72407">
        <ele>173</ele>
        <time>2020-07-07T18:39:39.000Z</time>
      </trkpt>
      <trkpt lat="43.63641" lon="3.72411">
        <ele>173</ele>
        <time>2020-07-07T18:39:40.000Z</time>
      </trkpt>
      <trkpt lat="43.63642" lon="3.72415">
        <ele>173</ele>
        <time>2020-07-07T18:39:41.000Z</time>
      </trkpt>
      <trkpt lat="43.63643" lon="3.72419">
        <ele>173</ele>
        <time>2020-07-07T18:39:42.000Z</time>
      </trkpt>
      <trkpt lat="43.63644" lon="3.72423">
        <ele>173</ele>
        <time>2020-07-07T18:39:43.000Z</time>
      </trkpt>
      <trkpt lat="43.63645" lon="3.72427">
        <ele>173</ele>
        <time>2020-07-07T18:39:44.000Z</time>
      </trkpt>
      <trkpt lat="43.63646" lon="3.72431">
        <ele>173</ele>
        <time>2020-07-07T18:39:45.000Z</time>
      </trkpt>
      <trkpt lat="43.63647" lon="3.72435">
        <ele>173</ele>
        <time>2020-07-07T18:39:46.000Z</time>
      </trkpt>
      <trkpt lat="43.63648" lon="3.72438">
        <ele>173</ele>
        <time>2020-07-07T18:39:47.000Z</time>
      </trkpt>
      <trkpt lat="43.63649" lon="3.72441">
        <ele>173</ele>
        <time>2020-07-07T18:39:48.000Z</time>
      </trkpt>
      <trkpt lat="43.6365" lon="3.72445">
        <ele>173</ele>
        <time>2020-07-07T18:39:49.000Z</time>
      </trkpt>
      <trkpt lat="43.63651" lon="3.72449">
        <ele>173</ele>
        <time>2020-07-07T18:39:50.000Z</time>
      </trkpt>
      <trkpt lat="43.63652" lon="3.72453">
        <ele>173</ele>
        <time>2020-07-07T18:39:51.000Z</time>
      </trkpt>
      <trkpt lat="43.63653" lon="3.72457">
        <ele>172.968</ele>
        <time>2020-07-07T18:39:52.000Z</time>
      </trkpt>
      <trkpt lat="43.63654" lon="3.7246">
        <ele>172.768</ele>
        <time>2020-07-07T18:39:53.000Z</time>
      </trkpt>
      <trkpt lat="43.63655" lon="3.72464">
        <ele>172.568</ele>
        <time>2020-07-07T18:39:54.000Z</time>
      </trkpt>
      <trkpt lat="43.63655" lon="3.72469">
        <ele>172.368</ele>
        <time>2020-07-07T18:39:55.000Z</time>
      </trkpt>
      <trkpt lat="43.63656" lon="3.72473">
        <ele>172.168</ele>
        <time>2020-07-07T18:39:56.000Z</time>
      </trkpt>
      <trkpt lat="43.63657" lon="3.72478">
        <ele>171.968</ele>
        <time>2020-07-07T18:39:57.000Z</time>
      </trkpt>
      <trkpt lat="43.63658" lon="3.72483">
        <ele>171.768</ele>
        <time>2020-07-07T18:39:58.000Z</time>
      </trkpt>
      <trkpt lat="43.63659" lon="3.72488">
        <ele>171.568</ele>
        <time>2020-07-07T18:39:59.000Z</time>
      </trkpt>
      <trkpt lat="43.63661" lon="3.72493">
        <ele>171.368</ele>
        <time>2020-07-07T18:40:00.000Z</time>
      </trkpt>
      <trkpt lat="43.63662" lon="3.72499">
        <ele>171.168</ele>
        <time>2020-07-07T18:40:01.000Z</time>
      </trkpt>
      <trkpt lat="43.63664" lon="3.72504">
        <ele>170.984</ele>
        <time>2020-07-07T18:40:02.000Z</time>
      </trkpt>
      <trkpt lat="43.63666" lon="3.7251">
        <ele>170.884</ele>
        <time>2020-07-07T18:40:03.000Z</time>
      </trkpt>
      <trkpt lat="43.63667" lon="3.72516">
        <ele>170.784</ele>
        <time>2020-07-07T18:40:04.000Z</time>
      </trkpt>
      <trkpt lat="43.63668" lon="3.72523">
        <ele>170.684</ele>
        <time>2020-07-07T18:40:05.000Z</time>
      </trkpt>
      <trkpt lat="43.63669" lon="3.7253">
        <ele>170.584</ele>
        <time>2020-07-07T18:40:06.000Z</time>
      </trkpt>
      <trkpt lat="43.63668" lon="3.72538">
        <ele>170.484</ele>
        <time>2020-07-07T18:40:07.000Z</time>
      </trkpt>
      <trkpt lat="43.63668" lon="3.72545">
        <ele>170.384</ele>
        <time>2020-07-07T18:40:08.000Z</time>
      </trkpt>
      <trkpt lat="43.63667" lon="3.72552">
        <ele>170.284</ele>
        <time>2020-07-07T18:40:09.000Z</time>
      </trkpt>
      <trkpt lat="43.63667" lon="3.72559">
        <ele>170.184</ele>
        <time>2020-07-07T18:40:10.000Z</time>
      </trkpt>
      <trkpt lat="43.63668" lon="3.72566">
        <ele>170.084</ele>
        <time>2020-07-07T18:40:11.000Z</time>
      </trkpt>
      <trkpt lat="43.63669" lon="3.72572">
        <ele>170</ele>
        <time>2020-07-07T18:40:12.000Z</time>
      </trkpt>
      <trkpt lat="43.63669" lon="3.72579">
        <ele>170</ele>
        <time>2020-07-07T18:40:13.000Z</time>
      </trkpt>
      <trkpt lat="43.63669" lon="3.72585">
        <ele>170</ele>
        <time>2020-07-07T18:40:14.000Z</time>
      </trkpt>
      <trkpt lat="43.63669" lon="3.72592">
        <ele>170</ele>
        <time>2020-07-07T18:40:15.000Z</time>
      </trkpt>
      <trkpt lat="43.63669" lon="3.72598">
        <ele>170</ele>
        <time>2020-07-07T18:40:16.000Z</time>
      </trkpt>
      <trkpt lat="43.63668" lon="3.72604">
        <ele>170</ele>
        <time>2020-07-07T18:40:17.000Z</time>
      </trkpt>
      <trkpt lat="43.63668" lon="3.72609">
        <ele>170</ele>
        <time>2020-07-07T18:40:18.000Z</time>
      </trkpt>
      <trkpt lat="43.63667" lon="3.72614">
        <ele>170</ele>
        <time>2020-07-07T18:40:19.000Z</time>
      </trkpt>
      <trkpt lat="43.63667" lon="3.7262">
        <ele>170</ele>
        <time>2020-07-07T18:40:20.000Z</time>
      </trkpt>
      <trkpt lat="43.63666" lon="3.72625">
        <ele>170</ele>
        <time>2020-07-07T18:40:21.000Z</time>
      </trkpt>
      <trkpt lat="43.63666" lon="3.72631">
        <ele>170</ele>
        <time>2020-07-07T18:40:22.000Z</time>
      </trkpt>
      <trkpt lat="43.63666" lon="3.72636">
        <ele>170</ele>
        <time>2020-07-07T18:40:23.000Z</time>
      </trkpt>
      <trkpt lat="43.63666" lon="3.72642">
        <ele>170</ele>
        <time>2020-07-07T18:40:24.000Z</time>
      </trkpt>
      <trkpt lat="43.63666" lon="3.72648">
        <ele>170</ele>
        <time>2020-07-07T18:40:25.000Z</time>
      </trkpt>
      <trkpt lat="43.63666" lon="3.72655">
        <ele>170</ele>
        <time>2020-07-07T18:40:26.000Z</time>
      </trkpt>
      <trkpt lat="43.63666" lon="3.7266">
        <ele>170</ele>
        <time>2020-07-07T18:40:27.000Z</time>
      </trkpt>
      <trkpt lat="43.63666" lon="3.72665">
        <ele>170</ele>
        <time>2020-07-07T18:40:28.000Z</time>
      </trkpt>
      <trkpt lat="43.63666" lon="3.72672">
        <ele>170</ele>
        <time>2020-07-07T18:40:29.000Z</time>
      </trkpt>
      <trkpt lat="43.63666" lon="3.72678">
        <ele>170</ele>
        <time>2020-07-07T18:40:30.000Z</time>
      </trkpt>
      <trkpt lat="43.63666" lon="3.72684">
        <ele>170</ele>
        <time>2020-07-07T18:40:31.000Z</time>
      </trkpt>
      <trkpt lat="43.63666" lon="3.7269">
        <ele>170</ele>
        <time>2020-07-07T18:40:32.000Z</time>
      </trkpt>
      <trkpt lat="43.63665" lon="3.72696">
        <ele>170</ele>
        <time>2020-07-07T18:40:33.000Z</time>
      </trkpt>
      <trkpt lat="43.63665" lon="3.72701">
        <ele>170</ele>
        <time>2020-07-07T18:40:34.000Z</time>
      </trkpt>
      <trkpt lat="43.63665" lon="3.72707">
        <ele>170</ele>
        <time>2020-07-07T18:40:35.000Z</time>
      </trkpt>
      <trkpt lat="43.63664" lon="3.72712">
        <ele>170</ele>
        <time>2020-07-07T18:40:36.000Z</time>
      </trkpt>
      <trkpt lat="43.63664" lon="3.72718">
        <ele>170</ele>
        <time>2020-07-07T18:40:37.000Z</time>
      </trkpt>
      <trkpt lat="43.63664" lon="3.72723">
        <ele>170</ele>
        <time>2020-07-07T18:40:38.000Z</time>
      </trkpt>
      <trkpt lat="43.63664" lon="3.72729">
        <ele>170</ele>
        <time>2020-07-07T18:40:39.000Z</time>
      </trkpt>
      <trkpt lat="43.63667" lon="3.72741">
        <ele>170</ele>
        <time>2020-07-07T18:40:41.000Z</time>
      </trkpt>
      <trkpt lat="43.63668" lon="3.7275">
        <ele>169.98448109114</ele>
        <time>2020-07-07T18:40:42.000Z</time>
      </trkpt>
      <trkpt lat="43.63669" lon="3.72758">
        <ele>169.88748791077</ele>
        <time>2020-07-07T18:40:43.000Z</time>
      </trkpt>
      <trkpt lat="43.63668" lon="3.72766">
        <ele>169.7904947304</ele>
        <time>2020-07-07T18:40:44.000Z</time>
      </trkpt>
      <trkpt lat="43.63667" lon="3.72773">
        <ele>169.69350155003</ele>
        <time>2020-07-07T18:40:45.000Z</time>
      </trkpt>
      <trkpt lat="43.63667" lon="3.72781">
        <ele>169.59650836966</ele>
        <time>2020-07-07T18:40:46.000Z</time>
      </trkpt>
      <trkpt lat="43.63667" lon="3.72788">
        <ele>169.49951518929</ele>
        <time>2020-07-07T18:40:47.000Z</time>
      </trkpt>
      <trkpt lat="43.63668" lon="3.72795">
        <ele>169.40252200892</ele>
        <time>2020-07-07T18:40:48.000Z</time>
      </trkpt>
      <trkpt lat="43.63668" lon="3.72802">
        <ele>169.30552882855</ele>
        <time>2020-07-07T18:40:49.000Z</time>
      </trkpt>
      <trkpt lat="43.63667" lon="3.7281">
        <ele>169.20853564818</ele>
        <time>2020-07-07T18:40:50.000Z</time>
      </trkpt>
      <trkpt lat="43.63666" lon="3.72817">
        <ele>169.1115424678</ele>
        <time>2020-07-07T18:40:51.000Z</time>
      </trkpt>
      <trkpt lat="43.63665" lon="3.72824">
        <ele>169.01454928743</ele>
        <time>2020-07-07T18:40:52.000Z</time>
      </trkpt>
      <trkpt lat="43.63663" lon="3.72831">
        <ele>169.08771899698</ele>
        <time>2020-07-07T18:40:53.000Z</time>
      </trkpt>
      <trkpt lat="43.63662" lon="3.72838">
        <ele>169.19091820546</ele>
        <time>2020-07-07T18:40:54.000Z</time>
      </trkpt>
      <trkpt lat="43.63661" lon="3.72845">
        <ele>169.29411741395</ele>
        <time>2020-07-07T18:40:55.000Z</time>
      </trkpt>
      <trkpt lat="43.63661" lon="3.72852">
        <ele>169.39731662244</ele>
        <time>2020-07-07T18:40:56.000Z</time>
      </trkpt>
      <trkpt lat="43.6366" lon="3.72859">
        <ele>169.50051583092</ele>
        <time>2020-07-07T18:40:57.000Z</time>
      </trkpt>
      <trkpt lat="43.6366" lon="3.72866">
        <ele>169.60371503941</ele>
        <time>2020-07-07T18:40:58.000Z</time>
      </trkpt>
      <trkpt lat="43.63659" lon="3.72873">
        <ele>169.7069142479</ele>
        <time>2020-07-07T18:40:59.000Z</time>
      </trkpt>
      <trkpt lat="43.63658" lon="3.72879">
        <ele>169.81011345638</ele>
        <time>2020-07-07T18:41:00.000Z</time>
      </trkpt>
      <trkpt lat="43.63658" lon="3.72885">
        <ele>169.91331266487</ele>
        <time>2020-07-07T18:41:01.000Z</time>
      </trkpt>
      <trkpt lat="43.63657" lon="3.7289">
        <ele>170</ele>
        <time>2020-07-07T18:41:02.000Z</time>
      </trkpt>
      <trkpt lat="43.63656" lon="3.72896">
        <ele>170</ele>
        <time>2020-07-07T18:41:03.000Z</time>
      </trkpt>
      <trkpt lat="43.63655" lon="3.72901">
        <ele>170</ele>
        <time>2020-07-07T18:41:04.000Z</time>
      </trkpt>
      <trkpt lat="43.63655" lon="3.72905">
        <ele>170</ele>
        <time>2020-07-07T18:41:05.000Z</time>
      </trkpt>
      <trkpt lat="43.63655" lon="3.7291">
        <ele>170</ele>
        <time>2020-07-07T18:41:06.000Z</time>
      </trkpt>
      <trkpt lat="43.63654" lon="3.72916">
        <ele>170</ele>
        <time>2020-07-07T18:41:07.000Z</time>
      </trkpt>
      <trkpt lat="43.63654" lon="3.72921">
        <ele>170</ele>
        <time>2020-07-07T18:41:08.000Z</time>
      </trkpt>
      <trkpt lat="43.63653" lon="3.72926">
        <ele>170</ele>
        <time>2020-07-07T18:41:09.000Z</time>
      </trkpt>
      <trkpt lat="43.63652" lon="3.72931">
        <ele>170</ele>
        <time>2020-07-07T18:41:10.000Z</time>
      </trkpt>
      <trkpt lat="43.63651" lon="3.72936">
        <ele>170</ele>
        <time>2020-07-07T18:41:11.000Z</time>
      </trkpt>
      <trkpt lat="43.63651" lon="3.72942">
        <ele>170</ele>
        <time>2020-07-07T18:41:12.000Z</time>
      </trkpt>
      <trkpt lat="43.63651" lon="3.72947">
        <ele>170.08959865224</ele>
        <time>2020-07-07T18:41:13.000Z</time>
      </trkpt>
      <trkpt lat="43.63651" lon="3.72952">
        <ele>170.19258523004</ele>
        <time>2020-07-07T18:41:14.000Z</time>
      </trkpt>
      <trkpt lat="43.63651" lon="3.72958">
        <ele>170.29557180784</ele>
        <time>2020-07-07T18:41:15.000Z</time>
      </trkpt>
      <trkpt lat="43.63651" lon="3.72963">
        <ele>170.39855838565</ele>
        <time>2020-07-07T18:41:16.000Z</time>
      </trkpt>
      <trkpt lat="43.63651" lon="3.72969">
        <ele>170.50154496345</ele>
        <time>2020-07-07T18:41:17.000Z</time>
      </trkpt>
      <trkpt lat="43.6365" lon="3.72975">
        <ele>170.60453154125</ele>
        <time>2020-07-07T18:41:18.000Z</time>
      </trkpt>
      <trkpt lat="43.63649" lon="3.7298">
        <ele>170.70751811905</ele>
        <time>2020-07-07T18:41:19.000Z</time>
      </trkpt>
      <trkpt lat="43.63649" lon="3.72986">
        <ele>170.81050469685</ele>
        <time>2020-07-07T18:41:20.000Z</time>
      </trkpt>
      <trkpt lat="43.63648" lon="3.72991">
        <ele>170.91349127465</ele>
        <time>2020-07-07T18:41:21.000Z</time>
      </trkpt>
      <trkpt lat="43.63648" lon="3.72995">
        <ele>171</ele>
        <time>2020-07-07T18:41:22.000Z</time>
      </trkpt>
      <trkpt lat="43.63648" lon="3.73">
        <ele>171</ele>
        <time>2020-07-07T18:41:23.000Z</time>
      </trkpt>
      <trkpt lat="43.63648" lon="3.73005">
        <ele>171</ele>
        <time>2020-07-07T18:41:24.000Z</time>
      </trkpt>
      <trkpt lat="43.63649" lon="3.73011">
        <ele>171</ele>
        <time>2020-07-07T18:41:25.000Z</time>
      </trkpt>
      <trkpt lat="43.63648" lon="3.73016">
        <ele>171</ele>
        <time>2020-07-07T18:41:26.000Z</time>
      </trkpt>
      <trkpt lat="43.63648" lon="3.73022">
        <ele>171</ele>
        <time>2020-07-07T18:41:27.000Z</time>
      </trkpt>
      <trkpt lat="43.63647" lon="3.73028">
        <ele>171</ele>
        <time>2020-07-07T18:41:28.000Z</time>
      </trkpt>
      <trkpt lat="43.63645" lon="3.73034">
        <ele>171</ele>
        <time>2020-07-07T18:41:29.000Z</time>
      </trkpt>
      <trkpt lat="43.63644" lon="3.73039">
        <ele>171</ele>
        <time>2020-07-07T18:41:30.000Z</time>
      </trkpt>
      <trkpt lat="43.63643" lon="3.73044">
        <ele>171</ele>
        <time>2020-07-07T18:41:31.000Z</time>
      </trkpt>
      <trkpt lat="43.63642" lon="3.73049">
        <ele>171.00196593966</ele>
        <time>2020-07-07T18:41:32.000Z</time>
      </trkpt>
      <trkpt lat="43.63642" lon="3.73055">
        <ele>171.10029438751</ele>
        <time>2020-07-07T18:41:33.000Z</time>
      </trkpt>
      <trkpt lat="43.63642" lon="3.7306">
        <ele>171.19862283536</ele>
        <time>2020-07-07T18:41:34.000Z</time>
      </trkpt>
      <trkpt lat="43.63641" lon="3.73066">
        <ele>171.29695128321</ele>
        <time>2020-07-07T18:41:35.000Z</time>
      </trkpt>
      <trkpt lat="43.63641" lon="3.73071">
        <ele>171.39527973106</ele>
        <time>2020-07-07T18:41:36.000Z</time>
      </trkpt>
      <trkpt lat="43.6364" lon="3.73076">
        <ele>171.49360817891</ele>
        <time>2020-07-07T18:41:37.000Z</time>
      </trkpt>
      <trkpt lat="43.6364" lon="3.73081">
        <ele>171.59193662677</ele>
        <time>2020-07-07T18:41:38.000Z</time>
      </trkpt>
      <trkpt lat="43.63639" lon="3.73086">
        <ele>171.69026507462</ele>
        <time>2020-07-07T18:41:39.000Z</time>
      </trkpt>
      <trkpt lat="43.63638" lon="3.7309">
        <ele>171.78859352247</ele>
        <time>2020-07-07T18:41:40.000Z</time>
      </trkpt>
      <trkpt lat="43.63638" lon="3.73095">
        <ele>171.88692197032</ele>
        <time>2020-07-07T18:41:41.000Z</time>
      </trkpt>
      <trkpt lat="43.63637" lon="3.731">
        <ele>171.98525041817</ele>
        <time>2020-07-07T18:41:42.000Z</time>
      </trkpt>
      <trkpt lat="43.63636" lon="3.73105">
        <ele>172.08771899698</ele>
        <time>2020-07-07T18:41:43.000Z</time>
      </trkpt>
      <trkpt lat="43.63636" lon="3.73109">
        <ele>172.19091820546</ele>
        <time>2020-07-07T18:41:44.000Z</time>
      </trkpt>
      <trkpt lat="43.63635" lon="3.73114">
        <ele>172.29411741395</ele>
        <time>2020-07-07T18:41:45.000Z</time>
      </trkpt>
      <trkpt lat="43.63634" lon="3.73118">
        <ele>172.39731662244</ele>
        <time>2020-07-07T18:41:46.000Z</time>
      </trkpt>
      <trkpt lat="43.63633" lon="3.73122">
        <ele>172.50051583092</ele>
        <time>2020-07-07T18:41:47.000Z</time>
      </trkpt>
      <trkpt lat="43.63632" lon="3.73126">
        <ele>172.60371503941</ele>
        <time>2020-07-07T18:41:48.000Z</time>
      </trkpt>
      <trkpt lat="43.63631" lon="3.7313">
        <ele>172.7069142479</ele>
        <time>2020-07-07T18:41:49.000Z</time>
      </trkpt>
      <trkpt lat="43.6363" lon="3.73133">
        <ele>172.81011345638</ele>
        <time>2020-07-07T18:41:50.000Z</time>
      </trkpt>
      <trkpt lat="43.6363" lon="3.73137">
        <ele>172.984</ele>
        <time>2020-07-07T18:41:52.000Z</time>
      </trkpt>
      <trkpt lat="43.6363" lon="3.73141">
        <ele>172.784</ele>
        <time>2020-07-07T18:41:54.000Z</time>
      </trkpt>
      <trkpt lat="43.6363" lon="3.73144">
        <ele>172.684</ele>
        <time>2020-07-07T18:41:55.000Z</time>
      </trkpt>
      <trkpt lat="43.63631" lon="3.73146">
        <ele>172.484</ele>
        <time>2020-07-07T18:41:57.000Z</time>
      </trkpt>
      <trkpt lat="43.63631" lon="3.73149">
        <ele>172.184</ele>
        <time>2020-07-07T18:42:00.000Z</time>
      </trkpt>
      <trkpt lat="43.63632" lon="3.73152">
        <ele>172.084</ele>
        <time>2020-07-07T18:42:01.000Z</time>
      </trkpt>
      <trkpt lat="43.63633" lon="3.73156">
        <ele>171.984</ele>
        <time>2020-07-07T18:42:02.000Z</time>
      </trkpt>
      <trkpt lat="43.63635" lon="3.73161">
        <ele>171.884</ele>
        <time>2020-07-07T18:42:03.000Z</time>
      </trkpt>
      <trkpt lat="43.63635" lon="3.73166">
        <ele>171.784</ele>
        <time>2020-07-07T18:42:04.000Z</time>
      </trkpt>
      <trkpt lat="43.63635" lon="3.73172">
        <ele>171.684</ele>
        <time>2020-07-07T18:42:05.000Z</time>
      </trkpt>
      <trkpt lat="43.63635" lon="3.73179">
        <ele>171.584</ele>
        <time>2020-07-07T18:42:06.000Z</time>
      </trkpt>
      <trkpt lat="43.63634" lon="3.73186">
        <ele>171.484</ele>
        <time>2020-07-07T18:42:07.000Z</time>
      </trkpt>
      <trkpt lat="43.63633" lon="3.73193">
        <ele>171.384</ele>
        <time>2020-07-07T18:42:08.000Z</time>
      </trkpt>
      <trkpt lat="43.63632" lon="3.73201">
        <ele>171.284</ele>
        <time>2020-07-07T18:42:09.000Z</time>
      </trkpt>
      <trkpt lat="43.63631" lon="3.73209">
        <ele>171.184</ele>
        <time>2020-07-07T18:42:10.000Z</time>
      </trkpt>
      <trkpt lat="43.63631" lon="3.73218">
        <ele>171.084</ele>
        <time>2020-07-07T18:42:11.000Z</time>
      </trkpt>
      <trkpt lat="43.63631" lon="3.73227">
        <ele>171.032</ele>
        <time>2020-07-07T18:42:12.000Z</time>
      </trkpt>
      <trkpt lat="43.63631" lon="3.73234">
        <ele>171.232</ele>
        <time>2020-07-07T18:42:13.000Z</time>
      </trkpt>
      <trkpt lat="43.63632" lon="3.73241">
        <ele>171.432</ele>
        <time>2020-07-07T18:42:14.000Z</time>
      </trkpt>
      <trkpt lat="43.63632" lon="3.73247">
        <ele>171.632</ele>
        <time>2020-07-07T18:42:15.000Z</time>
      </trkpt>
      <trkpt lat="43.63633" lon="3.73253">
        <ele>171.832</ele>
        <time>2020-07-07T18:42:16.000Z</time>
      </trkpt>
      <trkpt lat="43.63633" lon="3.73258">
        <ele>172.032</ele>
        <time>2020-07-07T18:42:17.000Z</time>
      </trkpt>
      <trkpt lat="43.63633" lon="3.73262">
        <ele>172.232</ele>
        <time>2020-07-07T18:42:18.000Z</time>
      </trkpt>
      <trkpt lat="43.63633" lon="3.73267">
        <ele>172.432</ele>
        <time>2020-07-07T18:42:19.000Z</time>
      </trkpt>
      <trkpt lat="43.63632" lon="3.73272">
        <ele>172.632</ele>
        <time>2020-07-07T18:42:20.000Z</time>
      </trkpt>
      <trkpt lat="43.63632" lon="3.73276">
        <ele>172.832</ele>
        <time>2020-07-07T18:42:21.000Z</time>
      </trkpt>
      <trkpt lat="43.63632" lon="3.73281">
        <ele>172.984</ele>
        <time>2020-07-07T18:42:22.000Z</time>
      </trkpt>
      <trkpt lat="43.63632" lon="3.73286">
        <ele>172.884</ele>
        <time>2020-07-07T18:42:23.000Z</time>
      </trkpt>
      <trkpt lat="43.63632" lon="3.73291">
        <ele>172.784</ele>
        <time>2020-07-07T18:42:24.000Z</time>
      </trkpt>
      <trkpt lat="43.63632" lon="3.73297">
        <ele>172.684</ele>
        <time>2020-07-07T18:42:25.000Z</time>
      </trkpt>
      <trkpt lat="43.63633" lon="3.73302">
        <ele>172.584</ele>
        <time>2020-07-07T18:42:26.000Z</time>
      </trkpt>
      <trkpt lat="43.63634" lon="3.73309">
        <ele>172.484</ele>
        <time>2020-07-07T18:42:27.000Z</time>
      </trkpt>
      <trkpt lat="43.63635" lon="3.73317">
        <ele>172.384</ele>
        <time>2020-07-07T18:42:28.000Z</time>
      </trkpt>
      <trkpt lat="43.63636" lon="3.73326">
        <ele>172.284</ele>
        <time>2020-07-07T18:42:29.000Z</time>
      </trkpt>
      <trkpt lat="43.63638" lon="3.73336">
        <ele>172.184</ele>
        <time>2020-07-07T18:42:30.000Z</time>
      </trkpt>
      <trkpt lat="43.63639" lon="3.73346">
        <ele>172.084</ele>
        <time>2020-07-07T18:42:31.000Z</time>
      </trkpt>
      <trkpt lat="43.63642" lon="3.73355">
        <ele>172.0158887735</ele>
        <time>2020-07-07T18:42:32.000Z</time>
      </trkpt>
      <trkpt lat="43.63644" lon="3.73363">
        <ele>172.11519360788</ele>
        <time>2020-07-07T18:42:33.000Z</time>
      </trkpt>
      <trkpt lat="43.63645" lon="3.73368">
        <ele>172.21449844227</ele>
        <time>2020-07-07T18:42:34.000Z</time>
      </trkpt>
      <trkpt lat="43.63646" lon="3.73372">
        <ele>172.31380327665</ele>
        <time>2020-07-07T18:42:35.000Z</time>
      </trkpt>
      <trkpt lat="43.63647" lon="3.73376">
        <ele>172.41310811103</ele>
        <time>2020-07-07T18:42:36.000Z</time>
      </trkpt>
      <trkpt lat="43.63648" lon="3.73379">
        <ele>172.51241294541</ele>
        <time>2020-07-07T18:42:37.000Z</time>
      </trkpt>
      <trkpt lat="43.63649" lon="3.73383">
        <ele>172.61171777979</ele>
        <time>2020-07-07T18:42:38.000Z</time>
      </trkpt>
      <trkpt lat="43.6365" lon="3.73387">
        <ele>172.71102261417</ele>
        <time>2020-07-07T18:42:39.000Z</time>
      </trkpt>
      <trkpt lat="43.6365" lon="3.73391">
        <ele>172.81032744856</ele>
        <time>2020-07-07T18:42:40.000Z</time>
      </trkpt>
      <trkpt lat="43.63651" lon="3.73395">
        <ele>172.90963228294</ele>
        <time>2020-07-07T18:42:41.000Z</time>
      </trkpt>
      <trkpt lat="43.63651" lon="3.73399">
        <ele>173.00906312477</ele>
        <time>2020-07-07T18:42:42.000Z</time>
      </trkpt>
      <trkpt lat="43.63652" lon="3.73404">
        <ele>173.10976809177</ele>
        <time>2020-07-07T18:42:43.000Z</time>
      </trkpt>
      <trkpt lat="43.63652" lon="3.73409">
        <ele>173.21047305876</ele>
        <time>2020-07-07T18:42:44.000Z</time>
      </trkpt>
      <trkpt lat="43.63652" lon="3.73413">
        <ele>173.31117802576</ele>
        <time>2020-07-07T18:42:45.000Z</time>
      </trkpt>
      <trkpt lat="43.63652" lon="3.73417">
        <ele>173.41188299275</ele>
        <time>2020-07-07T18:42:46.000Z</time>
      </trkpt>
      <trkpt lat="43.63652" lon="3.73422">
        <ele>173.51258795975</ele>
        <time>2020-07-07T18:42:47.000Z</time>
      </trkpt>
      <trkpt lat="43.63653" lon="3.73427">
        <ele>173.61329292674</ele>
        <time>2020-07-07T18:42:48.000Z</time>
      </trkpt>
      <trkpt lat="43.63653" lon="3.73432">
        <ele>173.71399789374</ele>
        <time>2020-07-07T18:42:49.000Z</time>
      </trkpt>
      <trkpt lat="43.63654" lon="3.73438">
        <ele>173.81470286073</ele>
        <time>2020-07-07T18:42:50.000Z</time>
      </trkpt>
      <trkpt lat="43.63655" lon="3.73444">
        <ele>173.91540782773</ele>
        <time>2020-07-07T18:42:51.000Z</time>
      </trkpt>
      <trkpt lat="43.63655" lon="3.73451">
        <ele>174.016</ele>
        <time>2020-07-07T18:42:52.000Z</time>
      </trkpt>
      <trkpt lat="43.63656" lon="3.73456">
        <ele>174.116</ele>
        <time>2020-07-07T18:42:53.000Z</time>
      </trkpt>
      <trkpt lat="43.63656" lon="3.73462">
        <ele>174.216</ele>
        <time>2020-07-07T18:42:54.000Z</time>
      </trkpt>
      <trkpt lat="43.63656" lon="3.73466">
        <ele>174.316</ele>
        <time>2020-07-07T18:42:55.000Z</time>
      </trkpt>
      <trkpt lat="43.63656" lon="3.7347">
        <ele>174.416</ele>
        <time>2020-07-07T18:42:56.000Z</time>
      </trkpt>
      <trkpt lat="43.63656" lon="3.73475">
        <ele>174.516</ele>
        <time>2020-07-07T18:42:57.000Z</time>
      </trkpt>
      <trkpt lat="43.63656" lon="3.73479">
        <ele>174.616</ele>
        <time>2020-07-07T18:42:58.000Z</time>
      </trkpt>
      <trkpt lat="43.63657" lon="3.73482">
        <ele>174.716</ele>
        <time>2020-07-07T18:42:59.000Z</time>
      </trkpt>
      <trkpt lat="43.63657" lon="3.73486">
        <ele>174.816</ele>
        <time>2020-07-07T18:43:00.000Z</time>
      </trkpt>
      <trkpt lat="43.63658" lon="3.7349">
        <ele>174.916</ele>
        <time>2020-07-07T18:43:01.000Z</time>
      </trkpt>
      <trkpt lat="43.63658" lon="3.73495">
        <ele>175.016</ele>
        <time>2020-07-07T18:43:02.000Z</time>
      </trkpt>
      <trkpt lat="43.63659" lon="3.73499">
        <ele>175.116</ele>
        <time>2020-07-07T18:43:03.000Z</time>
      </trkpt>
      <trkpt lat="43.6366" lon="3.73503">
        <ele>175.216</ele>
        <time>2020-07-07T18:43:04.000Z</time>
      </trkpt>
      <trkpt lat="43.63661" lon="3.73508">
        <ele>175.316</ele>
        <time>2020-07-07T18:43:05.000Z</time>
      </trkpt>
      <trkpt lat="43.63663" lon="3.73512">
        <ele>175.416</ele>
        <time>2020-07-07T18:43:06.000Z</time>
      </trkpt>
      <trkpt lat="43.63664" lon="3.73517">
        <ele>175.516</ele>
        <time>2020-07-07T18:43:07.000Z</time>
      </trkpt>
      <trkpt lat="43.63664" lon="3.73522">
        <ele>175.616</ele>
        <time>2020-07-07T18:43:08.000Z</time>
      </trkpt>
      <trkpt lat="43.63664" lon="3.73528">
        <ele>175.716</ele>
        <time>2020-07-07T18:43:09.000Z</time>
      </trkpt>
      <trkpt lat="43.63665" lon="3.73533">
        <ele>175.816</ele>
        <time>2020-07-07T18:43:10.000Z</time>
      </trkpt>
      <trkpt lat="43.63666" lon="3.73539">
        <ele>175.916</ele>
        <time>2020-07-07T18:43:11.000Z</time>
      </trkpt>
      <trkpt lat="43.63667" lon="3.73544">
        <ele>176.01548887218</ele>
        <time>2020-07-07T18:43:12.000Z</time>
      </trkpt>
      <trkpt lat="43.63668" lon="3.7355">
        <ele>176.11229432327</ele>
        <time>2020-07-07T18:43:13.000Z</time>
      </trkpt>
      <trkpt lat="43.63669" lon="3.73556">
        <ele>176.20909977436</ele>
        <time>2020-07-07T18:43:14.000Z</time>
      </trkpt>
      <trkpt lat="43.6367" lon="3.73563">
        <ele>176.30590522545</ele>
        <time>2020-07-07T18:43:15.000Z</time>
      </trkpt>
      <trkpt lat="43.63671" lon="3.73571">
        <ele>176.40271067654</ele>
        <time>2020-07-07T18:43:16.000Z</time>
      </trkpt>
      <trkpt lat="43.63672" lon="3.7358">
        <ele>176.49951612763</ele>
        <time>2020-07-07T18:43:17.000Z</time>
      </trkpt>
      <trkpt lat="43.63673" lon="3.73588">
        <ele>176.59632157872</ele>
        <time>2020-07-07T18:43:18.000Z</time>
      </trkpt>
      <trkpt lat="43.63674" lon="3.73596">
        <ele>176.69312702982</ele>
        <time>2020-07-07T18:43:19.000Z</time>
      </trkpt>
      <trkpt lat="43.63676" lon="3.73604">
        <ele>176.78993248091</ele>
        <time>2020-07-07T18:43:20.000Z</time>
      </trkpt>
      <trkpt lat="43.63677" lon="3.73611">
        <ele>176.886737932</ele>
        <time>2020-07-07T18:43:21.000Z</time>
      </trkpt>
      <trkpt lat="43.63678" lon="3.73617">
        <ele>176.98354338309</ele>
        <time>2020-07-07T18:43:22.000Z</time>
      </trkpt>
      <trkpt lat="43.63679" lon="3.73624">
        <ele>177</ele>
        <time>2020-07-07T18:43:23.000Z</time>
      </trkpt>
      <trkpt lat="43.63679" lon="3.7363">
        <ele>177</ele>
        <time>2020-07-07T18:43:24.000Z</time>
      </trkpt>
      <trkpt lat="43.63681" lon="3.73636">
        <ele>177</ele>
        <time>2020-07-07T18:43:25.000Z</time>
      </trkpt>
      <trkpt lat="43.63682" lon="3.73642">
        <ele>177</ele>
        <time>2020-07-07T18:43:26.000Z</time>
      </trkpt>
      <trkpt lat="43.63683" lon="3.73649">
        <ele>177</ele>
        <time>2020-07-07T18:43:27.000Z</time>
      </trkpt>
      <trkpt lat="43.63683" lon="3.73655">
        <ele>177</ele>
        <time>2020-07-07T18:43:28.000Z</time>
      </trkpt>
      <trkpt lat="43.63684" lon="3.73662">
        <ele>177</ele>
        <time>2020-07-07T18:43:29.000Z</time>
      </trkpt>
      <trkpt lat="43.63685" lon="3.73668">
        <ele>177</ele>
        <time>2020-07-07T18:43:30.000Z</time>
      </trkpt>
      <trkpt lat="43.63686" lon="3.73674">
        <ele>177</ele>
        <time>2020-07-07T18:43:31.000Z</time>
      </trkpt>
      <trkpt lat="43.63686" lon="3.7368">
        <ele>176.984</ele>
        <time>2020-07-07T18:43:32.000Z</time>
      </trkpt>
      <trkpt lat="43.63687" lon="3.73687">
        <ele>176.884</ele>
        <time>2020-07-07T18:43:33.000Z</time>
      </trkpt>
      <trkpt lat="43.63687" lon="3.73693">
        <ele>176.784</ele>
        <time>2020-07-07T18:43:34.000Z</time>
      </trkpt>
      <trkpt lat="43.63687" lon="3.737">
        <ele>176.684</ele>
        <time>2020-07-07T18:43:35.000Z</time>
      </trkpt>
      <trkpt lat="43.63688" lon="3.73707">
        <ele>176.584</ele>
        <time>2020-07-07T18:43:36.000Z</time>
      </trkpt>
      <trkpt lat="43.6369" lon="3.73713">
        <ele>176.484</ele>
        <time>2020-07-07T18:43:37.000Z</time>
      </trkpt>
      <trkpt lat="43.63692" lon="3.73718">
        <ele>176.384</ele>
        <time>2020-07-07T18:43:38.000Z</time>
      </trkpt>
      <trkpt lat="43.63694" lon="3.73723">
        <ele>176.284</ele>
        <time>2020-07-07T18:43:39.000Z</time>
      </trkpt>
      <trkpt lat="43.63697" lon="3.73728">
        <ele>176.184</ele>
        <time>2020-07-07T18:43:40.000Z</time>
      </trkpt>
      <trkpt lat="43.63699" lon="3.73734">
        <ele>176.084</ele>
        <time>2020-07-07T18:43:41.000Z</time>
      </trkpt>
      <trkpt lat="43.63701" lon="3.73739">
        <ele>176</ele>
        <time>2020-07-07T18:43:42.000Z</time>
      </trkpt>
      <trkpt lat="43.63702" lon="3.73744">
        <ele>176</ele>
        <time>2020-07-07T18:43:43.000Z</time>
      </trkpt>
      <trkpt lat="43.63704" lon="3.73748">
        <ele>176</ele>
        <time>2020-07-07T18:43:44.000Z</time>
      </trkpt>
      <trkpt lat="43.63704" lon="3.73751">
        <ele>176</ele>
        <time>2020-07-07T18:43:45.000Z</time>
      </trkpt>
      <trkpt lat="43.63703" lon="3.73755">
        <ele>176</ele>
        <time>2020-07-07T18:43:46.000Z</time>
      </trkpt>
      <trkpt lat="43.63703" lon="3.73759">
        <ele>176</ele>
        <time>2020-07-07T18:43:47.000Z</time>
      </trkpt>
      <trkpt lat="43.63703" lon="3.73765">
        <ele>176</ele>
        <time>2020-07-07T18:43:48.000Z</time>
      </trkpt>
      <trkpt lat="43.63703" lon="3.73771">
        <ele>176</ele>
        <time>2020-07-07T18:43:49.000Z</time>
      </trkpt>
      <trkpt lat="43.63703" lon="3.73778">
        <ele>176</ele>
        <time>2020-07-07T18:43:50.000Z</time>
      </trkpt>
      <trkpt lat="43.63703" lon="3.73786">
        <ele>176</ele>
        <time>2020-07-07T18:43:51.000Z</time>
      </trkpt>
      <trkpt lat="43.63703" lon="3.73794">
        <ele>175.97276143469</ele>
        <time>2020-07-07T18:43:52.000Z</time>
      </trkpt>
      <trkpt lat="43.63704" lon="3.738">
        <ele>175.77820914776</ele>
        <time>2020-07-07T18:43:53.000Z</time>
      </trkpt>
      <trkpt lat="43.63705" lon="3.73805">
        <ele>175.58365686082</ele>
        <time>2020-07-07T18:43:54.000Z</time>
      </trkpt>
      <trkpt lat="43.63706" lon="3.73811">
        <ele>175.38910457388</ele>
        <time>2020-07-07T18:43:55.000Z</time>
      </trkpt>
      <trkpt lat="43.63705" lon="3.73815">
        <ele>175.19455228694</ele>
        <time>2020-07-07T18:43:56.000Z</time>
      </trkpt>
      <trkpt lat="43.63705" lon="3.73819">
        <ele>175</ele>
        <time>2020-07-07T18:43:57.000Z</time>
      </trkpt>
      <trkpt lat="43.63705" lon="3.73822">
        <ele>174.80544771306</ele>
        <time>2020-07-07T18:43:58.000Z</time>
      </trkpt>
      <trkpt lat="43.63706" lon="3.73826">
        <ele>174.61089542612</ele>
        <time>2020-07-07T18:43:59.000Z</time>
      </trkpt>
      <trkpt lat="43.63706" lon="3.7383">
        <ele>174.41634313918</ele>
        <time>2020-07-07T18:44:00.000Z</time>
      </trkpt>
      <trkpt lat="43.63707" lon="3.73834">
        <ele>174.22179085224</ele>
        <time>2020-07-07T18:44:01.000Z</time>
      </trkpt>
      <trkpt lat="43.63709" lon="3.7384">
        <ele>174.02723856531</ele>
        <time>2020-07-07T18:44:02.000Z</time>
      </trkpt>
      <trkpt lat="43.6371" lon="3.73847">
        <ele>173.82268161497</ele>
        <time>2020-07-07T18:44:03.000Z</time>
      </trkpt>
      <trkpt lat="43.6371" lon="3.73855">
        <ele>173.61649591191</ele>
        <time>2020-07-07T18:44:04.000Z</time>
      </trkpt>
      <trkpt lat="43.63711" lon="3.73861">
        <ele>173.41031020886</ele>
        <time>2020-07-07T18:44:05.000Z</time>
      </trkpt>
      <trkpt lat="43.63711" lon="3.73867">
        <ele>173.20412450581</ele>
        <time>2020-07-07T18:44:06.000Z</time>
      </trkpt>
      <trkpt lat="43.63711" lon="3.73872">
        <ele>172.99793880276</ele>
        <time>2020-07-07T18:44:07.000Z</time>
      </trkpt>
      <trkpt lat="43.63711" lon="3.73878">
        <ele>172.79175309971</ele>
        <time>2020-07-07T18:44:08.000Z</time>
      </trkpt>
      <trkpt lat="43.63711" lon="3.73883">
        <ele>172.58556739666</ele>
        <time>2020-07-07T18:44:09.000Z</time>
      </trkpt>
      <trkpt lat="43.63711" lon="3.73888">
        <ele>172.37938169361</ele>
        <time>2020-07-07T18:44:10.000Z</time>
      </trkpt>
      <trkpt lat="43.6371" lon="3.73893">
        <ele>172.17319599056</ele>
        <time>2020-07-07T18:44:11.000Z</time>
      </trkpt>
      <trkpt lat="43.63709" lon="3.739">
        <ele>172</ele>
        <time>2020-07-07T18:44:12.000Z</time>
      </trkpt>
      <trkpt lat="43.63708" lon="3.73906">
        <ele>172</ele>
        <time>2020-07-07T18:44:13.000Z</time>
      </trkpt>
      <trkpt lat="43.63708" lon="3.73912">
        <ele>172</ele>
        <time>2020-07-07T18:44:14.000Z</time>
      </trkpt>
      <trkpt lat="43.63709" lon="3.73918">
        <ele>172</ele>
        <time>2020-07-07T18:44:15.000Z</time>
      </trkpt>
      <trkpt lat="43.63709" lon="3.73923">
        <ele>172</ele>
        <time>2020-07-07T18:44:16.000Z</time>
      </trkpt>
      <trkpt lat="43.63709" lon="3.73929">
        <ele>172</ele>
        <time>2020-07-07T18:44:17.000Z</time>
      </trkpt>
      <trkpt lat="43.63709" lon="3.73935">
        <ele>172</ele>
        <time>2020-07-07T18:44:18.000Z</time>
      </trkpt>
      <trkpt lat="43.63709" lon="3.73941">
        <ele>172</ele>
        <time>2020-07-07T18:44:19.000Z</time>
      </trkpt>
      <trkpt lat="43.6371" lon="3.73947">
        <ele>172</ele>
        <time>2020-07-07T18:44:20.000Z</time>
      </trkpt>
      <trkpt lat="43.63711" lon="3.73955">
        <ele>172</ele>
        <time>2020-07-07T18:44:21.000Z</time>
      </trkpt>
      <trkpt lat="43.63712" lon="3.73963">
        <ele>172</ele>
        <time>2020-07-07T18:44:22.000Z</time>
      </trkpt>
      <trkpt lat="43.63712" lon="3.73971">
        <ele>171.90946502058</ele>
        <time>2020-07-07T18:44:23.000Z</time>
      </trkpt>
      <trkpt lat="43.63712" lon="3.73979">
        <ele>171.80658436214</ele>
        <time>2020-07-07T18:44:24.000Z</time>
      </trkpt>
      <trkpt lat="43.63713" lon="3.73986">
        <ele>171.7037037037</ele>
        <time>2020-07-07T18:44:25.000Z</time>
      </trkpt>
      <trkpt lat="43.63715" lon="3.73992">
        <ele>171.60082304527</ele>
        <time>2020-07-07T18:44:26.000Z</time>
      </trkpt>
      <trkpt lat="43.63717" lon="3.73998">
        <ele>171.49794238683</ele>
        <time>2020-07-07T18:44:27.000Z</time>
      </trkpt>
      <trkpt lat="43.6372" lon="3.74005">
        <ele>171.3950617284</ele>
        <time>2020-07-07T18:44:28.000Z</time>
      </trkpt>
      <trkpt lat="43.63721" lon="3.74011">
        <ele>171.29218106996</ele>
        <time>2020-07-07T18:44:29.000Z</time>
      </trkpt>
      <trkpt lat="43.63722" lon="3.74018">
        <ele>171.18930041152</ele>
        <time>2020-07-07T18:44:30.000Z</time>
      </trkpt>
      <trkpt lat="43.63722" lon="3.74024">
        <ele>171.08641975309</ele>
        <time>2020-07-07T18:44:31.000Z</time>
      </trkpt>
      <trkpt lat="43.63721" lon="3.7403">
        <ele>170.968</ele>
        <time>2020-07-07T18:44:32.000Z</time>
      </trkpt>
      <trkpt lat="43.63719" lon="3.74037">
        <ele>170.768</ele>
        <time>2020-07-07T18:44:33.000Z</time>
      </trkpt>
      <trkpt lat="43.63717" lon="3.74043">
        <ele>170.568</ele>
        <time>2020-07-07T18:44:34.000Z</time>
      </trkpt>
      <trkpt lat="43.63716" lon="3.74048">
        <ele>170.368</ele>
        <time>2020-07-07T18:44:35.000Z</time>
      </trkpt>
      <trkpt lat="43.63715" lon="3.74054">
        <ele>170.168</ele>
        <time>2020-07-07T18:44:36.000Z</time>
      </trkpt>
      <trkpt lat="43.63715" lon="3.7406">
        <ele>169.968</ele>
        <time>2020-07-07T18:44:37.000Z</time>
      </trkpt>
      <trkpt lat="43.63716" lon="3.74065">
        <ele>169.768</ele>
        <time>2020-07-07T18:44:38.000Z</time>
      </trkpt>
      <trkpt lat="43.63716" lon="3.74071">
        <ele>169.568</ele>
        <time>2020-07-07T18:44:39.000Z</time>
      </trkpt>
      <trkpt lat="43.63716" lon="3.74077">
        <ele>169.368</ele>
        <time>2020-07-07T18:44:40.000Z</time>
      </trkpt>
      <trkpt lat="43.63716" lon="3.74084">
        <ele>169.168</ele>
        <time>2020-07-07T18:44:41.000Z</time>
      </trkpt>
      <trkpt lat="43.63716" lon="3.74092">
        <ele>169</ele>
        <time>2020-07-07T18:44:42.000Z</time>
      </trkpt>
      <trkpt lat="43.63715" lon="3.74099">
        <ele>169</ele>
        <time>2020-07-07T18:44:43.000Z</time>
      </trkpt>
      <trkpt lat="43.63716" lon="3.74106">
        <ele>169</ele>
        <time>2020-07-07T18:44:44.000Z</time>
      </trkpt>
      <trkpt lat="43.63717" lon="3.74113">
        <ele>169</ele>
        <time>2020-07-07T18:44:45.000Z</time>
      </trkpt>
      <trkpt lat="43.63718" lon="3.7412">
        <ele>169</ele>
        <time>2020-07-07T18:44:46.000Z</time>
      </trkpt>
      <trkpt lat="43.63719" lon="3.74125">
        <ele>169</ele>
        <time>2020-07-07T18:44:47.000Z</time>
      </trkpt>
      <trkpt lat="43.63718" lon="3.7413">
        <ele>169</ele>
        <time>2020-07-07T18:44:48.000Z</time>
      </trkpt>
      <trkpt lat="43.63718" lon="3.74134">
        <ele>169</ele>
        <time>2020-07-07T18:44:49.000Z</time>
      </trkpt>
      <trkpt lat="43.63718" lon="3.74138">
        <ele>169</ele>
        <time>2020-07-07T18:44:50.000Z</time>
      </trkpt>
      <trkpt lat="43.63717" lon="3.74142">
        <ele>169</ele>
        <time>2020-07-07T18:44:51.000Z</time>
      </trkpt>
      <trkpt lat="43.63715" lon="3.74145">
        <ele>169.016</ele>
        <time>2020-07-07T18:44:52.000Z</time>
      </trkpt>
      <trkpt lat="43.63714" lon="3.74148">
        <ele>169.116</ele>
        <time>2020-07-07T18:44:53.000Z</time>
      </trkpt>
      <trkpt lat="43.63713" lon="3.74151">
        <ele>169.216</ele>
        <time>2020-07-07T18:44:54.000Z</time>
      </trkpt>
      <trkpt lat="43.63712" lon="3.74155">
        <ele>169.416</ele>
        <time>2020-07-07T18:44:56.000Z</time>
      </trkpt>
      <trkpt lat="43.63712" lon="3.7416">
        <ele>169.616</ele>
        <time>2020-07-07T18:44:58.000Z</time>
      </trkpt>
      <trkpt lat="43.63713" lon="3.74166">
        <ele>169.816</ele>
        <time>2020-07-07T18:45:00.000Z</time>
      </trkpt>
      <trkpt lat="43.63713" lon="3.74168">
        <ele>169.916</ele>
        <time>2020-07-07T18:45:01.000Z</time>
      </trkpt>
      <trkpt lat="43.63713" lon="3.74171">
        <ele>169.984</ele>
        <time>2020-07-07T18:45:02.000Z</time>
      </trkpt>
      <trkpt lat="43.63713" lon="3.74176">
        <ele>169.784</ele>
        <time>2020-07-07T18:45:04.000Z</time>
      </trkpt>
      <trkpt lat="43.63713" lon="3.7418">
        <ele>169.584</ele>
        <time>2020-07-07T18:45:06.000Z</time>
      </trkpt>
      <trkpt lat="43.63714" lon="3.74185">
        <ele>169.384</ele>
        <time>2020-07-07T18:45:08.000Z</time>
      </trkpt>
      <trkpt lat="43.63715" lon="3.74188">
        <ele>169.284</ele>
        <time>2020-07-07T18:45:09.000Z</time>
      </trkpt>
      <trkpt lat="43.63715" lon="3.74192">
        <ele>169.184</ele>
        <time>2020-07-07T18:45:10.000Z</time>
      </trkpt>
      <trkpt lat="43.63716" lon="3.74197">
        <ele>169.084</ele>
        <time>2020-07-07T18:45:11.000Z</time>
      </trkpt>
      <trkpt lat="43.63718" lon="3.74201">
        <ele>169</ele>
        <time>2020-07-07T18:45:12.000Z</time>
      </trkpt>
      <trkpt lat="43.63722" lon="3.74206">
        <ele>169</ele>
        <time>2020-07-07T18:45:13.000Z</time>
      </trkpt>
      <trkpt lat="43.63724" lon="3.74211">
        <ele>169</ele>
        <time>2020-07-07T18:45:14.000Z</time>
      </trkpt>
      <trkpt lat="43.63727" lon="3.74215">
        <ele>169</ele>
        <time>2020-07-07T18:45:15.000Z</time>
      </trkpt>
      <trkpt lat="43.63729" lon="3.7422">
        <ele>169</ele>
        <time>2020-07-07T18:45:16.000Z</time>
      </trkpt>
      <trkpt lat="43.63731" lon="3.74224">
        <ele>169</ele>
        <time>2020-07-07T18:45:17.000Z</time>
      </trkpt>
      <trkpt lat="43.63732" lon="3.74228">
        <ele>169</ele>
        <time>2020-07-07T18:45:18.000Z</time>
      </trkpt>
      <trkpt lat="43.63734" lon="3.74232">
        <ele>169</ele>
        <time>2020-07-07T18:45:19.000Z</time>
      </trkpt>
      <trkpt lat="43.63734" lon="3.74235">
        <ele>169</ele>
        <time>2020-07-07T18:45:20.000Z</time>
      </trkpt>
      <trkpt lat="43.63735" lon="3.74238">
        <ele>169</ele>
        <time>2020-07-07T18:45:21.000Z</time>
      </trkpt>
      <trkpt lat="43.63735" lon="3.74241">
        <ele>169.016</ele>
        <time>2020-07-07T18:45:22.000Z</time>
      </trkpt>
      <trkpt lat="43.63735" lon="3.74244">
        <ele>169.116</ele>
        <time>2020-07-07T18:45:23.000Z</time>
      </trkpt>
      <trkpt lat="43.63735" lon="3.74247">
        <ele>169.216</ele>
        <time>2020-07-07T18:45:24.000Z</time>
      </trkpt>
      <trkpt lat="43.63735" lon="3.7425">
        <ele>169.316</ele>
        <time>2020-07-07T18:45:25.000Z</time>
      </trkpt>
      <trkpt lat="43.63735" lon="3.74253">
        <ele>169.416</ele>
        <time>2020-07-07T18:45:26.000Z</time>
      </trkpt>
      <trkpt lat="43.63734" lon="3.74255">
        <ele>169.516</ele>
        <time>2020-07-07T18:45:27.000Z</time>
      </trkpt>
      <trkpt lat="43.63735" lon="3.7426">
        <ele>169.716</ele>
        <time>2020-07-07T18:45:29.000Z</time>
      </trkpt>
      <trkpt lat="43.63736" lon="3.74262">
        <ele>169.816</ele>
        <time>2020-07-07T18:45:30.000Z</time>
      </trkpt>
      <trkpt lat="43.63739" lon="3.74265">
        <ele>169.916</ele>
        <time>2020-07-07T18:45:31.000Z</time>
      </trkpt>
      <trkpt lat="43.63741" lon="3.74268">
        <ele>169.96853489669</ele>
        <time>2020-07-07T18:45:32.000Z</time>
      </trkpt>
      <trkpt lat="43.63744" lon="3.74272">
        <ele>169.77187800098</ele>
        <time>2020-07-07T18:45:33.000Z</time>
      </trkpt>
      <trkpt lat="43.63747" lon="3.74277">
        <ele>169.57522110528</ele>
        <time>2020-07-07T18:45:34.000Z</time>
      </trkpt>
      <trkpt lat="43.6375" lon="3.74282">
        <ele>169.37856420958</ele>
        <time>2020-07-07T18:45:35.000Z</time>
      </trkpt>
      <trkpt lat="43.63752" lon="3.74288">
        <ele>169.18190731387</ele>
        <time>2020-07-07T18:45:36.000Z</time>
      </trkpt>
      <trkpt lat="43.63753" lon="3.74295">
        <ele>168.98525041817</ele>
        <time>2020-07-07T18:45:37.000Z</time>
      </trkpt>
      <trkpt lat="43.63754" lon="3.74303">
        <ele>168.78859352247</ele>
        <time>2020-07-07T18:45:38.000Z</time>
      </trkpt>
      <trkpt lat="43.63755" lon="3.74312">
        <ele>168.59193662677</ele>
        <time>2020-07-07T18:45:39.000Z</time>
      </trkpt>
      <trkpt lat="43.63755" lon="3.74321">
        <ele>168.39527973106</ele>
        <time>2020-07-07T18:45:40.000Z</time>
      </trkpt>
      <trkpt lat="43.63754" lon="3.7433">
        <ele>168.19862283536</ele>
        <time>2020-07-07T18:45:41.000Z</time>
      </trkpt>
      <trkpt lat="43.63754" lon="3.74337">
        <ele>168.00196593966</ele>
        <time>2020-07-07T18:45:42.000Z</time>
      </trkpt>
      <trkpt lat="43.63753" lon="3.74343">
        <ele>168.10071239855</ele>
        <time>2020-07-07T18:45:43.000Z</time>
      </trkpt>
      <trkpt lat="43.63752" lon="3.74347">
        <ele>168.20244176523</ele>
        <time>2020-07-07T18:45:44.000Z</time>
      </trkpt>
      <trkpt lat="43.63752" lon="3.74351">
        <ele>168.30417113191</ele>
        <time>2020-07-07T18:45:45.000Z</time>
      </trkpt>
      <trkpt lat="43.63752" lon="3.74354">
        <ele>168.40590049859</ele>
        <time>2020-07-07T18:45:46.000Z</time>
      </trkpt>
      <trkpt lat="43.63753" lon="3.74357">
        <ele>168.50762986527</ele>
        <time>2020-07-07T18:45:47.000Z</time>
      </trkpt>
      <trkpt lat="43.63753" lon="3.7436">
        <ele>168.60935923195</ele>
        <time>2020-07-07T18:45:48.000Z</time>
      </trkpt>
      <trkpt lat="43.63754" lon="3.74362">
        <ele>168.71108859863</ele>
        <time>2020-07-07T18:45:49.000Z</time>
      </trkpt>
      <trkpt lat="43.63755" lon="3.74365">
        <ele>168.81281796531</ele>
        <time>2020-07-07T18:45:50.000Z</time>
      </trkpt>
      <trkpt lat="43.63756" lon="3.74368">
        <ele>168.91454733199</ele>
        <time>2020-07-07T18:45:51.000Z</time>
      </trkpt>
      <trkpt lat="43.63756" lon="3.74371">
        <ele>168.984</ele>
        <time>2020-07-07T18:45:52.000Z</time>
      </trkpt>
      <trkpt lat="43.63757" lon="3.74374">
        <ele>168.884</ele>
        <time>2020-07-07T18:45:53.000Z</time>
      </trkpt>
      <trkpt lat="43.63757" lon="3.74377">
        <ele>168.784</ele>
        <time>2020-07-07T18:45:54.000Z</time>
      </trkpt>
      <trkpt lat="43.63758" lon="3.7438">
        <ele>168.684</ele>
        <time>2020-07-07T18:45:55.000Z</time>
      </trkpt>
      <trkpt lat="43.63759" lon="3.74382">
        <ele>168.584</ele>
        <time>2020-07-07T18:45:56.000Z</time>
      </trkpt>
      <trkpt lat="43.63759" lon="3.74385">
        <ele>168.484</ele>
        <time>2020-07-07T18:45:57.000Z</time>
      </trkpt>
      <trkpt lat="43.63761" lon="3.74388">
        <ele>168.384</ele>
        <time>2020-07-07T18:45:58.000Z</time>
      </trkpt>
      <trkpt lat="43.63761" lon="3.7439">
        <ele>168</ele>
        <time>2020-07-07T18:46:04.000Z</time>
      </trkpt>
      <trkpt lat="43.63773" lon="3.74397">
        <ele>167.00334267963</ele>
        <time>2020-07-07T18:46:43.000Z</time>
      </trkpt>
      <trkpt lat="43.63777" lon="3.74397">
        <ele>166.82267920978</ele>
        <time>2020-07-07T18:46:44.000Z</time>
      </trkpt>
      <trkpt lat="43.63781" lon="3.74397">
        <ele>166.61649377881</ele>
        <time>2020-07-07T18:46:45.000Z</time>
      </trkpt>
      <trkpt lat="43.63786" lon="3.74396">
        <ele>166.41030834784</ele>
        <time>2020-07-07T18:46:46.000Z</time>
      </trkpt>
      <trkpt lat="43.63791" lon="3.74396">
        <ele>166.20412291687</ele>
        <time>2020-07-07T18:46:47.000Z</time>
      </trkpt>
      <trkpt lat="43.63796" lon="3.74396">
        <ele>165.9979374859</ele>
        <time>2020-07-07T18:46:48.000Z</time>
      </trkpt>
      <trkpt lat="43.63802" lon="3.74395">
        <ele>165.79175205493</ele>
        <time>2020-07-07T18:46:49.000Z</time>
      </trkpt>
      <trkpt lat="43.63809" lon="3.74395">
        <ele>165.58556662396</ele>
        <time>2020-07-07T18:46:50.000Z</time>
      </trkpt>
      <trkpt lat="43.63815" lon="3.74395">
        <ele>165.37938119299</ele>
        <time>2020-07-07T18:46:51.000Z</time>
      </trkpt>
      <trkpt lat="43.63822" lon="3.74395">
        <ele>165.17319576202</ele>
        <time>2020-07-07T18:46:52.000Z</time>
      </trkpt>
      <trkpt lat="43.63828" lon="3.74395">
        <ele>164.953307393</ele>
        <time>2020-07-07T18:46:53.000Z</time>
      </trkpt>
      <trkpt lat="43.63834" lon="3.74394">
        <ele>164.66147859922</ele>
        <time>2020-07-07T18:46:54.000Z</time>
      </trkpt>
      <trkpt lat="43.6384" lon="3.74394">
        <ele>164.36964980545</ele>
        <time>2020-07-07T18:46:55.000Z</time>
      </trkpt>
      <trkpt lat="43.63846" lon="3.74394">
        <ele>164.07782101167</ele>
        <time>2020-07-07T18:46:56.000Z</time>
      </trkpt>
      <trkpt lat="43.63852" lon="3.74393">
        <ele>163.7859922179</ele>
        <time>2020-07-07T18:46:57.000Z</time>
      </trkpt>
      <trkpt lat="43.63858" lon="3.74392">
        <ele>163.49416342412</ele>
        <time>2020-07-07T18:46:58.000Z</time>
      </trkpt>
      <trkpt lat="43.63864" lon="3.7439">
        <ele>163.20233463035</ele>
        <time>2020-07-07T18:46:59.000Z</time>
      </trkpt>
      <trkpt lat="43.63869" lon="3.74388">
        <ele>162.91050583658</ele>
        <time>2020-07-07T18:47:00.000Z</time>
      </trkpt>
      <trkpt lat="43.63874" lon="3.74383">
        <ele>162.6186770428</ele>
        <time>2020-07-07T18:47:01.000Z</time>
      </trkpt>
      <trkpt lat="43.63879" lon="3.74377">
        <ele>162.32684824903</ele>
        <time>2020-07-07T18:47:02.000Z</time>
      </trkpt>
      <trkpt lat="43.63883" lon="3.74374">
        <ele>162.03501945525</ele>
        <time>2020-07-07T18:47:03.000Z</time>
      </trkpt>
      <trkpt lat="43.63887" lon="3.74372">
        <ele>161.90955803809</ele>
        <time>2020-07-07T18:47:04.000Z</time>
      </trkpt>
      <trkpt lat="43.63892" lon="3.7437">
        <ele>161.80678308137</ele>
        <time>2020-07-07T18:47:05.000Z</time>
      </trkpt>
      <trkpt lat="43.63896" lon="3.74367">
        <ele>161.70400812465</ele>
        <time>2020-07-07T18:47:06.000Z</time>
      </trkpt>
      <trkpt lat="43.639" lon="3.74366">
        <ele>161.60123316793</ele>
        <time>2020-07-07T18:47:07.000Z</time>
      </trkpt>
      <trkpt lat="43.63904" lon="3.74368">
        <ele>161.49845821121</ele>
        <time>2020-07-07T18:47:08.000Z</time>
      </trkpt>
      <trkpt lat="43.63907" lon="3.74373">
        <ele>161.39568325449</ele>
        <time>2020-07-07T18:47:09.000Z</time>
      </trkpt>
      <trkpt lat="43.63909" lon="3.74379">
        <ele>161.29290829777</ele>
        <time>2020-07-07T18:47:10.000Z</time>
      </trkpt>
      <trkpt lat="43.63911" lon="3.74385">
        <ele>161.19013334105</ele>
        <time>2020-07-07T18:47:11.000Z</time>
      </trkpt>
      <trkpt lat="43.63911" lon="3.74393">
        <ele>161.08735838433</ele>
        <time>2020-07-07T18:47:12.000Z</time>
      </trkpt>
      <trkpt lat="43.63912" lon="3.744">
        <ele>160.98498466947</ele>
        <time>2020-07-07T18:47:13.000Z</time>
      </trkpt>
      <trkpt lat="43.63912" lon="3.74408">
        <ele>160.88488460144</ele>
        <time>2020-07-07T18:47:14.000Z</time>
      </trkpt>
      <trkpt lat="43.63911" lon="3.74415">
        <ele>160.7847845334</ele>
        <time>2020-07-07T18:47:15.000Z</time>
      </trkpt>
      <trkpt lat="43.63911" lon="3.74423">
        <ele>160.68468446537</ele>
        <time>2020-07-07T18:47:16.000Z</time>
      </trkpt>
      <trkpt lat="43.6391" lon="3.7443">
        <ele>160.58458439733</ele>
        <time>2020-07-07T18:47:17.000Z</time>
      </trkpt>
      <trkpt lat="43.63909" lon="3.74438">
        <ele>160.48448432929</ele>
        <time>2020-07-07T18:47:18.000Z</time>
      </trkpt>
      <trkpt lat="43.63909" lon="3.74445">
        <ele>160.38438426126</ele>
        <time>2020-07-07T18:47:19.000Z</time>
      </trkpt>
      <trkpt lat="43.63909" lon="3.74452">
        <ele>160.28428419322</ele>
        <time>2020-07-07T18:47:20.000Z</time>
      </trkpt>
      <trkpt lat="43.63909" lon="3.74459">
        <ele>160.18418412519</ele>
        <time>2020-07-07T18:47:21.000Z</time>
      </trkpt>
      <trkpt lat="43.63909" lon="3.74466">
        <ele>160.08408405715</ele>
        <time>2020-07-07T18:47:22.000Z</time>
      </trkpt>
      <trkpt lat="43.6391" lon="3.74473">
        <ele>159.968</ele>
        <time>2020-07-07T18:47:23.000Z</time>
      </trkpt>
      <trkpt lat="43.6391" lon="3.7448">
        <ele>159.768</ele>
        <time>2020-07-07T18:47:24.000Z</time>
      </trkpt>
      <trkpt lat="43.63911" lon="3.74487">
        <ele>159.568</ele>
        <time>2020-07-07T18:47:25.000Z</time>
      </trkpt>
      <trkpt lat="43.63911" lon="3.74494">
        <ele>159.368</ele>
        <time>2020-07-07T18:47:26.000Z</time>
      </trkpt>
      <trkpt lat="43.63912" lon="3.745">
        <ele>159.168</ele>
        <time>2020-07-07T18:47:27.000Z</time>
      </trkpt>
      <trkpt lat="43.63913" lon="3.74507">
        <ele>158.968</ele>
        <time>2020-07-07T18:47:28.000Z</time>
      </trkpt>
      <trkpt lat="43.63914" lon="3.74514">
        <ele>158.768</ele>
        <time>2020-07-07T18:47:29.000Z</time>
      </trkpt>
      <trkpt lat="43.63915" lon="3.7452">
        <ele>158.568</ele>
        <time>2020-07-07T18:47:30.000Z</time>
      </trkpt>
      <trkpt lat="43.63916" lon="3.74526">
        <ele>158.368</ele>
        <time>2020-07-07T18:47:31.000Z</time>
      </trkpt>
      <trkpt lat="43.63917" lon="3.74533">
        <ele>158.168</ele>
        <time>2020-07-07T18:47:32.000Z</time>
      </trkpt>
      <trkpt lat="43.63919" lon="3.74539">
        <ele>157.984</ele>
        <time>2020-07-07T18:47:33.000Z</time>
      </trkpt>
      <trkpt lat="43.6392" lon="3.74545">
        <ele>157.884</ele>
        <time>2020-07-07T18:47:34.000Z</time>
      </trkpt>
      <trkpt lat="43.63922" lon="3.74552">
        <ele>157.784</ele>
        <time>2020-07-07T18:47:35.000Z</time>
      </trkpt>
      <trkpt lat="43.63924" lon="3.74558">
        <ele>157.684</ele>
        <time>2020-07-07T18:47:36.000Z</time>
      </trkpt>
      <trkpt lat="43.63925" lon="3.74565">
        <ele>157.584</ele>
        <time>2020-07-07T18:47:37.000Z</time>
      </trkpt>
      <trkpt lat="43.63927" lon="3.74572">
        <ele>157.484</ele>
        <time>2020-07-07T18:47:38.000Z</time>
      </trkpt>
      <trkpt lat="43.63929" lon="3.74579">
        <ele>157.384</ele>
        <time>2020-07-07T18:47:39.000Z</time>
      </trkpt>
      <trkpt lat="43.6393" lon="3.74586">
        <ele>157.284</ele>
        <time>2020-07-07T18:47:40.000Z</time>
      </trkpt>
      <trkpt lat="43.63931" lon="3.74593">
        <ele>157.184</ele>
        <time>2020-07-07T18:47:41.000Z</time>
      </trkpt>
      <trkpt lat="43.63933" lon="3.74601">
        <ele>157.084</ele>
        <time>2020-07-07T18:47:42.000Z</time>
      </trkpt>
      <trkpt lat="43.63934" lon="3.74608">
        <ele>157</ele>
        <time>2020-07-07T18:47:43.000Z</time>
      </trkpt>
      <trkpt lat="43.63935" lon="3.74615">
        <ele>157</ele>
        <time>2020-07-07T18:47:44.000Z</time>
      </trkpt>
      <trkpt lat="43.63937" lon="3.74622">
        <ele>157</ele>
        <time>2020-07-07T18:47:45.000Z</time>
      </trkpt>
      <trkpt lat="43.63938" lon="3.74629">
        <ele>157</ele>
        <time>2020-07-07T18:47:46.000Z</time>
      </trkpt>
      <trkpt lat="43.63939" lon="3.74636">
        <ele>157</ele>
        <time>2020-07-07T18:47:47.000Z</time>
      </trkpt>
      <trkpt lat="43.6394" lon="3.74644">
        <ele>157</ele>
        <time>2020-07-07T18:47:48.000Z</time>
      </trkpt>
      <trkpt lat="43.63941" lon="3.74651">
        <ele>157</ele>
        <time>2020-07-07T18:47:49.000Z</time>
      </trkpt>
      <trkpt lat="43.63943" lon="3.74658">
        <ele>157</ele>
        <time>2020-07-07T18:47:50.000Z</time>
      </trkpt>
      <trkpt lat="43.63944" lon="3.74666">
        <ele>157</ele>
        <time>2020-07-07T18:47:51.000Z</time>
      </trkpt>
      <trkpt lat="43.63945" lon="3.74673">
        <ele>157</ele>
        <time>2020-07-07T18:47:52.000Z</time>
      </trkpt>
      <trkpt lat="43.63946" lon="3.7468">
        <ele>157</ele>
        <time>2020-07-07T18:47:53.000Z</time>
      </trkpt>
      <trkpt lat="43.63946" lon="3.74688">
        <ele>157</ele>
        <time>2020-07-07T18:47:54.000Z</time>
      </trkpt>
      <trkpt lat="43.63947" lon="3.74695">
        <ele>157</ele>
        <time>2020-07-07T18:47:55.000Z</time>
      </trkpt>
      <trkpt lat="43.63947" lon="3.74702">
        <ele>157</ele>
        <time>2020-07-07T18:47:56.000Z</time>
      </trkpt>
      <trkpt lat="43.63947" lon="3.74708">
        <ele>157</ele>
        <time>2020-07-07T18:47:57.000Z</time>
      </trkpt>
      <trkpt lat="43.63947" lon="3.74714">
        <ele>157</ele>
        <time>2020-07-07T18:47:58.000Z</time>
      </trkpt>
      <trkpt lat="43.63948" lon="3.74721">
        <ele>157</ele>
        <time>2020-07-07T18:47:59.000Z</time>
      </trkpt>
      <trkpt lat="43.63949" lon="3.74727">
        <ele>157</ele>
        <time>2020-07-07T18:48:00.000Z</time>
      </trkpt>
      <trkpt lat="43.6395" lon="3.74733">
        <ele>157</ele>
        <time>2020-07-07T18:48:01.000Z</time>
      </trkpt>
      <trkpt lat="43.63952" lon="3.74739">
        <ele>157</ele>
        <time>2020-07-07T18:48:02.000Z</time>
      </trkpt>
      <trkpt lat="43.63954" lon="3.74746">
        <ele>157.016</ele>
        <time>2020-07-07T18:48:03.000Z</time>
      </trkpt>
      <trkpt lat="43.63955" lon="3.74753">
        <ele>157.116</ele>
        <time>2020-07-07T18:48:04.000Z</time>
      </trkpt>
      <trkpt lat="43.63957" lon="3.74759">
        <ele>157.216</ele>
        <time>2020-07-07T18:48:05.000Z</time>
      </trkpt>
      <trkpt lat="43.63959" lon="3.74766">
        <ele>157.316</ele>
        <time>2020-07-07T18:48:06.000Z</time>
      </trkpt>
      <trkpt lat="43.63959" lon="3.74773">
        <ele>157.416</ele>
        <time>2020-07-07T18:48:07.000Z</time>
      </trkpt>
      <trkpt lat="43.6396" lon="3.74779">
        <ele>157.516</ele>
        <time>2020-07-07T18:48:08.000Z</time>
      </trkpt>
      <trkpt lat="43.63961" lon="3.74785">
        <ele>157.616</ele>
        <time>2020-07-07T18:48:09.000Z</time>
      </trkpt>
      <trkpt lat="43.63961" lon="3.74791">
        <ele>157.716</ele>
        <time>2020-07-07T18:48:10.000Z</time>
      </trkpt>
      <trkpt lat="43.63962" lon="3.74797">
        <ele>157.816</ele>
        <time>2020-07-07T18:48:11.000Z</time>
      </trkpt>
      <trkpt lat="43.63962" lon="3.74803">
        <ele>157.916</ele>
        <time>2020-07-07T18:48:12.000Z</time>
      </trkpt>
      <trkpt lat="43.63962" lon="3.74808">
        <ele>157.98403194633</ele>
        <time>2020-07-07T18:48:13.000Z</time>
      </trkpt>
      <trkpt lat="43.63963" lon="3.74812">
        <ele>157.88423161087</ele>
        <time>2020-07-07T18:48:14.000Z</time>
      </trkpt>
      <trkpt lat="43.63964" lon="3.74816">
        <ele>157.78443127541</ele>
        <time>2020-07-07T18:48:15.000Z</time>
      </trkpt>
      <trkpt lat="43.63965" lon="3.74819">
        <ele>157.68463093996</ele>
        <time>2020-07-07T18:48:16.000Z</time>
      </trkpt>
      <trkpt lat="43.63966" lon="3.74823">
        <ele>157.5848306045</ele>
        <time>2020-07-07T18:48:17.000Z</time>
      </trkpt>
      <trkpt lat="43.63967" lon="3.74826">
        <ele>157.48503026904</ele>
        <time>2020-07-07T18:48:18.000Z</time>
      </trkpt>
      <trkpt lat="43.63968" lon="3.74829">
        <ele>157.38522993359</ele>
        <time>2020-07-07T18:48:19.000Z</time>
      </trkpt>
      <trkpt lat="43.63969" lon="3.74831">
        <ele>157.28542959813</ele>
        <time>2020-07-07T18:48:20.000Z</time>
      </trkpt>
      <trkpt lat="43.6397" lon="3.74835">
        <ele>157.18562926267</ele>
        <time>2020-07-07T18:48:21.000Z</time>
      </trkpt>
      <trkpt lat="43.63971" lon="3.7484">
        <ele>157.08582892722</ele>
        <time>2020-07-07T18:48:22.000Z</time>
      </trkpt>
      <trkpt lat="43.63972" lon="3.74845">
        <ele>157.01402742383</ele>
        <time>2020-07-07T18:48:23.000Z</time>
      </trkpt>
      <trkpt lat="43.63972" lon="3.74851">
        <ele>157.11422788888</ele>
        <time>2020-07-07T18:48:24.000Z</time>
      </trkpt>
      <trkpt lat="43.63971" lon="3.74856">
        <ele>157.21442835394</ele>
        <time>2020-07-07T18:48:25.000Z</time>
      </trkpt>
      <trkpt lat="43.63971" lon="3.74861">
        <ele>157.314628819</ele>
        <time>2020-07-07T18:48:26.000Z</time>
      </trkpt>
      <trkpt lat="43.63971" lon="3.74867">
        <ele>157.41482928406</ele>
        <time>2020-07-07T18:48:27.000Z</time>
      </trkpt>
      <trkpt lat="43.63971" lon="3.74872">
        <ele>157.51502974912</ele>
        <time>2020-07-07T18:48:28.000Z</time>
      </trkpt>
      <trkpt lat="43.63971" lon="3.74877">
        <ele>157.61523021418</ele>
        <time>2020-07-07T18:48:29.000Z</time>
      </trkpt>
      <trkpt lat="43.6397" lon="3.74882">
        <ele>157.71543067923</ele>
        <time>2020-07-07T18:48:30.000Z</time>
      </trkpt>
      <trkpt lat="43.6397" lon="3.74886">
        <ele>157.81563114429</ele>
        <time>2020-07-07T18:48:31.000Z</time>
      </trkpt>
      <trkpt lat="43.6397" lon="3.7489">
        <ele>157.91583160935</ele>
        <time>2020-07-07T18:48:32.000Z</time>
      </trkpt>
      <trkpt lat="43.63971" lon="3.74894">
        <ele>158</ele>
        <time>2020-07-07T18:48:33.000Z</time>
      </trkpt>
      <trkpt lat="43.63971" lon="3.74896">
        <ele>158</ele>
        <time>2020-07-07T18:48:34.000Z</time>
      </trkpt>
      <trkpt lat="43.63973" lon="3.74899">
        <ele>158</ele>
        <time>2020-07-07T18:48:35.000Z</time>
      </trkpt>
      <trkpt lat="43.63974" lon="3.74902">
        <ele>158</ele>
        <time>2020-07-07T18:48:36.000Z</time>
      </trkpt>
      <trkpt lat="43.63976" lon="3.74905">
        <ele>158</ele>
        <time>2020-07-07T18:48:37.000Z</time>
      </trkpt>
      <trkpt lat="43.63978" lon="3.74908">
        <ele>158</ele>
        <time>2020-07-07T18:48:38.000Z</time>
      </trkpt>
      <trkpt lat="43.6398" lon="3.74912">
        <ele>158</ele>
        <time>2020-07-07T18:48:39.000Z</time>
      </trkpt>
      <trkpt lat="43.63983" lon="3.74915">
        <ele>158</ele>
        <time>2020-07-07T18:48:40.000Z</time>
      </trkpt>
      <trkpt lat="43.63985" lon="3.74918">
        <ele>158</ele>
        <time>2020-07-07T18:48:41.000Z</time>
      </trkpt>
      <trkpt lat="43.63988" lon="3.74921">
        <ele>158</ele>
        <time>2020-07-07T18:48:42.000Z</time>
      </trkpt>
      <trkpt lat="43.63991" lon="3.74924">
        <ele>157.984</ele>
        <time>2020-07-07T18:48:43.000Z</time>
      </trkpt>
      <trkpt lat="43.63994" lon="3.74926">
        <ele>157.884</ele>
        <time>2020-07-07T18:48:44.000Z</time>
      </trkpt>
      <trkpt lat="43.63997" lon="3.74929">
        <ele>157.784</ele>
        <time>2020-07-07T18:48:45.000Z</time>
      </trkpt>
      <trkpt lat="43.63999" lon="3.74932">
        <ele>157.684</ele>
        <time>2020-07-07T18:48:46.000Z</time>
      </trkpt>
      <trkpt lat="43.64001" lon="3.74935">
        <ele>157.584</ele>
        <time>2020-07-07T18:48:47.000Z</time>
      </trkpt>
      <trkpt lat="43.64003" lon="3.74938">
        <ele>157.484</ele>
        <time>2020-07-07T18:48:48.000Z</time>
      </trkpt>
      <trkpt lat="43.64005" lon="3.74941">
        <ele>157.384</ele>
        <time>2020-07-07T18:48:49.000Z</time>
      </trkpt>
      <trkpt lat="43.64006" lon="3.74944">
        <ele>157.284</ele>
        <time>2020-07-07T18:48:50.000Z</time>
      </trkpt>
      <trkpt lat="43.64008" lon="3.74947">
        <ele>157.184</ele>
        <time>2020-07-07T18:48:51.000Z</time>
      </trkpt>
      <trkpt lat="43.64009" lon="3.74949">
        <ele>157.084</ele>
        <time>2020-07-07T18:48:52.000Z</time>
      </trkpt>
      <trkpt lat="43.6401" lon="3.74953">
        <ele>157</ele>
        <time>2020-07-07T18:48:53.000Z</time>
      </trkpt>
      <trkpt lat="43.64012" lon="3.74956">
        <ele>157</ele>
        <time>2020-07-07T18:48:54.000Z</time>
      </trkpt>
      <trkpt lat="43.64013" lon="3.7496">
        <ele>157</ele>
        <time>2020-07-07T18:48:55.000Z</time>
      </trkpt>
      <trkpt lat="43.64013" lon="3.74962">
        <ele>157</ele>
        <time>2020-07-07T18:48:56.000Z</time>
      </trkpt>
      <trkpt lat="43.64014" lon="3.74967">
        <ele>157</ele>
        <time>2020-07-07T18:48:58.000Z</time>
      </trkpt>
      <trkpt lat="43.64016" lon="3.7497">
        <ele>157</ele>
        <time>2020-07-07T18:49:00.000Z</time>
      </trkpt>
      <trkpt lat="43.64018" lon="3.74973">
        <ele>157</ele>
        <time>2020-07-07T18:49:02.000Z</time>
      </trkpt>
      <trkpt lat="43.6402" lon="3.74975">
        <ele>156.884</ele>
        <time>2020-07-07T18:49:04.000Z</time>
      </trkpt>
      <trkpt lat="43.64022" lon="3.74979">
        <ele>156.684</ele>
        <time>2020-07-07T18:49:06.000Z</time>
      </trkpt>
      <trkpt lat="43.64024" lon="3.74981">
        <ele>156.584</ele>
        <time>2020-07-07T18:49:07.000Z</time>
      </trkpt>
      <trkpt lat="43.64025" lon="3.74984">
        <ele>156.484</ele>
        <time>2020-07-07T18:49:08.000Z</time>
      </trkpt>
      <trkpt lat="43.64028" lon="3.74986">
        <ele>156.384</ele>
        <time>2020-07-07T18:49:09.000Z</time>
      </trkpt>
      <trkpt lat="43.6403" lon="3.74988">
        <ele>156.284</ele>
        <time>2020-07-07T18:49:10.000Z</time>
      </trkpt>
      <trkpt lat="43.64033" lon="3.7499">
        <ele>156.184</ele>
        <time>2020-07-07T18:49:11.000Z</time>
      </trkpt>
      <trkpt lat="43.64036" lon="3.74993">
        <ele>156.084</ele>
        <time>2020-07-07T18:49:12.000Z</time>
      </trkpt>
      <trkpt lat="43.6404" lon="3.74995">
        <ele>155.93792436456</ele>
        <time>2020-07-07T18:49:13.000Z</time>
      </trkpt>
      <trkpt lat="43.64045" lon="3.74997">
        <ele>155.54995164308</ele>
        <time>2020-07-07T18:49:14.000Z</time>
      </trkpt>
      <trkpt lat="43.64049" lon="3.74999">
        <ele>155.1619789216</ele>
        <time>2020-07-07T18:49:15.000Z</time>
      </trkpt>
      <trkpt lat="43.64054" lon="3.75002">
        <ele>154.77400620011</ele>
        <time>2020-07-07T18:49:16.000Z</time>
      </trkpt>
      <trkpt lat="43.64058" lon="3.75006">
        <ele>154.38603347863</ele>
        <time>2020-07-07T18:49:17.000Z</time>
      </trkpt>
      <trkpt lat="43.64063" lon="3.75011">
        <ele>153.99806075715</ele>
        <time>2020-07-07T18:49:18.000Z</time>
      </trkpt>
      <trkpt lat="43.64067" lon="3.75017">
        <ele>153.61008803567</ele>
        <time>2020-07-07T18:49:19.000Z</time>
      </trkpt>
      <trkpt lat="43.64071" lon="3.75023">
        <ele>153.22211531418</ele>
        <time>2020-07-07T18:49:20.000Z</time>
      </trkpt>
      <trkpt lat="43.64075" lon="3.7503">
        <ele>152.8341425927</ele>
        <time>2020-07-07T18:49:21.000Z</time>
      </trkpt>
      <trkpt lat="43.64079" lon="3.75037">
        <ele>152.44616987122</ele>
        <time>2020-07-07T18:49:22.000Z</time>
      </trkpt>
      <trkpt lat="43.64083" lon="3.75045">
        <ele>152.05819714974</ele>
        <time>2020-07-07T18:49:23.000Z</time>
      </trkpt>
      <trkpt lat="43.64086" lon="3.75052">
        <ele>151.73684300907</ele>
        <time>2020-07-07T18:49:24.000Z</time>
      </trkpt>
      <trkpt lat="43.6409" lon="3.7506">
        <ele>151.42724538361</ele>
        <time>2020-07-07T18:49:25.000Z</time>
      </trkpt>
      <trkpt lat="43.64094" lon="3.75068">
        <ele>151.11764775815</ele>
        <time>2020-07-07T18:49:26.000Z</time>
      </trkpt>
      <trkpt lat="43.64098" lon="3.75076">
        <ele>150.80805013269</ele>
        <time>2020-07-07T18:49:27.000Z</time>
      </trkpt>
      <trkpt lat="43.64101" lon="3.75083">
        <ele>150.49845250723</ele>
        <time>2020-07-07T18:49:28.000Z</time>
      </trkpt>
      <trkpt lat="43.64105" lon="3.75091">
        <ele>150.18885488177</ele>
        <time>2020-07-07T18:49:29.000Z</time>
      </trkpt>
      <trkpt lat="43.64109" lon="3.75098">
        <ele>149.87925725631</ele>
        <time>2020-07-07T18:49:30.000Z</time>
      </trkpt>
      <trkpt lat="43.64113" lon="3.75106">
        <ele>149.56965963085</ele>
        <time>2020-07-07T18:49:31.000Z</time>
      </trkpt>
      <trkpt lat="43.64117" lon="3.75113">
        <ele>149.26006200539</ele>
        <time>2020-07-07T18:49:32.000Z</time>
      </trkpt>
      <trkpt lat="43.6412" lon="3.75121">
        <ele>148.984</ele>
        <time>2020-07-07T18:49:33.000Z</time>
      </trkpt>
      <trkpt lat="43.64123" lon="3.75128">
        <ele>148.884</ele>
        <time>2020-07-07T18:49:34.000Z</time>
      </trkpt>
      <trkpt lat="43.64126" lon="3.75136">
        <ele>148.784</ele>
        <time>2020-07-07T18:49:35.000Z</time>
      </trkpt>
      <trkpt lat="43.6413" lon="3.75143">
        <ele>148.684</ele>
        <time>2020-07-07T18:49:36.000Z</time>
      </trkpt>
      <trkpt lat="43.64133" lon="3.75151">
        <ele>148.584</ele>
        <time>2020-07-07T18:49:37.000Z</time>
      </trkpt>
      <trkpt lat="43.64135" lon="3.75158">
        <ele>148.484</ele>
        <time>2020-07-07T18:49:38.000Z</time>
      </trkpt>
      <trkpt lat="43.64138" lon="3.75165">
        <ele>148.384</ele>
        <time>2020-07-07T18:49:39.000Z</time>
      </trkpt>
      <trkpt lat="43.64142" lon="3.75172">
        <ele>148.284</ele>
        <time>2020-07-07T18:49:40.000Z</time>
      </trkpt>
      <trkpt lat="43.64145" lon="3.75178">
        <ele>148.184</ele>
        <time>2020-07-07T18:49:41.000Z</time>
      </trkpt>
      <trkpt lat="43.64148" lon="3.75184">
        <ele>148.084</ele>
        <time>2020-07-07T18:49:42.000Z</time>
      </trkpt>
      <trkpt lat="43.64152" lon="3.75191">
        <ele>147.968</ele>
        <time>2020-07-07T18:49:43.000Z</time>
      </trkpt>
      <trkpt lat="43.64155" lon="3.75198">
        <ele>147.768</ele>
        <time>2020-07-07T18:49:44.000Z</time>
      </trkpt>
      <trkpt lat="43.64158" lon="3.75204">
        <ele>147.568</ele>
        <time>2020-07-07T18:49:45.000Z</time>
      </trkpt>
      <trkpt lat="43.64161" lon="3.75211">
        <ele>147.368</ele>
        <time>2020-07-07T18:49:46.000Z</time>
      </trkpt>
      <trkpt lat="43.64164" lon="3.75217">
        <ele>147.168</ele>
        <time>2020-07-07T18:49:47.000Z</time>
      </trkpt>
      <trkpt lat="43.64168" lon="3.75222">
        <ele>146.968</ele>
        <time>2020-07-07T18:49:48.000Z</time>
      </trkpt>
      <trkpt lat="43.64172" lon="3.75228">
        <ele>146.768</ele>
        <time>2020-07-07T18:49:49.000Z</time>
      </trkpt>
      <trkpt lat="43.64176" lon="3.75234">
        <ele>146.568</ele>
        <time>2020-07-07T18:49:50.000Z</time>
      </trkpt>
      <trkpt lat="43.6418" lon="3.7524">
        <ele>146.368</ele>
        <time>2020-07-07T18:49:51.000Z</time>
      </trkpt>
      <trkpt lat="43.64185" lon="3.75247">
        <ele>146.168</ele>
        <time>2020-07-07T18:49:52.000Z</time>
      </trkpt>
      <trkpt lat="43.6419" lon="3.75254">
        <ele>145.952</ele>
        <time>2020-07-07T18:49:53.000Z</time>
      </trkpt>
      <trkpt lat="43.64194" lon="3.75262">
        <ele>145.652</ele>
        <time>2020-07-07T18:49:54.000Z</time>
      </trkpt>
      <trkpt lat="43.64198" lon="3.75269">
        <ele>145.352</ele>
        <time>2020-07-07T18:49:55.000Z</time>
      </trkpt>
      <trkpt lat="43.64202" lon="3.75277">
        <ele>145.052</ele>
        <time>2020-07-07T18:49:56.000Z</time>
      </trkpt>
      <trkpt lat="43.64206" lon="3.75284">
        <ele>144.752</ele>
        <time>2020-07-07T18:49:57.000Z</time>
      </trkpt>
      <trkpt lat="43.6421" lon="3.75292">
        <ele>144.452</ele>
        <time>2020-07-07T18:49:58.000Z</time>
      </trkpt>
      <trkpt lat="43.64214" lon="3.75299">
        <ele>144.152</ele>
        <time>2020-07-07T18:49:59.000Z</time>
      </trkpt>
      <trkpt lat="43.64218" lon="3.75307">
        <ele>143.852</ele>
        <time>2020-07-07T18:50:00.000Z</time>
      </trkpt>
      <trkpt lat="43.64221" lon="3.75315">
        <ele>143.552</ele>
        <time>2020-07-07T18:50:01.000Z</time>
      </trkpt>
      <trkpt lat="43.64223" lon="3.75323">
        <ele>143.252</ele>
        <time>2020-07-07T18:50:02.000Z</time>
      </trkpt>
      <trkpt lat="43.64226" lon="3.75332">
        <ele>142.98445091839</ele>
        <time>2020-07-07T18:50:03.000Z</time>
      </trkpt>
      <trkpt lat="43.64228" lon="3.75341">
        <ele>142.88726915833</ele>
        <time>2020-07-07T18:50:04.000Z</time>
      </trkpt>
      <trkpt lat="43.64231" lon="3.75351">
        <ele>142.79008739828</ele>
        <time>2020-07-07T18:50:05.000Z</time>
      </trkpt>
      <trkpt lat="43.64233" lon="3.7536">
        <ele>142.69290563822</ele>
        <time>2020-07-07T18:50:06.000Z</time>
      </trkpt>
      <trkpt lat="43.64236" lon="3.7537">
        <ele>142.59572387816</ele>
        <time>2020-07-07T18:50:07.000Z</time>
      </trkpt>
      <trkpt lat="43.64239" lon="3.7538">
        <ele>142.49854211811</ele>
        <time>2020-07-07T18:50:08.000Z</time>
      </trkpt>
      <trkpt lat="43.64241" lon="3.7539">
        <ele>142.40136035805</ele>
        <time>2020-07-07T18:50:09.000Z</time>
      </trkpt>
      <trkpt lat="43.64244" lon="3.75399">
        <ele>142.30417859799</ele>
        <time>2020-07-07T18:50:10.000Z</time>
      </trkpt>
      <trkpt lat="43.64245" lon="3.75409">
        <ele>142.20699683794</ele>
        <time>2020-07-07T18:50:11.000Z</time>
      </trkpt>
      <trkpt lat="43.64247" lon="3.75418">
        <ele>142.10981507788</ele>
        <time>2020-07-07T18:50:12.000Z</time>
      </trkpt>
      <trkpt lat="43.64248" lon="3.75428">
        <ele>142.01263331783</ele>
        <time>2020-07-07T18:50:13.000Z</time>
      </trkpt>
      <trkpt lat="43.64249" lon="3.75436">
        <ele>141.91247458352</ele>
        <time>2020-07-07T18:50:14.000Z</time>
      </trkpt>
      <trkpt lat="43.64251" lon="3.75444">
        <ele>141.81187102656</ele>
        <time>2020-07-07T18:50:15.000Z</time>
      </trkpt>
      <trkpt lat="43.64252" lon="3.75453">
        <ele>141.71126746961</ele>
        <time>2020-07-07T18:50:16.000Z</time>
      </trkpt>
      <trkpt lat="43.64253" lon="3.75461">
        <ele>141.61066391265</ele>
        <time>2020-07-07T18:50:17.000Z</time>
      </trkpt>
      <trkpt lat="43.64255" lon="3.75469">
        <ele>141.5100603557</ele>
        <time>2020-07-07T18:50:18.000Z</time>
      </trkpt>
      <trkpt lat="43.64256" lon="3.75477">
        <ele>141.40945679874</ele>
        <time>2020-07-07T18:50:19.000Z</time>
      </trkpt>
      <trkpt lat="43.64258" lon="3.75485">
        <ele>141.30885324178</ele>
        <time>2020-07-07T18:50:20.000Z</time>
      </trkpt>
      <trkpt lat="43.6426" lon="3.75492">
        <ele>141.20824968483</ele>
        <time>2020-07-07T18:50:21.000Z</time>
      </trkpt>
      <trkpt lat="43.64262" lon="3.755">
        <ele>141.10764612787</ele>
        <time>2020-07-07T18:50:22.000Z</time>
      </trkpt>
      <trkpt lat="43.64265" lon="3.75507">
        <ele>141.00704257092</ele>
        <time>2020-07-07T18:50:23.000Z</time>
      </trkpt>
      <trkpt lat="43.64267" lon="3.75514">
        <ele>140.90481094119</ele>
        <time>2020-07-07T18:50:24.000Z</time>
      </trkpt>
      <trkpt lat="43.64269" lon="3.7552">
        <ele>140.80245676232</ele>
        <time>2020-07-07T18:50:25.000Z</time>
      </trkpt>
      <trkpt lat="43.64271" lon="3.75527">
        <ele>140.70010258345</ele>
        <time>2020-07-07T18:50:26.000Z</time>
      </trkpt>
      <trkpt lat="43.64274" lon="3.75534">
        <ele>140.59774840458</ele>
        <time>2020-07-07T18:50:27.000Z</time>
      </trkpt>
      <trkpt lat="43.64276" lon="3.7554">
        <ele>140.49539422572</ele>
        <time>2020-07-07T18:50:28.000Z</time>
      </trkpt>
      <trkpt lat="43.64278" lon="3.75547">
        <ele>140.39304004685</ele>
        <time>2020-07-07T18:50:29.000Z</time>
      </trkpt>
      <trkpt lat="43.6428" lon="3.75553">
        <ele>140.29068586798</ele>
        <time>2020-07-07T18:50:30.000Z</time>
      </trkpt>
      <trkpt lat="43.64282" lon="3.75559">
        <ele>140.18833168912</ele>
        <time>2020-07-07T18:50:31.000Z</time>
      </trkpt>
      <trkpt lat="43.64284" lon="3.75566">
        <ele>140.08597751025</ele>
        <time>2020-07-07T18:50:32.000Z</time>
      </trkpt>
      <trkpt lat="43.64287" lon="3.75572">
        <ele>139.984</ele>
        <time>2020-07-07T18:50:33.000Z</time>
      </trkpt>
      <trkpt lat="43.64289" lon="3.75579">
        <ele>139.884</ele>
        <time>2020-07-07T18:50:34.000Z</time>
      </trkpt>
      <trkpt lat="43.64292" lon="3.75585">
        <ele>139.784</ele>
        <time>2020-07-07T18:50:35.000Z</time>
      </trkpt>
      <trkpt lat="43.64294" lon="3.75592">
        <ele>139.684</ele>
        <time>2020-07-07T18:50:36.000Z</time>
      </trkpt>
      <trkpt lat="43.64297" lon="3.75599">
        <ele>139.584</ele>
        <time>2020-07-07T18:50:37.000Z</time>
      </trkpt>
      <trkpt lat="43.64299" lon="3.75606">
        <ele>139.484</ele>
        <time>2020-07-07T18:50:38.000Z</time>
      </trkpt>
      <trkpt lat="43.64301" lon="3.75612">
        <ele>139.384</ele>
        <time>2020-07-07T18:50:39.000Z</time>
      </trkpt>
      <trkpt lat="43.64303" lon="3.75619">
        <ele>139.284</ele>
        <time>2020-07-07T18:50:40.000Z</time>
      </trkpt>
      <trkpt lat="43.64305" lon="3.75625">
        <ele>139.184</ele>
        <time>2020-07-07T18:50:41.000Z</time>
      </trkpt>
      <trkpt lat="43.64307" lon="3.75632">
        <ele>139.084</ele>
        <time>2020-07-07T18:50:42.000Z</time>
      </trkpt>
      <trkpt lat="43.64309" lon="3.75638">
        <ele>139</ele>
        <time>2020-07-07T18:50:43.000Z</time>
      </trkpt>
      <trkpt lat="43.64311" lon="3.75645">
        <ele>139</ele>
        <time>2020-07-07T18:50:44.000Z</time>
      </trkpt>
      <trkpt lat="43.64313" lon="3.75652">
        <ele>139</ele>
        <time>2020-07-07T18:50:45.000Z</time>
      </trkpt>
      <trkpt lat="43.64315" lon="3.75659">
        <ele>139</ele>
        <time>2020-07-07T18:50:46.000Z</time>
      </trkpt>
      <trkpt lat="43.64316" lon="3.75665">
        <ele>139</ele>
        <time>2020-07-07T18:50:47.000Z</time>
      </trkpt>
      <trkpt lat="43.64318" lon="3.75672">
        <ele>139</ele>
        <time>2020-07-07T18:50:48.000Z</time>
      </trkpt>
      <trkpt lat="43.6432" lon="3.75679">
        <ele>139</ele>
        <time>2020-07-07T18:50:49.000Z</time>
      </trkpt>
      <trkpt lat="43.64322" lon="3.75685">
        <ele>139</ele>
        <time>2020-07-07T18:50:50.000Z</time>
      </trkpt>
      <trkpt lat="43.64324" lon="3.75692">
        <ele>139</ele>
        <time>2020-07-07T18:50:51.000Z</time>
      </trkpt>
      <trkpt lat="43.64326" lon="3.75697">
        <ele>139</ele>
        <time>2020-07-07T18:50:52.000Z</time>
      </trkpt>
      <trkpt lat="43.64327" lon="3.75703">
        <ele>139</ele>
        <time>2020-07-07T18:50:53.000Z</time>
      </trkpt>
      <trkpt lat="43.64329" lon="3.75708">
        <ele>139</ele>
        <time>2020-07-07T18:50:54.000Z</time>
      </trkpt>
      <trkpt lat="43.6433" lon="3.75714">
        <ele>139</ele>
        <time>2020-07-07T18:50:55.000Z</time>
      </trkpt>
      <trkpt lat="43.64332" lon="3.75719">
        <ele>139</ele>
        <time>2020-07-07T18:50:56.000Z</time>
      </trkpt>
      <trkpt lat="43.64333" lon="3.75724">
        <ele>139</ele>
        <time>2020-07-07T18:50:57.000Z</time>
      </trkpt>
      <trkpt lat="43.64334" lon="3.75729">
        <ele>139</ele>
        <time>2020-07-07T18:50:58.000Z</time>
      </trkpt>
      <trkpt lat="43.64336" lon="3.75734">
        <ele>139</ele>
        <time>2020-07-07T18:50:59.000Z</time>
      </trkpt>
      <trkpt lat="43.64337" lon="3.75739">
        <ele>139</ele>
        <time>2020-07-07T18:51:00.000Z</time>
      </trkpt>
      <trkpt lat="43.64337" lon="3.75742">
        <ele>139</ele>
        <time>2020-07-07T18:51:01.000Z</time>
      </trkpt>
      <trkpt lat="43.64338" lon="3.75745">
        <ele>139</ele>
        <time>2020-07-07T18:51:02.000Z</time>
      </trkpt>
      <trkpt lat="43.64339" lon="3.75748">
        <ele>139</ele>
        <time>2020-07-07T18:51:03.000Z</time>
      </trkpt>
      <trkpt lat="43.64339" lon="3.75751">
        <ele>139</ele>
        <time>2020-07-07T18:51:04.000Z</time>
      </trkpt>
      <trkpt lat="43.6434" lon="3.75753">
        <ele>139</ele>
        <time>2020-07-07T18:51:05.000Z</time>
      </trkpt>
      <trkpt lat="43.6434" lon="3.75755">
        <ele>139</ele>
        <time>2020-07-07T18:51:06.000Z</time>
      </trkpt>
      <trkpt lat="43.64341" lon="3.75758">
        <ele>139</ele>
        <time>2020-07-07T18:51:07.000Z</time>
      </trkpt>
      <trkpt lat="43.64342" lon="3.7576">
        <ele>139</ele>
        <time>2020-07-07T18:51:08.000Z</time>
      </trkpt>
      <trkpt lat="43.64343" lon="3.75764">
        <ele>139</ele>
        <time>2020-07-07T18:51:10.000Z</time>
      </trkpt>
      <trkpt lat="43.64342" lon="3.75767">
        <ele>139</ele>
        <time>2020-07-07T18:51:15.000Z</time>
      </trkpt>
      <trkpt lat="43.64337" lon="3.75768">
        <ele>139</ele>
        <time>2020-07-07T18:51:18.000Z</time>
      </trkpt>
      <trkpt lat="43.64334" lon="3.75769">
        <ele>139</ele>
        <time>2020-07-07T18:51:19.000Z</time>
      </trkpt>
      <trkpt lat="43.64332" lon="3.7577">
        <ele>139</ele>
        <time>2020-07-07T18:51:20.000Z</time>
      </trkpt>
      <trkpt lat="43.6433" lon="3.75771">
        <ele>139</ele>
        <time>2020-07-07T18:51:21.000Z</time>
      </trkpt>
      <trkpt lat="43.64329" lon="3.75773">
        <ele>139</ele>
        <time>2020-07-07T18:51:22.000Z</time>
      </trkpt>
      <trkpt lat="43.64328" lon="3.75776">
        <ele>139</ele>
        <time>2020-07-07T18:51:23.000Z</time>
      </trkpt>
      <trkpt lat="43.64327" lon="3.7578">
        <ele>139</ele>
        <time>2020-07-07T18:51:24.000Z</time>
      </trkpt>
      <trkpt lat="43.64327" lon="3.75785">
        <ele>139</ele>
        <time>2020-07-07T18:51:25.000Z</time>
      </trkpt>
      <trkpt lat="43.64328" lon="3.75791">
        <ele>139</ele>
        <time>2020-07-07T18:51:26.000Z</time>
      </trkpt>
      <trkpt lat="43.64329" lon="3.75797">
        <ele>139</ele>
        <time>2020-07-07T18:51:27.000Z</time>
      </trkpt>
      <trkpt lat="43.64331" lon="3.75803">
        <ele>139</ele>
        <time>2020-07-07T18:51:28.000Z</time>
      </trkpt>
      <trkpt lat="43.64332" lon="3.7581">
        <ele>139</ele>
        <time>2020-07-07T18:51:29.000Z</time>
      </trkpt>
      <trkpt lat="43.64334" lon="3.75816">
        <ele>139</ele>
        <time>2020-07-07T18:51:30.000Z</time>
      </trkpt>
      <trkpt lat="43.64335" lon="3.75823">
        <ele>139</ele>
        <time>2020-07-07T18:51:31.000Z</time>
      </trkpt>
      <trkpt lat="43.64336" lon="3.7583">
        <ele>139</ele>
        <time>2020-07-07T18:51:32.000Z</time>
      </trkpt>
      <trkpt lat="43.64337" lon="3.75836">
        <ele>139</ele>
        <time>2020-07-07T18:51:33.000Z</time>
      </trkpt>
      <trkpt lat="43.64338" lon="3.75842">
        <ele>139</ele>
        <time>2020-07-07T18:51:34.000Z</time>
      </trkpt>
      <trkpt lat="43.64339" lon="3.75849">
        <ele>139</ele>
        <time>2020-07-07T18:51:35.000Z</time>
      </trkpt>
      <trkpt lat="43.6434" lon="3.75855">
        <ele>139</ele>
        <time>2020-07-07T18:51:36.000Z</time>
      </trkpt>
      <trkpt lat="43.64341" lon="3.75862">
        <ele>139</ele>
        <time>2020-07-07T18:51:37.000Z</time>
      </trkpt>
      <trkpt lat="43.64342" lon="3.75868">
        <ele>139</ele>
        <time>2020-07-07T18:51:38.000Z</time>
      </trkpt>
      <trkpt lat="43.64343" lon="3.75874">
        <ele>139.09053497942</ele>
        <time>2020-07-07T18:51:39.000Z</time>
      </trkpt>
      <trkpt lat="43.64344" lon="3.7588">
        <ele>139.19341563786</ele>
        <time>2020-07-07T18:51:40.000Z</time>
      </trkpt>
      <trkpt lat="43.64346" lon="3.75887">
        <ele>139.2962962963</ele>
        <time>2020-07-07T18:51:41.000Z</time>
      </trkpt>
      <trkpt lat="43.64347" lon="3.75893">
        <ele>139.39917695473</ele>
        <time>2020-07-07T18:51:42.000Z</time>
      </trkpt>
      <trkpt lat="43.64349" lon="3.75899">
        <ele>139.50205761317</ele>
        <time>2020-07-07T18:51:43.000Z</time>
      </trkpt>
      <trkpt lat="43.6435" lon="3.75905">
        <ele>139.6049382716</ele>
        <time>2020-07-07T18:51:44.000Z</time>
      </trkpt>
      <trkpt lat="43.64352" lon="3.75911">
        <ele>139.70781893004</ele>
        <time>2020-07-07T18:51:45.000Z</time>
      </trkpt>
      <trkpt lat="43.64353" lon="3.75917">
        <ele>139.81069958848</ele>
        <time>2020-07-07T18:51:46.000Z</time>
      </trkpt>
      <trkpt lat="43.64355" lon="3.75923">
        <ele>139.91358024691</ele>
        <time>2020-07-07T18:51:47.000Z</time>
      </trkpt>
      <trkpt lat="43.64356" lon="3.7593">
        <ele>140</ele>
        <time>2020-07-07T18:51:48.000Z</time>
      </trkpt>
      <trkpt lat="43.64358" lon="3.75936">
        <ele>140</ele>
        <time>2020-07-07T18:51:49.000Z</time>
      </trkpt>
      <trkpt lat="43.6436" lon="3.75942">
        <ele>140</ele>
        <time>2020-07-07T18:51:50.000Z</time>
      </trkpt>
      <trkpt lat="43.64361" lon="3.75948">
        <ele>140</ele>
        <time>2020-07-07T18:51:51.000Z</time>
      </trkpt>
      <trkpt lat="43.64363" lon="3.75955">
        <ele>140</ele>
        <time>2020-07-07T18:51:52.000Z</time>
      </trkpt>
      <trkpt lat="43.64365" lon="3.75961">
        <ele>140</ele>
        <time>2020-07-07T18:51:53.000Z</time>
      </trkpt>
      <trkpt lat="43.64366" lon="3.75967">
        <ele>140</ele>
        <time>2020-07-07T18:51:54.000Z</time>
      </trkpt>
      <trkpt lat="43.64368" lon="3.75973">
        <ele>140</ele>
        <time>2020-07-07T18:51:55.000Z</time>
      </trkpt>
      <trkpt lat="43.64369" lon="3.7598">
        <ele>140</ele>
        <time>2020-07-07T18:51:56.000Z</time>
      </trkpt>
      <trkpt lat="43.6437" lon="3.75986">
        <ele>140</ele>
        <time>2020-07-07T18:51:57.000Z</time>
      </trkpt>
      <trkpt lat="43.64371" lon="3.75992">
        <ele>140.016</ele>
        <time>2020-07-07T18:51:58.000Z</time>
      </trkpt>
      <trkpt lat="43.64373" lon="3.75998">
        <ele>140.116</ele>
        <time>2020-07-07T18:51:59.000Z</time>
      </trkpt>
      <trkpt lat="43.64374" lon="3.76004">
        <ele>140.216</ele>
        <time>2020-07-07T18:52:00.000Z</time>
      </trkpt>
      <trkpt lat="43.64375" lon="3.76011">
        <ele>140.316</ele>
        <time>2020-07-07T18:52:01.000Z</time>
      </trkpt>
      <trkpt lat="43.64376" lon="3.76017">
        <ele>140.416</ele>
        <time>2020-07-07T18:52:02.000Z</time>
      </trkpt>
      <trkpt lat="43.64377" lon="3.76023">
        <ele>140.516</ele>
        <time>2020-07-07T18:52:03.000Z</time>
      </trkpt>
      <trkpt lat="43.64378" lon="3.76029">
        <ele>140.616</ele>
        <time>2020-07-07T18:52:04.000Z</time>
      </trkpt>
      <trkpt lat="43.64379" lon="3.76036">
        <ele>140.716</ele>
        <time>2020-07-07T18:52:05.000Z</time>
      </trkpt>
      <trkpt lat="43.64381" lon="3.76042">
        <ele>140.816</ele>
        <time>2020-07-07T18:52:06.000Z</time>
      </trkpt>
      <trkpt lat="43.64382" lon="3.76048">
        <ele>140.916</ele>
        <time>2020-07-07T18:52:07.000Z</time>
      </trkpt>
      <trkpt lat="43.64384" lon="3.76054">
        <ele>141</ele>
        <time>2020-07-07T18:52:08.000Z</time>
      </trkpt>
      <trkpt lat="43.64385" lon="3.76059">
        <ele>141</ele>
        <time>2020-07-07T18:52:09.000Z</time>
      </trkpt>
      <trkpt lat="43.64386" lon="3.76065">
        <ele>141</ele>
        <time>2020-07-07T18:52:10.000Z</time>
      </trkpt>
      <trkpt lat="43.64387" lon="3.7607">
        <ele>141</ele>
        <time>2020-07-07T18:52:11.000Z</time>
      </trkpt>
      <trkpt lat="43.64388" lon="3.76075">
        <ele>141</ele>
        <time>2020-07-07T18:52:12.000Z</time>
      </trkpt>
      <trkpt lat="43.64388" lon="3.7608">
        <ele>141</ele>
        <time>2020-07-07T18:52:13.000Z</time>
      </trkpt>
      <trkpt lat="43.64389" lon="3.76085">
        <ele>141</ele>
        <time>2020-07-07T18:52:14.000Z</time>
      </trkpt>
      <trkpt lat="43.6439" lon="3.7609">
        <ele>141</ele>
        <time>2020-07-07T18:52:15.000Z</time>
      </trkpt>
      <trkpt lat="43.64392" lon="3.76095">
        <ele>141</ele>
        <time>2020-07-07T18:52:16.000Z</time>
      </trkpt>
      <trkpt lat="43.64393" lon="3.761">
        <ele>141</ele>
        <time>2020-07-07T18:52:17.000Z</time>
      </trkpt>
      <trkpt lat="43.64394" lon="3.76105">
        <ele>141</ele>
        <time>2020-07-07T18:52:18.000Z</time>
      </trkpt>
      <trkpt lat="43.64395" lon="3.7611">
        <ele>141</ele>
        <time>2020-07-07T18:52:19.000Z</time>
      </trkpt>
      <trkpt lat="43.64397" lon="3.76115">
        <ele>141</ele>
        <time>2020-07-07T18:52:20.000Z</time>
      </trkpt>
      <trkpt lat="43.64398" lon="3.7612">
        <ele>141</ele>
        <time>2020-07-07T18:52:21.000Z</time>
      </trkpt>
      <trkpt lat="43.64401" lon="3.76124">
        <ele>141</ele>
        <time>2020-07-07T18:52:22.000Z</time>
      </trkpt>
      <trkpt lat="43.64403" lon="3.76128">
        <ele>141</ele>
        <time>2020-07-07T18:52:23.000Z</time>
      </trkpt>
      <trkpt lat="43.64406" lon="3.7613">
        <ele>141</ele>
        <time>2020-07-07T18:52:24.000Z</time>
      </trkpt>
      <trkpt lat="43.6441" lon="3.7613">
        <ele>141</ele>
        <time>2020-07-07T18:52:25.000Z</time>
      </trkpt>
      <trkpt lat="43.64413" lon="3.7613">
        <ele>141</ele>
        <time>2020-07-07T18:52:26.000Z</time>
      </trkpt>
      <trkpt lat="43.64416" lon="3.76133">
        <ele>141</ele>
        <time>2020-07-07T18:52:27.000Z</time>
      </trkpt>
      <trkpt lat="43.64418" lon="3.76136">
        <ele>141</ele>
        <time>2020-07-07T18:52:28.000Z</time>
      </trkpt>
      <trkpt lat="43.6442" lon="3.7614">
        <ele>141</ele>
        <time>2020-07-07T18:52:29.000Z</time>
      </trkpt>
      <trkpt lat="43.64422" lon="3.76144">
        <ele>141</ele>
        <time>2020-07-07T18:52:30.000Z</time>
      </trkpt>
      <trkpt lat="43.64423" lon="3.76149">
        <ele>141</ele>
        <time>2020-07-07T18:52:31.000Z</time>
      </trkpt>
      <trkpt lat="43.64424" lon="3.76153">
        <ele>141</ele>
        <time>2020-07-07T18:52:32.000Z</time>
      </trkpt>
      <trkpt lat="43.64426" lon="3.76156">
        <ele>141</ele>
        <time>2020-07-07T18:52:33.000Z</time>
      </trkpt>
      <trkpt lat="43.64428" lon="3.76158">
        <ele>141</ele>
        <time>2020-07-07T18:52:34.000Z</time>
      </trkpt>
      <trkpt lat="43.64429" lon="3.7616">
        <ele>141</ele>
        <time>2020-07-07T18:52:35.000Z</time>
      </trkpt>
      <trkpt lat="43.64431" lon="3.76164">
        <ele>141</ele>
        <time>2020-07-07T18:52:37.000Z</time>
      </trkpt>
      <trkpt lat="43.64431" lon="3.76166">
        <ele>141</ele>
        <time>2020-07-07T18:52:39.000Z</time>
      </trkpt>
      <trkpt lat="43.64429" lon="3.76166">
        <ele>141</ele>
        <time>2020-07-07T18:52:43.000Z</time>
      </trkpt>
      <trkpt lat="43.64427" lon="3.76165">
        <ele>141</ele>
        <time>2020-07-07T18:52:44.000Z</time>
      </trkpt>
      <trkpt lat="43.64425" lon="3.76162">
        <ele>141</ele>
        <time>2020-07-07T18:52:45.000Z</time>
      </trkpt>
      <trkpt lat="43.64424" lon="3.7616">
        <ele>141</ele>
        <time>2020-07-07T18:52:46.000Z</time>
      </trkpt>
      <trkpt lat="43.64423" lon="3.76157">
        <ele>141</ele>
        <time>2020-07-07T18:52:47.000Z</time>
      </trkpt>
      <trkpt lat="43.64423" lon="3.76154">
        <ele>141</ele>
        <time>2020-07-07T18:52:48.000Z</time>
      </trkpt>
      <trkpt lat="43.64422" lon="3.7615">
        <ele>141</ele>
        <time>2020-07-07T18:52:49.000Z</time>
      </trkpt>
      <trkpt lat="43.6442" lon="3.76147">
        <ele>141</ele>
        <time>2020-07-07T18:52:50.000Z</time>
      </trkpt>
      <trkpt lat="43.64419" lon="3.76143">
        <ele>141</ele>
        <time>2020-07-07T18:52:51.000Z</time>
      </trkpt>
      <trkpt lat="43.64418" lon="3.76139">
        <ele>141</ele>
        <time>2020-07-07T18:52:52.000Z</time>
      </trkpt>
      <trkpt lat="43.64417" lon="3.76135">
        <ele>141</ele>
        <time>2020-07-07T18:52:53.000Z</time>
      </trkpt>
      <trkpt lat="43.64415" lon="3.76132">
        <ele>141</ele>
        <time>2020-07-07T18:52:54.000Z</time>
      </trkpt>
      <trkpt lat="43.64413" lon="3.7613">
        <ele>141</ele>
        <time>2020-07-07T18:52:55.000Z</time>
      </trkpt>
      <trkpt lat="43.6441" lon="3.76129">
        <ele>141</ele>
        <time>2020-07-07T18:52:56.000Z</time>
      </trkpt>
      <trkpt lat="43.64408" lon="3.7613">
        <ele>141</ele>
        <time>2020-07-07T18:52:57.000Z</time>
      </trkpt>
      <trkpt lat="43.64407" lon="3.76133">
        <ele>141</ele>
        <time>2020-07-07T18:52:58.000Z</time>
      </trkpt>
      <trkpt lat="43.64406" lon="3.76137">
        <ele>141</ele>
        <time>2020-07-07T18:52:59.000Z</time>
      </trkpt>
      <trkpt lat="43.64406" lon="3.76142">
        <ele>141</ele>
        <time>2020-07-07T18:53:00.000Z</time>
      </trkpt>
      <trkpt lat="43.64407" lon="3.76147">
        <ele>141</ele>
        <time>2020-07-07T18:53:01.000Z</time>
      </trkpt>
      <trkpt lat="43.64407" lon="3.76153">
        <ele>141</ele>
        <time>2020-07-07T18:53:02.000Z</time>
      </trkpt>
      <trkpt lat="43.64409" lon="3.76158">
        <ele>141</ele>
        <time>2020-07-07T18:53:03.000Z</time>
      </trkpt>
      <trkpt lat="43.64411" lon="3.76164">
        <ele>141</ele>
        <time>2020-07-07T18:53:04.000Z</time>
      </trkpt>
      <trkpt lat="43.64413" lon="3.7617">
        <ele>141</ele>
        <time>2020-07-07T18:53:05.000Z</time>
      </trkpt>
      <trkpt lat="43.64415" lon="3.76176">
        <ele>141</ele>
        <time>2020-07-07T18:53:06.000Z</time>
      </trkpt>
      <trkpt lat="43.64417" lon="3.76183">
        <ele>141</ele>
        <time>2020-07-07T18:53:07.000Z</time>
      </trkpt>
      <trkpt lat="43.6442" lon="3.76189">
        <ele>140.98448109114</ele>
        <time>2020-07-07T18:53:08.000Z</time>
      </trkpt>
      <trkpt lat="43.64422" lon="3.76196">
        <ele>140.88748791077</ele>
        <time>2020-07-07T18:53:09.000Z</time>
      </trkpt>
      <trkpt lat="43.64424" lon="3.76203">
        <ele>140.7904947304</ele>
        <time>2020-07-07T18:53:10.000Z</time>
      </trkpt>
      <trkpt lat="43.64426" lon="3.7621">
        <ele>140.69350155003</ele>
        <time>2020-07-07T18:53:11.000Z</time>
      </trkpt>
      <trkpt lat="43.64428" lon="3.76217">
        <ele>140.59650836966</ele>
        <time>2020-07-07T18:53:12.000Z</time>
      </trkpt>
      <trkpt lat="43.64429" lon="3.76225">
        <ele>140.49951518929</ele>
        <time>2020-07-07T18:53:13.000Z</time>
      </trkpt>
      <trkpt lat="43.6443" lon="3.76233">
        <ele>140.40252200892</ele>
        <time>2020-07-07T18:53:14.000Z</time>
      </trkpt>
      <trkpt lat="43.64431" lon="3.7624">
        <ele>140.30552882855</ele>
        <time>2020-07-07T18:53:15.000Z</time>
      </trkpt>
      <trkpt lat="43.64432" lon="3.76248">
        <ele>140.20853564818</ele>
        <time>2020-07-07T18:53:16.000Z</time>
      </trkpt>
      <trkpt lat="43.64434" lon="3.76256">
        <ele>140.1115424678</ele>
        <time>2020-07-07T18:53:17.000Z</time>
      </trkpt>
      <trkpt lat="43.64436" lon="3.76264">
        <ele>140.01454928743</ele>
        <time>2020-07-07T18:53:18.000Z</time>
      </trkpt>
      <trkpt lat="43.64438" lon="3.76272">
        <ele>139.91228100302</ele>
        <time>2020-07-07T18:53:19.000Z</time>
      </trkpt>
      <trkpt lat="43.64439" lon="3.7628">
        <ele>139.80908179454</ele>
        <time>2020-07-07T18:53:20.000Z</time>
      </trkpt>
      <trkpt lat="43.64441" lon="3.76288">
        <ele>139.70588258605</ele>
        <time>2020-07-07T18:53:21.000Z</time>
      </trkpt>
      <trkpt lat="43.64443" lon="3.76296">
        <ele>139.60268337756</ele>
        <time>2020-07-07T18:53:22.000Z</time>
      </trkpt>
      <trkpt lat="43.64445" lon="3.76303">
        <ele>139.49948416908</ele>
        <time>2020-07-07T18:53:23.000Z</time>
      </trkpt>
      <trkpt lat="43.64447" lon="3.7631">
        <ele>139.39628496059</ele>
        <time>2020-07-07T18:53:24.000Z</time>
      </trkpt>
      <trkpt lat="43.64449" lon="3.76318">
        <ele>139.2930857521</ele>
        <time>2020-07-07T18:53:25.000Z</time>
      </trkpt>
      <trkpt lat="43.64451" lon="3.76325">
        <ele>139.18988654362</ele>
        <time>2020-07-07T18:53:26.000Z</time>
      </trkpt>
      <trkpt lat="43.64453" lon="3.76333">
        <ele>139.08668733513</ele>
        <time>2020-07-07T18:53:27.000Z</time>
      </trkpt>
      <trkpt lat="43.64455" lon="3.7634">
        <ele>139</ele>
        <time>2020-07-07T18:53:28.000Z</time>
      </trkpt>
      <trkpt lat="43.64458" lon="3.76348">
        <ele>139</ele>
        <time>2020-07-07T18:53:29.000Z</time>
      </trkpt>
      <trkpt lat="43.6446" lon="3.76355">
        <ele>139</ele>
        <time>2020-07-07T18:53:30.000Z</time>
      </trkpt>
      <trkpt lat="43.64462" lon="3.76362">
        <ele>139</ele>
        <time>2020-07-07T18:53:31.000Z</time>
      </trkpt>
      <trkpt lat="43.64464" lon="3.76369">
        <ele>139</ele>
        <time>2020-07-07T18:53:32.000Z</time>
      </trkpt>
      <trkpt lat="43.64465" lon="3.76377">
        <ele>139</ele>
        <time>2020-07-07T18:53:33.000Z</time>
      </trkpt>
      <trkpt lat="43.64467" lon="3.76384">
        <ele>139</ele>
        <time>2020-07-07T18:53:34.000Z</time>
      </trkpt>
      <trkpt lat="43.64468" lon="3.76391">
        <ele>139</ele>
        <time>2020-07-07T18:53:35.000Z</time>
      </trkpt>
      <trkpt lat="43.64469" lon="3.76399">
        <ele>139</ele>
        <time>2020-07-07T18:53:36.000Z</time>
      </trkpt>
      <trkpt lat="43.6447" lon="3.76406">
        <ele>139</ele>
        <time>2020-07-07T18:53:37.000Z</time>
      </trkpt>
      <trkpt lat="43.64472" lon="3.76414">
        <ele>139</ele>
        <time>2020-07-07T18:53:38.000Z</time>
      </trkpt>
      <trkpt lat="43.64473" lon="3.76422">
        <ele>139</ele>
        <time>2020-07-07T18:53:39.000Z</time>
      </trkpt>
      <trkpt lat="43.64474" lon="3.7643">
        <ele>139</ele>
        <time>2020-07-07T18:53:40.000Z</time>
      </trkpt>
      <trkpt lat="43.64475" lon="3.76438">
        <ele>139</ele>
        <time>2020-07-07T18:53:41.000Z</time>
      </trkpt>
      <trkpt lat="43.64476" lon="3.76446">
        <ele>139</ele>
        <time>2020-07-07T18:53:42.000Z</time>
      </trkpt>
      <trkpt lat="43.64477" lon="3.76454">
        <ele>139</ele>
        <time>2020-07-07T18:53:43.000Z</time>
      </trkpt>
      <trkpt lat="43.64479" lon="3.76462">
        <ele>139</ele>
        <time>2020-07-07T18:53:44.000Z</time>
      </trkpt>
      <trkpt lat="43.6448" lon="3.7647">
        <ele>139</ele>
        <time>2020-07-07T18:53:45.000Z</time>
      </trkpt>
      <trkpt lat="43.64481" lon="3.76478">
        <ele>139</ele>
        <time>2020-07-07T18:53:46.000Z</time>
      </trkpt>
      <trkpt lat="43.64481" lon="3.76486">
        <ele>139</ele>
        <time>2020-07-07T18:53:47.000Z</time>
      </trkpt>
      <trkpt lat="43.64482" lon="3.76494">
        <ele>138.984</ele>
        <time>2020-07-07T18:53:48.000Z</time>
      </trkpt>
      <trkpt lat="43.64482" lon="3.76502">
        <ele>138.884</ele>
        <time>2020-07-07T18:53:49.000Z</time>
      </trkpt>
      <trkpt lat="43.64483" lon="3.7651">
        <ele>138.784</ele>
        <time>2020-07-07T18:53:50.000Z</time>
      </trkpt>
      <trkpt lat="43.64483" lon="3.76517">
        <ele>138.684</ele>
        <time>2020-07-07T18:53:51.000Z</time>
      </trkpt>
      <trkpt lat="43.64484" lon="3.76525">
        <ele>138.584</ele>
        <time>2020-07-07T18:53:52.000Z</time>
      </trkpt>
      <trkpt lat="43.64485" lon="3.76532">
        <ele>138.484</ele>
        <time>2020-07-07T18:53:53.000Z</time>
      </trkpt>
      <trkpt lat="43.64486" lon="3.76539">
        <ele>138.384</ele>
        <time>2020-07-07T18:53:54.000Z</time>
      </trkpt>
      <trkpt lat="43.64487" lon="3.76546">
        <ele>138.284</ele>
        <time>2020-07-07T18:53:55.000Z</time>
      </trkpt>
      <trkpt lat="43.64488" lon="3.76553">
        <ele>138.184</ele>
        <time>2020-07-07T18:53:56.000Z</time>
      </trkpt>
      <trkpt lat="43.64489" lon="3.7656">
        <ele>138.084</ele>
        <time>2020-07-07T18:53:57.000Z</time>
      </trkpt>
      <trkpt lat="43.6449" lon="3.76567">
        <ele>138</ele>
        <time>2020-07-07T18:53:58.000Z</time>
      </trkpt>
      <trkpt lat="43.64491" lon="3.76574">
        <ele>138</ele>
        <time>2020-07-07T18:53:59.000Z</time>
      </trkpt>
      <trkpt lat="43.64492" lon="3.76581">
        <ele>138</ele>
        <time>2020-07-07T18:54:00.000Z</time>
      </trkpt>
      <trkpt lat="43.64494" lon="3.76587">
        <ele>138</ele>
        <time>2020-07-07T18:54:01.000Z</time>
      </trkpt>
      <trkpt lat="43.64495" lon="3.76594">
        <ele>138</ele>
        <time>2020-07-07T18:54:02.000Z</time>
      </trkpt>
      <trkpt lat="43.64496" lon="3.766">
        <ele>138</ele>
        <time>2020-07-07T18:54:03.000Z</time>
      </trkpt>
      <trkpt lat="43.64498" lon="3.76606">
        <ele>138</ele>
        <time>2020-07-07T18:54:04.000Z</time>
      </trkpt>
      <trkpt lat="43.64499" lon="3.76612">
        <ele>138</ele>
        <time>2020-07-07T18:54:05.000Z</time>
      </trkpt>
      <trkpt lat="43.64501" lon="3.76617">
        <ele>138</ele>
        <time>2020-07-07T18:54:06.000Z</time>
      </trkpt>
      <trkpt lat="43.64503" lon="3.76622">
        <ele>138</ele>
        <time>2020-07-07T18:54:07.000Z</time>
      </trkpt>
      <trkpt lat="43.64505" lon="3.76628">
        <ele>138</ele>
        <time>2020-07-07T18:54:08.000Z</time>
      </trkpt>
      <trkpt lat="43.64507" lon="3.76633">
        <ele>138</ele>
        <time>2020-07-07T18:54:09.000Z</time>
      </trkpt>
      <trkpt lat="43.64509" lon="3.76637">
        <ele>138</ele>
        <time>2020-07-07T18:54:10.000Z</time>
      </trkpt>
      <trkpt lat="43.64511" lon="3.76641">
        <ele>138</ele>
        <time>2020-07-07T18:54:11.000Z</time>
      </trkpt>
      <trkpt lat="43.64513" lon="3.76646">
        <ele>138</ele>
        <time>2020-07-07T18:54:12.000Z</time>
      </trkpt>
      <trkpt lat="43.64515" lon="3.76649">
        <ele>138</ele>
        <time>2020-07-07T18:54:13.000Z</time>
      </trkpt>
      <trkpt lat="43.64518" lon="3.76653">
        <ele>138</ele>
        <time>2020-07-07T18:54:14.000Z</time>
      </trkpt>
      <trkpt lat="43.6452" lon="3.76657">
        <ele>138</ele>
        <time>2020-07-07T18:54:15.000Z</time>
      </trkpt>
      <trkpt lat="43.64523" lon="3.7666">
        <ele>138</ele>
        <time>2020-07-07T18:54:16.000Z</time>
      </trkpt>
      <trkpt lat="43.64525" lon="3.76663">
        <ele>138</ele>
        <time>2020-07-07T18:54:17.000Z</time>
      </trkpt>
      <trkpt lat="43.64528" lon="3.76667">
        <ele>138</ele>
        <time>2020-07-07T18:54:18.000Z</time>
      </trkpt>
      <trkpt lat="43.6453" lon="3.7667">
        <ele>138</ele>
        <time>2020-07-07T18:54:19.000Z</time>
      </trkpt>
      <trkpt lat="43.64532" lon="3.76674">
        <ele>138</ele>
        <time>2020-07-07T18:54:20.000Z</time>
      </trkpt>
      <trkpt lat="43.64535" lon="3.76677">
        <ele>138</ele>
        <time>2020-07-07T18:54:21.000Z</time>
      </trkpt>
      <trkpt lat="43.64537" lon="3.76681">
        <ele>138</ele>
        <time>2020-07-07T18:54:22.000Z</time>
      </trkpt>
      <trkpt lat="43.6454" lon="3.76684">
        <ele>138</ele>
        <time>2020-07-07T18:54:23.000Z</time>
      </trkpt>
      <trkpt lat="43.64543" lon="3.76688">
        <ele>138</ele>
        <time>2020-07-07T18:54:24.000Z</time>
      </trkpt>
      <trkpt lat="43.64545" lon="3.76692">
        <ele>138</ele>
        <time>2020-07-07T18:54:25.000Z</time>
      </trkpt>
      <trkpt lat="43.64548" lon="3.76696">
        <ele>138</ele>
        <time>2020-07-07T18:54:26.000Z</time>
      </trkpt>
      <trkpt lat="43.6455" lon="3.76699">
        <ele>138</ele>
        <time>2020-07-07T18:54:27.000Z</time>
      </trkpt>
      <trkpt lat="43.64553" lon="3.76702">
        <ele>138</ele>
        <time>2020-07-07T18:54:28.000Z</time>
      </trkpt>
      <trkpt lat="43.64555" lon="3.76705">
        <ele>138</ele>
        <time>2020-07-07T18:54:29.000Z</time>
      </trkpt>
      <trkpt lat="43.64557" lon="3.76709">
        <ele>138</ele>
        <time>2020-07-07T18:54:30.000Z</time>
      </trkpt>
      <trkpt lat="43.6456" lon="3.76713">
        <ele>138</ele>
        <time>2020-07-07T18:54:31.000Z</time>
      </trkpt>
      <trkpt lat="43.64562" lon="3.76717">
        <ele>138</ele>
        <time>2020-07-07T18:54:32.000Z</time>
      </trkpt>
      <trkpt lat="43.64564" lon="3.76722">
        <ele>138</ele>
        <time>2020-07-07T18:54:33.000Z</time>
      </trkpt>
      <trkpt lat="43.64566" lon="3.76727">
        <ele>138</ele>
        <time>2020-07-07T18:54:34.000Z</time>
      </trkpt>
      <trkpt lat="43.64568" lon="3.76731">
        <ele>138</ele>
        <time>2020-07-07T18:54:35.000Z</time>
      </trkpt>
      <trkpt lat="43.64571" lon="3.76737">
        <ele>138</ele>
        <time>2020-07-07T18:54:36.000Z</time>
      </trkpt>
      <trkpt lat="43.64573" lon="3.76742">
        <ele>138</ele>
        <time>2020-07-07T18:54:37.000Z</time>
      </trkpt>
      <trkpt lat="43.64576" lon="3.76747">
        <ele>138</ele>
        <time>2020-07-07T18:54:38.000Z</time>
      </trkpt>
      <trkpt lat="43.64578" lon="3.76753">
        <ele>137.90746297551</ele>
        <time>2020-07-07T18:54:39.000Z</time>
      </trkpt>
      <trkpt lat="43.64582" lon="3.76758">
        <ele>137.80796045627</ele>
        <time>2020-07-07T18:54:40.000Z</time>
      </trkpt>
      <trkpt lat="43.64586" lon="3.76764">
        <ele>137.70845793702</ele>
        <time>2020-07-07T18:54:41.000Z</time>
      </trkpt>
      <trkpt lat="43.6459" lon="3.76769">
        <ele>137.60895541778</ele>
        <time>2020-07-07T18:54:42.000Z</time>
      </trkpt>
      <trkpt lat="43.64595" lon="3.76775">
        <ele>137.50945289853</ele>
        <time>2020-07-07T18:54:43.000Z</time>
      </trkpt>
      <trkpt lat="43.646" lon="3.7678">
        <ele>137.40995037929</ele>
        <time>2020-07-07T18:54:44.000Z</time>
      </trkpt>
      <trkpt lat="43.64605" lon="3.76784">
        <ele>137.31044786004</ele>
        <time>2020-07-07T18:54:45.000Z</time>
      </trkpt>
      <trkpt lat="43.6461" lon="3.76788">
        <ele>137.2109453408</ele>
        <time>2020-07-07T18:54:46.000Z</time>
      </trkpt>
      <trkpt lat="43.64615" lon="3.76791">
        <ele>137.11144282155</ele>
        <time>2020-07-07T18:54:47.000Z</time>
      </trkpt>
      <trkpt lat="43.64621" lon="3.76794">
        <ele>137.01194030231</ele>
        <time>2020-07-07T18:54:48.000Z</time>
      </trkpt>
      <trkpt lat="43.64626" lon="3.76796">
        <ele>137</ele>
        <time>2020-07-07T18:54:49.000Z</time>
      </trkpt>
      <trkpt lat="43.64631" lon="3.76798">
        <ele>137</ele>
        <time>2020-07-07T18:54:50.000Z</time>
      </trkpt>
      <trkpt lat="43.64636" lon="3.768">
        <ele>137</ele>
        <time>2020-07-07T18:54:51.000Z</time>
      </trkpt>
      <trkpt lat="43.64641" lon="3.76802">
        <ele>137</ele>
        <time>2020-07-07T18:54:52.000Z</time>
      </trkpt>
      <trkpt lat="43.64645" lon="3.76805">
        <ele>137</ele>
        <time>2020-07-07T18:54:53.000Z</time>
      </trkpt>
      <trkpt lat="43.64649" lon="3.76808">
        <ele>137</ele>
        <time>2020-07-07T18:54:54.000Z</time>
      </trkpt>
      <trkpt lat="43.64653" lon="3.76811">
        <ele>137</ele>
        <time>2020-07-07T18:54:55.000Z</time>
      </trkpt>
      <trkpt lat="43.64656" lon="3.76813">
        <ele>137</ele>
        <time>2020-07-07T18:54:56.000Z</time>
      </trkpt>
      <trkpt lat="43.64658" lon="3.76814">
        <ele>137</ele>
        <time>2020-07-07T18:54:57.000Z</time>
      </trkpt>
      <trkpt lat="43.64661" lon="3.76815">
        <ele>137</ele>
        <time>2020-07-07T18:54:59.000Z</time>
      </trkpt>
      <trkpt lat="43.64663" lon="3.76814">
        <ele>137</ele>
        <time>2020-07-07T18:55:01.000Z</time>
      </trkpt>
      <trkpt lat="43.64663" lon="3.76811">
        <ele>137</ele>
        <time>2020-07-07T18:55:07.000Z</time>
      </trkpt>
      <trkpt lat="43.64664" lon="3.76809">
        <ele>137</ele>
        <time>2020-07-07T18:55:08.000Z</time>
      </trkpt>
      <trkpt lat="43.64666" lon="3.76804">
        <ele>137</ele>
        <time>2020-07-07T18:55:10.000Z</time>
      </trkpt>
      <trkpt lat="43.64667" lon="3.76802">
        <ele>137.15062761506</ele>
        <time>2020-07-07T18:55:11.000Z</time>
      </trkpt>
      <trkpt lat="43.64669" lon="3.76799">
        <ele>137.35983263598</ele>
        <time>2020-07-07T18:55:12.000Z</time>
      </trkpt>
      <trkpt lat="43.64671" lon="3.76797">
        <ele>137.5690376569</ele>
        <time>2020-07-07T18:55:13.000Z</time>
      </trkpt>
      <trkpt lat="43.64674" lon="3.76796">
        <ele>137.77824267782</ele>
        <time>2020-07-07T18:55:14.000Z</time>
      </trkpt>
      <trkpt lat="43.64676" lon="3.76796">
        <ele>137.98744769875</ele>
        <time>2020-07-07T18:55:15.000Z</time>
      </trkpt>
      <trkpt lat="43.64679" lon="3.76796">
        <ele>138.19665271966</ele>
        <time>2020-07-07T18:55:16.000Z</time>
      </trkpt>
      <trkpt lat="43.64681" lon="3.76796">
        <ele>138.40585774059</ele>
        <time>2020-07-07T18:55:17.000Z</time>
      </trkpt>
      <trkpt lat="43.64684" lon="3.76796">
        <ele>138.61506276151</ele>
        <time>2020-07-07T18:55:18.000Z</time>
      </trkpt>
      <trkpt lat="43.64686" lon="3.76796">
        <ele>138.82426778243</ele>
        <time>2020-07-07T18:55:19.000Z</time>
      </trkpt>
      <trkpt lat="43.64688" lon="3.76796">
        <ele>139</ele>
        <time>2020-07-07T18:55:20.000Z</time>
      </trkpt>
      <trkpt lat="43.6469" lon="3.76796">
        <ele>139</ele>
        <time>2020-07-07T18:55:21.000Z</time>
      </trkpt>
      <trkpt lat="43.64692" lon="3.76796">
        <ele>139</ele>
        <time>2020-07-07T18:55:22.000Z</time>
      </trkpt>
      <trkpt lat="43.64694" lon="3.76796">
        <ele>139</ele>
        <time>2020-07-07T18:55:23.000Z</time>
      </trkpt>
      <trkpt lat="43.64695" lon="3.76796">
        <ele>139</ele>
        <time>2020-07-07T18:55:24.000Z</time>
      </trkpt>
      <trkpt lat="43.64697" lon="3.76796">
        <ele>139</ele>
        <time>2020-07-07T18:55:25.000Z</time>
      </trkpt>
      <trkpt lat="43.64699" lon="3.76799">
        <ele>139</ele>
        <time>2020-07-07T18:55:27.000Z</time>
      </trkpt>
      <trkpt lat="43.64699" lon="3.76801">
        <ele>139</ele>
        <time>2020-07-07T18:55:28.000Z</time>
      </trkpt>
      <trkpt lat="43.64698" lon="3.76804">
        <ele>139</ele>
        <time>2020-07-07T18:55:29.000Z</time>
      </trkpt>
      <trkpt lat="43.64698" lon="3.76807">
        <ele>139</ele>
        <time>2020-07-07T18:55:30.000Z</time>
      </trkpt>
      <trkpt lat="43.64697" lon="3.76811">
        <ele>139.18106995885</ele>
        <time>2020-07-07T18:55:31.000Z</time>
      </trkpt>
      <trkpt lat="43.64698" lon="3.76815">
        <ele>139.38683127572</ele>
        <time>2020-07-07T18:55:32.000Z</time>
      </trkpt>
      <trkpt lat="43.64699" lon="3.76819">
        <ele>139.59259259259</ele>
        <time>2020-07-07T18:55:33.000Z</time>
      </trkpt>
      <trkpt lat="43.647" lon="3.76822">
        <ele>139.79835390946</ele>
        <time>2020-07-07T18:55:34.000Z</time>
      </trkpt>
      <trkpt lat="43.64701" lon="3.76825">
        <ele>140.00411522634</ele>
        <time>2020-07-07T18:55:35.000Z</time>
      </trkpt>
      <trkpt lat="43.64702" lon="3.76828">
        <ele>140.20987654321</ele>
        <time>2020-07-07T18:55:36.000Z</time>
      </trkpt>
      <trkpt lat="43.64703" lon="3.76831">
        <ele>140.41563786008</ele>
        <time>2020-07-07T18:55:37.000Z</time>
      </trkpt>
      <trkpt lat="43.64703" lon="3.76834">
        <ele>140.62139917696</ele>
        <time>2020-07-07T18:55:38.000Z</time>
      </trkpt>
      <trkpt lat="43.64703" lon="3.76837">
        <ele>140.82716049383</ele>
        <time>2020-07-07T18:55:39.000Z</time>
      </trkpt>
      <trkpt lat="43.64703" lon="3.7684">
        <ele>141.01598402109</ele>
        <time>2020-07-07T18:55:40.000Z</time>
      </trkpt>
      <trkpt lat="43.64704" lon="3.76843">
        <ele>141.11588415293</ele>
        <time>2020-07-07T18:55:41.000Z</time>
      </trkpt>
      <trkpt lat="43.64704" lon="3.76846">
        <ele>141.21578428477</ele>
        <time>2020-07-07T18:55:42.000Z</time>
      </trkpt>
      <trkpt lat="43.64704" lon="3.76849">
        <ele>141.3156844166</ele>
        <time>2020-07-07T18:55:43.000Z</time>
      </trkpt>
      <trkpt lat="43.64704" lon="3.76852">
        <ele>141.41558454844</ele>
        <time>2020-07-07T18:55:44.000Z</time>
      </trkpt>
      <trkpt lat="43.64704" lon="3.76855">
        <ele>141.51548468027</ele>
        <time>2020-07-07T18:55:45.000Z</time>
      </trkpt>
      <trkpt lat="43.64703" lon="3.76858">
        <ele>141.61538481211</ele>
        <time>2020-07-07T18:55:46.000Z</time>
      </trkpt>
      <trkpt lat="43.64703" lon="3.76862">
        <ele>141.71528494395</ele>
        <time>2020-07-07T18:55:47.000Z</time>
      </trkpt>
      <trkpt lat="43.64703" lon="3.76865">
        <ele>141.81518507578</ele>
        <time>2020-07-07T18:55:48.000Z</time>
      </trkpt>
      <trkpt lat="43.64702" lon="3.76869">
        <ele>141.91508520762</ele>
        <time>2020-07-07T18:55:49.000Z</time>
      </trkpt>
      <trkpt lat="43.64702" lon="3.76873">
        <ele>142</ele>
        <time>2020-07-07T18:55:50.000Z</time>
      </trkpt>
      <trkpt lat="43.64701" lon="3.76877">
        <ele>142</ele>
        <time>2020-07-07T18:55:51.000Z</time>
      </trkpt>
      <trkpt lat="43.647" lon="3.76881">
        <ele>142</ele>
        <time>2020-07-07T18:55:52.000Z</time>
      </trkpt>
      <trkpt lat="43.64699" lon="3.76886">
        <ele>142</ele>
        <time>2020-07-07T18:55:53.000Z</time>
      </trkpt>
      <trkpt lat="43.64698" lon="3.7689">
        <ele>142</ele>
        <time>2020-07-07T18:55:54.000Z</time>
      </trkpt>
      <trkpt lat="43.64697" lon="3.76895">
        <ele>142</ele>
        <time>2020-07-07T18:55:55.000Z</time>
      </trkpt>
      <trkpt lat="43.64695" lon="3.76899">
        <ele>142</ele>
        <time>2020-07-07T18:55:56.000Z</time>
      </trkpt>
      <trkpt lat="43.64693" lon="3.76904">
        <ele>142</ele>
        <time>2020-07-07T18:55:57.000Z</time>
      </trkpt>
      <trkpt lat="43.64692" lon="3.76908">
        <ele>142</ele>
        <time>2020-07-07T18:55:58.000Z</time>
      </trkpt>
      <trkpt lat="43.6469" lon="3.76913">
        <ele>142</ele>
        <time>2020-07-07T18:55:59.000Z</time>
      </trkpt>
      <trkpt lat="43.64689" lon="3.76917">
        <ele>142</ele>
        <time>2020-07-07T18:56:00.000Z</time>
      </trkpt>
      <trkpt lat="43.64688" lon="3.76921">
        <ele>141.9085306174</ele>
        <time>2020-07-07T18:56:01.000Z</time>
      </trkpt>
      <trkpt lat="43.64686" lon="3.76923">
        <ele>141.80575566068</ele>
        <time>2020-07-07T18:56:02.000Z</time>
      </trkpt>
      <trkpt lat="43.64683" lon="3.76925">
        <ele>141.70298070396</ele>
        <time>2020-07-07T18:56:03.000Z</time>
      </trkpt>
      <trkpt lat="43.6468" lon="3.76926">
        <ele>141.60020574724</ele>
        <time>2020-07-07T18:56:04.000Z</time>
      </trkpt>
      <trkpt lat="43.64677" lon="3.76927">
        <ele>141.49743079052</ele>
        <time>2020-07-07T18:56:05.000Z</time>
      </trkpt>
      <trkpt lat="43.64676" lon="3.76927">
        <ele>141.3946558338</ele>
        <time>2020-07-07T18:56:06.000Z</time>
      </trkpt>
      <trkpt lat="43.64674" lon="3.7693">
        <ele>141.18910592036</ele>
        <time>2020-07-07T18:56:08.000Z</time>
      </trkpt>
      <trkpt lat="43.64675" lon="3.76935">
        <ele>141</ele>
        <time>2020-07-07T18:56:10.000Z</time>
      </trkpt>
      <trkpt lat="43.64675" lon="3.76938">
        <ele>141</ele>
        <time>2020-07-07T18:56:11.000Z</time>
      </trkpt>
      <trkpt lat="43.64676" lon="3.76941">
        <ele>141</ele>
        <time>2020-07-07T18:56:12.000Z</time>
      </trkpt>
      <trkpt lat="43.64676" lon="3.76944">
        <ele>141</ele>
        <time>2020-07-07T18:56:13.000Z</time>
      </trkpt>
      <trkpt lat="43.64676" lon="3.76949">
        <ele>141</ele>
        <time>2020-07-07T18:56:14.000Z</time>
      </trkpt>
      <trkpt lat="43.64675" lon="3.76953">
        <ele>141</ele>
        <time>2020-07-07T18:56:15.000Z</time>
      </trkpt>
      <trkpt lat="43.64674" lon="3.76959">
        <ele>141</ele>
        <time>2020-07-07T18:56:16.000Z</time>
      </trkpt>
      <trkpt lat="43.64675" lon="3.76963">
        <ele>141</ele>
        <time>2020-07-07T18:56:17.000Z</time>
      </trkpt>
      <trkpt lat="43.64675" lon="3.76967">
        <ele>141</ele>
        <time>2020-07-07T18:56:18.000Z</time>
      </trkpt>
      <trkpt lat="43.64677" lon="3.76971">
        <ele>141</ele>
        <time>2020-07-07T18:56:19.000Z</time>
      </trkpt>
      <trkpt lat="43.64678" lon="3.76975">
        <ele>141</ele>
        <time>2020-07-07T18:56:20.000Z</time>
      </trkpt>
      <trkpt lat="43.64679" lon="3.76979">
        <ele>141</ele>
        <time>2020-07-07T18:56:21.000Z</time>
      </trkpt>
      <trkpt lat="43.6468" lon="3.76982">
        <ele>141</ele>
        <time>2020-07-07T18:56:22.000Z</time>
      </trkpt>
      <trkpt lat="43.64681" lon="3.76986">
        <ele>141</ele>
        <time>2020-07-07T18:56:23.000Z</time>
      </trkpt>
      <trkpt lat="43.64682" lon="3.7699">
        <ele>141</ele>
        <time>2020-07-07T18:56:24.000Z</time>
      </trkpt>
      <trkpt lat="43.64683" lon="3.76994">
        <ele>141</ele>
        <time>2020-07-07T18:56:25.000Z</time>
      </trkpt>
      <trkpt lat="43.64684" lon="3.76998">
        <ele>141</ele>
        <time>2020-07-07T18:56:26.000Z</time>
      </trkpt>
      <trkpt lat="43.64685" lon="3.77002">
        <ele>141</ele>
        <time>2020-07-07T18:56:27.000Z</time>
      </trkpt>
      <trkpt lat="43.64685" lon="3.77005">
        <ele>141</ele>
        <time>2020-07-07T18:56:28.000Z</time>
      </trkpt>
      <trkpt lat="43.64686" lon="3.77009">
        <ele>141</ele>
        <time>2020-07-07T18:56:29.000Z</time>
      </trkpt>
      <trkpt lat="43.64687" lon="3.77013">
        <ele>141</ele>
        <time>2020-07-07T18:56:30.000Z</time>
      </trkpt>
      <trkpt lat="43.64688" lon="3.77016">
        <ele>141.088</ele>
        <time>2020-07-07T18:56:31.000Z</time>
      </trkpt>
      <trkpt lat="43.64688" lon="3.7702">
        <ele>141.188</ele>
        <time>2020-07-07T18:56:32.000Z</time>
      </trkpt>
      <trkpt lat="43.64689" lon="3.77023">
        <ele>141.288</ele>
        <time>2020-07-07T18:56:33.000Z</time>
      </trkpt>
      <trkpt lat="43.6469" lon="3.77026">
        <ele>141.388</ele>
        <time>2020-07-07T18:56:34.000Z</time>
      </trkpt>
      <trkpt lat="43.64691" lon="3.77029">
        <ele>141.488</ele>
        <time>2020-07-07T18:56:35.000Z</time>
      </trkpt>
      <trkpt lat="43.64691" lon="3.77033">
        <ele>141.588</ele>
        <time>2020-07-07T18:56:36.000Z</time>
      </trkpt>
      <trkpt lat="43.64692" lon="3.77036">
        <ele>141.688</ele>
        <time>2020-07-07T18:56:37.000Z</time>
      </trkpt>
      <trkpt lat="43.64693" lon="3.77039">
        <ele>141.788</ele>
        <time>2020-07-07T18:56:38.000Z</time>
      </trkpt>
      <trkpt lat="43.64694" lon="3.77042">
        <ele>141.888</ele>
        <time>2020-07-07T18:56:39.000Z</time>
      </trkpt>
      <trkpt lat="43.64695" lon="3.77044">
        <ele>141.988</ele>
        <time>2020-07-07T18:56:40.000Z</time>
      </trkpt>
      <trkpt lat="43.64696" lon="3.77047">
        <ele>142.08773676164</ele>
        <time>2020-07-07T18:56:41.000Z</time>
      </trkpt>
      <trkpt lat="43.64697" lon="3.7705">
        <ele>142.18743762714</ele>
        <time>2020-07-07T18:56:42.000Z</time>
      </trkpt>
      <trkpt lat="43.64698" lon="3.77053">
        <ele>142.28713849264</ele>
        <time>2020-07-07T18:56:43.000Z</time>
      </trkpt>
      <trkpt lat="43.64699" lon="3.77055">
        <ele>142.38683935814</ele>
        <time>2020-07-07T18:56:44.000Z</time>
      </trkpt>
      <trkpt lat="43.647" lon="3.77058">
        <ele>142.48654022364</ele>
        <time>2020-07-07T18:56:45.000Z</time>
      </trkpt>
      <trkpt lat="43.647" lon="3.77061">
        <ele>142.58624108914</ele>
        <time>2020-07-07T18:56:46.000Z</time>
      </trkpt>
      <trkpt lat="43.64701" lon="3.77063">
        <ele>142.68594195464</ele>
        <time>2020-07-07T18:56:47.000Z</time>
      </trkpt>
      <trkpt lat="43.64702" lon="3.77066">
        <ele>142.78564282013</ele>
        <time>2020-07-07T18:56:48.000Z</time>
      </trkpt>
      <trkpt lat="43.64703" lon="3.77069">
        <ele>142.88534368563</ele>
        <time>2020-07-07T18:56:49.000Z</time>
      </trkpt>
      <trkpt lat="43.64704" lon="3.77073">
        <ele>142.98504455113</ele>
        <time>2020-07-07T18:56:50.000Z</time>
      </trkpt>
      <trkpt lat="43.64705" lon="3.77076">
        <ele>143</ele>
        <time>2020-07-07T18:56:51.000Z</time>
      </trkpt>
      <trkpt lat="43.64706" lon="3.7708">
        <ele>143</ele>
        <time>2020-07-07T18:56:52.000Z</time>
      </trkpt>
      <trkpt lat="43.64707" lon="3.77083">
        <ele>143</ele>
        <time>2020-07-07T18:56:53.000Z</time>
      </trkpt>
      <trkpt lat="43.64708" lon="3.77086">
        <ele>143</ele>
        <time>2020-07-07T18:56:54.000Z</time>
      </trkpt>
      <trkpt lat="43.64708" lon="3.77089">
        <ele>143</ele>
        <time>2020-07-07T18:56:55.000Z</time>
      </trkpt>
      <trkpt lat="43.64706" lon="3.77091">
        <ele>143</ele>
        <time>2020-07-07T18:56:56.000Z</time>
      </trkpt>
      <trkpt lat="43.64705" lon="3.77094">
        <ele>143</ele>
        <time>2020-07-07T18:56:57.000Z</time>
      </trkpt>
      <trkpt lat="43.64702" lon="3.77096">
        <ele>143</ele>
        <time>2020-07-07T18:56:58.000Z</time>
      </trkpt>
      <trkpt lat="43.64698" lon="3.77097">
        <ele>143</ele>
        <time>2020-07-07T18:56:59.000Z</time>
      </trkpt>
      <trkpt lat="43.64694" lon="3.77097">
        <ele>142.968</ele>
        <time>2020-07-07T18:57:00.000Z</time>
      </trkpt>
      <trkpt lat="43.6469" lon="3.77097">
        <ele>142.768</ele>
        <time>2020-07-07T18:57:01.000Z</time>
      </trkpt>
      <trkpt lat="43.64686" lon="3.77097">
        <ele>142.568</ele>
        <time>2020-07-07T18:57:02.000Z</time>
      </trkpt>
      <trkpt lat="43.64682" lon="3.77098">
        <ele>142.368</ele>
        <time>2020-07-07T18:57:03.000Z</time>
      </trkpt>
      <trkpt lat="43.64677" lon="3.77097">
        <ele>142.168</ele>
        <time>2020-07-07T18:57:04.000Z</time>
      </trkpt>
      <trkpt lat="43.64673" lon="3.77095">
        <ele>141.968</ele>
        <time>2020-07-07T18:57:05.000Z</time>
      </trkpt>
      <trkpt lat="43.64669" lon="3.77093">
        <ele>141.768</ele>
        <time>2020-07-07T18:57:06.000Z</time>
      </trkpt>
      <trkpt lat="43.64666" lon="3.77091">
        <ele>141.568</ele>
        <time>2020-07-07T18:57:07.000Z</time>
      </trkpt>
      <trkpt lat="43.64663" lon="3.7709">
        <ele>141.368</ele>
        <time>2020-07-07T18:57:08.000Z</time>
      </trkpt>
      <trkpt lat="43.6466" lon="3.77092">
        <ele>141.168</ele>
        <time>2020-07-07T18:57:09.000Z</time>
      </trkpt>
      <trkpt lat="43.64659" lon="3.77096">
        <ele>140.952</ele>
        <time>2020-07-07T18:57:10.000Z</time>
      </trkpt>
      <trkpt lat="43.64657" lon="3.771">
        <ele>140.652</ele>
        <time>2020-07-07T18:57:11.000Z</time>
      </trkpt>
      <trkpt lat="43.64654" lon="3.77104">
        <ele>140.352</ele>
        <time>2020-07-07T18:57:12.000Z</time>
      </trkpt>
      <trkpt lat="43.64652" lon="3.77107">
        <ele>140.052</ele>
        <time>2020-07-07T18:57:13.000Z</time>
      </trkpt>
      <trkpt lat="43.64651" lon="3.77109">
        <ele>139.752</ele>
        <time>2020-07-07T18:57:14.000Z</time>
      </trkpt>
      <trkpt lat="43.6465" lon="3.77112">
        <ele>139.452</ele>
        <time>2020-07-07T18:57:15.000Z</time>
      </trkpt>
      <trkpt lat="43.64649" lon="3.77114">
        <ele>139.152</ele>
        <time>2020-07-07T18:57:16.000Z</time>
      </trkpt>
      <trkpt lat="43.64648" lon="3.77117">
        <ele>138.852</ele>
        <time>2020-07-07T18:57:17.000Z</time>
      </trkpt>
      <trkpt lat="43.64647" lon="3.77121">
        <ele>138.552</ele>
        <time>2020-07-07T18:57:18.000Z</time>
      </trkpt>
      <trkpt lat="43.64646" lon="3.77126">
        <ele>138.252</ele>
        <time>2020-07-07T18:57:19.000Z</time>
      </trkpt>
      <trkpt lat="43.64645" lon="3.77132">
        <ele>137.98446602907</ele>
        <time>2020-07-07T18:57:20.000Z</time>
      </trkpt>
      <trkpt lat="43.64645" lon="3.77138">
        <ele>137.88737871076</ele>
        <time>2020-07-07T18:57:21.000Z</time>
      </trkpt>
      <trkpt lat="43.64646" lon="3.77145">
        <ele>137.79029139244</ele>
        <time>2020-07-07T18:57:22.000Z</time>
      </trkpt>
      <trkpt lat="43.64646" lon="3.77152">
        <ele>137.69320407413</ele>
        <time>2020-07-07T18:57:23.000Z</time>
      </trkpt>
      <trkpt lat="43.64647" lon="3.77159">
        <ele>137.59611675581</ele>
        <time>2020-07-07T18:57:24.000Z</time>
      </trkpt>
      <trkpt lat="43.64649" lon="3.77166">
        <ele>137.4990294375</ele>
        <time>2020-07-07T18:57:25.000Z</time>
      </trkpt>
      <trkpt lat="43.6465" lon="3.77174">
        <ele>137.40194211918</ele>
        <time>2020-07-07T18:57:26.000Z</time>
      </trkpt>
      <trkpt lat="43.6465" lon="3.77182">
        <ele>137.30485480087</ele>
        <time>2020-07-07T18:57:27.000Z</time>
      </trkpt>
      <trkpt lat="43.6465" lon="3.77191">
        <ele>137.20776748255</ele>
        <time>2020-07-07T18:57:28.000Z</time>
      </trkpt>
      <trkpt lat="43.64651" lon="3.772">
        <ele>137.11068016424</ele>
        <time>2020-07-07T18:57:29.000Z</time>
      </trkpt>
      <trkpt lat="43.64652" lon="3.77209">
        <ele>137.01359284592</ele>
        <time>2020-07-07T18:57:30.000Z</time>
      </trkpt>
      <trkpt lat="43.64655" lon="3.77218">
        <ele>136.82268161497</ele>
        <time>2020-07-07T18:57:31.000Z</time>
      </trkpt>
      <trkpt lat="43.64658" lon="3.77227">
        <ele>136.61649591191</ele>
        <time>2020-07-07T18:57:32.000Z</time>
      </trkpt>
      <trkpt lat="43.6466" lon="3.77235">
        <ele>136.41031020886</ele>
        <time>2020-07-07T18:57:33.000Z</time>
      </trkpt>
      <trkpt lat="43.64663" lon="3.77243">
        <ele>136.20412450581</ele>
        <time>2020-07-07T18:57:34.000Z</time>
      </trkpt>
      <trkpt lat="43.64664" lon="3.77252">
        <ele>135.99793880276</ele>
        <time>2020-07-07T18:57:35.000Z</time>
      </trkpt>
      <trkpt lat="43.64664" lon="3.7726">
        <ele>135.79175309971</ele>
        <time>2020-07-07T18:57:36.000Z</time>
      </trkpt>
      <trkpt lat="43.64665" lon="3.77268">
        <ele>135.58556739666</ele>
        <time>2020-07-07T18:57:37.000Z</time>
      </trkpt>
      <trkpt lat="43.64666" lon="3.77276">
        <ele>135.37938169361</ele>
        <time>2020-07-07T18:57:38.000Z</time>
      </trkpt>
      <trkpt lat="43.64667" lon="3.77285">
        <ele>135.17319599056</ele>
        <time>2020-07-07T18:57:39.000Z</time>
      </trkpt>
      <trkpt lat="43.64669" lon="3.77294">
        <ele>134.90588235294</ele>
        <time>2020-07-07T18:57:40.000Z</time>
      </trkpt>
      <trkpt lat="43.64671" lon="3.77303">
        <ele>134.31764705882</ele>
        <time>2020-07-07T18:57:41.000Z</time>
      </trkpt>
      <trkpt lat="43.64673" lon="3.77312">
        <ele>133.72941176471</ele>
        <time>2020-07-07T18:57:42.000Z</time>
      </trkpt>
      <trkpt lat="43.64675" lon="3.77321">
        <ele>133.14117647059</ele>
        <time>2020-07-07T18:57:43.000Z</time>
      </trkpt>
      <trkpt lat="43.64678" lon="3.77329">
        <ele>132.55294117647</ele>
        <time>2020-07-07T18:57:44.000Z</time>
      </trkpt>
      <trkpt lat="43.6468" lon="3.77338">
        <ele>131.96470588235</ele>
        <time>2020-07-07T18:57:45.000Z</time>
      </trkpt>
      <trkpt lat="43.64683" lon="3.77347">
        <ele>131.37647058824</ele>
        <time>2020-07-07T18:57:46.000Z</time>
      </trkpt>
      <trkpt lat="43.64685" lon="3.77356">
        <ele>130.78823529412</ele>
        <time>2020-07-07T18:57:47.000Z</time>
      </trkpt>
      <trkpt lat="43.64687" lon="3.77364">
        <ele>130.2</ele>
        <time>2020-07-07T18:57:48.000Z</time>
      </trkpt>
      <trkpt lat="43.64689" lon="3.77373">
        <ele>129.61176470588</ele>
        <time>2020-07-07T18:57:49.000Z</time>
      </trkpt>
      <trkpt lat="43.64691" lon="3.77381">
        <ele>129.02352941176</ele>
        <time>2020-07-07T18:57:50.000Z</time>
      </trkpt>
      <trkpt lat="43.64691" lon="3.7739">
        <ele>128.70612244898</ele>
        <time>2020-07-07T18:57:51.000Z</time>
      </trkpt>
      <trkpt lat="43.64691" lon="3.77398">
        <ele>128.4</ele>
        <time>2020-07-07T18:57:52.000Z</time>
      </trkpt>
      <trkpt lat="43.64689" lon="3.77406">
        <ele>128.09387755102</ele>
        <time>2020-07-07T18:57:53.000Z</time>
      </trkpt>
      <trkpt lat="43.64689" lon="3.77412">
        <ele>127.78775510204</ele>
        <time>2020-07-07T18:57:54.000Z</time>
      </trkpt>
      <trkpt lat="43.64688" lon="3.77418">
        <ele>127.48163265306</ele>
        <time>2020-07-07T18:57:55.000Z</time>
      </trkpt>
      <trkpt lat="43.64688" lon="3.77421">
        <ele>127.17551020408</ele>
        <time>2020-07-07T18:57:56.000Z</time>
      </trkpt>
      <trkpt lat="43.64688" lon="3.77425">
        <ele>126.8693877551</ele>
        <time>2020-07-07T18:57:57.000Z</time>
      </trkpt>
      <trkpt lat="43.64687" lon="3.77428">
        <ele>126.56326530612</ele>
        <time>2020-07-07T18:57:58.000Z</time>
      </trkpt>
      <trkpt lat="43.64687" lon="3.77431">
        <ele>126.25714285714</ele>
        <time>2020-07-07T18:57:59.000Z</time>
      </trkpt>
      <trkpt lat="43.64687" lon="3.77434">
        <ele>125.952</ele>
        <time>2020-07-07T18:58:00.000Z</time>
      </trkpt>
      <trkpt lat="43.64687" lon="3.77437">
        <ele>125.652</ele>
        <time>2020-07-07T18:58:01.000Z</time>
      </trkpt>
      <trkpt lat="43.64688" lon="3.7744">
        <ele>125.352</ele>
        <time>2020-07-07T18:58:02.000Z</time>
      </trkpt>
      <trkpt lat="43.64689" lon="3.77444">
        <ele>125.052</ele>
        <time>2020-07-07T18:58:03.000Z</time>
      </trkpt>
      <trkpt lat="43.6469" lon="3.77448">
        <ele>124.752</ele>
        <time>2020-07-07T18:58:04.000Z</time>
      </trkpt>
      <trkpt lat="43.64691" lon="3.77453">
        <ele>124.452</ele>
        <time>2020-07-07T18:58:05.000Z</time>
      </trkpt>
      <trkpt lat="43.64692" lon="3.77458">
        <ele>124.152</ele>
        <time>2020-07-07T18:58:06.000Z</time>
      </trkpt>
      <trkpt lat="43.64694" lon="3.77463">
        <ele>123.852</ele>
        <time>2020-07-07T18:58:07.000Z</time>
      </trkpt>
      <trkpt lat="43.64695" lon="3.77468">
        <ele>123.552</ele>
        <time>2020-07-07T18:58:08.000Z</time>
      </trkpt>
      <trkpt lat="43.64695" lon="3.77472">
        <ele>123.252</ele>
        <time>2020-07-07T18:58:09.000Z</time>
      </trkpt>
      <trkpt lat="43.64695" lon="3.77477">
        <ele>122.936</ele>
        <time>2020-07-07T18:58:10.000Z</time>
      </trkpt>
      <trkpt lat="43.64696" lon="3.77481">
        <ele>122.536</ele>
        <time>2020-07-07T18:58:11.000Z</time>
      </trkpt>
      <trkpt lat="43.64697" lon="3.77486">
        <ele>122.136</ele>
        <time>2020-07-07T18:58:12.000Z</time>
      </trkpt>
      <trkpt lat="43.64698" lon="3.77491">
        <ele>121.736</ele>
        <time>2020-07-07T18:58:13.000Z</time>
      </trkpt>
      <trkpt lat="43.64699" lon="3.77496">
        <ele>121.336</ele>
        <time>2020-07-07T18:58:14.000Z</time>
      </trkpt>
      <trkpt lat="43.64701" lon="3.775">
        <ele>120.936</ele>
        <time>2020-07-07T18:58:15.000Z</time>
      </trkpt>
      <trkpt lat="43.64702" lon="3.77504">
        <ele>120.536</ele>
        <time>2020-07-07T18:58:16.000Z</time>
      </trkpt>
      <trkpt lat="43.64703" lon="3.77507">
        <ele>120.136</ele>
        <time>2020-07-07T18:58:17.000Z</time>
      </trkpt>
      <trkpt lat="43.64703" lon="3.77511">
        <ele>119.736</ele>
        <time>2020-07-07T18:58:18.000Z</time>
      </trkpt>
      <trkpt lat="43.64704" lon="3.77515">
        <ele>119.336</ele>
        <time>2020-07-07T18:58:19.000Z</time>
      </trkpt>
      <trkpt lat="43.64705" lon="3.77518">
        <ele>118.968</ele>
        <time>2020-07-07T18:58:20.000Z</time>
      </trkpt>
      <trkpt lat="43.64706" lon="3.77522">
        <ele>118.768</ele>
        <time>2020-07-07T18:58:21.000Z</time>
      </trkpt>
      <trkpt lat="43.64707" lon="3.77527">
        <ele>118.568</ele>
        <time>2020-07-07T18:58:22.000Z</time>
      </trkpt>
      <trkpt lat="43.64707" lon="3.77532">
        <ele>118.368</ele>
        <time>2020-07-07T18:58:23.000Z</time>
      </trkpt>
      <trkpt lat="43.64707" lon="3.77537">
        <ele>118.168</ele>
        <time>2020-07-07T18:58:24.000Z</time>
      </trkpt>
      <trkpt lat="43.64707" lon="3.77542">
        <ele>117.968</ele>
        <time>2020-07-07T18:58:25.000Z</time>
      </trkpt>
      <trkpt lat="43.64707" lon="3.77547">
        <ele>117.768</ele>
        <time>2020-07-07T18:58:26.000Z</time>
      </trkpt>
      <trkpt lat="43.64708" lon="3.77552">
        <ele>117.568</ele>
        <time>2020-07-07T18:58:27.000Z</time>
      </trkpt>
      <trkpt lat="43.64709" lon="3.77557">
        <ele>117.368</ele>
        <time>2020-07-07T18:58:28.000Z</time>
      </trkpt>
      <trkpt lat="43.64711" lon="3.77562">
        <ele>117.168</ele>
        <time>2020-07-07T18:58:29.000Z</time>
      </trkpt>
      <trkpt lat="43.64713" lon="3.77567">
        <ele>116.96887159533</ele>
        <time>2020-07-07T18:58:30.000Z</time>
      </trkpt>
      <trkpt lat="43.64715" lon="3.77571">
        <ele>116.77431906615</ele>
        <time>2020-07-07T18:58:31.000Z</time>
      </trkpt>
      <trkpt lat="43.64717" lon="3.77576">
        <ele>116.57976653696</ele>
        <time>2020-07-07T18:58:32.000Z</time>
      </trkpt>
      <trkpt lat="43.64719" lon="3.77581">
        <ele>116.38521400778</ele>
        <time>2020-07-07T18:58:33.000Z</time>
      </trkpt>
      <trkpt lat="43.64721" lon="3.77586">
        <ele>116.1906614786</ele>
        <time>2020-07-07T18:58:34.000Z</time>
      </trkpt>
      <trkpt lat="43.64722" lon="3.77591">
        <ele>115.99610894942</ele>
        <time>2020-07-07T18:58:35.000Z</time>
      </trkpt>
      <trkpt lat="43.64725" lon="3.77595">
        <ele>115.80155642023</ele>
        <time>2020-07-07T18:58:36.000Z</time>
      </trkpt>
      <trkpt lat="43.64726" lon="3.77599">
        <ele>115.60700389105</ele>
        <time>2020-07-07T18:58:37.000Z</time>
      </trkpt>
      <trkpt lat="43.64728" lon="3.77604">
        <ele>115.41245136187</ele>
        <time>2020-07-07T18:58:38.000Z</time>
      </trkpt>
      <trkpt lat="43.6473" lon="3.77608">
        <ele>115.21789883268</ele>
        <time>2020-07-07T18:58:39.000Z</time>
      </trkpt>
      <trkpt lat="43.64731" lon="3.77612">
        <ele>115.0233463035</ele>
        <time>2020-07-07T18:58:40.000Z</time>
      </trkpt>
      <trkpt lat="43.64733" lon="3.77616">
        <ele>114.81893004115</ele>
        <time>2020-07-07T18:58:41.000Z</time>
      </trkpt>
      <trkpt lat="43.64734" lon="3.77619">
        <ele>114.61316872428</ele>
        <time>2020-07-07T18:58:42.000Z</time>
      </trkpt>
      <trkpt lat="43.64736" lon="3.77623">
        <ele>114.40740740741</ele>
        <time>2020-07-07T18:58:43.000Z</time>
      </trkpt>
      <trkpt lat="43.64737" lon="3.77626">
        <ele>114.20164609053</ele>
        <time>2020-07-07T18:58:44.000Z</time>
      </trkpt>
      <trkpt lat="43.64738" lon="3.77629">
        <ele>113.99588477366</ele>
        <time>2020-07-07T18:58:45.000Z</time>
      </trkpt>
      <trkpt lat="43.6474" lon="3.77632">
        <ele>113.79012345679</ele>
        <time>2020-07-07T18:58:46.000Z</time>
      </trkpt>
      <trkpt lat="43.64741" lon="3.77636">
        <ele>113.58436213992</ele>
        <time>2020-07-07T18:58:47.000Z</time>
      </trkpt>
      <trkpt lat="43.64743" lon="3.77639">
        <ele>113.37860082305</ele>
        <time>2020-07-07T18:58:48.000Z</time>
      </trkpt>
      <trkpt lat="43.64744" lon="3.77643">
        <ele>113.17283950617</ele>
        <time>2020-07-07T18:58:49.000Z</time>
      </trkpt>
      <trkpt lat="43.64746" lon="3.77646">
        <ele>112.984</ele>
        <time>2020-07-07T18:58:50.000Z</time>
      </trkpt>
      <trkpt lat="43.64748" lon="3.77649">
        <ele>112.884</ele>
        <time>2020-07-07T18:58:51.000Z</time>
      </trkpt>
      <trkpt lat="43.64749" lon="3.77652">
        <ele>112.784</ele>
        <time>2020-07-07T18:58:52.000Z</time>
      </trkpt>
      <trkpt lat="43.64751" lon="3.77655">
        <ele>112.684</ele>
        <time>2020-07-07T18:58:53.000Z</time>
      </trkpt>
      <trkpt lat="43.64753" lon="3.77658">
        <ele>112.584</ele>
        <time>2020-07-07T18:58:54.000Z</time>
      </trkpt>
      <trkpt lat="43.64754" lon="3.77661">
        <ele>112.484</ele>
        <time>2020-07-07T18:58:55.000Z</time>
      </trkpt>
      <trkpt lat="43.64756" lon="3.77665">
        <ele>112.384</ele>
        <time>2020-07-07T18:58:56.000Z</time>
      </trkpt>
      <trkpt lat="43.64758" lon="3.77668">
        <ele>112.284</ele>
        <time>2020-07-07T18:58:57.000Z</time>
      </trkpt>
      <trkpt lat="43.64761" lon="3.77671">
        <ele>112.184</ele>
        <time>2020-07-07T18:58:58.000Z</time>
      </trkpt>
      <trkpt lat="43.64763" lon="3.77674">
        <ele>112.084</ele>
        <time>2020-07-07T18:58:59.000Z</time>
      </trkpt>
      <trkpt lat="43.64766" lon="3.77677">
        <ele>112</ele>
        <time>2020-07-07T18:59:00.000Z</time>
      </trkpt>
      <trkpt lat="43.64768" lon="3.77679">
        <ele>112</ele>
        <time>2020-07-07T18:59:01.000Z</time>
      </trkpt>
      <trkpt lat="43.6477" lon="3.77682">
        <ele>112</ele>
        <time>2020-07-07T18:59:02.000Z</time>
      </trkpt>
      <trkpt lat="43.64772" lon="3.77685">
        <ele>112</ele>
        <time>2020-07-07T18:59:03.000Z</time>
      </trkpt>
      <trkpt lat="43.64774" lon="3.77688">
        <ele>112</ele>
        <time>2020-07-07T18:59:04.000Z</time>
      </trkpt>
      <trkpt lat="43.64776" lon="3.77691">
        <ele>112</ele>
        <time>2020-07-07T18:59:05.000Z</time>
      </trkpt>
      <trkpt lat="43.64779" lon="3.77694">
        <ele>112</ele>
        <time>2020-07-07T18:59:06.000Z</time>
      </trkpt>
      <trkpt lat="43.64781" lon="3.77697">
        <ele>112</ele>
        <time>2020-07-07T18:59:07.000Z</time>
      </trkpt>
      <trkpt lat="43.64783" lon="3.777">
        <ele>112</ele>
        <time>2020-07-07T18:59:08.000Z</time>
      </trkpt>
      <trkpt lat="43.64785" lon="3.77703">
        <ele>112</ele>
        <time>2020-07-07T18:59:09.000Z</time>
      </trkpt>
      <trkpt lat="43.64787" lon="3.77706">
        <ele>112</ele>
        <time>2020-07-07T18:59:10.000Z</time>
      </trkpt>
      <trkpt lat="43.64789" lon="3.77708">
        <ele>112</ele>
        <time>2020-07-07T18:59:11.000Z</time>
      </trkpt>
      <trkpt lat="43.64791" lon="3.77709">
        <ele>112</ele>
        <time>2020-07-07T18:59:12.000Z</time>
      </trkpt>
      <trkpt lat="43.64794" lon="3.7771">
        <ele>112</ele>
        <time>2020-07-07T18:59:13.000Z</time>
      </trkpt>
      <trkpt lat="43.64797" lon="3.77711">
        <ele>112</ele>
        <time>2020-07-07T18:59:14.000Z</time>
      </trkpt>
      <trkpt lat="43.64801" lon="3.77712">
        <ele>112</ele>
        <time>2020-07-07T18:59:15.000Z</time>
      </trkpt>
      <trkpt lat="43.64805" lon="3.77712">
        <ele>112</ele>
        <time>2020-07-07T18:59:16.000Z</time>
      </trkpt>
      <trkpt lat="43.64808" lon="3.77713">
        <ele>112</ele>
        <time>2020-07-07T18:59:17.000Z</time>
      </trkpt>
      <trkpt lat="43.64812" lon="3.77714">
        <ele>112</ele>
        <time>2020-07-07T18:59:18.000Z</time>
      </trkpt>
      <trkpt lat="43.64816" lon="3.77716">
        <ele>112</ele>
        <time>2020-07-07T18:59:19.000Z</time>
      </trkpt>
      <trkpt lat="43.64818" lon="3.7772">
        <ele>112.016</ele>
        <time>2020-07-07T18:59:20.000Z</time>
      </trkpt>
      <trkpt lat="43.6482" lon="3.77723">
        <ele>112.116</ele>
        <time>2020-07-07T18:59:21.000Z</time>
      </trkpt>
      <trkpt lat="43.64822" lon="3.77725">
        <ele>112.216</ele>
        <time>2020-07-07T18:59:22.000Z</time>
      </trkpt>
      <trkpt lat="43.64823" lon="3.77727">
        <ele>112.316</ele>
        <time>2020-07-07T18:59:23.000Z</time>
      </trkpt>
      <trkpt lat="43.64825" lon="3.77731">
        <ele>112.516</ele>
        <time>2020-07-07T18:59:25.000Z</time>
      </trkpt>
      <trkpt lat="43.64825" lon="3.77735">
        <ele>112.716</ele>
        <time>2020-07-07T18:59:27.000Z</time>
      </trkpt>
      <trkpt lat="43.64824" lon="3.77738">
        <ele>112.816</ele>
        <time>2020-07-07T18:59:28.000Z</time>
      </trkpt>
      <trkpt lat="43.64823" lon="3.77742">
        <ele>112.916</ele>
        <time>2020-07-07T18:59:29.000Z</time>
      </trkpt>
      <trkpt lat="43.64822" lon="3.77745">
        <ele>113.01598402109</ele>
        <time>2020-07-07T18:59:30.000Z</time>
      </trkpt>
      <trkpt lat="43.64822" lon="3.77748">
        <ele>113.11588415293</ele>
        <time>2020-07-07T18:59:31.000Z</time>
      </trkpt>
      <trkpt lat="43.64824" lon="3.77751">
        <ele>113.3156844166</ele>
        <time>2020-07-07T18:59:33.000Z</time>
      </trkpt>
      <trkpt lat="43.64825" lon="3.77755">
        <ele>113.51548468027</ele>
        <time>2020-07-07T18:59:35.000Z</time>
      </trkpt>
      <trkpt lat="43.64828" lon="3.77756">
        <ele>113.71528494395</ele>
        <time>2020-07-07T18:59:37.000Z</time>
      </trkpt>
      <trkpt lat="43.6483" lon="3.77757">
        <ele>113.81518507578</ele>
        <time>2020-07-07T18:59:38.000Z</time>
      </trkpt>
      <trkpt lat="43.64832" lon="3.77759">
        <ele>113.91508520762</ele>
        <time>2020-07-07T18:59:39.000Z</time>
      </trkpt>
      <trkpt lat="43.64833" lon="3.7776">
        <ele>114.01501533053</ele>
        <time>2020-07-07T18:59:40.000Z</time>
      </trkpt>
      <trkpt lat="43.64835" lon="3.77762">
        <ele>114.11511539856</ele>
        <time>2020-07-07T18:59:41.000Z</time>
      </trkpt>
      <trkpt lat="43.64836" lon="3.77764">
        <ele>114.2152154666</ele>
        <time>2020-07-07T18:59:42.000Z</time>
      </trkpt>
      <trkpt lat="43.64837" lon="3.77767">
        <ele>114.31531553463</ele>
        <time>2020-07-07T18:59:43.000Z</time>
      </trkpt>
      <trkpt lat="43.64837" lon="3.77769">
        <ele>114.41541560267</ele>
        <time>2020-07-07T18:59:44.000Z</time>
      </trkpt>
      <trkpt lat="43.64838" lon="3.77772">
        <ele>114.51551567071</ele>
        <time>2020-07-07T18:59:45.000Z</time>
      </trkpt>
      <trkpt lat="43.64839" lon="3.77776">
        <ele>114.71571580678</ele>
        <time>2020-07-07T18:59:47.000Z</time>
      </trkpt>
      <trkpt lat="43.6484" lon="3.7778">
        <ele>114.91591594285</ele>
        <time>2020-07-07T18:59:49.000Z</time>
      </trkpt>
      <trkpt lat="43.64841" lon="3.77784">
        <ele>115.232</ele>
        <time>2020-07-07T18:59:51.000Z</time>
      </trkpt>
      <trkpt lat="43.64842" lon="3.77787">
        <ele>115.632</ele>
        <time>2020-07-07T18:59:53.000Z</time>
      </trkpt>
      <trkpt lat="43.64843" lon="3.77791">
        <ele>116.032</ele>
        <time>2020-07-07T18:59:55.000Z</time>
      </trkpt>
      <trkpt lat="43.64844" lon="3.77794">
        <ele>116.432</ele>
        <time>2020-07-07T18:59:57.000Z</time>
      </trkpt>
      <trkpt lat="43.64845" lon="3.77797">
        <ele>116.832</ele>
        <time>2020-07-07T18:59:59.000Z</time>
      </trkpt>
      <trkpt lat="43.64846" lon="3.77799">
        <ele>116.884</ele>
        <time>2020-07-07T19:00:01.000Z</time>
      </trkpt>
      <trkpt lat="43.64847" lon="3.77803">
        <ele>116.684</ele>
        <time>2020-07-07T19:00:03.000Z</time>
      </trkpt>
      <trkpt lat="43.64848" lon="3.77806">
        <ele>116.584</ele>
        <time>2020-07-07T19:00:04.000Z</time>
      </trkpt>
      <trkpt lat="43.64849" lon="3.77809">
        <ele>116.484</ele>
        <time>2020-07-07T19:00:05.000Z</time>
      </trkpt>
      <trkpt lat="43.6485" lon="3.77812">
        <ele>116.384</ele>
        <time>2020-07-07T19:00:06.000Z</time>
      </trkpt>
      <trkpt lat="43.64851" lon="3.77815">
        <ele>116.284</ele>
        <time>2020-07-07T19:00:07.000Z</time>
      </trkpt>
      <trkpt lat="43.64852" lon="3.77819">
        <ele>116.184</ele>
        <time>2020-07-07T19:00:08.000Z</time>
      </trkpt>
      <trkpt lat="43.64852" lon="3.77823">
        <ele>116.084</ele>
        <time>2020-07-07T19:00:09.000Z</time>
      </trkpt>
      <trkpt lat="43.64853" lon="3.77828">
        <ele>115.968</ele>
        <time>2020-07-07T19:00:10.000Z</time>
      </trkpt>
      <trkpt lat="43.64854" lon="3.77832">
        <ele>115.768</ele>
        <time>2020-07-07T19:00:11.000Z</time>
      </trkpt>
      <trkpt lat="43.64855" lon="3.77838">
        <ele>115.568</ele>
        <time>2020-07-07T19:00:12.000Z</time>
      </trkpt>
      <trkpt lat="43.64856" lon="3.77843">
        <ele>115.368</ele>
        <time>2020-07-07T19:00:13.000Z</time>
      </trkpt>
      <trkpt lat="43.64857" lon="3.77849">
        <ele>115.168</ele>
        <time>2020-07-07T19:00:14.000Z</time>
      </trkpt>
      <trkpt lat="43.64858" lon="3.77855">
        <ele>114.968</ele>
        <time>2020-07-07T19:00:15.000Z</time>
      </trkpt>
      <trkpt lat="43.6486" lon="3.77862">
        <ele>114.768</ele>
        <time>2020-07-07T19:00:16.000Z</time>
      </trkpt>
      <trkpt lat="43.64861" lon="3.77868">
        <ele>114.568</ele>
        <time>2020-07-07T19:00:17.000Z</time>
      </trkpt>
      <trkpt lat="43.64864" lon="3.77875">
        <ele>114.368</ele>
        <time>2020-07-07T19:00:18.000Z</time>
      </trkpt>
      <trkpt lat="43.64867" lon="3.77881">
        <ele>114.168</ele>
        <time>2020-07-07T19:00:19.000Z</time>
      </trkpt>
      <trkpt lat="43.6487" lon="3.77888">
        <ele>113.936</ele>
        <time>2020-07-07T19:00:20.000Z</time>
      </trkpt>
      <trkpt lat="43.64873" lon="3.77895">
        <ele>113.536</ele>
        <time>2020-07-07T19:00:21.000Z</time>
      </trkpt>
      <trkpt lat="43.64876" lon="3.77903">
        <ele>113.136</ele>
        <time>2020-07-07T19:00:22.000Z</time>
      </trkpt>
      <trkpt lat="43.64879" lon="3.77911">
        <ele>112.736</ele>
        <time>2020-07-07T19:00:23.000Z</time>
      </trkpt>
      <trkpt lat="43.64882" lon="3.77919">
        <ele>112.336</ele>
        <time>2020-07-07T19:00:24.000Z</time>
      </trkpt>
      <trkpt lat="43.64884" lon="3.77929">
        <ele>111.936</ele>
        <time>2020-07-07T19:00:25.000Z</time>
      </trkpt>
      <trkpt lat="43.64886" lon="3.77938">
        <ele>111.536</ele>
        <time>2020-07-07T19:00:26.000Z</time>
      </trkpt>
      <trkpt lat="43.64888" lon="3.77948">
        <ele>111.136</ele>
        <time>2020-07-07T19:00:27.000Z</time>
      </trkpt>
      <trkpt lat="43.6489" lon="3.77958">
        <ele>110.736</ele>
        <time>2020-07-07T19:00:28.000Z</time>
      </trkpt>
      <trkpt lat="43.64893" lon="3.77968">
        <ele>110.336</ele>
        <time>2020-07-07T19:00:29.000Z</time>
      </trkpt>
      <trkpt lat="43.64895" lon="3.77979">
        <ele>109.952</ele>
        <time>2020-07-07T19:00:30.000Z</time>
      </trkpt>
      <trkpt lat="43.64898" lon="3.77989">
        <ele>109.652</ele>
        <time>2020-07-07T19:00:31.000Z</time>
      </trkpt>
      <trkpt lat="43.64901" lon="3.77999">
        <ele>109.352</ele>
        <time>2020-07-07T19:00:32.000Z</time>
      </trkpt>
      <trkpt lat="43.64903" lon="3.7801">
        <ele>109.052</ele>
        <time>2020-07-07T19:00:33.000Z</time>
      </trkpt>
      <trkpt lat="43.64906" lon="3.7802">
        <ele>108.752</ele>
        <time>2020-07-07T19:00:34.000Z</time>
      </trkpt>
      <trkpt lat="43.64909" lon="3.78029">
        <ele>108.452</ele>
        <time>2020-07-07T19:00:35.000Z</time>
      </trkpt>
      <trkpt lat="43.64912" lon="3.78039">
        <ele>108.152</ele>
        <time>2020-07-07T19:00:36.000Z</time>
      </trkpt>
      <trkpt lat="43.64915" lon="3.78048">
        <ele>107.852</ele>
        <time>2020-07-07T19:00:37.000Z</time>
      </trkpt>
      <trkpt lat="43.64917" lon="3.78056">
        <ele>107.552</ele>
        <time>2020-07-07T19:00:38.000Z</time>
      </trkpt>
      <trkpt lat="43.64919" lon="3.78065">
        <ele>107.252</ele>
        <time>2020-07-07T19:00:39.000Z</time>
      </trkpt>
      <trkpt lat="43.64921" lon="3.78073">
        <ele>106.984</ele>
        <time>2020-07-07T19:00:40.000Z</time>
      </trkpt>
      <trkpt lat="43.64922" lon="3.78081">
        <ele>106.884</ele>
        <time>2020-07-07T19:00:41.000Z</time>
      </trkpt>
      <trkpt lat="43.64924" lon="3.78088">
        <ele>106.784</ele>
        <time>2020-07-07T19:00:42.000Z</time>
      </trkpt>
      <trkpt lat="43.64926" lon="3.78095">
        <ele>106.684</ele>
        <time>2020-07-07T19:00:43.000Z</time>
      </trkpt>
      <trkpt lat="43.64928" lon="3.78102">
        <ele>106.584</ele>
        <time>2020-07-07T19:00:44.000Z</time>
      </trkpt>
      <trkpt lat="43.64929" lon="3.78109">
        <ele>106.484</ele>
        <time>2020-07-07T19:00:45.000Z</time>
      </trkpt>
      <trkpt lat="43.64931" lon="3.78115">
        <ele>106.384</ele>
        <time>2020-07-07T19:00:46.000Z</time>
      </trkpt>
      <trkpt lat="43.64932" lon="3.78122">
        <ele>106.284</ele>
        <time>2020-07-07T19:00:47.000Z</time>
      </trkpt>
      <trkpt lat="43.64933" lon="3.78128">
        <ele>106.184</ele>
        <time>2020-07-07T19:00:48.000Z</time>
      </trkpt>
      <trkpt lat="43.64935" lon="3.78133">
        <ele>106.084</ele>
        <time>2020-07-07T19:00:49.000Z</time>
      </trkpt>
      <trkpt lat="43.64937" lon="3.78137">
        <ele>105.952</ele>
        <time>2020-07-07T19:00:50.000Z</time>
      </trkpt>
      <trkpt lat="43.64939" lon="3.78142">
        <ele>105.652</ele>
        <time>2020-07-07T19:00:51.000Z</time>
      </trkpt>
      <trkpt lat="43.64941" lon="3.78147">
        <ele>105.352</ele>
        <time>2020-07-07T19:00:52.000Z</time>
      </trkpt>
      <trkpt lat="43.64943" lon="3.78153">
        <ele>105.052</ele>
        <time>2020-07-07T19:00:53.000Z</time>
      </trkpt>
      <trkpt lat="43.64946" lon="3.78159">
        <ele>104.752</ele>
        <time>2020-07-07T19:00:54.000Z</time>
      </trkpt>
      <trkpt lat="43.64949" lon="3.78166">
        <ele>104.452</ele>
        <time>2020-07-07T19:00:55.000Z</time>
      </trkpt>
      <trkpt lat="43.64953" lon="3.78173">
        <ele>104.152</ele>
        <time>2020-07-07T19:00:56.000Z</time>
      </trkpt>
      <trkpt lat="43.64956" lon="3.78182">
        <ele>103.852</ele>
        <time>2020-07-07T19:00:57.000Z</time>
      </trkpt>
      <trkpt lat="43.6496" lon="3.78191">
        <ele>103.552</ele>
        <time>2020-07-07T19:00:58.000Z</time>
      </trkpt>
      <trkpt lat="43.64964" lon="3.78201">
        <ele>103.252</ele>
        <time>2020-07-07T19:00:59.000Z</time>
      </trkpt>
      <trkpt lat="43.64968" lon="3.7821">
        <ele>102.952</ele>
        <time>2020-07-07T19:01:00.000Z</time>
      </trkpt>
      <trkpt lat="43.64971" lon="3.78218">
        <ele>102.652</ele>
        <time>2020-07-07T19:01:01.000Z</time>
      </trkpt>
      <trkpt lat="43.64975" lon="3.78226">
        <ele>102.352</ele>
        <time>2020-07-07T19:01:02.000Z</time>
      </trkpt>
      <trkpt lat="43.6498" lon="3.78234">
        <ele>102.052</ele>
        <time>2020-07-07T19:01:03.000Z</time>
      </trkpt>
      <trkpt lat="43.64984" lon="3.78242">
        <ele>101.752</ele>
        <time>2020-07-07T19:01:04.000Z</time>
      </trkpt>
      <trkpt lat="43.64988" lon="3.7825">
        <ele>101.452</ele>
        <time>2020-07-07T19:01:05.000Z</time>
      </trkpt>
      <trkpt lat="43.64991" lon="3.78256">
        <ele>101.152</ele>
        <time>2020-07-07T19:01:06.000Z</time>
      </trkpt>
      <trkpt lat="43.64994" lon="3.78262">
        <ele>100.852</ele>
        <time>2020-07-07T19:01:07.000Z</time>
      </trkpt>
      <trkpt lat="43.64996" lon="3.78266">
        <ele>100.552</ele>
        <time>2020-07-07T19:01:08.000Z</time>
      </trkpt>
      <trkpt lat="43.64999" lon="3.7827">
        <ele>100.252</ele>
        <time>2020-07-07T19:01:09.000Z</time>
      </trkpt>
      <trkpt lat="43.65" lon="3.78272">
        <ele>99.984435797665</ele>
        <time>2020-07-07T19:01:10.000Z</time>
      </trkpt>
      <trkpt lat="43.65003" lon="3.78274">
        <ele>99.887159533074</ele>
        <time>2020-07-07T19:01:11.000Z</time>
      </trkpt>
      <trkpt lat="43.65005" lon="3.78276">
        <ele>99.789883268482</ele>
        <time>2020-07-07T19:01:12.000Z</time>
      </trkpt>
      <trkpt lat="43.65006" lon="3.78278">
        <ele>99.692607003891</ele>
        <time>2020-07-07T19:01:13.000Z</time>
      </trkpt>
      <trkpt lat="43.65007" lon="3.7828">
        <ele>99.5953307393</ele>
        <time>2020-07-07T19:01:14.000Z</time>
      </trkpt>
      <trkpt lat="43.65008" lon="3.78283">
        <ele>99.498054474708</ele>
        <time>2020-07-07T19:01:15.000Z</time>
      </trkpt>
      <trkpt lat="43.65009" lon="3.78286">
        <ele>99.400778210117</ele>
        <time>2020-07-07T19:01:16.000Z</time>
      </trkpt>
      <trkpt lat="43.6501" lon="3.7829">
        <ele>99.303501945525</ele>
        <time>2020-07-07T19:01:17.000Z</time>
      </trkpt>
      <trkpt lat="43.65011" lon="3.78292">
        <ele>99.206225680934</ele>
        <time>2020-07-07T19:01:18.000Z</time>
      </trkpt>
      <trkpt lat="43.65012" lon="3.78298">
        <ele>99.011673151751</ele>
        <time>2020-07-07T19:01:20.000Z</time>
      </trkpt>
      <trkpt lat="43.65014" lon="3.78303">
        <ele>98.728395061728</ele>
        <time>2020-07-07T19:01:21.000Z</time>
      </trkpt>
      <trkpt lat="43.65017" lon="3.78309">
        <ele>98.41975308642</ele>
        <time>2020-07-07T19:01:22.000Z</time>
      </trkpt>
      <trkpt lat="43.65021" lon="3.78314">
        <ele>98.111111111111</ele>
        <time>2020-07-07T19:01:23.000Z</time>
      </trkpt>
      <trkpt lat="43.65026" lon="3.78319">
        <ele>97.802469135802</ele>
        <time>2020-07-07T19:01:24.000Z</time>
      </trkpt>
      <trkpt lat="43.6503" lon="3.78325">
        <ele>97.493827160494</ele>
        <time>2020-07-07T19:01:25.000Z</time>
      </trkpt>
      <trkpt lat="43.65033" lon="3.78331">
        <ele>97.185185185185</ele>
        <time>2020-07-07T19:01:26.000Z</time>
      </trkpt>
      <trkpt lat="43.65038" lon="3.78338">
        <ele>96.876543209877</ele>
        <time>2020-07-07T19:01:27.000Z</time>
      </trkpt>
      <trkpt lat="43.65042" lon="3.78344">
        <ele>96.567901234568</ele>
        <time>2020-07-07T19:01:28.000Z</time>
      </trkpt>
      <trkpt lat="43.65046" lon="3.78351">
        <ele>96.259259259259</ele>
        <time>2020-07-07T19:01:29.000Z</time>
      </trkpt>
      <trkpt lat="43.6505" lon="3.78359">
        <ele>95.92</ele>
        <time>2020-07-07T19:01:30.000Z</time>
      </trkpt>
      <trkpt lat="43.65054" lon="3.78367">
        <ele>95.42</ele>
        <time>2020-07-07T19:01:31.000Z</time>
      </trkpt>
      <trkpt lat="43.65058" lon="3.78375">
        <ele>94.92</ele>
        <time>2020-07-07T19:01:32.000Z</time>
      </trkpt>
      <trkpt lat="43.65061" lon="3.78383">
        <ele>94.42</ele>
        <time>2020-07-07T19:01:33.000Z</time>
      </trkpt>
      <trkpt lat="43.65065" lon="3.78392">
        <ele>93.92</ele>
        <time>2020-07-07T19:01:34.000Z</time>
      </trkpt>
      <trkpt lat="43.65069" lon="3.784">
        <ele>93.42</ele>
        <time>2020-07-07T19:01:35.000Z</time>
      </trkpt>
      <trkpt lat="43.65072" lon="3.78408">
        <ele>92.92</ele>
        <time>2020-07-07T19:01:36.000Z</time>
      </trkpt>
      <trkpt lat="43.65076" lon="3.78415">
        <ele>92.42</ele>
        <time>2020-07-07T19:01:37.000Z</time>
      </trkpt>
      <trkpt lat="43.6508" lon="3.78423">
        <ele>91.92</ele>
        <time>2020-07-07T19:01:38.000Z</time>
      </trkpt>
      <trkpt lat="43.65083" lon="3.7843">
        <ele>91.42</ele>
        <time>2020-07-07T19:01:39.000Z</time>
      </trkpt>
      <trkpt lat="43.65087" lon="3.78438">
        <ele>90.952333679497</ele>
        <time>2020-07-07T19:01:40.000Z</time>
      </trkpt>
      <trkpt lat="43.65091" lon="3.78444">
        <ele>90.654419176351</ele>
        <time>2020-07-07T19:01:41.000Z</time>
      </trkpt>
      <trkpt lat="43.65097" lon="3.78448">
        <ele>90.356504673206</ele>
        <time>2020-07-07T19:01:42.000Z</time>
      </trkpt>
      <trkpt lat="43.65102" lon="3.78451">
        <ele>90.058590170061</ele>
        <time>2020-07-07T19:01:43.000Z</time>
      </trkpt>
      <trkpt lat="43.65109" lon="3.78453">
        <ele>89.760675666915</ele>
        <time>2020-07-07T19:01:44.000Z</time>
      </trkpt>
      <trkpt lat="43.65115" lon="3.78455">
        <ele>89.46276116377</ele>
        <time>2020-07-07T19:01:45.000Z</time>
      </trkpt>
      <trkpt lat="43.6512" lon="3.7846">
        <ele>89.164846660625</ele>
        <time>2020-07-07T19:01:46.000Z</time>
      </trkpt>
      <trkpt lat="43.65124" lon="3.78467">
        <ele>88.866932157479</ele>
        <time>2020-07-07T19:01:47.000Z</time>
      </trkpt>
      <trkpt lat="43.65126" lon="3.78475">
        <ele>88.569017654334</ele>
        <time>2020-07-07T19:01:48.000Z</time>
      </trkpt>
      <trkpt lat="43.65127" lon="3.78485">
        <ele>88.271103151189</ele>
        <time>2020-07-07T19:01:49.000Z</time>
      </trkpt>
      <trkpt lat="43.65127" lon="3.78495">
        <ele>87.972810625679</ele>
        <time>2020-07-07T19:01:50.000Z</time>
      </trkpt>
      <trkpt lat="43.65128" lon="3.78505">
        <ele>87.670695724696</ele>
        <time>2020-07-07T19:01:51.000Z</time>
      </trkpt>
      <trkpt lat="43.6513" lon="3.78525">
        <ele>87.066465922728</ele>
        <time>2020-07-07T19:01:53.000Z</time>
      </trkpt>
      <trkpt lat="43.65134" lon="3.78535">
        <ele>86.764351021745</ele>
        <time>2020-07-07T19:01:54.000Z</time>
      </trkpt>
      <trkpt lat="43.65137" lon="3.78544">
        <ele>86.462236120761</ele>
        <time>2020-07-07T19:01:55.000Z</time>
      </trkpt>
      <trkpt lat="43.65139" lon="3.78553">
        <ele>86.160121219777</ele>
        <time>2020-07-07T19:01:56.000Z</time>
      </trkpt>
      <trkpt lat="43.65142" lon="3.78562">
        <ele>85.858006318794</ele>
        <time>2020-07-07T19:01:57.000Z</time>
      </trkpt>
      <trkpt lat="43.65142" lon="3.78571">
        <ele>85.55589141781</ele>
        <time>2020-07-07T19:01:58.000Z</time>
      </trkpt>
      <trkpt lat="43.65143" lon="3.78579">
        <ele>85.253776516826</ele>
        <time>2020-07-07T19:01:59.000Z</time>
      </trkpt>
      <trkpt lat="43.65142" lon="3.78585">
        <ele>84.984</ele>
        <time>2020-07-07T19:02:00.000Z</time>
      </trkpt>
      <trkpt lat="43.65142" lon="3.78589">
        <ele>84.884</ele>
        <time>2020-07-07T19:02:01.000Z</time>
      </trkpt>
      <trkpt lat="43.65141" lon="3.78592">
        <ele>84.784</ele>
        <time>2020-07-07T19:02:02.000Z</time>
      </trkpt>
      <trkpt lat="43.6514" lon="3.78595">
        <ele>84.684</ele>
        <time>2020-07-07T19:02:03.000Z</time>
      </trkpt>
      <trkpt lat="43.6514" lon="3.78598">
        <ele>84.584</ele>
        <time>2020-07-07T19:02:04.000Z</time>
      </trkpt>
      <trkpt lat="43.6514" lon="3.78602">
        <ele>84.484</ele>
        <time>2020-07-07T19:02:05.000Z</time>
      </trkpt>
      <trkpt lat="43.6514" lon="3.78606">
        <ele>84.384</ele>
        <time>2020-07-07T19:02:06.000Z</time>
      </trkpt>
      <trkpt lat="43.6514" lon="3.78611">
        <ele>84.284</ele>
        <time>2020-07-07T19:02:07.000Z</time>
      </trkpt>
      <trkpt lat="43.65139" lon="3.78615">
        <ele>84.184</ele>
        <time>2020-07-07T19:02:08.000Z</time>
      </trkpt>
      <trkpt lat="43.65139" lon="3.78619">
        <ele>84.084</ele>
        <time>2020-07-07T19:02:09.000Z</time>
      </trkpt>
      <trkpt lat="43.65139" lon="3.78623">
        <ele>83.968</ele>
        <time>2020-07-07T19:02:10.000Z</time>
      </trkpt>
      <trkpt lat="43.65138" lon="3.78627">
        <ele>83.768</ele>
        <time>2020-07-07T19:02:11.000Z</time>
      </trkpt>
      <trkpt lat="43.65138" lon="3.78632">
        <ele>83.568</ele>
        <time>2020-07-07T19:02:12.000Z</time>
      </trkpt>
      <trkpt lat="43.65137" lon="3.78636">
        <ele>83.368</ele>
        <time>2020-07-07T19:02:13.000Z</time>
      </trkpt>
      <trkpt lat="43.65137" lon="3.78641">
        <ele>83.168</ele>
        <time>2020-07-07T19:02:14.000Z</time>
      </trkpt>
      <trkpt lat="43.65137" lon="3.78646">
        <ele>82.968</ele>
        <time>2020-07-07T19:02:15.000Z</time>
      </trkpt>
      <trkpt lat="43.65137" lon="3.78651">
        <ele>82.768</ele>
        <time>2020-07-07T19:02:16.000Z</time>
      </trkpt>
      <trkpt lat="43.65138" lon="3.78657">
        <ele>82.568</ele>
        <time>2020-07-07T19:02:17.000Z</time>
      </trkpt>
      <trkpt lat="43.65138" lon="3.78664">
        <ele>82.368</ele>
        <time>2020-07-07T19:02:18.000Z</time>
      </trkpt>
      <trkpt lat="43.65137" lon="3.78672">
        <ele>82.168</ele>
        <time>2020-07-07T19:02:19.000Z</time>
      </trkpt>
      <trkpt lat="43.65137" lon="3.7868">
        <ele>81.924741320868</ele>
        <time>2020-07-07T19:02:20.000Z</time>
      </trkpt>
      <trkpt lat="43.65137" lon="3.78688">
        <ele>81.454374576294</ele>
        <time>2020-07-07T19:02:21.000Z</time>
      </trkpt>
      <trkpt lat="43.65137" lon="3.78697">
        <ele>80.984007831719</ele>
        <time>2020-07-07T19:02:22.000Z</time>
      </trkpt>
      <trkpt lat="43.65138" lon="3.78706">
        <ele>80.513641087145</ele>
        <time>2020-07-07T19:02:23.000Z</time>
      </trkpt>
      <trkpt lat="43.6514" lon="3.78715">
        <ele>80.04327434257</ele>
        <time>2020-07-07T19:02:24.000Z</time>
      </trkpt>
      <trkpt lat="43.65142" lon="3.78725">
        <ele>79.572907597996</ele>
        <time>2020-07-07T19:02:25.000Z</time>
      </trkpt>
      <trkpt lat="43.65143" lon="3.78735">
        <ele>79.102540853421</ele>
        <time>2020-07-07T19:02:26.000Z</time>
      </trkpt>
      <trkpt lat="43.65141" lon="3.78746">
        <ele>78.632174108847</ele>
        <time>2020-07-07T19:02:27.000Z</time>
      </trkpt>
      <trkpt lat="43.6514" lon="3.78757">
        <ele>78.161807364273</ele>
        <time>2020-07-07T19:02:28.000Z</time>
      </trkpt>
      <trkpt lat="43.6514" lon="3.78768">
        <ele>77.691440619698</ele>
        <time>2020-07-07T19:02:29.000Z</time>
      </trkpt>
      <trkpt lat="43.65142" lon="3.78779">
        <ele>77.221073875124</ele>
        <time>2020-07-07T19:02:30.000Z</time>
      </trkpt>
      <trkpt lat="43.65144" lon="3.78788">
        <ele>76.762931034483</ele>
        <time>2020-07-07T19:02:31.000Z</time>
      </trkpt>
      <trkpt lat="43.65145" lon="3.78795">
        <ele>76.224137931035</ele>
        <time>2020-07-07T19:02:32.000Z</time>
      </trkpt>
      <trkpt lat="43.65146" lon="3.788">
        <ele>75.685344827586</ele>
        <time>2020-07-07T19:02:33.000Z</time>
      </trkpt>
      <trkpt lat="43.65147" lon="3.78805">
        <ele>75.146551724138</ele>
        <time>2020-07-07T19:02:34.000Z</time>
      </trkpt>
      <trkpt lat="43.65148" lon="3.78809">
        <ele>74.60775862069</ele>
        <time>2020-07-07T19:02:35.000Z</time>
      </trkpt>
      <trkpt lat="43.65148" lon="3.78811">
        <ele>74.068965517241</ele>
        <time>2020-07-07T19:02:36.000Z</time>
      </trkpt>
      <trkpt lat="43.65148" lon="3.78814">
        <ele>73.530172413793</ele>
        <time>2020-07-07T19:02:37.000Z</time>
      </trkpt>
      <trkpt lat="43.65148" lon="3.78817">
        <ele>72.991379310345</ele>
        <time>2020-07-07T19:02:38.000Z</time>
      </trkpt>
      <trkpt lat="43.65148" lon="3.78822">
        <ele>72.452586206897</ele>
        <time>2020-07-07T19:02:39.000Z</time>
      </trkpt>
      <trkpt lat="43.65148" lon="3.78827">
        <ele>71.968253968254</ele>
        <time>2020-07-07T19:02:40.000Z</time>
      </trkpt>
      <trkpt lat="43.65149" lon="3.78832">
        <ele>71.769841269841</ele>
        <time>2020-07-07T19:02:41.000Z</time>
      </trkpt>
      <trkpt lat="43.6515" lon="3.78838">
        <ele>71.571428571429</ele>
        <time>2020-07-07T19:02:42.000Z</time>
      </trkpt>
      <trkpt lat="43.6515" lon="3.78843">
        <ele>71.373015873016</ele>
        <time>2020-07-07T19:02:43.000Z</time>
      </trkpt>
      <trkpt lat="43.6515" lon="3.78849">
        <ele>71.174603174603</ele>
        <time>2020-07-07T19:02:44.000Z</time>
      </trkpt>
      <trkpt lat="43.65148" lon="3.78856">
        <ele>70.97619047619</ele>
        <time>2020-07-07T19:02:45.000Z</time>
      </trkpt>
      <trkpt lat="43.65146" lon="3.78862">
        <ele>70.777777777778</ele>
        <time>2020-07-07T19:02:46.000Z</time>
      </trkpt>
      <trkpt lat="43.65143" lon="3.78866">
        <ele>70.579365079365</ele>
        <time>2020-07-07T19:02:47.000Z</time>
      </trkpt>
      <trkpt lat="43.65138" lon="3.78871">
        <ele>70.380952380952</ele>
        <time>2020-07-07T19:02:48.000Z</time>
      </trkpt>
      <trkpt lat="43.65133" lon="3.78876">
        <ele>70.18253968254</ele>
        <time>2020-07-07T19:02:49.000Z</time>
      </trkpt>
      <trkpt lat="43.65128" lon="3.7888">
        <ele>69.983870967742</ele>
        <time>2020-07-07T19:02:50.000Z</time>
      </trkpt>
      <trkpt lat="43.65122" lon="3.78884">
        <ele>69.782258064516</ele>
        <time>2020-07-07T19:02:51.000Z</time>
      </trkpt>
      <trkpt lat="43.65116" lon="3.78888">
        <ele>69.58064516129</ele>
        <time>2020-07-07T19:02:52.000Z</time>
      </trkpt>
      <trkpt lat="43.65111" lon="3.78891">
        <ele>69.379032258064</ele>
        <time>2020-07-07T19:02:53.000Z</time>
      </trkpt>
      <trkpt lat="43.65106" lon="3.78895">
        <ele>69.177419354839</ele>
        <time>2020-07-07T19:02:54.000Z</time>
      </trkpt>
      <trkpt lat="43.65102" lon="3.789">
        <ele>68.975806451613</ele>
        <time>2020-07-07T19:02:55.000Z</time>
      </trkpt>
      <trkpt lat="43.65099" lon="3.78904">
        <ele>68.774193548387</ele>
        <time>2020-07-07T19:02:56.000Z</time>
      </trkpt>
      <trkpt lat="43.65095" lon="3.78909">
        <ele>68.572580645161</ele>
        <time>2020-07-07T19:02:57.000Z</time>
      </trkpt>
      <trkpt lat="43.65092" lon="3.78913">
        <ele>68.370967741936</ele>
        <time>2020-07-07T19:02:58.000Z</time>
      </trkpt>
      <trkpt lat="43.6509" lon="3.78918">
        <ele>68.16935483871</ele>
        <time>2020-07-07T19:02:59.000Z</time>
      </trkpt>
      <trkpt lat="43.65088" lon="3.78923">
        <ele>67.968</ele>
        <time>2020-07-07T19:03:00.000Z</time>
      </trkpt>
      <trkpt lat="43.65088" lon="3.78929">
        <ele>67.768</ele>
        <time>2020-07-07T19:03:01.000Z</time>
      </trkpt>
      <trkpt lat="43.65086" lon="3.78935">
        <ele>67.568</ele>
        <time>2020-07-07T19:03:02.000Z</time>
      </trkpt>
      <trkpt lat="43.65083" lon="3.78938">
        <ele>67.368</ele>
        <time>2020-07-07T19:03:03.000Z</time>
      </trkpt>
      <trkpt lat="43.6508" lon="3.78941">
        <ele>67.168</ele>
        <time>2020-07-07T19:03:04.000Z</time>
      </trkpt>
      <trkpt lat="43.65078" lon="3.78944">
        <ele>66.968</ele>
        <time>2020-07-07T19:03:05.000Z</time>
      </trkpt>
      <trkpt lat="43.65075" lon="3.78948">
        <ele>66.768</ele>
        <time>2020-07-07T19:03:06.000Z</time>
      </trkpt>
      <trkpt lat="43.65071" lon="3.78952">
        <ele>66.568</ele>
        <time>2020-07-07T19:03:07.000Z</time>
      </trkpt>
      <trkpt lat="43.65068" lon="3.78956">
        <ele>66.368</ele>
        <time>2020-07-07T19:03:08.000Z</time>
      </trkpt>
      <trkpt lat="43.65065" lon="3.78959">
        <ele>66.168</ele>
        <time>2020-07-07T19:03:09.000Z</time>
      </trkpt>
      <trkpt lat="43.65062" lon="3.78962">
        <ele>66</ele>
        <time>2020-07-07T19:03:10.000Z</time>
      </trkpt>
      <trkpt lat="43.65059" lon="3.78966">
        <ele>66</ele>
        <time>2020-07-07T19:03:11.000Z</time>
      </trkpt>
      <trkpt lat="43.65055" lon="3.78969">
        <ele>66</ele>
        <time>2020-07-07T19:03:12.000Z</time>
      </trkpt>
      <trkpt lat="43.65053" lon="3.78973">
        <ele>66</ele>
        <time>2020-07-07T19:03:13.000Z</time>
      </trkpt>
      <trkpt lat="43.6505" lon="3.78976">
        <ele>66</ele>
        <time>2020-07-07T19:03:14.000Z</time>
      </trkpt>
      <trkpt lat="43.65047" lon="3.78977">
        <ele>66</ele>
        <time>2020-07-07T19:03:15.000Z</time>
      </trkpt>
      <trkpt lat="43.65043" lon="3.78979">
        <ele>66</ele>
        <time>2020-07-07T19:03:16.000Z</time>
      </trkpt>
      <trkpt lat="43.65039" lon="3.78981">
        <ele>66</ele>
        <time>2020-07-07T19:03:17.000Z</time>
      </trkpt>
      <trkpt lat="43.65036" lon="3.78983">
        <ele>66</ele>
        <time>2020-07-07T19:03:18.000Z</time>
      </trkpt>
      <trkpt lat="43.65032" lon="3.78985">
        <ele>66</ele>
        <time>2020-07-07T19:03:19.000Z</time>
      </trkpt>
      <trkpt lat="43.65028" lon="3.78987">
        <ele>66</ele>
        <time>2020-07-07T19:03:20.000Z</time>
      </trkpt>
      <trkpt lat="43.65025" lon="3.78988">
        <ele>65.906666369094</ele>
        <time>2020-07-07T19:03:21.000Z</time>
      </trkpt>
      <trkpt lat="43.65022" lon="3.7899">
        <ele>65.804102300192</ele>
        <time>2020-07-07T19:03:22.000Z</time>
      </trkpt>
      <trkpt lat="43.65018" lon="3.78992">
        <ele>65.70153823129</ele>
        <time>2020-07-07T19:03:23.000Z</time>
      </trkpt>
      <trkpt lat="43.65015" lon="3.78994">
        <ele>65.598974162388</ele>
        <time>2020-07-07T19:03:24.000Z</time>
      </trkpt>
      <trkpt lat="43.65004" lon="3.79001">
        <ele>65.291281955682</ele>
        <time>2020-07-07T19:03:27.000Z</time>
      </trkpt>
      <trkpt lat="43.65" lon="3.79004">
        <ele>65.18871788678</ele>
        <time>2020-07-07T19:03:28.000Z</time>
      </trkpt>
      <trkpt lat="43.64996" lon="3.79006">
        <ele>65.086153817878</ele>
        <time>2020-07-07T19:03:29.000Z</time>
      </trkpt>
      <trkpt lat="43.64992" lon="3.79008">
        <ele>65</ele>
        <time>2020-07-07T19:03:30.000Z</time>
      </trkpt>
      <trkpt lat="43.64988" lon="3.79009">
        <ele>65</ele>
        <time>2020-07-07T19:03:31.000Z</time>
      </trkpt>
      <trkpt lat="43.64984" lon="3.79008">
        <ele>65</ele>
        <time>2020-07-07T19:03:32.000Z</time>
      </trkpt>
      <trkpt lat="43.64982" lon="3.79007">
        <ele>65</ele>
        <time>2020-07-07T19:03:33.000Z</time>
      </trkpt>
      <trkpt lat="43.6498" lon="3.79007">
        <ele>65</ele>
        <time>2020-07-07T19:03:34.000Z</time>
      </trkpt>
      <trkpt lat="43.64978" lon="3.79008">
        <ele>65</ele>
        <time>2020-07-07T19:03:36.000Z</time>
      </trkpt>
      <trkpt lat="43.64976" lon="3.79007">
        <ele>65</ele>
        <time>2020-07-07T19:03:38.000Z</time>
      </trkpt>
      <trkpt lat="43.64974" lon="3.79006">
        <ele>65</ele>
        <time>2020-07-07T19:03:40.000Z</time>
      </trkpt>
      <trkpt lat="43.6497" lon="3.79003">
        <ele>65</ele>
        <time>2020-07-07T19:03:42.000Z</time>
      </trkpt>
      <trkpt lat="43.64967" lon="3.79002">
        <ele>65</ele>
        <time>2020-07-07T19:03:43.000Z</time>
      </trkpt>
      <trkpt lat="43.64965" lon="3.79001">
        <ele>65</ele>
        <time>2020-07-07T19:03:44.000Z</time>
      </trkpt>
      <trkpt lat="43.64962" lon="3.79">
        <ele>65</ele>
        <time>2020-07-07T19:03:45.000Z</time>
      </trkpt>
      <trkpt lat="43.6496" lon="3.79001">
        <ele>65</ele>
        <time>2020-07-07T19:03:46.000Z</time>
      </trkpt>
      <trkpt lat="43.64958" lon="3.79001">
        <ele>65</ele>
        <time>2020-07-07T19:03:47.000Z</time>
      </trkpt>
      <trkpt lat="43.64956" lon="3.79001">
        <ele>65</ele>
        <time>2020-07-07T19:03:48.000Z</time>
      </trkpt>
      <trkpt lat="43.64954" lon="3.79001">
        <ele>65</ele>
        <time>2020-07-07T19:03:49.000Z</time>
      </trkpt>
      <trkpt lat="43.64952" lon="3.79002">
        <ele>65</ele>
        <time>2020-07-07T19:03:50.000Z</time>
      </trkpt>
      <trkpt lat="43.6495" lon="3.79005">
        <ele>65</ele>
        <time>2020-07-07T19:03:52.000Z</time>
      </trkpt>
      <trkpt lat="43.64948" lon="3.79008">
        <ele>65</ele>
        <time>2020-07-07T19:03:53.000Z</time>
      </trkpt>
      <trkpt lat="43.64945" lon="3.79011">
        <ele>65</ele>
        <time>2020-07-07T19:03:54.000Z</time>
      </trkpt>
      <trkpt lat="43.64941" lon="3.79014">
        <ele>65</ele>
        <time>2020-07-07T19:03:55.000Z</time>
      </trkpt>
      <trkpt lat="43.64938" lon="3.79017">
        <ele>65</ele>
        <time>2020-07-07T19:03:56.000Z</time>
      </trkpt>
      <trkpt lat="43.64935" lon="3.7902">
        <ele>65</ele>
        <time>2020-07-07T19:03:57.000Z</time>
      </trkpt>
      <trkpt lat="43.64932" lon="3.79022">
        <ele>65</ele>
        <time>2020-07-07T19:03:58.000Z</time>
      </trkpt>
      <trkpt lat="43.64929" lon="3.79025">
        <ele>65</ele>
        <time>2020-07-07T19:03:59.000Z</time>
      </trkpt>
      <trkpt lat="43.64925" lon="3.79028">
        <ele>65.015564202335</ele>
        <time>2020-07-07T19:04:00.000Z</time>
      </trkpt>
      <trkpt lat="43.64922" lon="3.79031">
        <ele>65.112840466926</ele>
        <time>2020-07-07T19:04:01.000Z</time>
      </trkpt>
      <trkpt lat="43.64919" lon="3.79032">
        <ele>65.210116731518</ele>
        <time>2020-07-07T19:04:02.000Z</time>
      </trkpt>
      <trkpt lat="43.64916" lon="3.79034">
        <ele>65.307392996109</ele>
        <time>2020-07-07T19:04:03.000Z</time>
      </trkpt>
      <trkpt lat="43.64913" lon="3.79037">
        <ele>65.4046692607</ele>
        <time>2020-07-07T19:04:04.000Z</time>
      </trkpt>
      <trkpt lat="43.6491" lon="3.79039">
        <ele>65.501945525292</ele>
        <time>2020-07-07T19:04:05.000Z</time>
      </trkpt>
      <trkpt lat="43.64907" lon="3.7904">
        <ele>65.599221789883</ele>
        <time>2020-07-07T19:04:06.000Z</time>
      </trkpt>
      <trkpt lat="43.64904" lon="3.79041">
        <ele>65.696498054475</ele>
        <time>2020-07-07T19:04:07.000Z</time>
      </trkpt>
      <trkpt lat="43.64901" lon="3.79043">
        <ele>65.793774319066</ele>
        <time>2020-07-07T19:04:08.000Z</time>
      </trkpt>
      <trkpt lat="43.64898" lon="3.79044">
        <ele>65.891050583658</ele>
        <time>2020-07-07T19:04:09.000Z</time>
      </trkpt>
      <trkpt lat="43.64895" lon="3.79047">
        <ele>65.988326848249</ele>
        <time>2020-07-07T19:04:10.000Z</time>
      </trkpt>
      <trkpt lat="43.64892" lon="3.79049">
        <ele>66</ele>
        <time>2020-07-07T19:04:11.000Z</time>
      </trkpt>
      <trkpt lat="43.64889" lon="3.79052">
        <ele>66</ele>
        <time>2020-07-07T19:04:12.000Z</time>
      </trkpt>
      <trkpt lat="43.64885" lon="3.79054">
        <ele>66</ele>
        <time>2020-07-07T19:04:13.000Z</time>
      </trkpt>
      <trkpt lat="43.64882" lon="3.79057">
        <ele>66</ele>
        <time>2020-07-07T19:04:14.000Z</time>
      </trkpt>
      <trkpt lat="43.64878" lon="3.7906">
        <ele>66</ele>
        <time>2020-07-07T19:04:15.000Z</time>
      </trkpt>
      <trkpt lat="43.64875" lon="3.79064">
        <ele>66</ele>
        <time>2020-07-07T19:04:16.000Z</time>
      </trkpt>
      <trkpt lat="43.64871" lon="3.79067">
        <ele>66</ele>
        <time>2020-07-07T19:04:17.000Z</time>
      </trkpt>
      <trkpt lat="43.64868" lon="3.79071">
        <ele>66</ele>
        <time>2020-07-07T19:04:18.000Z</time>
      </trkpt>
      <trkpt lat="43.64866" lon="3.79073">
        <ele>66</ele>
        <time>2020-07-07T19:04:19.000Z</time>
      </trkpt>
      <trkpt lat="43.64863" lon="3.79074">
        <ele>66.016</ele>
        <time>2020-07-07T19:04:20.000Z</time>
      </trkpt>
      <trkpt lat="43.64861" lon="3.79075">
        <ele>66.116</ele>
        <time>2020-07-07T19:04:21.000Z</time>
      </trkpt>
      <trkpt lat="43.64858" lon="3.79075">
        <ele>66.216</ele>
        <time>2020-07-07T19:04:22.000Z</time>
      </trkpt>
      <trkpt lat="43.64856" lon="3.79077">
        <ele>66.316</ele>
        <time>2020-07-07T19:04:23.000Z</time>
      </trkpt>
      <trkpt lat="43.64854" lon="3.79079">
        <ele>66.416</ele>
        <time>2020-07-07T19:04:24.000Z</time>
      </trkpt>
      <trkpt lat="43.64852" lon="3.79081">
        <ele>66.516</ele>
        <time>2020-07-07T19:04:25.000Z</time>
      </trkpt>
      <trkpt lat="43.64849" lon="3.79082">
        <ele>66.616</ele>
        <time>2020-07-07T19:04:26.000Z</time>
      </trkpt>
      <trkpt lat="43.64847" lon="3.79084">
        <ele>66.716</ele>
        <time>2020-07-07T19:04:27.000Z</time>
      </trkpt>
      <trkpt lat="43.64845" lon="3.79086">
        <ele>66.816</ele>
        <time>2020-07-07T19:04:28.000Z</time>
      </trkpt>
      <trkpt lat="43.64843" lon="3.79089">
        <ele>66.916</ele>
        <time>2020-07-07T19:04:29.000Z</time>
      </trkpt>
      <trkpt lat="43.64841" lon="3.79093">
        <ele>67.032</ele>
        <time>2020-07-07T19:04:30.000Z</time>
      </trkpt>
      <trkpt lat="43.64839" lon="3.79097">
        <ele>67.232</ele>
        <time>2020-07-07T19:04:31.000Z</time>
      </trkpt>
      <trkpt lat="43.64836" lon="3.79102">
        <ele>67.432</ele>
        <time>2020-07-07T19:04:32.000Z</time>
      </trkpt>
      <trkpt lat="43.64834" lon="3.79106">
        <ele>67.632</ele>
        <time>2020-07-07T19:04:33.000Z</time>
      </trkpt>
      <trkpt lat="43.64831" lon="3.7911">
        <ele>67.832</ele>
        <time>2020-07-07T19:04:34.000Z</time>
      </trkpt>
      <trkpt lat="43.64828" lon="3.79114">
        <ele>68.032</ele>
        <time>2020-07-07T19:04:35.000Z</time>
      </trkpt>
      <trkpt lat="43.64825" lon="3.79118">
        <ele>68.232</ele>
        <time>2020-07-07T19:04:36.000Z</time>
      </trkpt>
      <trkpt lat="43.64821" lon="3.7912">
        <ele>68.432</ele>
        <time>2020-07-07T19:04:37.000Z</time>
      </trkpt>
      <trkpt lat="43.64817" lon="3.79123">
        <ele>68.632</ele>
        <time>2020-07-07T19:04:38.000Z</time>
      </trkpt>
      <trkpt lat="43.64813" lon="3.79126">
        <ele>68.832</ele>
        <time>2020-07-07T19:04:39.000Z</time>
      </trkpt>
      <trkpt lat="43.6481" lon="3.79128">
        <ele>69.016</ele>
        <time>2020-07-07T19:04:40.000Z</time>
      </trkpt>
      <trkpt lat="43.64806" lon="3.7913">
        <ele>69.116</ele>
        <time>2020-07-07T19:04:41.000Z</time>
      </trkpt>
      <trkpt lat="43.64804" lon="3.79132">
        <ele>69.216</ele>
        <time>2020-07-07T19:04:42.000Z</time>
      </trkpt>
      <trkpt lat="43.64801" lon="3.79135">
        <ele>69.316</ele>
        <time>2020-07-07T19:04:43.000Z</time>
      </trkpt>
      <trkpt lat="43.64798" lon="3.79136">
        <ele>69.416</ele>
        <time>2020-07-07T19:04:44.000Z</time>
      </trkpt>
      <trkpt lat="43.64796" lon="3.79138">
        <ele>69.516</ele>
        <time>2020-07-07T19:04:45.000Z</time>
      </trkpt>
      <trkpt lat="43.64793" lon="3.7914">
        <ele>69.616</ele>
        <time>2020-07-07T19:04:46.000Z</time>
      </trkpt>
      <trkpt lat="43.6479" lon="3.79142">
        <ele>69.716</ele>
        <time>2020-07-07T19:04:47.000Z</time>
      </trkpt>
      <trkpt lat="43.64787" lon="3.79144">
        <ele>69.816</ele>
        <time>2020-07-07T19:04:48.000Z</time>
      </trkpt>
      <trkpt lat="43.64784" lon="3.79146">
        <ele>69.916</ele>
        <time>2020-07-07T19:04:49.000Z</time>
      </trkpt>
      <trkpt lat="43.64782" lon="3.79147">
        <ele>70.015564202335</ele>
        <time>2020-07-07T19:04:50.000Z</time>
      </trkpt>
      <trkpt lat="43.64779" lon="3.79147">
        <ele>70.112840466926</ele>
        <time>2020-07-07T19:04:51.000Z</time>
      </trkpt>
      <trkpt lat="43.64776" lon="3.79147">
        <ele>70.210116731518</ele>
        <time>2020-07-07T19:04:52.000Z</time>
      </trkpt>
      <trkpt lat="43.64772" lon="3.79148">
        <ele>70.307392996109</ele>
        <time>2020-07-07T19:04:53.000Z</time>
      </trkpt>
      <trkpt lat="43.6477" lon="3.7915">
        <ele>70.4046692607</ele>
        <time>2020-07-07T19:04:54.000Z</time>
      </trkpt>
      <trkpt lat="43.64767" lon="3.79153">
        <ele>70.501945525292</ele>
        <time>2020-07-07T19:04:55.000Z</time>
      </trkpt>
      <trkpt lat="43.64764" lon="3.79156">
        <ele>70.599221789883</ele>
        <time>2020-07-07T19:04:56.000Z</time>
      </trkpt>
      <trkpt lat="43.64761" lon="3.79159">
        <ele>70.696498054475</ele>
        <time>2020-07-07T19:04:57.000Z</time>
      </trkpt>
      <trkpt lat="43.64758" lon="3.79162">
        <ele>70.793774319066</ele>
        <time>2020-07-07T19:04:58.000Z</time>
      </trkpt>
      <trkpt lat="43.64755" lon="3.79165">
        <ele>70.891050583658</ele>
        <time>2020-07-07T19:04:59.000Z</time>
      </trkpt>
      <trkpt lat="43.64752" lon="3.79167">
        <ele>70.988326848249</ele>
        <time>2020-07-07T19:05:00.000Z</time>
      </trkpt>
      <trkpt lat="43.64748" lon="3.7917">
        <ele>71.090534979424</ele>
        <time>2020-07-07T19:05:01.000Z</time>
      </trkpt>
      <trkpt lat="43.64745" lon="3.79173">
        <ele>71.19341563786</ele>
        <time>2020-07-07T19:05:02.000Z</time>
      </trkpt>
      <trkpt lat="43.64742" lon="3.79177">
        <ele>71.296296296296</ele>
        <time>2020-07-07T19:05:03.000Z</time>
      </trkpt>
      <trkpt lat="43.64739" lon="3.7918">
        <ele>71.399176954732</ele>
        <time>2020-07-07T19:05:04.000Z</time>
      </trkpt>
      <trkpt lat="43.64735" lon="3.79184">
        <ele>71.502057613169</ele>
        <time>2020-07-07T19:05:05.000Z</time>
      </trkpt>
      <trkpt lat="43.64731" lon="3.79187">
        <ele>71.604938271605</ele>
        <time>2020-07-07T19:05:06.000Z</time>
      </trkpt>
      <trkpt lat="43.64727" lon="3.79189">
        <ele>71.707818930041</ele>
        <time>2020-07-07T19:05:07.000Z</time>
      </trkpt>
      <trkpt lat="43.64723" lon="3.79191">
        <ele>71.810699588477</ele>
        <time>2020-07-07T19:05:08.000Z</time>
      </trkpt>
      <trkpt lat="43.6472" lon="3.79194">
        <ele>71.913580246914</ele>
        <time>2020-07-07T19:05:09.000Z</time>
      </trkpt>
      <trkpt lat="43.64717" lon="3.79196">
        <ele>72</ele>
        <time>2020-07-07T19:05:10.000Z</time>
      </trkpt>
      <trkpt lat="43.64715" lon="3.79197">
        <ele>72</ele>
        <time>2020-07-07T19:05:11.000Z</time>
      </trkpt>
      <trkpt lat="43.64712" lon="3.79198">
        <ele>72</ele>
        <time>2020-07-07T19:05:12.000Z</time>
      </trkpt>
      <trkpt lat="43.64709" lon="3.79199">
        <ele>72</ele>
        <time>2020-07-07T19:05:13.000Z</time>
      </trkpt>
      <trkpt lat="43.64708" lon="3.792">
        <ele>72</ele>
        <time>2020-07-07T19:05:14.000Z</time>
      </trkpt>
      <trkpt lat="43.64706" lon="3.79201">
        <ele>72</ele>
        <time>2020-07-07T19:05:15.000Z</time>
      </trkpt>
      <trkpt lat="43.64702" lon="3.79203">
        <ele>72</ele>
        <time>2020-07-07T19:05:17.000Z</time>
      </trkpt>
      <trkpt lat="43.64701" lon="3.79204">
        <ele>72</ele>
        <time>2020-07-07T19:05:18.000Z</time>
      </trkpt>
      <trkpt lat="43.64698" lon="3.79208">
        <ele>72</ele>
        <time>2020-07-07T19:05:20.000Z</time>
      </trkpt>
      <trkpt lat="43.64698" lon="3.79212">
        <ele>72.089598652243</ele>
        <time>2020-07-07T19:05:21.000Z</time>
      </trkpt>
      <trkpt lat="43.64698" lon="3.79216">
        <ele>72.192585230044</ele>
        <time>2020-07-07T19:05:22.000Z</time>
      </trkpt>
      <trkpt lat="43.64698" lon="3.7922">
        <ele>72.295571807844</ele>
        <time>2020-07-07T19:05:23.000Z</time>
      </trkpt>
      <trkpt lat="43.64698" lon="3.79224">
        <ele>72.398558385645</ele>
        <time>2020-07-07T19:05:24.000Z</time>
      </trkpt>
      <trkpt lat="43.64698" lon="3.79227">
        <ele>72.501544963445</ele>
        <time>2020-07-07T19:05:25.000Z</time>
      </trkpt>
      <trkpt lat="43.64698" lon="3.79231">
        <ele>72.604531541246</ele>
        <time>2020-07-07T19:05:26.000Z</time>
      </trkpt>
      <trkpt lat="43.64698" lon="3.79234">
        <ele>72.707518119047</ele>
        <time>2020-07-07T19:05:27.000Z</time>
      </trkpt>
      <trkpt lat="43.64697" lon="3.79239">
        <ele>72.810504696847</ele>
        <time>2020-07-07T19:05:28.000Z</time>
      </trkpt>
      <trkpt lat="43.64697" lon="3.79242">
        <ele>72.913491274648</ele>
        <time>2020-07-07T19:05:29.000Z</time>
      </trkpt>
      <trkpt lat="43.64696" lon="3.79246">
        <ele>72.968</ele>
        <time>2020-07-07T19:05:30.000Z</time>
      </trkpt>
      <trkpt lat="43.64696" lon="3.7925">
        <ele>72.768</ele>
        <time>2020-07-07T19:05:31.000Z</time>
      </trkpt>
      <trkpt lat="43.64696" lon="3.79257">
        <ele>72.568</ele>
        <time>2020-07-07T19:05:32.000Z</time>
      </trkpt>
      <trkpt lat="43.64697" lon="3.79263">
        <ele>72.368</ele>
        <time>2020-07-07T19:05:33.000Z</time>
      </trkpt>
      <trkpt lat="43.64697" lon="3.79269">
        <ele>72.168</ele>
        <time>2020-07-07T19:05:34.000Z</time>
      </trkpt>
      <trkpt lat="43.64696" lon="3.79274">
        <ele>71.968</ele>
        <time>2020-07-07T19:05:35.000Z</time>
      </trkpt>
      <trkpt lat="43.64696" lon="3.79278">
        <ele>71.768</ele>
        <time>2020-07-07T19:05:36.000Z</time>
      </trkpt>
      <trkpt lat="43.64694" lon="3.79281">
        <ele>71.568</ele>
        <time>2020-07-07T19:05:37.000Z</time>
      </trkpt>
      <trkpt lat="43.64693" lon="3.79282">
        <ele>71.368</ele>
        <time>2020-07-07T19:05:38.000Z</time>
      </trkpt>
      <trkpt lat="43.64691" lon="3.79284">
        <ele>71.168</ele>
        <time>2020-07-07T19:05:39.000Z</time>
      </trkpt>
      <trkpt lat="43.6469" lon="3.79285">
        <ele>71.016</ele>
        <time>2020-07-07T19:05:40.000Z</time>
      </trkpt>
      <trkpt lat="43.64687" lon="3.79286">
        <ele>71.116</ele>
        <time>2020-07-07T19:05:41.000Z</time>
      </trkpt>
      <trkpt lat="43.64684" lon="3.79287">
        <ele>71.216</ele>
        <time>2020-07-07T19:05:42.000Z</time>
      </trkpt>
      <trkpt lat="43.64681" lon="3.7929">
        <ele>71.316</ele>
        <time>2020-07-07T19:05:43.000Z</time>
      </trkpt>
      <trkpt lat="43.6468" lon="3.79294">
        <ele>71.416</ele>
        <time>2020-07-07T19:05:44.000Z</time>
      </trkpt>
      <trkpt lat="43.64678" lon="3.79297">
        <ele>71.516</ele>
        <time>2020-07-07T19:05:45.000Z</time>
      </trkpt>
      <trkpt lat="43.64675" lon="3.79302">
        <ele>71.616</ele>
        <time>2020-07-07T19:05:46.000Z</time>
      </trkpt>
      <trkpt lat="43.64674" lon="3.79306">
        <ele>71.716</ele>
        <time>2020-07-07T19:05:47.000Z</time>
      </trkpt>
      <trkpt lat="43.64672" lon="3.79311">
        <ele>71.816</ele>
        <time>2020-07-07T19:05:48.000Z</time>
      </trkpt>
      <trkpt lat="43.6467" lon="3.79317">
        <ele>71.916</ele>
        <time>2020-07-07T19:05:49.000Z</time>
      </trkpt>
      <trkpt lat="43.64669" lon="3.79321">
        <ele>72</ele>
        <time>2020-07-07T19:05:50.000Z</time>
      </trkpt>
      <trkpt lat="43.64668" lon="3.79326">
        <ele>72</ele>
        <time>2020-07-07T19:05:51.000Z</time>
      </trkpt>
      <trkpt lat="43.64667" lon="3.7933">
        <ele>72</ele>
        <time>2020-07-07T19:05:52.000Z</time>
      </trkpt>
      <trkpt lat="43.64666" lon="3.79334">
        <ele>72</ele>
        <time>2020-07-07T19:05:53.000Z</time>
      </trkpt>
      <trkpt lat="43.64665" lon="3.79338">
        <ele>72</ele>
        <time>2020-07-07T19:05:54.000Z</time>
      </trkpt>
      <trkpt lat="43.64664" lon="3.79341">
        <ele>72</ele>
        <time>2020-07-07T19:05:55.000Z</time>
      </trkpt>
      <trkpt lat="43.64663" lon="3.79344">
        <ele>72</ele>
        <time>2020-07-07T19:05:56.000Z</time>
      </trkpt>
      <trkpt lat="43.64662" lon="3.79348">
        <ele>72</ele>
        <time>2020-07-07T19:05:57.000Z</time>
      </trkpt>
      <trkpt lat="43.64661" lon="3.79351">
        <ele>72</ele>
        <time>2020-07-07T19:05:58.000Z</time>
      </trkpt>
      <trkpt lat="43.6466" lon="3.79353">
        <ele>72</ele>
        <time>2020-07-07T19:05:59.000Z</time>
      </trkpt>
      <trkpt lat="43.64657" lon="3.79355">
        <ele>72.162465131621</ele>
        <time>2020-07-07T19:06:01.000Z</time>
      </trkpt>
      <trkpt lat="43.64656" lon="3.79355">
        <ele>73</ele>
        <time>2020-07-07T19:06:07.000Z</time>
      </trkpt>
      <trkpt lat="43.64654" lon="3.79355">
        <ele>72.010001066667</ele>
        <time>2020-07-07T19:06:10.000Z</time>
      </trkpt>
      <trkpt lat="43.64654" lon="3.79355">
        <ele>72</ele>
        <time>2020-07-07T19:06:13.000Z</time>
      </trkpt>
      <trkpt lat="43.6465" lon="3.7936">
        <ele>72.99490042468</ele>
        <time>2020-07-07T19:07:14.000Z</time>
      </trkpt>
      <trkpt lat="43.6465" lon="3.79362">
        <ele>72.928571428571</ele>
        <time>2020-07-07T19:07:15.000Z</time>
      </trkpt>
      <trkpt lat="43.64649" lon="3.79365">
        <ele>72.823529411765</ele>
        <time>2020-07-07T19:07:16.000Z</time>
      </trkpt>
      <trkpt lat="43.64649" lon="3.79368">
        <ele>72.718487394958</ele>
        <time>2020-07-07T19:07:17.000Z</time>
      </trkpt>
      <trkpt lat="43.64648" lon="3.79373">
        <ele>72.613445378151</ele>
        <time>2020-07-07T19:07:18.000Z</time>
      </trkpt>
      <trkpt lat="43.64647" lon="3.79377">
        <ele>72.508403361345</ele>
        <time>2020-07-07T19:07:19.000Z</time>
      </trkpt>
      <trkpt lat="43.64646" lon="3.79382">
        <ele>72.403361344538</ele>
        <time>2020-07-07T19:07:20.000Z</time>
      </trkpt>
      <trkpt lat="43.64645" lon="3.79387">
        <ele>72.298319327731</ele>
        <time>2020-07-07T19:07:21.000Z</time>
      </trkpt>
      <trkpt lat="43.64642" lon="3.79394">
        <ele>72.193277310924</ele>
        <time>2020-07-07T19:07:22.000Z</time>
      </trkpt>
      <trkpt lat="43.64639" lon="3.79399">
        <ele>72.088235294118</ele>
        <time>2020-07-07T19:07:23.000Z</time>
      </trkpt>
      <trkpt lat="43.64636" lon="3.79404">
        <ele>71.953307392996</ele>
        <time>2020-07-07T19:07:24.000Z</time>
      </trkpt>
      <trkpt lat="43.64632" lon="3.79409">
        <ele>71.661478599222</ele>
        <time>2020-07-07T19:07:25.000Z</time>
      </trkpt>
      <trkpt lat="43.64628" lon="3.79412">
        <ele>71.369649805447</ele>
        <time>2020-07-07T19:07:26.000Z</time>
      </trkpt>
      <trkpt lat="43.64625" lon="3.79417">
        <ele>71.077821011673</ele>
        <time>2020-07-07T19:07:27.000Z</time>
      </trkpt>
      <trkpt lat="43.64621" lon="3.79421">
        <ele>70.785992217899</ele>
        <time>2020-07-07T19:07:28.000Z</time>
      </trkpt>
      <trkpt lat="43.64618" lon="3.79425">
        <ele>70.494163424124</ele>
        <time>2020-07-07T19:07:29.000Z</time>
      </trkpt>
      <trkpt lat="43.64615" lon="3.79428">
        <ele>70.20233463035</ele>
        <time>2020-07-07T19:07:30.000Z</time>
      </trkpt>
      <trkpt lat="43.64613" lon="3.79431">
        <ele>69.910505836576</ele>
        <time>2020-07-07T19:07:31.000Z</time>
      </trkpt>
      <trkpt lat="43.64611" lon="3.79435">
        <ele>69.618677042802</ele>
        <time>2020-07-07T19:07:32.000Z</time>
      </trkpt>
      <trkpt lat="43.64608" lon="3.79437">
        <ele>69.326848249027</ele>
        <time>2020-07-07T19:07:33.000Z</time>
      </trkpt>
      <trkpt lat="43.64605" lon="3.79439">
        <ele>69.035019455253</ele>
        <time>2020-07-07T19:07:34.000Z</time>
      </trkpt>
      <trkpt lat="43.64602" lon="3.79441">
        <ele>68.818930041152</ele>
        <time>2020-07-07T19:07:35.000Z</time>
      </trkpt>
      <trkpt lat="43.646" lon="3.79444">
        <ele>68.61316872428</ele>
        <time>2020-07-07T19:07:36.000Z</time>
      </trkpt>
      <trkpt lat="43.64599" lon="3.79447">
        <ele>68.407407407407</ele>
        <time>2020-07-07T19:07:37.000Z</time>
      </trkpt>
      <trkpt lat="43.64598" lon="3.7945">
        <ele>68.201646090535</ele>
        <time>2020-07-07T19:07:38.000Z</time>
      </trkpt>
      <trkpt lat="43.64596" lon="3.79453">
        <ele>67.995884773663</ele>
        <time>2020-07-07T19:07:39.000Z</time>
      </trkpt>
      <trkpt lat="43.64595" lon="3.79455">
        <ele>67.79012345679</ele>
        <time>2020-07-07T19:07:40.000Z</time>
      </trkpt>
      <trkpt lat="43.64593" lon="3.79458">
        <ele>67.584362139918</ele>
        <time>2020-07-07T19:07:41.000Z</time>
      </trkpt>
      <trkpt lat="43.64593" lon="3.79461">
        <ele>67.378600823045</ele>
        <time>2020-07-07T19:07:42.000Z</time>
      </trkpt>
      <trkpt lat="43.64594" lon="3.79464">
        <ele>67.172839506173</ele>
        <time>2020-07-07T19:07:43.000Z</time>
      </trkpt>
      <trkpt lat="43.64596" lon="3.79467">
        <ele>66.984298336629</ele>
        <time>2020-07-07T19:07:44.000Z</time>
      </trkpt>
      <trkpt lat="43.64599" lon="3.7947">
        <ele>66.886162940557</ele>
        <time>2020-07-07T19:07:45.000Z</time>
      </trkpt>
      <trkpt lat="43.64601" lon="3.79475">
        <ele>66.788027544486</ele>
        <time>2020-07-07T19:07:46.000Z</time>
      </trkpt>
      <trkpt lat="43.64602" lon="3.79479">
        <ele>66.689892148415</ele>
        <time>2020-07-07T19:07:47.000Z</time>
      </trkpt>
      <trkpt lat="43.64602" lon="3.79483">
        <ele>66.591756752343</ele>
        <time>2020-07-07T19:07:48.000Z</time>
      </trkpt>
      <trkpt lat="43.64601" lon="3.79486">
        <ele>66.493621356272</ele>
        <time>2020-07-07T19:07:49.000Z</time>
      </trkpt>
      <trkpt lat="43.64598" lon="3.7949">
        <ele>66.395485960201</ele>
        <time>2020-07-07T19:07:50.000Z</time>
      </trkpt>
      <trkpt lat="43.64595" lon="3.79493">
        <ele>66.297350564129</ele>
        <time>2020-07-07T19:07:51.000Z</time>
      </trkpt>
      <trkpt lat="43.64592" lon="3.79497">
        <ele>66.199215168058</ele>
        <time>2020-07-07T19:07:52.000Z</time>
      </trkpt>
      <trkpt lat="43.6459" lon="3.79501">
        <ele>66.101079771987</ele>
        <time>2020-07-07T19:07:53.000Z</time>
      </trkpt>
      <trkpt lat="43.64587" lon="3.79506">
        <ele>66.002944375915</ele>
        <time>2020-07-07T19:07:54.000Z</time>
      </trkpt>
      <trkpt lat="43.64586" lon="3.79511">
        <ele>65.804238599464</ele>
        <time>2020-07-07T19:07:55.000Z</time>
      </trkpt>
      <trkpt lat="43.64584" lon="3.79515">
        <ele>65.602422056837</ele>
        <time>2020-07-07T19:07:56.000Z</time>
      </trkpt>
      <trkpt lat="43.64582" lon="3.79519">
        <ele>65.400605514209</ele>
        <time>2020-07-07T19:07:57.000Z</time>
      </trkpt>
      <trkpt lat="43.6458" lon="3.79523">
        <ele>65.198788971582</ele>
        <time>2020-07-07T19:07:58.000Z</time>
      </trkpt>
      <trkpt lat="43.64579" lon="3.79527">
        <ele>64.996972428954</ele>
        <time>2020-07-07T19:07:59.000Z</time>
      </trkpt>
      <trkpt lat="43.64577" lon="3.79532">
        <ele>64.795155886327</ele>
        <time>2020-07-07T19:08:00.000Z</time>
      </trkpt>
      <trkpt lat="43.64575" lon="3.79536">
        <ele>64.593339343699</ele>
        <time>2020-07-07T19:08:01.000Z</time>
      </trkpt>
      <trkpt lat="43.64574" lon="3.79541">
        <ele>64.391522801072</ele>
        <time>2020-07-07T19:08:02.000Z</time>
      </trkpt>
      <trkpt lat="43.64573" lon="3.79545">
        <ele>64.189706258444</ele>
        <time>2020-07-07T19:08:03.000Z</time>
      </trkpt>
      <trkpt lat="43.64573" lon="3.79549">
        <ele>63.993938751393</ele>
        <time>2020-07-07T19:08:04.000Z</time>
      </trkpt>
      <trkpt lat="43.64573" lon="3.79553">
        <ele>63.892928715682</ele>
        <time>2020-07-07T19:08:05.000Z</time>
      </trkpt>
      <trkpt lat="43.64572" lon="3.79557">
        <ele>63.791918679972</ele>
        <time>2020-07-07T19:08:06.000Z</time>
      </trkpt>
      <trkpt lat="43.64572" lon="3.79561">
        <ele>63.690908644261</ele>
        <time>2020-07-07T19:08:07.000Z</time>
      </trkpt>
      <trkpt lat="43.64571" lon="3.79564">
        <ele>63.58989860855</ele>
        <time>2020-07-07T19:08:08.000Z</time>
      </trkpt>
      <trkpt lat="43.6457" lon="3.79568">
        <ele>63.48888857284</ele>
        <time>2020-07-07T19:08:09.000Z</time>
      </trkpt>
      <trkpt lat="43.64569" lon="3.79572">
        <ele>63.387878537129</ele>
        <time>2020-07-07T19:08:10.000Z</time>
      </trkpt>
      <trkpt lat="43.64567" lon="3.79576">
        <ele>63.286868501418</ele>
        <time>2020-07-07T19:08:11.000Z</time>
      </trkpt>
      <trkpt lat="43.64566" lon="3.79581">
        <ele>63.185858465708</ele>
        <time>2020-07-07T19:08:12.000Z</time>
      </trkpt>
      <trkpt lat="43.64565" lon="3.79586">
        <ele>63.084848429997</ele>
        <time>2020-07-07T19:08:13.000Z</time>
      </trkpt>
      <trkpt lat="43.64565" lon="3.79591">
        <ele>62.984</ele>
        <time>2020-07-07T19:08:14.000Z</time>
      </trkpt>
      <trkpt lat="43.64564" lon="3.79596">
        <ele>62.884</ele>
        <time>2020-07-07T19:08:15.000Z</time>
      </trkpt>
      <trkpt lat="43.64562" lon="3.79601">
        <ele>62.784</ele>
        <time>2020-07-07T19:08:16.000Z</time>
      </trkpt>
      <trkpt lat="43.6456" lon="3.79607">
        <ele>62.684</ele>
        <time>2020-07-07T19:08:17.000Z</time>
      </trkpt>
      <trkpt lat="43.64558" lon="3.79612">
        <ele>62.584</ele>
        <time>2020-07-07T19:08:18.000Z</time>
      </trkpt>
      <trkpt lat="43.64556" lon="3.79617">
        <ele>62.484</ele>
        <time>2020-07-07T19:08:19.000Z</time>
      </trkpt>
      <trkpt lat="43.64554" lon="3.79623">
        <ele>62.384</ele>
        <time>2020-07-07T19:08:20.000Z</time>
      </trkpt>
      <trkpt lat="43.64552" lon="3.79628">
        <ele>62.284</ele>
        <time>2020-07-07T19:08:21.000Z</time>
      </trkpt>
      <trkpt lat="43.6455" lon="3.79634">
        <ele>62.184</ele>
        <time>2020-07-07T19:08:22.000Z</time>
      </trkpt>
      <trkpt lat="43.64548" lon="3.79639">
        <ele>62.084</ele>
        <time>2020-07-07T19:08:23.000Z</time>
      </trkpt>
      <trkpt lat="43.64546" lon="3.79644">
        <ele>61.984</ele>
        <time>2020-07-07T19:08:24.000Z</time>
      </trkpt>
      <trkpt lat="43.64543" lon="3.79649">
        <ele>61.884</ele>
        <time>2020-07-07T19:08:25.000Z</time>
      </trkpt>
      <trkpt lat="43.64541" lon="3.79654">
        <ele>61.784</ele>
        <time>2020-07-07T19:08:26.000Z</time>
      </trkpt>
      <trkpt lat="43.6454" lon="3.7966">
        <ele>61.684</ele>
        <time>2020-07-07T19:08:27.000Z</time>
      </trkpt>
      <trkpt lat="43.64538" lon="3.79665">
        <ele>61.584</ele>
        <time>2020-07-07T19:08:28.000Z</time>
      </trkpt>
      <trkpt lat="43.64536" lon="3.79669">
        <ele>61.484</ele>
        <time>2020-07-07T19:08:29.000Z</time>
      </trkpt>
      <trkpt lat="43.64533" lon="3.79673">
        <ele>61.384</ele>
        <time>2020-07-07T19:08:30.000Z</time>
      </trkpt>
      <trkpt lat="43.64531" lon="3.79676">
        <ele>61.284</ele>
        <time>2020-07-07T19:08:31.000Z</time>
      </trkpt>
      <trkpt lat="43.64528" lon="3.7968">
        <ele>61.184</ele>
        <time>2020-07-07T19:08:32.000Z</time>
      </trkpt>
      <trkpt lat="43.64525" lon="3.79685">
        <ele>61.084</ele>
        <time>2020-07-07T19:08:33.000Z</time>
      </trkpt>
      <trkpt lat="43.64522" lon="3.7969">
        <ele>61</ele>
        <time>2020-07-07T19:08:34.000Z</time>
      </trkpt>
      <trkpt lat="43.64519" lon="3.79696">
        <ele>61</ele>
        <time>2020-07-07T19:08:35.000Z</time>
      </trkpt>
      <trkpt lat="43.64516" lon="3.79703">
        <ele>61</ele>
        <time>2020-07-07T19:08:36.000Z</time>
      </trkpt>
      <trkpt lat="43.64513" lon="3.79709">
        <ele>61</ele>
        <time>2020-07-07T19:08:37.000Z</time>
      </trkpt>
      <trkpt lat="43.6451" lon="3.79715">
        <ele>61</ele>
        <time>2020-07-07T19:08:38.000Z</time>
      </trkpt>
      <trkpt lat="43.64507" lon="3.79722">
        <ele>61</ele>
        <time>2020-07-07T19:08:39.000Z</time>
      </trkpt>
      <trkpt lat="43.64505" lon="3.79728">
        <ele>61</ele>
        <time>2020-07-07T19:08:40.000Z</time>
      </trkpt>
      <trkpt lat="43.64503" lon="3.79734">
        <ele>61</ele>
        <time>2020-07-07T19:08:41.000Z</time>
      </trkpt>
      <trkpt lat="43.64501" lon="3.79739">
        <ele>61</ele>
        <time>2020-07-07T19:08:42.000Z</time>
      </trkpt>
      <trkpt lat="43.64498" lon="3.79745">
        <ele>61</ele>
        <time>2020-07-07T19:08:43.000Z</time>
      </trkpt>
      <trkpt lat="43.64495" lon="3.79749">
        <ele>61</ele>
        <time>2020-07-07T19:08:44.000Z</time>
      </trkpt>
      <trkpt lat="43.64492" lon="3.79753">
        <ele>61</ele>
        <time>2020-07-07T19:08:45.000Z</time>
      </trkpt>
      <trkpt lat="43.64489" lon="3.79756">
        <ele>61</ele>
        <time>2020-07-07T19:08:46.000Z</time>
      </trkpt>
      <trkpt lat="43.64486" lon="3.79759">
        <ele>61</ele>
        <time>2020-07-07T19:08:47.000Z</time>
      </trkpt>
      <trkpt lat="43.64483" lon="3.79762">
        <ele>61</ele>
        <time>2020-07-07T19:08:48.000Z</time>
      </trkpt>
      <trkpt lat="43.64479" lon="3.79764">
        <ele>61</ele>
        <time>2020-07-07T19:08:49.000Z</time>
      </trkpt>
      <trkpt lat="43.64475" lon="3.79766">
        <ele>61</ele>
        <time>2020-07-07T19:08:50.000Z</time>
      </trkpt>
      <trkpt lat="43.64472" lon="3.79768">
        <ele>61</ele>
        <time>2020-07-07T19:08:51.000Z</time>
      </trkpt>
      <trkpt lat="43.64469" lon="3.7977">
        <ele>61</ele>
        <time>2020-07-07T19:08:52.000Z</time>
      </trkpt>
      <trkpt lat="43.64466" lon="3.79773">
        <ele>61</ele>
        <time>2020-07-07T19:08:53.000Z</time>
      </trkpt>
      <trkpt lat="43.64458" lon="3.79779">
        <ele>61</ele>
        <time>2020-07-07T19:08:56.000Z</time>
      </trkpt>
      <trkpt lat="43.64456" lon="3.79782">
        <ele>61</ele>
        <time>2020-07-07T19:08:58.000Z</time>
      </trkpt>
      <trkpt lat="43.64453" lon="3.79783">
        <ele>61</ele>
        <time>2020-07-07T19:09:00.000Z</time>
      </trkpt>
      <trkpt lat="43.64451" lon="3.79783">
        <ele>61</ele>
        <time>2020-07-07T19:09:01.000Z</time>
      </trkpt>
      <trkpt lat="43.64448" lon="3.79783">
        <ele>61</ele>
        <time>2020-07-07T19:09:02.000Z</time>
      </trkpt>
      <trkpt lat="43.64446" lon="3.79784">
        <ele>61</ele>
        <time>2020-07-07T19:09:03.000Z</time>
      </trkpt>
      <trkpt lat="43.64442" lon="3.79786">
        <ele>61</ele>
        <time>2020-07-07T19:09:04.000Z</time>
      </trkpt>
      <trkpt lat="43.64439" lon="3.79786">
        <ele>61</ele>
        <time>2020-07-07T19:09:05.000Z</time>
      </trkpt>
      <trkpt lat="43.64434" lon="3.79787">
        <ele>61</ele>
        <time>2020-07-07T19:09:06.000Z</time>
      </trkpt>
      <trkpt lat="43.64429" lon="3.79789">
        <ele>61</ele>
        <time>2020-07-07T19:09:07.000Z</time>
      </trkpt>
      <trkpt lat="43.64424" lon="3.7979">
        <ele>61</ele>
        <time>2020-07-07T19:09:08.000Z</time>
      </trkpt>
      <trkpt lat="43.64418" lon="3.79789">
        <ele>61</ele>
        <time>2020-07-07T19:09:09.000Z</time>
      </trkpt>
      <trkpt lat="43.64413" lon="3.79788">
        <ele>61</ele>
        <time>2020-07-07T19:09:10.000Z</time>
      </trkpt>
      <trkpt lat="43.64408" lon="3.79787">
        <ele>61</ele>
        <time>2020-07-07T19:09:11.000Z</time>
      </trkpt>
      <trkpt lat="43.64404" lon="3.79785">
        <ele>61</ele>
        <time>2020-07-07T19:09:12.000Z</time>
      </trkpt>
      <trkpt lat="43.64401" lon="3.79783">
        <ele>61</ele>
        <time>2020-07-07T19:09:13.000Z</time>
      </trkpt>
      <trkpt lat="43.64396" lon="3.79782">
        <ele>61</ele>
        <time>2020-07-07T19:09:14.000Z</time>
      </trkpt>
      <trkpt lat="43.64392" lon="3.79781">
        <ele>61</ele>
        <time>2020-07-07T19:09:15.000Z</time>
      </trkpt>
      <trkpt lat="43.64387" lon="3.7978">
        <ele>61</ele>
        <time>2020-07-07T19:09:16.000Z</time>
      </trkpt>
      <trkpt lat="43.64383" lon="3.7978">
        <ele>61</ele>
        <time>2020-07-07T19:09:17.000Z</time>
      </trkpt>
      <trkpt lat="43.64379" lon="3.79781">
        <ele>61</ele>
        <time>2020-07-07T19:09:18.000Z</time>
      </trkpt>
      <trkpt lat="43.64375" lon="3.79782">
        <ele>61</ele>
        <time>2020-07-07T19:09:19.000Z</time>
      </trkpt>
      <trkpt lat="43.64369" lon="3.79784">
        <ele>61</ele>
        <time>2020-07-07T19:09:20.000Z</time>
      </trkpt>
      <trkpt lat="43.64365" lon="3.79785">
        <ele>61</ele>
        <time>2020-07-07T19:09:21.000Z</time>
      </trkpt>
      <trkpt lat="43.6436" lon="3.79785">
        <ele>61</ele>
        <time>2020-07-07T19:09:22.000Z</time>
      </trkpt>
      <trkpt lat="43.64356" lon="3.79787">
        <ele>61</ele>
        <time>2020-07-07T19:09:23.000Z</time>
      </trkpt>
      <trkpt lat="43.64352" lon="3.79788">
        <ele>61</ele>
        <time>2020-07-07T19:09:24.000Z</time>
      </trkpt>
      <trkpt lat="43.64348" lon="3.79789">
        <ele>61</ele>
        <time>2020-07-07T19:09:25.000Z</time>
      </trkpt>
      <trkpt lat="43.64343" lon="3.79792">
        <ele>61</ele>
        <time>2020-07-07T19:09:26.000Z</time>
      </trkpt>
      <trkpt lat="43.64339" lon="3.79794">
        <ele>61</ele>
        <time>2020-07-07T19:09:27.000Z</time>
      </trkpt>
      <trkpt lat="43.64335" lon="3.79796">
        <ele>61</ele>
        <time>2020-07-07T19:09:28.000Z</time>
      </trkpt>
      <trkpt lat="43.64332" lon="3.79798">
        <ele>61</ele>
        <time>2020-07-07T19:09:29.000Z</time>
      </trkpt>
      <trkpt lat="43.64328" lon="3.798">
        <ele>61</ele>
        <time>2020-07-07T19:09:30.000Z</time>
      </trkpt>
      <trkpt lat="43.64325" lon="3.79803">
        <ele>61</ele>
        <time>2020-07-07T19:09:31.000Z</time>
      </trkpt>
      <trkpt lat="43.6432" lon="3.79806">
        <ele>61</ele>
        <time>2020-07-07T19:09:32.000Z</time>
      </trkpt>
      <trkpt lat="43.64316" lon="3.79809">
        <ele>61</ele>
        <time>2020-07-07T19:09:33.000Z</time>
      </trkpt>
      <trkpt lat="43.64312" lon="3.79811">
        <ele>60.984435797665</ele>
        <time>2020-07-07T19:09:34.000Z</time>
      </trkpt>
      <trkpt lat="43.64307" lon="3.79813">
        <ele>60.887159533074</ele>
        <time>2020-07-07T19:09:35.000Z</time>
      </trkpt>
      <trkpt lat="43.64303" lon="3.79814">
        <ele>60.789883268482</ele>
        <time>2020-07-07T19:09:36.000Z</time>
      </trkpt>
      <trkpt lat="43.64299" lon="3.79815">
        <ele>60.692607003891</ele>
        <time>2020-07-07T19:09:37.000Z</time>
      </trkpt>
      <trkpt lat="43.64294" lon="3.79817">
        <ele>60.5953307393</ele>
        <time>2020-07-07T19:09:38.000Z</time>
      </trkpt>
      <trkpt lat="43.6429" lon="3.79818">
        <ele>60.498054474708</ele>
        <time>2020-07-07T19:09:39.000Z</time>
      </trkpt>
      <trkpt lat="43.64286" lon="3.79819">
        <ele>60.400778210117</ele>
        <time>2020-07-07T19:09:40.000Z</time>
      </trkpt>
      <trkpt lat="43.64281" lon="3.79821">
        <ele>60.303501945525</ele>
        <time>2020-07-07T19:09:41.000Z</time>
      </trkpt>
      <trkpt lat="43.64277" lon="3.79823">
        <ele>60.206225680934</ele>
        <time>2020-07-07T19:09:42.000Z</time>
      </trkpt>
      <trkpt lat="43.64273" lon="3.79825">
        <ele>60.108949416342</ele>
        <time>2020-07-07T19:09:43.000Z</time>
      </trkpt>
      <trkpt lat="43.6427" lon="3.79827">
        <ele>60.011673151751</ele>
        <time>2020-07-07T19:09:44.000Z</time>
      </trkpt>
      <trkpt lat="43.64266" lon="3.7983">
        <ele>59.909465020576</ele>
        <time>2020-07-07T19:09:45.000Z</time>
      </trkpt>
      <trkpt lat="43.64263" lon="3.79833">
        <ele>59.80658436214</ele>
        <time>2020-07-07T19:09:46.000Z</time>
      </trkpt>
      <trkpt lat="43.64259" lon="3.79836">
        <ele>59.703703703704</ele>
        <time>2020-07-07T19:09:47.000Z</time>
      </trkpt>
      <trkpt lat="43.64256" lon="3.79838">
        <ele>59.600823045267</ele>
        <time>2020-07-07T19:09:48.000Z</time>
      </trkpt>
      <trkpt lat="43.64252" lon="3.79841">
        <ele>59.497942386831</ele>
        <time>2020-07-07T19:09:49.000Z</time>
      </trkpt>
      <trkpt lat="43.64248" lon="3.79843">
        <ele>59.395061728395</ele>
        <time>2020-07-07T19:09:50.000Z</time>
      </trkpt>
      <trkpt lat="43.64245" lon="3.79845">
        <ele>59.292181069959</ele>
        <time>2020-07-07T19:09:51.000Z</time>
      </trkpt>
      <trkpt lat="43.64242" lon="3.79848">
        <ele>59.189300411523</ele>
        <time>2020-07-07T19:09:52.000Z</time>
      </trkpt>
      <trkpt lat="43.64238" lon="3.79851">
        <ele>59.086419753086</ele>
        <time>2020-07-07T19:09:53.000Z</time>
      </trkpt>
      <trkpt lat="43.64234" lon="3.79854">
        <ele>59</ele>
        <time>2020-07-07T19:09:54.000Z</time>
      </trkpt>
      <trkpt lat="43.64231" lon="3.79856">
        <ele>59</ele>
        <time>2020-07-07T19:09:55.000Z</time>
      </trkpt>
      <trkpt lat="43.64227" lon="3.79859">
        <ele>59</ele>
        <time>2020-07-07T19:09:56.000Z</time>
      </trkpt>
      <trkpt lat="43.64224" lon="3.79862">
        <ele>59</ele>
        <time>2020-07-07T19:09:57.000Z</time>
      </trkpt>
      <trkpt lat="43.64222" lon="3.79866">
        <ele>59</ele>
        <time>2020-07-07T19:09:58.000Z</time>
      </trkpt>
      <trkpt lat="43.6422" lon="3.79872">
        <ele>59</ele>
        <time>2020-07-07T19:09:59.000Z</time>
      </trkpt>
      <trkpt lat="43.6422" lon="3.7988">
        <ele>59</ele>
        <time>2020-07-07T19:10:00.000Z</time>
      </trkpt>
      <trkpt lat="43.64219" lon="3.79888">
        <ele>59</ele>
        <time>2020-07-07T19:10:01.000Z</time>
      </trkpt>
      <trkpt lat="43.64218" lon="3.79894">
        <ele>59</ele>
        <time>2020-07-07T19:10:02.000Z</time>
      </trkpt>
      <trkpt lat="43.64214" lon="3.79898">
        <ele>59</ele>
        <time>2020-07-07T19:10:03.000Z</time>
      </trkpt>
      <trkpt lat="43.6421" lon="3.79899">
        <ele>59</ele>
        <time>2020-07-07T19:10:04.000Z</time>
      </trkpt>
      <trkpt lat="43.64207" lon="3.79898">
        <ele>59</ele>
        <time>2020-07-07T19:10:05.000Z</time>
      </trkpt>
      <trkpt lat="43.64202" lon="3.79897">
        <ele>59</ele>
        <time>2020-07-07T19:10:06.000Z</time>
      </trkpt>
      <trkpt lat="43.64198" lon="3.79896">
        <ele>59</ele>
        <time>2020-07-07T19:10:07.000Z</time>
      </trkpt>
      <trkpt lat="43.64193" lon="3.79897">
        <ele>59</ele>
        <time>2020-07-07T19:10:08.000Z</time>
      </trkpt>
      <trkpt lat="43.64188" lon="3.79899">
        <ele>59</ele>
        <time>2020-07-07T19:10:09.000Z</time>
      </trkpt>
      <trkpt lat="43.64184" lon="3.79902">
        <ele>59</ele>
        <time>2020-07-07T19:10:10.000Z</time>
      </trkpt>
      <trkpt lat="43.64179" lon="3.79906">
        <ele>59</ele>
        <time>2020-07-07T19:10:11.000Z</time>
      </trkpt>
      <trkpt lat="43.64175" lon="3.79909">
        <ele>59</ele>
        <time>2020-07-07T19:10:12.000Z</time>
      </trkpt>
      <trkpt lat="43.64171" lon="3.79912">
        <ele>59</ele>
        <time>2020-07-07T19:10:13.000Z</time>
      </trkpt>
      <trkpt lat="43.64167" lon="3.79915">
        <ele>58.984984669474</ele>
        <time>2020-07-07T19:10:14.000Z</time>
      </trkpt>
      <trkpt lat="43.64164" lon="3.79917">
        <ele>58.884884601438</ele>
        <time>2020-07-07T19:10:15.000Z</time>
      </trkpt>
      <trkpt lat="43.6416" lon="3.7992">
        <ele>58.784784533402</ele>
        <time>2020-07-07T19:10:16.000Z</time>
      </trkpt>
      <trkpt lat="43.64157" lon="3.79923">
        <ele>58.684684465366</ele>
        <time>2020-07-07T19:10:17.000Z</time>
      </trkpt>
      <trkpt lat="43.64153" lon="3.79926">
        <ele>58.58458439733</ele>
        <time>2020-07-07T19:10:18.000Z</time>
      </trkpt>
      <trkpt lat="43.6415" lon="3.7993">
        <ele>58.484484329294</ele>
        <time>2020-07-07T19:10:19.000Z</time>
      </trkpt>
      <trkpt lat="43.64147" lon="3.79933">
        <ele>58.384384261258</ele>
        <time>2020-07-07T19:10:20.000Z</time>
      </trkpt>
      <trkpt lat="43.64143" lon="3.79936">
        <ele>58.284284193222</ele>
        <time>2020-07-07T19:10:21.000Z</time>
      </trkpt>
      <trkpt lat="43.64139" lon="3.79939">
        <ele>58.184184125186</ele>
        <time>2020-07-07T19:10:22.000Z</time>
      </trkpt>
      <trkpt lat="43.64135" lon="3.79942">
        <ele>58.08408405715</ele>
        <time>2020-07-07T19:10:23.000Z</time>
      </trkpt>
      <trkpt lat="43.64131" lon="3.79945">
        <ele>58</ele>
        <time>2020-07-07T19:10:24.000Z</time>
      </trkpt>
      <trkpt lat="43.64127" lon="3.79947">
        <ele>58</ele>
        <time>2020-07-07T19:10:25.000Z</time>
      </trkpt>
      <trkpt lat="43.64123" lon="3.7995">
        <ele>58</ele>
        <time>2020-07-07T19:10:26.000Z</time>
      </trkpt>
      <trkpt lat="43.64119" lon="3.79953">
        <ele>58</ele>
        <time>2020-07-07T19:10:27.000Z</time>
      </trkpt>
      <trkpt lat="43.64115" lon="3.79956">
        <ele>58</ele>
        <time>2020-07-07T19:10:28.000Z</time>
      </trkpt>
      <trkpt lat="43.64111" lon="3.79959">
        <ele>58</ele>
        <time>2020-07-07T19:10:29.000Z</time>
      </trkpt>
      <trkpt lat="43.64107" lon="3.79963">
        <ele>58</ele>
        <time>2020-07-07T19:10:30.000Z</time>
      </trkpt>
      <trkpt lat="43.64104" lon="3.79966">
        <ele>58</ele>
        <time>2020-07-07T19:10:31.000Z</time>
      </trkpt>
      <trkpt lat="43.641" lon="3.7997">
        <ele>58</ele>
        <time>2020-07-07T19:10:32.000Z</time>
      </trkpt>
      <trkpt lat="43.64095" lon="3.79973">
        <ele>58</ele>
        <time>2020-07-07T19:10:33.000Z</time>
      </trkpt>
      <trkpt lat="43.64091" lon="3.79976">
        <ele>58</ele>
        <time>2020-07-07T19:10:34.000Z</time>
      </trkpt>
      <trkpt lat="43.64087" lon="3.79979">
        <ele>57.915662650602</ele>
        <time>2020-07-07T19:10:35.000Z</time>
      </trkpt>
      <trkpt lat="43.64083" lon="3.79982">
        <ele>57.815261044177</ele>
        <time>2020-07-07T19:10:36.000Z</time>
      </trkpt>
      <trkpt lat="43.64079" lon="3.79986">
        <ele>57.714859437751</ele>
        <time>2020-07-07T19:10:37.000Z</time>
      </trkpt>
      <trkpt lat="43.64074" lon="3.79989">
        <ele>57.614457831325</ele>
        <time>2020-07-07T19:10:38.000Z</time>
      </trkpt>
      <trkpt lat="43.6407" lon="3.79992">
        <ele>57.5140562249</ele>
        <time>2020-07-07T19:10:39.000Z</time>
      </trkpt>
      <trkpt lat="43.64066" lon="3.79995">
        <ele>57.413654618474</ele>
        <time>2020-07-07T19:10:40.000Z</time>
      </trkpt>
      <trkpt lat="43.64062" lon="3.79998">
        <ele>57.313253012048</ele>
        <time>2020-07-07T19:10:41.000Z</time>
      </trkpt>
      <trkpt lat="43.64058" lon="3.80001">
        <ele>57.212851405623</ele>
        <time>2020-07-07T19:10:42.000Z</time>
      </trkpt>
      <trkpt lat="43.64053" lon="3.80004">
        <ele>57.112449799197</ele>
        <time>2020-07-07T19:10:43.000Z</time>
      </trkpt>
      <trkpt lat="43.64049" lon="3.80007">
        <ele>57.012048192771</ele>
        <time>2020-07-07T19:10:44.000Z</time>
      </trkpt>
      <trkpt lat="43.64045" lon="3.8001">
        <ele>57</ele>
        <time>2020-07-07T19:10:45.000Z</time>
      </trkpt>
      <trkpt lat="43.64041" lon="3.80014">
        <ele>57</ele>
        <time>2020-07-07T19:10:46.000Z</time>
      </trkpt>
      <trkpt lat="43.64037" lon="3.80017">
        <ele>57</ele>
        <time>2020-07-07T19:10:47.000Z</time>
      </trkpt>
      <trkpt lat="43.64033" lon="3.8002">
        <ele>57</ele>
        <time>2020-07-07T19:10:48.000Z</time>
      </trkpt>
      <trkpt lat="43.64029" lon="3.80023">
        <ele>57</ele>
        <time>2020-07-07T19:10:49.000Z</time>
      </trkpt>
      <trkpt lat="43.64025" lon="3.80026">
        <ele>57</ele>
        <time>2020-07-07T19:10:50.000Z</time>
      </trkpt>
      <trkpt lat="43.64021" lon="3.80029">
        <ele>57</ele>
        <time>2020-07-07T19:10:51.000Z</time>
      </trkpt>
      <trkpt lat="43.64017" lon="3.80033">
        <ele>57</ele>
        <time>2020-07-07T19:10:52.000Z</time>
      </trkpt>
      <trkpt lat="43.64013" lon="3.80036">
        <ele>57</ele>
        <time>2020-07-07T19:10:53.000Z</time>
      </trkpt>
      <trkpt lat="43.64009" lon="3.80039">
        <ele>56.984</ele>
        <time>2020-07-07T19:10:54.000Z</time>
      </trkpt>
      <trkpt lat="43.64006" lon="3.80042">
        <ele>56.884</ele>
        <time>2020-07-07T19:10:55.000Z</time>
      </trkpt>
      <trkpt lat="43.64002" lon="3.80044">
        <ele>56.784</ele>
        <time>2020-07-07T19:10:56.000Z</time>
      </trkpt>
      <trkpt lat="43.63998" lon="3.80047">
        <ele>56.684</ele>
        <time>2020-07-07T19:10:57.000Z</time>
      </trkpt>
      <trkpt lat="43.63993" lon="3.8005">
        <ele>56.584</ele>
        <time>2020-07-07T19:10:58.000Z</time>
      </trkpt>
      <trkpt lat="43.63989" lon="3.80053">
        <ele>56.484</ele>
        <time>2020-07-07T19:10:59.000Z</time>
      </trkpt>
      <trkpt lat="43.63985" lon="3.80056">
        <ele>56.384</ele>
        <time>2020-07-07T19:11:00.000Z</time>
      </trkpt>
      <trkpt lat="43.63982" lon="3.80058">
        <ele>56.284</ele>
        <time>2020-07-07T19:11:01.000Z</time>
      </trkpt>
      <trkpt lat="43.63978" lon="3.8006">
        <ele>56.184</ele>
        <time>2020-07-07T19:11:02.000Z</time>
      </trkpt>
      <trkpt lat="43.63974" lon="3.80062">
        <ele>56.084</ele>
        <time>2020-07-07T19:11:03.000Z</time>
      </trkpt>
      <trkpt lat="43.6397" lon="3.80065">
        <ele>56.01553397093</ele>
        <time>2020-07-07T19:11:04.000Z</time>
      </trkpt>
      <trkpt lat="43.63966" lon="3.80067">
        <ele>56.112621289245</ele>
        <time>2020-07-07T19:11:05.000Z</time>
      </trkpt>
      <trkpt lat="43.63962" lon="3.80069">
        <ele>56.20970860756</ele>
        <time>2020-07-07T19:11:06.000Z</time>
      </trkpt>
      <trkpt lat="43.63958" lon="3.80071">
        <ele>56.306795925874</ele>
        <time>2020-07-07T19:11:07.000Z</time>
      </trkpt>
      <trkpt lat="43.63954" lon="3.80073">
        <ele>56.403883244189</ele>
        <time>2020-07-07T19:11:08.000Z</time>
      </trkpt>
      <trkpt lat="43.63951" lon="3.80076">
        <ele>56.500970562504</ele>
        <time>2020-07-07T19:11:09.000Z</time>
      </trkpt>
      <trkpt lat="43.63947" lon="3.80078">
        <ele>56.598057880818</ele>
        <time>2020-07-07T19:11:10.000Z</time>
      </trkpt>
      <trkpt lat="43.63943" lon="3.80081">
        <ele>56.695145199133</ele>
        <time>2020-07-07T19:11:11.000Z</time>
      </trkpt>
      <trkpt lat="43.63939" lon="3.80083">
        <ele>56.792232517448</ele>
        <time>2020-07-07T19:11:12.000Z</time>
      </trkpt>
      <trkpt lat="43.63935" lon="3.80086">
        <ele>56.889319835762</ele>
        <time>2020-07-07T19:11:13.000Z</time>
      </trkpt>
      <trkpt lat="43.6393" lon="3.80088">
        <ele>56.986407154077</ele>
        <time>2020-07-07T19:11:14.000Z</time>
      </trkpt>
      <trkpt lat="43.63926" lon="3.8009">
        <ele>57</ele>
        <time>2020-07-07T19:11:15.000Z</time>
      </trkpt>
      <trkpt lat="43.63922" lon="3.80093">
        <ele>57</ele>
        <time>2020-07-07T19:11:16.000Z</time>
      </trkpt>
      <trkpt lat="43.63918" lon="3.80095">
        <ele>57</ele>
        <time>2020-07-07T19:11:17.000Z</time>
      </trkpt>
      <trkpt lat="43.63914" lon="3.80096">
        <ele>57</ele>
        <time>2020-07-07T19:11:18.000Z</time>
      </trkpt>
      <trkpt lat="43.6391" lon="3.80098">
        <ele>57</ele>
        <time>2020-07-07T19:11:19.000Z</time>
      </trkpt>
      <trkpt lat="43.63906" lon="3.801">
        <ele>57</ele>
        <time>2020-07-07T19:11:20.000Z</time>
      </trkpt>
      <trkpt lat="43.63902" lon="3.80101">
        <ele>57</ele>
        <time>2020-07-07T19:11:21.000Z</time>
      </trkpt>
      <trkpt lat="43.63898" lon="3.80103">
        <ele>57</ele>
        <time>2020-07-07T19:11:22.000Z</time>
      </trkpt>
      <trkpt lat="43.63894" lon="3.80104">
        <ele>57</ele>
        <time>2020-07-07T19:11:23.000Z</time>
      </trkpt>
      <trkpt lat="43.6389" lon="3.80107">
        <ele>57.016</ele>
        <time>2020-07-07T19:11:24.000Z</time>
      </trkpt>
      <trkpt lat="43.63887" lon="3.8011">
        <ele>57.116</ele>
        <time>2020-07-07T19:11:25.000Z</time>
      </trkpt>
      <trkpt lat="43.63884" lon="3.80113">
        <ele>57.216</ele>
        <time>2020-07-07T19:11:26.000Z</time>
      </trkpt>
      <trkpt lat="43.63883" lon="3.80117">
        <ele>57.316</ele>
        <time>2020-07-07T19:11:27.000Z</time>
      </trkpt>
      <trkpt lat="43.63881" lon="3.80122">
        <ele>57.416</ele>
        <time>2020-07-07T19:11:28.000Z</time>
      </trkpt>
      <trkpt lat="43.63879" lon="3.80126">
        <ele>57.516</ele>
        <time>2020-07-07T19:11:29.000Z</time>
      </trkpt>
      <trkpt lat="43.63877" lon="3.8013">
        <ele>57.616</ele>
        <time>2020-07-07T19:11:30.000Z</time>
      </trkpt>
      <trkpt lat="43.63874" lon="3.80134">
        <ele>57.716</ele>
        <time>2020-07-07T19:11:31.000Z</time>
      </trkpt>
      <trkpt lat="43.63872" lon="3.80137">
        <ele>57.816</ele>
        <time>2020-07-07T19:11:32.000Z</time>
      </trkpt>
      <trkpt lat="43.63871" lon="3.8014">
        <ele>57.916</ele>
        <time>2020-07-07T19:11:33.000Z</time>
      </trkpt>
      <trkpt lat="43.63869" lon="3.80143">
        <ele>58.032</ele>
        <time>2020-07-07T19:11:34.000Z</time>
      </trkpt>
      <trkpt lat="43.63867" lon="3.80146">
        <ele>58.232</ele>
        <time>2020-07-07T19:11:35.000Z</time>
      </trkpt>
      <trkpt lat="43.63866" lon="3.80149">
        <ele>58.432</ele>
        <time>2020-07-07T19:11:36.000Z</time>
      </trkpt>
      <trkpt lat="43.63864" lon="3.80151">
        <ele>58.632</ele>
        <time>2020-07-07T19:11:37.000Z</time>
      </trkpt>
      <trkpt lat="43.63863" lon="3.80154">
        <ele>58.832</ele>
        <time>2020-07-07T19:11:38.000Z</time>
      </trkpt>
      <trkpt lat="43.63862" lon="3.80157">
        <ele>59.032</ele>
        <time>2020-07-07T19:11:39.000Z</time>
      </trkpt>
      <trkpt lat="43.6386" lon="3.8016">
        <ele>59.232</ele>
        <time>2020-07-07T19:11:40.000Z</time>
      </trkpt>
      <trkpt lat="43.63858" lon="3.80163">
        <ele>59.432</ele>
        <time>2020-07-07T19:11:41.000Z</time>
      </trkpt>
      <trkpt lat="43.63856" lon="3.80166">
        <ele>59.632</ele>
        <time>2020-07-07T19:11:42.000Z</time>
      </trkpt>
      <trkpt lat="43.63854" lon="3.80169">
        <ele>59.832</ele>
        <time>2020-07-07T19:11:43.000Z</time>
      </trkpt>
      <trkpt lat="43.63852" lon="3.80172">
        <ele>60.016</ele>
        <time>2020-07-07T19:11:44.000Z</time>
      </trkpt>
      <trkpt lat="43.6385" lon="3.80175">
        <ele>60.116</ele>
        <time>2020-07-07T19:11:45.000Z</time>
      </trkpt>
      <trkpt lat="43.63849" lon="3.80179">
        <ele>60.216</ele>
        <time>2020-07-07T19:11:46.000Z</time>
      </trkpt>
      <trkpt lat="43.63847" lon="3.80183">
        <ele>60.316</ele>
        <time>2020-07-07T19:11:47.000Z</time>
      </trkpt>
      <trkpt lat="43.63846" lon="3.80187">
        <ele>60.416</ele>
        <time>2020-07-07T19:11:48.000Z</time>
      </trkpt>
      <trkpt lat="43.63845" lon="3.8019">
        <ele>60.516</ele>
        <time>2020-07-07T19:11:49.000Z</time>
      </trkpt>
      <trkpt lat="43.63844" lon="3.80194">
        <ele>60.616</ele>
        <time>2020-07-07T19:11:50.000Z</time>
      </trkpt>
      <trkpt lat="43.63843" lon="3.80198">
        <ele>60.716</ele>
        <time>2020-07-07T19:11:51.000Z</time>
      </trkpt>
      <trkpt lat="43.63843" lon="3.80202">
        <ele>60.816</ele>
        <time>2020-07-07T19:11:52.000Z</time>
      </trkpt>
      <trkpt lat="43.63842" lon="3.80206">
        <ele>60.916</ele>
        <time>2020-07-07T19:11:53.000Z</time>
      </trkpt>
      <trkpt lat="43.63842" lon="3.8021">
        <ele>61</ele>
        <time>2020-07-07T19:11:54.000Z</time>
      </trkpt>
      <trkpt lat="43.63842" lon="3.80214">
        <ele>61</ele>
        <time>2020-07-07T19:11:55.000Z</time>
      </trkpt>
      <trkpt lat="43.63842" lon="3.80217">
        <ele>61</ele>
        <time>2020-07-07T19:11:56.000Z</time>
      </trkpt>
      <trkpt lat="43.63841" lon="3.80221">
        <ele>61</ele>
        <time>2020-07-07T19:11:57.000Z</time>
      </trkpt>
      <trkpt lat="43.63841" lon="3.80225">
        <ele>61</ele>
        <time>2020-07-07T19:11:58.000Z</time>
      </trkpt>
      <trkpt lat="43.63841" lon="3.80229">
        <ele>61</ele>
        <time>2020-07-07T19:11:59.000Z</time>
      </trkpt>
      <trkpt lat="43.63841" lon="3.80232">
        <ele>61</ele>
        <time>2020-07-07T19:12:00.000Z</time>
      </trkpt>
      <trkpt lat="43.63841" lon="3.80236">
        <ele>61</ele>
        <time>2020-07-07T19:12:01.000Z</time>
      </trkpt>
      <trkpt lat="43.63841" lon="3.80241">
        <ele>61</ele>
        <time>2020-07-07T19:12:02.000Z</time>
      </trkpt>
      <trkpt lat="43.63841" lon="3.80245">
        <ele>61</ele>
        <time>2020-07-07T19:12:03.000Z</time>
      </trkpt>
      <trkpt lat="43.63841" lon="3.80249">
        <ele>61</ele>
        <time>2020-07-07T19:12:04.000Z</time>
      </trkpt>
      <trkpt lat="43.63842" lon="3.80254">
        <ele>61</ele>
        <time>2020-07-07T19:12:05.000Z</time>
      </trkpt>
      <trkpt lat="43.63843" lon="3.80258">
        <ele>61</ele>
        <time>2020-07-07T19:12:06.000Z</time>
      </trkpt>
      <trkpt lat="43.63844" lon="3.80262">
        <ele>61</ele>
        <time>2020-07-07T19:12:07.000Z</time>
      </trkpt>
      <trkpt lat="43.63845" lon="3.80266">
        <ele>61</ele>
        <time>2020-07-07T19:12:08.000Z</time>
      </trkpt>
      <trkpt lat="43.63847" lon="3.8027">
        <ele>61</ele>
        <time>2020-07-07T19:12:09.000Z</time>
      </trkpt>
      <trkpt lat="43.63849" lon="3.80274">
        <ele>61</ele>
        <time>2020-07-07T19:12:10.000Z</time>
      </trkpt>
      <trkpt lat="43.63851" lon="3.80278">
        <ele>61</ele>
        <time>2020-07-07T19:12:11.000Z</time>
      </trkpt>
      <trkpt lat="43.63853" lon="3.80282">
        <ele>61</ele>
        <time>2020-07-07T19:12:12.000Z</time>
      </trkpt>
      <trkpt lat="43.63855" lon="3.80286">
        <ele>61</ele>
        <time>2020-07-07T19:12:13.000Z</time>
      </trkpt>
      <trkpt lat="43.63856" lon="3.8029">
        <ele>61</ele>
        <time>2020-07-07T19:12:14.000Z</time>
      </trkpt>
      <trkpt lat="43.63858" lon="3.80295">
        <ele>61</ele>
        <time>2020-07-07T19:12:15.000Z</time>
      </trkpt>
      <trkpt lat="43.6386" lon="3.80299">
        <ele>61</ele>
        <time>2020-07-07T19:12:16.000Z</time>
      </trkpt>
      <trkpt lat="43.63861" lon="3.80303">
        <ele>61</ele>
        <time>2020-07-07T19:12:17.000Z</time>
      </trkpt>
      <trkpt lat="43.63863" lon="3.80308">
        <ele>61</ele>
        <time>2020-07-07T19:12:18.000Z</time>
      </trkpt>
      <trkpt lat="43.63865" lon="3.80312">
        <ele>61</ele>
        <time>2020-07-07T19:12:19.000Z</time>
      </trkpt>
      <trkpt lat="43.63866" lon="3.80317">
        <ele>61</ele>
        <time>2020-07-07T19:12:20.000Z</time>
      </trkpt>
      <trkpt lat="43.63868" lon="3.80322">
        <ele>61</ele>
        <time>2020-07-07T19:12:21.000Z</time>
      </trkpt>
      <trkpt lat="43.63869" lon="3.80327">
        <ele>61</ele>
        <time>2020-07-07T19:12:22.000Z</time>
      </trkpt>
      <trkpt lat="43.63871" lon="3.80331">
        <ele>61</ele>
        <time>2020-07-07T19:12:23.000Z</time>
      </trkpt>
      <trkpt lat="43.63873" lon="3.80336">
        <ele>60.984</ele>
        <time>2020-07-07T19:12:24.000Z</time>
      </trkpt>
      <trkpt lat="43.63875" lon="3.80341">
        <ele>60.884</ele>
        <time>2020-07-07T19:12:25.000Z</time>
      </trkpt>
      <trkpt lat="43.63877" lon="3.80345">
        <ele>60.784</ele>
        <time>2020-07-07T19:12:26.000Z</time>
      </trkpt>
      <trkpt lat="43.63879" lon="3.8035">
        <ele>60.684</ele>
        <time>2020-07-07T19:12:27.000Z</time>
      </trkpt>
      <trkpt lat="43.63881" lon="3.80355">
        <ele>60.584</ele>
        <time>2020-07-07T19:12:28.000Z</time>
      </trkpt>
      <trkpt lat="43.63883" lon="3.80359">
        <ele>60.484</ele>
        <time>2020-07-07T19:12:29.000Z</time>
      </trkpt>
      <trkpt lat="43.63885" lon="3.80364">
        <ele>60.384</ele>
        <time>2020-07-07T19:12:30.000Z</time>
      </trkpt>
      <trkpt lat="43.63887" lon="3.80369">
        <ele>60.284</ele>
        <time>2020-07-07T19:12:31.000Z</time>
      </trkpt>
      <trkpt lat="43.6389" lon="3.80373">
        <ele>60.184</ele>
        <time>2020-07-07T19:12:32.000Z</time>
      </trkpt>
      <trkpt lat="43.63892" lon="3.80377">
        <ele>60.084</ele>
        <time>2020-07-07T19:12:33.000Z</time>
      </trkpt>
      <trkpt lat="43.63894" lon="3.80382">
        <ele>60</ele>
        <time>2020-07-07T19:12:34.000Z</time>
      </trkpt>
      <trkpt lat="43.63896" lon="3.80387">
        <ele>60</ele>
        <time>2020-07-07T19:12:35.000Z</time>
      </trkpt>
      <trkpt lat="43.63898" lon="3.80392">
        <ele>60</ele>
        <time>2020-07-07T19:12:36.000Z</time>
      </trkpt>
      <trkpt lat="43.639" lon="3.80397">
        <ele>60</ele>
        <time>2020-07-07T19:12:37.000Z</time>
      </trkpt>
      <trkpt lat="43.63902" lon="3.80403">
        <ele>60</ele>
        <time>2020-07-07T19:12:38.000Z</time>
      </trkpt>
      <trkpt lat="43.63904" lon="3.80408">
        <ele>60</ele>
        <time>2020-07-07T19:12:39.000Z</time>
      </trkpt>
      <trkpt lat="43.63906" lon="3.80413">
        <ele>60</ele>
        <time>2020-07-07T19:12:40.000Z</time>
      </trkpt>
      <trkpt lat="43.63908" lon="3.80419">
        <ele>60</ele>
        <time>2020-07-07T19:12:41.000Z</time>
      </trkpt>
      <trkpt lat="43.6391" lon="3.80424">
        <ele>60</ele>
        <time>2020-07-07T19:12:42.000Z</time>
      </trkpt>
      <trkpt lat="43.63912" lon="3.8043">
        <ele>60</ele>
        <time>2020-07-07T19:12:43.000Z</time>
      </trkpt>
      <trkpt lat="43.63914" lon="3.80435">
        <ele>59.984</ele>
        <time>2020-07-07T19:12:44.000Z</time>
      </trkpt>
      <trkpt lat="43.63916" lon="3.80441">
        <ele>59.884</ele>
        <time>2020-07-07T19:12:45.000Z</time>
      </trkpt>
      <trkpt lat="43.63918" lon="3.80447">
        <ele>59.784</ele>
        <time>2020-07-07T19:12:46.000Z</time>
      </trkpt>
      <trkpt lat="43.63919" lon="3.80453">
        <ele>59.684</ele>
        <time>2020-07-07T19:12:47.000Z</time>
      </trkpt>
      <trkpt lat="43.6392" lon="3.80458">
        <ele>59.584</ele>
        <time>2020-07-07T19:12:48.000Z</time>
      </trkpt>
      <trkpt lat="43.63919" lon="3.80464">
        <ele>59.484</ele>
        <time>2020-07-07T19:12:49.000Z</time>
      </trkpt>
      <trkpt lat="43.63919" lon="3.80471">
        <ele>59.384</ele>
        <time>2020-07-07T19:12:50.000Z</time>
      </trkpt>
      <trkpt lat="43.63918" lon="3.80478">
        <ele>59.284</ele>
        <time>2020-07-07T19:12:51.000Z</time>
      </trkpt>
      <trkpt lat="43.63916" lon="3.80485">
        <ele>59.184</ele>
        <time>2020-07-07T19:12:52.000Z</time>
      </trkpt>
      <trkpt lat="43.63915" lon="3.80492">
        <ele>59.084</ele>
        <time>2020-07-07T19:12:53.000Z</time>
      </trkpt>
      <trkpt lat="43.63914" lon="3.80499">
        <ele>58.984</ele>
        <time>2020-07-07T19:12:54.000Z</time>
      </trkpt>
      <trkpt lat="43.63913" lon="3.80506">
        <ele>58.884</ele>
        <time>2020-07-07T19:12:55.000Z</time>
      </trkpt>
      <trkpt lat="43.63912" lon="3.80514">
        <ele>58.784</ele>
        <time>2020-07-07T19:12:56.000Z</time>
      </trkpt>
      <trkpt lat="43.63912" lon="3.80521">
        <ele>58.684</ele>
        <time>2020-07-07T19:12:57.000Z</time>
      </trkpt>
      <trkpt lat="43.63911" lon="3.80529">
        <ele>58.584</ele>
        <time>2020-07-07T19:12:58.000Z</time>
      </trkpt>
      <trkpt lat="43.63911" lon="3.80537">
        <ele>58.484</ele>
        <time>2020-07-07T19:12:59.000Z</time>
      </trkpt>
      <trkpt lat="43.63911" lon="3.80545">
        <ele>58.384</ele>
        <time>2020-07-07T19:13:00.000Z</time>
      </trkpt>
      <trkpt lat="43.6391" lon="3.80553">
        <ele>58.284</ele>
        <time>2020-07-07T19:13:01.000Z</time>
      </trkpt>
      <trkpt lat="43.6391" lon="3.8056">
        <ele>58.184</ele>
        <time>2020-07-07T19:13:02.000Z</time>
      </trkpt>
      <trkpt lat="43.63911" lon="3.80567">
        <ele>58.084</ele>
        <time>2020-07-07T19:13:03.000Z</time>
      </trkpt>
      <trkpt lat="43.63911" lon="3.80575">
        <ele>57.984</ele>
        <time>2020-07-07T19:13:04.000Z</time>
      </trkpt>
      <trkpt lat="43.6391" lon="3.80582">
        <ele>57.884</ele>
        <time>2020-07-07T19:13:05.000Z</time>
      </trkpt>
      <trkpt lat="43.63911" lon="3.8059">
        <ele>57.784</ele>
        <time>2020-07-07T19:13:06.000Z</time>
      </trkpt>
      <trkpt lat="43.63911" lon="3.80597">
        <ele>57.684</ele>
        <time>2020-07-07T19:13:07.000Z</time>
      </trkpt>
      <trkpt lat="43.63911" lon="3.80604">
        <ele>57.584</ele>
        <time>2020-07-07T19:13:08.000Z</time>
      </trkpt>
      <trkpt lat="43.63911" lon="3.80612">
        <ele>57.484</ele>
        <time>2020-07-07T19:13:09.000Z</time>
      </trkpt>
      <trkpt lat="43.63911" lon="3.80619">
        <ele>57.384</ele>
        <time>2020-07-07T19:13:10.000Z</time>
      </trkpt>
      <trkpt lat="43.63911" lon="3.80626">
        <ele>57.284</ele>
        <time>2020-07-07T19:13:11.000Z</time>
      </trkpt>
      <trkpt lat="43.6391" lon="3.80633">
        <ele>57.184</ele>
        <time>2020-07-07T19:13:12.000Z</time>
      </trkpt>
      <trkpt lat="43.6391" lon="3.80641">
        <ele>57.084</ele>
        <time>2020-07-07T19:13:13.000Z</time>
      </trkpt>
      <trkpt lat="43.6391" lon="3.80648">
        <ele>56.968</ele>
        <time>2020-07-07T19:13:14.000Z</time>
      </trkpt>
      <trkpt lat="43.6391" lon="3.80655">
        <ele>56.768</ele>
        <time>2020-07-07T19:13:15.000Z</time>
      </trkpt>
      <trkpt lat="43.6391" lon="3.80662">
        <ele>56.568</ele>
        <time>2020-07-07T19:13:16.000Z</time>
      </trkpt>
      <trkpt lat="43.63909" lon="3.80668">
        <ele>56.368</ele>
        <time>2020-07-07T19:13:17.000Z</time>
      </trkpt>
      <trkpt lat="43.63909" lon="3.80675">
        <ele>56.168</ele>
        <time>2020-07-07T19:13:18.000Z</time>
      </trkpt>
      <trkpt lat="43.63908" lon="3.80682">
        <ele>55.968</ele>
        <time>2020-07-07T19:13:19.000Z</time>
      </trkpt>
      <trkpt lat="43.63908" lon="3.80689">
        <ele>55.768</ele>
        <time>2020-07-07T19:13:20.000Z</time>
      </trkpt>
      <trkpt lat="43.63908" lon="3.80695">
        <ele>55.568</ele>
        <time>2020-07-07T19:13:21.000Z</time>
      </trkpt>
      <trkpt lat="43.63909" lon="3.80702">
        <ele>55.368</ele>
        <time>2020-07-07T19:13:22.000Z</time>
      </trkpt>
      <trkpt lat="43.63909" lon="3.80708">
        <ele>55.168</ele>
        <time>2020-07-07T19:13:23.000Z</time>
      </trkpt>
      <trkpt lat="43.63907" lon="3.80714">
        <ele>55</ele>
        <time>2020-07-07T19:13:24.000Z</time>
      </trkpt>
      <trkpt lat="43.63903" lon="3.80718">
        <ele>55</ele>
        <time>2020-07-07T19:13:25.000Z</time>
      </trkpt>
      <trkpt lat="43.63899" lon="3.80721">
        <ele>55</ele>
        <time>2020-07-07T19:13:26.000Z</time>
      </trkpt>
      <trkpt lat="43.63896" lon="3.80723">
        <ele>55</ele>
        <time>2020-07-07T19:13:27.000Z</time>
      </trkpt>
      <trkpt lat="43.63893" lon="3.80725">
        <ele>55</ele>
        <time>2020-07-07T19:13:28.000Z</time>
      </trkpt>
      <trkpt lat="43.6389" lon="3.80726">
        <ele>55</ele>
        <time>2020-07-07T19:13:29.000Z</time>
      </trkpt>
      <trkpt lat="43.63887" lon="3.80725">
        <ele>55</ele>
        <time>2020-07-07T19:13:35.000Z</time>
      </trkpt>
      <trkpt lat="43.63885" lon="3.80724">
        <ele>55</ele>
        <time>2020-07-07T19:13:38.000Z</time>
      </trkpt>
      <trkpt lat="43.63883" lon="3.80723">
        <ele>55.742733689639</ele>
        <time>2020-07-07T19:13:42.000Z</time>
      </trkpt>
      <trkpt lat="43.63881" lon="3.80723">
        <ele>56.173304343872</ele>
        <time>2020-07-07T19:13:44.000Z</time>
      </trkpt>
      <trkpt lat="43.6388" lon="3.80721">
        <ele>57</ele>
        <time>2020-07-07T19:13:51.000Z</time>
      </trkpt>
      <trkpt lat="43.63876" lon="3.80727">
        <ele>58.951142164621</ele>
        <time>2020-07-07T19:14:04.000Z</time>
      </trkpt>
      <trkpt lat="43.63875" lon="3.80728">
        <ele>58.897897799782</ele>
        <time>2020-07-07T19:14:05.000Z</time>
      </trkpt>
      <trkpt lat="43.63874" lon="3.80728">
        <ele>58</ele>
        <time>2020-07-07T19:14:11.000Z</time>
      </trkpt>
      <trkpt lat="43.63868" lon="3.80737">
        <ele>58.994509554319</ele>
        <time>2020-07-07T19:14:24.000Z</time>
      </trkpt>
      <trkpt lat="43.63868" lon="3.80738">
        <ele>59</ele>
        <time>2020-07-07T19:14:25.000Z</time>
      </trkpt>
      <trkpt lat="43.63868" lon="3.80738">
        <ele>59</ele>
        <time>2020-07-07T19:14:29.000Z</time>
      </trkpt>
      <trkpt lat="43.63865" lon="3.80743">
        <ele>58.0219851346</ele>
        <time>2020-07-07T19:14:44.000Z</time>
      </trkpt>
      <trkpt lat="43.63865" lon="3.80745">
        <ele>57.930525688909</ele>
        <time>2020-07-07T19:14:45.000Z</time>
      </trkpt>
      <trkpt lat="43.63865" lon="3.80749">
        <ele>57.719999514948</ele>
        <time>2020-07-07T19:14:47.000Z</time>
      </trkpt>
      <trkpt lat="43.63863" lon="3.80752">
        <ele>57.509473340986</ele>
        <time>2020-07-07T19:14:49.000Z</time>
      </trkpt>
      <trkpt lat="43.63862" lon="3.80756">
        <ele>57.298947167025</ele>
        <time>2020-07-07T19:14:51.000Z</time>
      </trkpt>
      <trkpt lat="43.63861" lon="3.80759">
        <ele>57.193684080044</ele>
        <time>2020-07-07T19:14:52.000Z</time>
      </trkpt>
      <trkpt lat="43.6386" lon="3.80762">
        <ele>57.088420993064</ele>
        <time>2020-07-07T19:14:53.000Z</time>
      </trkpt>
      <trkpt lat="43.6386" lon="3.80765">
        <ele>56.984435797665</ele>
        <time>2020-07-07T19:14:54.000Z</time>
      </trkpt>
      <trkpt lat="43.63858" lon="3.80767">
        <ele>56.887159533074</ele>
        <time>2020-07-07T19:14:55.000Z</time>
      </trkpt>
      <trkpt lat="43.63857" lon="3.80769">
        <ele>56.789883268482</ele>
        <time>2020-07-07T19:14:56.000Z</time>
      </trkpt>
      <trkpt lat="43.63856" lon="3.80772">
        <ele>56.692607003891</ele>
        <time>2020-07-07T19:14:57.000Z</time>
      </trkpt>
      <trkpt lat="43.63855" lon="3.80774">
        <ele>56.5953307393</ele>
        <time>2020-07-07T19:14:58.000Z</time>
      </trkpt>
      <trkpt lat="43.63854" lon="3.80776">
        <ele>56.498054474708</ele>
        <time>2020-07-07T19:14:59.000Z</time>
      </trkpt>
      <trkpt lat="43.63852" lon="3.8078">
        <ele>56.303501945525</ele>
        <time>2020-07-07T19:15:01.000Z</time>
      </trkpt>
      <trkpt lat="43.6385" lon="3.80784">
        <ele>56.108949416342</ele>
        <time>2020-07-07T19:15:03.000Z</time>
      </trkpt>
      <trkpt lat="43.63849" lon="3.80789">
        <ele>55.909465020576</ele>
        <time>2020-07-07T19:15:05.000Z</time>
      </trkpt>
      <trkpt lat="43.63847" lon="3.80791">
        <ele>55.80658436214</ele>
        <time>2020-07-07T19:15:06.000Z</time>
      </trkpt>
      <trkpt lat="43.63845" lon="3.80794">
        <ele>55.703703703704</ele>
        <time>2020-07-07T19:15:07.000Z</time>
      </trkpt>
      <trkpt lat="43.63842" lon="3.80795">
        <ele>55.600823045267</ele>
        <time>2020-07-07T19:15:08.000Z</time>
      </trkpt>
      <trkpt lat="43.6384" lon="3.80796">
        <ele>55.395061728395</ele>
        <time>2020-07-07T19:15:10.000Z</time>
      </trkpt>
      <trkpt lat="43.6384" lon="3.808">
        <ele>55.086419753086</ele>
        <time>2020-07-07T19:15:13.000Z</time>
      </trkpt>
      <trkpt lat="43.63839" lon="3.80802">
        <ele>54.784431000036</ele>
        <time>2020-07-07T19:15:16.000Z</time>
      </trkpt>
      <trkpt lat="43.63838" lon="3.80804">
        <ele>54.584830074143</ele>
        <time>2020-07-07T19:15:18.000Z</time>
      </trkpt>
      <trkpt lat="43.63836" lon="3.80807">
        <ele>54.285428685304</ele>
        <time>2020-07-07T19:15:21.000Z</time>
      </trkpt>
      <trkpt lat="43.63835" lon="3.80807">
        <ele>54</ele>
        <time>2020-07-07T19:15:24.000Z</time>
      </trkpt>
      <trkpt lat="43.63834" lon="3.80807">
        <ele>54</ele>
        <time>2020-07-07T19:15:29.000Z</time>
      </trkpt>
      <trkpt lat="43.63835" lon="3.80816">
        <ele>53.035267700471</ele>
        <time>2020-07-07T19:15:38.000Z</time>
      </trkpt>
      <trkpt lat="43.63835" lon="3.80819">
        <ele>53</ele>
        <time>2020-07-07T19:15:39.000Z</time>
      </trkpt>
      <trkpt lat="43.63833" lon="3.80822">
        <ele>53</ele>
        <time>2020-07-07T19:15:41.000Z</time>
      </trkpt>
      <trkpt lat="43.63831" lon="3.80824">
        <ele>53</ele>
        <time>2020-07-07T19:15:43.000Z</time>
      </trkpt>
      <trkpt lat="43.63828" lon="3.80826">
        <ele>53</ele>
        <time>2020-07-07T19:15:45.000Z</time>
      </trkpt>
      <trkpt lat="43.63825" lon="3.80828">
        <ele>53</ele>
        <time>2020-07-07T19:15:47.000Z</time>
      </trkpt>
      <trkpt lat="43.63823" lon="3.8083">
        <ele>53.015564202335</ele>
        <time>2020-07-07T19:15:48.000Z</time>
      </trkpt>
      <trkpt lat="43.63821" lon="3.80831">
        <ele>53.112840466926</ele>
        <time>2020-07-07T19:15:49.000Z</time>
      </trkpt>
      <trkpt lat="43.63819" lon="3.80832">
        <ele>53.210116731518</ele>
        <time>2020-07-07T19:15:50.000Z</time>
      </trkpt>
      <trkpt lat="43.63818" lon="3.80833">
        <ele>53.307392996109</ele>
        <time>2020-07-07T19:15:51.000Z</time>
      </trkpt>
      <trkpt lat="43.63815" lon="3.80834">
        <ele>53.4046692607</ele>
        <time>2020-07-07T19:15:52.000Z</time>
      </trkpt>
      <trkpt lat="43.63812" lon="3.80835">
        <ele>53.501945525292</ele>
        <time>2020-07-07T19:15:53.000Z</time>
      </trkpt>
      <trkpt lat="43.6381" lon="3.80836">
        <ele>53.599221789883</ele>
        <time>2020-07-07T19:15:54.000Z</time>
      </trkpt>
      <trkpt lat="43.63807" lon="3.80837">
        <ele>53.696498054475</ele>
        <time>2020-07-07T19:15:55.000Z</time>
      </trkpt>
      <trkpt lat="43.63805" lon="3.80838">
        <ele>53.793774319066</ele>
        <time>2020-07-07T19:15:56.000Z</time>
      </trkpt>
      <trkpt lat="43.63802" lon="3.80839">
        <ele>53.891050583658</ele>
        <time>2020-07-07T19:15:57.000Z</time>
      </trkpt>
      <trkpt lat="43.63799" lon="3.8084">
        <ele>53.988326848249</ele>
        <time>2020-07-07T19:15:58.000Z</time>
      </trkpt>
      <trkpt lat="43.63795" lon="3.80842">
        <ele>54</ele>
        <time>2020-07-07T19:15:59.000Z</time>
      </trkpt>
      <trkpt lat="43.63793" lon="3.80842">
        <ele>54</ele>
        <time>2020-07-07T19:16:00.000Z</time>
      </trkpt>
      <trkpt lat="43.6379" lon="3.80841">
        <ele>54</ele>
        <time>2020-07-07T19:16:02.000Z</time>
      </trkpt>
      <trkpt lat="43.63786" lon="3.80844">
        <ele>54</ele>
        <time>2020-07-07T19:16:04.000Z</time>
      </trkpt>
      <trkpt lat="43.63783" lon="3.80845">
        <ele>54</ele>
        <time>2020-07-07T19:16:05.000Z</time>
      </trkpt>
      <trkpt lat="43.63779" lon="3.80846">
        <ele>54</ele>
        <time>2020-07-07T19:16:06.000Z</time>
      </trkpt>
      <trkpt lat="43.63775" lon="3.80848">
        <ele>54</ele>
        <time>2020-07-07T19:16:07.000Z</time>
      </trkpt>
      <trkpt lat="43.63771" lon="3.80849">
        <ele>54</ele>
        <time>2020-07-07T19:16:08.000Z</time>
      </trkpt>
      <trkpt lat="43.63767" lon="3.8085">
        <ele>54</ele>
        <time>2020-07-07T19:16:09.000Z</time>
      </trkpt>
      <trkpt lat="43.63762" lon="3.80851">
        <ele>54</ele>
        <time>2020-07-07T19:16:10.000Z</time>
      </trkpt>
      <trkpt lat="43.63758" lon="3.80853">
        <ele>54</ele>
        <time>2020-07-07T19:16:11.000Z</time>
      </trkpt>
      <trkpt lat="43.63754" lon="3.80854">
        <ele>54</ele>
        <time>2020-07-07T19:16:12.000Z</time>
      </trkpt>
      <trkpt lat="43.63749" lon="3.80855">
        <ele>54</ele>
        <time>2020-07-07T19:16:13.000Z</time>
      </trkpt>
      <trkpt lat="43.63745" lon="3.80856">
        <ele>54</ele>
        <time>2020-07-07T19:16:14.000Z</time>
      </trkpt>
      <trkpt lat="43.6374" lon="3.80856">
        <ele>54</ele>
        <time>2020-07-07T19:16:15.000Z</time>
      </trkpt>
      <trkpt lat="43.63736" lon="3.80857">
        <ele>54</ele>
        <time>2020-07-07T19:16:16.000Z</time>
      </trkpt>
      <trkpt lat="43.63732" lon="3.80857">
        <ele>54</ele>
        <time>2020-07-07T19:16:17.000Z</time>
      </trkpt>
      <trkpt lat="43.63727" lon="3.80857">
        <ele>54</ele>
        <time>2020-07-07T19:16:18.000Z</time>
      </trkpt>
      <trkpt lat="43.63722" lon="3.80857">
        <ele>54</ele>
        <time>2020-07-07T19:16:19.000Z</time>
      </trkpt>
      <trkpt lat="43.63717" lon="3.80856">
        <ele>54</ele>
        <time>2020-07-07T19:16:20.000Z</time>
      </trkpt>
      <trkpt lat="43.63712" lon="3.80856">
        <ele>54</ele>
        <time>2020-07-07T19:16:21.000Z</time>
      </trkpt>
      <trkpt lat="43.63707" lon="3.80856">
        <ele>54</ele>
        <time>2020-07-07T19:16:22.000Z</time>
      </trkpt>
      <trkpt lat="43.63703" lon="3.80856">
        <ele>54</ele>
        <time>2020-07-07T19:16:23.000Z</time>
      </trkpt>
      <trkpt lat="43.63698" lon="3.80855">
        <ele>54</ele>
        <time>2020-07-07T19:16:24.000Z</time>
      </trkpt>
      <trkpt lat="43.63694" lon="3.80854">
        <ele>54</ele>
        <time>2020-07-07T19:16:25.000Z</time>
      </trkpt>
      <trkpt lat="43.63689" lon="3.80853">
        <ele>54</ele>
        <time>2020-07-07T19:16:26.000Z</time>
      </trkpt>
      <trkpt lat="43.63685" lon="3.80854">
        <ele>54</ele>
        <time>2020-07-07T19:16:27.000Z</time>
      </trkpt>
      <trkpt lat="43.6368" lon="3.80856">
        <ele>54.016</ele>
        <time>2020-07-07T19:16:28.000Z</time>
      </trkpt>
      <trkpt lat="43.63676" lon="3.80859">
        <ele>54.116</ele>
        <time>2020-07-07T19:16:29.000Z</time>
      </trkpt>
      <trkpt lat="43.63672" lon="3.80862">
        <ele>54.216</ele>
        <time>2020-07-07T19:16:30.000Z</time>
      </trkpt>
      <trkpt lat="43.63668" lon="3.80865">
        <ele>54.316</ele>
        <time>2020-07-07T19:16:31.000Z</time>
      </trkpt>
      <trkpt lat="43.63664" lon="3.80867">
        <ele>54.416</ele>
        <time>2020-07-07T19:16:32.000Z</time>
      </trkpt>
      <trkpt lat="43.6366" lon="3.80869">
        <ele>54.516</ele>
        <time>2020-07-07T19:16:33.000Z</time>
      </trkpt>
      <trkpt lat="43.63656" lon="3.8087">
        <ele>54.616</ele>
        <time>2020-07-07T19:16:34.000Z</time>
      </trkpt>
      <trkpt lat="43.63653" lon="3.80871">
        <ele>54.716</ele>
        <time>2020-07-07T19:16:35.000Z</time>
      </trkpt>
      <trkpt lat="43.63649" lon="3.80872">
        <ele>54.816</ele>
        <time>2020-07-07T19:16:36.000Z</time>
      </trkpt>
      <trkpt lat="43.63646" lon="3.80873">
        <ele>54.916</ele>
        <time>2020-07-07T19:16:37.000Z</time>
      </trkpt>
      <trkpt lat="43.63643" lon="3.80873">
        <ele>55.032</ele>
        <time>2020-07-07T19:16:38.000Z</time>
      </trkpt>
      <trkpt lat="43.6364" lon="3.80873">
        <ele>55.232</ele>
        <time>2020-07-07T19:16:39.000Z</time>
      </trkpt>
      <trkpt lat="43.63637" lon="3.80872">
        <ele>55.432</ele>
        <time>2020-07-07T19:16:40.000Z</time>
      </trkpt>
      <trkpt lat="43.63634" lon="3.80872">
        <ele>55.632</ele>
        <time>2020-07-07T19:16:41.000Z</time>
      </trkpt>
      <trkpt lat="43.63632" lon="3.80871">
        <ele>55.832</ele>
        <time>2020-07-07T19:16:42.000Z</time>
      </trkpt>
      <trkpt lat="43.63629" lon="3.8087">
        <ele>56.032</ele>
        <time>2020-07-07T19:16:43.000Z</time>
      </trkpt>
      <trkpt lat="43.63626" lon="3.8087">
        <ele>56.232</ele>
        <time>2020-07-07T19:16:44.000Z</time>
      </trkpt>
      <trkpt lat="43.63622" lon="3.80869">
        <ele>56.432</ele>
        <time>2020-07-07T19:16:45.000Z</time>
      </trkpt>
      <trkpt lat="43.63619" lon="3.80868">
        <ele>56.632</ele>
        <time>2020-07-07T19:16:46.000Z</time>
      </trkpt>
      <trkpt lat="43.63615" lon="3.80866">
        <ele>56.832</ele>
        <time>2020-07-07T19:16:47.000Z</time>
      </trkpt>
      <trkpt lat="43.63611" lon="3.80865">
        <ele>57</ele>
        <time>2020-07-07T19:16:48.000Z</time>
      </trkpt>
      <trkpt lat="43.63607" lon="3.80863">
        <ele>57</ele>
        <time>2020-07-07T19:16:49.000Z</time>
      </trkpt>
      <trkpt lat="43.63603" lon="3.80861">
        <ele>57</ele>
        <time>2020-07-07T19:16:50.000Z</time>
      </trkpt>
      <trkpt lat="43.63599" lon="3.80859">
        <ele>57</ele>
        <time>2020-07-07T19:16:51.000Z</time>
      </trkpt>
      <trkpt lat="43.63595" lon="3.80858">
        <ele>57</ele>
        <time>2020-07-07T19:16:52.000Z</time>
      </trkpt>
      <trkpt lat="43.63591" lon="3.80856">
        <ele>57</ele>
        <time>2020-07-07T19:16:53.000Z</time>
      </trkpt>
      <trkpt lat="43.63588" lon="3.80853">
        <ele>57</ele>
        <time>2020-07-07T19:16:54.000Z</time>
      </trkpt>
      <trkpt lat="43.63584" lon="3.8085">
        <ele>57</ele>
        <time>2020-07-07T19:16:55.000Z</time>
      </trkpt>
      <trkpt lat="43.63581" lon="3.80848">
        <ele>57</ele>
        <time>2020-07-07T19:16:56.000Z</time>
      </trkpt>
      <trkpt lat="43.63578" lon="3.80844">
        <ele>57</ele>
        <time>2020-07-07T19:16:57.000Z</time>
      </trkpt>
      <trkpt lat="43.63575" lon="3.80841">
        <ele>57</ele>
        <time>2020-07-07T19:16:58.000Z</time>
      </trkpt>
      <trkpt lat="43.63572" lon="3.80838">
        <ele>57</ele>
        <time>2020-07-07T19:16:59.000Z</time>
      </trkpt>
      <trkpt lat="43.6357" lon="3.80834">
        <ele>57</ele>
        <time>2020-07-07T19:17:00.000Z</time>
      </trkpt>
      <trkpt lat="43.63567" lon="3.8083">
        <ele>57</ele>
        <time>2020-07-07T19:17:01.000Z</time>
      </trkpt>
      <trkpt lat="43.63564" lon="3.80826">
        <ele>57</ele>
        <time>2020-07-07T19:17:02.000Z</time>
      </trkpt>
      <trkpt lat="43.63561" lon="3.80823">
        <ele>57</ele>
        <time>2020-07-07T19:17:03.000Z</time>
      </trkpt>
      <trkpt lat="43.63557" lon="3.80819">
        <ele>57</ele>
        <time>2020-07-07T19:17:04.000Z</time>
      </trkpt>
      <trkpt lat="43.63554" lon="3.80816">
        <ele>57</ele>
        <time>2020-07-07T19:17:05.000Z</time>
      </trkpt>
      <trkpt lat="43.6355" lon="3.80812">
        <ele>57</ele>
        <time>2020-07-07T19:17:06.000Z</time>
      </trkpt>
      <trkpt lat="43.63547" lon="3.80808">
        <ele>57</ele>
        <time>2020-07-07T19:17:07.000Z</time>
      </trkpt>
      <trkpt lat="43.63543" lon="3.80804">
        <ele>56.984</ele>
        <time>2020-07-07T19:17:08.000Z</time>
      </trkpt>
      <trkpt lat="43.63539" lon="3.808">
        <ele>56.884</ele>
        <time>2020-07-07T19:17:09.000Z</time>
      </trkpt>
      <trkpt lat="43.63536" lon="3.80796">
        <ele>56.784</ele>
        <time>2020-07-07T19:17:10.000Z</time>
      </trkpt>
      <trkpt lat="43.63533" lon="3.80792">
        <ele>56.684</ele>
        <time>2020-07-07T19:17:11.000Z</time>
      </trkpt>
      <trkpt lat="43.63529" lon="3.80787">
        <ele>56.584</ele>
        <time>2020-07-07T19:17:12.000Z</time>
      </trkpt>
      <trkpt lat="43.63526" lon="3.80784">
        <ele>56.484</ele>
        <time>2020-07-07T19:17:13.000Z</time>
      </trkpt>
      <trkpt lat="43.63522" lon="3.80781">
        <ele>56.384</ele>
        <time>2020-07-07T19:17:14.000Z</time>
      </trkpt>
      <trkpt lat="43.63518" lon="3.80779">
        <ele>56.284</ele>
        <time>2020-07-07T19:17:15.000Z</time>
      </trkpt>
      <trkpt lat="43.63514" lon="3.80777">
        <ele>56.184</ele>
        <time>2020-07-07T19:17:16.000Z</time>
      </trkpt>
      <trkpt lat="43.63509" lon="3.80775">
        <ele>56.084</ele>
        <time>2020-07-07T19:17:17.000Z</time>
      </trkpt>
      <trkpt lat="43.63505" lon="3.80773">
        <ele>55.968</ele>
        <time>2020-07-07T19:17:18.000Z</time>
      </trkpt>
      <trkpt lat="43.63501" lon="3.80773">
        <ele>55.768</ele>
        <time>2020-07-07T19:17:19.000Z</time>
      </trkpt>
      <trkpt lat="43.63496" lon="3.80773">
        <ele>55.568</ele>
        <time>2020-07-07T19:17:20.000Z</time>
      </trkpt>
      <trkpt lat="43.63492" lon="3.80773">
        <ele>55.368</ele>
        <time>2020-07-07T19:17:21.000Z</time>
      </trkpt>
      <trkpt lat="43.63488" lon="3.80774">
        <ele>55.168</ele>
        <time>2020-07-07T19:17:22.000Z</time>
      </trkpt>
      <trkpt lat="43.63484" lon="3.80775">
        <ele>54.968</ele>
        <time>2020-07-07T19:17:23.000Z</time>
      </trkpt>
      <trkpt lat="43.63479" lon="3.80776">
        <ele>54.768</ele>
        <time>2020-07-07T19:17:24.000Z</time>
      </trkpt>
      <trkpt lat="43.63475" lon="3.80777">
        <ele>54.568</ele>
        <time>2020-07-07T19:17:25.000Z</time>
      </trkpt>
      <trkpt lat="43.63471" lon="3.80779">
        <ele>54.368</ele>
        <time>2020-07-07T19:17:26.000Z</time>
      </trkpt>
      <trkpt lat="43.63467" lon="3.8078">
        <ele>54.168</ele>
        <time>2020-07-07T19:17:27.000Z</time>
      </trkpt>
      <trkpt lat="43.63463" lon="3.80783">
        <ele>54</ele>
        <time>2020-07-07T19:17:28.000Z</time>
      </trkpt>
      <trkpt lat="43.6346" lon="3.80787">
        <ele>54</ele>
        <time>2020-07-07T19:17:29.000Z</time>
      </trkpt>
      <trkpt lat="43.63457" lon="3.80792">
        <ele>54</ele>
        <time>2020-07-07T19:17:30.000Z</time>
      </trkpt>
      <trkpt lat="43.63455" lon="3.80798">
        <ele>54</ele>
        <time>2020-07-07T19:17:31.000Z</time>
      </trkpt>
      <trkpt lat="43.63454" lon="3.80804">
        <ele>54</ele>
        <time>2020-07-07T19:17:32.000Z</time>
      </trkpt>
      <trkpt lat="43.63454" lon="3.80809">
        <ele>54</ele>
        <time>2020-07-07T19:17:33.000Z</time>
      </trkpt>
      <trkpt lat="43.63454" lon="3.80815">
        <ele>54</ele>
        <time>2020-07-07T19:17:34.000Z</time>
      </trkpt>
      <trkpt lat="43.63453" lon="3.80821">
        <ele>54</ele>
        <time>2020-07-07T19:17:35.000Z</time>
      </trkpt>
      <trkpt lat="43.63453" lon="3.80827">
        <ele>54</ele>
        <time>2020-07-07T19:17:36.000Z</time>
      </trkpt>
      <trkpt lat="43.63453" lon="3.80833">
        <ele>54</ele>
        <time>2020-07-07T19:17:37.000Z</time>
      </trkpt>
      <trkpt lat="43.63453" lon="3.80839">
        <ele>54</ele>
        <time>2020-07-07T19:17:38.000Z</time>
      </trkpt>
      <trkpt lat="43.63453" lon="3.80845">
        <ele>54.090534979424</ele>
        <time>2020-07-07T19:17:39.000Z</time>
      </trkpt>
      <trkpt lat="43.63453" lon="3.80852">
        <ele>54.19341563786</ele>
        <time>2020-07-07T19:17:40.000Z</time>
      </trkpt>
      <trkpt lat="43.63452" lon="3.80859">
        <ele>54.296296296296</ele>
        <time>2020-07-07T19:17:41.000Z</time>
      </trkpt>
      <trkpt lat="43.63452" lon="3.80865">
        <ele>54.399176954733</ele>
        <time>2020-07-07T19:17:42.000Z</time>
      </trkpt>
      <trkpt lat="43.63451" lon="3.80873">
        <ele>54.502057613169</ele>
        <time>2020-07-07T19:17:43.000Z</time>
      </trkpt>
      <trkpt lat="43.6345" lon="3.80879">
        <ele>54.604938271605</ele>
        <time>2020-07-07T19:17:44.000Z</time>
      </trkpt>
      <trkpt lat="43.63448" lon="3.80885">
        <ele>54.707818930041</ele>
        <time>2020-07-07T19:17:45.000Z</time>
      </trkpt>
      <trkpt lat="43.63447" lon="3.80889">
        <ele>54.810699588477</ele>
        <time>2020-07-07T19:17:46.000Z</time>
      </trkpt>
      <trkpt lat="43.63446" lon="3.80893">
        <ele>54.913580246914</ele>
        <time>2020-07-07T19:17:47.000Z</time>
      </trkpt>
      <trkpt lat="43.63445" lon="3.80898">
        <ele>55</ele>
        <time>2020-07-07T19:17:48.000Z</time>
      </trkpt>
      <trkpt lat="43.63445" lon="3.80902">
        <ele>55</ele>
        <time>2020-07-07T19:17:49.000Z</time>
      </trkpt>
      <trkpt lat="43.63445" lon="3.80908">
        <ele>55</ele>
        <time>2020-07-07T19:17:50.000Z</time>
      </trkpt>
      <trkpt lat="43.63445" lon="3.80913">
        <ele>55</ele>
        <time>2020-07-07T19:17:51.000Z</time>
      </trkpt>
      <trkpt lat="43.63446" lon="3.80919">
        <ele>55</ele>
        <time>2020-07-07T19:17:52.000Z</time>
      </trkpt>
      <trkpt lat="43.63446" lon="3.80925">
        <ele>55</ele>
        <time>2020-07-07T19:17:53.000Z</time>
      </trkpt>
      <trkpt lat="43.63446" lon="3.8093">
        <ele>55</ele>
        <time>2020-07-07T19:17:54.000Z</time>
      </trkpt>
      <trkpt lat="43.63446" lon="3.80936">
        <ele>55</ele>
        <time>2020-07-07T19:17:55.000Z</time>
      </trkpt>
      <trkpt lat="43.63447" lon="3.80941">
        <ele>55</ele>
        <time>2020-07-07T19:17:56.000Z</time>
      </trkpt>
      <trkpt lat="43.63446" lon="3.80946">
        <ele>55</ele>
        <time>2020-07-07T19:17:57.000Z</time>
      </trkpt>
      <trkpt lat="43.63446" lon="3.80951">
        <ele>55</ele>
        <time>2020-07-07T19:17:58.000Z</time>
      </trkpt>
      <trkpt lat="43.63446" lon="3.80955">
        <ele>55</ele>
        <time>2020-07-07T19:17:59.000Z</time>
      </trkpt>
      <trkpt lat="43.63446" lon="3.8096">
        <ele>55</ele>
        <time>2020-07-07T19:18:00.000Z</time>
      </trkpt>
      <trkpt lat="43.63447" lon="3.80964">
        <ele>55</ele>
        <time>2020-07-07T19:18:01.000Z</time>
      </trkpt>
      <trkpt lat="43.63447" lon="3.80968">
        <ele>55</ele>
        <time>2020-07-07T19:18:02.000Z</time>
      </trkpt>
      <trkpt lat="43.63447" lon="3.80973">
        <ele>55</ele>
        <time>2020-07-07T19:18:03.000Z</time>
      </trkpt>
      <trkpt lat="43.63448" lon="3.80977">
        <ele>55</ele>
        <time>2020-07-07T19:18:04.000Z</time>
      </trkpt>
      <trkpt lat="43.63449" lon="3.80982">
        <ele>55</ele>
        <time>2020-07-07T19:18:05.000Z</time>
      </trkpt>
      <trkpt lat="43.63449" lon="3.80987">
        <ele>55</ele>
        <time>2020-07-07T19:18:06.000Z</time>
      </trkpt>
      <trkpt lat="43.63448" lon="3.80993">
        <ele>55</ele>
        <time>2020-07-07T19:18:07.000Z</time>
      </trkpt>
      <trkpt lat="43.63447" lon="3.81">
        <ele>54.984</ele>
        <time>2020-07-07T19:18:08.000Z</time>
      </trkpt>
      <trkpt lat="43.63446" lon="3.81007">
        <ele>54.884</ele>
        <time>2020-07-07T19:18:09.000Z</time>
      </trkpt>
      <trkpt lat="43.63445" lon="3.81014">
        <ele>54.784</ele>
        <time>2020-07-07T19:18:10.000Z</time>
      </trkpt>
      <trkpt lat="43.63445" lon="3.81022">
        <ele>54.684</ele>
        <time>2020-07-07T19:18:11.000Z</time>
      </trkpt>
      <trkpt lat="43.63445" lon="3.8103">
        <ele>54.584</ele>
        <time>2020-07-07T19:18:12.000Z</time>
      </trkpt>
      <trkpt lat="43.63446" lon="3.81038">
        <ele>54.484</ele>
        <time>2020-07-07T19:18:13.000Z</time>
      </trkpt>
      <trkpt lat="43.63447" lon="3.81046">
        <ele>54.384</ele>
        <time>2020-07-07T19:18:14.000Z</time>
      </trkpt>
      <trkpt lat="43.63449" lon="3.81053">
        <ele>54.284</ele>
        <time>2020-07-07T19:18:15.000Z</time>
      </trkpt>
      <trkpt lat="43.6345" lon="3.8106">
        <ele>54.184</ele>
        <time>2020-07-07T19:18:16.000Z</time>
      </trkpt>
      <trkpt lat="43.63451" lon="3.81067">
        <ele>54.084</ele>
        <time>2020-07-07T19:18:17.000Z</time>
      </trkpt>
      <trkpt lat="43.63453" lon="3.81074">
        <ele>53.984</ele>
        <time>2020-07-07T19:18:18.000Z</time>
      </trkpt>
      <trkpt lat="43.63454" lon="3.81082">
        <ele>53.884</ele>
        <time>2020-07-07T19:18:19.000Z</time>
      </trkpt>
      <trkpt lat="43.63455" lon="3.81089">
        <ele>53.784</ele>
        <time>2020-07-07T19:18:20.000Z</time>
      </trkpt>
      <trkpt lat="43.63456" lon="3.81096">
        <ele>53.684</ele>
        <time>2020-07-07T19:18:21.000Z</time>
      </trkpt>
      <trkpt lat="43.63457" lon="3.81103">
        <ele>53.584</ele>
        <time>2020-07-07T19:18:22.000Z</time>
      </trkpt>
      <trkpt lat="43.63458" lon="3.8111">
        <ele>53.484</ele>
        <time>2020-07-07T19:18:23.000Z</time>
      </trkpt>
      <trkpt lat="43.63459" lon="3.81117">
        <ele>53.384</ele>
        <time>2020-07-07T19:18:24.000Z</time>
      </trkpt>
      <trkpt lat="43.6346" lon="3.81123">
        <ele>53.284</ele>
        <time>2020-07-07T19:18:25.000Z</time>
      </trkpt>
      <trkpt lat="43.6346" lon="3.8113">
        <ele>53.184</ele>
        <time>2020-07-07T19:18:26.000Z</time>
      </trkpt>
      <trkpt lat="43.63461" lon="3.81136">
        <ele>53.084</ele>
        <time>2020-07-07T19:18:27.000Z</time>
      </trkpt>
      <trkpt lat="43.63461" lon="3.81143">
        <ele>52.984</ele>
        <time>2020-07-07T19:18:28.000Z</time>
      </trkpt>
      <trkpt lat="43.63462" lon="3.81149">
        <ele>52.884</ele>
        <time>2020-07-07T19:18:29.000Z</time>
      </trkpt>
      <trkpt lat="43.63462" lon="3.81156">
        <ele>52.784</ele>
        <time>2020-07-07T19:18:30.000Z</time>
      </trkpt>
      <trkpt lat="43.63463" lon="3.81162">
        <ele>52.684</ele>
        <time>2020-07-07T19:18:31.000Z</time>
      </trkpt>
      <trkpt lat="43.63463" lon="3.81169">
        <ele>52.584</ele>
        <time>2020-07-07T19:18:32.000Z</time>
      </trkpt>
      <trkpt lat="43.63463" lon="3.81175">
        <ele>52.484</ele>
        <time>2020-07-07T19:18:33.000Z</time>
      </trkpt>
      <trkpt lat="43.63464" lon="3.81182">
        <ele>52.384</ele>
        <time>2020-07-07T19:18:34.000Z</time>
      </trkpt>
      <trkpt lat="43.63464" lon="3.81188">
        <ele>52.284</ele>
        <time>2020-07-07T19:18:35.000Z</time>
      </trkpt>
      <trkpt lat="43.63464" lon="3.81195">
        <ele>52.184</ele>
        <time>2020-07-07T19:18:36.000Z</time>
      </trkpt>
      <trkpt lat="43.63465" lon="3.81201">
        <ele>52.084</ele>
        <time>2020-07-07T19:18:37.000Z</time>
      </trkpt>
      <trkpt lat="43.63465" lon="3.81207">
        <ele>52</ele>
        <time>2020-07-07T19:18:38.000Z</time>
      </trkpt>
      <trkpt lat="43.63465" lon="3.81214">
        <ele>52</ele>
        <time>2020-07-07T19:18:39.000Z</time>
      </trkpt>
      <trkpt lat="43.63464" lon="3.8122">
        <ele>52</ele>
        <time>2020-07-07T19:18:40.000Z</time>
      </trkpt>
      <trkpt lat="43.63464" lon="3.81225">
        <ele>52</ele>
        <time>2020-07-07T19:18:41.000Z</time>
      </trkpt>
      <trkpt lat="43.63464" lon="3.81231">
        <ele>52</ele>
        <time>2020-07-07T19:18:42.000Z</time>
      </trkpt>
      <trkpt lat="43.63464" lon="3.81237">
        <ele>52</ele>
        <time>2020-07-07T19:18:43.000Z</time>
      </trkpt>
      <trkpt lat="43.63464" lon="3.81242">
        <ele>52</ele>
        <time>2020-07-07T19:18:44.000Z</time>
      </trkpt>
      <trkpt lat="43.63463" lon="3.81248">
        <ele>52</ele>
        <time>2020-07-07T19:18:45.000Z</time>
      </trkpt>
      <trkpt lat="43.63463" lon="3.81254">
        <ele>52</ele>
        <time>2020-07-07T19:18:46.000Z</time>
      </trkpt>
      <trkpt lat="43.63462" lon="3.81259">
        <ele>52</ele>
        <time>2020-07-07T19:18:47.000Z</time>
      </trkpt>
      <trkpt lat="43.63462" lon="3.81265">
        <ele>52</ele>
        <time>2020-07-07T19:18:48.000Z</time>
      </trkpt>
      <trkpt lat="43.63461" lon="3.81271">
        <ele>52</ele>
        <time>2020-07-07T19:18:49.000Z</time>
      </trkpt>
      <trkpt lat="43.63461" lon="3.81276">
        <ele>52</ele>
        <time>2020-07-07T19:18:50.000Z</time>
      </trkpt>
      <trkpt lat="43.6346" lon="3.81282">
        <ele>52</ele>
        <time>2020-07-07T19:18:51.000Z</time>
      </trkpt>
      <trkpt lat="43.63459" lon="3.81288">
        <ele>52</ele>
        <time>2020-07-07T19:18:52.000Z</time>
      </trkpt>
      <trkpt lat="43.63457" lon="3.81294">
        <ele>52</ele>
        <time>2020-07-07T19:18:53.000Z</time>
      </trkpt>
      <trkpt lat="43.63456" lon="3.813">
        <ele>52</ele>
        <time>2020-07-07T19:18:54.000Z</time>
      </trkpt>
      <trkpt lat="43.63454" lon="3.81305">
        <ele>52</ele>
        <time>2020-07-07T19:18:55.000Z</time>
      </trkpt>
      <trkpt lat="43.63452" lon="3.81309">
        <ele>52</ele>
        <time>2020-07-07T19:18:56.000Z</time>
      </trkpt>
      <trkpt lat="43.63451" lon="3.81312">
        <ele>52</ele>
        <time>2020-07-07T19:18:57.000Z</time>
      </trkpt>
      <trkpt lat="43.6345" lon="3.81315">
        <ele>52</ele>
        <time>2020-07-07T19:18:58.000Z</time>
      </trkpt>
      <trkpt lat="43.63448" lon="3.81318">
        <ele>52</ele>
        <time>2020-07-07T19:18:59.000Z</time>
      </trkpt>
      <trkpt lat="43.63447" lon="3.81321">
        <ele>52</ele>
        <time>2020-07-07T19:19:01.000Z</time>
      </trkpt>
      <trkpt lat="43.63445" lon="3.81325">
        <ele>52</ele>
        <time>2020-07-07T19:19:03.000Z</time>
      </trkpt>
      <trkpt lat="43.63443" lon="3.81327">
        <ele>52</ele>
        <time>2020-07-07T19:19:04.000Z</time>
      </trkpt>
      <trkpt lat="43.63441" lon="3.8133">
        <ele>52</ele>
        <time>2020-07-07T19:19:05.000Z</time>
      </trkpt>
      <trkpt lat="43.63438" lon="3.81333">
        <ele>52</ele>
        <time>2020-07-07T19:19:06.000Z</time>
      </trkpt>
      <trkpt lat="43.63434" lon="3.81337">
        <ele>52</ele>
        <time>2020-07-07T19:19:07.000Z</time>
      </trkpt>
      <trkpt lat="43.6343" lon="3.81341">
        <ele>52</ele>
        <time>2020-07-07T19:19:08.000Z</time>
      </trkpt>
      <trkpt lat="43.63426" lon="3.81345">
        <ele>52</ele>
        <time>2020-07-07T19:19:09.000Z</time>
      </trkpt>
      <trkpt lat="43.63422" lon="3.81349">
        <ele>52</ele>
        <time>2020-07-07T19:19:10.000Z</time>
      </trkpt>
      <trkpt lat="43.63418" lon="3.81353">
        <ele>52</ele>
        <time>2020-07-07T19:19:11.000Z</time>
      </trkpt>
      <trkpt lat="43.63414" lon="3.81356">
        <ele>52</ele>
        <time>2020-07-07T19:19:12.000Z</time>
      </trkpt>
      <trkpt lat="43.6341" lon="3.81359">
        <ele>52</ele>
        <time>2020-07-07T19:19:13.000Z</time>
      </trkpt>
      <trkpt lat="43.63406" lon="3.81362">
        <ele>52</ele>
        <time>2020-07-07T19:19:14.000Z</time>
      </trkpt>
      <trkpt lat="43.63402" lon="3.81365">
        <ele>52</ele>
        <time>2020-07-07T19:19:15.000Z</time>
      </trkpt>
      <trkpt lat="43.63398" lon="3.81368">
        <ele>52</ele>
        <time>2020-07-07T19:19:16.000Z</time>
      </trkpt>
      <trkpt lat="43.63393" lon="3.8137">
        <ele>52</ele>
        <time>2020-07-07T19:19:17.000Z</time>
      </trkpt>
      <trkpt lat="43.63389" lon="3.81372">
        <ele>52</ele>
        <time>2020-07-07T19:19:18.000Z</time>
      </trkpt>
      <trkpt lat="43.63386" lon="3.81375">
        <ele>52</ele>
        <time>2020-07-07T19:19:19.000Z</time>
      </trkpt>
      <trkpt lat="43.63382" lon="3.81377">
        <ele>52</ele>
        <time>2020-07-07T19:19:20.000Z</time>
      </trkpt>
      <trkpt lat="43.63378" lon="3.8138">
        <ele>52</ele>
        <time>2020-07-07T19:19:21.000Z</time>
      </trkpt>
      <trkpt lat="43.63374" lon="3.81382">
        <ele>52</ele>
        <time>2020-07-07T19:19:22.000Z</time>
      </trkpt>
      <trkpt lat="43.6337" lon="3.81385">
        <ele>52</ele>
        <time>2020-07-07T19:19:23.000Z</time>
      </trkpt>
      <trkpt lat="43.63366" lon="3.81388">
        <ele>52</ele>
        <time>2020-07-07T19:19:24.000Z</time>
      </trkpt>
      <trkpt lat="43.63362" lon="3.81392">
        <ele>52</ele>
        <time>2020-07-07T19:19:25.000Z</time>
      </trkpt>
      <trkpt lat="43.63358" lon="3.81396">
        <ele>52</ele>
        <time>2020-07-07T19:19:26.000Z</time>
      </trkpt>
      <trkpt lat="43.63355" lon="3.814">
        <ele>52</ele>
        <time>2020-07-07T19:19:27.000Z</time>
      </trkpt>
      <trkpt lat="43.63352" lon="3.81404">
        <ele>52</ele>
        <time>2020-07-07T19:19:28.000Z</time>
      </trkpt>
      <trkpt lat="43.63348" lon="3.81408">
        <ele>52</ele>
        <time>2020-07-07T19:19:29.000Z</time>
      </trkpt>
      <trkpt lat="43.63345" lon="3.81411">
        <ele>52</ele>
        <time>2020-07-07T19:19:30.000Z</time>
      </trkpt>
      <trkpt lat="43.63341" lon="3.81415">
        <ele>52</ele>
        <time>2020-07-07T19:19:31.000Z</time>
      </trkpt>
      <trkpt lat="43.63338" lon="3.81418">
        <ele>52</ele>
        <time>2020-07-07T19:19:32.000Z</time>
      </trkpt>
      <trkpt lat="43.63334" lon="3.81422">
        <ele>52</ele>
        <time>2020-07-07T19:19:33.000Z</time>
      </trkpt>
      <trkpt lat="43.6333" lon="3.81426">
        <ele>52</ele>
        <time>2020-07-07T19:19:34.000Z</time>
      </trkpt>
      <trkpt lat="43.63326" lon="3.8143">
        <ele>52</ele>
        <time>2020-07-07T19:19:35.000Z</time>
      </trkpt>
      <trkpt lat="43.63323" lon="3.81434">
        <ele>52</ele>
        <time>2020-07-07T19:19:36.000Z</time>
      </trkpt>
      <trkpt lat="43.63319" lon="3.81438">
        <ele>52</ele>
        <time>2020-07-07T19:19:37.000Z</time>
      </trkpt>
      <trkpt lat="43.63315" lon="3.81444">
        <ele>52</ele>
        <time>2020-07-07T19:19:38.000Z</time>
      </trkpt>
      <trkpt lat="43.63312" lon="3.81449">
        <ele>52</ele>
        <time>2020-07-07T19:19:39.000Z</time>
      </trkpt>
      <trkpt lat="43.63308" lon="3.81454">
        <ele>52</ele>
        <time>2020-07-07T19:19:40.000Z</time>
      </trkpt>
      <trkpt lat="43.63306" lon="3.81461">
        <ele>52</ele>
        <time>2020-07-07T19:19:41.000Z</time>
      </trkpt>
      <trkpt lat="43.63303" lon="3.81467">
        <ele>52</ele>
        <time>2020-07-07T19:19:42.000Z</time>
      </trkpt>
      <trkpt lat="43.633" lon="3.81472">
        <ele>52</ele>
        <time>2020-07-07T19:19:43.000Z</time>
      </trkpt>
      <trkpt lat="43.63298" lon="3.81477">
        <ele>52</ele>
        <time>2020-07-07T19:19:44.000Z</time>
      </trkpt>
      <trkpt lat="43.63294" lon="3.81482">
        <ele>52</ele>
        <time>2020-07-07T19:19:45.000Z</time>
      </trkpt>
      <trkpt lat="43.6329" lon="3.81487">
        <ele>52</ele>
        <time>2020-07-07T19:19:46.000Z</time>
      </trkpt>
      <trkpt lat="43.63285" lon="3.81492">
        <ele>52</ele>
        <time>2020-07-07T19:19:47.000Z</time>
      </trkpt>
      <trkpt lat="43.63281" lon="3.81497">
        <ele>51.968534896688</ele>
        <time>2020-07-07T19:19:48.000Z</time>
      </trkpt>
      <trkpt lat="43.63276" lon="3.81502">
        <ele>51.771878000984</ele>
        <time>2020-07-07T19:19:49.000Z</time>
      </trkpt>
      <trkpt lat="43.63271" lon="3.81508">
        <ele>51.575221105281</ele>
        <time>2020-07-07T19:19:50.000Z</time>
      </trkpt>
      <trkpt lat="43.63267" lon="3.81514">
        <ele>51.378564209578</ele>
        <time>2020-07-07T19:19:51.000Z</time>
      </trkpt>
      <trkpt lat="43.63262" lon="3.81519">
        <ele>51.181907313874</ele>
        <time>2020-07-07T19:19:52.000Z</time>
      </trkpt>
      <trkpt lat="43.63258" lon="3.81526">
        <ele>50.985250418171</ele>
        <time>2020-07-07T19:19:53.000Z</time>
      </trkpt>
      <trkpt lat="43.63253" lon="3.81532">
        <ele>50.788593522468</ele>
        <time>2020-07-07T19:19:54.000Z</time>
      </trkpt>
      <trkpt lat="43.63249" lon="3.81537">
        <ele>50.591936626765</ele>
        <time>2020-07-07T19:19:55.000Z</time>
      </trkpt>
      <trkpt lat="43.63245" lon="3.81542">
        <ele>50.395279731061</ele>
        <time>2020-07-07T19:19:56.000Z</time>
      </trkpt>
      <trkpt lat="43.63241" lon="3.81547">
        <ele>50.198622835358</ele>
        <time>2020-07-07T19:19:57.000Z</time>
      </trkpt>
      <trkpt lat="43.63237" lon="3.81552">
        <ele>50.001965939655</ele>
        <time>2020-07-07T19:19:58.000Z</time>
      </trkpt>
      <trkpt lat="43.63232" lon="3.81556">
        <ele>50.100712398547</ele>
        <time>2020-07-07T19:19:59.000Z</time>
      </trkpt>
      <trkpt lat="43.63228" lon="3.81561">
        <ele>50.202441765227</ele>
        <time>2020-07-07T19:20:00.000Z</time>
      </trkpt>
      <trkpt lat="43.63224" lon="3.81566">
        <ele>50.304171131908</ele>
        <time>2020-07-07T19:20:01.000Z</time>
      </trkpt>
      <trkpt lat="43.6322" lon="3.81571">
        <ele>50.405900498588</ele>
        <time>2020-07-07T19:20:02.000Z</time>
      </trkpt>
      <trkpt lat="43.63216" lon="3.81576">
        <ele>50.507629865268</ele>
        <time>2020-07-07T19:20:03.000Z</time>
      </trkpt>
      <trkpt lat="43.63212" lon="3.81582">
        <ele>50.609359231948</ele>
        <time>2020-07-07T19:20:04.000Z</time>
      </trkpt>
      <trkpt lat="43.63208" lon="3.81588">
        <ele>50.711088598628</ele>
        <time>2020-07-07T19:20:05.000Z</time>
      </trkpt>
      <trkpt lat="43.63204" lon="3.81593">
        <ele>50.812817965308</ele>
        <time>2020-07-07T19:20:06.000Z</time>
      </trkpt>
      <trkpt lat="43.63199" lon="3.81597">
        <ele>50.914547331989</ele>
        <time>2020-07-07T19:20:07.000Z</time>
      </trkpt>
      <trkpt lat="43.63194" lon="3.81602">
        <ele>51</ele>
        <time>2020-07-07T19:20:08.000Z</time>
      </trkpt>
      <trkpt lat="43.6319" lon="3.81606">
        <ele>51</ele>
        <time>2020-07-07T19:20:09.000Z</time>
      </trkpt>
      <trkpt lat="43.63185" lon="3.81611">
        <ele>51</ele>
        <time>2020-07-07T19:20:10.000Z</time>
      </trkpt>
      <trkpt lat="43.63181" lon="3.81616">
        <ele>51</ele>
        <time>2020-07-07T19:20:11.000Z</time>
      </trkpt>
      <trkpt lat="43.63176" lon="3.8162">
        <ele>51</ele>
        <time>2020-07-07T19:20:12.000Z</time>
      </trkpt>
      <trkpt lat="43.63172" lon="3.81625">
        <ele>51</ele>
        <time>2020-07-07T19:20:13.000Z</time>
      </trkpt>
      <trkpt lat="43.63167" lon="3.81628">
        <ele>51</ele>
        <time>2020-07-07T19:20:14.000Z</time>
      </trkpt>
      <trkpt lat="43.63163" lon="3.81631">
        <ele>51</ele>
        <time>2020-07-07T19:20:15.000Z</time>
      </trkpt>
      <trkpt lat="43.63159" lon="3.81634">
        <ele>51</ele>
        <time>2020-07-07T19:20:16.000Z</time>
      </trkpt>
      <trkpt lat="43.63154" lon="3.81636">
        <ele>51</ele>
        <time>2020-07-07T19:20:17.000Z</time>
      </trkpt>
      <trkpt lat="43.6315" lon="3.81638">
        <ele>50.984</ele>
        <time>2020-07-07T19:20:18.000Z</time>
      </trkpt>
      <trkpt lat="43.63146" lon="3.8164">
        <ele>50.884</ele>
        <time>2020-07-07T19:20:19.000Z</time>
      </trkpt>
      <trkpt lat="43.63142" lon="3.81642">
        <ele>50.784</ele>
        <time>2020-07-07T19:20:20.000Z</time>
      </trkpt>
      <trkpt lat="43.63138" lon="3.81644">
        <ele>50.684</ele>
        <time>2020-07-07T19:20:21.000Z</time>
      </trkpt>
      <trkpt lat="43.63134" lon="3.81645">
        <ele>50.584</ele>
        <time>2020-07-07T19:20:22.000Z</time>
      </trkpt>
      <trkpt lat="43.6313" lon="3.81647">
        <ele>50.484</ele>
        <time>2020-07-07T19:20:23.000Z</time>
      </trkpt>
      <trkpt lat="43.63127" lon="3.81647">
        <ele>50.384</ele>
        <time>2020-07-07T19:20:24.000Z</time>
      </trkpt>
      <trkpt lat="43.63123" lon="3.81647">
        <ele>50.284</ele>
        <time>2020-07-07T19:20:25.000Z</time>
      </trkpt>
      <trkpt lat="43.63119" lon="3.81648">
        <ele>50.184</ele>
        <time>2020-07-07T19:20:26.000Z</time>
      </trkpt>
      <trkpt lat="43.63115" lon="3.81648">
        <ele>50.084</ele>
        <time>2020-07-07T19:20:27.000Z</time>
      </trkpt>
      <trkpt lat="43.63111" lon="3.81648">
        <ele>50</ele>
        <time>2020-07-07T19:20:28.000Z</time>
      </trkpt>
      <trkpt lat="43.63107" lon="3.81649">
        <ele>50</ele>
        <time>2020-07-07T19:20:29.000Z</time>
      </trkpt>
      <trkpt lat="43.63104" lon="3.81649">
        <ele>50</ele>
        <time>2020-07-07T19:20:30.000Z</time>
      </trkpt>
      <trkpt lat="43.63102" lon="3.8165">
        <ele>50</ele>
        <time>2020-07-07T19:20:31.000Z</time>
      </trkpt>
      <trkpt lat="43.63099" lon="3.81651">
        <ele>50</ele>
        <time>2020-07-07T19:20:33.000Z</time>
      </trkpt>
      <trkpt lat="43.63095" lon="3.81652">
        <ele>50</ele>
        <time>2020-07-07T19:20:35.000Z</time>
      </trkpt>
      <trkpt lat="43.63093" lon="3.81653">
        <ele>50</ele>
        <time>2020-07-07T19:20:36.000Z</time>
      </trkpt>
      <trkpt lat="43.63091" lon="3.81656">
        <ele>50</ele>
        <time>2020-07-07T19:20:37.000Z</time>
      </trkpt>
      <trkpt lat="43.63087" lon="3.81657">
        <ele>50</ele>
        <time>2020-07-07T19:20:38.000Z</time>
      </trkpt>
      <trkpt lat="43.63084" lon="3.81656">
        <ele>50</ele>
        <time>2020-07-07T19:20:39.000Z</time>
      </trkpt>
      <trkpt lat="43.6308" lon="3.81652">
        <ele>50</ele>
        <time>2020-07-07T19:20:40.000Z</time>
      </trkpt>
      <trkpt lat="43.63075" lon="3.81648">
        <ele>50</ele>
        <time>2020-07-07T19:20:41.000Z</time>
      </trkpt>
      <trkpt lat="43.63068" lon="3.81644">
        <ele>50</ele>
        <time>2020-07-07T19:20:42.000Z</time>
      </trkpt>
      <trkpt lat="43.63061" lon="3.81641">
        <ele>50</ele>
        <time>2020-07-07T19:20:43.000Z</time>
      </trkpt>
      <trkpt lat="43.63055" lon="3.81638">
        <ele>50</ele>
        <time>2020-07-07T19:20:44.000Z</time>
      </trkpt>
      <trkpt lat="43.63049" lon="3.81638">
        <ele>50</ele>
        <time>2020-07-07T19:20:45.000Z</time>
      </trkpt>
      <trkpt lat="43.63044" lon="3.81637">
        <ele>50</ele>
        <time>2020-07-07T19:20:46.000Z</time>
      </trkpt>
      <trkpt lat="43.63038" lon="3.81636">
        <ele>50</ele>
        <time>2020-07-07T19:20:47.000Z</time>
      </trkpt>
      <trkpt lat="43.63032" lon="3.81635">
        <ele>50.016</ele>
        <time>2020-07-07T19:20:48.000Z</time>
      </trkpt>
      <trkpt lat="43.63026" lon="3.81635">
        <ele>50.116</ele>
        <time>2020-07-07T19:20:49.000Z</time>
      </trkpt>
      <trkpt lat="43.63012" lon="3.81636">
        <ele>50.316</ele>
        <time>2020-07-07T19:20:51.000Z</time>
      </trkpt>
      <trkpt lat="43.63005" lon="3.81638">
        <ele>50.416</ele>
        <time>2020-07-07T19:20:52.000Z</time>
      </trkpt>
      <trkpt lat="43.62999" lon="3.8164">
        <ele>50.516</ele>
        <time>2020-07-07T19:20:53.000Z</time>
      </trkpt>
      <trkpt lat="43.62993" lon="3.81642">
        <ele>50.616</ele>
        <time>2020-07-07T19:20:54.000Z</time>
      </trkpt>
      <trkpt lat="43.62987" lon="3.81644">
        <ele>50.716</ele>
        <time>2020-07-07T19:20:55.000Z</time>
      </trkpt>
      <trkpt lat="43.62974" lon="3.81645">
        <ele>50.916</ele>
        <time>2020-07-07T19:20:57.000Z</time>
      </trkpt>
      <trkpt lat="43.62963" lon="3.81645">
        <ele>51</ele>
        <time>2020-07-07T19:20:59.000Z</time>
      </trkpt>
      <trkpt lat="43.62958" lon="3.81645">
        <ele>51</ele>
        <time>2020-07-07T19:21:00.000Z</time>
      </trkpt>
      <trkpt lat="43.62952" lon="3.81644">
        <ele>51</ele>
        <time>2020-07-07T19:21:01.000Z</time>
      </trkpt>
      <trkpt lat="43.62947" lon="3.81643">
        <ele>51</ele>
        <time>2020-07-07T19:21:02.000Z</time>
      </trkpt>
      <trkpt lat="43.62943" lon="3.8164">
        <ele>51</ele>
        <time>2020-07-07T19:21:03.000Z</time>
      </trkpt>
      <trkpt lat="43.62939" lon="3.81637">
        <ele>51</ele>
        <time>2020-07-07T19:21:04.000Z</time>
      </trkpt>
      <trkpt lat="43.62935" lon="3.81634">
        <ele>51</ele>
        <time>2020-07-07T19:21:05.000Z</time>
      </trkpt>
      <trkpt lat="43.62932" lon="3.81632">
        <ele>51</ele>
        <time>2020-07-07T19:21:06.000Z</time>
      </trkpt>
      <trkpt lat="43.62924" lon="3.81629">
        <ele>50.984359731188</ele>
        <time>2020-07-07T19:21:08.000Z</time>
      </trkpt>
      <trkpt lat="43.62915" lon="3.81626">
        <ele>50.788856371032</ele>
        <time>2020-07-07T19:21:10.000Z</time>
      </trkpt>
      <trkpt lat="43.62911" lon="3.81629">
        <ele>50.691104690954</ele>
        <time>2020-07-07T19:21:11.000Z</time>
      </trkpt>
      <trkpt lat="43.62908" lon="3.81633">
        <ele>50.593353010877</ele>
        <time>2020-07-07T19:21:12.000Z</time>
      </trkpt>
      <trkpt lat="43.62906" lon="3.81639">
        <ele>50.495601330799</ele>
        <time>2020-07-07T19:21:13.000Z</time>
      </trkpt>
      <trkpt lat="43.62905" lon="3.81645">
        <ele>50.397849650721</ele>
        <time>2020-07-07T19:21:14.000Z</time>
      </trkpt>
      <trkpt lat="43.62906" lon="3.81651">
        <ele>50.300097970644</ele>
        <time>2020-07-07T19:21:15.000Z</time>
      </trkpt>
      <trkpt lat="43.62906" lon="3.81656">
        <ele>50.202346290566</ele>
        <time>2020-07-07T19:21:16.000Z</time>
      </trkpt>
      <trkpt lat="43.62906" lon="3.81661">
        <ele>50.104594610488</ele>
        <time>2020-07-07T19:21:17.000Z</time>
      </trkpt>
      <trkpt lat="43.62906" lon="3.81666">
        <ele>50.006842930411</ele>
        <time>2020-07-07T19:21:18.000Z</time>
      </trkpt>
      <trkpt lat="43.62906" lon="3.81672">
        <ele>50.190378117626</ele>
        <time>2020-07-07T19:21:19.000Z</time>
      </trkpt>
      <trkpt lat="43.62906" lon="3.81677">
        <ele>50.395086475361</ele>
        <time>2020-07-07T19:21:20.000Z</time>
      </trkpt>
      <trkpt lat="43.62907" lon="3.81682">
        <ele>50.599794833096</ele>
        <time>2020-07-07T19:21:21.000Z</time>
      </trkpt>
      <trkpt lat="43.62907" lon="3.81686">
        <ele>50.80450319083</ele>
        <time>2020-07-07T19:21:22.000Z</time>
      </trkpt>
      <trkpt lat="43.62908" lon="3.81691">
        <ele>51.009211548565</ele>
        <time>2020-07-07T19:21:23.000Z</time>
      </trkpt>
      <trkpt lat="43.62908" lon="3.81695">
        <ele>51.213919906299</ele>
        <time>2020-07-07T19:21:24.000Z</time>
      </trkpt>
      <trkpt lat="43.62909" lon="3.81698">
        <ele>51.418628264034</ele>
        <time>2020-07-07T19:21:25.000Z</time>
      </trkpt>
      <trkpt lat="43.62909" lon="3.81702">
        <ele>51.623336621768</ele>
        <time>2020-07-07T19:21:26.000Z</time>
      </trkpt>
      <trkpt lat="43.62909" lon="3.81705">
        <ele>51.828044979503</ele>
        <time>2020-07-07T19:21:27.000Z</time>
      </trkpt>
      <trkpt lat="43.62909" lon="3.81709">
        <ele>52.015984021094</ele>
        <time>2020-07-07T19:21:28.000Z</time>
      </trkpt>
      <trkpt lat="43.62909" lon="3.81712">
        <ele>52.11588415293</ele>
        <time>2020-07-07T19:21:29.000Z</time>
      </trkpt>
      <trkpt lat="43.62909" lon="3.81715">
        <ele>52.215784284766</ele>
        <time>2020-07-07T19:21:30.000Z</time>
      </trkpt>
      <trkpt lat="43.62909" lon="3.81717">
        <ele>52.315684416602</ele>
        <time>2020-07-07T19:21:31.000Z</time>
      </trkpt>
      <trkpt lat="43.6291" lon="3.81722">
        <ele>52.515484680275</ele>
        <time>2020-07-07T19:21:33.000Z</time>
      </trkpt>
      <trkpt lat="43.6291" lon="3.81724">
        <ele>52.615384812111</ele>
        <time>2020-07-07T19:21:34.000Z</time>
      </trkpt>
      <trkpt lat="43.62909" lon="3.81729">
        <ele>52.815185075783</ele>
        <time>2020-07-07T19:21:36.000Z</time>
      </trkpt>
      <trkpt lat="43.6291" lon="3.81732">
        <ele>52.91508520762</ele>
        <time>2020-07-07T19:21:37.000Z</time>
      </trkpt>
      <trkpt lat="43.6291" lon="3.81736">
        <ele>53.115115398562</ele>
        <time>2020-07-07T19:21:39.000Z</time>
      </trkpt>
      <trkpt lat="43.62911" lon="3.8174">
        <ele>53.315315534634</ele>
        <time>2020-07-07T19:21:41.000Z</time>
      </trkpt>
      <trkpt lat="43.62914" lon="3.81742">
        <ele>53.515515670706</ele>
        <time>2020-07-07T19:21:43.000Z</time>
      </trkpt>
      <trkpt lat="43.62917" lon="3.81743">
        <ele>53.715715806778</ele>
        <time>2020-07-07T19:21:45.000Z</time>
      </trkpt>
      <trkpt lat="43.62921" lon="3.81744">
        <ele>53.91591594285</ele>
        <time>2020-07-07T19:21:47.000Z</time>
      </trkpt>
      <trkpt lat="43.62924" lon="3.81745">
        <ele>54.232</ele>
        <time>2020-07-07T19:21:49.000Z</time>
      </trkpt>
      <trkpt lat="43.62926" lon="3.81745">
        <ele>54.432</ele>
        <time>2020-07-07T19:21:50.000Z</time>
      </trkpt>
      <trkpt lat="43.62928" lon="3.81746">
        <ele>54.632</ele>
        <time>2020-07-07T19:21:51.000Z</time>
      </trkpt>
      <trkpt lat="43.62931" lon="3.81748">
        <ele>55.032</ele>
        <time>2020-07-07T19:21:53.000Z</time>
      </trkpt>
      <trkpt lat="43.62934" lon="3.8175">
        <ele>55.432</ele>
        <time>2020-07-07T19:21:55.000Z</time>
      </trkpt>
      <trkpt lat="43.62937" lon="3.81752">
        <ele>55.832</ele>
        <time>2020-07-07T19:21:57.000Z</time>
      </trkpt>
      <trkpt lat="43.62939" lon="3.81754">
        <ele>56.23176830586</ele>
        <time>2020-07-07T19:21:59.000Z</time>
      </trkpt>
      <trkpt lat="43.62942" lon="3.81757">
        <ele>56.631368833205</ele>
        <time>2020-07-07T19:22:01.000Z</time>
      </trkpt>
      <trkpt lat="43.62943" lon="3.81758">
        <ele>56.831169096877</ele>
        <time>2020-07-07T19:22:02.000Z</time>
      </trkpt>
      <trkpt lat="43.62945" lon="3.81759">
        <ele>57.03096936055</ele>
        <time>2020-07-07T19:22:03.000Z</time>
      </trkpt>
      <trkpt lat="43.62946" lon="3.81761">
        <ele>57.230769624222</ele>
        <time>2020-07-07T19:22:04.000Z</time>
      </trkpt>
      <trkpt lat="43.62948" lon="3.81762">
        <ele>57.430569887894</ele>
        <time>2020-07-07T19:22:05.000Z</time>
      </trkpt>
      <trkpt lat="43.6295" lon="3.81764">
        <ele>57.630370151567</ele>
        <time>2020-07-07T19:22:06.000Z</time>
      </trkpt>
      <trkpt lat="43.62952" lon="3.81766">
        <ele>57.830170415239</ele>
        <time>2020-07-07T19:22:07.000Z</time>
      </trkpt>
      <trkpt lat="43.62954" lon="3.81767">
        <ele>58</ele>
        <time>2020-07-07T19:22:08.000Z</time>
      </trkpt>
      <trkpt lat="43.62956" lon="3.81769">
        <ele>58</ele>
        <time>2020-07-07T19:22:09.000Z</time>
      </trkpt>
      <trkpt lat="43.62958" lon="3.81771">
        <ele>58</ele>
        <time>2020-07-07T19:22:10.000Z</time>
      </trkpt>
      <trkpt lat="43.6296" lon="3.81773">
        <ele>58</ele>
        <time>2020-07-07T19:22:11.000Z</time>
      </trkpt>
      <trkpt lat="43.62963" lon="3.81775">
        <ele>58</ele>
        <time>2020-07-07T19:22:12.000Z</time>
      </trkpt>
      <trkpt lat="43.62964" lon="3.81778">
        <ele>58</ele>
        <time>2020-07-07T19:22:13.000Z</time>
      </trkpt>
      <trkpt lat="43.62966" lon="3.8178">
        <ele>58</ele>
        <time>2020-07-07T19:22:14.000Z</time>
      </trkpt>
      <trkpt lat="43.62968" lon="3.81782">
        <ele>58</ele>
        <time>2020-07-07T19:22:15.000Z</time>
      </trkpt>
      <trkpt lat="43.6297" lon="3.81784">
        <ele>58</ele>
        <time>2020-07-07T19:22:16.000Z</time>
      </trkpt>
      <trkpt lat="43.62972" lon="3.81786">
        <ele>58</ele>
        <time>2020-07-07T19:22:17.000Z</time>
      </trkpt>
      <trkpt lat="43.62974" lon="3.81788">
        <ele>58</ele>
        <time>2020-07-07T19:22:18.000Z</time>
      </trkpt>
      <trkpt lat="43.62976" lon="3.81791">
        <ele>58</ele>
        <time>2020-07-07T19:22:19.000Z</time>
      </trkpt>
      <trkpt lat="43.62978" lon="3.81793">
        <ele>58</ele>
        <time>2020-07-07T19:22:20.000Z</time>
      </trkpt>
      <trkpt lat="43.6298" lon="3.81795">
        <ele>58</ele>
        <time>2020-07-07T19:22:21.000Z</time>
      </trkpt>
      <trkpt lat="43.62982" lon="3.81797">
        <ele>58</ele>
        <time>2020-07-07T19:22:22.000Z</time>
      </trkpt>
      <trkpt lat="43.62984" lon="3.81799">
        <ele>58</ele>
        <time>2020-07-07T19:22:23.000Z</time>
      </trkpt>
      <trkpt lat="43.62985" lon="3.81801">
        <ele>58</ele>
        <time>2020-07-07T19:22:24.000Z</time>
      </trkpt>
      <trkpt lat="43.62987" lon="3.81803">
        <ele>58</ele>
        <time>2020-07-07T19:22:25.000Z</time>
      </trkpt>
      <trkpt lat="43.62989" lon="3.81805">
        <ele>58</ele>
        <time>2020-07-07T19:22:27.000Z</time>
      </trkpt>
      <trkpt lat="43.62991" lon="3.81806">
        <ele>58.115537848606</ele>
        <time>2020-07-07T19:22:29.000Z</time>
      </trkpt>
      <trkpt lat="43.62994" lon="3.81806">
        <ele>58.414342629482</ele>
        <time>2020-07-07T19:22:32.000Z</time>
      </trkpt>
      <trkpt lat="43.62995" lon="3.81808">
        <ele>58.613545816733</ele>
        <time>2020-07-07T19:22:34.000Z</time>
      </trkpt>
      <trkpt lat="43.62995" lon="3.81811">
        <ele>58.713147410359</ele>
        <time>2020-07-07T19:22:35.000Z</time>
      </trkpt>
      <trkpt lat="43.62997" lon="3.81813">
        <ele>58.812749003984</ele>
        <time>2020-07-07T19:22:36.000Z</time>
      </trkpt>
      <trkpt lat="43.63" lon="3.81816">
        <ele>58.91235059761</ele>
        <time>2020-07-07T19:22:37.000Z</time>
      </trkpt>
      <trkpt lat="43.63002" lon="3.81818">
        <ele>59.012048192771</ele>
        <time>2020-07-07T19:22:38.000Z</time>
      </trkpt>
      <trkpt lat="43.63005" lon="3.8182">
        <ele>59.112449799197</ele>
        <time>2020-07-07T19:22:39.000Z</time>
      </trkpt>
      <trkpt lat="43.63008" lon="3.81822">
        <ele>59.212851405623</ele>
        <time>2020-07-07T19:22:40.000Z</time>
      </trkpt>
      <trkpt lat="43.63011" lon="3.81823">
        <ele>59.313253012048</ele>
        <time>2020-07-07T19:22:41.000Z</time>
      </trkpt>
      <trkpt lat="43.63013" lon="3.81825">
        <ele>59.413654618474</ele>
        <time>2020-07-07T19:22:42.000Z</time>
      </trkpt>
      <trkpt lat="43.63015" lon="3.81827">
        <ele>59.5140562249</ele>
        <time>2020-07-07T19:22:43.000Z</time>
      </trkpt>
      <trkpt lat="43.63017" lon="3.81829">
        <ele>59.614457831325</ele>
        <time>2020-07-07T19:22:44.000Z</time>
      </trkpt>
      <trkpt lat="43.63019" lon="3.81832">
        <ele>59.714859437751</ele>
        <time>2020-07-07T19:22:45.000Z</time>
      </trkpt>
      <trkpt lat="43.6302" lon="3.81834">
        <ele>59.815261044177</ele>
        <time>2020-07-07T19:22:46.000Z</time>
      </trkpt>
      <trkpt lat="43.63022" lon="3.81836">
        <ele>59.915662650602</ele>
        <time>2020-07-07T19:22:47.000Z</time>
      </trkpt>
      <trkpt lat="43.63024" lon="3.81838">
        <ele>60.016</ele>
        <time>2020-07-07T19:22:48.000Z</time>
      </trkpt>
      <trkpt lat="43.63027" lon="3.8184">
        <ele>60.116</ele>
        <time>2020-07-07T19:22:49.000Z</time>
      </trkpt>
      <trkpt lat="43.63029" lon="3.81843">
        <ele>60.216</ele>
        <time>2020-07-07T19:22:50.000Z</time>
      </trkpt>
      <trkpt lat="43.63032" lon="3.81845">
        <ele>60.316</ele>
        <time>2020-07-07T19:22:51.000Z</time>
      </trkpt>
      <trkpt lat="43.63035" lon="3.81847">
        <ele>60.416</ele>
        <time>2020-07-07T19:22:52.000Z</time>
      </trkpt>
      <trkpt lat="43.63037" lon="3.8185">
        <ele>60.516</ele>
        <time>2020-07-07T19:22:53.000Z</time>
      </trkpt>
      <trkpt lat="43.6304" lon="3.81852">
        <ele>60.616</ele>
        <time>2020-07-07T19:22:54.000Z</time>
      </trkpt>
      <trkpt lat="43.63042" lon="3.81855">
        <ele>60.716</ele>
        <time>2020-07-07T19:22:55.000Z</time>
      </trkpt>
      <trkpt lat="43.63045" lon="3.81857">
        <ele>60.816</ele>
        <time>2020-07-07T19:22:56.000Z</time>
      </trkpt>
      <trkpt lat="43.63048" lon="3.8186">
        <ele>60.916</ele>
        <time>2020-07-07T19:22:57.000Z</time>
      </trkpt>
      <trkpt lat="43.6305" lon="3.81863">
        <ele>60.984</ele>
        <time>2020-07-07T19:22:58.000Z</time>
      </trkpt>
      <trkpt lat="43.63052" lon="3.81866">
        <ele>60.884</ele>
        <time>2020-07-07T19:22:59.000Z</time>
      </trkpt>
      <trkpt lat="43.63055" lon="3.81869">
        <ele>60.784</ele>
        <time>2020-07-07T19:23:00.000Z</time>
      </trkpt>
      <trkpt lat="43.63057" lon="3.81873">
        <ele>60.684</ele>
        <time>2020-07-07T19:23:01.000Z</time>
      </trkpt>
      <trkpt lat="43.63059" lon="3.81877">
        <ele>60.584</ele>
        <time>2020-07-07T19:23:02.000Z</time>
      </trkpt>
      <trkpt lat="43.6306" lon="3.81881">
        <ele>60.484</ele>
        <time>2020-07-07T19:23:03.000Z</time>
      </trkpt>
      <trkpt lat="43.63063" lon="3.81885">
        <ele>60.384</ele>
        <time>2020-07-07T19:23:04.000Z</time>
      </trkpt>
      <trkpt lat="43.63065" lon="3.8189">
        <ele>60.284</ele>
        <time>2020-07-07T19:23:05.000Z</time>
      </trkpt>
      <trkpt lat="43.63066" lon="3.81895">
        <ele>60.184</ele>
        <time>2020-07-07T19:23:06.000Z</time>
      </trkpt>
      <trkpt lat="43.63067" lon="3.819">
        <ele>60.084</ele>
        <time>2020-07-07T19:23:07.000Z</time>
      </trkpt>
      <trkpt lat="43.63067" lon="3.81906">
        <ele>59.984</ele>
        <time>2020-07-07T19:23:08.000Z</time>
      </trkpt>
      <trkpt lat="43.63068" lon="3.81911">
        <ele>59.884</ele>
        <time>2020-07-07T19:23:09.000Z</time>
      </trkpt>
      <trkpt lat="43.63068" lon="3.81916">
        <ele>59.784</ele>
        <time>2020-07-07T19:23:10.000Z</time>
      </trkpt>
      <trkpt lat="43.63069" lon="3.8192">
        <ele>59.684</ele>
        <time>2020-07-07T19:23:11.000Z</time>
      </trkpt>
      <trkpt lat="43.6307" lon="3.81923">
        <ele>59.584</ele>
        <time>2020-07-07T19:23:12.000Z</time>
      </trkpt>
      <trkpt lat="43.63071" lon="3.81928">
        <ele>59.484</ele>
        <time>2020-07-07T19:23:13.000Z</time>
      </trkpt>
      <trkpt lat="43.63072" lon="3.81933">
        <ele>59.384</ele>
        <time>2020-07-07T19:23:14.000Z</time>
      </trkpt>
      <trkpt lat="43.63072" lon="3.81938">
        <ele>59.284</ele>
        <time>2020-07-07T19:23:15.000Z</time>
      </trkpt>
      <trkpt lat="43.63072" lon="3.81944">
        <ele>59.184</ele>
        <time>2020-07-07T19:23:16.000Z</time>
      </trkpt>
      <trkpt lat="43.63071" lon="3.81949">
        <ele>59.084</ele>
        <time>2020-07-07T19:23:17.000Z</time>
      </trkpt>
      <trkpt lat="43.63071" lon="3.81955">
        <ele>59</ele>
        <time>2020-07-07T19:23:18.000Z</time>
      </trkpt>
      <trkpt lat="43.63071" lon="3.81961">
        <ele>59</ele>
        <time>2020-07-07T19:23:19.000Z</time>
      </trkpt>
      <trkpt lat="43.63072" lon="3.81966">
        <ele>59</ele>
        <time>2020-07-07T19:23:20.000Z</time>
      </trkpt>
      <trkpt lat="43.63072" lon="3.81972">
        <ele>59</ele>
        <time>2020-07-07T19:23:21.000Z</time>
      </trkpt>
      <trkpt lat="43.63072" lon="3.81978">
        <ele>59</ele>
        <time>2020-07-07T19:23:22.000Z</time>
      </trkpt>
      <trkpt lat="43.63073" lon="3.81983">
        <ele>59</ele>
        <time>2020-07-07T19:23:23.000Z</time>
      </trkpt>
      <trkpt lat="43.63072" lon="3.81989">
        <ele>59</ele>
        <time>2020-07-07T19:23:24.000Z</time>
      </trkpt>
      <trkpt lat="43.63072" lon="3.81994">
        <ele>59</ele>
        <time>2020-07-07T19:23:25.000Z</time>
      </trkpt>
      <trkpt lat="43.63072" lon="3.82">
        <ele>59</ele>
        <time>2020-07-07T19:23:26.000Z</time>
      </trkpt>
      <trkpt lat="43.63072" lon="3.82006">
        <ele>59</ele>
        <time>2020-07-07T19:23:27.000Z</time>
      </trkpt>
      <trkpt lat="43.63072" lon="3.82012">
        <ele>59</ele>
        <time>2020-07-07T19:23:28.000Z</time>
      </trkpt>
      <trkpt lat="43.63072" lon="3.82018">
        <ele>59</ele>
        <time>2020-07-07T19:23:29.000Z</time>
      </trkpt>
      <trkpt lat="43.63071" lon="3.82024">
        <ele>59</ele>
        <time>2020-07-07T19:23:30.000Z</time>
      </trkpt>
      <trkpt lat="43.63071" lon="3.8203">
        <ele>59</ele>
        <time>2020-07-07T19:23:31.000Z</time>
      </trkpt>
      <trkpt lat="43.63071" lon="3.82035">
        <ele>59</ele>
        <time>2020-07-07T19:23:32.000Z</time>
      </trkpt>
      <trkpt lat="43.63071" lon="3.82041">
        <ele>59</ele>
        <time>2020-07-07T19:23:33.000Z</time>
      </trkpt>
      <trkpt lat="43.63071" lon="3.82047">
        <ele>59</ele>
        <time>2020-07-07T19:23:34.000Z</time>
      </trkpt>
      <trkpt lat="43.63071" lon="3.82053">
        <ele>59</ele>
        <time>2020-07-07T19:23:35.000Z</time>
      </trkpt>
      <trkpt lat="43.63071" lon="3.82059">
        <ele>59</ele>
        <time>2020-07-07T19:23:36.000Z</time>
      </trkpt>
      <trkpt lat="43.63071" lon="3.82065">
        <ele>59</ele>
        <time>2020-07-07T19:23:37.000Z</time>
      </trkpt>
      <trkpt lat="43.63071" lon="3.82071">
        <ele>59</ele>
        <time>2020-07-07T19:23:38.000Z</time>
      </trkpt>
      <trkpt lat="43.63071" lon="3.82077">
        <ele>59</ele>
        <time>2020-07-07T19:23:39.000Z</time>
      </trkpt>
      <trkpt lat="43.63071" lon="3.82082">
        <ele>59</ele>
        <time>2020-07-07T19:23:40.000Z</time>
      </trkpt>
      <trkpt lat="43.63071" lon="3.82088">
        <ele>59</ele>
        <time>2020-07-07T19:23:41.000Z</time>
      </trkpt>
      <trkpt lat="43.63071" lon="3.82094">
        <ele>59</ele>
        <time>2020-07-07T19:23:42.000Z</time>
      </trkpt>
      <trkpt lat="43.63071" lon="3.82099">
        <ele>59</ele>
        <time>2020-07-07T19:23:43.000Z</time>
      </trkpt>
      <trkpt lat="43.63071" lon="3.82105">
        <ele>59</ele>
        <time>2020-07-07T19:23:44.000Z</time>
      </trkpt>
      <trkpt lat="43.63071" lon="3.8211">
        <ele>59</ele>
        <time>2020-07-07T19:23:45.000Z</time>
      </trkpt>
      <trkpt lat="43.6307" lon="3.82116">
        <ele>59</ele>
        <time>2020-07-07T19:23:46.000Z</time>
      </trkpt>
      <trkpt lat="43.6307" lon="3.82122">
        <ele>59</ele>
        <time>2020-07-07T19:23:47.000Z</time>
      </trkpt>
      <trkpt lat="43.6307" lon="3.82127">
        <ele>59</ele>
        <time>2020-07-07T19:23:48.000Z</time>
      </trkpt>
      <trkpt lat="43.6307" lon="3.82133">
        <ele>59.0914693826</ele>
        <time>2020-07-07T19:23:49.000Z</time>
      </trkpt>
      <trkpt lat="43.6307" lon="3.82139">
        <ele>59.19424433932</ele>
        <time>2020-07-07T19:23:50.000Z</time>
      </trkpt>
      <trkpt lat="43.63069" lon="3.82144">
        <ele>59.297019296039</ele>
        <time>2020-07-07T19:23:51.000Z</time>
      </trkpt>
      <trkpt lat="43.63069" lon="3.8215">
        <ele>59.399794252759</ele>
        <time>2020-07-07T19:23:52.000Z</time>
      </trkpt>
      <trkpt lat="43.63069" lon="3.82155">
        <ele>59.502569209478</ele>
        <time>2020-07-07T19:23:53.000Z</time>
      </trkpt>
      <trkpt lat="43.63069" lon="3.82161">
        <ele>59.605344166197</ele>
        <time>2020-07-07T19:23:54.000Z</time>
      </trkpt>
      <trkpt lat="43.63069" lon="3.82166">
        <ele>59.708119122917</ele>
        <time>2020-07-07T19:23:55.000Z</time>
      </trkpt>
      <trkpt lat="43.63069" lon="3.82171">
        <ele>59.810894079636</ele>
        <time>2020-07-07T19:23:56.000Z</time>
      </trkpt>
      <trkpt lat="43.63068" lon="3.82177">
        <ele>59.913669036356</ele>
        <time>2020-07-07T19:23:57.000Z</time>
      </trkpt>
      <trkpt lat="43.63068" lon="3.82182">
        <ele>60</ele>
        <time>2020-07-07T19:23:58.000Z</time>
      </trkpt>
      <trkpt lat="43.63068" lon="3.82187">
        <ele>60</ele>
        <time>2020-07-07T19:23:59.000Z</time>
      </trkpt>
      <trkpt lat="43.63068" lon="3.82192">
        <ele>60</ele>
        <time>2020-07-07T19:24:00.000Z</time>
      </trkpt>
      <trkpt lat="43.63068" lon="3.82196">
        <ele>60</ele>
        <time>2020-07-07T19:24:01.000Z</time>
      </trkpt>
      <trkpt lat="43.63067" lon="3.822">
        <ele>60</ele>
        <time>2020-07-07T19:24:03.000Z</time>
      </trkpt>
      <trkpt lat="43.63067" lon="3.82203">
        <ele>60</ele>
        <time>2020-07-07T19:24:05.000Z</time>
      </trkpt>
      <trkpt lat="43.63067" lon="3.82206">
        <ele>60</ele>
        <time>2020-07-07T19:24:07.000Z</time>
      </trkpt>
      <trkpt lat="43.63067" lon="3.82212">
        <ele>60.114229024943</ele>
        <time>2020-07-07T19:24:09.000Z</time>
      </trkpt>
      <trkpt lat="43.63066" lon="3.82216">
        <ele>60.214429361488</ele>
        <time>2020-07-07T19:24:10.000Z</time>
      </trkpt>
      <trkpt lat="43.63066" lon="3.82221">
        <ele>60.314629698033</ele>
        <time>2020-07-07T19:24:11.000Z</time>
      </trkpt>
      <trkpt lat="43.63065" lon="3.82226">
        <ele>60.414830034578</ele>
        <time>2020-07-07T19:24:12.000Z</time>
      </trkpt>
      <trkpt lat="43.63065" lon="3.82231">
        <ele>60.515030371123</ele>
        <time>2020-07-07T19:24:13.000Z</time>
      </trkpt>
      <trkpt lat="43.63065" lon="3.82235">
        <ele>60.615230707668</ele>
        <time>2020-07-07T19:24:14.000Z</time>
      </trkpt>
      <trkpt lat="43.63065" lon="3.8224">
        <ele>60.715431044213</ele>
        <time>2020-07-07T19:24:15.000Z</time>
      </trkpt>
      <trkpt lat="43.63065" lon="3.82245">
        <ele>60.815631380757</ele>
        <time>2020-07-07T19:24:16.000Z</time>
      </trkpt>
      <trkpt lat="43.63065" lon="3.82249">
        <ele>60.915831717302</ele>
        <time>2020-07-07T19:24:17.000Z</time>
      </trkpt>
      <trkpt lat="43.63064" lon="3.82254">
        <ele>61</ele>
        <time>2020-07-07T19:24:18.000Z</time>
      </trkpt>
      <trkpt lat="43.63064" lon="3.82259">
        <ele>61</ele>
        <time>2020-07-07T19:24:19.000Z</time>
      </trkpt>
      <trkpt lat="43.63064" lon="3.82263">
        <ele>61</ele>
        <time>2020-07-07T19:24:20.000Z</time>
      </trkpt>
      <trkpt lat="43.63064" lon="3.82268">
        <ele>61</ele>
        <time>2020-07-07T19:24:21.000Z</time>
      </trkpt>
      <trkpt lat="43.63064" lon="3.82273">
        <ele>61</ele>
        <time>2020-07-07T19:24:22.000Z</time>
      </trkpt>
      <trkpt lat="43.63064" lon="3.82278">
        <ele>61</ele>
        <time>2020-07-07T19:24:23.000Z</time>
      </trkpt>
      <trkpt lat="43.63064" lon="3.82283">
        <ele>61</ele>
        <time>2020-07-07T19:24:24.000Z</time>
      </trkpt>
      <trkpt lat="43.63064" lon="3.82287">
        <ele>61</ele>
        <time>2020-07-07T19:24:25.000Z</time>
      </trkpt>
      <trkpt lat="43.63063" lon="3.82291">
        <ele>61</ele>
        <time>2020-07-07T19:24:26.000Z</time>
      </trkpt>
      <trkpt lat="43.63063" lon="3.82295">
        <ele>61</ele>
        <time>2020-07-07T19:24:27.000Z</time>
      </trkpt>
      <trkpt lat="43.63062" lon="3.823">
        <ele>61</ele>
        <time>2020-07-07T19:24:28.000Z</time>
      </trkpt>
      <trkpt lat="43.63061" lon="3.82305">
        <ele>61</ele>
        <time>2020-07-07T19:24:29.000Z</time>
      </trkpt>
      <trkpt lat="43.63061" lon="3.82311">
        <ele>61</ele>
        <time>2020-07-07T19:24:30.000Z</time>
      </trkpt>
      <trkpt lat="43.63061" lon="3.82316">
        <ele>61</ele>
        <time>2020-07-07T19:24:31.000Z</time>
      </trkpt>
      <trkpt lat="43.6306" lon="3.82321">
        <ele>61</ele>
        <time>2020-07-07T19:24:32.000Z</time>
      </trkpt>
      <trkpt lat="43.6306" lon="3.82327">
        <ele>61</ele>
        <time>2020-07-07T19:24:33.000Z</time>
      </trkpt>
      <trkpt lat="43.6306" lon="3.82332">
        <ele>61</ele>
        <time>2020-07-07T19:24:34.000Z</time>
      </trkpt>
      <trkpt lat="43.63059" lon="3.82337">
        <ele>61</ele>
        <time>2020-07-07T19:24:35.000Z</time>
      </trkpt>
      <trkpt lat="43.6306" lon="3.82342">
        <ele>61</ele>
        <time>2020-07-07T19:24:36.000Z</time>
      </trkpt>
      <trkpt lat="43.6306" lon="3.82348">
        <ele>61</ele>
        <time>2020-07-07T19:24:37.000Z</time>
      </trkpt>
      <trkpt lat="43.6306" lon="3.82353">
        <ele>61</ele>
        <time>2020-07-07T19:24:38.000Z</time>
      </trkpt>
      <trkpt lat="43.6306" lon="3.82358">
        <ele>61</ele>
        <time>2020-07-07T19:24:39.000Z</time>
      </trkpt>
      <trkpt lat="43.6306" lon="3.82364">
        <ele>61</ele>
        <time>2020-07-07T19:24:40.000Z</time>
      </trkpt>
      <trkpt lat="43.63059" lon="3.82369">
        <ele>61</ele>
        <time>2020-07-07T19:24:41.000Z</time>
      </trkpt>
      <trkpt lat="43.63059" lon="3.82374">
        <ele>61</ele>
        <time>2020-07-07T19:24:42.000Z</time>
      </trkpt>
      <trkpt lat="43.63059" lon="3.8238">
        <ele>61</ele>
        <time>2020-07-07T19:24:43.000Z</time>
      </trkpt>
      <trkpt lat="43.63059" lon="3.82385">
        <ele>61</ele>
        <time>2020-07-07T19:24:44.000Z</time>
      </trkpt>
      <trkpt lat="43.63059" lon="3.8239">
        <ele>61</ele>
        <time>2020-07-07T19:24:45.000Z</time>
      </trkpt>
      <trkpt lat="43.63059" lon="3.82395">
        <ele>61</ele>
        <time>2020-07-07T19:24:46.000Z</time>
      </trkpt>
      <trkpt lat="43.63059" lon="3.82401">
        <ele>61</ele>
        <time>2020-07-07T19:24:47.000Z</time>
      </trkpt>
      <trkpt lat="43.63059" lon="3.82406">
        <ele>61</ele>
        <time>2020-07-07T19:24:48.000Z</time>
      </trkpt>
      <trkpt lat="43.63059" lon="3.82411">
        <ele>61</ele>
        <time>2020-07-07T19:24:49.000Z</time>
      </trkpt>
      <trkpt lat="43.63058" lon="3.82417">
        <ele>61</ele>
        <time>2020-07-07T19:24:50.000Z</time>
      </trkpt>
      <trkpt lat="43.63058" lon="3.82422">
        <ele>61</ele>
        <time>2020-07-07T19:24:51.000Z</time>
      </trkpt>
      <trkpt lat="43.63058" lon="3.82427">
        <ele>61</ele>
        <time>2020-07-07T19:24:52.000Z</time>
      </trkpt>
      <trkpt lat="43.63058" lon="3.82432">
        <ele>61</ele>
        <time>2020-07-07T19:24:53.000Z</time>
      </trkpt>
      <trkpt lat="43.63057" lon="3.82438">
        <ele>61</ele>
        <time>2020-07-07T19:24:54.000Z</time>
      </trkpt>
      <trkpt lat="43.63056" lon="3.82443">
        <ele>61</ele>
        <time>2020-07-07T19:24:55.000Z</time>
      </trkpt>
      <trkpt lat="43.63054" lon="3.82449">
        <ele>61</ele>
        <time>2020-07-07T19:24:56.000Z</time>
      </trkpt>
      <trkpt lat="43.63053" lon="3.82455">
        <ele>61</ele>
        <time>2020-07-07T19:24:57.000Z</time>
      </trkpt>
      <trkpt lat="43.63053" lon="3.82461">
        <ele>60.984</ele>
        <time>2020-07-07T19:24:58.000Z</time>
      </trkpt>
      <trkpt lat="43.63053" lon="3.82467">
        <ele>60.884</ele>
        <time>2020-07-07T19:24:59.000Z</time>
      </trkpt>
      <trkpt lat="43.63052" lon="3.82473">
        <ele>60.784</ele>
        <time>2020-07-07T19:25:00.000Z</time>
      </trkpt>
      <trkpt lat="43.63051" lon="3.8248">
        <ele>60.684</ele>
        <time>2020-07-07T19:25:01.000Z</time>
      </trkpt>
      <trkpt lat="43.6305" lon="3.82486">
        <ele>60.584</ele>
        <time>2020-07-07T19:25:02.000Z</time>
      </trkpt>
      <trkpt lat="43.63049" lon="3.82492">
        <ele>60.484</ele>
        <time>2020-07-07T19:25:03.000Z</time>
      </trkpt>
      <trkpt lat="43.63047" lon="3.82499">
        <ele>60.384</ele>
        <time>2020-07-07T19:25:04.000Z</time>
      </trkpt>
      <trkpt lat="43.63046" lon="3.82505">
        <ele>60.284</ele>
        <time>2020-07-07T19:25:05.000Z</time>
      </trkpt>
      <trkpt lat="43.63045" lon="3.82512">
        <ele>60.184</ele>
        <time>2020-07-07T19:25:06.000Z</time>
      </trkpt>
      <trkpt lat="43.63045" lon="3.82519">
        <ele>60.084</ele>
        <time>2020-07-07T19:25:07.000Z</time>
      </trkpt>
      <trkpt lat="43.63045" lon="3.82525">
        <ele>60.016</ele>
        <time>2020-07-07T19:25:08.000Z</time>
      </trkpt>
      <trkpt lat="43.63045" lon="3.82532">
        <ele>60.116</ele>
        <time>2020-07-07T19:25:09.000Z</time>
      </trkpt>
      <trkpt lat="43.63045" lon="3.82538">
        <ele>60.216</ele>
        <time>2020-07-07T19:25:10.000Z</time>
      </trkpt>
      <trkpt lat="43.63045" lon="3.82544">
        <ele>60.316</ele>
        <time>2020-07-07T19:25:11.000Z</time>
      </trkpt>
      <trkpt lat="43.63045" lon="3.8255">
        <ele>60.416</ele>
        <time>2020-07-07T19:25:12.000Z</time>
      </trkpt>
      <trkpt lat="43.63045" lon="3.82556">
        <ele>60.516</ele>
        <time>2020-07-07T19:25:13.000Z</time>
      </trkpt>
      <trkpt lat="43.63045" lon="3.82561">
        <ele>60.616</ele>
        <time>2020-07-07T19:25:14.000Z</time>
      </trkpt>
      <trkpt lat="43.63045" lon="3.82567">
        <ele>60.716</ele>
        <time>2020-07-07T19:25:15.000Z</time>
      </trkpt>
      <trkpt lat="43.63044" lon="3.82572">
        <ele>60.816</ele>
        <time>2020-07-07T19:25:16.000Z</time>
      </trkpt>
      <trkpt lat="43.63044" lon="3.82576">
        <ele>60.916</ele>
        <time>2020-07-07T19:25:17.000Z</time>
      </trkpt>
      <trkpt lat="43.63044" lon="3.82581">
        <ele>61.015564202335</ele>
        <time>2020-07-07T19:25:18.000Z</time>
      </trkpt>
      <trkpt lat="43.63044" lon="3.82586">
        <ele>61.112840466926</ele>
        <time>2020-07-07T19:25:19.000Z</time>
      </trkpt>
      <trkpt lat="43.63044" lon="3.8259">
        <ele>61.210116731518</ele>
        <time>2020-07-07T19:25:20.000Z</time>
      </trkpt>
      <trkpt lat="43.63044" lon="3.82595">
        <ele>61.307392996109</ele>
        <time>2020-07-07T19:25:21.000Z</time>
      </trkpt>
      <trkpt lat="43.63044" lon="3.82599">
        <ele>61.4046692607</ele>
        <time>2020-07-07T19:25:22.000Z</time>
      </trkpt>
      <trkpt lat="43.63044" lon="3.82604">
        <ele>61.501945525292</ele>
        <time>2020-07-07T19:25:23.000Z</time>
      </trkpt>
      <trkpt lat="43.63044" lon="3.82608">
        <ele>61.599221789883</ele>
        <time>2020-07-07T19:25:24.000Z</time>
      </trkpt>
      <trkpt lat="43.63043" lon="3.82612">
        <ele>61.696498054475</ele>
        <time>2020-07-07T19:25:25.000Z</time>
      </trkpt>
      <trkpt lat="43.63042" lon="3.82616">
        <ele>61.793774319066</ele>
        <time>2020-07-07T19:25:26.000Z</time>
      </trkpt>
      <trkpt lat="43.63041" lon="3.82621">
        <ele>61.891050583658</ele>
        <time>2020-07-07T19:25:27.000Z</time>
      </trkpt>
      <trkpt lat="43.6304" lon="3.82624">
        <ele>61.988326848249</ele>
        <time>2020-07-07T19:25:28.000Z</time>
      </trkpt>
      <trkpt lat="43.63039" lon="3.82628">
        <ele>62.090534979424</ele>
        <time>2020-07-07T19:25:29.000Z</time>
      </trkpt>
      <trkpt lat="43.63038" lon="3.82632">
        <ele>62.19341563786</ele>
        <time>2020-07-07T19:25:30.000Z</time>
      </trkpt>
      <trkpt lat="43.63037" lon="3.82636">
        <ele>62.296296296296</ele>
        <time>2020-07-07T19:25:31.000Z</time>
      </trkpt>
      <trkpt lat="43.63035" lon="3.82639">
        <ele>62.399176954733</ele>
        <time>2020-07-07T19:25:32.000Z</time>
      </trkpt>
      <trkpt lat="43.63031" lon="3.8264">
        <ele>62.502057613169</ele>
        <time>2020-07-07T19:25:33.000Z</time>
      </trkpt>
      <trkpt lat="43.63028" lon="3.8264">
        <ele>62.604938271605</ele>
        <time>2020-07-07T19:25:34.000Z</time>
      </trkpt>
      <trkpt lat="43.63025" lon="3.8264">
        <ele>62.707818930041</ele>
        <time>2020-07-07T19:25:35.000Z</time>
      </trkpt>
      <trkpt lat="43.63022" lon="3.82639">
        <ele>62.810699588477</ele>
        <time>2020-07-07T19:25:36.000Z</time>
      </trkpt>
      <trkpt lat="43.63019" lon="3.8264">
        <ele>62.913580246914</ele>
        <time>2020-07-07T19:25:37.000Z</time>
      </trkpt>
      <trkpt lat="43.63017" lon="3.82642">
        <ele>63</ele>
        <time>2020-07-07T19:25:38.000Z</time>
      </trkpt>
      <trkpt lat="43.63014" lon="3.82644">
        <ele>63</ele>
        <time>2020-07-07T19:25:39.000Z</time>
      </trkpt>
      <trkpt lat="43.63011" lon="3.82646">
        <ele>63</ele>
        <time>2020-07-07T19:25:40.000Z</time>
      </trkpt>
      <trkpt lat="43.63009" lon="3.82648">
        <ele>63</ele>
        <time>2020-07-07T19:25:41.000Z</time>
      </trkpt>
      <trkpt lat="43.63007" lon="3.82651">
        <ele>63</ele>
        <time>2020-07-07T19:25:42.000Z</time>
      </trkpt>
      <trkpt lat="43.63004" lon="3.82653">
        <ele>63</ele>
        <time>2020-07-07T19:25:43.000Z</time>
      </trkpt>
      <trkpt lat="43.63002" lon="3.82656">
        <ele>63</ele>
        <time>2020-07-07T19:25:44.000Z</time>
      </trkpt>
      <trkpt lat="43.62999" lon="3.82659">
        <ele>63</ele>
        <time>2020-07-07T19:25:45.000Z</time>
      </trkpt>
      <trkpt lat="43.62997" lon="3.82662">
        <ele>63</ele>
        <time>2020-07-07T19:25:46.000Z</time>
      </trkpt>
      <trkpt lat="43.62994" lon="3.82665">
        <ele>63</ele>
        <time>2020-07-07T19:25:47.000Z</time>
      </trkpt>
      <trkpt lat="43.62992" lon="3.82668">
        <ele>63</ele>
        <time>2020-07-07T19:25:48.000Z</time>
      </trkpt>
      <trkpt lat="43.62989" lon="3.82671">
        <ele>63</ele>
        <time>2020-07-07T19:25:49.000Z</time>
      </trkpt>
      <trkpt lat="43.62986" lon="3.82674">
        <ele>63</ele>
        <time>2020-07-07T19:25:50.000Z</time>
      </trkpt>
      <trkpt lat="43.62984" lon="3.82678">
        <ele>63</ele>
        <time>2020-07-07T19:25:51.000Z</time>
      </trkpt>
      <trkpt lat="43.62981" lon="3.82681">
        <ele>63</ele>
        <time>2020-07-07T19:25:52.000Z</time>
      </trkpt>
      <trkpt lat="43.62978" lon="3.82684">
        <ele>63</ele>
        <time>2020-07-07T19:25:53.000Z</time>
      </trkpt>
      <trkpt lat="43.62975" lon="3.82688">
        <ele>63</ele>
        <time>2020-07-07T19:25:54.000Z</time>
      </trkpt>
      <trkpt lat="43.62973" lon="3.82691">
        <ele>63</ele>
        <time>2020-07-07T19:25:55.000Z</time>
      </trkpt>
      <trkpt lat="43.6297" lon="3.82695">
        <ele>63</ele>
        <time>2020-07-07T19:25:56.000Z</time>
      </trkpt>
      <trkpt lat="43.62967" lon="3.82698">
        <ele>63</ele>
        <time>2020-07-07T19:25:57.000Z</time>
      </trkpt>
      <trkpt lat="43.62964" lon="3.82702">
        <ele>63</ele>
        <time>2020-07-07T19:25:58.000Z</time>
      </trkpt>
      <trkpt lat="43.62962" lon="3.82706">
        <ele>63</ele>
        <time>2020-07-07T19:25:59.000Z</time>
      </trkpt>
      <trkpt lat="43.62959" lon="3.8271">
        <ele>63</ele>
        <time>2020-07-07T19:26:00.000Z</time>
      </trkpt>
      <trkpt lat="43.62956" lon="3.82713">
        <ele>63</ele>
        <time>2020-07-07T19:26:01.000Z</time>
      </trkpt>
      <trkpt lat="43.62953" lon="3.82716">
        <ele>63</ele>
        <time>2020-07-07T19:26:02.000Z</time>
      </trkpt>
      <trkpt lat="43.62949" lon="3.82719">
        <ele>63</ele>
        <time>2020-07-07T19:26:03.000Z</time>
      </trkpt>
      <trkpt lat="43.62946" lon="3.82722">
        <ele>63</ele>
        <time>2020-07-07T19:26:04.000Z</time>
      </trkpt>
      <trkpt lat="43.62943" lon="3.82722">
        <ele>63</ele>
        <time>2020-07-07T19:26:05.000Z</time>
      </trkpt>
      <trkpt lat="43.6294" lon="3.82721">
        <ele>63</ele>
        <time>2020-07-07T19:26:06.000Z</time>
      </trkpt>
      <trkpt lat="43.62938" lon="3.8272">
        <ele>63</ele>
        <time>2020-07-07T19:26:07.000Z</time>
      </trkpt>
      <trkpt lat="43.62934" lon="3.82722">
        <ele>63.116</ele>
        <time>2020-07-07T19:26:09.000Z</time>
      </trkpt>
      <trkpt lat="43.62932" lon="3.82725">
        <ele>63.216</ele>
        <time>2020-07-07T19:26:10.000Z</time>
      </trkpt>
      <trkpt lat="43.6293" lon="3.82728">
        <ele>63.316</ele>
        <time>2020-07-07T19:26:11.000Z</time>
      </trkpt>
      <trkpt lat="43.62927" lon="3.82731">
        <ele>63.416</ele>
        <time>2020-07-07T19:26:12.000Z</time>
      </trkpt>
      <trkpt lat="43.62925" lon="3.82734">
        <ele>63.516</ele>
        <time>2020-07-07T19:26:13.000Z</time>
      </trkpt>
      <trkpt lat="43.62922" lon="3.82738">
        <ele>63.616</ele>
        <time>2020-07-07T19:26:14.000Z</time>
      </trkpt>
      <trkpt lat="43.62919" lon="3.82741">
        <ele>63.716</ele>
        <time>2020-07-07T19:26:15.000Z</time>
      </trkpt>
      <trkpt lat="43.62916" lon="3.82744">
        <ele>63.816</ele>
        <time>2020-07-07T19:26:16.000Z</time>
      </trkpt>
      <trkpt lat="43.62914" lon="3.82748">
        <ele>63.916</ele>
        <time>2020-07-07T19:26:17.000Z</time>
      </trkpt>
      <trkpt lat="43.62911" lon="3.82751">
        <ele>64.032</ele>
        <time>2020-07-07T19:26:18.000Z</time>
      </trkpt>
      <trkpt lat="43.62908" lon="3.82754">
        <ele>64.232</ele>
        <time>2020-07-07T19:26:19.000Z</time>
      </trkpt>
      <trkpt lat="43.62905" lon="3.82758">
        <ele>64.432</ele>
        <time>2020-07-07T19:26:20.000Z</time>
      </trkpt>
      <trkpt lat="43.62904" lon="3.82762">
        <ele>64.632</ele>
        <time>2020-07-07T19:26:21.000Z</time>
      </trkpt>
      <trkpt lat="43.62903" lon="3.82767">
        <ele>64.832</ele>
        <time>2020-07-07T19:26:22.000Z</time>
      </trkpt>
      <trkpt lat="43.62902" lon="3.82771">
        <ele>65.032</ele>
        <time>2020-07-07T19:26:23.000Z</time>
      </trkpt>
      <trkpt lat="43.62902" lon="3.82777">
        <ele>65.232</ele>
        <time>2020-07-07T19:26:24.000Z</time>
      </trkpt>
      <trkpt lat="43.62902" lon="3.82782">
        <ele>65.432</ele>
        <time>2020-07-07T19:26:25.000Z</time>
      </trkpt>
      <trkpt lat="43.62902" lon="3.82787">
        <ele>65.632</ele>
        <time>2020-07-07T19:26:26.000Z</time>
      </trkpt>
      <trkpt lat="43.62903" lon="3.82792">
        <ele>65.832</ele>
        <time>2020-07-07T19:26:27.000Z</time>
      </trkpt>
      <trkpt lat="43.62903" lon="3.82797">
        <ele>66.015984021094</ele>
        <time>2020-07-07T19:26:28.000Z</time>
      </trkpt>
      <trkpt lat="43.62902" lon="3.82801">
        <ele>66.11588415293</ele>
        <time>2020-07-07T19:26:29.000Z</time>
      </trkpt>
      <trkpt lat="43.62901" lon="3.82805">
        <ele>66.215784284766</ele>
        <time>2020-07-07T19:26:30.000Z</time>
      </trkpt>
      <trkpt lat="43.62899" lon="3.82809">
        <ele>66.315684416602</ele>
        <time>2020-07-07T19:26:31.000Z</time>
      </trkpt>
      <trkpt lat="43.62896" lon="3.82812">
        <ele>66.415584548439</ele>
        <time>2020-07-07T19:26:32.000Z</time>
      </trkpt>
      <trkpt lat="43.62894" lon="3.82814">
        <ele>66.515484680275</ele>
        <time>2020-07-07T19:26:33.000Z</time>
      </trkpt>
      <trkpt lat="43.62891" lon="3.82815">
        <ele>66.615384812111</ele>
        <time>2020-07-07T19:26:34.000Z</time>
      </trkpt>
      <trkpt lat="43.62888" lon="3.82815">
        <ele>66.715284943947</ele>
        <time>2020-07-07T19:26:35.000Z</time>
      </trkpt>
      <trkpt lat="43.62886" lon="3.82815">
        <ele>66.815185075783</ele>
        <time>2020-07-07T19:26:36.000Z</time>
      </trkpt>
      <trkpt lat="43.62883" lon="3.82815">
        <ele>66.91508520762</ele>
        <time>2020-07-07T19:26:37.000Z</time>
      </trkpt>
      <trkpt lat="43.62881" lon="3.82815">
        <ele>67.030030661051</ele>
        <time>2020-07-07T19:26:38.000Z</time>
      </trkpt>
      <trkpt lat="43.62878" lon="3.82816">
        <ele>67.230230797123</ele>
        <time>2020-07-07T19:26:39.000Z</time>
      </trkpt>
      <trkpt lat="43.62876" lon="3.82816">
        <ele>67.430430933195</ele>
        <time>2020-07-07T19:26:40.000Z</time>
      </trkpt>
      <trkpt lat="43.62874" lon="3.82817">
        <ele>67.630631069267</ele>
        <time>2020-07-07T19:26:41.000Z</time>
      </trkpt>
      <trkpt lat="43.62872" lon="3.82817">
        <ele>67.830831205339</ele>
        <time>2020-07-07T19:26:42.000Z</time>
      </trkpt>
      <trkpt lat="43.6287" lon="3.82818">
        <ele>68.031031341411</ele>
        <time>2020-07-07T19:26:43.000Z</time>
      </trkpt>
      <trkpt lat="43.62867" lon="3.82818">
        <ele>68.231231477483</ele>
        <time>2020-07-07T19:26:44.000Z</time>
      </trkpt>
      <trkpt lat="43.62865" lon="3.82818">
        <ele>68.431431613555</ele>
        <time>2020-07-07T19:26:45.000Z</time>
      </trkpt>
      <trkpt lat="43.62863" lon="3.82818">
        <ele>68.631631749628</ele>
        <time>2020-07-07T19:26:46.000Z</time>
      </trkpt>
      <trkpt lat="43.62861" lon="3.82819">
        <ele>68.8318318857</ele>
        <time>2020-07-07T19:26:47.000Z</time>
      </trkpt>
      <trkpt lat="43.62858" lon="3.8282">
        <ele>69.116</ele>
        <time>2020-07-07T19:26:49.000Z</time>
      </trkpt>
      <trkpt lat="43.62855" lon="3.82823">
        <ele>69.316</ele>
        <time>2020-07-07T19:26:51.000Z</time>
      </trkpt>
      <trkpt lat="43.62855" lon="3.82826">
        <ele>69.416</ele>
        <time>2020-07-07T19:26:52.000Z</time>
      </trkpt>
      <trkpt lat="43.62854" lon="3.82828">
        <ele>69.516</ele>
        <time>2020-07-07T19:26:53.000Z</time>
      </trkpt>
      <trkpt lat="43.62854" lon="3.82833">
        <ele>69.716</ele>
        <time>2020-07-07T19:26:55.000Z</time>
      </trkpt>
      <trkpt lat="43.62853" lon="3.82836">
        <ele>69.916</ele>
        <time>2020-07-07T19:26:57.000Z</time>
      </trkpt>
      <trkpt lat="43.62851" lon="3.82841">
        <ele>70.232</ele>
        <time>2020-07-07T19:26:59.000Z</time>
      </trkpt>
      <trkpt lat="43.62851" lon="3.82844">
        <ele>70.432</ele>
        <time>2020-07-07T19:27:00.000Z</time>
      </trkpt>
      <trkpt lat="43.6285" lon="3.82846">
        <ele>70.632</ele>
        <time>2020-07-07T19:27:01.000Z</time>
      </trkpt>
      <trkpt lat="43.6285" lon="3.82849">
        <ele>70.832</ele>
        <time>2020-07-07T19:27:02.000Z</time>
      </trkpt>
      <trkpt lat="43.62849" lon="3.82852">
        <ele>71.032</ele>
        <time>2020-07-07T19:27:03.000Z</time>
      </trkpt>
      <trkpt lat="43.62849" lon="3.82854">
        <ele>71.232</ele>
        <time>2020-07-07T19:27:04.000Z</time>
      </trkpt>
      <trkpt lat="43.62848" lon="3.82857">
        <ele>71.432</ele>
        <time>2020-07-07T19:27:05.000Z</time>
      </trkpt>
      <trkpt lat="43.62848" lon="3.8286">
        <ele>71.632</ele>
        <time>2020-07-07T19:27:06.000Z</time>
      </trkpt>
      <trkpt lat="43.62848" lon="3.82862">
        <ele>71.832</ele>
        <time>2020-07-07T19:27:07.000Z</time>
      </trkpt>
      <trkpt lat="43.62848" lon="3.82865">
        <ele>72.016</ele>
        <time>2020-07-07T19:27:08.000Z</time>
      </trkpt>
      <trkpt lat="43.62847" lon="3.82868">
        <ele>72.116</ele>
        <time>2020-07-07T19:27:09.000Z</time>
      </trkpt>
      <trkpt lat="43.62847" lon="3.82871">
        <ele>72.216</ele>
        <time>2020-07-07T19:27:10.000Z</time>
      </trkpt>
      <trkpt lat="43.62846" lon="3.82874">
        <ele>72.316</ele>
        <time>2020-07-07T19:27:11.000Z</time>
      </trkpt>
      <trkpt lat="43.62846" lon="3.82876">
        <ele>72.416</ele>
        <time>2020-07-07T19:27:12.000Z</time>
      </trkpt>
      <trkpt lat="43.62845" lon="3.82879">
        <ele>72.516</ele>
        <time>2020-07-07T19:27:13.000Z</time>
      </trkpt>
      <trkpt lat="43.62845" lon="3.82882">
        <ele>72.616</ele>
        <time>2020-07-07T19:27:14.000Z</time>
      </trkpt>
      <trkpt lat="43.62844" lon="3.82884">
        <ele>72.716</ele>
        <time>2020-07-07T19:27:15.000Z</time>
      </trkpt>
      <trkpt lat="43.62843" lon="3.82887">
        <ele>72.816</ele>
        <time>2020-07-07T19:27:16.000Z</time>
      </trkpt>
      <trkpt lat="43.62843" lon="3.8289">
        <ele>72.916</ele>
        <time>2020-07-07T19:27:17.000Z</time>
      </trkpt>
      <trkpt lat="43.62842" lon="3.82893">
        <ele>73.016</ele>
        <time>2020-07-07T19:27:18.000Z</time>
      </trkpt>
      <trkpt lat="43.62842" lon="3.82897">
        <ele>73.116</ele>
        <time>2020-07-07T19:27:19.000Z</time>
      </trkpt>
      <trkpt lat="43.62841" lon="3.829">
        <ele>73.216</ele>
        <time>2020-07-07T19:27:20.000Z</time>
      </trkpt>
      <trkpt lat="43.6284" lon="3.82904">
        <ele>73.316</ele>
        <time>2020-07-07T19:27:21.000Z</time>
      </trkpt>
      <trkpt lat="43.6284" lon="3.82907">
        <ele>73.416</ele>
        <time>2020-07-07T19:27:22.000Z</time>
      </trkpt>
      <trkpt lat="43.62839" lon="3.82911">
        <ele>73.516</ele>
        <time>2020-07-07T19:27:23.000Z</time>
      </trkpt>
      <trkpt lat="43.62839" lon="3.82914">
        <ele>73.616</ele>
        <time>2020-07-07T19:27:24.000Z</time>
      </trkpt>
      <trkpt lat="43.62838" lon="3.82917">
        <ele>73.716</ele>
        <time>2020-07-07T19:27:25.000Z</time>
      </trkpt>
      <trkpt lat="43.62838" lon="3.8292">
        <ele>73.816</ele>
        <time>2020-07-07T19:27:26.000Z</time>
      </trkpt>
      <trkpt lat="43.62837" lon="3.82923">
        <ele>73.916</ele>
        <time>2020-07-07T19:27:27.000Z</time>
      </trkpt>
      <trkpt lat="43.62837" lon="3.82926">
        <ele>74.015594551638</ele>
        <time>2020-07-07T19:27:28.000Z</time>
      </trkpt>
      <trkpt lat="43.62836" lon="3.82929">
        <ele>74.113060499375</ele>
        <time>2020-07-07T19:27:29.000Z</time>
      </trkpt>
      <trkpt lat="43.62836" lon="3.82932">
        <ele>74.210526447112</ele>
        <time>2020-07-07T19:27:30.000Z</time>
      </trkpt>
      <trkpt lat="43.62835" lon="3.82935">
        <ele>74.307992394849</ele>
        <time>2020-07-07T19:27:31.000Z</time>
      </trkpt>
      <trkpt lat="43.62835" lon="3.82938">
        <ele>74.405458342586</ele>
        <time>2020-07-07T19:27:32.000Z</time>
      </trkpt>
      <trkpt lat="43.62838" lon="3.82941">
        <ele>74.60039023806</ele>
        <time>2020-07-07T19:27:34.000Z</time>
      </trkpt>
      <trkpt lat="43.6284" lon="3.82942">
        <ele>74.697856185797</ele>
        <time>2020-07-07T19:27:35.000Z</time>
      </trkpt>
      <trkpt lat="43.62843" lon="3.82943">
        <ele>74.795322133534</ele>
        <time>2020-07-07T19:27:36.000Z</time>
      </trkpt>
      <trkpt lat="43.62845" lon="3.82944">
        <ele>74.892788081271</ele>
        <time>2020-07-07T19:27:37.000Z</time>
      </trkpt>
      <trkpt lat="43.62847" lon="3.82945">
        <ele>74.990254029008</ele>
        <time>2020-07-07T19:27:38.000Z</time>
      </trkpt>
      <trkpt lat="43.62849" lon="3.82946">
        <ele>75</ele>
        <time>2020-07-07T19:27:39.000Z</time>
      </trkpt>
      <trkpt lat="43.62852" lon="3.82946">
        <ele>75</ele>
        <time>2020-07-07T19:27:40.000Z</time>
      </trkpt>
      <trkpt lat="43.62854" lon="3.82947">
        <ele>75</ele>
        <time>2020-07-07T19:27:41.000Z</time>
      </trkpt>
      <trkpt lat="43.62856" lon="3.82947">
        <ele>75</ele>
        <time>2020-07-07T19:27:42.000Z</time>
      </trkpt>
      <trkpt lat="43.62859" lon="3.82947">
        <ele>75</ele>
        <time>2020-07-07T19:27:43.000Z</time>
      </trkpt>
      <trkpt lat="43.62862" lon="3.82947">
        <ele>75</ele>
        <time>2020-07-07T19:27:44.000Z</time>
      </trkpt>
      <trkpt lat="43.62865" lon="3.82948">
        <ele>75</ele>
        <time>2020-07-07T19:27:45.000Z</time>
      </trkpt>
      <trkpt lat="43.62867" lon="3.82948">
        <ele>75</ele>
        <time>2020-07-07T19:27:46.000Z</time>
      </trkpt>
      <trkpt lat="43.6287" lon="3.82948">
        <ele>75</ele>
        <time>2020-07-07T19:27:47.000Z</time>
      </trkpt>
      <trkpt lat="43.62873" lon="3.82948">
        <ele>75.016</ele>
        <time>2020-07-07T19:27:48.000Z</time>
      </trkpt>
      <trkpt lat="43.62876" lon="3.82949">
        <ele>75.116</ele>
        <time>2020-07-07T19:27:49.000Z</time>
      </trkpt>
      <trkpt lat="43.62879" lon="3.82949">
        <ele>75.216</ele>
        <time>2020-07-07T19:27:50.000Z</time>
      </trkpt>
      <trkpt lat="43.62882" lon="3.82949">
        <ele>75.316</ele>
        <time>2020-07-07T19:27:51.000Z</time>
      </trkpt>
      <trkpt lat="43.62885" lon="3.8295">
        <ele>75.416</ele>
        <time>2020-07-07T19:27:52.000Z</time>
      </trkpt>
      <trkpt lat="43.62888" lon="3.8295">
        <ele>75.516</ele>
        <time>2020-07-07T19:27:53.000Z</time>
      </trkpt>
      <trkpt lat="43.6289" lon="3.8295">
        <ele>75.616</ele>
        <time>2020-07-07T19:27:54.000Z</time>
      </trkpt>
      <trkpt lat="43.62893" lon="3.82952">
        <ele>75.716</ele>
        <time>2020-07-07T19:27:55.000Z</time>
      </trkpt>
      <trkpt lat="43.62894" lon="3.82955">
        <ele>75.816</ele>
        <time>2020-07-07T19:27:56.000Z</time>
      </trkpt>
      <trkpt lat="43.62895" lon="3.82958">
        <ele>75.916</ele>
        <time>2020-07-07T19:27:57.000Z</time>
      </trkpt>
      <trkpt lat="43.62894" lon="3.8296">
        <ele>76.032</ele>
        <time>2020-07-07T19:27:58.000Z</time>
      </trkpt>
      <trkpt lat="43.62894" lon="3.82963">
        <ele>76.232</ele>
        <time>2020-07-07T19:27:59.000Z</time>
      </trkpt>
      <trkpt lat="43.62894" lon="3.82965">
        <ele>76.432</ele>
        <time>2020-07-07T19:28:00.000Z</time>
      </trkpt>
      <trkpt lat="43.62894" lon="3.8297">
        <ele>76.832</ele>
        <time>2020-07-07T19:28:02.000Z</time>
      </trkpt>
      <trkpt lat="43.62894" lon="3.82975">
        <ele>77.232</ele>
        <time>2020-07-07T19:28:04.000Z</time>
      </trkpt>
      <trkpt lat="43.62894" lon="3.82978">
        <ele>77.432</ele>
        <time>2020-07-07T19:28:05.000Z</time>
      </trkpt>
      <trkpt lat="43.62894" lon="3.82981">
        <ele>77.632</ele>
        <time>2020-07-07T19:28:06.000Z</time>
      </trkpt>
      <trkpt lat="43.62895" lon="3.82983">
        <ele>77.832</ele>
        <time>2020-07-07T19:28:07.000Z</time>
      </trkpt>
      <trkpt lat="43.62895" lon="3.82986">
        <ele>78.032</ele>
        <time>2020-07-07T19:28:08.000Z</time>
      </trkpt>
      <trkpt lat="43.62895" lon="3.82989">
        <ele>78.232</ele>
        <time>2020-07-07T19:28:09.000Z</time>
      </trkpt>
      <trkpt lat="43.62895" lon="3.82992">
        <ele>78.432</ele>
        <time>2020-07-07T19:28:10.000Z</time>
      </trkpt>
      <trkpt lat="43.62896" lon="3.82995">
        <ele>78.632</ele>
        <time>2020-07-07T19:28:11.000Z</time>
      </trkpt>
      <trkpt lat="43.62896" lon="3.82998">
        <ele>78.832</ele>
        <time>2020-07-07T19:28:12.000Z</time>
      </trkpt>
      <trkpt lat="43.62896" lon="3.83001">
        <ele>79.032</ele>
        <time>2020-07-07T19:28:13.000Z</time>
      </trkpt>
      <trkpt lat="43.62897" lon="3.83004">
        <ele>79.232</ele>
        <time>2020-07-07T19:28:14.000Z</time>
      </trkpt>
      <trkpt lat="43.62897" lon="3.83007">
        <ele>79.432</ele>
        <time>2020-07-07T19:28:15.000Z</time>
      </trkpt>
      <trkpt lat="43.62897" lon="3.83009">
        <ele>79.632</ele>
        <time>2020-07-07T19:28:16.000Z</time>
      </trkpt>
      <trkpt lat="43.62898" lon="3.83012">
        <ele>79.832</ele>
        <time>2020-07-07T19:28:17.000Z</time>
      </trkpt>
      <trkpt lat="43.62898" lon="3.83015">
        <ele>80.032</ele>
        <time>2020-07-07T19:28:18.000Z</time>
      </trkpt>
      <trkpt lat="43.62898" lon="3.83018">
        <ele>80.232</ele>
        <time>2020-07-07T19:28:19.000Z</time>
      </trkpt>
      <trkpt lat="43.62899" lon="3.83021">
        <ele>80.432</ele>
        <time>2020-07-07T19:28:20.000Z</time>
      </trkpt>
      <trkpt lat="43.62899" lon="3.83024">
        <ele>80.632</ele>
        <time>2020-07-07T19:28:21.000Z</time>
      </trkpt>
      <trkpt lat="43.62899" lon="3.83027">
        <ele>80.832</ele>
        <time>2020-07-07T19:28:22.000Z</time>
      </trkpt>
      <trkpt lat="43.62899" lon="3.8303">
        <ele>81.032</ele>
        <time>2020-07-07T19:28:23.000Z</time>
      </trkpt>
      <trkpt lat="43.62899" lon="3.83033">
        <ele>81.232</ele>
        <time>2020-07-07T19:28:24.000Z</time>
      </trkpt>
      <trkpt lat="43.629" lon="3.83036">
        <ele>81.432</ele>
        <time>2020-07-07T19:28:25.000Z</time>
      </trkpt>
      <trkpt lat="43.629" lon="3.83039">
        <ele>81.632</ele>
        <time>2020-07-07T19:28:26.000Z</time>
      </trkpt>
      <trkpt lat="43.629" lon="3.83041">
        <ele>81.832</ele>
        <time>2020-07-07T19:28:27.000Z</time>
      </trkpt>
      <trkpt lat="43.629" lon="3.83044">
        <ele>82.031128404669</ele>
        <time>2020-07-07T19:28:28.000Z</time>
      </trkpt>
      <trkpt lat="43.629" lon="3.83047">
        <ele>82.225680933852</ele>
        <time>2020-07-07T19:28:29.000Z</time>
      </trkpt>
      <trkpt lat="43.629" lon="3.83051">
        <ele>82.614785992218</ele>
        <time>2020-07-07T19:28:31.000Z</time>
      </trkpt>
      <trkpt lat="43.62901" lon="3.83056">
        <ele>83.003891050584</ele>
        <time>2020-07-07T19:28:33.000Z</time>
      </trkpt>
      <trkpt lat="43.62901" lon="3.83061">
        <ele>83.392996108949</ele>
        <time>2020-07-07T19:28:35.000Z</time>
      </trkpt>
      <trkpt lat="43.62901" lon="3.83064">
        <ele>83.587548638132</ele>
        <time>2020-07-07T19:28:36.000Z</time>
      </trkpt>
      <trkpt lat="43.62901" lon="3.83068">
        <ele>83.976653696498</ele>
        <time>2020-07-07T19:28:38.000Z</time>
      </trkpt>
      <trkpt lat="43.62902" lon="3.83073">
        <ele>84.375249261318</ele>
        <time>2020-07-07T19:28:40.000Z</time>
      </trkpt>
      <trkpt lat="43.62902" lon="3.83078">
        <ele>84.774450603145</ele>
        <time>2020-07-07T19:28:42.000Z</time>
      </trkpt>
      <trkpt lat="43.62902" lon="3.83082">
        <ele>85.173651944973</ele>
        <time>2020-07-07T19:28:44.000Z</time>
      </trkpt>
      <trkpt lat="43.62903" lon="3.83087">
        <ele>85.5728532868</ele>
        <time>2020-07-07T19:28:46.000Z</time>
      </trkpt>
      <trkpt lat="43.62902" lon="3.83091">
        <ele>85.972054628628</ele>
        <time>2020-07-07T19:28:48.000Z</time>
      </trkpt>
      <trkpt lat="43.62899" lon="3.83092">
        <ele>86</ele>
        <time>2020-07-07T19:28:50.000Z</time>
      </trkpt>
      <trkpt lat="43.62897" lon="3.83092">
        <ele>86</ele>
        <time>2020-07-07T19:28:51.000Z</time>
      </trkpt>
      <trkpt lat="43.62895" lon="3.8309">
        <ele>86</ele>
        <time>2020-07-07T19:28:52.000Z</time>
      </trkpt>
      <trkpt lat="43.62893" lon="3.83089">
        <ele>86</ele>
        <time>2020-07-07T19:28:53.000Z</time>
      </trkpt>
      <trkpt lat="43.62891" lon="3.83088">
        <ele>86</ele>
        <time>2020-07-07T19:28:54.000Z</time>
      </trkpt>
      <trkpt lat="43.62888" lon="3.83087">
        <ele>86</ele>
        <time>2020-07-07T19:28:55.000Z</time>
      </trkpt>
      <trkpt lat="43.62886" lon="3.83087">
        <ele>86</ele>
        <time>2020-07-07T19:28:56.000Z</time>
      </trkpt>
      <trkpt lat="43.62884" lon="3.83086">
        <ele>86</ele>
        <time>2020-07-07T19:28:57.000Z</time>
      </trkpt>
      <trkpt lat="43.62881" lon="3.83085">
        <ele>86</ele>
        <time>2020-07-07T19:28:58.000Z</time>
      </trkpt>
      <trkpt lat="43.62879" lon="3.83085">
        <ele>86</ele>
        <time>2020-07-07T19:28:59.000Z</time>
      </trkpt>
      <trkpt lat="43.62877" lon="3.83084">
        <ele>86</ele>
        <time>2020-07-07T19:29:00.000Z</time>
      </trkpt>
      <trkpt lat="43.62874" lon="3.83084">
        <ele>86</ele>
        <time>2020-07-07T19:29:01.000Z</time>
      </trkpt>
      <trkpt lat="43.62872" lon="3.83084">
        <ele>86</ele>
        <time>2020-07-07T19:29:02.000Z</time>
      </trkpt>
      <trkpt lat="43.62869" lon="3.83084">
        <ele>86</ele>
        <time>2020-07-07T19:29:03.000Z</time>
      </trkpt>
      <trkpt lat="43.62867" lon="3.83084">
        <ele>86</ele>
        <time>2020-07-07T19:29:04.000Z</time>
      </trkpt>
      <trkpt lat="43.62864" lon="3.83083">
        <ele>86</ele>
        <time>2020-07-07T19:29:05.000Z</time>
      </trkpt>
      <trkpt lat="43.62861" lon="3.83083">
        <ele>86</ele>
        <time>2020-07-07T19:29:06.000Z</time>
      </trkpt>
      <trkpt lat="43.62859" lon="3.83083">
        <ele>86</ele>
        <time>2020-07-07T19:29:07.000Z</time>
      </trkpt>
      <trkpt lat="43.62856" lon="3.83083">
        <ele>86</ele>
        <time>2020-07-07T19:29:08.000Z</time>
      </trkpt>
      <trkpt lat="43.62854" lon="3.83084">
        <ele>86</ele>
        <time>2020-07-07T19:29:09.000Z</time>
      </trkpt>
      <trkpt lat="43.62852" lon="3.83084">
        <ele>86</ele>
        <time>2020-07-07T19:29:10.000Z</time>
      </trkpt>
      <trkpt lat="43.62849" lon="3.83085">
        <ele>86</ele>
        <time>2020-07-07T19:29:11.000Z</time>
      </trkpt>
      <trkpt lat="43.62847" lon="3.83086">
        <ele>86</ele>
        <time>2020-07-07T19:29:12.000Z</time>
      </trkpt>
      <trkpt lat="43.62845" lon="3.83086">
        <ele>86</ele>
        <time>2020-07-07T19:29:13.000Z</time>
      </trkpt>
      <trkpt lat="43.62842" lon="3.83087">
        <ele>86</ele>
        <time>2020-07-07T19:29:14.000Z</time>
      </trkpt>
      <trkpt lat="43.6284" lon="3.83087">
        <ele>86</ele>
        <time>2020-07-07T19:29:15.000Z</time>
      </trkpt>
      <trkpt lat="43.62837" lon="3.83087">
        <ele>86</ele>
        <time>2020-07-07T19:29:16.000Z</time>
      </trkpt>
      <trkpt lat="43.62835" lon="3.83087">
        <ele>86</ele>
        <time>2020-07-07T19:29:17.000Z</time>
      </trkpt>
      <trkpt lat="43.62832" lon="3.83087">
        <ele>86.016</ele>
        <time>2020-07-07T19:29:18.000Z</time>
      </trkpt>
      <trkpt lat="43.6283" lon="3.83087">
        <ele>86.116</ele>
        <time>2020-07-07T19:29:19.000Z</time>
      </trkpt>
      <trkpt lat="43.62828" lon="3.83088">
        <ele>86.216</ele>
        <time>2020-07-07T19:29:20.000Z</time>
      </trkpt>
      <trkpt lat="43.62826" lon="3.83088">
        <ele>86.316</ele>
        <time>2020-07-07T19:29:21.000Z</time>
      </trkpt>
      <trkpt lat="43.62823" lon="3.83088">
        <ele>86.416</ele>
        <time>2020-07-07T19:29:22.000Z</time>
      </trkpt>
      <trkpt lat="43.62821" lon="3.83089">
        <ele>86.516</ele>
        <time>2020-07-07T19:29:23.000Z</time>
      </trkpt>
      <trkpt lat="43.62819" lon="3.83089">
        <ele>86.616</ele>
        <time>2020-07-07T19:29:24.000Z</time>
      </trkpt>
      <trkpt lat="43.62816" lon="3.8309">
        <ele>86.716</ele>
        <time>2020-07-07T19:29:25.000Z</time>
      </trkpt>
      <trkpt lat="43.62814" lon="3.8309">
        <ele>86.816</ele>
        <time>2020-07-07T19:29:26.000Z</time>
      </trkpt>
      <trkpt lat="43.62812" lon="3.8309">
        <ele>86.916</ele>
        <time>2020-07-07T19:29:27.000Z</time>
      </trkpt>
      <trkpt lat="43.62809" lon="3.83091">
        <ele>87.016</ele>
        <time>2020-07-07T19:29:28.000Z</time>
      </trkpt>
      <trkpt lat="43.62807" lon="3.83091">
        <ele>87.116</ele>
        <time>2020-07-07T19:29:29.000Z</time>
      </trkpt>
      <trkpt lat="43.62805" lon="3.83092">
        <ele>87.216</ele>
        <time>2020-07-07T19:29:30.000Z</time>
      </trkpt>
      <trkpt lat="43.62803" lon="3.83093">
        <ele>87.316</ele>
        <time>2020-07-07T19:29:31.000Z</time>
      </trkpt>
      <trkpt lat="43.62801" lon="3.83094">
        <ele>87.516</ele>
        <time>2020-07-07T19:29:33.000Z</time>
      </trkpt>
      <trkpt lat="43.62799" lon="3.83095">
        <ele>87.716</ele>
        <time>2020-07-07T19:29:35.000Z</time>
      </trkpt>
      <trkpt lat="43.62796" lon="3.83096">
        <ele>87.916</ele>
        <time>2020-07-07T19:29:37.000Z</time>
      </trkpt>
      <trkpt lat="43.62793" lon="3.83097">
        <ele>88</ele>
        <time>2020-07-07T19:29:39.000Z</time>
      </trkpt>
      <trkpt lat="43.62791" lon="3.83097">
        <ele>88</ele>
        <time>2020-07-07T19:29:40.000Z</time>
      </trkpt>
      <trkpt lat="43.62789" lon="3.83098">
        <ele>88</ele>
        <time>2020-07-07T19:29:41.000Z</time>
      </trkpt>
      <trkpt lat="43.62787" lon="3.83098">
        <ele>88</ele>
        <time>2020-07-07T19:29:42.000Z</time>
      </trkpt>
      <trkpt lat="43.62785" lon="3.83098">
        <ele>88</ele>
        <time>2020-07-07T19:29:43.000Z</time>
      </trkpt>
      <trkpt lat="43.62784" lon="3.83098">
        <ele>88</ele>
        <time>2020-07-07T19:29:44.000Z</time>
      </trkpt>
      <trkpt lat="43.6278" lon="3.83097">
        <ele>88</ele>
        <time>2020-07-07T19:29:46.000Z</time>
      </trkpt>
      <trkpt lat="43.62778" lon="3.83097">
        <ele>88</ele>
        <time>2020-07-07T19:29:47.000Z</time>
      </trkpt>
      <trkpt lat="43.62776" lon="3.83097">
        <ele>88.016</ele>
        <time>2020-07-07T19:29:48.000Z</time>
      </trkpt>
      <trkpt lat="43.62774" lon="3.83098">
        <ele>88.116</ele>
        <time>2020-07-07T19:29:49.000Z</time>
      </trkpt>
      <trkpt lat="43.62771" lon="3.83099">
        <ele>88.216</ele>
        <time>2020-07-07T19:29:50.000Z</time>
      </trkpt>
      <trkpt lat="43.62769" lon="3.83099">
        <ele>88.316</ele>
        <time>2020-07-07T19:29:51.000Z</time>
      </trkpt>
      <trkpt lat="43.62767" lon="3.831">
        <ele>88.416</ele>
        <time>2020-07-07T19:29:52.000Z</time>
      </trkpt>
      <trkpt lat="43.62764" lon="3.83101">
        <ele>88.516</ele>
        <time>2020-07-07T19:29:53.000Z</time>
      </trkpt>
      <trkpt lat="43.62762" lon="3.83101">
        <ele>88.616</ele>
        <time>2020-07-07T19:29:54.000Z</time>
      </trkpt>
      <trkpt lat="43.62759" lon="3.83102">
        <ele>88.716</ele>
        <time>2020-07-07T19:29:55.000Z</time>
      </trkpt>
      <trkpt lat="43.62756" lon="3.83103">
        <ele>88.816</ele>
        <time>2020-07-07T19:29:56.000Z</time>
      </trkpt>
      <trkpt lat="43.62754" lon="3.83104">
        <ele>88.916</ele>
        <time>2020-07-07T19:29:57.000Z</time>
      </trkpt>
      <trkpt lat="43.62751" lon="3.83104">
        <ele>89</ele>
        <time>2020-07-07T19:29:58.000Z</time>
      </trkpt>
      <trkpt lat="43.62749" lon="3.83105">
        <ele>89</ele>
        <time>2020-07-07T19:29:59.000Z</time>
      </trkpt>
      <trkpt lat="43.62746" lon="3.83106">
        <ele>89</ele>
        <time>2020-07-07T19:30:00.000Z</time>
      </trkpt>
      <trkpt lat="43.62744" lon="3.83108">
        <ele>89</ele>
        <time>2020-07-07T19:30:01.000Z</time>
      </trkpt>
      <trkpt lat="43.62741" lon="3.83109">
        <ele>89</ele>
        <time>2020-07-07T19:30:02.000Z</time>
      </trkpt>
      <trkpt lat="43.62739" lon="3.8311">
        <ele>89</ele>
        <time>2020-07-07T19:30:03.000Z</time>
      </trkpt>
      <trkpt lat="43.62736" lon="3.83112">
        <ele>89</ele>
        <time>2020-07-07T19:30:04.000Z</time>
      </trkpt>
      <trkpt lat="43.62734" lon="3.83113">
        <ele>89</ele>
        <time>2020-07-07T19:30:05.000Z</time>
      </trkpt>
      <trkpt lat="43.62731" lon="3.83114">
        <ele>89</ele>
        <time>2020-07-07T19:30:06.000Z</time>
      </trkpt>
      <trkpt lat="43.62728" lon="3.83116">
        <ele>89</ele>
        <time>2020-07-07T19:30:07.000Z</time>
      </trkpt>
      <trkpt lat="43.62725" lon="3.83118">
        <ele>88.984</ele>
        <time>2020-07-07T19:30:08.000Z</time>
      </trkpt>
      <trkpt lat="43.62722" lon="3.8312">
        <ele>88.884</ele>
        <time>2020-07-07T19:30:09.000Z</time>
      </trkpt>
      <trkpt lat="43.62719" lon="3.83121">
        <ele>88.784</ele>
        <time>2020-07-07T19:30:10.000Z</time>
      </trkpt>
      <trkpt lat="43.62716" lon="3.83123">
        <ele>88.684</ele>
        <time>2020-07-07T19:30:11.000Z</time>
      </trkpt>
      <trkpt lat="43.62712" lon="3.83124">
        <ele>88.584</ele>
        <time>2020-07-07T19:30:12.000Z</time>
      </trkpt>
      <trkpt lat="43.62709" lon="3.83126">
        <ele>88.484</ele>
        <time>2020-07-07T19:30:13.000Z</time>
      </trkpt>
      <trkpt lat="43.62705" lon="3.83129">
        <ele>88.384</ele>
        <time>2020-07-07T19:30:14.000Z</time>
      </trkpt>
      <trkpt lat="43.62702" lon="3.83131">
        <ele>88.284</ele>
        <time>2020-07-07T19:30:15.000Z</time>
      </trkpt>
      <trkpt lat="43.62698" lon="3.83134">
        <ele>88.184</ele>
        <time>2020-07-07T19:30:16.000Z</time>
      </trkpt>
      <trkpt lat="43.62694" lon="3.83136">
        <ele>88.084</ele>
        <time>2020-07-07T19:30:17.000Z</time>
      </trkpt>
      <trkpt lat="43.62691" lon="3.83139">
        <ele>87.984405448362</ele>
        <time>2020-07-07T19:30:18.000Z</time>
      </trkpt>
      <trkpt lat="43.62687" lon="3.83141">
        <ele>87.886939500625</ele>
        <time>2020-07-07T19:30:19.000Z</time>
      </trkpt>
      <trkpt lat="43.62683" lon="3.83144">
        <ele>87.789473552888</ele>
        <time>2020-07-07T19:30:20.000Z</time>
      </trkpt>
      <trkpt lat="43.6268" lon="3.83148">
        <ele>87.692007605151</ele>
        <time>2020-07-07T19:30:21.000Z</time>
      </trkpt>
      <trkpt lat="43.62677" lon="3.83153">
        <ele>87.594541657414</ele>
        <time>2020-07-07T19:30:22.000Z</time>
      </trkpt>
      <trkpt lat="43.62674" lon="3.83158">
        <ele>87.497075709677</ele>
        <time>2020-07-07T19:30:23.000Z</time>
      </trkpt>
      <trkpt lat="43.62671" lon="3.83163">
        <ele>87.39960976194</ele>
        <time>2020-07-07T19:30:24.000Z</time>
      </trkpt>
      <trkpt lat="43.62667" lon="3.83167">
        <ele>87.302143814203</ele>
        <time>2020-07-07T19:30:25.000Z</time>
      </trkpt>
      <trkpt lat="43.62663" lon="3.8317">
        <ele>87.204677866466</ele>
        <time>2020-07-07T19:30:26.000Z</time>
      </trkpt>
      <trkpt lat="43.62659" lon="3.83174">
        <ele>87.107211918729</ele>
        <time>2020-07-07T19:30:27.000Z</time>
      </trkpt>
      <trkpt lat="43.62654" lon="3.83177">
        <ele>87.009745970992</ele>
        <time>2020-07-07T19:30:28.000Z</time>
      </trkpt>
      <trkpt lat="43.6265" lon="3.83181">
        <ele>86.815193879133</ele>
        <time>2020-07-07T19:30:29.000Z</time>
      </trkpt>
      <trkpt lat="43.62645" lon="3.83185">
        <ele>86.609855205023</ele>
        <time>2020-07-07T19:30:30.000Z</time>
      </trkpt>
      <trkpt lat="43.6264" lon="3.83189">
        <ele>86.404516530913</ele>
        <time>2020-07-07T19:30:31.000Z</time>
      </trkpt>
      <trkpt lat="43.62635" lon="3.83192">
        <ele>86.199177856803</ele>
        <time>2020-07-07T19:30:32.000Z</time>
      </trkpt>
      <trkpt lat="43.6263" lon="3.83195">
        <ele>85.993839182693</ele>
        <time>2020-07-07T19:30:33.000Z</time>
      </trkpt>
      <trkpt lat="43.62625" lon="3.83199">
        <ele>85.788500508583</ele>
        <time>2020-07-07T19:30:34.000Z</time>
      </trkpt>
      <trkpt lat="43.6262" lon="3.83202">
        <ele>85.583161834473</ele>
        <time>2020-07-07T19:30:35.000Z</time>
      </trkpt>
      <trkpt lat="43.62615" lon="3.83206">
        <ele>85.377823160363</ele>
        <time>2020-07-07T19:30:36.000Z</time>
      </trkpt>
      <trkpt lat="43.6261" lon="3.8321">
        <ele>85.172484486253</ele>
        <time>2020-07-07T19:30:37.000Z</time>
      </trkpt>
      <trkpt lat="43.62605" lon="3.83213">
        <ele>84.984</ele>
        <time>2020-07-07T19:30:38.000Z</time>
      </trkpt>
      <trkpt lat="43.62599" lon="3.83217">
        <ele>84.884</ele>
        <time>2020-07-07T19:30:39.000Z</time>
      </trkpt>
      <trkpt lat="43.62593" lon="3.83221">
        <ele>84.784</ele>
        <time>2020-07-07T19:30:40.000Z</time>
      </trkpt>
      <trkpt lat="43.62588" lon="3.83225">
        <ele>84.684</ele>
        <time>2020-07-07T19:30:41.000Z</time>
      </trkpt>
      <trkpt lat="43.62584" lon="3.83228">
        <ele>84.584</ele>
        <time>2020-07-07T19:30:42.000Z</time>
      </trkpt>
      <trkpt lat="43.62582" lon="3.83233">
        <ele>84.484</ele>
        <time>2020-07-07T19:30:43.000Z</time>
      </trkpt>
      <trkpt lat="43.62581" lon="3.83238">
        <ele>84.384</ele>
        <time>2020-07-07T19:30:44.000Z</time>
      </trkpt>
      <trkpt lat="43.62581" lon="3.83244">
        <ele>84.284</ele>
        <time>2020-07-07T19:30:45.000Z</time>
      </trkpt>
      <trkpt lat="43.6258" lon="3.83249">
        <ele>84.184</ele>
        <time>2020-07-07T19:30:46.000Z</time>
      </trkpt>
      <trkpt lat="43.62578" lon="3.83254">
        <ele>84.084</ele>
        <time>2020-07-07T19:30:47.000Z</time>
      </trkpt>
      <trkpt lat="43.62577" lon="3.83258">
        <ele>83.984</ele>
        <time>2020-07-07T19:30:48.000Z</time>
      </trkpt>
      <trkpt lat="43.62575" lon="3.83263">
        <ele>83.884</ele>
        <time>2020-07-07T19:30:49.000Z</time>
      </trkpt>
      <trkpt lat="43.62572" lon="3.83266">
        <ele>83.784</ele>
        <time>2020-07-07T19:30:50.000Z</time>
      </trkpt>
      <trkpt lat="43.62568" lon="3.83268">
        <ele>83.684</ele>
        <time>2020-07-07T19:30:51.000Z</time>
      </trkpt>
      <trkpt lat="43.62564" lon="3.83269">
        <ele>83.584</ele>
        <time>2020-07-07T19:30:52.000Z</time>
      </trkpt>
      <trkpt lat="43.62561" lon="3.83271">
        <ele>83.484</ele>
        <time>2020-07-07T19:30:53.000Z</time>
      </trkpt>
      <trkpt lat="43.62557" lon="3.83275">
        <ele>83.384</ele>
        <time>2020-07-07T19:30:54.000Z</time>
      </trkpt>
      <trkpt lat="43.62554" lon="3.8328">
        <ele>83.284</ele>
        <time>2020-07-07T19:30:55.000Z</time>
      </trkpt>
      <trkpt lat="43.62551" lon="3.83285">
        <ele>83.184</ele>
        <time>2020-07-07T19:30:56.000Z</time>
      </trkpt>
      <trkpt lat="43.62549" lon="3.8329">
        <ele>83.084</ele>
        <time>2020-07-07T19:30:57.000Z</time>
      </trkpt>
      <trkpt lat="43.62547" lon="3.83296">
        <ele>82.984205325711</ele>
        <time>2020-07-07T19:30:58.000Z</time>
      </trkpt>
      <trkpt lat="43.62546" lon="3.83303">
        <ele>82.885488611408</ele>
        <time>2020-07-07T19:30:59.000Z</time>
      </trkpt>
      <trkpt lat="43.62544" lon="3.83309">
        <ele>82.786771897105</ele>
        <time>2020-07-07T19:31:00.000Z</time>
      </trkpt>
      <trkpt lat="43.62543" lon="3.83316">
        <ele>82.688055182801</ele>
        <time>2020-07-07T19:31:01.000Z</time>
      </trkpt>
      <trkpt lat="43.62542" lon="3.83322">
        <ele>82.589338468498</ele>
        <time>2020-07-07T19:31:02.000Z</time>
      </trkpt>
      <trkpt lat="43.6254" lon="3.83329">
        <ele>82.490621754194</ele>
        <time>2020-07-07T19:31:03.000Z</time>
      </trkpt>
      <trkpt lat="43.62538" lon="3.83336">
        <ele>82.391905039891</ele>
        <time>2020-07-07T19:31:04.000Z</time>
      </trkpt>
      <trkpt lat="43.62536" lon="3.83342">
        <ele>82.293188325588</ele>
        <time>2020-07-07T19:31:05.000Z</time>
      </trkpt>
      <trkpt lat="43.62534" lon="3.83348">
        <ele>82.194471611284</ele>
        <time>2020-07-07T19:31:06.000Z</time>
      </trkpt>
      <trkpt lat="43.62532" lon="3.83354">
        <ele>82.095754896981</ele>
        <time>2020-07-07T19:31:07.000Z</time>
      </trkpt>
      <trkpt lat="43.6253" lon="3.83361">
        <ele>81.996960163093</ele>
        <time>2020-07-07T19:31:08.000Z</time>
      </trkpt>
      <trkpt lat="43.62528" lon="3.83367">
        <ele>81.895643073348</ele>
        <time>2020-07-07T19:31:09.000Z</time>
      </trkpt>
      <trkpt lat="43.62526" lon="3.83374">
        <ele>81.794325983603</ele>
        <time>2020-07-07T19:31:10.000Z</time>
      </trkpt>
      <trkpt lat="43.62524" lon="3.83381">
        <ele>81.693008893857</ele>
        <time>2020-07-07T19:31:11.000Z</time>
      </trkpt>
      <trkpt lat="43.62522" lon="3.83387">
        <ele>81.591691804112</ele>
        <time>2020-07-07T19:31:12.000Z</time>
      </trkpt>
      <trkpt lat="43.6252" lon="3.83393">
        <ele>81.490374714367</ele>
        <time>2020-07-07T19:31:13.000Z</time>
      </trkpt>
      <trkpt lat="43.62519" lon="3.83398">
        <ele>81.389057624622</ele>
        <time>2020-07-07T19:31:14.000Z</time>
      </trkpt>
      <trkpt lat="43.62517" lon="3.83401">
        <ele>81.287740534876</ele>
        <time>2020-07-07T19:31:15.000Z</time>
      </trkpt>
      <trkpt lat="43.62517" lon="3.83402">
        <ele>81</ele>
        <time>2020-07-07T19:31:21.000Z</time>
      </trkpt>
      <trkpt lat="43.62513" lon="3.83408">
        <ele>82.999275197516</ele>
        <time>2020-07-07T19:32:44.000Z</time>
      </trkpt>
      <trkpt lat="43.62511" lon="3.8341">
        <ele>82.804081632653</ele>
        <time>2020-07-07T19:32:45.000Z</time>
      </trkpt>
      <trkpt lat="43.62509" lon="3.83412">
        <ele>82.6</ele>
        <time>2020-07-07T19:32:46.000Z</time>
      </trkpt>
      <trkpt lat="43.62507" lon="3.83414">
        <ele>82.395918367347</ele>
        <time>2020-07-07T19:32:47.000Z</time>
      </trkpt>
      <trkpt lat="43.62506" lon="3.83416">
        <ele>82.191836734694</ele>
        <time>2020-07-07T19:32:48.000Z</time>
      </trkpt>
      <trkpt lat="43.62504" lon="3.83418">
        <ele>81.987755102041</ele>
        <time>2020-07-07T19:32:49.000Z</time>
      </trkpt>
      <trkpt lat="43.62501" lon="3.83421">
        <ele>81.783673469388</ele>
        <time>2020-07-07T19:32:50.000Z</time>
      </trkpt>
      <trkpt lat="43.62499" lon="3.83422">
        <ele>81.579591836735</ele>
        <time>2020-07-07T19:32:51.000Z</time>
      </trkpt>
      <trkpt lat="43.62497" lon="3.83424">
        <ele>81.375510204082</ele>
        <time>2020-07-07T19:32:52.000Z</time>
      </trkpt>
      <trkpt lat="43.62495" lon="3.83425">
        <ele>81.171428571429</ele>
        <time>2020-07-07T19:32:53.000Z</time>
      </trkpt>
      <trkpt lat="43.62493" lon="3.83428">
        <ele>81</ele>
        <time>2020-07-07T19:32:54.000Z</time>
      </trkpt>
      <trkpt lat="43.62491" lon="3.8343">
        <ele>81</ele>
        <time>2020-07-07T19:32:55.000Z</time>
      </trkpt>
      <trkpt lat="43.62487" lon="3.83431">
        <ele>81</ele>
        <time>2020-07-07T19:32:56.000Z</time>
      </trkpt>
      <trkpt lat="43.62483" lon="3.83429">
        <ele>81</ele>
        <time>2020-07-07T19:32:57.000Z</time>
      </trkpt>
      <trkpt lat="43.62478" lon="3.83426">
        <ele>81</ele>
        <time>2020-07-07T19:32:58.000Z</time>
      </trkpt>
      <trkpt lat="43.62474" lon="3.83424">
        <ele>81</ele>
        <time>2020-07-07T19:32:59.000Z</time>
      </trkpt>
      <trkpt lat="43.6247" lon="3.83422">
        <ele>81</ele>
        <time>2020-07-07T19:33:00.000Z</time>
      </trkpt>
      <trkpt lat="43.62466" lon="3.8342">
        <ele>81</ele>
        <time>2020-07-07T19:33:01.000Z</time>
      </trkpt>
      <trkpt lat="43.62462" lon="3.83418">
        <ele>81</ele>
        <time>2020-07-07T19:33:02.000Z</time>
      </trkpt>
      <trkpt lat="43.62458" lon="3.83416">
        <ele>81</ele>
        <time>2020-07-07T19:33:03.000Z</time>
      </trkpt>
      <trkpt lat="43.62454" lon="3.83415">
        <ele>81</ele>
        <time>2020-07-07T19:33:04.000Z</time>
      </trkpt>
      <trkpt lat="43.6245" lon="3.83414">
        <ele>81.090534979424</ele>
        <time>2020-07-07T19:33:05.000Z</time>
      </trkpt>
      <trkpt lat="43.62447" lon="3.83416">
        <ele>81.19341563786</ele>
        <time>2020-07-07T19:33:06.000Z</time>
      </trkpt>
      <trkpt lat="43.62443" lon="3.83419">
        <ele>81.296296296296</ele>
        <time>2020-07-07T19:33:07.000Z</time>
      </trkpt>
      <trkpt lat="43.6244" lon="3.83423">
        <ele>81.399176954732</ele>
        <time>2020-07-07T19:33:08.000Z</time>
      </trkpt>
      <trkpt lat="43.62437" lon="3.83427">
        <ele>81.502057613169</ele>
        <time>2020-07-07T19:33:09.000Z</time>
      </trkpt>
      <trkpt lat="43.62434" lon="3.83431">
        <ele>81.604938271605</ele>
        <time>2020-07-07T19:33:10.000Z</time>
      </trkpt>
      <trkpt lat="43.62431" lon="3.83435">
        <ele>81.707818930041</ele>
        <time>2020-07-07T19:33:11.000Z</time>
      </trkpt>
      <trkpt lat="43.62429" lon="3.8344">
        <ele>81.810699588477</ele>
        <time>2020-07-07T19:33:12.000Z</time>
      </trkpt>
      <trkpt lat="43.62426" lon="3.83444">
        <ele>81.913580246914</ele>
        <time>2020-07-07T19:33:13.000Z</time>
      </trkpt>
      <trkpt lat="43.62424" lon="3.83448">
        <ele>81.984</ele>
        <time>2020-07-07T19:33:14.000Z</time>
      </trkpt>
      <trkpt lat="43.62422" lon="3.83453">
        <ele>81.884</ele>
        <time>2020-07-07T19:33:15.000Z</time>
      </trkpt>
      <trkpt lat="43.62419" lon="3.83457">
        <ele>81.784</ele>
        <time>2020-07-07T19:33:16.000Z</time>
      </trkpt>
      <trkpt lat="43.62416" lon="3.83461">
        <ele>81.684</ele>
        <time>2020-07-07T19:33:17.000Z</time>
      </trkpt>
      <trkpt lat="43.62412" lon="3.83462">
        <ele>81.584</ele>
        <time>2020-07-07T19:33:18.000Z</time>
      </trkpt>
      <trkpt lat="43.62409" lon="3.83461">
        <ele>81.484</ele>
        <time>2020-07-07T19:33:19.000Z</time>
      </trkpt>
      <trkpt lat="43.62405" lon="3.8346">
        <ele>81.384</ele>
        <time>2020-07-07T19:33:20.000Z</time>
      </trkpt>
      <trkpt lat="43.62401" lon="3.83459">
        <ele>81.284</ele>
        <time>2020-07-07T19:33:21.000Z</time>
      </trkpt>
      <trkpt lat="43.62397" lon="3.83457">
        <ele>81.184</ele>
        <time>2020-07-07T19:33:22.000Z</time>
      </trkpt>
      <trkpt lat="43.62393" lon="3.83454">
        <ele>81.084</ele>
        <time>2020-07-07T19:33:23.000Z</time>
      </trkpt>
      <trkpt lat="43.62389" lon="3.83452">
        <ele>80.98406374502</ele>
        <time>2020-07-07T19:33:24.000Z</time>
      </trkpt>
      <trkpt lat="43.62385" lon="3.8345">
        <ele>80.884462151394</ele>
        <time>2020-07-07T19:33:25.000Z</time>
      </trkpt>
      <trkpt lat="43.62381" lon="3.83448">
        <ele>80.784860557769</ele>
        <time>2020-07-07T19:33:26.000Z</time>
      </trkpt>
      <trkpt lat="43.62377" lon="3.83446">
        <ele>80.685258964143</ele>
        <time>2020-07-07T19:33:27.000Z</time>
      </trkpt>
      <trkpt lat="43.62372" lon="3.83444">
        <ele>80.585657370518</ele>
        <time>2020-07-07T19:33:28.000Z</time>
      </trkpt>
      <trkpt lat="43.62368" lon="3.83442">
        <ele>80.486055776892</ele>
        <time>2020-07-07T19:33:29.000Z</time>
      </trkpt>
      <trkpt lat="43.62364" lon="3.8344">
        <ele>80.386454183267</ele>
        <time>2020-07-07T19:33:30.000Z</time>
      </trkpt>
      <trkpt lat="43.62359" lon="3.83439">
        <ele>80.286852589641</ele>
        <time>2020-07-07T19:33:31.000Z</time>
      </trkpt>
      <trkpt lat="43.62355" lon="3.83438">
        <ele>80.187250996016</ele>
        <time>2020-07-07T19:33:32.000Z</time>
      </trkpt>
      <trkpt lat="43.62351" lon="3.83438">
        <ele>80.08764940239</ele>
        <time>2020-07-07T19:33:33.000Z</time>
      </trkpt>
      <trkpt lat="43.62347" lon="3.83439">
        <ele>80</ele>
        <time>2020-07-07T19:33:34.000Z</time>
      </trkpt>
      <trkpt lat="43.62343" lon="3.8344">
        <ele>80</ele>
        <time>2020-07-07T19:33:35.000Z</time>
      </trkpt>
      <trkpt lat="43.62339" lon="3.83441">
        <ele>80</ele>
        <time>2020-07-07T19:33:36.000Z</time>
      </trkpt>
      <trkpt lat="43.62335" lon="3.83443">
        <ele>80</ele>
        <time>2020-07-07T19:33:37.000Z</time>
      </trkpt>
      <trkpt lat="43.62331" lon="3.83444">
        <ele>80</ele>
        <time>2020-07-07T19:33:38.000Z</time>
      </trkpt>
      <trkpt lat="43.62327" lon="3.83446">
        <ele>80</ele>
        <time>2020-07-07T19:33:39.000Z</time>
      </trkpt>
      <trkpt lat="43.62324" lon="3.83449">
        <ele>80</ele>
        <time>2020-07-07T19:33:40.000Z</time>
      </trkpt>
      <trkpt lat="43.6232" lon="3.83452">
        <ele>80</ele>
        <time>2020-07-07T19:33:41.000Z</time>
      </trkpt>
      <trkpt lat="43.62317" lon="3.83456">
        <ele>80</ele>
        <time>2020-07-07T19:33:42.000Z</time>
      </trkpt>
      <trkpt lat="43.62313" lon="3.83459">
        <ele>80</ele>
        <time>2020-07-07T19:33:43.000Z</time>
      </trkpt>
      <trkpt lat="43.6231" lon="3.83463">
        <ele>80.016</ele>
        <time>2020-07-07T19:33:44.000Z</time>
      </trkpt>
      <trkpt lat="43.62307" lon="3.83466">
        <ele>80.116</ele>
        <time>2020-07-07T19:33:45.000Z</time>
      </trkpt>
      <trkpt lat="43.62304" lon="3.8347">
        <ele>80.216</ele>
        <time>2020-07-07T19:33:46.000Z</time>
      </trkpt>
      <trkpt lat="43.62301" lon="3.83474">
        <ele>80.316</ele>
        <time>2020-07-07T19:33:47.000Z</time>
      </trkpt>
      <trkpt lat="43.62298" lon="3.83477">
        <ele>80.416</ele>
        <time>2020-07-07T19:33:48.000Z</time>
      </trkpt>
      <trkpt lat="43.62295" lon="3.83481">
        <ele>80.516</ele>
        <time>2020-07-07T19:33:49.000Z</time>
      </trkpt>
      <trkpt lat="43.62293" lon="3.83485">
        <ele>80.616</ele>
        <time>2020-07-07T19:33:50.000Z</time>
      </trkpt>
      <trkpt lat="43.62291" lon="3.8349">
        <ele>80.716</ele>
        <time>2020-07-07T19:33:51.000Z</time>
      </trkpt>
      <trkpt lat="43.62289" lon="3.83495">
        <ele>80.816</ele>
        <time>2020-07-07T19:33:52.000Z</time>
      </trkpt>
      <trkpt lat="43.62288" lon="3.835">
        <ele>80.916</ele>
        <time>2020-07-07T19:33:53.000Z</time>
      </trkpt>
      <trkpt lat="43.62286" lon="3.83506">
        <ele>81</ele>
        <time>2020-07-07T19:33:54.000Z</time>
      </trkpt>
      <trkpt lat="43.62285" lon="3.83511">
        <ele>81</ele>
        <time>2020-07-07T19:33:55.000Z</time>
      </trkpt>
      <trkpt lat="43.62282" lon="3.83515">
        <ele>81</ele>
        <time>2020-07-07T19:33:56.000Z</time>
      </trkpt>
      <trkpt lat="43.6228" lon="3.83519">
        <ele>81</ele>
        <time>2020-07-07T19:33:57.000Z</time>
      </trkpt>
      <trkpt lat="43.62277" lon="3.83524">
        <ele>81</ele>
        <time>2020-07-07T19:33:58.000Z</time>
      </trkpt>
      <trkpt lat="43.62274" lon="3.83528">
        <ele>81</ele>
        <time>2020-07-07T19:33:59.000Z</time>
      </trkpt>
      <trkpt lat="43.62272" lon="3.83531">
        <ele>81</ele>
        <time>2020-07-07T19:34:00.000Z</time>
      </trkpt>
      <trkpt lat="43.62269" lon="3.83533">
        <ele>81</ele>
        <time>2020-07-07T19:34:01.000Z</time>
      </trkpt>
      <trkpt lat="43.62268" lon="3.83535">
        <ele>81</ele>
        <time>2020-07-07T19:34:02.000Z</time>
      </trkpt>
      <trkpt lat="43.62266" lon="3.83536">
        <ele>81</ele>
        <time>2020-07-07T19:34:03.000Z</time>
      </trkpt>
      <trkpt lat="43.62264" lon="3.83538">
        <ele>81</ele>
        <time>2020-07-07T19:34:04.000Z</time>
      </trkpt>
      <trkpt lat="43.62262" lon="3.83539">
        <ele>81</ele>
        <time>2020-07-07T19:34:05.000Z</time>
      </trkpt>
      <trkpt lat="43.62261" lon="3.83541">
        <ele>81</ele>
        <time>2020-07-07T19:34:06.000Z</time>
      </trkpt>
      <trkpt lat="43.62259" lon="3.83544">
        <ele>81</ele>
        <time>2020-07-07T19:34:07.000Z</time>
      </trkpt>
      <trkpt lat="43.62257" lon="3.83547">
        <ele>81</ele>
        <time>2020-07-07T19:34:08.000Z</time>
      </trkpt>
      <trkpt lat="43.62255" lon="3.83551">
        <ele>81</ele>
        <time>2020-07-07T19:34:09.000Z</time>
      </trkpt>
      <trkpt lat="43.62252" lon="3.83555">
        <ele>81</ele>
        <time>2020-07-07T19:34:10.000Z</time>
      </trkpt>
      <trkpt lat="43.6225" lon="3.8356">
        <ele>81</ele>
        <time>2020-07-07T19:34:11.000Z</time>
      </trkpt>
      <trkpt lat="43.62248" lon="3.83564">
        <ele>81</ele>
        <time>2020-07-07T19:34:12.000Z</time>
      </trkpt>
      <trkpt lat="43.62245" lon="3.83568">
        <ele>81</ele>
        <time>2020-07-07T19:34:13.000Z</time>
      </trkpt>
      <trkpt lat="43.62242" lon="3.83572">
        <ele>81</ele>
        <time>2020-07-07T19:34:14.000Z</time>
      </trkpt>
      <trkpt lat="43.6224" lon="3.83577">
        <ele>81</ele>
        <time>2020-07-07T19:34:15.000Z</time>
      </trkpt>
      <trkpt lat="43.62237" lon="3.83581">
        <ele>81</ele>
        <time>2020-07-07T19:34:16.000Z</time>
      </trkpt>
      <trkpt lat="43.62235" lon="3.83585">
        <ele>81</ele>
        <time>2020-07-07T19:34:17.000Z</time>
      </trkpt>
      <trkpt lat="43.62232" lon="3.83589">
        <ele>81</ele>
        <time>2020-07-07T19:34:18.000Z</time>
      </trkpt>
      <trkpt lat="43.62228" lon="3.83593">
        <ele>81</ele>
        <time>2020-07-07T19:34:19.000Z</time>
      </trkpt>
      <trkpt lat="43.62225" lon="3.83596">
        <ele>81</ele>
        <time>2020-07-07T19:34:20.000Z</time>
      </trkpt>
      <trkpt lat="43.62221" lon="3.83599">
        <ele>81</ele>
        <time>2020-07-07T19:34:21.000Z</time>
      </trkpt>
      <trkpt lat="43.62217" lon="3.83602">
        <ele>81</ele>
        <time>2020-07-07T19:34:22.000Z</time>
      </trkpt>
      <trkpt lat="43.62213" lon="3.83605">
        <ele>81</ele>
        <time>2020-07-07T19:34:23.000Z</time>
      </trkpt>
      <trkpt lat="43.62209" lon="3.83608">
        <ele>81</ele>
        <time>2020-07-07T19:34:24.000Z</time>
      </trkpt>
      <trkpt lat="43.62205" lon="3.83611">
        <ele>81</ele>
        <time>2020-07-07T19:34:25.000Z</time>
      </trkpt>
      <trkpt lat="43.62201" lon="3.83614">
        <ele>81</ele>
        <time>2020-07-07T19:34:26.000Z</time>
      </trkpt>
      <trkpt lat="43.62197" lon="3.83617">
        <ele>81</ele>
        <time>2020-07-07T19:34:27.000Z</time>
      </trkpt>
      <trkpt lat="43.62192" lon="3.83621">
        <ele>81</ele>
        <time>2020-07-07T19:34:28.000Z</time>
      </trkpt>
      <trkpt lat="43.62188" lon="3.83624">
        <ele>81</ele>
        <time>2020-07-07T19:34:29.000Z</time>
      </trkpt>
      <trkpt lat="43.62184" lon="3.83628">
        <ele>81</ele>
        <time>2020-07-07T19:34:30.000Z</time>
      </trkpt>
      <trkpt lat="43.62179" lon="3.83631">
        <ele>81</ele>
        <time>2020-07-07T19:34:31.000Z</time>
      </trkpt>
      <trkpt lat="43.62174" lon="3.83634">
        <ele>81</ele>
        <time>2020-07-07T19:34:32.000Z</time>
      </trkpt>
      <trkpt lat="43.6217" lon="3.83638">
        <ele>81</ele>
        <time>2020-07-07T19:34:33.000Z</time>
      </trkpt>
      <trkpt lat="43.62165" lon="3.83641">
        <ele>81.016</ele>
        <time>2020-07-07T19:34:34.000Z</time>
      </trkpt>
      <trkpt lat="43.6216" lon="3.83644">
        <ele>81.116</ele>
        <time>2020-07-07T19:34:35.000Z</time>
      </trkpt>
      <trkpt lat="43.62156" lon="3.83647">
        <ele>81.216</ele>
        <time>2020-07-07T19:34:36.000Z</time>
      </trkpt>
      <trkpt lat="43.62151" lon="3.8365">
        <ele>81.316</ele>
        <time>2020-07-07T19:34:37.000Z</time>
      </trkpt>
      <trkpt lat="43.62146" lon="3.83654">
        <ele>81.416</ele>
        <time>2020-07-07T19:34:38.000Z</time>
      </trkpt>
      <trkpt lat="43.62142" lon="3.83657">
        <ele>81.516</ele>
        <time>2020-07-07T19:34:39.000Z</time>
      </trkpt>
      <trkpt lat="43.62137" lon="3.83661">
        <ele>81.616</ele>
        <time>2020-07-07T19:34:40.000Z</time>
      </trkpt>
      <trkpt lat="43.62132" lon="3.83664">
        <ele>81.716</ele>
        <time>2020-07-07T19:34:41.000Z</time>
      </trkpt>
      <trkpt lat="43.62127" lon="3.83667">
        <ele>81.816</ele>
        <time>2020-07-07T19:34:42.000Z</time>
      </trkpt>
      <trkpt lat="43.62122" lon="3.8367">
        <ele>81.916</ele>
        <time>2020-07-07T19:34:43.000Z</time>
      </trkpt>
      <trkpt lat="43.62118" lon="3.83673">
        <ele>82</ele>
        <time>2020-07-07T19:34:44.000Z</time>
      </trkpt>
      <trkpt lat="43.62113" lon="3.83677">
        <ele>82</ele>
        <time>2020-07-07T19:34:45.000Z</time>
      </trkpt>
      <trkpt lat="43.62108" lon="3.8368">
        <ele>82</ele>
        <time>2020-07-07T19:34:46.000Z</time>
      </trkpt>
      <trkpt lat="43.62104" lon="3.83684">
        <ele>82</ele>
        <time>2020-07-07T19:34:47.000Z</time>
      </trkpt>
      <trkpt lat="43.62099" lon="3.83688">
        <ele>82</ele>
        <time>2020-07-07T19:34:48.000Z</time>
      </trkpt>
      <trkpt lat="43.62095" lon="3.83691">
        <ele>82</ele>
        <time>2020-07-07T19:34:49.000Z</time>
      </trkpt>
      <trkpt lat="43.6209" lon="3.83695">
        <ele>82</ele>
        <time>2020-07-07T19:34:50.000Z</time>
      </trkpt>
      <trkpt lat="43.62086" lon="3.83699">
        <ele>82</ele>
        <time>2020-07-07T19:34:51.000Z</time>
      </trkpt>
      <trkpt lat="43.62081" lon="3.83703">
        <ele>82</ele>
        <time>2020-07-07T19:34:52.000Z</time>
      </trkpt>
      <trkpt lat="43.62077" lon="3.83707">
        <ele>82</ele>
        <time>2020-07-07T19:34:53.000Z</time>
      </trkpt>
      <trkpt lat="43.62072" lon="3.83711">
        <ele>82</ele>
        <time>2020-07-07T19:34:54.000Z</time>
      </trkpt>
      <trkpt lat="43.62068" lon="3.83715">
        <ele>82</ele>
        <time>2020-07-07T19:34:55.000Z</time>
      </trkpt>
      <trkpt lat="43.62063" lon="3.83719">
        <ele>82</ele>
        <time>2020-07-07T19:34:56.000Z</time>
      </trkpt>
      <trkpt lat="43.62059" lon="3.83723">
        <ele>82</ele>
        <time>2020-07-07T19:34:57.000Z</time>
      </trkpt>
      <trkpt lat="43.62054" lon="3.83727">
        <ele>82</ele>
        <time>2020-07-07T19:34:58.000Z</time>
      </trkpt>
      <trkpt lat="43.6205" lon="3.83731">
        <ele>82</ele>
        <time>2020-07-07T19:34:59.000Z</time>
      </trkpt>
      <trkpt lat="43.62045" lon="3.83735">
        <ele>82</ele>
        <time>2020-07-07T19:35:00.000Z</time>
      </trkpt>
      <trkpt lat="43.62041" lon="3.83739">
        <ele>82</ele>
        <time>2020-07-07T19:35:01.000Z</time>
      </trkpt>
      <trkpt lat="43.62036" lon="3.83743">
        <ele>82</ele>
        <time>2020-07-07T19:35:02.000Z</time>
      </trkpt>
      <trkpt lat="43.62031" lon="3.83747">
        <ele>82</ele>
        <time>2020-07-07T19:35:03.000Z</time>
      </trkpt>
      <trkpt lat="43.62027" lon="3.83751">
        <ele>82</ele>
        <time>2020-07-07T19:35:04.000Z</time>
      </trkpt>
      <trkpt lat="43.62022" lon="3.83755">
        <ele>82</ele>
        <time>2020-07-07T19:35:05.000Z</time>
      </trkpt>
      <trkpt lat="43.62018" lon="3.83759">
        <ele>82</ele>
        <time>2020-07-07T19:35:06.000Z</time>
      </trkpt>
      <trkpt lat="43.62013" lon="3.83763">
        <ele>82</ele>
        <time>2020-07-07T19:35:07.000Z</time>
      </trkpt>
      <trkpt lat="43.62009" lon="3.83767">
        <ele>82</ele>
        <time>2020-07-07T19:35:08.000Z</time>
      </trkpt>
      <trkpt lat="43.62004" lon="3.83772">
        <ele>82</ele>
        <time>2020-07-07T19:35:09.000Z</time>
      </trkpt>
      <trkpt lat="43.62" lon="3.83776">
        <ele>82</ele>
        <time>2020-07-07T19:35:10.000Z</time>
      </trkpt>
      <trkpt lat="43.61996" lon="3.8378">
        <ele>82</ele>
        <time>2020-07-07T19:35:11.000Z</time>
      </trkpt>
      <trkpt lat="43.61993" lon="3.83784">
        <ele>82</ele>
        <time>2020-07-07T19:35:12.000Z</time>
      </trkpt>
      <trkpt lat="43.61989" lon="3.83789">
        <ele>82</ele>
        <time>2020-07-07T19:35:13.000Z</time>
      </trkpt>
      <trkpt lat="43.61986" lon="3.83793">
        <ele>82</ele>
        <time>2020-07-07T19:35:14.000Z</time>
      </trkpt>
      <trkpt lat="43.61982" lon="3.83797">
        <ele>82</ele>
        <time>2020-07-07T19:35:15.000Z</time>
      </trkpt>
      <trkpt lat="43.61978" lon="3.83802">
        <ele>82</ele>
        <time>2020-07-07T19:35:16.000Z</time>
      </trkpt>
      <trkpt lat="43.61974" lon="3.83806">
        <ele>82</ele>
        <time>2020-07-07T19:35:17.000Z</time>
      </trkpt>
      <trkpt lat="43.61969" lon="3.8381">
        <ele>82</ele>
        <time>2020-07-07T19:35:18.000Z</time>
      </trkpt>
      <trkpt lat="43.61965" lon="3.83813">
        <ele>82</ele>
        <time>2020-07-07T19:35:19.000Z</time>
      </trkpt>
      <trkpt lat="43.6196" lon="3.83816">
        <ele>82</ele>
        <time>2020-07-07T19:35:20.000Z</time>
      </trkpt>
      <trkpt lat="43.61955" lon="3.83819">
        <ele>82</ele>
        <time>2020-07-07T19:35:21.000Z</time>
      </trkpt>
      <trkpt lat="43.6195" lon="3.83821">
        <ele>82</ele>
        <time>2020-07-07T19:35:22.000Z</time>
      </trkpt>
      <trkpt lat="43.61946" lon="3.83824">
        <ele>82</ele>
        <time>2020-07-07T19:35:23.000Z</time>
      </trkpt>
      <trkpt lat="43.61941" lon="3.83827">
        <ele>82.016</ele>
        <time>2020-07-07T19:35:24.000Z</time>
      </trkpt>
      <trkpt lat="43.61937" lon="3.8383">
        <ele>82.116</ele>
        <time>2020-07-07T19:35:25.000Z</time>
      </trkpt>
      <trkpt lat="43.61932" lon="3.83833">
        <ele>82.216</ele>
        <time>2020-07-07T19:35:26.000Z</time>
      </trkpt>
      <trkpt lat="43.61928" lon="3.83837">
        <ele>82.316</ele>
        <time>2020-07-07T19:35:27.000Z</time>
      </trkpt>
      <trkpt lat="43.61924" lon="3.8384">
        <ele>82.416</ele>
        <time>2020-07-07T19:35:28.000Z</time>
      </trkpt>
      <trkpt lat="43.61919" lon="3.83844">
        <ele>82.516</ele>
        <time>2020-07-07T19:35:29.000Z</time>
      </trkpt>
      <trkpt lat="43.61915" lon="3.83848">
        <ele>82.616</ele>
        <time>2020-07-07T19:35:30.000Z</time>
      </trkpt>
      <trkpt lat="43.61911" lon="3.83851">
        <ele>82.716</ele>
        <time>2020-07-07T19:35:31.000Z</time>
      </trkpt>
      <trkpt lat="43.61906" lon="3.83855">
        <ele>82.816</ele>
        <time>2020-07-07T19:35:32.000Z</time>
      </trkpt>
      <trkpt lat="43.61902" lon="3.83859">
        <ele>82.916</ele>
        <time>2020-07-07T19:35:33.000Z</time>
      </trkpt>
      <trkpt lat="43.61898" lon="3.83863">
        <ele>83.016</ele>
        <time>2020-07-07T19:35:34.000Z</time>
      </trkpt>
      <trkpt lat="43.61893" lon="3.83866">
        <ele>83.116</ele>
        <time>2020-07-07T19:35:35.000Z</time>
      </trkpt>
      <trkpt lat="43.61889" lon="3.83869">
        <ele>83.216</ele>
        <time>2020-07-07T19:35:36.000Z</time>
      </trkpt>
      <trkpt lat="43.61885" lon="3.83873">
        <ele>83.316</ele>
        <time>2020-07-07T19:35:37.000Z</time>
      </trkpt>
      <trkpt lat="43.6188" lon="3.83876">
        <ele>83.416</ele>
        <time>2020-07-07T19:35:38.000Z</time>
      </trkpt>
      <trkpt lat="43.61876" lon="3.8388">
        <ele>83.516</ele>
        <time>2020-07-07T19:35:39.000Z</time>
      </trkpt>
      <trkpt lat="43.61872" lon="3.83883">
        <ele>83.616</ele>
        <time>2020-07-07T19:35:40.000Z</time>
      </trkpt>
      <trkpt lat="43.61867" lon="3.83887">
        <ele>83.716</ele>
        <time>2020-07-07T19:35:41.000Z</time>
      </trkpt>
      <trkpt lat="43.61863" lon="3.8389">
        <ele>83.816</ele>
        <time>2020-07-07T19:35:42.000Z</time>
      </trkpt>
      <trkpt lat="43.6186" lon="3.83895">
        <ele>83.916</ele>
        <time>2020-07-07T19:35:43.000Z</time>
      </trkpt>
      <trkpt lat="43.61856" lon="3.83899">
        <ele>84.016</ele>
        <time>2020-07-07T19:35:44.000Z</time>
      </trkpt>
      <trkpt lat="43.61852" lon="3.83903">
        <ele>84.116</ele>
        <time>2020-07-07T19:35:45.000Z</time>
      </trkpt>
      <trkpt lat="43.61847" lon="3.83907">
        <ele>84.216</ele>
        <time>2020-07-07T19:35:46.000Z</time>
      </trkpt>
      <trkpt lat="43.61843" lon="3.8391">
        <ele>84.316</ele>
        <time>2020-07-07T19:35:47.000Z</time>
      </trkpt>
      <trkpt lat="43.61838" lon="3.83913">
        <ele>84.416</ele>
        <time>2020-07-07T19:35:48.000Z</time>
      </trkpt>
      <trkpt lat="43.61834" lon="3.83916">
        <ele>84.516</ele>
        <time>2020-07-07T19:35:49.000Z</time>
      </trkpt>
      <trkpt lat="43.6183" lon="3.8392">
        <ele>84.616</ele>
        <time>2020-07-07T19:35:50.000Z</time>
      </trkpt>
      <trkpt lat="43.61825" lon="3.83923">
        <ele>84.716</ele>
        <time>2020-07-07T19:35:51.000Z</time>
      </trkpt>
      <trkpt lat="43.61821" lon="3.83927">
        <ele>84.816</ele>
        <time>2020-07-07T19:35:52.000Z</time>
      </trkpt>
      <trkpt lat="43.61818" lon="3.83931">
        <ele>84.916</ele>
        <time>2020-07-07T19:35:53.000Z</time>
      </trkpt>
      <trkpt lat="43.61814" lon="3.83934">
        <ele>85</ele>
        <time>2020-07-07T19:35:54.000Z</time>
      </trkpt>
      <trkpt lat="43.6181" lon="3.83937">
        <ele>85</ele>
        <time>2020-07-07T19:35:55.000Z</time>
      </trkpt>
      <trkpt lat="43.61807" lon="3.83939">
        <ele>85</ele>
        <time>2020-07-07T19:35:56.000Z</time>
      </trkpt>
      <trkpt lat="43.61805" lon="3.83942">
        <ele>85</ele>
        <time>2020-07-07T19:35:57.000Z</time>
      </trkpt>
      <trkpt lat="43.61802" lon="3.83944">
        <ele>85</ele>
        <time>2020-07-07T19:35:58.000Z</time>
      </trkpt>
      <trkpt lat="43.61801" lon="3.83945">
        <ele>85</ele>
        <time>2020-07-07T19:35:59.000Z</time>
      </trkpt>
      <trkpt lat="43.61801" lon="3.83946">
        <ele>85</ele>
        <time>2020-07-07T19:36:05.000Z</time>
      </trkpt>
      <trkpt lat="43.61799" lon="3.83953">
        <ele>85</ele>
        <time>2020-07-07T19:36:08.000Z</time>
      </trkpt>
      <trkpt lat="43.61798" lon="3.83957">
        <ele>85</ele>
        <time>2020-07-07T19:36:09.000Z</time>
      </trkpt>
      <trkpt lat="43.61796" lon="3.83959">
        <ele>85</ele>
        <time>2020-07-07T19:36:10.000Z</time>
      </trkpt>
      <trkpt lat="43.61794" lon="3.83961">
        <ele>85</ele>
        <time>2020-07-07T19:36:11.000Z</time>
      </trkpt>
      <trkpt lat="43.61792" lon="3.83962">
        <ele>85</ele>
        <time>2020-07-07T19:36:12.000Z</time>
      </trkpt>
      <trkpt lat="43.61789" lon="3.83963">
        <ele>85</ele>
        <time>2020-07-07T19:36:13.000Z</time>
      </trkpt>
      <trkpt lat="43.61787" lon="3.83963">
        <ele>85</ele>
        <time>2020-07-07T19:36:14.000Z</time>
      </trkpt>
      <trkpt lat="43.61784" lon="3.83965">
        <ele>85</ele>
        <time>2020-07-07T19:36:15.000Z</time>
      </trkpt>
      <trkpt lat="43.61781" lon="3.83967">
        <ele>85</ele>
        <time>2020-07-07T19:36:16.000Z</time>
      </trkpt>
      <trkpt lat="43.61778" lon="3.83969">
        <ele>85</ele>
        <time>2020-07-07T19:36:17.000Z</time>
      </trkpt>
      <trkpt lat="43.61775" lon="3.8397">
        <ele>85</ele>
        <time>2020-07-07T19:36:18.000Z</time>
      </trkpt>
      <trkpt lat="43.61771" lon="3.83971">
        <ele>85</ele>
        <time>2020-07-07T19:36:19.000Z</time>
      </trkpt>
      <trkpt lat="43.61768" lon="3.83973">
        <ele>85</ele>
        <time>2020-07-07T19:36:20.000Z</time>
      </trkpt>
      <trkpt lat="43.61765" lon="3.83975">
        <ele>85</ele>
        <time>2020-07-07T19:36:21.000Z</time>
      </trkpt>
      <trkpt lat="43.61762" lon="3.83977">
        <ele>85</ele>
        <time>2020-07-07T19:36:22.000Z</time>
      </trkpt>
      <trkpt lat="43.61758" lon="3.83979">
        <ele>85</ele>
        <time>2020-07-07T19:36:23.000Z</time>
      </trkpt>
      <trkpt lat="43.61755" lon="3.83982">
        <ele>85</ele>
        <time>2020-07-07T19:36:24.000Z</time>
      </trkpt>
      <trkpt lat="43.61751" lon="3.83984">
        <ele>85</ele>
        <time>2020-07-07T19:36:25.000Z</time>
      </trkpt>
      <trkpt lat="43.61748" lon="3.83987">
        <ele>85</ele>
        <time>2020-07-07T19:36:26.000Z</time>
      </trkpt>
      <trkpt lat="43.61744" lon="3.83989">
        <ele>85</ele>
        <time>2020-07-07T19:36:27.000Z</time>
      </trkpt>
      <trkpt lat="43.61741" lon="3.83992">
        <ele>85</ele>
        <time>2020-07-07T19:36:28.000Z</time>
      </trkpt>
      <trkpt lat="43.61738" lon="3.83994">
        <ele>85.08700032</ele>
        <time>2020-07-07T19:36:29.000Z</time>
      </trkpt>
      <trkpt lat="43.61734" lon="3.83997">
        <ele>85.18700032</ele>
        <time>2020-07-07T19:36:30.000Z</time>
      </trkpt>
      <trkpt lat="43.6173" lon="3.84">
        <ele>85.28700032</ele>
        <time>2020-07-07T19:36:31.000Z</time>
      </trkpt>
      <trkpt lat="43.61727" lon="3.84002">
        <ele>85.38700032</ele>
        <time>2020-07-07T19:36:32.000Z</time>
      </trkpt>
      <trkpt lat="43.61723" lon="3.84005">
        <ele>85.48700032</ele>
        <time>2020-07-07T19:36:33.000Z</time>
      </trkpt>
      <trkpt lat="43.6172" lon="3.84008">
        <ele>85.58700032</ele>
        <time>2020-07-07T19:36:34.000Z</time>
      </trkpt>
      <trkpt lat="43.61716" lon="3.84011">
        <ele>85.68700032</ele>
        <time>2020-07-07T19:36:35.000Z</time>
      </trkpt>
      <trkpt lat="43.61713" lon="3.84013">
        <ele>85.78700032</ele>
        <time>2020-07-07T19:36:36.000Z</time>
      </trkpt>
      <trkpt lat="43.61709" lon="3.84016">
        <ele>85.88700032</ele>
        <time>2020-07-07T19:36:37.000Z</time>
      </trkpt>
      <trkpt lat="43.61706" lon="3.84019">
        <ele>85.98700032</ele>
        <time>2020-07-07T19:36:38.000Z</time>
      </trkpt>
      <trkpt lat="43.61702" lon="3.84022">
        <ele>86</ele>
        <time>2020-07-07T19:36:39.000Z</time>
      </trkpt>
      <trkpt lat="43.61699" lon="3.84025">
        <ele>86</ele>
        <time>2020-07-07T19:36:40.000Z</time>
      </trkpt>
      <trkpt lat="43.61696" lon="3.84029">
        <ele>86</ele>
        <time>2020-07-07T19:36:41.000Z</time>
      </trkpt>
      <trkpt lat="43.61693" lon="3.84032">
        <ele>86</ele>
        <time>2020-07-07T19:36:42.000Z</time>
      </trkpt>
      <trkpt lat="43.6169" lon="3.84035">
        <ele>86</ele>
        <time>2020-07-07T19:36:43.000Z</time>
      </trkpt>
      <trkpt lat="43.61687" lon="3.84038">
        <ele>86</ele>
        <time>2020-07-07T19:36:44.000Z</time>
      </trkpt>
      <trkpt lat="43.61684" lon="3.84041">
        <ele>86</ele>
        <time>2020-07-07T19:36:45.000Z</time>
      </trkpt>
      <trkpt lat="43.61681" lon="3.84045">
        <ele>86</ele>
        <time>2020-07-07T19:36:46.000Z</time>
      </trkpt>
      <trkpt lat="43.61678" lon="3.84048">
        <ele>86</ele>
        <time>2020-07-07T19:36:47.000Z</time>
      </trkpt>
      <trkpt lat="43.61675" lon="3.84051">
        <ele>86.016</ele>
        <time>2020-07-07T19:36:48.000Z</time>
      </trkpt>
      <trkpt lat="43.61672" lon="3.84054">
        <ele>86.116</ele>
        <time>2020-07-07T19:36:49.000Z</time>
      </trkpt>
      <trkpt lat="43.61669" lon="3.84057">
        <ele>86.216</ele>
        <time>2020-07-07T19:36:50.000Z</time>
      </trkpt>
      <trkpt lat="43.61666" lon="3.8406">
        <ele>86.316</ele>
        <time>2020-07-07T19:36:51.000Z</time>
      </trkpt>
      <trkpt lat="43.61663" lon="3.84063">
        <ele>86.416</ele>
        <time>2020-07-07T19:36:52.000Z</time>
      </trkpt>
      <trkpt lat="43.6166" lon="3.84066">
        <ele>86.516</ele>
        <time>2020-07-07T19:36:53.000Z</time>
      </trkpt>
      <trkpt lat="43.61657" lon="3.84069">
        <ele>86.616</ele>
        <time>2020-07-07T19:36:54.000Z</time>
      </trkpt>
      <trkpt lat="43.61655" lon="3.84073">
        <ele>86.716</ele>
        <time>2020-07-07T19:36:55.000Z</time>
      </trkpt>
      <trkpt lat="43.61652" lon="3.84076">
        <ele>86.816</ele>
        <time>2020-07-07T19:36:56.000Z</time>
      </trkpt>
      <trkpt lat="43.6165" lon="3.84079">
        <ele>86.916</ele>
        <time>2020-07-07T19:36:57.000Z</time>
      </trkpt>
      <trkpt lat="43.61648" lon="3.84082">
        <ele>86.984</ele>
        <time>2020-07-07T19:36:58.000Z</time>
      </trkpt>
      <trkpt lat="43.61645" lon="3.84085">
        <ele>86.884</ele>
        <time>2020-07-07T19:36:59.000Z</time>
      </trkpt>
      <trkpt lat="43.61643" lon="3.84088">
        <ele>86.784</ele>
        <time>2020-07-07T19:37:00.000Z</time>
      </trkpt>
      <trkpt lat="43.61641" lon="3.84092">
        <ele>86.684</ele>
        <time>2020-07-07T19:37:01.000Z</time>
      </trkpt>
      <trkpt lat="43.61639" lon="3.84095">
        <ele>86.584</ele>
        <time>2020-07-07T19:37:02.000Z</time>
      </trkpt>
      <trkpt lat="43.61638" lon="3.84098">
        <ele>86.484</ele>
        <time>2020-07-07T19:37:03.000Z</time>
      </trkpt>
      <trkpt lat="43.61637" lon="3.84101">
        <ele>86.384</ele>
        <time>2020-07-07T19:37:04.000Z</time>
      </trkpt>
      <trkpt lat="43.61636" lon="3.84105">
        <ele>86.284</ele>
        <time>2020-07-07T19:37:05.000Z</time>
      </trkpt>
      <trkpt lat="43.61636" lon="3.84109">
        <ele>86.184</ele>
        <time>2020-07-07T19:37:06.000Z</time>
      </trkpt>
      <trkpt lat="43.61636" lon="3.84112">
        <ele>86.084</ele>
        <time>2020-07-07T19:37:07.000Z</time>
      </trkpt>
      <trkpt lat="43.61635" lon="3.84115">
        <ele>86</ele>
        <time>2020-07-07T19:37:08.000Z</time>
      </trkpt>
      <trkpt lat="43.61633" lon="3.84118">
        <ele>86</ele>
        <time>2020-07-07T19:37:09.000Z</time>
      </trkpt>
      <trkpt lat="43.61631" lon="3.8412">
        <ele>86</ele>
        <time>2020-07-07T19:37:10.000Z</time>
      </trkpt>
      <trkpt lat="43.61629" lon="3.84123">
        <ele>86</ele>
        <time>2020-07-07T19:37:11.000Z</time>
      </trkpt>
      <trkpt lat="43.61626" lon="3.84126">
        <ele>86</ele>
        <time>2020-07-07T19:37:12.000Z</time>
      </trkpt>
      <trkpt lat="43.61623" lon="3.84129">
        <ele>86</ele>
        <time>2020-07-07T19:37:13.000Z</time>
      </trkpt>
      <trkpt lat="43.6162" lon="3.8413">
        <ele>86</ele>
        <time>2020-07-07T19:37:14.000Z</time>
      </trkpt>
      <trkpt lat="43.61618" lon="3.84132">
        <ele>86</ele>
        <time>2020-07-07T19:37:15.000Z</time>
      </trkpt>
      <trkpt lat="43.61616" lon="3.84135">
        <ele>86</ele>
        <time>2020-07-07T19:37:16.000Z</time>
      </trkpt>
      <trkpt lat="43.61614" lon="3.84139">
        <ele>86</ele>
        <time>2020-07-07T19:37:17.000Z</time>
      </trkpt>
      <trkpt lat="43.61612" lon="3.84142">
        <ele>86</ele>
        <time>2020-07-07T19:37:18.000Z</time>
      </trkpt>
      <trkpt lat="43.6161" lon="3.84146">
        <ele>86.095189058813</ele>
        <time>2020-07-07T19:37:19.000Z</time>
      </trkpt>
      <trkpt lat="43.61608" lon="3.8415">
        <ele>86.197543237681</ele>
        <time>2020-07-07T19:37:20.000Z</time>
      </trkpt>
      <trkpt lat="43.61606" lon="3.84154">
        <ele>86.299897416548</ele>
        <time>2020-07-07T19:37:21.000Z</time>
      </trkpt>
      <trkpt lat="43.61604" lon="3.84158">
        <ele>86.402251595415</ele>
        <time>2020-07-07T19:37:22.000Z</time>
      </trkpt>
      <trkpt lat="43.61601" lon="3.84161">
        <ele>86.504605774282</ele>
        <time>2020-07-07T19:37:23.000Z</time>
      </trkpt>
      <trkpt lat="43.61599" lon="3.84164">
        <ele>86.60695995315</ele>
        <time>2020-07-07T19:37:24.000Z</time>
      </trkpt>
      <trkpt lat="43.61597" lon="3.84167">
        <ele>86.709314132017</ele>
        <time>2020-07-07T19:37:25.000Z</time>
      </trkpt>
      <trkpt lat="43.61594" lon="3.8417">
        <ele>86.811668310884</ele>
        <time>2020-07-07T19:37:26.000Z</time>
      </trkpt>
      <trkpt lat="43.61592" lon="3.84173">
        <ele>86.914022489752</ele>
        <time>2020-07-07T19:37:27.000Z</time>
      </trkpt>
      <trkpt lat="43.6159" lon="3.84177">
        <ele>87</ele>
        <time>2020-07-07T19:37:28.000Z</time>
      </trkpt>
      <trkpt lat="43.61587" lon="3.8418">
        <ele>87</ele>
        <time>2020-07-07T19:37:29.000Z</time>
      </trkpt>
      <trkpt lat="43.61585" lon="3.84184">
        <ele>87</ele>
        <time>2020-07-07T19:37:30.000Z</time>
      </trkpt>
      <trkpt lat="43.61583" lon="3.84188">
        <ele>87</ele>
        <time>2020-07-07T19:37:31.000Z</time>
      </trkpt>
      <trkpt lat="43.6158" lon="3.84193">
        <ele>87</ele>
        <time>2020-07-07T19:37:32.000Z</time>
      </trkpt>
      <trkpt lat="43.61578" lon="3.84197">
        <ele>87</ele>
        <time>2020-07-07T19:37:33.000Z</time>
      </trkpt>
      <trkpt lat="43.61576" lon="3.84201">
        <ele>87</ele>
        <time>2020-07-07T19:37:34.000Z</time>
      </trkpt>
      <trkpt lat="43.61573" lon="3.84205">
        <ele>87</ele>
        <time>2020-07-07T19:37:35.000Z</time>
      </trkpt>
      <trkpt lat="43.6157" lon="3.84209">
        <ele>87</ele>
        <time>2020-07-07T19:37:36.000Z</time>
      </trkpt>
      <trkpt lat="43.61567" lon="3.84214">
        <ele>87</ele>
        <time>2020-07-07T19:37:37.000Z</time>
      </trkpt>
      <trkpt lat="43.61564" lon="3.84218">
        <ele>87.016</ele>
        <time>2020-07-07T19:37:38.000Z</time>
      </trkpt>
      <trkpt lat="43.61561" lon="3.84223">
        <ele>87.116</ele>
        <time>2020-07-07T19:37:39.000Z</time>
      </trkpt>
      <trkpt lat="43.61558" lon="3.84227">
        <ele>87.216</ele>
        <time>2020-07-07T19:37:40.000Z</time>
      </trkpt>
      <trkpt lat="43.61555" lon="3.84232">
        <ele>87.316</ele>
        <time>2020-07-07T19:37:41.000Z</time>
      </trkpt>
      <trkpt lat="43.61551" lon="3.84237">
        <ele>87.416</ele>
        <time>2020-07-07T19:37:42.000Z</time>
      </trkpt>
      <trkpt lat="43.61548" lon="3.84242">
        <ele>87.516</ele>
        <time>2020-07-07T19:37:43.000Z</time>
      </trkpt>
      <trkpt lat="43.61544" lon="3.84246">
        <ele>87.616</ele>
        <time>2020-07-07T19:37:44.000Z</time>
      </trkpt>
      <trkpt lat="43.6154" lon="3.84251">
        <ele>87.716</ele>
        <time>2020-07-07T19:37:45.000Z</time>
      </trkpt>
      <trkpt lat="43.61536" lon="3.84256">
        <ele>87.816</ele>
        <time>2020-07-07T19:37:46.000Z</time>
      </trkpt>
      <trkpt lat="43.61533" lon="3.84262">
        <ele>87.916</ele>
        <time>2020-07-07T19:37:47.000Z</time>
      </trkpt>
      <trkpt lat="43.61529" lon="3.84266">
        <ele>88</ele>
        <time>2020-07-07T19:37:48.000Z</time>
      </trkpt>
      <trkpt lat="43.61527" lon="3.84269">
        <ele>88</ele>
        <time>2020-07-07T19:37:49.000Z</time>
      </trkpt>
      <trkpt lat="43.61524" lon="3.84272">
        <ele>88</ele>
        <time>2020-07-07T19:37:50.000Z</time>
      </trkpt>
      <trkpt lat="43.61522" lon="3.84274">
        <ele>88</ele>
        <time>2020-07-07T19:37:51.000Z</time>
      </trkpt>
      <trkpt lat="43.61519" lon="3.84278">
        <ele>88</ele>
        <time>2020-07-07T19:37:52.000Z</time>
      </trkpt>
      <trkpt lat="43.61516" lon="3.84283">
        <ele>88</ele>
        <time>2020-07-07T19:37:53.000Z</time>
      </trkpt>
      <trkpt lat="43.61513" lon="3.84288">
        <ele>88</ele>
        <time>2020-07-07T19:37:54.000Z</time>
      </trkpt>
      <trkpt lat="43.61509" lon="3.84293">
        <ele>88</ele>
        <time>2020-07-07T19:37:55.000Z</time>
      </trkpt>
      <trkpt lat="43.61505" lon="3.84297">
        <ele>88</ele>
        <time>2020-07-07T19:37:56.000Z</time>
      </trkpt>
      <trkpt lat="43.61501" lon="3.84301">
        <ele>88</ele>
        <time>2020-07-07T19:37:57.000Z</time>
      </trkpt>
      <trkpt lat="43.61497" lon="3.84305">
        <ele>88</ele>
        <time>2020-07-07T19:37:58.000Z</time>
      </trkpt>
      <trkpt lat="43.61493" lon="3.84309">
        <ele>87.83000064</ele>
        <time>2020-07-07T19:37:59.000Z</time>
      </trkpt>
      <trkpt lat="43.61489" lon="3.84315">
        <ele>87.63000064</ele>
        <time>2020-07-07T19:38:00.000Z</time>
      </trkpt>
      <trkpt lat="43.61485" lon="3.84319">
        <ele>87.43000064</ele>
        <time>2020-07-07T19:38:01.000Z</time>
      </trkpt>
      <trkpt lat="43.6148" lon="3.84324">
        <ele>87.23000064</ele>
        <time>2020-07-07T19:38:02.000Z</time>
      </trkpt>
      <trkpt lat="43.61475" lon="3.84327">
        <ele>87.03000064</ele>
        <time>2020-07-07T19:38:03.000Z</time>
      </trkpt>
      <trkpt lat="43.6147" lon="3.84331">
        <ele>86.83000064</ele>
        <time>2020-07-07T19:38:04.000Z</time>
      </trkpt>
      <trkpt lat="43.61465" lon="3.84335">
        <ele>86.63000064</ele>
        <time>2020-07-07T19:38:05.000Z</time>
      </trkpt>
      <trkpt lat="43.6146" lon="3.84338">
        <ele>86.43000064</ele>
        <time>2020-07-07T19:38:06.000Z</time>
      </trkpt>
      <trkpt lat="43.61455" lon="3.84341">
        <ele>86.23000064</ele>
        <time>2020-07-07T19:38:07.000Z</time>
      </trkpt>
      <trkpt lat="43.6145" lon="3.84345">
        <ele>86.03000064</ele>
        <time>2020-07-07T19:38:08.000Z</time>
      </trkpt>
      <trkpt lat="43.61445" lon="3.84348">
        <ele>85.827060727712</ele>
        <time>2020-07-07T19:38:09.000Z</time>
      </trkpt>
      <trkpt lat="43.6144" lon="3.84351">
        <ele>85.623601994351</ele>
        <time>2020-07-07T19:38:10.000Z</time>
      </trkpt>
      <trkpt lat="43.61436" lon="3.84354">
        <ele>85.420143260991</ele>
        <time>2020-07-07T19:38:11.000Z</time>
      </trkpt>
      <trkpt lat="43.61431" lon="3.84358">
        <ele>85.216684527631</ele>
        <time>2020-07-07T19:38:12.000Z</time>
      </trkpt>
      <trkpt lat="43.61427" lon="3.84361">
        <ele>85.01322579427</ele>
        <time>2020-07-07T19:38:13.000Z</time>
      </trkpt>
      <trkpt lat="43.61422" lon="3.84365">
        <ele>84.80976706091</ele>
        <time>2020-07-07T19:38:14.000Z</time>
      </trkpt>
      <trkpt lat="43.61417" lon="3.84368">
        <ele>84.60630832755</ele>
        <time>2020-07-07T19:38:15.000Z</time>
      </trkpt>
      <trkpt lat="43.61413" lon="3.84371">
        <ele>84.402849594189</ele>
        <time>2020-07-07T19:38:16.000Z</time>
      </trkpt>
      <trkpt lat="43.61408" lon="3.84374">
        <ele>84.199390860829</ele>
        <time>2020-07-07T19:38:17.000Z</time>
      </trkpt>
      <trkpt lat="43.61403" lon="3.84377">
        <ele>83.99594450041</ele>
        <time>2020-07-07T19:38:18.000Z</time>
      </trkpt>
      <trkpt lat="43.61398" lon="3.84381">
        <ele>83.793104612157</ele>
        <time>2020-07-07T19:38:19.000Z</time>
      </trkpt>
      <trkpt lat="43.61393" lon="3.84384">
        <ele>83.590264723904</ele>
        <time>2020-07-07T19:38:20.000Z</time>
      </trkpt>
      <trkpt lat="43.61389" lon="3.84388">
        <ele>83.387424835651</ele>
        <time>2020-07-07T19:38:21.000Z</time>
      </trkpt>
      <trkpt lat="43.61384" lon="3.84392">
        <ele>83.184584947398</ele>
        <time>2020-07-07T19:38:22.000Z</time>
      </trkpt>
      <trkpt lat="43.61379" lon="3.84396">
        <ele>82.981745059145</ele>
        <time>2020-07-07T19:38:23.000Z</time>
      </trkpt>
      <trkpt lat="43.61375" lon="3.844">
        <ele>82.778905170892</ele>
        <time>2020-07-07T19:38:24.000Z</time>
      </trkpt>
      <trkpt lat="43.6137" lon="3.84403">
        <ele>82.576065282639</ele>
        <time>2020-07-07T19:38:25.000Z</time>
      </trkpt>
      <trkpt lat="43.61366" lon="3.84406">
        <ele>82.373225394386</ele>
        <time>2020-07-07T19:38:26.000Z</time>
      </trkpt>
      <trkpt lat="43.61361" lon="3.84409">
        <ele>82.170385506133</ele>
        <time>2020-07-07T19:38:27.000Z</time>
      </trkpt>
      <trkpt lat="43.61356" lon="3.84412">
        <ele>82</ele>
        <time>2020-07-07T19:38:28.000Z</time>
      </trkpt>
      <trkpt lat="43.61351" lon="3.84415">
        <ele>82</ele>
        <time>2020-07-07T19:38:29.000Z</time>
      </trkpt>
      <trkpt lat="43.61346" lon="3.84419">
        <ele>82</ele>
        <time>2020-07-07T19:38:30.000Z</time>
      </trkpt>
      <trkpt lat="43.61342" lon="3.84422">
        <ele>82</ele>
        <time>2020-07-07T19:38:31.000Z</time>
      </trkpt>
      <trkpt lat="43.61337" lon="3.84425">
        <ele>82</ele>
        <time>2020-07-07T19:38:32.000Z</time>
      </trkpt>
      <trkpt lat="43.61332" lon="3.84428">
        <ele>82</ele>
        <time>2020-07-07T19:38:33.000Z</time>
      </trkpt>
      <trkpt lat="43.61327" lon="3.8443">
        <ele>82</ele>
        <time>2020-07-07T19:38:34.000Z</time>
      </trkpt>
      <trkpt lat="43.61323" lon="3.84433">
        <ele>82</ele>
        <time>2020-07-07T19:38:35.000Z</time>
      </trkpt>
      <trkpt lat="43.61318" lon="3.84436">
        <ele>82</ele>
        <time>2020-07-07T19:38:36.000Z</time>
      </trkpt>
      <trkpt lat="43.61314" lon="3.84441">
        <ele>82</ele>
        <time>2020-07-07T19:38:37.000Z</time>
      </trkpt>
      <trkpt lat="43.6131" lon="3.84444">
        <ele>81.968</ele>
        <time>2020-07-07T19:38:38.000Z</time>
      </trkpt>
      <trkpt lat="43.61306" lon="3.84449">
        <ele>81.768</ele>
        <time>2020-07-07T19:38:39.000Z</time>
      </trkpt>
      <trkpt lat="43.61302" lon="3.84453">
        <ele>81.568</ele>
        <time>2020-07-07T19:38:40.000Z</time>
      </trkpt>
      <trkpt lat="43.61297" lon="3.84457">
        <ele>81.368</ele>
        <time>2020-07-07T19:38:41.000Z</time>
      </trkpt>
      <trkpt lat="43.61293" lon="3.84461">
        <ele>81.168</ele>
        <time>2020-07-07T19:38:42.000Z</time>
      </trkpt>
      <trkpt lat="43.61288" lon="3.84465">
        <ele>80.968</ele>
        <time>2020-07-07T19:38:43.000Z</time>
      </trkpt>
      <trkpt lat="43.61284" lon="3.84468">
        <ele>80.768</ele>
        <time>2020-07-07T19:38:44.000Z</time>
      </trkpt>
      <trkpt lat="43.6128" lon="3.84472">
        <ele>80.568</ele>
        <time>2020-07-07T19:38:45.000Z</time>
      </trkpt>
      <trkpt lat="43.61275" lon="3.84477">
        <ele>80.368</ele>
        <time>2020-07-07T19:38:46.000Z</time>
      </trkpt>
      <trkpt lat="43.61272" lon="3.84481">
        <ele>80.168</ele>
        <time>2020-07-07T19:38:47.000Z</time>
      </trkpt>
      <trkpt lat="43.61268" lon="3.84486">
        <ele>79.968</ele>
        <time>2020-07-07T19:38:48.000Z</time>
      </trkpt>
      <trkpt lat="43.61264" lon="3.8449">
        <ele>79.768</ele>
        <time>2020-07-07T19:38:49.000Z</time>
      </trkpt>
      <trkpt lat="43.6126" lon="3.84495">
        <ele>79.568</ele>
        <time>2020-07-07T19:38:50.000Z</time>
      </trkpt>
      <trkpt lat="43.61258" lon="3.84501">
        <ele>79.368</ele>
        <time>2020-07-07T19:38:51.000Z</time>
      </trkpt>
      <trkpt lat="43.61255" lon="3.84507">
        <ele>79.168</ele>
        <time>2020-07-07T19:38:52.000Z</time>
      </trkpt>
      <trkpt lat="43.61252" lon="3.84512">
        <ele>78.968</ele>
        <time>2020-07-07T19:38:53.000Z</time>
      </trkpt>
      <trkpt lat="43.61249" lon="3.84518">
        <ele>78.768</ele>
        <time>2020-07-07T19:38:54.000Z</time>
      </trkpt>
      <trkpt lat="43.61246" lon="3.84523">
        <ele>78.568</ele>
        <time>2020-07-07T19:38:55.000Z</time>
      </trkpt>
      <trkpt lat="43.61244" lon="3.84529">
        <ele>78.368</ele>
        <time>2020-07-07T19:38:56.000Z</time>
      </trkpt>
      <trkpt lat="43.61242" lon="3.84534">
        <ele>78.168</ele>
        <time>2020-07-07T19:38:57.000Z</time>
      </trkpt>
      <trkpt lat="43.6124" lon="3.8454">
        <ele>77.984</ele>
        <time>2020-07-07T19:38:58.000Z</time>
      </trkpt>
      <trkpt lat="43.61238" lon="3.84546">
        <ele>77.884</ele>
        <time>2020-07-07T19:38:59.000Z</time>
      </trkpt>
      <trkpt lat="43.61237" lon="3.84552">
        <ele>77.784</ele>
        <time>2020-07-07T19:39:00.000Z</time>
      </trkpt>
      <trkpt lat="43.61237" lon="3.84556">
        <ele>77.684</ele>
        <time>2020-07-07T19:39:01.000Z</time>
      </trkpt>
      <trkpt lat="43.61237" lon="3.84559">
        <ele>77.584</ele>
        <time>2020-07-07T19:39:02.000Z</time>
      </trkpt>
      <trkpt lat="43.61237" lon="3.84563">
        <ele>77.384</ele>
        <time>2020-07-07T19:39:04.000Z</time>
      </trkpt>
      <trkpt lat="43.61236" lon="3.84568">
        <ele>77.184</ele>
        <time>2020-07-07T19:39:06.000Z</time>
      </trkpt>
      <trkpt lat="43.61234" lon="3.84571">
        <ele>77.084</ele>
        <time>2020-07-07T19:39:07.000Z</time>
      </trkpt>
      <trkpt lat="43.61231" lon="3.84574">
        <ele>76.984</ele>
        <time>2020-07-07T19:39:08.000Z</time>
      </trkpt>
      <trkpt lat="43.61229" lon="3.84577">
        <ele>76.884</ele>
        <time>2020-07-07T19:39:09.000Z</time>
      </trkpt>
      <trkpt lat="43.61226" lon="3.8458">
        <ele>76.784</ele>
        <time>2020-07-07T19:39:10.000Z</time>
      </trkpt>
      <trkpt lat="43.61223" lon="3.84583">
        <ele>76.684</ele>
        <time>2020-07-07T19:39:11.000Z</time>
      </trkpt>
      <trkpt lat="43.61219" lon="3.84587">
        <ele>76.584</ele>
        <time>2020-07-07T19:39:12.000Z</time>
      </trkpt>
      <trkpt lat="43.61216" lon="3.8459">
        <ele>76.484</ele>
        <time>2020-07-07T19:39:13.000Z</time>
      </trkpt>
      <trkpt lat="43.61213" lon="3.84593">
        <ele>76.384</ele>
        <time>2020-07-07T19:39:14.000Z</time>
      </trkpt>
      <trkpt lat="43.6121" lon="3.84597">
        <ele>76.284</ele>
        <time>2020-07-07T19:39:15.000Z</time>
      </trkpt>
      <trkpt lat="43.61207" lon="3.846">
        <ele>76.184</ele>
        <time>2020-07-07T19:39:16.000Z</time>
      </trkpt>
      <trkpt lat="43.61204" lon="3.84603">
        <ele>76.084</ele>
        <time>2020-07-07T19:39:17.000Z</time>
      </trkpt>
      <trkpt lat="43.612" lon="3.84607">
        <ele>75.984</ele>
        <time>2020-07-07T19:39:18.000Z</time>
      </trkpt>
      <trkpt lat="43.61196" lon="3.84611">
        <ele>75.884</ele>
        <time>2020-07-07T19:39:19.000Z</time>
      </trkpt>
      <trkpt lat="43.61193" lon="3.84616">
        <ele>75.784</ele>
        <time>2020-07-07T19:39:20.000Z</time>
      </trkpt>
      <trkpt lat="43.6119" lon="3.84621">
        <ele>75.684</ele>
        <time>2020-07-07T19:39:21.000Z</time>
      </trkpt>
      <trkpt lat="43.61187" lon="3.84626">
        <ele>75.584</ele>
        <time>2020-07-07T19:39:22.000Z</time>
      </trkpt>
      <trkpt lat="43.61183" lon="3.84631">
        <ele>75.484</ele>
        <time>2020-07-07T19:39:23.000Z</time>
      </trkpt>
      <trkpt lat="43.6118" lon="3.84635">
        <ele>75.384</ele>
        <time>2020-07-07T19:39:24.000Z</time>
      </trkpt>
      <trkpt lat="43.61176" lon="3.8464">
        <ele>75.284</ele>
        <time>2020-07-07T19:39:25.000Z</time>
      </trkpt>
      <trkpt lat="43.61172" lon="3.84645">
        <ele>75.184</ele>
        <time>2020-07-07T19:39:26.000Z</time>
      </trkpt>
      <trkpt lat="43.61169" lon="3.8465">
        <ele>75.084</ele>
        <time>2020-07-07T19:39:27.000Z</time>
      </trkpt>
      <trkpt lat="43.61165" lon="3.84655">
        <ele>74.98406374502</ele>
        <time>2020-07-07T19:39:28.000Z</time>
      </trkpt>
      <trkpt lat="43.61162" lon="3.8466">
        <ele>74.884462151394</ele>
        <time>2020-07-07T19:39:29.000Z</time>
      </trkpt>
      <trkpt lat="43.61159" lon="3.84665">
        <ele>74.784860557769</ele>
        <time>2020-07-07T19:39:30.000Z</time>
      </trkpt>
      <trkpt lat="43.61155" lon="3.84671">
        <ele>74.685258964143</ele>
        <time>2020-07-07T19:39:31.000Z</time>
      </trkpt>
      <trkpt lat="43.61152" lon="3.84677">
        <ele>74.585657370518</ele>
        <time>2020-07-07T19:39:32.000Z</time>
      </trkpt>
      <trkpt lat="43.61149" lon="3.84683">
        <ele>74.486055776892</ele>
        <time>2020-07-07T19:39:33.000Z</time>
      </trkpt>
      <trkpt lat="43.61146" lon="3.84689">
        <ele>74.386454183267</ele>
        <time>2020-07-07T19:39:34.000Z</time>
      </trkpt>
      <trkpt lat="43.61142" lon="3.84695">
        <ele>74.286852589641</ele>
        <time>2020-07-07T19:39:35.000Z</time>
      </trkpt>
      <trkpt lat="43.61139" lon="3.84701">
        <ele>74.187250996016</ele>
        <time>2020-07-07T19:39:36.000Z</time>
      </trkpt>
      <trkpt lat="43.61136" lon="3.84707">
        <ele>74.08764940239</ele>
        <time>2020-07-07T19:39:37.000Z</time>
      </trkpt>
      <trkpt lat="43.61132" lon="3.84713">
        <ele>73.987951807229</ele>
        <time>2020-07-07T19:39:38.000Z</time>
      </trkpt>
      <trkpt lat="43.61129" lon="3.84719">
        <ele>73.887550200803</ele>
        <time>2020-07-07T19:39:39.000Z</time>
      </trkpt>
      <trkpt lat="43.61126" lon="3.84725">
        <ele>73.787148594377</ele>
        <time>2020-07-07T19:39:40.000Z</time>
      </trkpt>
      <trkpt lat="43.61122" lon="3.84732">
        <ele>73.686746987952</ele>
        <time>2020-07-07T19:39:41.000Z</time>
      </trkpt>
      <trkpt lat="43.61119" lon="3.84738">
        <ele>73.586345381526</ele>
        <time>2020-07-07T19:39:42.000Z</time>
      </trkpt>
      <trkpt lat="43.61116" lon="3.84746">
        <ele>73.4859437751</ele>
        <time>2020-07-07T19:39:43.000Z</time>
      </trkpt>
      <trkpt lat="43.61113" lon="3.84753">
        <ele>73.385542168675</ele>
        <time>2020-07-07T19:39:44.000Z</time>
      </trkpt>
      <trkpt lat="43.6111" lon="3.8476">
        <ele>73.285140562249</ele>
        <time>2020-07-07T19:39:45.000Z</time>
      </trkpt>
      <trkpt lat="43.61108" lon="3.84768">
        <ele>73.184738955823</ele>
        <time>2020-07-07T19:39:46.000Z</time>
      </trkpt>
      <trkpt lat="43.61106" lon="3.84776">
        <ele>73.084337349398</ele>
        <time>2020-07-07T19:39:47.000Z</time>
      </trkpt>
      <trkpt lat="43.61104" lon="3.84783">
        <ele>72.984526102608</ele>
        <time>2020-07-07T19:39:48.000Z</time>
      </trkpt>
      <trkpt lat="43.61102" lon="3.84791">
        <ele>72.887814243908</ele>
        <time>2020-07-07T19:39:49.000Z</time>
      </trkpt>
      <trkpt lat="43.61101" lon="3.84799">
        <ele>72.791102385208</ele>
        <time>2020-07-07T19:39:50.000Z</time>
      </trkpt>
      <trkpt lat="43.61099" lon="3.84807">
        <ele>72.694390526509</ele>
        <time>2020-07-07T19:39:51.000Z</time>
      </trkpt>
      <trkpt lat="43.61096" lon="3.84815">
        <ele>72.597678667809</ele>
        <time>2020-07-07T19:39:52.000Z</time>
      </trkpt>
      <trkpt lat="43.61093" lon="3.84821">
        <ele>72.500966809109</ele>
        <time>2020-07-07T19:39:53.000Z</time>
      </trkpt>
      <trkpt lat="43.61089" lon="3.84827">
        <ele>72.404254950409</ele>
        <time>2020-07-07T19:39:54.000Z</time>
      </trkpt>
      <trkpt lat="43.61085" lon="3.84832">
        <ele>72.30754309171</ele>
        <time>2020-07-07T19:39:55.000Z</time>
      </trkpt>
      <trkpt lat="43.61083" lon="3.84838">
        <ele>72.21083123301</ele>
        <time>2020-07-07T19:39:56.000Z</time>
      </trkpt>
      <trkpt lat="43.61081" lon="3.84845">
        <ele>72.11411937431</ele>
        <time>2020-07-07T19:39:57.000Z</time>
      </trkpt>
      <trkpt lat="43.61078" lon="3.84852">
        <ele>72.01740751561</ele>
        <time>2020-07-07T19:39:58.000Z</time>
      </trkpt>
      <trkpt lat="43.61076" lon="3.8486">
        <ele>72</ele>
        <time>2020-07-07T19:39:59.000Z</time>
      </trkpt>
      <trkpt lat="43.61073" lon="3.84867">
        <ele>72</ele>
        <time>2020-07-07T19:40:00.000Z</time>
      </trkpt>
      <trkpt lat="43.61071" lon="3.84874">
        <ele>72</ele>
        <time>2020-07-07T19:40:01.000Z</time>
      </trkpt>
      <trkpt lat="43.61069" lon="3.84881">
        <ele>72</ele>
        <time>2020-07-07T19:40:02.000Z</time>
      </trkpt>
      <trkpt lat="43.61067" lon="3.84888">
        <ele>72</ele>
        <time>2020-07-07T19:40:03.000Z</time>
      </trkpt>
      <trkpt lat="43.61066" lon="3.84896">
        <ele>72</ele>
        <time>2020-07-07T19:40:04.000Z</time>
      </trkpt>
      <trkpt lat="43.61064" lon="3.84903">
        <ele>72</ele>
        <time>2020-07-07T19:40:05.000Z</time>
      </trkpt>
      <trkpt lat="43.61063" lon="3.84911">
        <ele>72</ele>
        <time>2020-07-07T19:40:06.000Z</time>
      </trkpt>
      <trkpt lat="43.61061" lon="3.84919">
        <ele>72</ele>
        <time>2020-07-07T19:40:07.000Z</time>
      </trkpt>
      <trkpt lat="43.61059" lon="3.84926">
        <ele>72</ele>
        <time>2020-07-07T19:40:08.000Z</time>
      </trkpt>
      <trkpt lat="43.61057" lon="3.84934">
        <ele>72</ele>
        <time>2020-07-07T19:40:09.000Z</time>
      </trkpt>
      <trkpt lat="43.61055" lon="3.84942">
        <ele>72</ele>
        <time>2020-07-07T19:40:10.000Z</time>
      </trkpt>
      <trkpt lat="43.61053" lon="3.84949">
        <ele>72</ele>
        <time>2020-07-07T19:40:11.000Z</time>
      </trkpt>
      <trkpt lat="43.61051" lon="3.84956">
        <ele>72</ele>
        <time>2020-07-07T19:40:12.000Z</time>
      </trkpt>
      <trkpt lat="43.6105" lon="3.84963">
        <ele>72</ele>
        <time>2020-07-07T19:40:13.000Z</time>
      </trkpt>
      <trkpt lat="43.61048" lon="3.84969">
        <ele>72</ele>
        <time>2020-07-07T19:40:14.000Z</time>
      </trkpt>
      <trkpt lat="43.61046" lon="3.84975">
        <ele>72</ele>
        <time>2020-07-07T19:40:15.000Z</time>
      </trkpt>
      <trkpt lat="43.61045" lon="3.84981">
        <ele>72</ele>
        <time>2020-07-07T19:40:16.000Z</time>
      </trkpt>
      <trkpt lat="43.61043" lon="3.84988">
        <ele>72</ele>
        <time>2020-07-07T19:40:17.000Z</time>
      </trkpt>
      <trkpt lat="43.61041" lon="3.84995">
        <ele>72</ele>
        <time>2020-07-07T19:40:18.000Z</time>
      </trkpt>
      <trkpt lat="43.6104" lon="3.85002">
        <ele>72</ele>
        <time>2020-07-07T19:40:19.000Z</time>
      </trkpt>
      <trkpt lat="43.61038" lon="3.8501">
        <ele>72</ele>
        <time>2020-07-07T19:40:20.000Z</time>
      </trkpt>
      <trkpt lat="43.61037" lon="3.85018">
        <ele>72</ele>
        <time>2020-07-07T19:40:21.000Z</time>
      </trkpt>
      <trkpt lat="43.61036" lon="3.85026">
        <ele>72</ele>
        <time>2020-07-07T19:40:22.000Z</time>
      </trkpt>
      <trkpt lat="43.61036" lon="3.85034">
        <ele>72</ele>
        <time>2020-07-07T19:40:23.000Z</time>
      </trkpt>
      <trkpt lat="43.61035" lon="3.85042">
        <ele>72</ele>
        <time>2020-07-07T19:40:24.000Z</time>
      </trkpt>
      <trkpt lat="43.61034" lon="3.8505">
        <ele>72</ele>
        <time>2020-07-07T19:40:25.000Z</time>
      </trkpt>
      <trkpt lat="43.61033" lon="3.85058">
        <ele>72</ele>
        <time>2020-07-07T19:40:26.000Z</time>
      </trkpt>
      <trkpt lat="43.61032" lon="3.85065">
        <ele>72</ele>
        <time>2020-07-07T19:40:27.000Z</time>
      </trkpt>
      <trkpt lat="43.61031" lon="3.85073">
        <ele>72</ele>
        <time>2020-07-07T19:40:28.000Z</time>
      </trkpt>
      <trkpt lat="43.6103" lon="3.8508">
        <ele>72</ele>
        <time>2020-07-07T19:40:29.000Z</time>
      </trkpt>
      <trkpt lat="43.61029" lon="3.85087">
        <ele>72</ele>
        <time>2020-07-07T19:40:30.000Z</time>
      </trkpt>
      <trkpt lat="43.61028" lon="3.85092">
        <ele>72</ele>
        <time>2020-07-07T19:40:31.000Z</time>
      </trkpt>
      <trkpt lat="43.61028" lon="3.85097">
        <ele>72</ele>
        <time>2020-07-07T19:40:32.000Z</time>
      </trkpt>
      <trkpt lat="43.61027" lon="3.851">
        <ele>72</ele>
        <time>2020-07-07T19:40:33.000Z</time>
      </trkpt>
      <trkpt lat="43.61028" lon="3.85105">
        <ele>72</ele>
        <time>2020-07-07T19:40:35.000Z</time>
      </trkpt>
      <trkpt lat="43.61028" lon="3.85108">
        <ele>72</ele>
        <time>2020-07-07T19:40:36.000Z</time>
      </trkpt>
      <trkpt lat="43.61027" lon="3.85112">
        <ele>72</ele>
        <time>2020-07-07T19:40:37.000Z</time>
      </trkpt>
      <trkpt lat="43.61027" lon="3.85117">
        <ele>72</ele>
        <time>2020-07-07T19:40:38.000Z</time>
      </trkpt>
      <trkpt lat="43.61026" lon="3.85122">
        <ele>72</ele>
        <time>2020-07-07T19:40:39.000Z</time>
      </trkpt>
      <trkpt lat="43.61025" lon="3.85128">
        <ele>72</ele>
        <time>2020-07-07T19:40:40.000Z</time>
      </trkpt>
      <trkpt lat="43.61024" lon="3.85135">
        <ele>72</ele>
        <time>2020-07-07T19:40:41.000Z</time>
      </trkpt>
      <trkpt lat="43.61023" lon="3.85141">
        <ele>72</ele>
        <time>2020-07-07T19:40:42.000Z</time>
      </trkpt>
      <trkpt lat="43.61022" lon="3.85148">
        <ele>72</ele>
        <time>2020-07-07T19:40:43.000Z</time>
      </trkpt>
      <trkpt lat="43.61022" lon="3.85155">
        <ele>72</ele>
        <time>2020-07-07T19:40:44.000Z</time>
      </trkpt>
      <trkpt lat="43.61021" lon="3.85162">
        <ele>72</ele>
        <time>2020-07-07T19:40:45.000Z</time>
      </trkpt>
      <trkpt lat="43.61021" lon="3.85169">
        <ele>72</ele>
        <time>2020-07-07T19:40:46.000Z</time>
      </trkpt>
      <trkpt lat="43.6102" lon="3.85177">
        <ele>72</ele>
        <time>2020-07-07T19:40:47.000Z</time>
      </trkpt>
      <trkpt lat="43.6102" lon="3.85184">
        <ele>72.014563408427</ele>
        <time>2020-07-07T19:40:48.000Z</time>
      </trkpt>
      <trkpt lat="43.6102" lon="3.85192">
        <ele>72.111650726741</ele>
        <time>2020-07-07T19:40:49.000Z</time>
      </trkpt>
      <trkpt lat="43.61019" lon="3.852">
        <ele>72.208738045056</ele>
        <time>2020-07-07T19:40:50.000Z</time>
      </trkpt>
      <trkpt lat="43.61019" lon="3.85208">
        <ele>72.305825363371</ele>
        <time>2020-07-07T19:40:51.000Z</time>
      </trkpt>
      <trkpt lat="43.61019" lon="3.85215">
        <ele>72.402912681685</ele>
        <time>2020-07-07T19:40:52.000Z</time>
      </trkpt>
      <trkpt lat="43.61018" lon="3.85223">
        <ele>72.5</ele>
        <time>2020-07-07T19:40:53.000Z</time>
      </trkpt>
      <trkpt lat="43.61018" lon="3.8523">
        <ele>72.597087318315</ele>
        <time>2020-07-07T19:40:54.000Z</time>
      </trkpt>
      <trkpt lat="43.61017" lon="3.85237">
        <ele>72.694174636629</ele>
        <time>2020-07-07T19:40:55.000Z</time>
      </trkpt>
      <trkpt lat="43.61017" lon="3.85244">
        <ele>72.791261954944</ele>
        <time>2020-07-07T19:40:56.000Z</time>
      </trkpt>
      <trkpt lat="43.61016" lon="3.85252">
        <ele>72.888349273259</ele>
        <time>2020-07-07T19:40:57.000Z</time>
      </trkpt>
      <trkpt lat="43.61016" lon="3.8526">
        <ele>72.985436591573</ele>
        <time>2020-07-07T19:40:58.000Z</time>
      </trkpt>
      <trkpt lat="43.61016" lon="3.85268">
        <ele>72.824562006047</ele>
        <time>2020-07-07T19:40:59.000Z</time>
      </trkpt>
      <trkpt lat="43.61015" lon="3.85276">
        <ele>72.618163589074</ele>
        <time>2020-07-07T19:41:00.000Z</time>
      </trkpt>
      <trkpt lat="43.61015" lon="3.85284">
        <ele>72.4117651721</ele>
        <time>2020-07-07T19:41:01.000Z</time>
      </trkpt>
      <trkpt lat="43.61015" lon="3.85292">
        <ele>72.205366755126</ele>
        <time>2020-07-07T19:41:02.000Z</time>
      </trkpt>
      <trkpt lat="43.61015" lon="3.853">
        <ele>71.998968338153</ele>
        <time>2020-07-07T19:41:03.000Z</time>
      </trkpt>
      <trkpt lat="43.61015" lon="3.85308">
        <ele>71.792569921179</ele>
        <time>2020-07-07T19:41:04.000Z</time>
      </trkpt>
      <trkpt lat="43.61015" lon="3.85315">
        <ele>71.586171504205</ele>
        <time>2020-07-07T19:41:05.000Z</time>
      </trkpt>
      <trkpt lat="43.61015" lon="3.85323">
        <ele>71.379773087232</ele>
        <time>2020-07-07T19:41:06.000Z</time>
      </trkpt>
      <trkpt lat="43.61014" lon="3.8533">
        <ele>71.173374670258</ele>
        <time>2020-07-07T19:41:07.000Z</time>
      </trkpt>
      <trkpt lat="43.61013" lon="3.85337">
        <ele>71</ele>
        <time>2020-07-07T19:41:08.000Z</time>
      </trkpt>
      <trkpt lat="43.61012" lon="3.85345">
        <ele>71</ele>
        <time>2020-07-07T19:41:09.000Z</time>
      </trkpt>
      <trkpt lat="43.61012" lon="3.85353">
        <ele>71</ele>
        <time>2020-07-07T19:41:10.000Z</time>
      </trkpt>
      <trkpt lat="43.61012" lon="3.85361">
        <ele>71</ele>
        <time>2020-07-07T19:41:11.000Z</time>
      </trkpt>
      <trkpt lat="43.61012" lon="3.85369">
        <ele>71</ele>
        <time>2020-07-07T19:41:12.000Z</time>
      </trkpt>
      <trkpt lat="43.61012" lon="3.85377">
        <ele>71</ele>
        <time>2020-07-07T19:41:13.000Z</time>
      </trkpt>
      <trkpt lat="43.61012" lon="3.85386">
        <ele>71</ele>
        <time>2020-07-07T19:41:14.000Z</time>
      </trkpt>
      <trkpt lat="43.61012" lon="3.85394">
        <ele>71</ele>
        <time>2020-07-07T19:41:15.000Z</time>
      </trkpt>
      <trkpt lat="43.61012" lon="3.85402">
        <ele>71</ele>
        <time>2020-07-07T19:41:16.000Z</time>
      </trkpt>
      <trkpt lat="43.61013" lon="3.85411">
        <ele>71</ele>
        <time>2020-07-07T19:41:17.000Z</time>
      </trkpt>
      <trkpt lat="43.61013" lon="3.8542">
        <ele>70.984251968504</ele>
        <time>2020-07-07T19:41:18.000Z</time>
      </trkpt>
      <trkpt lat="43.61014" lon="3.85428">
        <ele>70.885826771653</ele>
        <time>2020-07-07T19:41:19.000Z</time>
      </trkpt>
      <trkpt lat="43.61015" lon="3.85437">
        <ele>70.787401574803</ele>
        <time>2020-07-07T19:41:20.000Z</time>
      </trkpt>
      <trkpt lat="43.61016" lon="3.85446">
        <ele>70.688976377953</ele>
        <time>2020-07-07T19:41:21.000Z</time>
      </trkpt>
      <trkpt lat="43.61017" lon="3.85455">
        <ele>70.590551181102</ele>
        <time>2020-07-07T19:41:22.000Z</time>
      </trkpt>
      <trkpt lat="43.61018" lon="3.85464">
        <ele>70.492125984252</ele>
        <time>2020-07-07T19:41:23.000Z</time>
      </trkpt>
      <trkpt lat="43.61019" lon="3.85473">
        <ele>70.393700787402</ele>
        <time>2020-07-07T19:41:24.000Z</time>
      </trkpt>
      <trkpt lat="43.6102" lon="3.85482">
        <ele>70.295275590551</ele>
        <time>2020-07-07T19:41:25.000Z</time>
      </trkpt>
      <trkpt lat="43.61021" lon="3.85492">
        <ele>70.196850393701</ele>
        <time>2020-07-07T19:41:26.000Z</time>
      </trkpt>
      <trkpt lat="43.61022" lon="3.85501">
        <ele>70.09842519685</ele>
        <time>2020-07-07T19:41:27.000Z</time>
      </trkpt>
      <trkpt lat="43.61023" lon="3.8551">
        <ele>70</ele>
        <time>2020-07-07T19:41:28.000Z</time>
      </trkpt>
      <trkpt lat="43.61024" lon="3.85519">
        <ele>70.098619267144</ele>
        <time>2020-07-07T19:41:29.000Z</time>
      </trkpt>
      <trkpt lat="43.61026" lon="3.85528">
        <ele>70.197238534287</ele>
        <time>2020-07-07T19:41:30.000Z</time>
      </trkpt>
      <trkpt lat="43.61027" lon="3.85537">
        <ele>70.295857801431</ele>
        <time>2020-07-07T19:41:31.000Z</time>
      </trkpt>
      <trkpt lat="43.61028" lon="3.85546">
        <ele>70.394477068575</ele>
        <time>2020-07-07T19:41:32.000Z</time>
      </trkpt>
      <trkpt lat="43.6103" lon="3.85556">
        <ele>70.493096335718</ele>
        <time>2020-07-07T19:41:33.000Z</time>
      </trkpt>
      <trkpt lat="43.61031" lon="3.85565">
        <ele>70.591715602862</ele>
        <time>2020-07-07T19:41:34.000Z</time>
      </trkpt>
      <trkpt lat="43.61032" lon="3.85574">
        <ele>70.690334870006</ele>
        <time>2020-07-07T19:41:35.000Z</time>
      </trkpt>
      <trkpt lat="43.61033" lon="3.85584">
        <ele>70.788954137149</ele>
        <time>2020-07-07T19:41:36.000Z</time>
      </trkpt>
      <trkpt lat="43.61034" lon="3.85593">
        <ele>70.887573404293</ele>
        <time>2020-07-07T19:41:37.000Z</time>
      </trkpt>
      <trkpt lat="43.61036" lon="3.85602">
        <ele>70.986192671437</ele>
        <time>2020-07-07T19:41:38.000Z</time>
      </trkpt>
      <trkpt lat="43.61037" lon="3.85612">
        <ele>70.822681614965</ele>
        <time>2020-07-07T19:41:39.000Z</time>
      </trkpt>
      <trkpt lat="43.61037" lon="3.85621">
        <ele>70.616495911915</ele>
        <time>2020-07-07T19:41:40.000Z</time>
      </trkpt>
      <trkpt lat="43.61038" lon="3.8563">
        <ele>70.410310208865</ele>
        <time>2020-07-07T19:41:41.000Z</time>
      </trkpt>
      <trkpt lat="43.61039" lon="3.8564">
        <ele>70.204124505814</ele>
        <time>2020-07-07T19:41:42.000Z</time>
      </trkpt>
      <trkpt lat="43.6104" lon="3.85649">
        <ele>69.997938802764</ele>
        <time>2020-07-07T19:41:43.000Z</time>
      </trkpt>
      <trkpt lat="43.61041" lon="3.85658">
        <ele>69.791753099713</ele>
        <time>2020-07-07T19:41:44.000Z</time>
      </trkpt>
      <trkpt lat="43.61042" lon="3.85667">
        <ele>69.585567396663</ele>
        <time>2020-07-07T19:41:45.000Z</time>
      </trkpt>
      <trkpt lat="43.61042" lon="3.85676">
        <ele>69.379381693613</ele>
        <time>2020-07-07T19:41:46.000Z</time>
      </trkpt>
      <trkpt lat="43.61043" lon="3.85685">
        <ele>69.173195990562</ele>
        <time>2020-07-07T19:41:47.000Z</time>
      </trkpt>
      <trkpt lat="43.61044" lon="3.85694">
        <ele>68.984</ele>
        <time>2020-07-07T19:41:48.000Z</time>
      </trkpt>
      <trkpt lat="43.61046" lon="3.85702">
        <ele>68.884</ele>
        <time>2020-07-07T19:41:49.000Z</time>
      </trkpt>
      <trkpt lat="43.61047" lon="3.8571">
        <ele>68.784</ele>
        <time>2020-07-07T19:41:50.000Z</time>
      </trkpt>
      <trkpt lat="43.61048" lon="3.85719">
        <ele>68.684</ele>
        <time>2020-07-07T19:41:51.000Z</time>
      </trkpt>
      <trkpt lat="43.61048" lon="3.85727">
        <ele>68.584</ele>
        <time>2020-07-07T19:41:52.000Z</time>
      </trkpt>
      <trkpt lat="43.61049" lon="3.85735">
        <ele>68.484</ele>
        <time>2020-07-07T19:41:53.000Z</time>
      </trkpt>
      <trkpt lat="43.61049" lon="3.85743">
        <ele>68.384</ele>
        <time>2020-07-07T19:41:54.000Z</time>
      </trkpt>
      <trkpt lat="43.6105" lon="3.85751">
        <ele>68.284</ele>
        <time>2020-07-07T19:41:55.000Z</time>
      </trkpt>
      <trkpt lat="43.61051" lon="3.85758">
        <ele>68.184</ele>
        <time>2020-07-07T19:41:56.000Z</time>
      </trkpt>
      <trkpt lat="43.61051" lon="3.85766">
        <ele>68.084</ele>
        <time>2020-07-07T19:41:57.000Z</time>
      </trkpt>
      <trkpt lat="43.61052" lon="3.85774">
        <ele>68</ele>
        <time>2020-07-07T19:41:58.000Z</time>
      </trkpt>
      <trkpt lat="43.61052" lon="3.85782">
        <ele>68</ele>
        <time>2020-07-07T19:41:59.000Z</time>
      </trkpt>
      <trkpt lat="43.61052" lon="3.8579">
        <ele>68</ele>
        <time>2020-07-07T19:42:00.000Z</time>
      </trkpt>
      <trkpt lat="43.61052" lon="3.85798">
        <ele>68</ele>
        <time>2020-07-07T19:42:01.000Z</time>
      </trkpt>
      <trkpt lat="43.61052" lon="3.85806">
        <ele>68</ele>
        <time>2020-07-07T19:42:02.000Z</time>
      </trkpt>
      <trkpt lat="43.61051" lon="3.85814">
        <ele>68</ele>
        <time>2020-07-07T19:42:03.000Z</time>
      </trkpt>
      <trkpt lat="43.61051" lon="3.85822">
        <ele>68</ele>
        <time>2020-07-07T19:42:04.000Z</time>
      </trkpt>
      <trkpt lat="43.6105" lon="3.8583">
        <ele>68</ele>
        <time>2020-07-07T19:42:05.000Z</time>
      </trkpt>
      <trkpt lat="43.61048" lon="3.85838">
        <ele>68</ele>
        <time>2020-07-07T19:42:06.000Z</time>
      </trkpt>
      <trkpt lat="43.61047" lon="3.85846">
        <ele>68</ele>
        <time>2020-07-07T19:42:07.000Z</time>
      </trkpt>
      <trkpt lat="43.61045" lon="3.85854">
        <ele>68</ele>
        <time>2020-07-07T19:42:08.000Z</time>
      </trkpt>
      <trkpt lat="43.61043" lon="3.85863">
        <ele>67.815476825397</ele>
        <time>2020-07-07T19:42:09.000Z</time>
      </trkpt>
      <trkpt lat="43.61041" lon="3.85871">
        <ele>67.617064126984</ele>
        <time>2020-07-07T19:42:10.000Z</time>
      </trkpt>
      <trkpt lat="43.61039" lon="3.85879">
        <ele>67.418651428571</ele>
        <time>2020-07-07T19:42:11.000Z</time>
      </trkpt>
      <trkpt lat="43.61037" lon="3.85888">
        <ele>67.220238730159</ele>
        <time>2020-07-07T19:42:12.000Z</time>
      </trkpt>
      <trkpt lat="43.61035" lon="3.85897">
        <ele>67.021826031746</ele>
        <time>2020-07-07T19:42:13.000Z</time>
      </trkpt>
      <trkpt lat="43.61033" lon="3.85906">
        <ele>66.823413333333</ele>
        <time>2020-07-07T19:42:14.000Z</time>
      </trkpt>
      <trkpt lat="43.61032" lon="3.85916">
        <ele>66.625000634921</ele>
        <time>2020-07-07T19:42:15.000Z</time>
      </trkpt>
      <trkpt lat="43.6103" lon="3.85925">
        <ele>66.426587936508</ele>
        <time>2020-07-07T19:42:16.000Z</time>
      </trkpt>
      <trkpt lat="43.61029" lon="3.85935">
        <ele>66.228175238095</ele>
        <time>2020-07-07T19:42:17.000Z</time>
      </trkpt>
      <trkpt lat="43.61028" lon="3.85945">
        <ele>66.029762539682</ele>
        <time>2020-07-07T19:42:18.000Z</time>
      </trkpt>
      <trkpt lat="43.61026" lon="3.85955">
        <ele>65.649124012095</ele>
        <time>2020-07-07T19:42:19.000Z</time>
      </trkpt>
      <trkpt lat="43.61024" lon="3.85965">
        <ele>65.236327178147</ele>
        <time>2020-07-07T19:42:20.000Z</time>
      </trkpt>
      <trkpt lat="43.61022" lon="3.85975">
        <ele>64.8235303442</ele>
        <time>2020-07-07T19:42:21.000Z</time>
      </trkpt>
      <trkpt lat="43.61021" lon="3.85985">
        <ele>64.410733510253</ele>
        <time>2020-07-07T19:42:22.000Z</time>
      </trkpt>
      <trkpt lat="43.61019" lon="3.85996">
        <ele>63.997936676305</ele>
        <time>2020-07-07T19:42:23.000Z</time>
      </trkpt>
      <trkpt lat="43.61018" lon="3.86006">
        <ele>63.585139842358</ele>
        <time>2020-07-07T19:42:24.000Z</time>
      </trkpt>
      <trkpt lat="43.61016" lon="3.86017">
        <ele>63.172343008411</ele>
        <time>2020-07-07T19:42:25.000Z</time>
      </trkpt>
      <trkpt lat="43.61015" lon="3.86028">
        <ele>62.759546174463</ele>
        <time>2020-07-07T19:42:26.000Z</time>
      </trkpt>
      <trkpt lat="43.61014" lon="3.86039">
        <ele>62.346749340516</ele>
        <time>2020-07-07T19:42:27.000Z</time>
      </trkpt>
      <trkpt lat="43.61013" lon="3.8605">
        <ele>61.952047936719</ele>
        <time>2020-07-07T19:42:28.000Z</time>
      </trkpt>
      <trkpt lat="43.61011" lon="3.86061">
        <ele>61.65234754121</ele>
        <time>2020-07-07T19:42:29.000Z</time>
      </trkpt>
      <trkpt lat="43.6101" lon="3.86072">
        <ele>61.352647145701</ele>
        <time>2020-07-07T19:42:30.000Z</time>
      </trkpt>
      <trkpt lat="43.61009" lon="3.86083">
        <ele>61.052946750193</ele>
        <time>2020-07-07T19:42:31.000Z</time>
      </trkpt>
      <trkpt lat="43.61008" lon="3.86095">
        <ele>60.753246354684</ele>
        <time>2020-07-07T19:42:32.000Z</time>
      </trkpt>
      <trkpt lat="43.61007" lon="3.86106">
        <ele>60.453545959176</ele>
        <time>2020-07-07T19:42:33.000Z</time>
      </trkpt>
      <trkpt lat="43.61006" lon="3.86118">
        <ele>60.153845563667</ele>
        <time>2020-07-07T19:42:34.000Z</time>
      </trkpt>
      <trkpt lat="43.61005" lon="3.86129">
        <ele>59.854145168158</ele>
        <time>2020-07-07T19:42:35.000Z</time>
      </trkpt>
      <trkpt lat="43.61005" lon="3.86141">
        <ele>59.55444477265</ele>
        <time>2020-07-07T19:42:36.000Z</time>
      </trkpt>
      <trkpt lat="43.61003" lon="3.86153">
        <ele>59.254744377141</ele>
        <time>2020-07-07T19:42:37.000Z</time>
      </trkpt>
      <trkpt lat="43.61002" lon="3.86165">
        <ele>58.929110061786</ele>
        <time>2020-07-07T19:42:38.000Z</time>
      </trkpt>
      <trkpt lat="43.61001" lon="3.86177">
        <ele>58.456520555602</ele>
        <time>2020-07-07T19:42:39.000Z</time>
      </trkpt>
      <trkpt lat="43.61" lon="3.86189">
        <ele>57.983931049418</ele>
        <time>2020-07-07T19:42:40.000Z</time>
      </trkpt>
      <trkpt lat="43.60999" lon="3.86201">
        <ele>57.511341543234</ele>
        <time>2020-07-07T19:42:41.000Z</time>
      </trkpt>
      <trkpt lat="43.60997" lon="3.86213">
        <ele>57.03875203705</ele>
        <time>2020-07-07T19:42:42.000Z</time>
      </trkpt>
      <trkpt lat="43.60995" lon="3.86225">
        <ele>56.566162530866</ele>
        <time>2020-07-07T19:42:43.000Z</time>
      </trkpt>
      <trkpt lat="43.60993" lon="3.86237">
        <ele>56.093573024682</ele>
        <time>2020-07-07T19:42:44.000Z</time>
      </trkpt>
      <trkpt lat="43.60992" lon="3.86249">
        <ele>55.620983518498</ele>
        <time>2020-07-07T19:42:45.000Z</time>
      </trkpt>
      <trkpt lat="43.6099" lon="3.86261">
        <ele>55.148394012314</ele>
        <time>2020-07-07T19:42:46.000Z</time>
      </trkpt>
      <trkpt lat="43.60988" lon="3.86273">
        <ele>54.67580450613</ele>
        <time>2020-07-07T19:42:47.000Z</time>
      </trkpt>
      <trkpt lat="43.60987" lon="3.86285">
        <ele>54.203214999946</ele>
        <time>2020-07-07T19:42:48.000Z</time>
      </trkpt>
      <trkpt lat="43.60985" lon="3.86297">
        <ele>53.697132309333</ele>
        <time>2020-07-07T19:42:49.000Z</time>
      </trkpt>
      <trkpt lat="43.60983" lon="3.86309">
        <ele>53.165782500585</ele>
        <time>2020-07-07T19:42:50.000Z</time>
      </trkpt>
      <trkpt lat="43.60981" lon="3.86322">
        <ele>52.634432691837</ele>
        <time>2020-07-07T19:42:51.000Z</time>
      </trkpt>
      <trkpt lat="43.6098" lon="3.86334">
        <ele>52.103082883089</ele>
        <time>2020-07-07T19:42:52.000Z</time>
      </trkpt>
      <trkpt lat="43.60978" lon="3.86346">
        <ele>51.571733074341</ele>
        <time>2020-07-07T19:42:53.000Z</time>
      </trkpt>
      <trkpt lat="43.60976" lon="3.86358">
        <ele>51.040383265593</ele>
        <time>2020-07-07T19:42:54.000Z</time>
      </trkpt>
      <trkpt lat="43.60974" lon="3.8637">
        <ele>50.509033456844</ele>
        <time>2020-07-07T19:42:55.000Z</time>
      </trkpt>
      <trkpt lat="43.60972" lon="3.86382">
        <ele>49.977683648097</ele>
        <time>2020-07-07T19:42:56.000Z</time>
      </trkpt>
      <trkpt lat="43.6097" lon="3.86393">
        <ele>49.446333839348</ele>
        <time>2020-07-07T19:42:57.000Z</time>
      </trkpt>
      <trkpt lat="43.60968" lon="3.86405">
        <ele>48.952</ele>
        <time>2020-07-07T19:42:58.000Z</time>
      </trkpt>
      <trkpt lat="43.60966" lon="3.86416">
        <ele>48.652</ele>
        <time>2020-07-07T19:42:59.000Z</time>
      </trkpt>
      <trkpt lat="43.60964" lon="3.86427">
        <ele>48.352</ele>
        <time>2020-07-07T19:43:00.000Z</time>
      </trkpt>
      <trkpt lat="43.60962" lon="3.86438">
        <ele>48.052</ele>
        <time>2020-07-07T19:43:01.000Z</time>
      </trkpt>
      <trkpt lat="43.6096" lon="3.86449">
        <ele>47.752</ele>
        <time>2020-07-07T19:43:02.000Z</time>
      </trkpt>
      <trkpt lat="43.60959" lon="3.8646">
        <ele>47.452</ele>
        <time>2020-07-07T19:43:03.000Z</time>
      </trkpt>
      <trkpt lat="43.60957" lon="3.8647">
        <ele>47.152</ele>
        <time>2020-07-07T19:43:04.000Z</time>
      </trkpt>
      <trkpt lat="43.60955" lon="3.8648">
        <ele>46.852</ele>
        <time>2020-07-07T19:43:05.000Z</time>
      </trkpt>
      <trkpt lat="43.60953" lon="3.86491">
        <ele>46.552</ele>
        <time>2020-07-07T19:43:06.000Z</time>
      </trkpt>
      <trkpt lat="43.60951" lon="3.86501">
        <ele>46.252</ele>
        <time>2020-07-07T19:43:07.000Z</time>
      </trkpt>
      <trkpt lat="43.60949" lon="3.86511">
        <ele>45.968222452998</ele>
        <time>2020-07-07T19:43:08.000Z</time>
      </trkpt>
      <trkpt lat="43.60947" lon="3.86521">
        <ele>45.769612784234</ele>
        <time>2020-07-07T19:43:09.000Z</time>
      </trkpt>
      <trkpt lat="43.60945" lon="3.86531">
        <ele>45.571003115471</ele>
        <time>2020-07-07T19:43:10.000Z</time>
      </trkpt>
      <trkpt lat="43.60943" lon="3.86541">
        <ele>45.372393446707</ele>
        <time>2020-07-07T19:43:11.000Z</time>
      </trkpt>
      <trkpt lat="43.60941" lon="3.8655">
        <ele>45.173783777944</ele>
        <time>2020-07-07T19:43:12.000Z</time>
      </trkpt>
      <trkpt lat="43.6094" lon="3.8656">
        <ele>44.97517410918</ele>
        <time>2020-07-07T19:43:13.000Z</time>
      </trkpt>
      <trkpt lat="43.60938" lon="3.86569">
        <ele>44.776564440417</ele>
        <time>2020-07-07T19:43:14.000Z</time>
      </trkpt>
      <trkpt lat="43.60937" lon="3.86578">
        <ele>44.577954771653</ele>
        <time>2020-07-07T19:43:15.000Z</time>
      </trkpt>
      <trkpt lat="43.60935" lon="3.86587">
        <ele>44.379345102889</ele>
        <time>2020-07-07T19:43:16.000Z</time>
      </trkpt>
      <trkpt lat="43.60933" lon="3.86596">
        <ele>44.180735434126</ele>
        <time>2020-07-07T19:43:17.000Z</time>
      </trkpt>
      <trkpt lat="43.60931" lon="3.86606">
        <ele>43.990936875226</ele>
        <time>2020-07-07T19:43:18.000Z</time>
      </trkpt>
      <trkpt lat="43.6093" lon="3.86615">
        <ele>43.890231908232</ele>
        <time>2020-07-07T19:43:19.000Z</time>
      </trkpt>
      <trkpt lat="43.60928" lon="3.86624">
        <ele>43.789526941237</ele>
        <time>2020-07-07T19:43:20.000Z</time>
      </trkpt>
      <trkpt lat="43.60926" lon="3.86633">
        <ele>43.688821974243</ele>
        <time>2020-07-07T19:43:21.000Z</time>
      </trkpt>
      <trkpt lat="43.60924" lon="3.86642">
        <ele>43.588117007248</ele>
        <time>2020-07-07T19:43:22.000Z</time>
      </trkpt>
      <trkpt lat="43.60923" lon="3.86651">
        <ele>43.487412040254</ele>
        <time>2020-07-07T19:43:23.000Z</time>
      </trkpt>
      <trkpt lat="43.60921" lon="3.8666">
        <ele>43.386707073259</ele>
        <time>2020-07-07T19:43:24.000Z</time>
      </trkpt>
      <trkpt lat="43.60919" lon="3.86668">
        <ele>43.286002106264</ele>
        <time>2020-07-07T19:43:25.000Z</time>
      </trkpt>
      <trkpt lat="43.60917" lon="3.86676">
        <ele>43.18529713927</ele>
        <time>2020-07-07T19:43:26.000Z</time>
      </trkpt>
      <trkpt lat="43.60916" lon="3.86684">
        <ele>43.084592172275</ele>
        <time>2020-07-07T19:43:27.000Z</time>
      </trkpt>
      <trkpt lat="43.60916" lon="3.86692">
        <ele>42.984015978906</ele>
        <time>2020-07-07T19:43:28.000Z</time>
      </trkpt>
      <trkpt lat="43.60915" lon="3.86699">
        <ele>42.88411584707</ele>
        <time>2020-07-07T19:43:29.000Z</time>
      </trkpt>
      <trkpt lat="43.60914" lon="3.86705">
        <ele>42.784215715234</ele>
        <time>2020-07-07T19:43:30.000Z</time>
      </trkpt>
      <trkpt lat="43.60912" lon="3.86712">
        <ele>42.684315583398</ele>
        <time>2020-07-07T19:43:31.000Z</time>
      </trkpt>
      <trkpt lat="43.60909" lon="3.86718">
        <ele>42.584415451561</ele>
        <time>2020-07-07T19:43:32.000Z</time>
      </trkpt>
      <trkpt lat="43.60906" lon="3.86724">
        <ele>42.484515319725</ele>
        <time>2020-07-07T19:43:33.000Z</time>
      </trkpt>
      <trkpt lat="43.60902" lon="3.8673">
        <ele>42.384615187889</ele>
        <time>2020-07-07T19:43:34.000Z</time>
      </trkpt>
      <trkpt lat="43.60899" lon="3.86737">
        <ele>42.284715056053</ele>
        <time>2020-07-07T19:43:35.000Z</time>
      </trkpt>
      <trkpt lat="43.60896" lon="3.86743">
        <ele>42.184814924217</ele>
        <time>2020-07-07T19:43:36.000Z</time>
      </trkpt>
      <trkpt lat="43.60892" lon="3.8675">
        <ele>42.08491479238</ele>
        <time>2020-07-07T19:43:37.000Z</time>
      </trkpt>
      <trkpt lat="43.6089" lon="3.86758">
        <ele>41.984984669474</ele>
        <time>2020-07-07T19:43:38.000Z</time>
      </trkpt>
      <trkpt lat="43.60887" lon="3.86765">
        <ele>41.884884601438</ele>
        <time>2020-07-07T19:43:39.000Z</time>
      </trkpt>
      <trkpt lat="43.60885" lon="3.86773">
        <ele>41.784784533402</ele>
        <time>2020-07-07T19:43:40.000Z</time>
      </trkpt>
      <trkpt lat="43.60882" lon="3.8678">
        <ele>41.684684465366</ele>
        <time>2020-07-07T19:43:41.000Z</time>
      </trkpt>
      <trkpt lat="43.6088" lon="3.86787">
        <ele>41.58458439733</ele>
        <time>2020-07-07T19:43:42.000Z</time>
      </trkpt>
      <trkpt lat="43.60878" lon="3.86794">
        <ele>41.484484329294</ele>
        <time>2020-07-07T19:43:43.000Z</time>
      </trkpt>
      <trkpt lat="43.60876" lon="3.86802">
        <ele>41.384384261258</ele>
        <time>2020-07-07T19:43:44.000Z</time>
      </trkpt>
      <trkpt lat="43.60875" lon="3.8681">
        <ele>41.284284193222</ele>
        <time>2020-07-07T19:43:45.000Z</time>
      </trkpt>
      <trkpt lat="43.60874" lon="3.86818">
        <ele>41.184184125186</ele>
        <time>2020-07-07T19:43:46.000Z</time>
      </trkpt>
      <trkpt lat="43.60872" lon="3.86827">
        <ele>41.08408405715</ele>
        <time>2020-07-07T19:43:47.000Z</time>
      </trkpt>
      <trkpt lat="43.60871" lon="3.86835">
        <ele>41</ele>
        <time>2020-07-07T19:43:48.000Z</time>
      </trkpt>
      <trkpt lat="43.60869" lon="3.86844">
        <ele>41</ele>
        <time>2020-07-07T19:43:49.000Z</time>
      </trkpt>
      <trkpt lat="43.60868" lon="3.86852">
        <ele>41</ele>
        <time>2020-07-07T19:43:50.000Z</time>
      </trkpt>
      <trkpt lat="43.60866" lon="3.8686">
        <ele>41</ele>
        <time>2020-07-07T19:43:51.000Z</time>
      </trkpt>
      <trkpt lat="43.60865" lon="3.86869">
        <ele>41</ele>
        <time>2020-07-07T19:43:52.000Z</time>
      </trkpt>
      <trkpt lat="43.60863" lon="3.86877">
        <ele>41</ele>
        <time>2020-07-07T19:43:53.000Z</time>
      </trkpt>
      <trkpt lat="43.60862" lon="3.86885">
        <ele>41</ele>
        <time>2020-07-07T19:43:54.000Z</time>
      </trkpt>
      <trkpt lat="43.60861" lon="3.86894">
        <ele>41</ele>
        <time>2020-07-07T19:43:55.000Z</time>
      </trkpt>
      <trkpt lat="43.60861" lon="3.86902">
        <ele>41</ele>
        <time>2020-07-07T19:43:56.000Z</time>
      </trkpt>
      <trkpt lat="43.6086" lon="3.86911">
        <ele>41</ele>
        <time>2020-07-07T19:43:57.000Z</time>
      </trkpt>
      <trkpt lat="43.60858" lon="3.86919">
        <ele>40.984</ele>
        <time>2020-07-07T19:43:58.000Z</time>
      </trkpt>
      <trkpt lat="43.60857" lon="3.86927">
        <ele>40.884</ele>
        <time>2020-07-07T19:43:59.000Z</time>
      </trkpt>
      <trkpt lat="43.60855" lon="3.86935">
        <ele>40.784</ele>
        <time>2020-07-07T19:44:00.000Z</time>
      </trkpt>
      <trkpt lat="43.60854" lon="3.86944">
        <ele>40.684</ele>
        <time>2020-07-07T19:44:01.000Z</time>
      </trkpt>
      <trkpt lat="43.60853" lon="3.86952">
        <ele>40.584</ele>
        <time>2020-07-07T19:44:02.000Z</time>
      </trkpt>
      <trkpt lat="43.60852" lon="3.8696">
        <ele>40.484</ele>
        <time>2020-07-07T19:44:03.000Z</time>
      </trkpt>
      <trkpt lat="43.60851" lon="3.86968">
        <ele>40.384</ele>
        <time>2020-07-07T19:44:04.000Z</time>
      </trkpt>
      <trkpt lat="43.6085" lon="3.86976">
        <ele>40.284</ele>
        <time>2020-07-07T19:44:05.000Z</time>
      </trkpt>
      <trkpt lat="43.6085" lon="3.86984">
        <ele>40.184</ele>
        <time>2020-07-07T19:44:06.000Z</time>
      </trkpt>
      <trkpt lat="43.6085" lon="3.86991">
        <ele>40.084</ele>
        <time>2020-07-07T19:44:07.000Z</time>
      </trkpt>
      <trkpt lat="43.6085" lon="3.86999">
        <ele>40</ele>
        <time>2020-07-07T19:44:08.000Z</time>
      </trkpt>
      <trkpt lat="43.60849" lon="3.87007">
        <ele>40</ele>
        <time>2020-07-07T19:44:09.000Z</time>
      </trkpt>
      <trkpt lat="43.60849" lon="3.87015">
        <ele>40</ele>
        <time>2020-07-07T19:44:10.000Z</time>
      </trkpt>
      <trkpt lat="43.6085" lon="3.87022">
        <ele>40</ele>
        <time>2020-07-07T19:44:11.000Z</time>
      </trkpt>
      <trkpt lat="43.60849" lon="3.8703">
        <ele>40</ele>
        <time>2020-07-07T19:44:12.000Z</time>
      </trkpt>
      <trkpt lat="43.60849" lon="3.87037">
        <ele>40</ele>
        <time>2020-07-07T19:44:13.000Z</time>
      </trkpt>
      <trkpt lat="43.60848" lon="3.87045">
        <ele>40</ele>
        <time>2020-07-07T19:44:14.000Z</time>
      </trkpt>
      <trkpt lat="43.60848" lon="3.87052">
        <ele>40</ele>
        <time>2020-07-07T19:44:15.000Z</time>
      </trkpt>
      <trkpt lat="43.60846" lon="3.87059">
        <ele>40</ele>
        <time>2020-07-07T19:44:16.000Z</time>
      </trkpt>
      <trkpt lat="43.60845" lon="3.87067">
        <ele>40</ele>
        <time>2020-07-07T19:44:17.000Z</time>
      </trkpt>
      <trkpt lat="43.60843" lon="3.87075">
        <ele>40</ele>
        <time>2020-07-07T19:44:18.000Z</time>
      </trkpt>
      <trkpt lat="43.60843" lon="3.87082">
        <ele>40.05353383912</ele>
        <time>2020-07-07T19:44:19.000Z</time>
      </trkpt>
      <trkpt lat="43.60842" lon="3.8709">
        <ele>40.160600146912</ele>
        <time>2020-07-07T19:44:20.000Z</time>
      </trkpt>
      <trkpt lat="43.60841" lon="3.87098">
        <ele>40.267666454704</ele>
        <time>2020-07-07T19:44:21.000Z</time>
      </trkpt>
      <trkpt lat="43.6084" lon="3.87105">
        <ele>40.374732762496</ele>
        <time>2020-07-07T19:44:22.000Z</time>
      </trkpt>
      <trkpt lat="43.6084" lon="3.87112">
        <ele>40.481799070288</ele>
        <time>2020-07-07T19:44:23.000Z</time>
      </trkpt>
      <trkpt lat="43.60841" lon="3.87118">
        <ele>40.588865378079</ele>
        <time>2020-07-07T19:44:24.000Z</time>
      </trkpt>
      <trkpt lat="43.6084" lon="3.87122">
        <ele>40.695931685871</ele>
        <time>2020-07-07T19:44:25.000Z</time>
      </trkpt>
      <trkpt lat="43.60841" lon="3.87126">
        <ele>40.802997993663</ele>
        <time>2020-07-07T19:44:26.000Z</time>
      </trkpt>
      <trkpt lat="43.6084" lon="3.87131">
        <ele>40.910064301455</ele>
        <time>2020-07-07T19:44:27.000Z</time>
      </trkpt>
      <trkpt lat="43.60839" lon="3.87135">
        <ele>41.016</ele>
        <time>2020-07-07T19:44:28.000Z</time>
      </trkpt>
      <trkpt lat="43.60839" lon="3.8714">
        <ele>41.116</ele>
        <time>2020-07-07T19:44:29.000Z</time>
      </trkpt>
      <trkpt lat="43.60839" lon="3.87145">
        <ele>41.216</ele>
        <time>2020-07-07T19:44:30.000Z</time>
      </trkpt>
      <trkpt lat="43.60838" lon="3.87151">
        <ele>41.316</ele>
        <time>2020-07-07T19:44:31.000Z</time>
      </trkpt>
      <trkpt lat="43.60838" lon="3.87156">
        <ele>41.416</ele>
        <time>2020-07-07T19:44:32.000Z</time>
      </trkpt>
      <trkpt lat="43.60838" lon="3.87161">
        <ele>41.516</ele>
        <time>2020-07-07T19:44:33.000Z</time>
      </trkpt>
      <trkpt lat="43.60838" lon="3.87167">
        <ele>41.616</ele>
        <time>2020-07-07T19:44:34.000Z</time>
      </trkpt>
      <trkpt lat="43.60837" lon="3.87183">
        <ele>41.916</ele>
        <time>2020-07-07T19:44:37.000Z</time>
      </trkpt>
      <trkpt lat="43.60837" lon="3.87199">
        <ele>42.431137999929</ele>
        <time>2020-07-07T19:44:40.000Z</time>
      </trkpt>
      <trkpt lat="43.60839" lon="3.87212">
        <ele>43.029940777607</ele>
        <time>2020-07-07T19:44:43.000Z</time>
      </trkpt>
      <trkpt lat="43.60844" lon="3.87222">
        <ele>43.628743555285</ele>
        <time>2020-07-07T19:44:46.000Z</time>
      </trkpt>
      <trkpt lat="43.60845" lon="3.87227">
        <ele>43.828344481178</ele>
        <time>2020-07-07T19:44:47.000Z</time>
      </trkpt>
      <trkpt lat="43.60847" lon="3.87233">
        <ele>44</ele>
        <time>2020-07-07T19:44:48.000Z</time>
      </trkpt>
      <trkpt lat="43.60848" lon="3.87239">
        <ele>44</ele>
        <time>2020-07-07T19:44:49.000Z</time>
      </trkpt>
      <trkpt lat="43.6085" lon="3.87245">
        <ele>44</ele>
        <time>2020-07-07T19:44:50.000Z</time>
      </trkpt>
      <trkpt lat="43.60851" lon="3.87252">
        <ele>44</ele>
        <time>2020-07-07T19:44:51.000Z</time>
      </trkpt>
      <trkpt lat="43.60852" lon="3.87258">
        <ele>44</ele>
        <time>2020-07-07T19:44:52.000Z</time>
      </trkpt>
      <trkpt lat="43.60853" lon="3.87265">
        <ele>44</ele>
        <time>2020-07-07T19:44:53.000Z</time>
      </trkpt>
      <trkpt lat="43.60854" lon="3.87271">
        <ele>44</ele>
        <time>2020-07-07T19:44:54.000Z</time>
      </trkpt>
      <trkpt lat="43.60857" lon="3.8729">
        <ele>44</ele>
        <time>2020-07-07T19:44:57.000Z</time>
      </trkpt>
      <trkpt lat="43.60861" lon="3.87301">
        <ele>44.116</ele>
        <time>2020-07-07T19:44:59.000Z</time>
      </trkpt>
      <trkpt lat="43.60862" lon="3.87306">
        <ele>44.216</ele>
        <time>2020-07-07T19:45:00.000Z</time>
      </trkpt>
      <trkpt lat="43.60863" lon="3.87311">
        <ele>44.316</ele>
        <time>2020-07-07T19:45:01.000Z</time>
      </trkpt>
      <trkpt lat="43.60865" lon="3.87317">
        <ele>44.416</ele>
        <time>2020-07-07T19:45:02.000Z</time>
      </trkpt>
      <trkpt lat="43.60867" lon="3.87322">
        <ele>44.516</ele>
        <time>2020-07-07T19:45:03.000Z</time>
      </trkpt>
      <trkpt lat="43.60869" lon="3.87327">
        <ele>44.616</ele>
        <time>2020-07-07T19:45:04.000Z</time>
      </trkpt>
      <trkpt lat="43.6087" lon="3.87332">
        <ele>44.716</ele>
        <time>2020-07-07T19:45:05.000Z</time>
      </trkpt>
      <trkpt lat="43.60871" lon="3.87338">
        <ele>44.816</ele>
        <time>2020-07-07T19:45:06.000Z</time>
      </trkpt>
      <trkpt lat="43.60871" lon="3.87345">
        <ele>44.916</ele>
        <time>2020-07-07T19:45:07.000Z</time>
      </trkpt>
      <trkpt lat="43.60872" lon="3.8735">
        <ele>44.984</ele>
        <time>2020-07-07T19:45:08.000Z</time>
      </trkpt>
      <trkpt lat="43.60873" lon="3.87356">
        <ele>44.884</ele>
        <time>2020-07-07T19:45:09.000Z</time>
      </trkpt>
      <trkpt lat="43.60874" lon="3.87361">
        <ele>44.784</ele>
        <time>2020-07-07T19:45:10.000Z</time>
      </trkpt>
      <trkpt lat="43.60876" lon="3.87366">
        <ele>44.684</ele>
        <time>2020-07-07T19:45:11.000Z</time>
      </trkpt>
      <trkpt lat="43.60878" lon="3.8737">
        <ele>44.584</ele>
        <time>2020-07-07T19:45:12.000Z</time>
      </trkpt>
      <trkpt lat="43.6088" lon="3.87375">
        <ele>44.484</ele>
        <time>2020-07-07T19:45:13.000Z</time>
      </trkpt>
      <trkpt lat="43.60884" lon="3.87382">
        <ele>44.284</ele>
        <time>2020-07-07T19:45:15.000Z</time>
      </trkpt>
      <trkpt lat="43.60886" lon="3.87386">
        <ele>44.184</ele>
        <time>2020-07-07T19:45:16.000Z</time>
      </trkpt>
      <trkpt lat="43.60889" lon="3.87389">
        <ele>44.084</ele>
        <time>2020-07-07T19:45:17.000Z</time>
      </trkpt>
      <trkpt lat="43.6089" lon="3.87393">
        <ele>44</ele>
        <time>2020-07-07T19:45:18.000Z</time>
      </trkpt>
      <trkpt lat="43.60892" lon="3.87397">
        <ele>44</ele>
        <time>2020-07-07T19:45:19.000Z</time>
      </trkpt>
      <trkpt lat="43.60895" lon="3.874">
        <ele>44</ele>
        <time>2020-07-07T19:45:20.000Z</time>
      </trkpt>
      <trkpt lat="43.60897" lon="3.87403">
        <ele>44</ele>
        <time>2020-07-07T19:45:21.000Z</time>
      </trkpt>
      <trkpt lat="43.60899" lon="3.87406">
        <ele>44</ele>
        <time>2020-07-07T19:45:22.000Z</time>
      </trkpt>
      <trkpt lat="43.60901" lon="3.87409">
        <ele>44</ele>
        <time>2020-07-07T19:45:23.000Z</time>
      </trkpt>
      <trkpt lat="43.60904" lon="3.87413">
        <ele>44</ele>
        <time>2020-07-07T19:45:24.000Z</time>
      </trkpt>
      <trkpt lat="43.60905" lon="3.87416">
        <ele>44</ele>
        <time>2020-07-07T19:45:25.000Z</time>
      </trkpt>
      <trkpt lat="43.60907" lon="3.8742">
        <ele>44</ele>
        <time>2020-07-07T19:45:26.000Z</time>
      </trkpt>
      <trkpt lat="43.6091" lon="3.87423">
        <ele>44</ele>
        <time>2020-07-07T19:45:27.000Z</time>
      </trkpt>
      <trkpt lat="43.60912" lon="3.87426">
        <ele>44.015794674289</ele>
        <time>2020-07-07T19:45:28.000Z</time>
      </trkpt>
      <trkpt lat="43.60915" lon="3.87429">
        <ele>44.114511388592</ele>
        <time>2020-07-07T19:45:29.000Z</time>
      </trkpt>
      <trkpt lat="43.60917" lon="3.87433">
        <ele>44.213228102895</ele>
        <time>2020-07-07T19:45:30.000Z</time>
      </trkpt>
      <trkpt lat="43.60918" lon="3.87437">
        <ele>44.311944817199</ele>
        <time>2020-07-07T19:45:31.000Z</time>
      </trkpt>
      <trkpt lat="43.60919" lon="3.87441">
        <ele>44.410661531502</ele>
        <time>2020-07-07T19:45:32.000Z</time>
      </trkpt>
      <trkpt lat="43.60922" lon="3.87444">
        <ele>44.509378245806</ele>
        <time>2020-07-07T19:45:33.000Z</time>
      </trkpt>
      <trkpt lat="43.60924" lon="3.87447">
        <ele>44.608094960109</ele>
        <time>2020-07-07T19:45:34.000Z</time>
      </trkpt>
      <trkpt lat="43.60925" lon="3.87451">
        <ele>44.706811674412</ele>
        <time>2020-07-07T19:45:35.000Z</time>
      </trkpt>
      <trkpt lat="43.60927" lon="3.87454">
        <ele>44.805528388716</ele>
        <time>2020-07-07T19:45:36.000Z</time>
      </trkpt>
      <trkpt lat="43.60929" lon="3.87457">
        <ele>44.904245103019</ele>
        <time>2020-07-07T19:45:37.000Z</time>
      </trkpt>
      <trkpt lat="43.60931" lon="3.87459">
        <ele>44.996960163093</ele>
        <time>2020-07-07T19:45:38.000Z</time>
      </trkpt>
      <trkpt lat="43.60933" lon="3.87462">
        <ele>44.895643073348</ele>
        <time>2020-07-07T19:45:39.000Z</time>
      </trkpt>
      <trkpt lat="43.60935" lon="3.87464">
        <ele>44.794325983602</ele>
        <time>2020-07-07T19:45:40.000Z</time>
      </trkpt>
      <trkpt lat="43.60937" lon="3.87466">
        <ele>44.693008893857</ele>
        <time>2020-07-07T19:45:41.000Z</time>
      </trkpt>
      <trkpt lat="43.60938" lon="3.87469">
        <ele>44.591691804112</ele>
        <time>2020-07-07T19:45:42.000Z</time>
      </trkpt>
      <trkpt lat="43.6094" lon="3.87471">
        <ele>44.490374714367</ele>
        <time>2020-07-07T19:45:43.000Z</time>
      </trkpt>
      <trkpt lat="43.60941" lon="3.87474">
        <ele>44.389057624622</ele>
        <time>2020-07-07T19:45:44.000Z</time>
      </trkpt>
      <trkpt lat="43.60942" lon="3.87477">
        <ele>44.287740534876</ele>
        <time>2020-07-07T19:45:45.000Z</time>
      </trkpt>
      <trkpt lat="43.60944" lon="3.87479">
        <ele>44.186423445131</ele>
        <time>2020-07-07T19:45:46.000Z</time>
      </trkpt>
      <trkpt lat="43.60945" lon="3.87482">
        <ele>44.085106355386</ele>
        <time>2020-07-07T19:45:47.000Z</time>
      </trkpt>
      <trkpt lat="43.60947" lon="3.87484">
        <ele>43.984435797665</ele>
        <time>2020-07-07T19:45:48.000Z</time>
      </trkpt>
      <trkpt lat="43.60948" lon="3.87486">
        <ele>43.887159533074</ele>
        <time>2020-07-07T19:45:49.000Z</time>
      </trkpt>
      <trkpt lat="43.6095" lon="3.87489">
        <ele>43.789883268482</ele>
        <time>2020-07-07T19:45:50.000Z</time>
      </trkpt>
      <trkpt lat="43.60952" lon="3.87491">
        <ele>43.692607003891</ele>
        <time>2020-07-07T19:45:51.000Z</time>
      </trkpt>
      <trkpt lat="43.60953" lon="3.87494">
        <ele>43.5953307393</ele>
        <time>2020-07-07T19:45:52.000Z</time>
      </trkpt>
      <trkpt lat="43.60955" lon="3.87496">
        <ele>43.498054474708</ele>
        <time>2020-07-07T19:45:53.000Z</time>
      </trkpt>
      <trkpt lat="43.60957" lon="3.87498">
        <ele>43.400778210117</ele>
        <time>2020-07-07T19:45:54.000Z</time>
      </trkpt>
      <trkpt lat="43.60959" lon="3.875">
        <ele>43.303501945525</ele>
        <time>2020-07-07T19:45:55.000Z</time>
      </trkpt>
      <trkpt lat="43.60961" lon="3.87502">
        <ele>43.206225680934</ele>
        <time>2020-07-07T19:45:56.000Z</time>
      </trkpt>
      <trkpt lat="43.60963" lon="3.87504">
        <ele>43.108949416342</ele>
        <time>2020-07-07T19:45:57.000Z</time>
      </trkpt>
      <trkpt lat="43.60965" lon="3.87506">
        <ele>43.011673151751</ele>
        <time>2020-07-07T19:45:58.000Z</time>
      </trkpt>
      <trkpt lat="43.60966" lon="3.87509">
        <ele>43.090534979424</ele>
        <time>2020-07-07T19:45:59.000Z</time>
      </trkpt>
      <trkpt lat="43.60965" lon="3.87513">
        <ele>43.19341563786</ele>
        <time>2020-07-07T19:46:00.000Z</time>
      </trkpt>
      <trkpt lat="43.60965" lon="3.87517">
        <ele>43.296296296296</ele>
        <time>2020-07-07T19:46:01.000Z</time>
      </trkpt>
      <trkpt lat="43.60965" lon="3.8752">
        <ele>43.399176954733</ele>
        <time>2020-07-07T19:46:02.000Z</time>
      </trkpt>
      <trkpt lat="43.60966" lon="3.87522">
        <ele>43.502057613169</ele>
        <time>2020-07-07T19:46:03.000Z</time>
      </trkpt>
      <trkpt lat="43.60968" lon="3.87525">
        <ele>43.604938271605</ele>
        <time>2020-07-07T19:46:04.000Z</time>
      </trkpt>
      <trkpt lat="43.6097" lon="3.87527">
        <ele>43.707818930041</ele>
        <time>2020-07-07T19:46:05.000Z</time>
      </trkpt>
      <trkpt lat="43.60971" lon="3.8753">
        <ele>43.810699588477</ele>
        <time>2020-07-07T19:46:06.000Z</time>
      </trkpt>
      <trkpt lat="43.60973" lon="3.87532">
        <ele>43.913580246914</ele>
        <time>2020-07-07T19:46:07.000Z</time>
      </trkpt>
      <trkpt lat="43.60974" lon="3.87534">
        <ele>44.016</ele>
        <time>2020-07-07T19:46:08.000Z</time>
      </trkpt>
      <trkpt lat="43.60976" lon="3.87536">
        <ele>44.116</ele>
        <time>2020-07-07T19:46:09.000Z</time>
      </trkpt>
      <trkpt lat="43.60978" lon="3.87539">
        <ele>44.216</ele>
        <time>2020-07-07T19:46:10.000Z</time>
      </trkpt>
      <trkpt lat="43.60979" lon="3.87541">
        <ele>44.316</ele>
        <time>2020-07-07T19:46:11.000Z</time>
      </trkpt>
      <trkpt lat="43.60981" lon="3.87543">
        <ele>44.416</ele>
        <time>2020-07-07T19:46:12.000Z</time>
      </trkpt>
      <trkpt lat="43.60982" lon="3.87546">
        <ele>44.516</ele>
        <time>2020-07-07T19:46:13.000Z</time>
      </trkpt>
      <trkpt lat="43.60984" lon="3.87548">
        <ele>44.616</ele>
        <time>2020-07-07T19:46:14.000Z</time>
      </trkpt>
      <trkpt lat="43.60986" lon="3.8755">
        <ele>44.716</ele>
        <time>2020-07-07T19:46:15.000Z</time>
      </trkpt>
      <trkpt lat="43.60988" lon="3.87552">
        <ele>44.816</ele>
        <time>2020-07-07T19:46:16.000Z</time>
      </trkpt>
      <trkpt lat="43.60991" lon="3.87553">
        <ele>44.916</ele>
        <time>2020-07-07T19:46:17.000Z</time>
      </trkpt>
      <trkpt lat="43.60993" lon="3.87555">
        <ele>45</ele>
        <time>2020-07-07T19:46:18.000Z</time>
      </trkpt>
      <trkpt lat="43.60996" lon="3.87556">
        <ele>45</ele>
        <time>2020-07-07T19:46:19.000Z</time>
      </trkpt>
      <trkpt lat="43.60998" lon="3.87558">
        <ele>45</ele>
        <time>2020-07-07T19:46:20.000Z</time>
      </trkpt>
      <trkpt lat="43.61001" lon="3.87559">
        <ele>45</ele>
        <time>2020-07-07T19:46:21.000Z</time>
      </trkpt>
      <trkpt lat="43.61003" lon="3.87561">
        <ele>45</ele>
        <time>2020-07-07T19:46:22.000Z</time>
      </trkpt>
      <trkpt lat="43.61006" lon="3.87563">
        <ele>45</ele>
        <time>2020-07-07T19:46:23.000Z</time>
      </trkpt>
      <trkpt lat="43.61008" lon="3.87565">
        <ele>45</ele>
        <time>2020-07-07T19:46:24.000Z</time>
      </trkpt>
      <trkpt lat="43.6101" lon="3.87567">
        <ele>45</ele>
        <time>2020-07-07T19:46:25.000Z</time>
      </trkpt>
      <trkpt lat="43.61011" lon="3.87569">
        <ele>45</ele>
        <time>2020-07-07T19:46:26.000Z</time>
      </trkpt>
      <trkpt lat="43.61013" lon="3.87571">
        <ele>45</ele>
        <time>2020-07-07T19:46:27.000Z</time>
      </trkpt>
      <trkpt lat="43.61016" lon="3.87573">
        <ele>45</ele>
        <time>2020-07-07T19:46:28.000Z</time>
      </trkpt>
      <trkpt lat="43.61017" lon="3.87575">
        <ele>45</ele>
        <time>2020-07-07T19:46:29.000Z</time>
      </trkpt>
      <trkpt lat="43.61019" lon="3.87577">
        <ele>45</ele>
        <time>2020-07-07T19:46:30.000Z</time>
      </trkpt>
      <trkpt lat="43.61021" lon="3.8758">
        <ele>45</ele>
        <time>2020-07-07T19:46:31.000Z</time>
      </trkpt>
      <trkpt lat="43.61023" lon="3.87582">
        <ele>45</ele>
        <time>2020-07-07T19:46:32.000Z</time>
      </trkpt>
      <trkpt lat="43.61024" lon="3.87585">
        <ele>45</ele>
        <time>2020-07-07T19:46:33.000Z</time>
      </trkpt>
      <trkpt lat="43.61026" lon="3.87588">
        <ele>45</ele>
        <time>2020-07-07T19:46:34.000Z</time>
      </trkpt>
      <trkpt lat="43.61027" lon="3.8759">
        <ele>45</ele>
        <time>2020-07-07T19:46:35.000Z</time>
      </trkpt>
      <trkpt lat="43.61028" lon="3.87594">
        <ele>45</ele>
        <time>2020-07-07T19:46:36.000Z</time>
      </trkpt>
      <trkpt lat="43.61029" lon="3.87597">
        <ele>45</ele>
        <time>2020-07-07T19:46:37.000Z</time>
      </trkpt>
      <trkpt lat="43.6103" lon="3.87601">
        <ele>45</ele>
        <time>2020-07-07T19:46:38.000Z</time>
      </trkpt>
      <trkpt lat="43.61031" lon="3.87604">
        <ele>45</ele>
        <time>2020-07-07T19:46:39.000Z</time>
      </trkpt>
      <trkpt lat="43.61031" lon="3.87608">
        <ele>45</ele>
        <time>2020-07-07T19:46:40.000Z</time>
      </trkpt>
      <trkpt lat="43.61033" lon="3.87612">
        <ele>45</ele>
        <time>2020-07-07T19:46:41.000Z</time>
      </trkpt>
      <trkpt lat="43.61034" lon="3.87616">
        <ele>45</ele>
        <time>2020-07-07T19:46:42.000Z</time>
      </trkpt>
      <trkpt lat="43.61034" lon="3.87621">
        <ele>45</ele>
        <time>2020-07-07T19:46:43.000Z</time>
      </trkpt>
      <trkpt lat="43.61038" lon="3.87628">
        <ele>45</ele>
        <time>2020-07-07T19:46:45.000Z</time>
      </trkpt>
      <trkpt lat="43.61039" lon="3.87631">
        <ele>45</ele>
        <time>2020-07-07T19:46:46.000Z</time>
      </trkpt>
      <trkpt lat="43.61041" lon="3.87635">
        <ele>45</ele>
        <time>2020-07-07T19:46:47.000Z</time>
      </trkpt>
      <trkpt lat="43.61044" lon="3.87637">
        <ele>45.032</ele>
        <time>2020-07-07T19:46:48.000Z</time>
      </trkpt>
      <trkpt lat="43.61047" lon="3.8764">
        <ele>45.232</ele>
        <time>2020-07-07T19:46:49.000Z</time>
      </trkpt>
      <trkpt lat="43.61048" lon="3.87643">
        <ele>45.432</ele>
        <time>2020-07-07T19:46:50.000Z</time>
      </trkpt>
      <trkpt lat="43.61051" lon="3.87645">
        <ele>45.632</ele>
        <time>2020-07-07T19:46:51.000Z</time>
      </trkpt>
      <trkpt lat="43.61053" lon="3.87647">
        <ele>45.832</ele>
        <time>2020-07-07T19:46:52.000Z</time>
      </trkpt>
      <trkpt lat="43.61056" lon="3.87659">
        <ele>46.432</ele>
        <time>2020-07-07T19:46:55.000Z</time>
      </trkpt>
      <trkpt lat="43.61055" lon="3.87664">
        <ele>46.632</ele>
        <time>2020-07-07T19:46:56.000Z</time>
      </trkpt>
      <trkpt lat="43.61056" lon="3.87668">
        <ele>46.832</ele>
        <time>2020-07-07T19:46:57.000Z</time>
      </trkpt>
      <trkpt lat="43.61057" lon="3.87671">
        <ele>47.046692607004</ele>
        <time>2020-07-07T19:46:58.000Z</time>
      </trkpt>
      <trkpt lat="43.6106" lon="3.87674">
        <ele>47.338521400778</ele>
        <time>2020-07-07T19:46:59.000Z</time>
      </trkpt>
      <trkpt lat="43.61062" lon="3.87677">
        <ele>47.630350194552</ele>
        <time>2020-07-07T19:47:00.000Z</time>
      </trkpt>
      <trkpt lat="43.61064" lon="3.8768">
        <ele>47.922178988327</ele>
        <time>2020-07-07T19:47:01.000Z</time>
      </trkpt>
      <trkpt lat="43.61067" lon="3.87683">
        <ele>48.214007782101</ele>
        <time>2020-07-07T19:47:02.000Z</time>
      </trkpt>
      <trkpt lat="43.61069" lon="3.87687">
        <ele>48.505836575875</ele>
        <time>2020-07-07T19:47:03.000Z</time>
      </trkpt>
      <trkpt lat="43.61072" lon="3.8769">
        <ele>48.79766536965</ele>
        <time>2020-07-07T19:47:04.000Z</time>
      </trkpt>
      <trkpt lat="43.61075" lon="3.87694">
        <ele>49.089494163424</ele>
        <time>2020-07-07T19:47:05.000Z</time>
      </trkpt>
      <trkpt lat="43.61077" lon="3.87697">
        <ele>49.381322957198</ele>
        <time>2020-07-07T19:47:06.000Z</time>
      </trkpt>
      <trkpt lat="43.6108" lon="3.87699">
        <ele>49.673151750973</ele>
        <time>2020-07-07T19:47:07.000Z</time>
      </trkpt>
      <trkpt lat="43.61083" lon="3.87701">
        <ele>49.964980544747</ele>
        <time>2020-07-07T19:47:08.000Z</time>
      </trkpt>
      <trkpt lat="43.61085" lon="3.87703">
        <ele>50.271604938272</ele>
        <time>2020-07-07T19:47:09.000Z</time>
      </trkpt>
      <trkpt lat="43.61088" lon="3.87703">
        <ele>50.58024691358</ele>
        <time>2020-07-07T19:47:10.000Z</time>
      </trkpt>
      <trkpt lat="43.61091" lon="3.87703">
        <ele>50.888888888889</ele>
        <time>2020-07-07T19:47:11.000Z</time>
      </trkpt>
      <trkpt lat="43.61095" lon="3.87704">
        <ele>51.197530864198</ele>
        <time>2020-07-07T19:47:12.000Z</time>
      </trkpt>
      <trkpt lat="43.61098" lon="3.87705">
        <ele>51.506172839506</ele>
        <time>2020-07-07T19:47:13.000Z</time>
      </trkpt>
      <trkpt lat="43.611" lon="3.87706">
        <ele>51.814814814815</ele>
        <time>2020-07-07T19:47:14.000Z</time>
      </trkpt>
      <trkpt lat="43.61103" lon="3.87707">
        <ele>52.123456790123</ele>
        <time>2020-07-07T19:47:15.000Z</time>
      </trkpt>
      <trkpt lat="43.61105" lon="3.87708">
        <ele>52.432098765432</ele>
        <time>2020-07-07T19:47:16.000Z</time>
      </trkpt>
      <trkpt lat="43.61106" lon="3.87711">
        <ele>52.740740740741</ele>
        <time>2020-07-07T19:47:17.000Z</time>
      </trkpt>
      <trkpt lat="43.61109" lon="3.87714">
        <ele>52.98404786152</ele>
        <time>2020-07-07T19:47:18.000Z</time>
      </trkpt>
      <trkpt lat="43.61111" lon="3.87718">
        <ele>52.884346996021</ele>
        <time>2020-07-07T19:47:19.000Z</time>
      </trkpt>
      <trkpt lat="43.61113" lon="3.87722">
        <ele>52.784646130522</ele>
        <time>2020-07-07T19:47:20.000Z</time>
      </trkpt>
      <trkpt lat="43.61115" lon="3.87726">
        <ele>52.684945265022</ele>
        <time>2020-07-07T19:47:21.000Z</time>
      </trkpt>
      <trkpt lat="43.61117" lon="3.87729">
        <ele>52.585244399523</ele>
        <time>2020-07-07T19:47:22.000Z</time>
      </trkpt>
      <trkpt lat="43.6112" lon="3.87732">
        <ele>52.485543534024</ele>
        <time>2020-07-07T19:47:23.000Z</time>
      </trkpt>
      <trkpt lat="43.61123" lon="3.87734">
        <ele>52.385842668525</ele>
        <time>2020-07-07T19:47:24.000Z</time>
      </trkpt>
      <trkpt lat="43.61127" lon="3.87736">
        <ele>52.286141803026</ele>
        <time>2020-07-07T19:47:25.000Z</time>
      </trkpt>
      <trkpt lat="43.61131" lon="3.87737">
        <ele>52.186440937526</ele>
        <time>2020-07-07T19:47:26.000Z</time>
      </trkpt>
      <trkpt lat="43.61135" lon="3.87739">
        <ele>52.086740072027</ele>
        <time>2020-07-07T19:47:27.000Z</time>
      </trkpt>
      <trkpt lat="43.61139" lon="3.8774">
        <ele>52.026077601148</ele>
        <time>2020-07-07T19:47:28.000Z</time>
      </trkpt>
      <trkpt lat="43.61143" lon="3.87741">
        <ele>52.22667947095</ele>
        <time>2020-07-07T19:47:29.000Z</time>
      </trkpt>
      <trkpt lat="43.61146" lon="3.87743">
        <ele>52.427281340752</ele>
        <time>2020-07-07T19:47:30.000Z</time>
      </trkpt>
      <trkpt lat="43.61149" lon="3.87746">
        <ele>52.627883210554</ele>
        <time>2020-07-07T19:47:31.000Z</time>
      </trkpt>
      <trkpt lat="43.61152" lon="3.87748">
        <ele>52.828485080356</ele>
        <time>2020-07-07T19:47:32.000Z</time>
      </trkpt>
      <trkpt lat="43.61154" lon="3.8775">
        <ele>53.029086950158</ele>
        <time>2020-07-07T19:47:33.000Z</time>
      </trkpt>
      <trkpt lat="43.61157" lon="3.8775">
        <ele>53.22968881996</ele>
        <time>2020-07-07T19:47:34.000Z</time>
      </trkpt>
      <trkpt lat="43.61159" lon="3.87749">
        <ele>53.430290689762</ele>
        <time>2020-07-07T19:47:35.000Z</time>
      </trkpt>
      <trkpt lat="43.61161" lon="3.87748">
        <ele>53.630892559564</ele>
        <time>2020-07-07T19:47:36.000Z</time>
      </trkpt>
      <trkpt lat="43.61163" lon="3.87746">
        <ele>53.831494429366</ele>
        <time>2020-07-07T19:47:37.000Z</time>
      </trkpt>
      <trkpt lat="43.61164" lon="3.87744">
        <ele>54.348</ele>
        <time>2020-07-07T19:47:39.000Z</time>
      </trkpt>
      <trkpt lat="43.61163" lon="3.87744">
        <ele>56.148</ele>
        <time>2020-07-07T19:47:45.000Z</time>
      </trkpt>
      <trkpt lat="43.61162" lon="3.87746">
        <ele>57.22350660593</ele>
        <time>2020-07-07T19:47:49.000Z</time>
      </trkpt>
      <trkpt lat="43.61161" lon="3.87746">
        <ele>57.994219040173</ele>
        <time>2020-07-07T19:47:53.000Z</time>
      </trkpt>
    </trkseg>
  </trk>
</gpx>